<?xml version="1.0" encoding="UTF-8" standalone="no" ?>
<gpx xmlns="http://www.topografix.com/GPX/1/1" xmlns:xsi="http://www.w3.org/2001/XMLSchema-instance" xsi:schemaLocation="http://www.topografix.com/GPX/1/1 http://www.topografix.com/GPX/1/1/gpx.xsd" version="1.1" creator="VisuGPX - https://www.visugpx.com">
  <metadata>
    <name>O-E-Indret Coueron Cordemais Lavau Donges St Nazaire Corsept Paimboeuf Le Pellerin</name>
    <desc><![CDATA[O-E-Indret Coueron Cordemais Lavau Donges St Nazaire Corsept Paimboeuf Le Pellerin]]></desc>
  </metadata>
  <trk>
    <name><![CDATA[2021-06-05 10:56 +02:00]]></name>
    <trkseg>
      <trkpt lat="47.16775" lon="-1.62661">
        <ele>71</ele>
        <time>2021-06-05T08:56:08.000Z</time>
      </trkpt>
      <trkpt lat="47.16785" lon="-1.62656">
        <ele>79</ele>
        <time>2021-06-05T08:56:32.000Z</time>
      </trkpt>
      <trkpt lat="47.1679" lon="-1.62667">
        <ele>73</ele>
        <time>2021-06-05T09:00:41.000Z</time>
      </trkpt>
      <trkpt lat="47.16782" lon="-1.62678">
        <ele>73</ele>
        <time>2021-06-05T09:00:43.000Z</time>
      </trkpt>
      <trkpt lat="47.1677" lon="-1.62678">
        <ele>74</ele>
        <time>2021-06-05T09:00:45.000Z</time>
      </trkpt>
      <trkpt lat="47.1676" lon="-1.62673">
        <ele>74</ele>
        <time>2021-06-05T09:00:47.000Z</time>
      </trkpt>
      <trkpt lat="47.16748" lon="-1.62678">
        <ele>73</ele>
        <time>2021-06-05T09:00:49.000Z</time>
      </trkpt>
      <trkpt lat="47.16738" lon="-1.62686">
        <ele>74</ele>
        <time>2021-06-05T09:00:51.000Z</time>
      </trkpt>
      <trkpt lat="47.16729" lon="-1.62693">
        <ele>74</ele>
        <time>2021-06-05T09:00:53.000Z</time>
      </trkpt>
      <trkpt lat="47.16723" lon="-1.62704">
        <ele>73</ele>
        <time>2021-06-05T09:00:55.000Z</time>
      </trkpt>
      <trkpt lat="47.16727" lon="-1.62717">
        <ele>73</ele>
        <time>2021-06-05T09:00:57.000Z</time>
      </trkpt>
      <trkpt lat="47.16733" lon="-1.6273">
        <ele>72</ele>
        <time>2021-06-05T09:00:59.000Z</time>
      </trkpt>
      <trkpt lat="47.16741" lon="-1.62743">
        <ele>71</ele>
        <time>2021-06-05T09:01:01.000Z</time>
      </trkpt>
      <trkpt lat="47.16751" lon="-1.62756">
        <ele>71</ele>
        <time>2021-06-05T09:01:03.000Z</time>
      </trkpt>
      <trkpt lat="47.16761" lon="-1.62768">
        <ele>70</ele>
        <time>2021-06-05T09:01:05.000Z</time>
      </trkpt>
      <trkpt lat="47.16773" lon="-1.62778">
        <ele>70</ele>
        <time>2021-06-05T09:01:07.000Z</time>
      </trkpt>
      <trkpt lat="47.16784" lon="-1.62789">
        <ele>69</ele>
        <time>2021-06-05T09:01:09.000Z</time>
      </trkpt>
      <trkpt lat="47.16796" lon="-1.628">
        <ele>68</ele>
        <time>2021-06-05T09:01:11.000Z</time>
      </trkpt>
      <trkpt lat="47.16807" lon="-1.6281">
        <ele>68</ele>
        <time>2021-06-05T09:01:13.000Z</time>
      </trkpt>
      <trkpt lat="47.16818" lon="-1.6282">
        <ele>68</ele>
        <time>2021-06-05T09:01:15.000Z</time>
      </trkpt>
      <trkpt lat="47.16828" lon="-1.6283">
        <ele>69</ele>
        <time>2021-06-05T09:01:17.000Z</time>
      </trkpt>
      <trkpt lat="47.16839" lon="-1.6284">
        <ele>69</ele>
        <time>2021-06-05T09:01:19.000Z</time>
      </trkpt>
      <trkpt lat="47.16849" lon="-1.62851">
        <ele>69</ele>
        <time>2021-06-05T09:01:21.000Z</time>
      </trkpt>
      <trkpt lat="47.16858" lon="-1.62861">
        <ele>69</ele>
        <time>2021-06-05T09:01:23.000Z</time>
      </trkpt>
      <trkpt lat="47.16868" lon="-1.62871">
        <ele>69</ele>
        <time>2021-06-05T09:01:25.000Z</time>
      </trkpt>
      <trkpt lat="47.16877" lon="-1.62884">
        <ele>70</ele>
        <time>2021-06-05T09:01:27.000Z</time>
      </trkpt>
      <trkpt lat="47.16884" lon="-1.62898">
        <ele>70</ele>
        <time>2021-06-05T09:01:29.000Z</time>
      </trkpt>
      <trkpt lat="47.16889" lon="-1.62914">
        <ele>70</ele>
        <time>2021-06-05T09:01:31.000Z</time>
      </trkpt>
      <trkpt lat="47.16892" lon="-1.62931">
        <ele>70</ele>
        <time>2021-06-05T09:01:33.000Z</time>
      </trkpt>
      <trkpt lat="47.16894" lon="-1.62949">
        <ele>70</ele>
        <time>2021-06-05T09:01:35.000Z</time>
      </trkpt>
      <trkpt lat="47.16894" lon="-1.62968">
        <ele>71</ele>
        <time>2021-06-05T09:01:37.000Z</time>
      </trkpt>
      <trkpt lat="47.16893" lon="-1.62986">
        <ele>72</ele>
        <time>2021-06-05T09:01:39.000Z</time>
      </trkpt>
      <trkpt lat="47.16891" lon="-1.63005">
        <ele>72</ele>
        <time>2021-06-05T09:01:41.000Z</time>
      </trkpt>
      <trkpt lat="47.16889" lon="-1.63024">
        <ele>72</ele>
        <time>2021-06-05T09:01:43.000Z</time>
      </trkpt>
      <trkpt lat="47.16889" lon="-1.63042">
        <ele>73</ele>
        <time>2021-06-05T09:01:45.000Z</time>
      </trkpt>
      <trkpt lat="47.1689" lon="-1.63061">
        <ele>73</ele>
        <time>2021-06-05T09:01:47.000Z</time>
      </trkpt>
      <trkpt lat="47.16891" lon="-1.63079">
        <ele>73</ele>
        <time>2021-06-05T09:01:49.000Z</time>
      </trkpt>
      <trkpt lat="47.16894" lon="-1.63097">
        <ele>74</ele>
        <time>2021-06-05T09:01:51.000Z</time>
      </trkpt>
      <trkpt lat="47.16897" lon="-1.63114">
        <ele>74</ele>
        <time>2021-06-05T09:01:53.000Z</time>
      </trkpt>
      <trkpt lat="47.16902" lon="-1.63132">
        <ele>74</ele>
        <time>2021-06-05T09:01:55.000Z</time>
      </trkpt>
      <trkpt lat="47.16907" lon="-1.63148">
        <ele>74</ele>
        <time>2021-06-05T09:01:57.000Z</time>
      </trkpt>
      <trkpt lat="47.16913" lon="-1.63164">
        <ele>74</ele>
        <time>2021-06-05T09:01:59.000Z</time>
      </trkpt>
      <trkpt lat="47.1692" lon="-1.63179">
        <ele>74</ele>
        <time>2021-06-05T09:02:01.000Z</time>
      </trkpt>
      <trkpt lat="47.16927" lon="-1.63193">
        <ele>74</ele>
        <time>2021-06-05T09:02:03.000Z</time>
      </trkpt>
      <trkpt lat="47.16935" lon="-1.63206">
        <ele>74</ele>
        <time>2021-06-05T09:02:05.000Z</time>
      </trkpt>
      <trkpt lat="47.16943" lon="-1.63218">
        <ele>74</ele>
        <time>2021-06-05T09:02:07.000Z</time>
      </trkpt>
      <trkpt lat="47.16952" lon="-1.6323">
        <ele>74</ele>
        <time>2021-06-05T09:02:09.000Z</time>
      </trkpt>
      <trkpt lat="47.16959" lon="-1.6324">
        <ele>74</ele>
        <time>2021-06-05T09:02:11.000Z</time>
      </trkpt>
      <trkpt lat="47.16966" lon="-1.63249">
        <ele>74</ele>
        <time>2021-06-05T09:02:13.000Z</time>
      </trkpt>
      <trkpt lat="47.16968" lon="-1.63267">
        <ele>74</ele>
        <time>2021-06-05T09:02:17.000Z</time>
      </trkpt>
      <trkpt lat="47.1696" lon="-1.63279">
        <ele>75</ele>
        <time>2021-06-05T09:02:19.000Z</time>
      </trkpt>
      <trkpt lat="47.16952" lon="-1.63293">
        <ele>76</ele>
        <time>2021-06-05T09:02:21.000Z</time>
      </trkpt>
      <trkpt lat="47.16944" lon="-1.63308">
        <ele>76</ele>
        <time>2021-06-05T09:02:23.000Z</time>
      </trkpt>
      <trkpt lat="47.16935" lon="-1.63322">
        <ele>77</ele>
        <time>2021-06-05T09:02:25.000Z</time>
      </trkpt>
      <trkpt lat="47.16926" lon="-1.63336">
        <ele>78</ele>
        <time>2021-06-05T09:02:27.000Z</time>
      </trkpt>
      <trkpt lat="47.16917" lon="-1.63349">
        <ele>79</ele>
        <time>2021-06-05T09:02:29.000Z</time>
      </trkpt>
      <trkpt lat="47.16908" lon="-1.63362">
        <ele>80</ele>
        <time>2021-06-05T09:02:31.000Z</time>
      </trkpt>
      <trkpt lat="47.16898" lon="-1.63376">
        <ele>80</ele>
        <time>2021-06-05T09:02:33.000Z</time>
      </trkpt>
      <trkpt lat="47.1689" lon="-1.6339">
        <ele>80</ele>
        <time>2021-06-05T09:02:35.000Z</time>
      </trkpt>
      <trkpt lat="47.16881" lon="-1.63404">
        <ele>81</ele>
        <time>2021-06-05T09:02:37.000Z</time>
      </trkpt>
      <trkpt lat="47.16873" lon="-1.63418">
        <ele>81</ele>
        <time>2021-06-05T09:02:39.000Z</time>
      </trkpt>
      <trkpt lat="47.16864" lon="-1.63432">
        <ele>82</ele>
        <time>2021-06-05T09:02:41.000Z</time>
      </trkpt>
      <trkpt lat="47.16856" lon="-1.63447">
        <ele>82</ele>
        <time>2021-06-05T09:02:43.000Z</time>
      </trkpt>
      <trkpt lat="47.16847" lon="-1.63461">
        <ele>82</ele>
        <time>2021-06-05T09:02:45.000Z</time>
      </trkpt>
      <trkpt lat="47.16839" lon="-1.63476">
        <ele>82</ele>
        <time>2021-06-05T09:02:47.000Z</time>
      </trkpt>
      <trkpt lat="47.16829" lon="-1.6349">
        <ele>82</ele>
        <time>2021-06-05T09:02:49.000Z</time>
      </trkpt>
      <trkpt lat="47.1682" lon="-1.63504">
        <ele>81</ele>
        <time>2021-06-05T09:02:51.000Z</time>
      </trkpt>
      <trkpt lat="47.16811" lon="-1.63519">
        <ele>81</ele>
        <time>2021-06-05T09:02:53.000Z</time>
      </trkpt>
      <trkpt lat="47.16803" lon="-1.63534">
        <ele>81</ele>
        <time>2021-06-05T09:02:55.000Z</time>
      </trkpt>
      <trkpt lat="47.16794" lon="-1.63548">
        <ele>81</ele>
        <time>2021-06-05T09:02:57.000Z</time>
      </trkpt>
      <trkpt lat="47.16786" lon="-1.63563">
        <ele>81</ele>
        <time>2021-06-05T09:02:59.000Z</time>
      </trkpt>
      <trkpt lat="47.16777" lon="-1.63579">
        <ele>81</ele>
        <time>2021-06-05T09:03:01.000Z</time>
      </trkpt>
      <trkpt lat="47.16769" lon="-1.63594">
        <ele>81</ele>
        <time>2021-06-05T09:03:03.000Z</time>
      </trkpt>
      <trkpt lat="47.1676" lon="-1.63609">
        <ele>80</ele>
        <time>2021-06-05T09:03:05.000Z</time>
      </trkpt>
      <trkpt lat="47.16751" lon="-1.63624">
        <ele>80</ele>
        <time>2021-06-05T09:03:07.000Z</time>
      </trkpt>
      <trkpt lat="47.16747" lon="-1.63641">
        <ele>80</ele>
        <time>2021-06-05T09:03:09.000Z</time>
      </trkpt>
      <trkpt lat="47.16758" lon="-1.63648">
        <ele>79</ele>
        <time>2021-06-05T09:03:11.000Z</time>
      </trkpt>
      <trkpt lat="47.16771" lon="-1.63652">
        <ele>78</ele>
        <time>2021-06-05T09:03:13.000Z</time>
      </trkpt>
      <trkpt lat="47.16784" lon="-1.63657">
        <ele>77</ele>
        <time>2021-06-05T09:03:15.000Z</time>
      </trkpt>
      <trkpt lat="47.16797" lon="-1.63662">
        <ele>77</ele>
        <time>2021-06-05T09:03:17.000Z</time>
      </trkpt>
      <trkpt lat="47.16809" lon="-1.63668">
        <ele>76</ele>
        <time>2021-06-05T09:03:19.000Z</time>
      </trkpt>
      <trkpt lat="47.16822" lon="-1.63672">
        <ele>76</ele>
        <time>2021-06-05T09:03:21.000Z</time>
      </trkpt>
      <trkpt lat="47.16834" lon="-1.63676">
        <ele>76</ele>
        <time>2021-06-05T09:03:23.000Z</time>
      </trkpt>
      <trkpt lat="47.16847" lon="-1.63681">
        <ele>76</ele>
        <time>2021-06-05T09:03:25.000Z</time>
      </trkpt>
      <trkpt lat="47.1686" lon="-1.63686">
        <ele>76</ele>
        <time>2021-06-05T09:03:27.000Z</time>
      </trkpt>
      <trkpt lat="47.16873" lon="-1.6369">
        <ele>76</ele>
        <time>2021-06-05T09:03:29.000Z</time>
      </trkpt>
      <trkpt lat="47.16886" lon="-1.63695">
        <ele>76</ele>
        <time>2021-06-05T09:03:31.000Z</time>
      </trkpt>
      <trkpt lat="47.16899" lon="-1.637">
        <ele>76</ele>
        <time>2021-06-05T09:03:33.000Z</time>
      </trkpt>
      <trkpt lat="47.16913" lon="-1.63706">
        <ele>76</ele>
        <time>2021-06-05T09:03:35.000Z</time>
      </trkpt>
      <trkpt lat="47.16926" lon="-1.63711">
        <ele>75</ele>
        <time>2021-06-05T09:03:37.000Z</time>
      </trkpt>
      <trkpt lat="47.1694" lon="-1.63716">
        <ele>75</ele>
        <time>2021-06-05T09:03:39.000Z</time>
      </trkpt>
      <trkpt lat="47.16954" lon="-1.63721">
        <ele>75</ele>
        <time>2021-06-05T09:03:41.000Z</time>
      </trkpt>
      <trkpt lat="47.16967" lon="-1.63725">
        <ele>75</ele>
        <time>2021-06-05T09:03:43.000Z</time>
      </trkpt>
      <trkpt lat="47.16981" lon="-1.6373">
        <ele>75</ele>
        <time>2021-06-05T09:03:45.000Z</time>
      </trkpt>
      <trkpt lat="47.16994" lon="-1.63735">
        <ele>75</ele>
        <time>2021-06-05T09:03:47.000Z</time>
      </trkpt>
      <trkpt lat="47.17007" lon="-1.6374">
        <ele>74</ele>
        <time>2021-06-05T09:03:49.000Z</time>
      </trkpt>
      <trkpt lat="47.1702" lon="-1.63744">
        <ele>74</ele>
        <time>2021-06-05T09:03:51.000Z</time>
      </trkpt>
      <trkpt lat="47.17034" lon="-1.6375">
        <ele>74</ele>
        <time>2021-06-05T09:03:53.000Z</time>
      </trkpt>
      <trkpt lat="47.17046" lon="-1.63756">
        <ele>74</ele>
        <time>2021-06-05T09:03:55.000Z</time>
      </trkpt>
      <trkpt lat="47.17058" lon="-1.63766">
        <ele>74</ele>
        <time>2021-06-05T09:03:57.000Z</time>
      </trkpt>
      <trkpt lat="47.17068" lon="-1.6378">
        <ele>74</ele>
        <time>2021-06-05T09:03:59.000Z</time>
      </trkpt>
      <trkpt lat="47.17074" lon="-1.63799">
        <ele>74</ele>
        <time>2021-06-05T09:04:01.000Z</time>
      </trkpt>
      <trkpt lat="47.17079" lon="-1.63818">
        <ele>75</ele>
        <time>2021-06-05T09:04:03.000Z</time>
      </trkpt>
      <trkpt lat="47.17084" lon="-1.63836">
        <ele>75</ele>
        <time>2021-06-05T09:04:05.000Z</time>
      </trkpt>
      <trkpt lat="47.1709" lon="-1.63853">
        <ele>75</ele>
        <time>2021-06-05T09:04:07.000Z</time>
      </trkpt>
      <trkpt lat="47.17096" lon="-1.63871">
        <ele>76</ele>
        <time>2021-06-05T09:04:09.000Z</time>
      </trkpt>
      <trkpt lat="47.17102" lon="-1.63889">
        <ele>75</ele>
        <time>2021-06-05T09:04:11.000Z</time>
      </trkpt>
      <trkpt lat="47.17108" lon="-1.63906">
        <ele>75</ele>
        <time>2021-06-05T09:04:13.000Z</time>
      </trkpt>
      <trkpt lat="47.17115" lon="-1.63923">
        <ele>75</ele>
        <time>2021-06-05T09:04:15.000Z</time>
      </trkpt>
      <trkpt lat="47.17122" lon="-1.63937">
        <ele>75</ele>
        <time>2021-06-05T09:04:17.000Z</time>
      </trkpt>
      <trkpt lat="47.17131" lon="-1.63944">
        <ele>75</ele>
        <time>2021-06-05T09:04:19.000Z</time>
      </trkpt>
      <trkpt lat="47.1714" lon="-1.63955">
        <ele>76</ele>
        <time>2021-06-05T09:04:22.000Z</time>
      </trkpt>
      <trkpt lat="47.17141" lon="-1.63973">
        <ele>76</ele>
        <time>2021-06-05T09:04:24.000Z</time>
      </trkpt>
      <trkpt lat="47.1714" lon="-1.63991">
        <ele>76</ele>
        <time>2021-06-05T09:04:26.000Z</time>
      </trkpt>
      <trkpt lat="47.17138" lon="-1.6401">
        <ele>77</ele>
        <time>2021-06-05T09:04:28.000Z</time>
      </trkpt>
      <trkpt lat="47.17136" lon="-1.6403">
        <ele>77</ele>
        <time>2021-06-05T09:04:30.000Z</time>
      </trkpt>
      <trkpt lat="47.17134" lon="-1.64049">
        <ele>77</ele>
        <time>2021-06-05T09:04:32.000Z</time>
      </trkpt>
      <trkpt lat="47.17132" lon="-1.64069">
        <ele>77</ele>
        <time>2021-06-05T09:04:34.000Z</time>
      </trkpt>
      <trkpt lat="47.1713" lon="-1.64089">
        <ele>77</ele>
        <time>2021-06-05T09:04:36.000Z</time>
      </trkpt>
      <trkpt lat="47.17128" lon="-1.64109">
        <ele>77</ele>
        <time>2021-06-05T09:04:38.000Z</time>
      </trkpt>
      <trkpt lat="47.17126" lon="-1.64128">
        <ele>77</ele>
        <time>2021-06-05T09:04:40.000Z</time>
      </trkpt>
      <trkpt lat="47.17124" lon="-1.64148">
        <ele>77</ele>
        <time>2021-06-05T09:04:42.000Z</time>
      </trkpt>
      <trkpt lat="47.17123" lon="-1.64168">
        <ele>77</ele>
        <time>2021-06-05T09:04:44.000Z</time>
      </trkpt>
      <trkpt lat="47.1712" lon="-1.64189">
        <ele>77</ele>
        <time>2021-06-05T09:04:46.000Z</time>
      </trkpt>
      <trkpt lat="47.17117" lon="-1.64209">
        <ele>77</ele>
        <time>2021-06-05T09:04:48.000Z</time>
      </trkpt>
      <trkpt lat="47.17115" lon="-1.64229">
        <ele>77</ele>
        <time>2021-06-05T09:04:50.000Z</time>
      </trkpt>
      <trkpt lat="47.17112" lon="-1.64249">
        <ele>77</ele>
        <time>2021-06-05T09:04:52.000Z</time>
      </trkpt>
      <trkpt lat="47.1711" lon="-1.64269">
        <ele>77</ele>
        <time>2021-06-05T09:04:54.000Z</time>
      </trkpt>
      <trkpt lat="47.17109" lon="-1.6429">
        <ele>77</ele>
        <time>2021-06-05T09:04:56.000Z</time>
      </trkpt>
      <trkpt lat="47.17107" lon="-1.6431">
        <ele>77</ele>
        <time>2021-06-05T09:04:58.000Z</time>
      </trkpt>
      <trkpt lat="47.17105" lon="-1.6433">
        <ele>77</ele>
        <time>2021-06-05T09:05:00.000Z</time>
      </trkpt>
      <trkpt lat="47.17103" lon="-1.6435">
        <ele>77</ele>
        <time>2021-06-05T09:05:02.000Z</time>
      </trkpt>
      <trkpt lat="47.17101" lon="-1.6437">
        <ele>78</ele>
        <time>2021-06-05T09:05:04.000Z</time>
      </trkpt>
      <trkpt lat="47.17099" lon="-1.64391">
        <ele>78</ele>
        <time>2021-06-05T09:05:06.000Z</time>
      </trkpt>
      <trkpt lat="47.17098" lon="-1.64411">
        <ele>79</ele>
        <time>2021-06-05T09:05:08.000Z</time>
      </trkpt>
      <trkpt lat="47.17097" lon="-1.64432">
        <ele>79</ele>
        <time>2021-06-05T09:05:10.000Z</time>
      </trkpt>
      <trkpt lat="47.17095" lon="-1.64452">
        <ele>78</ele>
        <time>2021-06-05T09:05:12.000Z</time>
      </trkpt>
      <trkpt lat="47.17094" lon="-1.64473">
        <ele>78</ele>
        <time>2021-06-05T09:05:14.000Z</time>
      </trkpt>
      <trkpt lat="47.17094" lon="-1.64494">
        <ele>78</ele>
        <time>2021-06-05T09:05:16.000Z</time>
      </trkpt>
      <trkpt lat="47.17093" lon="-1.64515">
        <ele>78</ele>
        <time>2021-06-05T09:05:18.000Z</time>
      </trkpt>
      <trkpt lat="47.17092" lon="-1.64536">
        <ele>78</ele>
        <time>2021-06-05T09:05:20.000Z</time>
      </trkpt>
      <trkpt lat="47.17091" lon="-1.64557">
        <ele>77</ele>
        <time>2021-06-05T09:05:22.000Z</time>
      </trkpt>
      <trkpt lat="47.1709" lon="-1.64578">
        <ele>77</ele>
        <time>2021-06-05T09:05:24.000Z</time>
      </trkpt>
      <trkpt lat="47.17089" lon="-1.64599">
        <ele>77</ele>
        <time>2021-06-05T09:05:26.000Z</time>
      </trkpt>
      <trkpt lat="47.17089" lon="-1.64619">
        <ele>77</ele>
        <time>2021-06-05T09:05:28.000Z</time>
      </trkpt>
      <trkpt lat="47.17088" lon="-1.6464">
        <ele>77</ele>
        <time>2021-06-05T09:05:30.000Z</time>
      </trkpt>
      <trkpt lat="47.17089" lon="-1.6466">
        <ele>77</ele>
        <time>2021-06-05T09:05:32.000Z</time>
      </trkpt>
      <trkpt lat="47.17089" lon="-1.64681">
        <ele>77</ele>
        <time>2021-06-05T09:05:34.000Z</time>
      </trkpt>
      <trkpt lat="47.1709" lon="-1.64701">
        <ele>77</ele>
        <time>2021-06-05T09:05:36.000Z</time>
      </trkpt>
      <trkpt lat="47.17091" lon="-1.64722">
        <ele>77</ele>
        <time>2021-06-05T09:05:38.000Z</time>
      </trkpt>
      <trkpt lat="47.17093" lon="-1.64742">
        <ele>77</ele>
        <time>2021-06-05T09:05:40.000Z</time>
      </trkpt>
      <trkpt lat="47.17094" lon="-1.64762">
        <ele>78</ele>
        <time>2021-06-05T09:05:42.000Z</time>
      </trkpt>
      <trkpt lat="47.17094" lon="-1.64781">
        <ele>78</ele>
        <time>2021-06-05T09:05:44.000Z</time>
      </trkpt>
      <trkpt lat="47.17095" lon="-1.64802">
        <ele>78</ele>
        <time>2021-06-05T09:05:46.000Z</time>
      </trkpt>
      <trkpt lat="47.17096" lon="-1.64823">
        <ele>78</ele>
        <time>2021-06-05T09:05:48.000Z</time>
      </trkpt>
      <trkpt lat="47.17097" lon="-1.64843">
        <ele>78</ele>
        <time>2021-06-05T09:05:50.000Z</time>
      </trkpt>
      <trkpt lat="47.17098" lon="-1.64864">
        <ele>78</ele>
        <time>2021-06-05T09:05:52.000Z</time>
      </trkpt>
      <trkpt lat="47.171" lon="-1.64886">
        <ele>77</ele>
        <time>2021-06-05T09:05:54.000Z</time>
      </trkpt>
      <trkpt lat="47.17103" lon="-1.64907">
        <ele>76</ele>
        <time>2021-06-05T09:05:56.000Z</time>
      </trkpt>
      <trkpt lat="47.17104" lon="-1.64928">
        <ele>76</ele>
        <time>2021-06-05T09:05:58.000Z</time>
      </trkpt>
      <trkpt lat="47.17105" lon="-1.64949">
        <ele>75</ele>
        <time>2021-06-05T09:06:00.000Z</time>
      </trkpt>
      <trkpt lat="47.17107" lon="-1.6497">
        <ele>75</ele>
        <time>2021-06-05T09:06:02.000Z</time>
      </trkpt>
      <trkpt lat="47.17108" lon="-1.6499">
        <ele>75</ele>
        <time>2021-06-05T09:06:04.000Z</time>
      </trkpt>
      <trkpt lat="47.1711" lon="-1.65009">
        <ele>75</ele>
        <time>2021-06-05T09:06:06.000Z</time>
      </trkpt>
      <trkpt lat="47.17112" lon="-1.65029">
        <ele>75</ele>
        <time>2021-06-05T09:06:08.000Z</time>
      </trkpt>
      <trkpt lat="47.17113" lon="-1.65048">
        <ele>75</ele>
        <time>2021-06-05T09:06:10.000Z</time>
      </trkpt>
      <trkpt lat="47.17115" lon="-1.65067">
        <ele>75</ele>
        <time>2021-06-05T09:06:12.000Z</time>
      </trkpt>
      <trkpt lat="47.17116" lon="-1.65086">
        <ele>75</ele>
        <time>2021-06-05T09:06:14.000Z</time>
      </trkpt>
      <trkpt lat="47.17118" lon="-1.65106">
        <ele>75</ele>
        <time>2021-06-05T09:06:16.000Z</time>
      </trkpt>
      <trkpt lat="47.17119" lon="-1.65126">
        <ele>76</ele>
        <time>2021-06-05T09:06:18.000Z</time>
      </trkpt>
      <trkpt lat="47.1712" lon="-1.65146">
        <ele>76</ele>
        <time>2021-06-05T09:06:20.000Z</time>
      </trkpt>
      <trkpt lat="47.17121" lon="-1.65166">
        <ele>76</ele>
        <time>2021-06-05T09:06:22.000Z</time>
      </trkpt>
      <trkpt lat="47.17122" lon="-1.65186">
        <ele>77</ele>
        <time>2021-06-05T09:06:24.000Z</time>
      </trkpt>
      <trkpt lat="47.17123" lon="-1.65205">
        <ele>77</ele>
        <time>2021-06-05T09:06:26.000Z</time>
      </trkpt>
      <trkpt lat="47.17124" lon="-1.65224">
        <ele>77</ele>
        <time>2021-06-05T09:06:28.000Z</time>
      </trkpt>
      <trkpt lat="47.17127" lon="-1.65243">
        <ele>77</ele>
        <time>2021-06-05T09:06:30.000Z</time>
      </trkpt>
      <trkpt lat="47.17131" lon="-1.65262">
        <ele>78</ele>
        <time>2021-06-05T09:06:32.000Z</time>
      </trkpt>
      <trkpt lat="47.1714" lon="-1.65277">
        <ele>78</ele>
        <time>2021-06-05T09:06:34.000Z</time>
      </trkpt>
      <trkpt lat="47.17149" lon="-1.65289">
        <ele>77</ele>
        <time>2021-06-05T09:06:36.000Z</time>
      </trkpt>
      <trkpt lat="47.1716" lon="-1.653">
        <ele>77</ele>
        <time>2021-06-05T09:06:38.000Z</time>
      </trkpt>
      <trkpt lat="47.17171" lon="-1.65313">
        <ele>77</ele>
        <time>2021-06-05T09:06:40.000Z</time>
      </trkpt>
      <trkpt lat="47.17178" lon="-1.65331">
        <ele>76</ele>
        <time>2021-06-05T09:06:42.000Z</time>
      </trkpt>
      <trkpt lat="47.17181" lon="-1.65351">
        <ele>76</ele>
        <time>2021-06-05T09:06:44.000Z</time>
      </trkpt>
      <trkpt lat="47.17179" lon="-1.65371">
        <ele>76</ele>
        <time>2021-06-05T09:06:46.000Z</time>
      </trkpt>
      <trkpt lat="47.17176" lon="-1.65391">
        <ele>76</ele>
        <time>2021-06-05T09:06:48.000Z</time>
      </trkpt>
      <trkpt lat="47.17173" lon="-1.65411">
        <ele>77</ele>
        <time>2021-06-05T09:06:50.000Z</time>
      </trkpt>
      <trkpt lat="47.17171" lon="-1.65432">
        <ele>77</ele>
        <time>2021-06-05T09:06:52.000Z</time>
      </trkpt>
      <trkpt lat="47.17168" lon="-1.65453">
        <ele>77</ele>
        <time>2021-06-05T09:06:54.000Z</time>
      </trkpt>
      <trkpt lat="47.17166" lon="-1.65473">
        <ele>78</ele>
        <time>2021-06-05T09:06:56.000Z</time>
      </trkpt>
      <trkpt lat="47.17164" lon="-1.65494">
        <ele>78</ele>
        <time>2021-06-05T09:06:58.000Z</time>
      </trkpt>
      <trkpt lat="47.17162" lon="-1.65514">
        <ele>78</ele>
        <time>2021-06-05T09:07:00.000Z</time>
      </trkpt>
      <trkpt lat="47.1716" lon="-1.65534">
        <ele>78</ele>
        <time>2021-06-05T09:07:02.000Z</time>
      </trkpt>
      <trkpt lat="47.17159" lon="-1.65554">
        <ele>78</ele>
        <time>2021-06-05T09:07:04.000Z</time>
      </trkpt>
      <trkpt lat="47.17158" lon="-1.65573">
        <ele>78</ele>
        <time>2021-06-05T09:07:06.000Z</time>
      </trkpt>
      <trkpt lat="47.17157" lon="-1.65593">
        <ele>78</ele>
        <time>2021-06-05T09:07:08.000Z</time>
      </trkpt>
      <trkpt lat="47.17156" lon="-1.65613">
        <ele>78</ele>
        <time>2021-06-05T09:07:10.000Z</time>
      </trkpt>
      <trkpt lat="47.17155" lon="-1.65632">
        <ele>77</ele>
        <time>2021-06-05T09:07:12.000Z</time>
      </trkpt>
      <trkpt lat="47.17155" lon="-1.65653">
        <ele>77</ele>
        <time>2021-06-05T09:07:14.000Z</time>
      </trkpt>
      <trkpt lat="47.17156" lon="-1.65673">
        <ele>77</ele>
        <time>2021-06-05T09:07:16.000Z</time>
      </trkpt>
      <trkpt lat="47.17157" lon="-1.65694">
        <ele>77</ele>
        <time>2021-06-05T09:07:18.000Z</time>
      </trkpt>
      <trkpt lat="47.17158" lon="-1.65714">
        <ele>77</ele>
        <time>2021-06-05T09:07:20.000Z</time>
      </trkpt>
      <trkpt lat="47.17159" lon="-1.65734">
        <ele>78</ele>
        <time>2021-06-05T09:07:22.000Z</time>
      </trkpt>
      <trkpt lat="47.1716" lon="-1.65754">
        <ele>78</ele>
        <time>2021-06-05T09:07:24.000Z</time>
      </trkpt>
      <trkpt lat="47.17163" lon="-1.65774">
        <ele>78</ele>
        <time>2021-06-05T09:07:26.000Z</time>
      </trkpt>
      <trkpt lat="47.17165" lon="-1.65794">
        <ele>78</ele>
        <time>2021-06-05T09:07:28.000Z</time>
      </trkpt>
      <trkpt lat="47.17168" lon="-1.65815">
        <ele>77</ele>
        <time>2021-06-05T09:07:30.000Z</time>
      </trkpt>
      <trkpt lat="47.1717" lon="-1.65834">
        <ele>78</ele>
        <time>2021-06-05T09:07:32.000Z</time>
      </trkpt>
      <trkpt lat="47.17173" lon="-1.65854">
        <ele>77</ele>
        <time>2021-06-05T09:07:34.000Z</time>
      </trkpt>
      <trkpt lat="47.17177" lon="-1.65874">
        <ele>77</ele>
        <time>2021-06-05T09:07:36.000Z</time>
      </trkpt>
      <trkpt lat="47.17181" lon="-1.65893">
        <ele>77</ele>
        <time>2021-06-05T09:07:38.000Z</time>
      </trkpt>
      <trkpt lat="47.17184" lon="-1.65913">
        <ele>77</ele>
        <time>2021-06-05T09:07:40.000Z</time>
      </trkpt>
      <trkpt lat="47.17188" lon="-1.65932">
        <ele>77</ele>
        <time>2021-06-05T09:07:42.000Z</time>
      </trkpt>
      <trkpt lat="47.17191" lon="-1.65951">
        <ele>77</ele>
        <time>2021-06-05T09:07:44.000Z</time>
      </trkpt>
      <trkpt lat="47.17195" lon="-1.65971">
        <ele>77</ele>
        <time>2021-06-05T09:07:46.000Z</time>
      </trkpt>
      <trkpt lat="47.17199" lon="-1.6599">
        <ele>77</ele>
        <time>2021-06-05T09:07:48.000Z</time>
      </trkpt>
      <trkpt lat="47.17203" lon="-1.6601">
        <ele>77</ele>
        <time>2021-06-05T09:07:50.000Z</time>
      </trkpt>
      <trkpt lat="47.17206" lon="-1.66029">
        <ele>77</ele>
        <time>2021-06-05T09:07:52.000Z</time>
      </trkpt>
      <trkpt lat="47.17211" lon="-1.66048">
        <ele>76</ele>
        <time>2021-06-05T09:07:54.000Z</time>
      </trkpt>
      <trkpt lat="47.17214" lon="-1.66068">
        <ele>76</ele>
        <time>2021-06-05T09:07:56.000Z</time>
      </trkpt>
      <trkpt lat="47.17218" lon="-1.66088">
        <ele>76</ele>
        <time>2021-06-05T09:07:58.000Z</time>
      </trkpt>
      <trkpt lat="47.17222" lon="-1.66106">
        <ele>76</ele>
        <time>2021-06-05T09:08:00.000Z</time>
      </trkpt>
      <trkpt lat="47.17226" lon="-1.66124">
        <ele>77</ele>
        <time>2021-06-05T09:08:02.000Z</time>
      </trkpt>
      <trkpt lat="47.17231" lon="-1.66142">
        <ele>77</ele>
        <time>2021-06-05T09:08:04.000Z</time>
      </trkpt>
      <trkpt lat="47.17234" lon="-1.6616">
        <ele>77</ele>
        <time>2021-06-05T09:08:06.000Z</time>
      </trkpt>
      <trkpt lat="47.17241" lon="-1.66175">
        <ele>77</ele>
        <time>2021-06-05T09:08:08.000Z</time>
      </trkpt>
      <trkpt lat="47.17248" lon="-1.66189">
        <ele>78</ele>
        <time>2021-06-05T09:08:10.000Z</time>
      </trkpt>
      <trkpt lat="47.17256" lon="-1.66202">
        <ele>79</ele>
        <time>2021-06-05T09:08:12.000Z</time>
      </trkpt>
      <trkpt lat="47.17263" lon="-1.66215">
        <ele>80</ele>
        <time>2021-06-05T09:08:14.000Z</time>
      </trkpt>
      <trkpt lat="47.17269" lon="-1.66228">
        <ele>81</ele>
        <time>2021-06-05T09:08:16.000Z</time>
      </trkpt>
      <trkpt lat="47.17276" lon="-1.66241">
        <ele>82</ele>
        <time>2021-06-05T09:08:18.000Z</time>
      </trkpt>
      <trkpt lat="47.17283" lon="-1.66255">
        <ele>83</ele>
        <time>2021-06-05T09:08:20.000Z</time>
      </trkpt>
      <trkpt lat="47.17292" lon="-1.66269">
        <ele>84</ele>
        <time>2021-06-05T09:08:22.000Z</time>
      </trkpt>
      <trkpt lat="47.17301" lon="-1.66283">
        <ele>84</ele>
        <time>2021-06-05T09:08:24.000Z</time>
      </trkpt>
      <trkpt lat="47.1731" lon="-1.66298">
        <ele>85</ele>
        <time>2021-06-05T09:08:26.000Z</time>
      </trkpt>
      <trkpt lat="47.17319" lon="-1.66315">
        <ele>84</ele>
        <time>2021-06-05T09:08:28.000Z</time>
      </trkpt>
      <trkpt lat="47.17328" lon="-1.66329">
        <ele>84</ele>
        <time>2021-06-05T09:08:30.000Z</time>
      </trkpt>
      <trkpt lat="47.17336" lon="-1.66344">
        <ele>84</ele>
        <time>2021-06-05T09:08:32.000Z</time>
      </trkpt>
      <trkpt lat="47.17343" lon="-1.66359">
        <ele>84</ele>
        <time>2021-06-05T09:08:34.000Z</time>
      </trkpt>
      <trkpt lat="47.17351" lon="-1.66375">
        <ele>84</ele>
        <time>2021-06-05T09:08:36.000Z</time>
      </trkpt>
      <trkpt lat="47.17359" lon="-1.6639">
        <ele>83</ele>
        <time>2021-06-05T09:08:38.000Z</time>
      </trkpt>
      <trkpt lat="47.17366" lon="-1.66404">
        <ele>84</ele>
        <time>2021-06-05T09:08:40.000Z</time>
      </trkpt>
      <trkpt lat="47.17375" lon="-1.66419">
        <ele>84</ele>
        <time>2021-06-05T09:08:42.000Z</time>
      </trkpt>
      <trkpt lat="47.17383" lon="-1.66435">
        <ele>84</ele>
        <time>2021-06-05T09:08:44.000Z</time>
      </trkpt>
      <trkpt lat="47.17392" lon="-1.66451">
        <ele>84</ele>
        <time>2021-06-05T09:08:46.000Z</time>
      </trkpt>
      <trkpt lat="47.17401" lon="-1.66466">
        <ele>83</ele>
        <time>2021-06-05T09:08:48.000Z</time>
      </trkpt>
      <trkpt lat="47.1741" lon="-1.6648">
        <ele>82</ele>
        <time>2021-06-05T09:08:50.000Z</time>
      </trkpt>
      <trkpt lat="47.17418" lon="-1.66496">
        <ele>82</ele>
        <time>2021-06-05T09:08:52.000Z</time>
      </trkpt>
      <trkpt lat="47.17426" lon="-1.66511">
        <ele>82</ele>
        <time>2021-06-05T09:08:54.000Z</time>
      </trkpt>
      <trkpt lat="47.17434" lon="-1.66526">
        <ele>83</ele>
        <time>2021-06-05T09:08:56.000Z</time>
      </trkpt>
      <trkpt lat="47.17442" lon="-1.6654">
        <ele>83</ele>
        <time>2021-06-05T09:08:58.000Z</time>
      </trkpt>
      <trkpt lat="47.17451" lon="-1.66556">
        <ele>84</ele>
        <time>2021-06-05T09:09:00.000Z</time>
      </trkpt>
      <trkpt lat="47.17459" lon="-1.66571">
        <ele>84</ele>
        <time>2021-06-05T09:09:02.000Z</time>
      </trkpt>
      <trkpt lat="47.17466" lon="-1.66587">
        <ele>84</ele>
        <time>2021-06-05T09:09:04.000Z</time>
      </trkpt>
      <trkpt lat="47.17473" lon="-1.66603">
        <ele>84</ele>
        <time>2021-06-05T09:09:06.000Z</time>
      </trkpt>
      <trkpt lat="47.17483" lon="-1.66619">
        <ele>84</ele>
        <time>2021-06-05T09:09:08.000Z</time>
      </trkpt>
      <trkpt lat="47.17492" lon="-1.66635">
        <ele>84</ele>
        <time>2021-06-05T09:09:10.000Z</time>
      </trkpt>
      <trkpt lat="47.17501" lon="-1.6665">
        <ele>84</ele>
        <time>2021-06-05T09:09:12.000Z</time>
      </trkpt>
      <trkpt lat="47.17509" lon="-1.66666">
        <ele>84</ele>
        <time>2021-06-05T09:09:14.000Z</time>
      </trkpt>
      <trkpt lat="47.17518" lon="-1.66682">
        <ele>83</ele>
        <time>2021-06-05T09:09:16.000Z</time>
      </trkpt>
      <trkpt lat="47.17525" lon="-1.66697">
        <ele>84</ele>
        <time>2021-06-05T09:09:18.000Z</time>
      </trkpt>
      <trkpt lat="47.17534" lon="-1.66714">
        <ele>84</ele>
        <time>2021-06-05T09:09:20.000Z</time>
      </trkpt>
      <trkpt lat="47.17543" lon="-1.66728">
        <ele>83</ele>
        <time>2021-06-05T09:09:22.000Z</time>
      </trkpt>
      <trkpt lat="47.17551" lon="-1.66742">
        <ele>83</ele>
        <time>2021-06-05T09:09:24.000Z</time>
      </trkpt>
      <trkpt lat="47.1756" lon="-1.66759">
        <ele>83</ele>
        <time>2021-06-05T09:09:26.000Z</time>
      </trkpt>
      <trkpt lat="47.17568" lon="-1.66774">
        <ele>82</ele>
        <time>2021-06-05T09:09:28.000Z</time>
      </trkpt>
      <trkpt lat="47.17576" lon="-1.6679">
        <ele>82</ele>
        <time>2021-06-05T09:09:30.000Z</time>
      </trkpt>
      <trkpt lat="47.17585" lon="-1.66806">
        <ele>81</ele>
        <time>2021-06-05T09:09:32.000Z</time>
      </trkpt>
      <trkpt lat="47.17592" lon="-1.66821">
        <ele>81</ele>
        <time>2021-06-05T09:09:34.000Z</time>
      </trkpt>
      <trkpt lat="47.176" lon="-1.66836">
        <ele>82</ele>
        <time>2021-06-05T09:09:36.000Z</time>
      </trkpt>
      <trkpt lat="47.17609" lon="-1.66851">
        <ele>82</ele>
        <time>2021-06-05T09:09:38.000Z</time>
      </trkpt>
      <trkpt lat="47.17617" lon="-1.66867">
        <ele>81</ele>
        <time>2021-06-05T09:09:40.000Z</time>
      </trkpt>
      <trkpt lat="47.17625" lon="-1.66883">
        <ele>81</ele>
        <time>2021-06-05T09:09:42.000Z</time>
      </trkpt>
      <trkpt lat="47.17634" lon="-1.66898">
        <ele>81</ele>
        <time>2021-06-05T09:09:44.000Z</time>
      </trkpt>
      <trkpt lat="47.17641" lon="-1.66914">
        <ele>81</ele>
        <time>2021-06-05T09:09:46.000Z</time>
      </trkpt>
      <trkpt lat="47.1765" lon="-1.66929">
        <ele>80</ele>
        <time>2021-06-05T09:09:48.000Z</time>
      </trkpt>
      <trkpt lat="47.17658" lon="-1.66945">
        <ele>80</ele>
        <time>2021-06-05T09:09:50.000Z</time>
      </trkpt>
      <trkpt lat="47.17666" lon="-1.66961">
        <ele>81</ele>
        <time>2021-06-05T09:09:52.000Z</time>
      </trkpt>
      <trkpt lat="47.17674" lon="-1.66976">
        <ele>81</ele>
        <time>2021-06-05T09:09:54.000Z</time>
      </trkpt>
      <trkpt lat="47.17682" lon="-1.66992">
        <ele>81</ele>
        <time>2021-06-05T09:09:56.000Z</time>
      </trkpt>
      <trkpt lat="47.17691" lon="-1.67007">
        <ele>81</ele>
        <time>2021-06-05T09:09:58.000Z</time>
      </trkpt>
      <trkpt lat="47.17699" lon="-1.67023">
        <ele>81</ele>
        <time>2021-06-05T09:10:00.000Z</time>
      </trkpt>
      <trkpt lat="47.17707" lon="-1.67039">
        <ele>81</ele>
        <time>2021-06-05T09:10:02.000Z</time>
      </trkpt>
      <trkpt lat="47.17715" lon="-1.67054">
        <ele>80</ele>
        <time>2021-06-05T09:10:04.000Z</time>
      </trkpt>
      <trkpt lat="47.17723" lon="-1.67069">
        <ele>80</ele>
        <time>2021-06-05T09:10:06.000Z</time>
      </trkpt>
      <trkpt lat="47.17731" lon="-1.67083">
        <ele>80</ele>
        <time>2021-06-05T09:10:08.000Z</time>
      </trkpt>
      <trkpt lat="47.17739" lon="-1.67099">
        <ele>79</ele>
        <time>2021-06-05T09:10:10.000Z</time>
      </trkpt>
      <trkpt lat="47.17748" lon="-1.67114">
        <ele>79</ele>
        <time>2021-06-05T09:10:12.000Z</time>
      </trkpt>
      <trkpt lat="47.17756" lon="-1.67129">
        <ele>80</ele>
        <time>2021-06-05T09:10:14.000Z</time>
      </trkpt>
      <trkpt lat="47.17764" lon="-1.67145">
        <ele>80</ele>
        <time>2021-06-05T09:10:16.000Z</time>
      </trkpt>
      <trkpt lat="47.17772" lon="-1.6716">
        <ele>80</ele>
        <time>2021-06-05T09:10:18.000Z</time>
      </trkpt>
      <trkpt lat="47.1778" lon="-1.67175">
        <ele>80</ele>
        <time>2021-06-05T09:10:20.000Z</time>
      </trkpt>
      <trkpt lat="47.17788" lon="-1.6719">
        <ele>81</ele>
        <time>2021-06-05T09:10:22.000Z</time>
      </trkpt>
      <trkpt lat="47.17796" lon="-1.67205">
        <ele>81</ele>
        <time>2021-06-05T09:10:24.000Z</time>
      </trkpt>
      <trkpt lat="47.17804" lon="-1.6722">
        <ele>81</ele>
        <time>2021-06-05T09:10:26.000Z</time>
      </trkpt>
      <trkpt lat="47.17812" lon="-1.67236">
        <ele>81</ele>
        <time>2021-06-05T09:10:28.000Z</time>
      </trkpt>
      <trkpt lat="47.17821" lon="-1.67251">
        <ele>81</ele>
        <time>2021-06-05T09:10:30.000Z</time>
      </trkpt>
      <trkpt lat="47.17829" lon="-1.67267">
        <ele>81</ele>
        <time>2021-06-05T09:10:32.000Z</time>
      </trkpt>
      <trkpt lat="47.17837" lon="-1.67281">
        <ele>81</ele>
        <time>2021-06-05T09:10:34.000Z</time>
      </trkpt>
      <trkpt lat="47.17844" lon="-1.67296">
        <ele>80</ele>
        <time>2021-06-05T09:10:36.000Z</time>
      </trkpt>
      <trkpt lat="47.17852" lon="-1.67311">
        <ele>80</ele>
        <time>2021-06-05T09:10:38.000Z</time>
      </trkpt>
      <trkpt lat="47.1786" lon="-1.67325">
        <ele>80</ele>
        <time>2021-06-05T09:10:40.000Z</time>
      </trkpt>
      <trkpt lat="47.17868" lon="-1.6734">
        <ele>79</ele>
        <time>2021-06-05T09:10:42.000Z</time>
      </trkpt>
      <trkpt lat="47.17876" lon="-1.67353">
        <ele>79</ele>
        <time>2021-06-05T09:10:44.000Z</time>
      </trkpt>
      <trkpt lat="47.17883" lon="-1.67367">
        <ele>79</ele>
        <time>2021-06-05T09:10:46.000Z</time>
      </trkpt>
      <trkpt lat="47.17889" lon="-1.6738">
        <ele>79</ele>
        <time>2021-06-05T09:10:48.000Z</time>
      </trkpt>
      <trkpt lat="47.17896" lon="-1.67391">
        <ele>79</ele>
        <time>2021-06-05T09:10:51.000Z</time>
      </trkpt>
      <trkpt lat="47.17902" lon="-1.67403">
        <ele>80</ele>
        <time>2021-06-05T09:10:54.000Z</time>
      </trkpt>
      <trkpt lat="47.17909" lon="-1.67416">
        <ele>80</ele>
        <time>2021-06-05T09:10:56.000Z</time>
      </trkpt>
      <trkpt lat="47.17916" lon="-1.67431">
        <ele>79</ele>
        <time>2021-06-05T09:10:58.000Z</time>
      </trkpt>
      <trkpt lat="47.17921" lon="-1.67449">
        <ele>79</ele>
        <time>2021-06-05T09:11:00.000Z</time>
      </trkpt>
      <trkpt lat="47.17926" lon="-1.67468">
        <ele>79</ele>
        <time>2021-06-05T09:11:02.000Z</time>
      </trkpt>
      <trkpt lat="47.17931" lon="-1.67487">
        <ele>79</ele>
        <time>2021-06-05T09:11:04.000Z</time>
      </trkpt>
      <trkpt lat="47.17936" lon="-1.67505">
        <ele>79</ele>
        <time>2021-06-05T09:11:06.000Z</time>
      </trkpt>
      <trkpt lat="47.17941" lon="-1.67523">
        <ele>79</ele>
        <time>2021-06-05T09:11:08.000Z</time>
      </trkpt>
      <trkpt lat="47.17946" lon="-1.67541">
        <ele>79</ele>
        <time>2021-06-05T09:11:10.000Z</time>
      </trkpt>
      <trkpt lat="47.17951" lon="-1.67559">
        <ele>79</ele>
        <time>2021-06-05T09:11:12.000Z</time>
      </trkpt>
      <trkpt lat="47.17955" lon="-1.67578">
        <ele>78</ele>
        <time>2021-06-05T09:11:14.000Z</time>
      </trkpt>
      <trkpt lat="47.17959" lon="-1.67596">
        <ele>79</ele>
        <time>2021-06-05T09:11:16.000Z</time>
      </trkpt>
      <trkpt lat="47.17964" lon="-1.67614">
        <ele>79</ele>
        <time>2021-06-05T09:11:18.000Z</time>
      </trkpt>
      <trkpt lat="47.17968" lon="-1.67632">
        <ele>79</ele>
        <time>2021-06-05T09:11:20.000Z</time>
      </trkpt>
      <trkpt lat="47.17973" lon="-1.6765">
        <ele>80</ele>
        <time>2021-06-05T09:11:22.000Z</time>
      </trkpt>
      <trkpt lat="47.17978" lon="-1.67668">
        <ele>81</ele>
        <time>2021-06-05T09:11:24.000Z</time>
      </trkpt>
      <trkpt lat="47.17983" lon="-1.67684">
        <ele>81</ele>
        <time>2021-06-05T09:11:26.000Z</time>
      </trkpt>
      <trkpt lat="47.17988" lon="-1.677">
        <ele>81</ele>
        <time>2021-06-05T09:11:28.000Z</time>
      </trkpt>
      <trkpt lat="47.17994" lon="-1.67716">
        <ele>82</ele>
        <time>2021-06-05T09:11:30.000Z</time>
      </trkpt>
      <trkpt lat="47.18002" lon="-1.67727">
        <ele>81</ele>
        <time>2021-06-05T09:11:32.000Z</time>
      </trkpt>
      <trkpt lat="47.18013" lon="-1.67727">
        <ele>81</ele>
        <time>2021-06-05T09:11:34.000Z</time>
      </trkpt>
      <trkpt lat="47.18025" lon="-1.6772">
        <ele>80</ele>
        <time>2021-06-05T09:11:36.000Z</time>
      </trkpt>
      <trkpt lat="47.18037" lon="-1.67712">
        <ele>80</ele>
        <time>2021-06-05T09:11:38.000Z</time>
      </trkpt>
      <trkpt lat="47.18049" lon="-1.67705">
        <ele>80</ele>
        <time>2021-06-05T09:11:40.000Z</time>
      </trkpt>
      <trkpt lat="47.18062" lon="-1.67698">
        <ele>79</ele>
        <time>2021-06-05T09:11:42.000Z</time>
      </trkpt>
      <trkpt lat="47.18075" lon="-1.6769">
        <ele>79</ele>
        <time>2021-06-05T09:11:44.000Z</time>
      </trkpt>
      <trkpt lat="47.18087" lon="-1.67683">
        <ele>79</ele>
        <time>2021-06-05T09:11:46.000Z</time>
      </trkpt>
      <trkpt lat="47.181" lon="-1.67675">
        <ele>79</ele>
        <time>2021-06-05T09:11:48.000Z</time>
      </trkpt>
      <trkpt lat="47.18112" lon="-1.67668">
        <ele>78</ele>
        <time>2021-06-05T09:11:50.000Z</time>
      </trkpt>
      <trkpt lat="47.18124" lon="-1.6766">
        <ele>79</ele>
        <time>2021-06-05T09:11:52.000Z</time>
      </trkpt>
      <trkpt lat="47.18137" lon="-1.67653">
        <ele>78</ele>
        <time>2021-06-05T09:11:54.000Z</time>
      </trkpt>
      <trkpt lat="47.1815" lon="-1.67645">
        <ele>78</ele>
        <time>2021-06-05T09:11:56.000Z</time>
      </trkpt>
      <trkpt lat="47.18163" lon="-1.67637">
        <ele>78</ele>
        <time>2021-06-05T09:11:58.000Z</time>
      </trkpt>
      <trkpt lat="47.18175" lon="-1.67629">
        <ele>78</ele>
        <time>2021-06-05T09:12:00.000Z</time>
      </trkpt>
      <trkpt lat="47.18187" lon="-1.6762">
        <ele>78</ele>
        <time>2021-06-05T09:12:02.000Z</time>
      </trkpt>
      <trkpt lat="47.18199" lon="-1.6761">
        <ele>77</ele>
        <time>2021-06-05T09:12:04.000Z</time>
      </trkpt>
      <trkpt lat="47.18212" lon="-1.67602">
        <ele>77</ele>
        <time>2021-06-05T09:12:06.000Z</time>
      </trkpt>
      <trkpt lat="47.18224" lon="-1.67596">
        <ele>78</ele>
        <time>2021-06-05T09:12:08.000Z</time>
      </trkpt>
      <trkpt lat="47.18237" lon="-1.6759">
        <ele>79</ele>
        <time>2021-06-05T09:12:10.000Z</time>
      </trkpt>
      <trkpt lat="47.18249" lon="-1.67582">
        <ele>79</ele>
        <time>2021-06-05T09:12:12.000Z</time>
      </trkpt>
      <trkpt lat="47.18262" lon="-1.67575">
        <ele>79</ele>
        <time>2021-06-05T09:12:14.000Z</time>
      </trkpt>
      <trkpt lat="47.18274" lon="-1.67567">
        <ele>80</ele>
        <time>2021-06-05T09:12:16.000Z</time>
      </trkpt>
      <trkpt lat="47.18287" lon="-1.67559">
        <ele>80</ele>
        <time>2021-06-05T09:12:18.000Z</time>
      </trkpt>
      <trkpt lat="47.183" lon="-1.67552">
        <ele>81</ele>
        <time>2021-06-05T09:12:20.000Z</time>
      </trkpt>
      <trkpt lat="47.18312" lon="-1.67543">
        <ele>81</ele>
        <time>2021-06-05T09:12:22.000Z</time>
      </trkpt>
      <trkpt lat="47.18325" lon="-1.67536">
        <ele>81</ele>
        <time>2021-06-05T09:12:24.000Z</time>
      </trkpt>
      <trkpt lat="47.18338" lon="-1.67529">
        <ele>81</ele>
        <time>2021-06-05T09:12:26.000Z</time>
      </trkpt>
      <trkpt lat="47.1835" lon="-1.67522">
        <ele>81</ele>
        <time>2021-06-05T09:12:28.000Z</time>
      </trkpt>
      <trkpt lat="47.18362" lon="-1.67515">
        <ele>81</ele>
        <time>2021-06-05T09:12:30.000Z</time>
      </trkpt>
      <trkpt lat="47.18373" lon="-1.67507">
        <ele>81</ele>
        <time>2021-06-05T09:12:32.000Z</time>
      </trkpt>
      <trkpt lat="47.18385" lon="-1.67499">
        <ele>80</ele>
        <time>2021-06-05T09:12:34.000Z</time>
      </trkpt>
      <trkpt lat="47.18398" lon="-1.67492">
        <ele>80</ele>
        <time>2021-06-05T09:12:36.000Z</time>
      </trkpt>
      <trkpt lat="47.18411" lon="-1.67485">
        <ele>80</ele>
        <time>2021-06-05T09:12:38.000Z</time>
      </trkpt>
      <trkpt lat="47.18423" lon="-1.67478">
        <ele>80</ele>
        <time>2021-06-05T09:12:40.000Z</time>
      </trkpt>
      <trkpt lat="47.18435" lon="-1.67471">
        <ele>80</ele>
        <time>2021-06-05T09:12:42.000Z</time>
      </trkpt>
      <trkpt lat="47.18447" lon="-1.67464">
        <ele>81</ele>
        <time>2021-06-05T09:12:44.000Z</time>
      </trkpt>
      <trkpt lat="47.18459" lon="-1.67456">
        <ele>81</ele>
        <time>2021-06-05T09:12:46.000Z</time>
      </trkpt>
      <trkpt lat="47.1847" lon="-1.67449">
        <ele>81</ele>
        <time>2021-06-05T09:12:48.000Z</time>
      </trkpt>
      <trkpt lat="47.18481" lon="-1.67442">
        <ele>82</ele>
        <time>2021-06-05T09:12:50.000Z</time>
      </trkpt>
      <trkpt lat="47.18494" lon="-1.67436">
        <ele>83</ele>
        <time>2021-06-05T09:12:52.000Z</time>
      </trkpt>
      <trkpt lat="47.18505" lon="-1.67429">
        <ele>83</ele>
        <time>2021-06-05T09:12:54.000Z</time>
      </trkpt>
      <trkpt lat="47.18516" lon="-1.6742">
        <ele>83</ele>
        <time>2021-06-05T09:12:57.000Z</time>
      </trkpt>
      <trkpt lat="47.18524" lon="-1.67412">
        <ele>83</ele>
        <time>2021-06-05T09:12:59.000Z</time>
      </trkpt>
      <trkpt lat="47.18533" lon="-1.67411">
        <ele>83</ele>
        <time>2021-06-05T09:13:01.000Z</time>
      </trkpt>
      <trkpt lat="47.18537" lon="-1.67425">
        <ele>83</ele>
        <time>2021-06-05T09:13:03.000Z</time>
      </trkpt>
      <trkpt lat="47.18542" lon="-1.67443">
        <ele>84</ele>
        <time>2021-06-05T09:13:06.000Z</time>
      </trkpt>
      <trkpt lat="47.18554" lon="-1.67447">
        <ele>84</ele>
        <time>2021-06-05T09:13:09.000Z</time>
      </trkpt>
      <trkpt lat="47.18566" lon="-1.67438">
        <ele>85</ele>
        <time>2021-06-05T09:13:11.000Z</time>
      </trkpt>
      <trkpt lat="47.18578" lon="-1.67433">
        <ele>86</ele>
        <time>2021-06-05T09:13:13.000Z</time>
      </trkpt>
      <trkpt lat="47.18591" lon="-1.67436">
        <ele>86</ele>
        <time>2021-06-05T09:13:15.000Z</time>
      </trkpt>
      <trkpt lat="47.186" lon="-1.67451">
        <ele>86</ele>
        <time>2021-06-05T09:13:17.000Z</time>
      </trkpt>
      <trkpt lat="47.18606" lon="-1.67469">
        <ele>85</ele>
        <time>2021-06-05T09:13:19.000Z</time>
      </trkpt>
      <trkpt lat="47.18611" lon="-1.67487">
        <ele>85</ele>
        <time>2021-06-05T09:13:21.000Z</time>
      </trkpt>
      <trkpt lat="47.18618" lon="-1.67505">
        <ele>85</ele>
        <time>2021-06-05T09:13:23.000Z</time>
      </trkpt>
      <trkpt lat="47.18626" lon="-1.67521">
        <ele>85</ele>
        <time>2021-06-05T09:13:25.000Z</time>
      </trkpt>
      <trkpt lat="47.18634" lon="-1.67536">
        <ele>86</ele>
        <time>2021-06-05T09:13:27.000Z</time>
      </trkpt>
      <trkpt lat="47.18644" lon="-1.6755">
        <ele>86</ele>
        <time>2021-06-05T09:13:29.000Z</time>
      </trkpt>
      <trkpt lat="47.18653" lon="-1.67564">
        <ele>85</ele>
        <time>2021-06-05T09:13:31.000Z</time>
      </trkpt>
      <trkpt lat="47.18663" lon="-1.67576">
        <ele>85</ele>
        <time>2021-06-05T09:13:33.000Z</time>
      </trkpt>
      <trkpt lat="47.18673" lon="-1.67589">
        <ele>85</ele>
        <time>2021-06-05T09:13:35.000Z</time>
      </trkpt>
      <trkpt lat="47.18682" lon="-1.67602">
        <ele>85</ele>
        <time>2021-06-05T09:13:37.000Z</time>
      </trkpt>
      <trkpt lat="47.18694" lon="-1.67614">
        <ele>85</ele>
        <time>2021-06-05T09:13:39.000Z</time>
      </trkpt>
      <trkpt lat="47.18707" lon="-1.67619">
        <ele>84</ele>
        <time>2021-06-05T09:13:41.000Z</time>
      </trkpt>
      <trkpt lat="47.1872" lon="-1.67618">
        <ele>84</ele>
        <time>2021-06-05T09:13:43.000Z</time>
      </trkpt>
      <trkpt lat="47.18732" lon="-1.67614">
        <ele>84</ele>
        <time>2021-06-05T09:13:45.000Z</time>
      </trkpt>
      <trkpt lat="47.18742" lon="-1.67609">
        <ele>85</ele>
        <time>2021-06-05T09:13:47.000Z</time>
      </trkpt>
      <trkpt lat="47.18752" lon="-1.67613">
        <ele>85</ele>
        <time>2021-06-05T09:13:50.000Z</time>
      </trkpt>
      <trkpt lat="47.18757" lon="-1.67627">
        <ele>85</ele>
        <time>2021-06-05T09:13:52.000Z</time>
      </trkpt>
      <trkpt lat="47.18763" lon="-1.67643">
        <ele>85</ele>
        <time>2021-06-05T09:13:54.000Z</time>
      </trkpt>
      <trkpt lat="47.18771" lon="-1.67658">
        <ele>85</ele>
        <time>2021-06-05T09:13:56.000Z</time>
      </trkpt>
      <trkpt lat="47.1878" lon="-1.6767">
        <ele>85</ele>
        <time>2021-06-05T09:13:58.000Z</time>
      </trkpt>
      <trkpt lat="47.18788" lon="-1.67684">
        <ele>84</ele>
        <time>2021-06-05T09:14:00.000Z</time>
      </trkpt>
      <trkpt lat="47.18796" lon="-1.67698">
        <ele>84</ele>
        <time>2021-06-05T09:14:02.000Z</time>
      </trkpt>
      <trkpt lat="47.18801" lon="-1.67713">
        <ele>84</ele>
        <time>2021-06-05T09:14:04.000Z</time>
      </trkpt>
      <trkpt lat="47.18806" lon="-1.67729">
        <ele>84</ele>
        <time>2021-06-05T09:14:06.000Z</time>
      </trkpt>
      <trkpt lat="47.18812" lon="-1.67745">
        <ele>85</ele>
        <time>2021-06-05T09:14:08.000Z</time>
      </trkpt>
      <trkpt lat="47.18819" lon="-1.67762">
        <ele>85</ele>
        <time>2021-06-05T09:14:10.000Z</time>
      </trkpt>
      <trkpt lat="47.18826" lon="-1.6778">
        <ele>84</ele>
        <time>2021-06-05T09:14:12.000Z</time>
      </trkpt>
      <trkpt lat="47.18833" lon="-1.67798">
        <ele>83</ele>
        <time>2021-06-05T09:14:14.000Z</time>
      </trkpt>
      <trkpt lat="47.18839" lon="-1.67817">
        <ele>82</ele>
        <time>2021-06-05T09:14:16.000Z</time>
      </trkpt>
      <trkpt lat="47.1885" lon="-1.67846">
        <ele>82</ele>
        <time>2021-06-05T09:14:19.000Z</time>
      </trkpt>
      <trkpt lat="47.18859" lon="-1.67866">
        <ele>81</ele>
        <time>2021-06-05T09:14:21.000Z</time>
      </trkpt>
      <trkpt lat="47.1887" lon="-1.67884">
        <ele>80</ele>
        <time>2021-06-05T09:14:23.000Z</time>
      </trkpt>
      <trkpt lat="47.18878" lon="-1.67891">
        <ele>80</ele>
        <time>2021-06-05T09:14:24.000Z</time>
      </trkpt>
      <trkpt lat="47.18893" lon="-1.679">
        <ele>79</ele>
        <time>2021-06-05T09:14:26.000Z</time>
      </trkpt>
      <trkpt lat="47.18909" lon="-1.67904">
        <ele>79</ele>
        <time>2021-06-05T09:14:28.000Z</time>
      </trkpt>
      <trkpt lat="47.18922" lon="-1.67914">
        <ele>79</ele>
        <time>2021-06-05T09:14:30.000Z</time>
      </trkpt>
      <trkpt lat="47.1893" lon="-1.67931">
        <ele>79</ele>
        <time>2021-06-05T09:14:32.000Z</time>
      </trkpt>
      <trkpt lat="47.18938" lon="-1.67948">
        <ele>79</ele>
        <time>2021-06-05T09:14:34.000Z</time>
      </trkpt>
      <trkpt lat="47.18951" lon="-1.67973">
        <ele>78</ele>
        <time>2021-06-05T09:14:37.000Z</time>
      </trkpt>
      <trkpt lat="47.18959" lon="-1.67987">
        <ele>79</ele>
        <time>2021-06-05T09:14:39.000Z</time>
      </trkpt>
      <trkpt lat="47.18968" lon="-1.68">
        <ele>79</ele>
        <time>2021-06-05T09:14:41.000Z</time>
      </trkpt>
      <trkpt lat="47.18975" lon="-1.68014">
        <ele>79</ele>
        <time>2021-06-05T09:14:43.000Z</time>
      </trkpt>
      <trkpt lat="47.18983" lon="-1.68027">
        <ele>79</ele>
        <time>2021-06-05T09:14:45.000Z</time>
      </trkpt>
      <trkpt lat="47.1899" lon="-1.68037">
        <ele>79</ele>
        <time>2021-06-05T09:14:47.000Z</time>
      </trkpt>
      <trkpt lat="47.18999" lon="-1.6803">
        <ele>80</ele>
        <time>2021-06-05T09:14:49.000Z</time>
      </trkpt>
      <trkpt lat="47.19013" lon="-1.68019">
        <ele>79</ele>
        <time>2021-06-05T09:14:51.000Z</time>
      </trkpt>
      <trkpt lat="47.1903" lon="-1.68021">
        <ele>78</ele>
        <time>2021-06-05T09:14:53.000Z</time>
      </trkpt>
      <trkpt lat="47.19039" lon="-1.68023">
        <ele>78</ele>
        <time>2021-06-05T09:14:54.000Z</time>
      </trkpt>
      <trkpt lat="47.19056" lon="-1.68027">
        <ele>77</ele>
        <time>2021-06-05T09:14:56.000Z</time>
      </trkpt>
      <trkpt lat="47.19073" lon="-1.68035">
        <ele>76</ele>
        <time>2021-06-05T09:14:58.000Z</time>
      </trkpt>
      <trkpt lat="47.19085" lon="-1.68052">
        <ele>76</ele>
        <time>2021-06-05T09:15:00.000Z</time>
      </trkpt>
      <trkpt lat="47.19096" lon="-1.68079">
        <ele>75</ele>
        <time>2021-06-05T09:15:03.000Z</time>
      </trkpt>
      <trkpt lat="47.19102" lon="-1.68097">
        <ele>75</ele>
        <time>2021-06-05T09:15:05.000Z</time>
      </trkpt>
      <trkpt lat="47.19108" lon="-1.68115">
        <ele>75</ele>
        <time>2021-06-05T09:15:07.000Z</time>
      </trkpt>
      <trkpt lat="47.19113" lon="-1.68132">
        <ele>75</ele>
        <time>2021-06-05T09:15:09.000Z</time>
      </trkpt>
      <trkpt lat="47.19116" lon="-1.68147">
        <ele>75</ele>
        <time>2021-06-05T09:15:11.000Z</time>
      </trkpt>
      <trkpt lat="47.19119" lon="-1.68161">
        <ele>75</ele>
        <time>2021-06-05T09:15:13.000Z</time>
      </trkpt>
      <trkpt lat="47.19126" lon="-1.68173">
        <ele>75</ele>
        <time>2021-06-05T09:15:18.000Z</time>
      </trkpt>
      <trkpt lat="47.19131" lon="-1.68186">
        <ele>74</ele>
        <time>2021-06-05T09:15:24.000Z</time>
      </trkpt>
      <trkpt lat="47.19141" lon="-1.68178">
        <ele>75</ele>
        <time>2021-06-05T09:15:35.000Z</time>
      </trkpt>
      <trkpt lat="47.19151" lon="-1.68189">
        <ele>72</ele>
        <time>2021-06-05T09:15:41.000Z</time>
      </trkpt>
      <trkpt lat="47.19154" lon="-1.68204">
        <ele>71</ele>
        <time>2021-06-05T09:15:44.000Z</time>
      </trkpt>
      <trkpt lat="47.19166" lon="-1.68213">
        <ele>69</ele>
        <time>2021-06-05T09:15:48.000Z</time>
      </trkpt>
      <trkpt lat="47.19177" lon="-1.6822">
        <ele>67</ele>
        <time>2021-06-05T09:15:50.000Z</time>
      </trkpt>
      <trkpt lat="47.19194" lon="-1.68219">
        <ele>65</ele>
        <time>2021-06-05T09:15:53.000Z</time>
      </trkpt>
      <trkpt lat="47.19202" lon="-1.68213">
        <ele>62</ele>
        <time>2021-06-05T09:15:55.000Z</time>
      </trkpt>
      <trkpt lat="47.19214" lon="-1.68206">
        <ele>60</ele>
        <time>2021-06-05T09:15:57.000Z</time>
      </trkpt>
      <trkpt lat="47.19227" lon="-1.68197">
        <ele>57</ele>
        <time>2021-06-05T09:15:59.000Z</time>
      </trkpt>
      <trkpt lat="47.19239" lon="-1.68189">
        <ele>57</ele>
        <time>2021-06-05T09:16:01.000Z</time>
      </trkpt>
      <trkpt lat="47.19252" lon="-1.6818">
        <ele>56</ele>
        <time>2021-06-05T09:16:03.000Z</time>
      </trkpt>
      <trkpt lat="47.19271" lon="-1.68167">
        <ele>55</ele>
        <time>2021-06-05T09:16:06.000Z</time>
      </trkpt>
      <trkpt lat="47.19284" lon="-1.68159">
        <ele>54</ele>
        <time>2021-06-05T09:16:08.000Z</time>
      </trkpt>
      <trkpt lat="47.19296" lon="-1.6815">
        <ele>54</ele>
        <time>2021-06-05T09:16:10.000Z</time>
      </trkpt>
      <trkpt lat="47.19316" lon="-1.68137">
        <ele>53</ele>
        <time>2021-06-05T09:16:13.000Z</time>
      </trkpt>
      <trkpt lat="47.19328" lon="-1.68128">
        <ele>53</ele>
        <time>2021-06-05T09:16:15.000Z</time>
      </trkpt>
      <trkpt lat="47.19339" lon="-1.6812">
        <ele>53</ele>
        <time>2021-06-05T09:16:17.000Z</time>
      </trkpt>
      <trkpt lat="47.19352" lon="-1.68111">
        <ele>53</ele>
        <time>2021-06-05T09:16:19.000Z</time>
      </trkpt>
      <trkpt lat="47.19364" lon="-1.68103">
        <ele>53</ele>
        <time>2021-06-05T09:16:21.000Z</time>
      </trkpt>
      <trkpt lat="47.19382" lon="-1.68091">
        <ele>53</ele>
        <time>2021-06-05T09:16:24.000Z</time>
      </trkpt>
      <trkpt lat="47.19394" lon="-1.68084">
        <ele>53</ele>
        <time>2021-06-05T09:16:26.000Z</time>
      </trkpt>
      <trkpt lat="47.19405" lon="-1.68076">
        <ele>53</ele>
        <time>2021-06-05T09:16:28.000Z</time>
      </trkpt>
      <trkpt lat="47.19416" lon="-1.6807">
        <ele>53</ele>
        <time>2021-06-05T09:16:30.000Z</time>
      </trkpt>
      <trkpt lat="47.19421" lon="-1.68056">
        <ele>53</ele>
        <time>2021-06-05T09:16:32.000Z</time>
      </trkpt>
      <trkpt lat="47.1942" lon="-1.68036">
        <ele>54</ele>
        <time>2021-06-05T09:16:34.000Z</time>
      </trkpt>
      <trkpt lat="47.19417" lon="-1.68013">
        <ele>53</ele>
        <time>2021-06-05T09:16:36.000Z</time>
      </trkpt>
      <trkpt lat="47.1941" lon="-1.67993">
        <ele>53</ele>
        <time>2021-06-05T09:16:38.000Z</time>
      </trkpt>
      <trkpt lat="47.19404" lon="-1.67972">
        <ele>53</ele>
        <time>2021-06-05T09:16:40.000Z</time>
      </trkpt>
      <trkpt lat="47.19399" lon="-1.67953">
        <ele>53</ele>
        <time>2021-06-05T09:16:42.000Z</time>
      </trkpt>
      <trkpt lat="47.19394" lon="-1.67933">
        <ele>53</ele>
        <time>2021-06-05T09:16:44.000Z</time>
      </trkpt>
      <trkpt lat="47.19388" lon="-1.67915">
        <ele>54</ele>
        <time>2021-06-05T09:16:46.000Z</time>
      </trkpt>
      <trkpt lat="47.19384" lon="-1.67895">
        <ele>54</ele>
        <time>2021-06-05T09:16:48.000Z</time>
      </trkpt>
      <trkpt lat="47.1938" lon="-1.67874">
        <ele>53</ele>
        <time>2021-06-05T09:16:50.000Z</time>
      </trkpt>
      <trkpt lat="47.19376" lon="-1.67855">
        <ele>53</ele>
        <time>2021-06-05T09:16:52.000Z</time>
      </trkpt>
      <trkpt lat="47.19374" lon="-1.67834">
        <ele>53</ele>
        <time>2021-06-05T09:16:54.000Z</time>
      </trkpt>
      <trkpt lat="47.19372" lon="-1.67814">
        <ele>52</ele>
        <time>2021-06-05T09:16:56.000Z</time>
      </trkpt>
      <trkpt lat="47.19371" lon="-1.67793">
        <ele>52</ele>
        <time>2021-06-05T09:16:58.000Z</time>
      </trkpt>
      <trkpt lat="47.19372" lon="-1.67772">
        <ele>52</ele>
        <time>2021-06-05T09:17:00.000Z</time>
      </trkpt>
      <trkpt lat="47.19373" lon="-1.67752">
        <ele>52</ele>
        <time>2021-06-05T09:17:02.000Z</time>
      </trkpt>
      <trkpt lat="47.19377" lon="-1.67732">
        <ele>52</ele>
        <time>2021-06-05T09:17:04.000Z</time>
      </trkpt>
      <trkpt lat="47.1938" lon="-1.67713">
        <ele>52</ele>
        <time>2021-06-05T09:17:06.000Z</time>
      </trkpt>
      <trkpt lat="47.19385" lon="-1.67694">
        <ele>51</ele>
        <time>2021-06-05T09:17:08.000Z</time>
      </trkpt>
      <trkpt lat="47.1939" lon="-1.67676">
        <ele>51</ele>
        <time>2021-06-05T09:17:10.000Z</time>
      </trkpt>
      <trkpt lat="47.19396" lon="-1.67659">
        <ele>51</ele>
        <time>2021-06-05T09:17:12.000Z</time>
      </trkpt>
      <trkpt lat="47.19403" lon="-1.67642">
        <ele>51</ele>
        <time>2021-06-05T09:17:14.000Z</time>
      </trkpt>
      <trkpt lat="47.19411" lon="-1.67625">
        <ele>51</ele>
        <time>2021-06-05T09:17:16.000Z</time>
      </trkpt>
      <trkpt lat="47.19419" lon="-1.6761">
        <ele>51</ele>
        <time>2021-06-05T09:17:18.000Z</time>
      </trkpt>
      <trkpt lat="47.19428" lon="-1.67597">
        <ele>51</ele>
        <time>2021-06-05T09:17:20.000Z</time>
      </trkpt>
      <trkpt lat="47.19438" lon="-1.67585">
        <ele>52</ele>
        <time>2021-06-05T09:17:22.000Z</time>
      </trkpt>
      <trkpt lat="47.19447" lon="-1.67574">
        <ele>52</ele>
        <time>2021-06-05T09:17:24.000Z</time>
      </trkpt>
      <trkpt lat="47.19457" lon="-1.67564">
        <ele>51</ele>
        <time>2021-06-05T09:17:26.000Z</time>
      </trkpt>
      <trkpt lat="47.19468" lon="-1.67555">
        <ele>51</ele>
        <time>2021-06-05T09:17:28.000Z</time>
      </trkpt>
      <trkpt lat="47.19478" lon="-1.67547">
        <ele>51</ele>
        <time>2021-06-05T09:17:30.000Z</time>
      </trkpt>
      <trkpt lat="47.19487" lon="-1.67539">
        <ele>50</ele>
        <time>2021-06-05T09:17:32.000Z</time>
      </trkpt>
      <trkpt lat="47.19495" lon="-1.67529">
        <ele>50</ele>
        <time>2021-06-05T09:17:34.000Z</time>
      </trkpt>
      <trkpt lat="47.195" lon="-1.67517">
        <ele>50</ele>
        <time>2021-06-05T09:17:36.000Z</time>
      </trkpt>
      <trkpt lat="47.19507" lon="-1.67504">
        <ele>51</ele>
        <time>2021-06-05T09:17:39.000Z</time>
      </trkpt>
      <trkpt lat="47.19516" lon="-1.67502">
        <ele>53</ele>
        <time>2021-06-05T09:17:42.000Z</time>
      </trkpt>
      <trkpt lat="47.19527" lon="-1.67505">
        <ele>54</ele>
        <time>2021-06-05T09:17:45.000Z</time>
      </trkpt>
      <trkpt lat="47.19538" lon="-1.67505">
        <ele>55</ele>
        <time>2021-06-05T09:17:49.000Z</time>
      </trkpt>
      <trkpt lat="47.19542" lon="-1.67517">
        <ele>54</ele>
        <time>2021-06-05T09:18:23.000Z</time>
      </trkpt>
      <trkpt lat="47.19548" lon="-1.67535">
        <ele>52</ele>
        <time>2021-06-05T09:18:26.000Z</time>
      </trkpt>
      <trkpt lat="47.19556" lon="-1.67543">
        <ele>51</ele>
        <time>2021-06-05T09:18:28.000Z</time>
      </trkpt>
      <trkpt lat="47.19566" lon="-1.67554">
        <ele>48</ele>
        <time>2021-06-05T09:18:31.000Z</time>
      </trkpt>
      <trkpt lat="47.19577" lon="-1.67568">
        <ele>47</ele>
        <time>2021-06-05T09:18:34.000Z</time>
      </trkpt>
      <trkpt lat="47.19585" lon="-1.67576">
        <ele>49</ele>
        <time>2021-06-05T09:18:36.000Z</time>
      </trkpt>
      <trkpt lat="47.19591" lon="-1.6759">
        <ele>49</ele>
        <time>2021-06-05T09:18:39.000Z</time>
      </trkpt>
      <trkpt lat="47.19598" lon="-1.67605">
        <ele>52</ele>
        <time>2021-06-05T09:18:42.000Z</time>
      </trkpt>
      <trkpt lat="47.19607" lon="-1.67611">
        <ele>53</ele>
        <time>2021-06-05T09:18:46.000Z</time>
      </trkpt>
      <trkpt lat="47.19615" lon="-1.67605">
        <ele>50</ele>
        <time>2021-06-05T09:20:19.000Z</time>
      </trkpt>
      <trkpt lat="47.19624" lon="-1.67602">
        <ele>46</ele>
        <time>2021-06-05T09:20:34.000Z</time>
      </trkpt>
      <trkpt lat="47.19634" lon="-1.67604">
        <ele>45</ele>
        <time>2021-06-05T09:20:43.000Z</time>
      </trkpt>
      <trkpt lat="47.19645" lon="-1.67604">
        <ele>46</ele>
        <time>2021-06-05T09:20:51.000Z</time>
      </trkpt>
      <trkpt lat="47.19655" lon="-1.67602">
        <ele>46</ele>
        <time>2021-06-05T09:20:57.000Z</time>
      </trkpt>
      <trkpt lat="47.19665" lon="-1.67601">
        <ele>46</ele>
        <time>2021-06-05T09:21:03.000Z</time>
      </trkpt>
      <trkpt lat="47.19675" lon="-1.67599">
        <ele>47</ele>
        <time>2021-06-05T09:21:08.000Z</time>
      </trkpt>
      <trkpt lat="47.19684" lon="-1.67595">
        <ele>48</ele>
        <time>2021-06-05T09:21:13.000Z</time>
      </trkpt>
      <trkpt lat="47.19694" lon="-1.6759">
        <ele>47</ele>
        <time>2021-06-05T09:21:18.000Z</time>
      </trkpt>
      <trkpt lat="47.19702" lon="-1.67584">
        <ele>48</ele>
        <time>2021-06-05T09:21:23.000Z</time>
      </trkpt>
      <trkpt lat="47.1971" lon="-1.67575">
        <ele>46</ele>
        <time>2021-06-05T09:21:29.000Z</time>
      </trkpt>
      <trkpt lat="47.19718" lon="-1.67565">
        <ele>45</ele>
        <time>2021-06-05T09:21:36.000Z</time>
      </trkpt>
      <trkpt lat="47.19725" lon="-1.67556">
        <ele>46</ele>
        <time>2021-06-05T09:21:44.000Z</time>
      </trkpt>
      <trkpt lat="47.1973" lon="-1.67545">
        <ele>47</ele>
        <time>2021-06-05T09:21:51.000Z</time>
      </trkpt>
      <trkpt lat="47.19735" lon="-1.67532">
        <ele>48</ele>
        <time>2021-06-05T09:21:57.000Z</time>
      </trkpt>
      <trkpt lat="47.19739" lon="-1.67519">
        <ele>49</ele>
        <time>2021-06-05T09:22:03.000Z</time>
      </trkpt>
      <trkpt lat="47.19742" lon="-1.67505">
        <ele>49</ele>
        <time>2021-06-05T09:22:10.000Z</time>
      </trkpt>
      <trkpt lat="47.19743" lon="-1.6749">
        <ele>48</ele>
        <time>2021-06-05T09:22:18.000Z</time>
      </trkpt>
      <trkpt lat="47.19745" lon="-1.67475">
        <ele>49</ele>
        <time>2021-06-05T09:22:27.000Z</time>
      </trkpt>
      <trkpt lat="47.19749" lon="-1.67461">
        <ele>50</ele>
        <time>2021-06-05T09:22:39.000Z</time>
      </trkpt>
      <trkpt lat="47.1975" lon="-1.67448">
        <ele>51</ele>
        <time>2021-06-05T09:22:51.000Z</time>
      </trkpt>
      <trkpt lat="47.19748" lon="-1.67429">
        <ele>51</ele>
        <time>2021-06-05T09:23:09.000Z</time>
      </trkpt>
      <trkpt lat="47.19746" lon="-1.67412">
        <ele>51</ele>
        <time>2021-06-05T09:23:11.000Z</time>
      </trkpt>
      <trkpt lat="47.19745" lon="-1.67397">
        <ele>51</ele>
        <time>2021-06-05T09:23:13.000Z</time>
      </trkpt>
      <trkpt lat="47.19744" lon="-1.67381">
        <ele>51</ele>
        <time>2021-06-05T09:23:15.000Z</time>
      </trkpt>
      <trkpt lat="47.19744" lon="-1.67366">
        <ele>51</ele>
        <time>2021-06-05T09:23:17.000Z</time>
      </trkpt>
      <trkpt lat="47.19744" lon="-1.6735">
        <ele>51</ele>
        <time>2021-06-05T09:23:19.000Z</time>
      </trkpt>
      <trkpt lat="47.19749" lon="-1.67333">
        <ele>51</ele>
        <time>2021-06-05T09:23:21.000Z</time>
      </trkpt>
      <trkpt lat="47.19759" lon="-1.67321">
        <ele>51</ele>
        <time>2021-06-05T09:23:23.000Z</time>
      </trkpt>
      <trkpt lat="47.19769" lon="-1.67312">
        <ele>51</ele>
        <time>2021-06-05T09:23:25.000Z</time>
      </trkpt>
      <trkpt lat="47.19779" lon="-1.67303">
        <ele>52</ele>
        <time>2021-06-05T09:23:27.000Z</time>
      </trkpt>
      <trkpt lat="47.19792" lon="-1.67296">
        <ele>52</ele>
        <time>2021-06-05T09:23:29.000Z</time>
      </trkpt>
      <trkpt lat="47.19805" lon="-1.67297">
        <ele>52</ele>
        <time>2021-06-05T09:23:31.000Z</time>
      </trkpt>
      <trkpt lat="47.19815" lon="-1.67313">
        <ele>52</ele>
        <time>2021-06-05T09:23:33.000Z</time>
      </trkpt>
      <trkpt lat="47.19824" lon="-1.6733">
        <ele>52</ele>
        <time>2021-06-05T09:23:35.000Z</time>
      </trkpt>
      <trkpt lat="47.19833" lon="-1.67347">
        <ele>51</ele>
        <time>2021-06-05T09:23:37.000Z</time>
      </trkpt>
      <trkpt lat="47.19841" lon="-1.67365">
        <ele>51</ele>
        <time>2021-06-05T09:23:39.000Z</time>
      </trkpt>
      <trkpt lat="47.19849" lon="-1.67381">
        <ele>51</ele>
        <time>2021-06-05T09:23:41.000Z</time>
      </trkpt>
      <trkpt lat="47.19857" lon="-1.67397">
        <ele>51</ele>
        <time>2021-06-05T09:23:43.000Z</time>
      </trkpt>
      <trkpt lat="47.19865" lon="-1.67414">
        <ele>51</ele>
        <time>2021-06-05T09:23:45.000Z</time>
      </trkpt>
      <trkpt lat="47.19873" lon="-1.6743">
        <ele>51</ele>
        <time>2021-06-05T09:23:47.000Z</time>
      </trkpt>
      <trkpt lat="47.19881" lon="-1.67448">
        <ele>51</ele>
        <time>2021-06-05T09:23:49.000Z</time>
      </trkpt>
      <trkpt lat="47.1989" lon="-1.67465">
        <ele>51</ele>
        <time>2021-06-05T09:23:51.000Z</time>
      </trkpt>
      <trkpt lat="47.19898" lon="-1.67483">
        <ele>50</ele>
        <time>2021-06-05T09:23:53.000Z</time>
      </trkpt>
      <trkpt lat="47.19906" lon="-1.675">
        <ele>51</ele>
        <time>2021-06-05T09:23:55.000Z</time>
      </trkpt>
      <trkpt lat="47.19914" lon="-1.67518">
        <ele>51</ele>
        <time>2021-06-05T09:23:57.000Z</time>
      </trkpt>
      <trkpt lat="47.19921" lon="-1.67535">
        <ele>51</ele>
        <time>2021-06-05T09:23:59.000Z</time>
      </trkpt>
      <trkpt lat="47.19928" lon="-1.67552">
        <ele>52</ele>
        <time>2021-06-05T09:24:01.000Z</time>
      </trkpt>
      <trkpt lat="47.19936" lon="-1.67568">
        <ele>52</ele>
        <time>2021-06-05T09:24:03.000Z</time>
      </trkpt>
      <trkpt lat="47.19944" lon="-1.67585">
        <ele>51</ele>
        <time>2021-06-05T09:24:05.000Z</time>
      </trkpt>
      <trkpt lat="47.19952" lon="-1.67602">
        <ele>51</ele>
        <time>2021-06-05T09:24:07.000Z</time>
      </trkpt>
      <trkpt lat="47.1996" lon="-1.67618">
        <ele>51</ele>
        <time>2021-06-05T09:24:09.000Z</time>
      </trkpt>
      <trkpt lat="47.19969" lon="-1.67634">
        <ele>51</ele>
        <time>2021-06-05T09:24:11.000Z</time>
      </trkpt>
      <trkpt lat="47.19978" lon="-1.67649">
        <ele>51</ele>
        <time>2021-06-05T09:24:13.000Z</time>
      </trkpt>
      <trkpt lat="47.19988" lon="-1.67664">
        <ele>51</ele>
        <time>2021-06-05T09:24:15.000Z</time>
      </trkpt>
      <trkpt lat="47.19996" lon="-1.67679">
        <ele>51</ele>
        <time>2021-06-05T09:24:17.000Z</time>
      </trkpt>
      <trkpt lat="47.20005" lon="-1.67694">
        <ele>51</ele>
        <time>2021-06-05T09:24:19.000Z</time>
      </trkpt>
      <trkpt lat="47.20015" lon="-1.67709">
        <ele>51</ele>
        <time>2021-06-05T09:24:21.000Z</time>
      </trkpt>
      <trkpt lat="47.20024" lon="-1.67724">
        <ele>51</ele>
        <time>2021-06-05T09:24:23.000Z</time>
      </trkpt>
      <trkpt lat="47.20032" lon="-1.67739">
        <ele>51</ele>
        <time>2021-06-05T09:24:25.000Z</time>
      </trkpt>
      <trkpt lat="47.20041" lon="-1.67754">
        <ele>51</ele>
        <time>2021-06-05T09:24:27.000Z</time>
      </trkpt>
      <trkpt lat="47.20051" lon="-1.67771">
        <ele>50</ele>
        <time>2021-06-05T09:24:29.000Z</time>
      </trkpt>
      <trkpt lat="47.20059" lon="-1.67787">
        <ele>50</ele>
        <time>2021-06-05T09:24:31.000Z</time>
      </trkpt>
      <trkpt lat="47.20068" lon="-1.67802">
        <ele>50</ele>
        <time>2021-06-05T09:24:33.000Z</time>
      </trkpt>
      <trkpt lat="47.20077" lon="-1.67818">
        <ele>50</ele>
        <time>2021-06-05T09:24:35.000Z</time>
      </trkpt>
      <trkpt lat="47.20087" lon="-1.67833">
        <ele>50</ele>
        <time>2021-06-05T09:24:37.000Z</time>
      </trkpt>
      <trkpt lat="47.20095" lon="-1.67849">
        <ele>50</ele>
        <time>2021-06-05T09:24:39.000Z</time>
      </trkpt>
      <trkpt lat="47.20103" lon="-1.67865">
        <ele>50</ele>
        <time>2021-06-05T09:24:41.000Z</time>
      </trkpt>
      <trkpt lat="47.20112" lon="-1.6788">
        <ele>50</ele>
        <time>2021-06-05T09:24:43.000Z</time>
      </trkpt>
      <trkpt lat="47.2012" lon="-1.67894">
        <ele>50</ele>
        <time>2021-06-05T09:24:45.000Z</time>
      </trkpt>
      <trkpt lat="47.20129" lon="-1.67908">
        <ele>50</ele>
        <time>2021-06-05T09:24:47.000Z</time>
      </trkpt>
      <trkpt lat="47.2014" lon="-1.67915">
        <ele>51</ele>
        <time>2021-06-05T09:24:49.000Z</time>
      </trkpt>
      <trkpt lat="47.20152" lon="-1.67909">
        <ele>53</ele>
        <time>2021-06-05T09:24:51.000Z</time>
      </trkpt>
      <trkpt lat="47.20163" lon="-1.67898">
        <ele>53</ele>
        <time>2021-06-05T09:24:53.000Z</time>
      </trkpt>
      <trkpt lat="47.20173" lon="-1.67888">
        <ele>53</ele>
        <time>2021-06-05T09:24:55.000Z</time>
      </trkpt>
      <trkpt lat="47.20183" lon="-1.67878">
        <ele>54</ele>
        <time>2021-06-05T09:24:57.000Z</time>
      </trkpt>
      <trkpt lat="47.20193" lon="-1.67869">
        <ele>55</ele>
        <time>2021-06-05T09:24:59.000Z</time>
      </trkpt>
      <trkpt lat="47.20203" lon="-1.6786">
        <ele>55</ele>
        <time>2021-06-05T09:25:01.000Z</time>
      </trkpt>
      <trkpt lat="47.20213" lon="-1.67853">
        <ele>55</ele>
        <time>2021-06-05T09:25:03.000Z</time>
      </trkpt>
      <trkpt lat="47.20225" lon="-1.67844">
        <ele>55</ele>
        <time>2021-06-05T09:25:05.000Z</time>
      </trkpt>
      <trkpt lat="47.20235" lon="-1.67829">
        <ele>54</ele>
        <time>2021-06-05T09:25:07.000Z</time>
      </trkpt>
      <trkpt lat="47.20228" lon="-1.67804">
        <ele>54</ele>
        <time>2021-06-05T09:25:09.000Z</time>
      </trkpt>
      <trkpt lat="47.2022" lon="-1.67782">
        <ele>55</ele>
        <time>2021-06-05T09:25:11.000Z</time>
      </trkpt>
      <trkpt lat="47.20213" lon="-1.6776">
        <ele>54</ele>
        <time>2021-06-05T09:25:13.000Z</time>
      </trkpt>
      <trkpt lat="47.20206" lon="-1.6774">
        <ele>54</ele>
        <time>2021-06-05T09:25:15.000Z</time>
      </trkpt>
      <trkpt lat="47.20199" lon="-1.6772">
        <ele>54</ele>
        <time>2021-06-05T09:25:17.000Z</time>
      </trkpt>
      <trkpt lat="47.20193" lon="-1.677">
        <ele>54</ele>
        <time>2021-06-05T09:25:19.000Z</time>
      </trkpt>
      <trkpt lat="47.20186" lon="-1.67681">
        <ele>54</ele>
        <time>2021-06-05T09:25:21.000Z</time>
      </trkpt>
      <trkpt lat="47.20179" lon="-1.67663">
        <ele>54</ele>
        <time>2021-06-05T09:25:23.000Z</time>
      </trkpt>
      <trkpt lat="47.20172" lon="-1.67644">
        <ele>54</ele>
        <time>2021-06-05T09:25:25.000Z</time>
      </trkpt>
      <trkpt lat="47.20164" lon="-1.67626">
        <ele>54</ele>
        <time>2021-06-05T09:25:27.000Z</time>
      </trkpt>
      <trkpt lat="47.20157" lon="-1.67607">
        <ele>55</ele>
        <time>2021-06-05T09:25:29.000Z</time>
      </trkpt>
      <trkpt lat="47.20151" lon="-1.67589">
        <ele>55</ele>
        <time>2021-06-05T09:25:31.000Z</time>
      </trkpt>
      <trkpt lat="47.20144" lon="-1.67571">
        <ele>55</ele>
        <time>2021-06-05T09:25:33.000Z</time>
      </trkpt>
      <trkpt lat="47.20137" lon="-1.67552">
        <ele>56</ele>
        <time>2021-06-05T09:25:35.000Z</time>
      </trkpt>
      <trkpt lat="47.2013" lon="-1.67535">
        <ele>56</ele>
        <time>2021-06-05T09:25:37.000Z</time>
      </trkpt>
      <trkpt lat="47.20123" lon="-1.67519">
        <ele>56</ele>
        <time>2021-06-05T09:25:39.000Z</time>
      </trkpt>
      <trkpt lat="47.20117" lon="-1.67504">
        <ele>56</ele>
        <time>2021-06-05T09:25:41.000Z</time>
      </trkpt>
      <trkpt lat="47.20117" lon="-1.67487">
        <ele>56</ele>
        <time>2021-06-05T09:25:45.000Z</time>
      </trkpt>
      <trkpt lat="47.20128" lon="-1.67477">
        <ele>55</ele>
        <time>2021-06-05T09:25:47.000Z</time>
      </trkpt>
      <trkpt lat="47.20141" lon="-1.6747">
        <ele>55</ele>
        <time>2021-06-05T09:25:49.000Z</time>
      </trkpt>
      <trkpt lat="47.20154" lon="-1.67464">
        <ele>55</ele>
        <time>2021-06-05T09:25:51.000Z</time>
      </trkpt>
      <trkpt lat="47.20168" lon="-1.67457">
        <ele>55</ele>
        <time>2021-06-05T09:25:53.000Z</time>
      </trkpt>
      <trkpt lat="47.20182" lon="-1.67451">
        <ele>54</ele>
        <time>2021-06-05T09:25:55.000Z</time>
      </trkpt>
      <trkpt lat="47.20197" lon="-1.67444">
        <ele>54</ele>
        <time>2021-06-05T09:25:57.000Z</time>
      </trkpt>
      <trkpt lat="47.20211" lon="-1.67438">
        <ele>53</ele>
        <time>2021-06-05T09:25:59.000Z</time>
      </trkpt>
      <trkpt lat="47.20224" lon="-1.67431">
        <ele>53</ele>
        <time>2021-06-05T09:26:01.000Z</time>
      </trkpt>
      <trkpt lat="47.20238" lon="-1.67423">
        <ele>53</ele>
        <time>2021-06-05T09:26:03.000Z</time>
      </trkpt>
      <trkpt lat="47.20252" lon="-1.67416">
        <ele>53</ele>
        <time>2021-06-05T09:26:05.000Z</time>
      </trkpt>
      <trkpt lat="47.20266" lon="-1.6741">
        <ele>53</ele>
        <time>2021-06-05T09:26:07.000Z</time>
      </trkpt>
      <trkpt lat="47.2028" lon="-1.67404">
        <ele>52</ele>
        <time>2021-06-05T09:26:09.000Z</time>
      </trkpt>
      <trkpt lat="47.20294" lon="-1.67397">
        <ele>52</ele>
        <time>2021-06-05T09:26:11.000Z</time>
      </trkpt>
      <trkpt lat="47.20307" lon="-1.67391">
        <ele>52</ele>
        <time>2021-06-05T09:26:13.000Z</time>
      </trkpt>
      <trkpt lat="47.20322" lon="-1.67387">
        <ele>52</ele>
        <time>2021-06-05T09:26:15.000Z</time>
      </trkpt>
      <trkpt lat="47.20336" lon="-1.67389">
        <ele>52</ele>
        <time>2021-06-05T09:26:17.000Z</time>
      </trkpt>
      <trkpt lat="47.2035" lon="-1.67397">
        <ele>51</ele>
        <time>2021-06-05T09:26:19.000Z</time>
      </trkpt>
      <trkpt lat="47.20361" lon="-1.67411">
        <ele>51</ele>
        <time>2021-06-05T09:26:21.000Z</time>
      </trkpt>
      <trkpt lat="47.20369" lon="-1.6743">
        <ele>51</ele>
        <time>2021-06-05T09:26:23.000Z</time>
      </trkpt>
      <trkpt lat="47.20373" lon="-1.67451">
        <ele>51</ele>
        <time>2021-06-05T09:26:25.000Z</time>
      </trkpt>
      <trkpt lat="47.20376" lon="-1.67472">
        <ele>51</ele>
        <time>2021-06-05T09:26:27.000Z</time>
      </trkpt>
      <trkpt lat="47.20379" lon="-1.67492">
        <ele>51</ele>
        <time>2021-06-05T09:26:29.000Z</time>
      </trkpt>
      <trkpt lat="47.20382" lon="-1.67513">
        <ele>51</ele>
        <time>2021-06-05T09:26:31.000Z</time>
      </trkpt>
      <trkpt lat="47.20385" lon="-1.67533">
        <ele>51</ele>
        <time>2021-06-05T09:26:33.000Z</time>
      </trkpt>
      <trkpt lat="47.20393" lon="-1.67547">
        <ele>51</ele>
        <time>2021-06-05T09:26:35.000Z</time>
      </trkpt>
      <trkpt lat="47.20404" lon="-1.67554">
        <ele>51</ele>
        <time>2021-06-05T09:26:37.000Z</time>
      </trkpt>
      <trkpt lat="47.20417" lon="-1.67545">
        <ele>51</ele>
        <time>2021-06-05T09:26:39.000Z</time>
      </trkpt>
      <trkpt lat="47.20432" lon="-1.67539">
        <ele>51</ele>
        <time>2021-06-05T09:26:41.000Z</time>
      </trkpt>
      <trkpt lat="47.20446" lon="-1.67551">
        <ele>51</ele>
        <time>2021-06-05T09:26:43.000Z</time>
      </trkpt>
      <trkpt lat="47.20452" lon="-1.67572">
        <ele>51</ele>
        <time>2021-06-05T09:26:45.000Z</time>
      </trkpt>
      <trkpt lat="47.20461" lon="-1.6759">
        <ele>51</ele>
        <time>2021-06-05T09:26:47.000Z</time>
      </trkpt>
      <trkpt lat="47.20471" lon="-1.67605">
        <ele>51</ele>
        <time>2021-06-05T09:26:49.000Z</time>
      </trkpt>
      <trkpt lat="47.20481" lon="-1.67623">
        <ele>51</ele>
        <time>2021-06-05T09:26:51.000Z</time>
      </trkpt>
      <trkpt lat="47.20489" lon="-1.6764">
        <ele>51</ele>
        <time>2021-06-05T09:26:53.000Z</time>
      </trkpt>
      <trkpt lat="47.20495" lon="-1.67659">
        <ele>51</ele>
        <time>2021-06-05T09:26:55.000Z</time>
      </trkpt>
      <trkpt lat="47.20503" lon="-1.67677">
        <ele>51</ele>
        <time>2021-06-05T09:26:57.000Z</time>
      </trkpt>
      <trkpt lat="47.2051" lon="-1.67696">
        <ele>51</ele>
        <time>2021-06-05T09:26:59.000Z</time>
      </trkpt>
      <trkpt lat="47.20517" lon="-1.67716">
        <ele>52</ele>
        <time>2021-06-05T09:27:01.000Z</time>
      </trkpt>
      <trkpt lat="47.20524" lon="-1.67735">
        <ele>52</ele>
        <time>2021-06-05T09:27:03.000Z</time>
      </trkpt>
      <trkpt lat="47.20531" lon="-1.67754">
        <ele>52</ele>
        <time>2021-06-05T09:27:05.000Z</time>
      </trkpt>
      <trkpt lat="47.20537" lon="-1.67773">
        <ele>52</ele>
        <time>2021-06-05T09:27:07.000Z</time>
      </trkpt>
      <trkpt lat="47.20544" lon="-1.67793">
        <ele>52</ele>
        <time>2021-06-05T09:27:09.000Z</time>
      </trkpt>
      <trkpt lat="47.2055" lon="-1.67813">
        <ele>52</ele>
        <time>2021-06-05T09:27:11.000Z</time>
      </trkpt>
      <trkpt lat="47.20556" lon="-1.67832">
        <ele>52</ele>
        <time>2021-06-05T09:27:13.000Z</time>
      </trkpt>
      <trkpt lat="47.20563" lon="-1.67852">
        <ele>51</ele>
        <time>2021-06-05T09:27:15.000Z</time>
      </trkpt>
      <trkpt lat="47.20568" lon="-1.67871">
        <ele>51</ele>
        <time>2021-06-05T09:27:17.000Z</time>
      </trkpt>
      <trkpt lat="47.20574" lon="-1.67891">
        <ele>51</ele>
        <time>2021-06-05T09:27:19.000Z</time>
      </trkpt>
      <trkpt lat="47.2058" lon="-1.6791">
        <ele>51</ele>
        <time>2021-06-05T09:27:21.000Z</time>
      </trkpt>
      <trkpt lat="47.20586" lon="-1.6793">
        <ele>52</ele>
        <time>2021-06-05T09:27:23.000Z</time>
      </trkpt>
      <trkpt lat="47.20592" lon="-1.67949">
        <ele>52</ele>
        <time>2021-06-05T09:27:25.000Z</time>
      </trkpt>
      <trkpt lat="47.20597" lon="-1.67969">
        <ele>52</ele>
        <time>2021-06-05T09:27:27.000Z</time>
      </trkpt>
      <trkpt lat="47.20603" lon="-1.67988">
        <ele>52</ele>
        <time>2021-06-05T09:27:29.000Z</time>
      </trkpt>
      <trkpt lat="47.20609" lon="-1.68008">
        <ele>52</ele>
        <time>2021-06-05T09:27:31.000Z</time>
      </trkpt>
      <trkpt lat="47.20615" lon="-1.68027">
        <ele>52</ele>
        <time>2021-06-05T09:27:33.000Z</time>
      </trkpt>
      <trkpt lat="47.20621" lon="-1.68047">
        <ele>52</ele>
        <time>2021-06-05T09:27:35.000Z</time>
      </trkpt>
      <trkpt lat="47.20626" lon="-1.68067">
        <ele>52</ele>
        <time>2021-06-05T09:27:37.000Z</time>
      </trkpt>
      <trkpt lat="47.20632" lon="-1.68086">
        <ele>52</ele>
        <time>2021-06-05T09:27:39.000Z</time>
      </trkpt>
      <trkpt lat="47.20637" lon="-1.68107">
        <ele>52</ele>
        <time>2021-06-05T09:27:41.000Z</time>
      </trkpt>
      <trkpt lat="47.20643" lon="-1.68126">
        <ele>51</ele>
        <time>2021-06-05T09:27:43.000Z</time>
      </trkpt>
      <trkpt lat="47.20649" lon="-1.68146">
        <ele>51</ele>
        <time>2021-06-05T09:27:45.000Z</time>
      </trkpt>
      <trkpt lat="47.20654" lon="-1.68165">
        <ele>51</ele>
        <time>2021-06-05T09:27:47.000Z</time>
      </trkpt>
      <trkpt lat="47.20661" lon="-1.68183">
        <ele>51</ele>
        <time>2021-06-05T09:27:49.000Z</time>
      </trkpt>
      <trkpt lat="47.20666" lon="-1.68203">
        <ele>51</ele>
        <time>2021-06-05T09:27:51.000Z</time>
      </trkpt>
      <trkpt lat="47.20672" lon="-1.68221">
        <ele>51</ele>
        <time>2021-06-05T09:27:53.000Z</time>
      </trkpt>
      <trkpt lat="47.20677" lon="-1.68241">
        <ele>51</ele>
        <time>2021-06-05T09:27:55.000Z</time>
      </trkpt>
      <trkpt lat="47.20683" lon="-1.6826">
        <ele>51</ele>
        <time>2021-06-05T09:27:57.000Z</time>
      </trkpt>
      <trkpt lat="47.20689" lon="-1.68279">
        <ele>51</ele>
        <time>2021-06-05T09:27:59.000Z</time>
      </trkpt>
      <trkpt lat="47.20694" lon="-1.68298">
        <ele>51</ele>
        <time>2021-06-05T09:28:01.000Z</time>
      </trkpt>
      <trkpt lat="47.20699" lon="-1.68316">
        <ele>51</ele>
        <time>2021-06-05T09:28:03.000Z</time>
      </trkpt>
      <trkpt lat="47.20705" lon="-1.68335">
        <ele>51</ele>
        <time>2021-06-05T09:28:05.000Z</time>
      </trkpt>
      <trkpt lat="47.20711" lon="-1.68352">
        <ele>51</ele>
        <time>2021-06-05T09:28:07.000Z</time>
      </trkpt>
      <trkpt lat="47.2072" lon="-1.68367">
        <ele>50</ele>
        <time>2021-06-05T09:28:09.000Z</time>
      </trkpt>
      <trkpt lat="47.20731" lon="-1.68381">
        <ele>50</ele>
        <time>2021-06-05T09:28:11.000Z</time>
      </trkpt>
      <trkpt lat="47.20736" lon="-1.68401">
        <ele>51</ele>
        <time>2021-06-05T09:28:13.000Z</time>
      </trkpt>
      <trkpt lat="47.20736" lon="-1.68423">
        <ele>51</ele>
        <time>2021-06-05T09:28:15.000Z</time>
      </trkpt>
      <trkpt lat="47.20738" lon="-1.68445">
        <ele>51</ele>
        <time>2021-06-05T09:28:17.000Z</time>
      </trkpt>
      <trkpt lat="47.20744" lon="-1.68465">
        <ele>51</ele>
        <time>2021-06-05T09:28:19.000Z</time>
      </trkpt>
      <trkpt lat="47.2075" lon="-1.68484">
        <ele>51</ele>
        <time>2021-06-05T09:28:21.000Z</time>
      </trkpt>
      <trkpt lat="47.20756" lon="-1.68504">
        <ele>51</ele>
        <time>2021-06-05T09:28:23.000Z</time>
      </trkpt>
      <trkpt lat="47.20761" lon="-1.68523">
        <ele>51</ele>
        <time>2021-06-05T09:28:25.000Z</time>
      </trkpt>
      <trkpt lat="47.20767" lon="-1.68543">
        <ele>51</ele>
        <time>2021-06-05T09:28:27.000Z</time>
      </trkpt>
      <trkpt lat="47.20773" lon="-1.68564">
        <ele>51</ele>
        <time>2021-06-05T09:28:29.000Z</time>
      </trkpt>
      <trkpt lat="47.20779" lon="-1.68584">
        <ele>50</ele>
        <time>2021-06-05T09:28:31.000Z</time>
      </trkpt>
      <trkpt lat="47.20785" lon="-1.68603">
        <ele>51</ele>
        <time>2021-06-05T09:28:33.000Z</time>
      </trkpt>
      <trkpt lat="47.2079" lon="-1.68622">
        <ele>51</ele>
        <time>2021-06-05T09:28:35.000Z</time>
      </trkpt>
      <trkpt lat="47.20796" lon="-1.68642">
        <ele>51</ele>
        <time>2021-06-05T09:28:37.000Z</time>
      </trkpt>
      <trkpt lat="47.20802" lon="-1.68662">
        <ele>51</ele>
        <time>2021-06-05T09:28:39.000Z</time>
      </trkpt>
      <trkpt lat="47.20808" lon="-1.68681">
        <ele>51</ele>
        <time>2021-06-05T09:28:41.000Z</time>
      </trkpt>
      <trkpt lat="47.20813" lon="-1.68701">
        <ele>51</ele>
        <time>2021-06-05T09:28:43.000Z</time>
      </trkpt>
      <trkpt lat="47.20819" lon="-1.6872">
        <ele>52</ele>
        <time>2021-06-05T09:28:45.000Z</time>
      </trkpt>
      <trkpt lat="47.20825" lon="-1.68739">
        <ele>52</ele>
        <time>2021-06-05T09:28:47.000Z</time>
      </trkpt>
      <trkpt lat="47.20831" lon="-1.68758">
        <ele>52</ele>
        <time>2021-06-05T09:28:49.000Z</time>
      </trkpt>
      <trkpt lat="47.20836" lon="-1.68778">
        <ele>52</ele>
        <time>2021-06-05T09:28:51.000Z</time>
      </trkpt>
      <trkpt lat="47.20841" lon="-1.68799">
        <ele>52</ele>
        <time>2021-06-05T09:28:53.000Z</time>
      </trkpt>
      <trkpt lat="47.20846" lon="-1.68819">
        <ele>52</ele>
        <time>2021-06-05T09:28:55.000Z</time>
      </trkpt>
      <trkpt lat="47.20851" lon="-1.68839">
        <ele>52</ele>
        <time>2021-06-05T09:28:57.000Z</time>
      </trkpt>
      <trkpt lat="47.20855" lon="-1.68859">
        <ele>52</ele>
        <time>2021-06-05T09:28:59.000Z</time>
      </trkpt>
      <trkpt lat="47.20859" lon="-1.6888">
        <ele>52</ele>
        <time>2021-06-05T09:29:01.000Z</time>
      </trkpt>
      <trkpt lat="47.20863" lon="-1.689">
        <ele>53</ele>
        <time>2021-06-05T09:29:03.000Z</time>
      </trkpt>
      <trkpt lat="47.20867" lon="-1.68919">
        <ele>53</ele>
        <time>2021-06-05T09:29:05.000Z</time>
      </trkpt>
      <trkpt lat="47.2087" lon="-1.68939">
        <ele>53</ele>
        <time>2021-06-05T09:29:07.000Z</time>
      </trkpt>
      <trkpt lat="47.20873" lon="-1.6896">
        <ele>53</ele>
        <time>2021-06-05T09:29:09.000Z</time>
      </trkpt>
      <trkpt lat="47.20876" lon="-1.68981">
        <ele>53</ele>
        <time>2021-06-05T09:29:11.000Z</time>
      </trkpt>
      <trkpt lat="47.20879" lon="-1.69002">
        <ele>53</ele>
        <time>2021-06-05T09:29:13.000Z</time>
      </trkpt>
      <trkpt lat="47.20882" lon="-1.69023">
        <ele>52</ele>
        <time>2021-06-05T09:29:15.000Z</time>
      </trkpt>
      <trkpt lat="47.20884" lon="-1.69043">
        <ele>52</ele>
        <time>2021-06-05T09:29:17.000Z</time>
      </trkpt>
      <trkpt lat="47.20886" lon="-1.69065">
        <ele>51</ele>
        <time>2021-06-05T09:29:19.000Z</time>
      </trkpt>
      <trkpt lat="47.20888" lon="-1.69086">
        <ele>51</ele>
        <time>2021-06-05T09:29:21.000Z</time>
      </trkpt>
      <trkpt lat="47.2089" lon="-1.69107">
        <ele>51</ele>
        <time>2021-06-05T09:29:23.000Z</time>
      </trkpt>
      <trkpt lat="47.20891" lon="-1.69129">
        <ele>51</ele>
        <time>2021-06-05T09:29:25.000Z</time>
      </trkpt>
      <trkpt lat="47.20893" lon="-1.69151">
        <ele>51</ele>
        <time>2021-06-05T09:29:27.000Z</time>
      </trkpt>
      <trkpt lat="47.20895" lon="-1.69172">
        <ele>51</ele>
        <time>2021-06-05T09:29:29.000Z</time>
      </trkpt>
      <trkpt lat="47.20896" lon="-1.69193">
        <ele>51</ele>
        <time>2021-06-05T09:29:31.000Z</time>
      </trkpt>
      <trkpt lat="47.20898" lon="-1.69214">
        <ele>52</ele>
        <time>2021-06-05T09:29:33.000Z</time>
      </trkpt>
      <trkpt lat="47.209" lon="-1.69235">
        <ele>52</ele>
        <time>2021-06-05T09:29:35.000Z</time>
      </trkpt>
      <trkpt lat="47.20901" lon="-1.69256">
        <ele>52</ele>
        <time>2021-06-05T09:29:37.000Z</time>
      </trkpt>
      <trkpt lat="47.20903" lon="-1.69277">
        <ele>52</ele>
        <time>2021-06-05T09:29:39.000Z</time>
      </trkpt>
      <trkpt lat="47.20904" lon="-1.69299">
        <ele>51</ele>
        <time>2021-06-05T09:29:41.000Z</time>
      </trkpt>
      <trkpt lat="47.20906" lon="-1.6932">
        <ele>51</ele>
        <time>2021-06-05T09:29:43.000Z</time>
      </trkpt>
      <trkpt lat="47.20907" lon="-1.69341">
        <ele>51</ele>
        <time>2021-06-05T09:29:45.000Z</time>
      </trkpt>
      <trkpt lat="47.20909" lon="-1.69363">
        <ele>51</ele>
        <time>2021-06-05T09:29:47.000Z</time>
      </trkpt>
      <trkpt lat="47.2091" lon="-1.69384">
        <ele>51</ele>
        <time>2021-06-05T09:29:49.000Z</time>
      </trkpt>
      <trkpt lat="47.20912" lon="-1.69405">
        <ele>51</ele>
        <time>2021-06-05T09:29:51.000Z</time>
      </trkpt>
      <trkpt lat="47.20914" lon="-1.69426">
        <ele>51</ele>
        <time>2021-06-05T09:29:53.000Z</time>
      </trkpt>
      <trkpt lat="47.20915" lon="-1.69448">
        <ele>51</ele>
        <time>2021-06-05T09:29:55.000Z</time>
      </trkpt>
      <trkpt lat="47.20917" lon="-1.6947">
        <ele>51</ele>
        <time>2021-06-05T09:29:57.000Z</time>
      </trkpt>
      <trkpt lat="47.20918" lon="-1.69491">
        <ele>51</ele>
        <time>2021-06-05T09:29:59.000Z</time>
      </trkpt>
      <trkpt lat="47.20919" lon="-1.69513">
        <ele>51</ele>
        <time>2021-06-05T09:30:01.000Z</time>
      </trkpt>
      <trkpt lat="47.20921" lon="-1.69534">
        <ele>51</ele>
        <time>2021-06-05T09:30:03.000Z</time>
      </trkpt>
      <trkpt lat="47.20923" lon="-1.69556">
        <ele>52</ele>
        <time>2021-06-05T09:30:05.000Z</time>
      </trkpt>
      <trkpt lat="47.20924" lon="-1.69578">
        <ele>52</ele>
        <time>2021-06-05T09:30:07.000Z</time>
      </trkpt>
      <trkpt lat="47.20927" lon="-1.69599">
        <ele>52</ele>
        <time>2021-06-05T09:30:09.000Z</time>
      </trkpt>
      <trkpt lat="47.20928" lon="-1.69621">
        <ele>52</ele>
        <time>2021-06-05T09:30:11.000Z</time>
      </trkpt>
      <trkpt lat="47.2093" lon="-1.69642">
        <ele>51</ele>
        <time>2021-06-05T09:30:13.000Z</time>
      </trkpt>
      <trkpt lat="47.20931" lon="-1.69664">
        <ele>51</ele>
        <time>2021-06-05T09:30:15.000Z</time>
      </trkpt>
      <trkpt lat="47.20932" lon="-1.69685">
        <ele>51</ele>
        <time>2021-06-05T09:30:17.000Z</time>
      </trkpt>
      <trkpt lat="47.20934" lon="-1.69707">
        <ele>51</ele>
        <time>2021-06-05T09:30:19.000Z</time>
      </trkpt>
      <trkpt lat="47.20935" lon="-1.69728">
        <ele>51</ele>
        <time>2021-06-05T09:30:21.000Z</time>
      </trkpt>
      <trkpt lat="47.20937" lon="-1.69748">
        <ele>51</ele>
        <time>2021-06-05T09:30:23.000Z</time>
      </trkpt>
      <trkpt lat="47.20938" lon="-1.6977">
        <ele>51</ele>
        <time>2021-06-05T09:30:25.000Z</time>
      </trkpt>
      <trkpt lat="47.20939" lon="-1.6979">
        <ele>51</ele>
        <time>2021-06-05T09:30:27.000Z</time>
      </trkpt>
      <trkpt lat="47.20941" lon="-1.69811">
        <ele>51</ele>
        <time>2021-06-05T09:30:29.000Z</time>
      </trkpt>
      <trkpt lat="47.20942" lon="-1.69832">
        <ele>51</ele>
        <time>2021-06-05T09:30:31.000Z</time>
      </trkpt>
      <trkpt lat="47.20943" lon="-1.69853">
        <ele>51</ele>
        <time>2021-06-05T09:30:33.000Z</time>
      </trkpt>
      <trkpt lat="47.20945" lon="-1.69874">
        <ele>51</ele>
        <time>2021-06-05T09:30:35.000Z</time>
      </trkpt>
      <trkpt lat="47.20945" lon="-1.69895">
        <ele>51</ele>
        <time>2021-06-05T09:30:37.000Z</time>
      </trkpt>
      <trkpt lat="47.20946" lon="-1.69916">
        <ele>51</ele>
        <time>2021-06-05T09:30:39.000Z</time>
      </trkpt>
      <trkpt lat="47.20945" lon="-1.69936">
        <ele>51</ele>
        <time>2021-06-05T09:30:41.000Z</time>
      </trkpt>
      <trkpt lat="47.20944" lon="-1.69957">
        <ele>51</ele>
        <time>2021-06-05T09:30:43.000Z</time>
      </trkpt>
      <trkpt lat="47.20944" lon="-1.69976">
        <ele>52</ele>
        <time>2021-06-05T09:30:45.000Z</time>
      </trkpt>
      <trkpt lat="47.20943" lon="-1.69996">
        <ele>52</ele>
        <time>2021-06-05T09:30:47.000Z</time>
      </trkpt>
      <trkpt lat="47.20943" lon="-1.70016">
        <ele>52</ele>
        <time>2021-06-05T09:30:49.000Z</time>
      </trkpt>
      <trkpt lat="47.20945" lon="-1.70035">
        <ele>52</ele>
        <time>2021-06-05T09:30:51.000Z</time>
      </trkpt>
      <trkpt lat="47.20949" lon="-1.70053">
        <ele>52</ele>
        <time>2021-06-05T09:30:53.000Z</time>
      </trkpt>
      <trkpt lat="47.20955" lon="-1.70069">
        <ele>53</ele>
        <time>2021-06-05T09:30:55.000Z</time>
      </trkpt>
      <trkpt lat="47.20955" lon="-1.70088">
        <ele>52</ele>
        <time>2021-06-05T09:30:57.000Z</time>
      </trkpt>
      <trkpt lat="47.20951" lon="-1.70109">
        <ele>52</ele>
        <time>2021-06-05T09:30:59.000Z</time>
      </trkpt>
      <trkpt lat="47.20953" lon="-1.7013">
        <ele>52</ele>
        <time>2021-06-05T09:31:01.000Z</time>
      </trkpt>
      <trkpt lat="47.20957" lon="-1.70149">
        <ele>52</ele>
        <time>2021-06-05T09:31:03.000Z</time>
      </trkpt>
      <trkpt lat="47.2096" lon="-1.70169">
        <ele>52</ele>
        <time>2021-06-05T09:31:05.000Z</time>
      </trkpt>
      <trkpt lat="47.20963" lon="-1.70189">
        <ele>51</ele>
        <time>2021-06-05T09:31:07.000Z</time>
      </trkpt>
      <trkpt lat="47.20966" lon="-1.7021">
        <ele>51</ele>
        <time>2021-06-05T09:31:09.000Z</time>
      </trkpt>
      <trkpt lat="47.20969" lon="-1.7023">
        <ele>51</ele>
        <time>2021-06-05T09:31:11.000Z</time>
      </trkpt>
      <trkpt lat="47.20971" lon="-1.70251">
        <ele>52</ele>
        <time>2021-06-05T09:31:13.000Z</time>
      </trkpt>
      <trkpt lat="47.20973" lon="-1.70271">
        <ele>52</ele>
        <time>2021-06-05T09:31:15.000Z</time>
      </trkpt>
      <trkpt lat="47.20974" lon="-1.70291">
        <ele>52</ele>
        <time>2021-06-05T09:31:17.000Z</time>
      </trkpt>
      <trkpt lat="47.20975" lon="-1.70311">
        <ele>52</ele>
        <time>2021-06-05T09:31:19.000Z</time>
      </trkpt>
      <trkpt lat="47.20977" lon="-1.70331">
        <ele>52</ele>
        <time>2021-06-05T09:31:21.000Z</time>
      </trkpt>
      <trkpt lat="47.20977" lon="-1.70351">
        <ele>52</ele>
        <time>2021-06-05T09:31:23.000Z</time>
      </trkpt>
      <trkpt lat="47.20978" lon="-1.70372">
        <ele>52</ele>
        <time>2021-06-05T09:31:25.000Z</time>
      </trkpt>
      <trkpt lat="47.20979" lon="-1.70392">
        <ele>52</ele>
        <time>2021-06-05T09:31:27.000Z</time>
      </trkpt>
      <trkpt lat="47.20979" lon="-1.70412">
        <ele>52</ele>
        <time>2021-06-05T09:31:29.000Z</time>
      </trkpt>
      <trkpt lat="47.20979" lon="-1.70432">
        <ele>53</ele>
        <time>2021-06-05T09:31:31.000Z</time>
      </trkpt>
      <trkpt lat="47.20978" lon="-1.70452">
        <ele>53</ele>
        <time>2021-06-05T09:31:33.000Z</time>
      </trkpt>
      <trkpt lat="47.20977" lon="-1.70473">
        <ele>53</ele>
        <time>2021-06-05T09:31:35.000Z</time>
      </trkpt>
      <trkpt lat="47.20975" lon="-1.70493">
        <ele>53</ele>
        <time>2021-06-05T09:31:37.000Z</time>
      </trkpt>
      <trkpt lat="47.20974" lon="-1.70513">
        <ele>53</ele>
        <time>2021-06-05T09:31:39.000Z</time>
      </trkpt>
      <trkpt lat="47.20972" lon="-1.70533">
        <ele>53</ele>
        <time>2021-06-05T09:31:41.000Z</time>
      </trkpt>
      <trkpt lat="47.2097" lon="-1.70553">
        <ele>53</ele>
        <time>2021-06-05T09:31:43.000Z</time>
      </trkpt>
      <trkpt lat="47.20968" lon="-1.70573">
        <ele>53</ele>
        <time>2021-06-05T09:31:45.000Z</time>
      </trkpt>
      <trkpt lat="47.20965" lon="-1.70593">
        <ele>53</ele>
        <time>2021-06-05T09:31:47.000Z</time>
      </trkpt>
      <trkpt lat="47.20962" lon="-1.70614">
        <ele>53</ele>
        <time>2021-06-05T09:31:49.000Z</time>
      </trkpt>
      <trkpt lat="47.20959" lon="-1.70634">
        <ele>54</ele>
        <time>2021-06-05T09:31:51.000Z</time>
      </trkpt>
      <trkpt lat="47.20956" lon="-1.70654">
        <ele>53</ele>
        <time>2021-06-05T09:31:53.000Z</time>
      </trkpt>
      <trkpt lat="47.20954" lon="-1.70675">
        <ele>53</ele>
        <time>2021-06-05T09:31:55.000Z</time>
      </trkpt>
      <trkpt lat="47.20952" lon="-1.70697">
        <ele>53</ele>
        <time>2021-06-05T09:31:57.000Z</time>
      </trkpt>
      <trkpt lat="47.20952" lon="-1.70718">
        <ele>53</ele>
        <time>2021-06-05T09:31:59.000Z</time>
      </trkpt>
      <trkpt lat="47.20953" lon="-1.70739">
        <ele>53</ele>
        <time>2021-06-05T09:32:01.000Z</time>
      </trkpt>
      <trkpt lat="47.20955" lon="-1.70759">
        <ele>53</ele>
        <time>2021-06-05T09:32:03.000Z</time>
      </trkpt>
      <trkpt lat="47.20959" lon="-1.70779">
        <ele>53</ele>
        <time>2021-06-05T09:32:05.000Z</time>
      </trkpt>
      <trkpt lat="47.20964" lon="-1.70799">
        <ele>53</ele>
        <time>2021-06-05T09:32:07.000Z</time>
      </trkpt>
      <trkpt lat="47.20969" lon="-1.70819">
        <ele>53</ele>
        <time>2021-06-05T09:32:09.000Z</time>
      </trkpt>
      <trkpt lat="47.20975" lon="-1.70838">
        <ele>53</ele>
        <time>2021-06-05T09:32:11.000Z</time>
      </trkpt>
      <trkpt lat="47.20981" lon="-1.70857">
        <ele>53</ele>
        <time>2021-06-05T09:32:13.000Z</time>
      </trkpt>
      <trkpt lat="47.20987" lon="-1.70876">
        <ele>52</ele>
        <time>2021-06-05T09:32:15.000Z</time>
      </trkpt>
      <trkpt lat="47.20992" lon="-1.70895">
        <ele>51</ele>
        <time>2021-06-05T09:32:17.000Z</time>
      </trkpt>
      <trkpt lat="47.20998" lon="-1.70914">
        <ele>51</ele>
        <time>2021-06-05T09:32:19.000Z</time>
      </trkpt>
      <trkpt lat="47.21004" lon="-1.70933">
        <ele>51</ele>
        <time>2021-06-05T09:32:21.000Z</time>
      </trkpt>
      <trkpt lat="47.21009" lon="-1.70952">
        <ele>51</ele>
        <time>2021-06-05T09:32:23.000Z</time>
      </trkpt>
      <trkpt lat="47.21014" lon="-1.70972">
        <ele>51</ele>
        <time>2021-06-05T09:32:25.000Z</time>
      </trkpt>
      <trkpt lat="47.2102" lon="-1.7099">
        <ele>51</ele>
        <time>2021-06-05T09:32:27.000Z</time>
      </trkpt>
      <trkpt lat="47.21026" lon="-1.7101">
        <ele>51</ele>
        <time>2021-06-05T09:32:29.000Z</time>
      </trkpt>
      <trkpt lat="47.21032" lon="-1.71028">
        <ele>50</ele>
        <time>2021-06-05T09:32:31.000Z</time>
      </trkpt>
      <trkpt lat="47.21038" lon="-1.71047">
        <ele>50</ele>
        <time>2021-06-05T09:32:33.000Z</time>
      </trkpt>
      <trkpt lat="47.21045" lon="-1.71064">
        <ele>50</ele>
        <time>2021-06-05T09:32:35.000Z</time>
      </trkpt>
      <trkpt lat="47.21047" lon="-1.71082">
        <ele>50</ele>
        <time>2021-06-05T09:32:37.000Z</time>
      </trkpt>
      <trkpt lat="47.21046" lon="-1.711">
        <ele>50</ele>
        <time>2021-06-05T09:32:39.000Z</time>
      </trkpt>
      <trkpt lat="47.21036" lon="-1.71111">
        <ele>50</ele>
        <time>2021-06-05T09:32:41.000Z</time>
      </trkpt>
      <trkpt lat="47.21023" lon="-1.71107">
        <ele>50</ele>
        <time>2021-06-05T09:32:43.000Z</time>
      </trkpt>
      <trkpt lat="47.21017" lon="-1.71123">
        <ele>51</ele>
        <time>2021-06-05T09:32:46.000Z</time>
      </trkpt>
      <trkpt lat="47.21015" lon="-1.71141">
        <ele>53</ele>
        <time>2021-06-05T09:32:48.000Z</time>
      </trkpt>
      <trkpt lat="47.21011" lon="-1.71157">
        <ele>55</ele>
        <time>2021-06-05T09:32:50.000Z</time>
      </trkpt>
      <trkpt lat="47.21005" lon="-1.71174">
        <ele>57</ele>
        <time>2021-06-05T09:32:52.000Z</time>
      </trkpt>
      <trkpt lat="47.20997" lon="-1.71192">
        <ele>58</ele>
        <time>2021-06-05T09:32:54.000Z</time>
      </trkpt>
      <trkpt lat="47.20989" lon="-1.71209">
        <ele>58</ele>
        <time>2021-06-05T09:32:56.000Z</time>
      </trkpt>
      <trkpt lat="47.20979" lon="-1.71225">
        <ele>58</ele>
        <time>2021-06-05T09:32:58.000Z</time>
      </trkpt>
      <trkpt lat="47.20966" lon="-1.71237">
        <ele>59</ele>
        <time>2021-06-05T09:33:00.000Z</time>
      </trkpt>
      <trkpt lat="47.20954" lon="-1.71247">
        <ele>59</ele>
        <time>2021-06-05T09:33:02.000Z</time>
      </trkpt>
      <trkpt lat="47.20941" lon="-1.71256">
        <ele>58</ele>
        <time>2021-06-05T09:33:04.000Z</time>
      </trkpt>
      <trkpt lat="47.20927" lon="-1.71265">
        <ele>58</ele>
        <time>2021-06-05T09:33:06.000Z</time>
      </trkpt>
      <trkpt lat="47.20915" lon="-1.71272">
        <ele>59</ele>
        <time>2021-06-05T09:33:08.000Z</time>
      </trkpt>
      <trkpt lat="47.20902" lon="-1.71278">
        <ele>59</ele>
        <time>2021-06-05T09:33:10.000Z</time>
      </trkpt>
      <trkpt lat="47.20889" lon="-1.71284">
        <ele>59</ele>
        <time>2021-06-05T09:33:12.000Z</time>
      </trkpt>
      <trkpt lat="47.20878" lon="-1.71294">
        <ele>57</ele>
        <time>2021-06-05T09:33:14.000Z</time>
      </trkpt>
      <trkpt lat="47.20869" lon="-1.71304">
        <ele>57</ele>
        <time>2021-06-05T09:33:16.000Z</time>
      </trkpt>
      <trkpt lat="47.20859" lon="-1.71317">
        <ele>58</ele>
        <time>2021-06-05T09:33:18.000Z</time>
      </trkpt>
      <trkpt lat="47.20851" lon="-1.71334">
        <ele>58</ele>
        <time>2021-06-05T09:33:20.000Z</time>
      </trkpt>
      <trkpt lat="47.20842" lon="-1.71352">
        <ele>58</ele>
        <time>2021-06-05T09:33:22.000Z</time>
      </trkpt>
      <trkpt lat="47.20836" lon="-1.7137">
        <ele>58</ele>
        <time>2021-06-05T09:33:24.000Z</time>
      </trkpt>
      <trkpt lat="47.20834" lon="-1.71391">
        <ele>58</ele>
        <time>2021-06-05T09:33:26.000Z</time>
      </trkpt>
      <trkpt lat="47.20837" lon="-1.7141">
        <ele>56</ele>
        <time>2021-06-05T09:33:28.000Z</time>
      </trkpt>
      <trkpt lat="47.20839" lon="-1.71429">
        <ele>56</ele>
        <time>2021-06-05T09:33:30.000Z</time>
      </trkpt>
      <trkpt lat="47.2084" lon="-1.71448">
        <ele>56</ele>
        <time>2021-06-05T09:33:32.000Z</time>
      </trkpt>
      <trkpt lat="47.20841" lon="-1.71467">
        <ele>56</ele>
        <time>2021-06-05T09:33:34.000Z</time>
      </trkpt>
      <trkpt lat="47.20842" lon="-1.71487">
        <ele>56</ele>
        <time>2021-06-05T09:33:36.000Z</time>
      </trkpt>
      <trkpt lat="47.20842" lon="-1.71506">
        <ele>56</ele>
        <time>2021-06-05T09:33:38.000Z</time>
      </trkpt>
      <trkpt lat="47.20842" lon="-1.71527">
        <ele>56</ele>
        <time>2021-06-05T09:33:40.000Z</time>
      </trkpt>
      <trkpt lat="47.20841" lon="-1.71549">
        <ele>57</ele>
        <time>2021-06-05T09:33:42.000Z</time>
      </trkpt>
      <trkpt lat="47.2084" lon="-1.7157">
        <ele>57</ele>
        <time>2021-06-05T09:33:44.000Z</time>
      </trkpt>
      <trkpt lat="47.2084" lon="-1.71592">
        <ele>57</ele>
        <time>2021-06-05T09:33:46.000Z</time>
      </trkpt>
      <trkpt lat="47.20841" lon="-1.71613">
        <ele>57</ele>
        <time>2021-06-05T09:33:48.000Z</time>
      </trkpt>
      <trkpt lat="47.20842" lon="-1.71635">
        <ele>56</ele>
        <time>2021-06-05T09:33:50.000Z</time>
      </trkpt>
      <trkpt lat="47.20842" lon="-1.71656">
        <ele>55</ele>
        <time>2021-06-05T09:33:52.000Z</time>
      </trkpt>
      <trkpt lat="47.20843" lon="-1.71678">
        <ele>55</ele>
        <time>2021-06-05T09:33:54.000Z</time>
      </trkpt>
      <trkpt lat="47.20843" lon="-1.71698">
        <ele>55</ele>
        <time>2021-06-05T09:33:56.000Z</time>
      </trkpt>
      <trkpt lat="47.20844" lon="-1.71719">
        <ele>55</ele>
        <time>2021-06-05T09:33:58.000Z</time>
      </trkpt>
      <trkpt lat="47.20844" lon="-1.71739">
        <ele>55</ele>
        <time>2021-06-05T09:34:00.000Z</time>
      </trkpt>
      <trkpt lat="47.20845" lon="-1.71759">
        <ele>55</ele>
        <time>2021-06-05T09:34:02.000Z</time>
      </trkpt>
      <trkpt lat="47.20846" lon="-1.71781">
        <ele>55</ele>
        <time>2021-06-05T09:34:04.000Z</time>
      </trkpt>
      <trkpt lat="47.20848" lon="-1.71802">
        <ele>55</ele>
        <time>2021-06-05T09:34:06.000Z</time>
      </trkpt>
      <trkpt lat="47.20848" lon="-1.71823">
        <ele>55</ele>
        <time>2021-06-05T09:34:08.000Z</time>
      </trkpt>
      <trkpt lat="47.2085" lon="-1.71844">
        <ele>55</ele>
        <time>2021-06-05T09:34:10.000Z</time>
      </trkpt>
      <trkpt lat="47.20852" lon="-1.71865">
        <ele>56</ele>
        <time>2021-06-05T09:34:12.000Z</time>
      </trkpt>
      <trkpt lat="47.20853" lon="-1.71885">
        <ele>56</ele>
        <time>2021-06-05T09:34:14.000Z</time>
      </trkpt>
      <trkpt lat="47.20853" lon="-1.71906">
        <ele>57</ele>
        <time>2021-06-05T09:34:16.000Z</time>
      </trkpt>
      <trkpt lat="47.20854" lon="-1.71926">
        <ele>57</ele>
        <time>2021-06-05T09:34:18.000Z</time>
      </trkpt>
      <trkpt lat="47.20855" lon="-1.71947">
        <ele>58</ele>
        <time>2021-06-05T09:34:20.000Z</time>
      </trkpt>
      <trkpt lat="47.20855" lon="-1.71969">
        <ele>58</ele>
        <time>2021-06-05T09:34:22.000Z</time>
      </trkpt>
      <trkpt lat="47.20856" lon="-1.71991">
        <ele>58</ele>
        <time>2021-06-05T09:34:24.000Z</time>
      </trkpt>
      <trkpt lat="47.20857" lon="-1.72013">
        <ele>58</ele>
        <time>2021-06-05T09:34:26.000Z</time>
      </trkpt>
      <trkpt lat="47.20858" lon="-1.72036">
        <ele>58</ele>
        <time>2021-06-05T09:34:28.000Z</time>
      </trkpt>
      <trkpt lat="47.20859" lon="-1.72058">
        <ele>58</ele>
        <time>2021-06-05T09:34:30.000Z</time>
      </trkpt>
      <trkpt lat="47.20859" lon="-1.72079">
        <ele>58</ele>
        <time>2021-06-05T09:34:32.000Z</time>
      </trkpt>
      <trkpt lat="47.2086" lon="-1.72099">
        <ele>58</ele>
        <time>2021-06-05T09:34:34.000Z</time>
      </trkpt>
      <trkpt lat="47.2086" lon="-1.72119">
        <ele>58</ele>
        <time>2021-06-05T09:34:36.000Z</time>
      </trkpt>
      <trkpt lat="47.2086" lon="-1.7214">
        <ele>59</ele>
        <time>2021-06-05T09:34:38.000Z</time>
      </trkpt>
      <trkpt lat="47.20861" lon="-1.7216">
        <ele>59</ele>
        <time>2021-06-05T09:34:40.000Z</time>
      </trkpt>
      <trkpt lat="47.20863" lon="-1.7218">
        <ele>59</ele>
        <time>2021-06-05T09:34:42.000Z</time>
      </trkpt>
      <trkpt lat="47.20864" lon="-1.72203">
        <ele>60</ele>
        <time>2021-06-05T09:34:44.000Z</time>
      </trkpt>
      <trkpt lat="47.20866" lon="-1.72225">
        <ele>60</ele>
        <time>2021-06-05T09:34:46.000Z</time>
      </trkpt>
      <trkpt lat="47.20867" lon="-1.72247">
        <ele>60</ele>
        <time>2021-06-05T09:34:48.000Z</time>
      </trkpt>
      <trkpt lat="47.20869" lon="-1.72269">
        <ele>59</ele>
        <time>2021-06-05T09:34:50.000Z</time>
      </trkpt>
      <trkpt lat="47.20871" lon="-1.72291">
        <ele>58</ele>
        <time>2021-06-05T09:34:52.000Z</time>
      </trkpt>
      <trkpt lat="47.20873" lon="-1.72316">
        <ele>58</ele>
        <time>2021-06-05T09:34:54.000Z</time>
      </trkpt>
      <trkpt lat="47.20876" lon="-1.7234">
        <ele>57</ele>
        <time>2021-06-05T09:34:56.000Z</time>
      </trkpt>
      <trkpt lat="47.20877" lon="-1.72362">
        <ele>56</ele>
        <time>2021-06-05T09:34:58.000Z</time>
      </trkpt>
      <trkpt lat="47.20879" lon="-1.72386">
        <ele>56</ele>
        <time>2021-06-05T09:35:00.000Z</time>
      </trkpt>
      <trkpt lat="47.20881" lon="-1.7241">
        <ele>56</ele>
        <time>2021-06-05T09:35:02.000Z</time>
      </trkpt>
      <trkpt lat="47.20884" lon="-1.72433">
        <ele>56</ele>
        <time>2021-06-05T09:35:04.000Z</time>
      </trkpt>
      <trkpt lat="47.20886" lon="-1.72456">
        <ele>56</ele>
        <time>2021-06-05T09:35:06.000Z</time>
      </trkpt>
      <trkpt lat="47.20888" lon="-1.72477">
        <ele>56</ele>
        <time>2021-06-05T09:35:08.000Z</time>
      </trkpt>
      <trkpt lat="47.20892" lon="-1.72501">
        <ele>55</ele>
        <time>2021-06-05T09:35:10.000Z</time>
      </trkpt>
      <trkpt lat="47.20899" lon="-1.72522">
        <ele>54</ele>
        <time>2021-06-05T09:35:12.000Z</time>
      </trkpt>
      <trkpt lat="47.20903" lon="-1.72543">
        <ele>53</ele>
        <time>2021-06-05T09:35:14.000Z</time>
      </trkpt>
      <trkpt lat="47.20903" lon="-1.72569">
        <ele>53</ele>
        <time>2021-06-05T09:35:16.000Z</time>
      </trkpt>
      <trkpt lat="47.20907" lon="-1.72592">
        <ele>53</ele>
        <time>2021-06-05T09:35:18.000Z</time>
      </trkpt>
      <trkpt lat="47.20908" lon="-1.72617">
        <ele>53</ele>
        <time>2021-06-05T09:35:20.000Z</time>
      </trkpt>
      <trkpt lat="47.2091" lon="-1.72642">
        <ele>52</ele>
        <time>2021-06-05T09:35:22.000Z</time>
      </trkpt>
      <trkpt lat="47.20911" lon="-1.72665">
        <ele>52</ele>
        <time>2021-06-05T09:35:24.000Z</time>
      </trkpt>
      <trkpt lat="47.20913" lon="-1.7269">
        <ele>52</ele>
        <time>2021-06-05T09:35:26.000Z</time>
      </trkpt>
      <trkpt lat="47.20915" lon="-1.72713">
        <ele>52</ele>
        <time>2021-06-05T09:35:28.000Z</time>
      </trkpt>
      <trkpt lat="47.20915" lon="-1.72736">
        <ele>52</ele>
        <time>2021-06-05T09:35:30.000Z</time>
      </trkpt>
      <trkpt lat="47.20917" lon="-1.72758">
        <ele>52</ele>
        <time>2021-06-05T09:35:32.000Z</time>
      </trkpt>
      <trkpt lat="47.2092" lon="-1.72776">
        <ele>52</ele>
        <time>2021-06-05T09:35:34.000Z</time>
      </trkpt>
      <trkpt lat="47.20923" lon="-1.72795">
        <ele>52</ele>
        <time>2021-06-05T09:35:36.000Z</time>
      </trkpt>
      <trkpt lat="47.20925" lon="-1.72817">
        <ele>52</ele>
        <time>2021-06-05T09:35:38.000Z</time>
      </trkpt>
      <trkpt lat="47.2093" lon="-1.72839">
        <ele>51</ele>
        <time>2021-06-05T09:35:40.000Z</time>
      </trkpt>
      <trkpt lat="47.20937" lon="-1.72861">
        <ele>51</ele>
        <time>2021-06-05T09:35:42.000Z</time>
      </trkpt>
      <trkpt lat="47.20945" lon="-1.72882">
        <ele>51</ele>
        <time>2021-06-05T09:35:44.000Z</time>
      </trkpt>
      <trkpt lat="47.20951" lon="-1.72905">
        <ele>51</ele>
        <time>2021-06-05T09:35:46.000Z</time>
      </trkpt>
      <trkpt lat="47.20957" lon="-1.72927">
        <ele>51</ele>
        <time>2021-06-05T09:35:48.000Z</time>
      </trkpt>
      <trkpt lat="47.20963" lon="-1.72949">
        <ele>51</ele>
        <time>2021-06-05T09:35:50.000Z</time>
      </trkpt>
      <trkpt lat="47.20969" lon="-1.72971">
        <ele>51</ele>
        <time>2021-06-05T09:35:52.000Z</time>
      </trkpt>
      <trkpt lat="47.20975" lon="-1.72992">
        <ele>51</ele>
        <time>2021-06-05T09:35:54.000Z</time>
      </trkpt>
      <trkpt lat="47.20982" lon="-1.73012">
        <ele>52</ele>
        <time>2021-06-05T09:35:56.000Z</time>
      </trkpt>
      <trkpt lat="47.20989" lon="-1.73033">
        <ele>52</ele>
        <time>2021-06-05T09:35:58.000Z</time>
      </trkpt>
      <trkpt lat="47.20998" lon="-1.73054">
        <ele>52</ele>
        <time>2021-06-05T09:36:00.000Z</time>
      </trkpt>
      <trkpt lat="47.21007" lon="-1.73073">
        <ele>52</ele>
        <time>2021-06-05T09:36:02.000Z</time>
      </trkpt>
      <trkpt lat="47.21016" lon="-1.73093">
        <ele>52</ele>
        <time>2021-06-05T09:36:04.000Z</time>
      </trkpt>
      <trkpt lat="47.21024" lon="-1.73113">
        <ele>51</ele>
        <time>2021-06-05T09:36:06.000Z</time>
      </trkpt>
      <trkpt lat="47.21034" lon="-1.7313">
        <ele>51</ele>
        <time>2021-06-05T09:36:08.000Z</time>
      </trkpt>
      <trkpt lat="47.2105" lon="-1.73138">
        <ele>50</ele>
        <time>2021-06-05T09:36:10.000Z</time>
      </trkpt>
      <trkpt lat="47.21066" lon="-1.73144">
        <ele>50</ele>
        <time>2021-06-05T09:36:12.000Z</time>
      </trkpt>
      <trkpt lat="47.21081" lon="-1.73151">
        <ele>49</ele>
        <time>2021-06-05T09:36:14.000Z</time>
      </trkpt>
      <trkpt lat="47.21097" lon="-1.73157">
        <ele>49</ele>
        <time>2021-06-05T09:36:16.000Z</time>
      </trkpt>
      <trkpt lat="47.21113" lon="-1.73163">
        <ele>49</ele>
        <time>2021-06-05T09:36:18.000Z</time>
      </trkpt>
      <trkpt lat="47.21126" lon="-1.73175">
        <ele>49</ele>
        <time>2021-06-05T09:36:20.000Z</time>
      </trkpt>
      <trkpt lat="47.21129" lon="-1.73199">
        <ele>49</ele>
        <time>2021-06-05T09:36:22.000Z</time>
      </trkpt>
      <trkpt lat="47.2113" lon="-1.73224">
        <ele>50</ele>
        <time>2021-06-05T09:36:24.000Z</time>
      </trkpt>
      <trkpt lat="47.21129" lon="-1.73237">
        <ele>50</ele>
        <time>2021-06-05T09:36:25.000Z</time>
      </trkpt>
      <trkpt lat="47.21127" lon="-1.73251">
        <ele>50</ele>
        <time>2021-06-05T09:36:26.000Z</time>
      </trkpt>
      <trkpt lat="47.21126" lon="-1.73265">
        <ele>50</ele>
        <time>2021-06-05T09:36:27.000Z</time>
      </trkpt>
      <trkpt lat="47.21124" lon="-1.73279">
        <ele>50</ele>
        <time>2021-06-05T09:36:28.000Z</time>
      </trkpt>
      <trkpt lat="47.21123" lon="-1.73294">
        <ele>50</ele>
        <time>2021-06-05T09:36:29.000Z</time>
      </trkpt>
      <trkpt lat="47.21122" lon="-1.7331">
        <ele>50</ele>
        <time>2021-06-05T09:36:30.000Z</time>
      </trkpt>
      <trkpt lat="47.21121" lon="-1.73325">
        <ele>51</ele>
        <time>2021-06-05T09:36:31.000Z</time>
      </trkpt>
      <trkpt lat="47.21121" lon="-1.7334">
        <ele>51</ele>
        <time>2021-06-05T09:36:32.000Z</time>
      </trkpt>
      <trkpt lat="47.2112" lon="-1.73354">
        <ele>51</ele>
        <time>2021-06-05T09:36:33.000Z</time>
      </trkpt>
      <trkpt lat="47.21119" lon="-1.73368">
        <ele>51</ele>
        <time>2021-06-05T09:36:34.000Z</time>
      </trkpt>
      <trkpt lat="47.21118" lon="-1.73393">
        <ele>51</ele>
        <time>2021-06-05T09:36:36.000Z</time>
      </trkpt>
      <trkpt lat="47.21117" lon="-1.73415">
        <ele>52</ele>
        <time>2021-06-05T09:36:38.000Z</time>
      </trkpt>
      <trkpt lat="47.21116" lon="-1.73437">
        <ele>51</ele>
        <time>2021-06-05T09:36:40.000Z</time>
      </trkpt>
      <trkpt lat="47.21116" lon="-1.73462">
        <ele>51</ele>
        <time>2021-06-05T09:36:42.000Z</time>
      </trkpt>
      <trkpt lat="47.21116" lon="-1.73487">
        <ele>51</ele>
        <time>2021-06-05T09:36:44.000Z</time>
      </trkpt>
      <trkpt lat="47.21115" lon="-1.73512">
        <ele>51</ele>
        <time>2021-06-05T09:36:46.000Z</time>
      </trkpt>
      <trkpt lat="47.21115" lon="-1.73537">
        <ele>51</ele>
        <time>2021-06-05T09:36:48.000Z</time>
      </trkpt>
      <trkpt lat="47.21114" lon="-1.73562">
        <ele>51</ele>
        <time>2021-06-05T09:36:50.000Z</time>
      </trkpt>
      <trkpt lat="47.21113" lon="-1.73588">
        <ele>51</ele>
        <time>2021-06-05T09:36:52.000Z</time>
      </trkpt>
      <trkpt lat="47.21113" lon="-1.73614">
        <ele>52</ele>
        <time>2021-06-05T09:36:54.000Z</time>
      </trkpt>
      <trkpt lat="47.21112" lon="-1.73628">
        <ele>52</ele>
        <time>2021-06-05T09:36:55.000Z</time>
      </trkpt>
      <trkpt lat="47.21112" lon="-1.73654">
        <ele>52</ele>
        <time>2021-06-05T09:36:57.000Z</time>
      </trkpt>
      <trkpt lat="47.21112" lon="-1.73681">
        <ele>52</ele>
        <time>2021-06-05T09:36:59.000Z</time>
      </trkpt>
      <trkpt lat="47.21113" lon="-1.73694">
        <ele>52</ele>
        <time>2021-06-05T09:37:00.000Z</time>
      </trkpt>
      <trkpt lat="47.21115" lon="-1.7372">
        <ele>52</ele>
        <time>2021-06-05T09:37:02.000Z</time>
      </trkpt>
      <trkpt lat="47.21117" lon="-1.73733">
        <ele>52</ele>
        <time>2021-06-05T09:37:03.000Z</time>
      </trkpt>
      <trkpt lat="47.21118" lon="-1.73747">
        <ele>51</ele>
        <time>2021-06-05T09:37:04.000Z</time>
      </trkpt>
      <trkpt lat="47.2112" lon="-1.73761">
        <ele>51</ele>
        <time>2021-06-05T09:37:05.000Z</time>
      </trkpt>
      <trkpt lat="47.21122" lon="-1.73775">
        <ele>50</ele>
        <time>2021-06-05T09:37:06.000Z</time>
      </trkpt>
      <trkpt lat="47.21126" lon="-1.73789">
        <ele>50</ele>
        <time>2021-06-05T09:37:07.000Z</time>
      </trkpt>
      <trkpt lat="47.21129" lon="-1.73804">
        <ele>50</ele>
        <time>2021-06-05T09:37:08.000Z</time>
      </trkpt>
      <trkpt lat="47.21132" lon="-1.73818">
        <ele>50</ele>
        <time>2021-06-05T09:37:09.000Z</time>
      </trkpt>
      <trkpt lat="47.21135" lon="-1.73831">
        <ele>50</ele>
        <time>2021-06-05T09:37:10.000Z</time>
      </trkpt>
      <trkpt lat="47.21138" lon="-1.73845">
        <ele>50</ele>
        <time>2021-06-05T09:37:11.000Z</time>
      </trkpt>
      <trkpt lat="47.21141" lon="-1.73859">
        <ele>50</ele>
        <time>2021-06-05T09:37:12.000Z</time>
      </trkpt>
      <trkpt lat="47.21144" lon="-1.73873">
        <ele>50</ele>
        <time>2021-06-05T09:37:13.000Z</time>
      </trkpt>
      <trkpt lat="47.21146" lon="-1.73886">
        <ele>50</ele>
        <time>2021-06-05T09:37:14.000Z</time>
      </trkpt>
      <trkpt lat="47.21149" lon="-1.73899">
        <ele>50</ele>
        <time>2021-06-05T09:37:15.000Z</time>
      </trkpt>
      <trkpt lat="47.21152" lon="-1.73913">
        <ele>50</ele>
        <time>2021-06-05T09:37:16.000Z</time>
      </trkpt>
      <trkpt lat="47.21157" lon="-1.73938">
        <ele>50</ele>
        <time>2021-06-05T09:37:18.000Z</time>
      </trkpt>
      <trkpt lat="47.21159" lon="-1.73951">
        <ele>51</ele>
        <time>2021-06-05T09:37:19.000Z</time>
      </trkpt>
      <trkpt lat="47.21163" lon="-1.73976">
        <ele>50</ele>
        <time>2021-06-05T09:37:21.000Z</time>
      </trkpt>
      <trkpt lat="47.21166" lon="-1.74">
        <ele>50</ele>
        <time>2021-06-05T09:37:23.000Z</time>
      </trkpt>
      <trkpt lat="47.21171" lon="-1.74022">
        <ele>50</ele>
        <time>2021-06-05T09:37:25.000Z</time>
      </trkpt>
      <trkpt lat="47.21177" lon="-1.74042">
        <ele>50</ele>
        <time>2021-06-05T09:37:27.000Z</time>
      </trkpt>
      <trkpt lat="47.21171" lon="-1.74065">
        <ele>50</ele>
        <time>2021-06-05T09:37:29.000Z</time>
      </trkpt>
      <trkpt lat="47.21159" lon="-1.74083">
        <ele>50</ele>
        <time>2021-06-05T09:37:31.000Z</time>
      </trkpt>
      <trkpt lat="47.21147" lon="-1.741">
        <ele>50</ele>
        <time>2021-06-05T09:37:33.000Z</time>
      </trkpt>
      <trkpt lat="47.21134" lon="-1.74117">
        <ele>50</ele>
        <time>2021-06-05T09:37:35.000Z</time>
      </trkpt>
      <trkpt lat="47.21122" lon="-1.74134">
        <ele>50</ele>
        <time>2021-06-05T09:37:37.000Z</time>
      </trkpt>
      <trkpt lat="47.2111" lon="-1.74153">
        <ele>51</ele>
        <time>2021-06-05T09:37:39.000Z</time>
      </trkpt>
      <trkpt lat="47.21098" lon="-1.7417">
        <ele>51</ele>
        <time>2021-06-05T09:37:41.000Z</time>
      </trkpt>
      <trkpt lat="47.21086" lon="-1.74187">
        <ele>51</ele>
        <time>2021-06-05T09:37:43.000Z</time>
      </trkpt>
      <trkpt lat="47.21075" lon="-1.74204">
        <ele>51</ele>
        <time>2021-06-05T09:37:45.000Z</time>
      </trkpt>
      <trkpt lat="47.21063" lon="-1.74222">
        <ele>51</ele>
        <time>2021-06-05T09:37:47.000Z</time>
      </trkpt>
      <trkpt lat="47.21053" lon="-1.7424">
        <ele>51</ele>
        <time>2021-06-05T09:37:49.000Z</time>
      </trkpt>
      <trkpt lat="47.21044" lon="-1.7426">
        <ele>51</ele>
        <time>2021-06-05T09:37:51.000Z</time>
      </trkpt>
      <trkpt lat="47.21036" lon="-1.7428">
        <ele>51</ele>
        <time>2021-06-05T09:37:53.000Z</time>
      </trkpt>
      <trkpt lat="47.21028" lon="-1.743">
        <ele>51</ele>
        <time>2021-06-05T09:37:55.000Z</time>
      </trkpt>
      <trkpt lat="47.2102" lon="-1.7432">
        <ele>52</ele>
        <time>2021-06-05T09:37:57.000Z</time>
      </trkpt>
      <trkpt lat="47.21013" lon="-1.7434">
        <ele>52</ele>
        <time>2021-06-05T09:37:59.000Z</time>
      </trkpt>
      <trkpt lat="47.21006" lon="-1.74361">
        <ele>51</ele>
        <time>2021-06-05T09:38:01.000Z</time>
      </trkpt>
      <trkpt lat="47.21002" lon="-1.74383">
        <ele>51</ele>
        <time>2021-06-05T09:38:03.000Z</time>
      </trkpt>
      <trkpt lat="47.20999" lon="-1.74405">
        <ele>51</ele>
        <time>2021-06-05T09:38:05.000Z</time>
      </trkpt>
      <trkpt lat="47.20998" lon="-1.74428">
        <ele>51</ele>
        <time>2021-06-05T09:38:07.000Z</time>
      </trkpt>
      <trkpt lat="47.20996" lon="-1.74451">
        <ele>51</ele>
        <time>2021-06-05T09:38:09.000Z</time>
      </trkpt>
      <trkpt lat="47.20994" lon="-1.74474">
        <ele>51</ele>
        <time>2021-06-05T09:38:11.000Z</time>
      </trkpt>
      <trkpt lat="47.20993" lon="-1.74497">
        <ele>51</ele>
        <time>2021-06-05T09:38:13.000Z</time>
      </trkpt>
      <trkpt lat="47.2099" lon="-1.74518">
        <ele>51</ele>
        <time>2021-06-05T09:38:15.000Z</time>
      </trkpt>
      <trkpt lat="47.20988" lon="-1.74538">
        <ele>51</ele>
        <time>2021-06-05T09:38:17.000Z</time>
      </trkpt>
      <trkpt lat="47.20984" lon="-1.74558">
        <ele>51</ele>
        <time>2021-06-05T09:38:19.000Z</time>
      </trkpt>
      <trkpt lat="47.20986" lon="-1.74572">
        <ele>52</ele>
        <time>2021-06-05T09:38:21.000Z</time>
      </trkpt>
      <trkpt lat="47.20998" lon="-1.74564">
        <ele>52</ele>
        <time>2021-06-05T09:38:24.000Z</time>
      </trkpt>
      <trkpt lat="47.21006" lon="-1.74551">
        <ele>53</ele>
        <time>2021-06-05T09:38:26.000Z</time>
      </trkpt>
      <trkpt lat="47.21016" lon="-1.74541">
        <ele>53</ele>
        <time>2021-06-05T09:38:28.000Z</time>
      </trkpt>
      <trkpt lat="47.2103" lon="-1.74538">
        <ele>54</ele>
        <time>2021-06-05T09:38:30.000Z</time>
      </trkpt>
      <trkpt lat="47.21043" lon="-1.74533">
        <ele>54</ele>
        <time>2021-06-05T09:38:32.000Z</time>
      </trkpt>
      <trkpt lat="47.21056" lon="-1.74526">
        <ele>54</ele>
        <time>2021-06-05T09:38:34.000Z</time>
      </trkpt>
      <trkpt lat="47.21069" lon="-1.7452">
        <ele>55</ele>
        <time>2021-06-05T09:38:36.000Z</time>
      </trkpt>
      <trkpt lat="47.21083" lon="-1.74516">
        <ele>55</ele>
        <time>2021-06-05T09:38:38.000Z</time>
      </trkpt>
      <trkpt lat="47.21097" lon="-1.74513">
        <ele>55</ele>
        <time>2021-06-05T09:38:40.000Z</time>
      </trkpt>
      <trkpt lat="47.21111" lon="-1.74513">
        <ele>55</ele>
        <time>2021-06-05T09:38:42.000Z</time>
      </trkpt>
      <trkpt lat="47.21126" lon="-1.74512">
        <ele>55</ele>
        <time>2021-06-05T09:38:44.000Z</time>
      </trkpt>
      <trkpt lat="47.21141" lon="-1.7451">
        <ele>54</ele>
        <time>2021-06-05T09:38:46.000Z</time>
      </trkpt>
      <trkpt lat="47.21157" lon="-1.74506">
        <ele>54</ele>
        <time>2021-06-05T09:38:48.000Z</time>
      </trkpt>
      <trkpt lat="47.21172" lon="-1.74501">
        <ele>54</ele>
        <time>2021-06-05T09:38:50.000Z</time>
      </trkpt>
      <trkpt lat="47.21187" lon="-1.74497">
        <ele>55</ele>
        <time>2021-06-05T09:38:52.000Z</time>
      </trkpt>
      <trkpt lat="47.21203" lon="-1.74493">
        <ele>55</ele>
        <time>2021-06-05T09:38:54.000Z</time>
      </trkpt>
      <trkpt lat="47.21218" lon="-1.7449">
        <ele>54</ele>
        <time>2021-06-05T09:38:56.000Z</time>
      </trkpt>
      <trkpt lat="47.21233" lon="-1.74486">
        <ele>55</ele>
        <time>2021-06-05T09:38:58.000Z</time>
      </trkpt>
      <trkpt lat="47.21247" lon="-1.74482">
        <ele>55</ele>
        <time>2021-06-05T09:39:00.000Z</time>
      </trkpt>
      <trkpt lat="47.21261" lon="-1.74474">
        <ele>56</ele>
        <time>2021-06-05T09:39:02.000Z</time>
      </trkpt>
      <trkpt lat="47.21272" lon="-1.74464">
        <ele>57</ele>
        <time>2021-06-05T09:39:04.000Z</time>
      </trkpt>
      <trkpt lat="47.21282" lon="-1.74455">
        <ele>57</ele>
        <time>2021-06-05T09:39:06.000Z</time>
      </trkpt>
      <trkpt lat="47.21294" lon="-1.74459">
        <ele>57</ele>
        <time>2021-06-05T09:39:09.000Z</time>
      </trkpt>
      <trkpt lat="47.21299" lon="-1.74474">
        <ele>58</ele>
        <time>2021-06-05T09:39:11.000Z</time>
      </trkpt>
      <trkpt lat="47.21304" lon="-1.74492">
        <ele>58</ele>
        <time>2021-06-05T09:39:13.000Z</time>
      </trkpt>
      <trkpt lat="47.21313" lon="-1.74507">
        <ele>57</ele>
        <time>2021-06-05T09:39:15.000Z</time>
      </trkpt>
      <trkpt lat="47.21324" lon="-1.74521">
        <ele>58</ele>
        <time>2021-06-05T09:39:17.000Z</time>
      </trkpt>
      <trkpt lat="47.21334" lon="-1.74536">
        <ele>58</ele>
        <time>2021-06-05T09:39:19.000Z</time>
      </trkpt>
      <trkpt lat="47.21344" lon="-1.74551">
        <ele>58</ele>
        <time>2021-06-05T09:39:21.000Z</time>
      </trkpt>
      <trkpt lat="47.21355" lon="-1.74566">
        <ele>58</ele>
        <time>2021-06-05T09:39:23.000Z</time>
      </trkpt>
      <trkpt lat="47.21365" lon="-1.7458">
        <ele>57</ele>
        <time>2021-06-05T09:39:25.000Z</time>
      </trkpt>
      <trkpt lat="47.21375" lon="-1.74594">
        <ele>58</ele>
        <time>2021-06-05T09:39:27.000Z</time>
      </trkpt>
      <trkpt lat="47.21385" lon="-1.74609">
        <ele>58</ele>
        <time>2021-06-05T09:39:29.000Z</time>
      </trkpt>
      <trkpt lat="47.21396" lon="-1.74624">
        <ele>58</ele>
        <time>2021-06-05T09:39:31.000Z</time>
      </trkpt>
      <trkpt lat="47.21406" lon="-1.74638">
        <ele>58</ele>
        <time>2021-06-05T09:39:33.000Z</time>
      </trkpt>
      <trkpt lat="47.21416" lon="-1.74652">
        <ele>57</ele>
        <time>2021-06-05T09:39:35.000Z</time>
      </trkpt>
      <trkpt lat="47.21426" lon="-1.74666">
        <ele>58</ele>
        <time>2021-06-05T09:39:37.000Z</time>
      </trkpt>
      <trkpt lat="47.21436" lon="-1.74681">
        <ele>57</ele>
        <time>2021-06-05T09:39:39.000Z</time>
      </trkpt>
      <trkpt lat="47.21446" lon="-1.74695">
        <ele>57</ele>
        <time>2021-06-05T09:39:41.000Z</time>
      </trkpt>
      <trkpt lat="47.21456" lon="-1.74709">
        <ele>58</ele>
        <time>2021-06-05T09:39:43.000Z</time>
      </trkpt>
      <trkpt lat="47.21466" lon="-1.74723">
        <ele>58</ele>
        <time>2021-06-05T09:39:45.000Z</time>
      </trkpt>
      <trkpt lat="47.21476" lon="-1.74736">
        <ele>58</ele>
        <time>2021-06-05T09:39:47.000Z</time>
      </trkpt>
      <trkpt lat="47.21486" lon="-1.7475">
        <ele>58</ele>
        <time>2021-06-05T09:39:49.000Z</time>
      </trkpt>
      <trkpt lat="47.21496" lon="-1.74765">
        <ele>58</ele>
        <time>2021-06-05T09:39:51.000Z</time>
      </trkpt>
      <trkpt lat="47.21506" lon="-1.7478">
        <ele>58</ele>
        <time>2021-06-05T09:39:53.000Z</time>
      </trkpt>
      <trkpt lat="47.21516" lon="-1.74794">
        <ele>57</ele>
        <time>2021-06-05T09:39:55.000Z</time>
      </trkpt>
      <trkpt lat="47.21527" lon="-1.74809">
        <ele>57</ele>
        <time>2021-06-05T09:39:57.000Z</time>
      </trkpt>
      <trkpt lat="47.21537" lon="-1.74824">
        <ele>56</ele>
        <time>2021-06-05T09:39:59.000Z</time>
      </trkpt>
      <trkpt lat="47.21547" lon="-1.74841">
        <ele>56</ele>
        <time>2021-06-05T09:40:01.000Z</time>
      </trkpt>
      <trkpt lat="47.21558" lon="-1.74857">
        <ele>55</ele>
        <time>2021-06-05T09:40:03.000Z</time>
      </trkpt>
      <trkpt lat="47.21569" lon="-1.74874">
        <ele>53</ele>
        <time>2021-06-05T09:40:05.000Z</time>
      </trkpt>
      <trkpt lat="47.2158" lon="-1.74892">
        <ele>52</ele>
        <time>2021-06-05T09:40:07.000Z</time>
      </trkpt>
      <trkpt lat="47.2159" lon="-1.7491">
        <ele>52</ele>
        <time>2021-06-05T09:40:09.000Z</time>
      </trkpt>
      <trkpt lat="47.21599" lon="-1.74928">
        <ele>52</ele>
        <time>2021-06-05T09:40:11.000Z</time>
      </trkpt>
      <trkpt lat="47.21608" lon="-1.74947">
        <ele>51</ele>
        <time>2021-06-05T09:40:13.000Z</time>
      </trkpt>
      <trkpt lat="47.21618" lon="-1.74966">
        <ele>52</ele>
        <time>2021-06-05T09:40:15.000Z</time>
      </trkpt>
      <trkpt lat="47.21628" lon="-1.74985">
        <ele>51</ele>
        <time>2021-06-05T09:40:17.000Z</time>
      </trkpt>
      <trkpt lat="47.21638" lon="-1.75004">
        <ele>51</ele>
        <time>2021-06-05T09:40:19.000Z</time>
      </trkpt>
      <trkpt lat="47.21649" lon="-1.75022">
        <ele>50</ele>
        <time>2021-06-05T09:40:21.000Z</time>
      </trkpt>
      <trkpt lat="47.2166" lon="-1.7504">
        <ele>49</ele>
        <time>2021-06-05T09:40:23.000Z</time>
      </trkpt>
      <trkpt lat="47.2167" lon="-1.7506">
        <ele>49</ele>
        <time>2021-06-05T09:40:25.000Z</time>
      </trkpt>
      <trkpt lat="47.21681" lon="-1.75079">
        <ele>48</ele>
        <time>2021-06-05T09:40:27.000Z</time>
      </trkpt>
      <trkpt lat="47.21692" lon="-1.75098">
        <ele>48</ele>
        <time>2021-06-05T09:40:29.000Z</time>
      </trkpt>
      <trkpt lat="47.21702" lon="-1.75117">
        <ele>48</ele>
        <time>2021-06-05T09:40:31.000Z</time>
      </trkpt>
      <trkpt lat="47.21712" lon="-1.75136">
        <ele>47</ele>
        <time>2021-06-05T09:40:33.000Z</time>
      </trkpt>
      <trkpt lat="47.21721" lon="-1.75155">
        <ele>47</ele>
        <time>2021-06-05T09:40:35.000Z</time>
      </trkpt>
      <trkpt lat="47.2173" lon="-1.75174">
        <ele>46</ele>
        <time>2021-06-05T09:40:37.000Z</time>
      </trkpt>
      <trkpt lat="47.21739" lon="-1.75193">
        <ele>47</ele>
        <time>2021-06-05T09:40:39.000Z</time>
      </trkpt>
      <trkpt lat="47.21748" lon="-1.75212">
        <ele>47</ele>
        <time>2021-06-05T09:40:41.000Z</time>
      </trkpt>
      <trkpt lat="47.21757" lon="-1.7523">
        <ele>47</ele>
        <time>2021-06-05T09:40:43.000Z</time>
      </trkpt>
      <trkpt lat="47.21765" lon="-1.75249">
        <ele>47</ele>
        <time>2021-06-05T09:40:45.000Z</time>
      </trkpt>
      <trkpt lat="47.21773" lon="-1.75268">
        <ele>47</ele>
        <time>2021-06-05T09:40:47.000Z</time>
      </trkpt>
      <trkpt lat="47.21782" lon="-1.75287">
        <ele>47</ele>
        <time>2021-06-05T09:40:49.000Z</time>
      </trkpt>
      <trkpt lat="47.2179" lon="-1.75307">
        <ele>47</ele>
        <time>2021-06-05T09:40:51.000Z</time>
      </trkpt>
      <trkpt lat="47.21799" lon="-1.75325">
        <ele>47</ele>
        <time>2021-06-05T09:40:53.000Z</time>
      </trkpt>
      <trkpt lat="47.21808" lon="-1.75344">
        <ele>48</ele>
        <time>2021-06-05T09:40:55.000Z</time>
      </trkpt>
      <trkpt lat="47.21816" lon="-1.75363">
        <ele>48</ele>
        <time>2021-06-05T09:40:57.000Z</time>
      </trkpt>
      <trkpt lat="47.21825" lon="-1.75381">
        <ele>48</ele>
        <time>2021-06-05T09:40:59.000Z</time>
      </trkpt>
      <trkpt lat="47.21834" lon="-1.754">
        <ele>48</ele>
        <time>2021-06-05T09:41:01.000Z</time>
      </trkpt>
      <trkpt lat="47.21842" lon="-1.75419">
        <ele>49</ele>
        <time>2021-06-05T09:41:03.000Z</time>
      </trkpt>
      <trkpt lat="47.21851" lon="-1.75438">
        <ele>49</ele>
        <time>2021-06-05T09:41:05.000Z</time>
      </trkpt>
      <trkpt lat="47.21859" lon="-1.75457">
        <ele>49</ele>
        <time>2021-06-05T09:41:07.000Z</time>
      </trkpt>
      <trkpt lat="47.21867" lon="-1.75475">
        <ele>49</ele>
        <time>2021-06-05T09:41:09.000Z</time>
      </trkpt>
      <trkpt lat="47.21876" lon="-1.75494">
        <ele>49</ele>
        <time>2021-06-05T09:41:11.000Z</time>
      </trkpt>
      <trkpt lat="47.21885" lon="-1.75512">
        <ele>49</ele>
        <time>2021-06-05T09:41:13.000Z</time>
      </trkpt>
      <trkpt lat="47.21893" lon="-1.75531">
        <ele>48</ele>
        <time>2021-06-05T09:41:15.000Z</time>
      </trkpt>
      <trkpt lat="47.21902" lon="-1.75549">
        <ele>48</ele>
        <time>2021-06-05T09:41:17.000Z</time>
      </trkpt>
      <trkpt lat="47.2191" lon="-1.75568">
        <ele>48</ele>
        <time>2021-06-05T09:41:19.000Z</time>
      </trkpt>
      <trkpt lat="47.21918" lon="-1.75587">
        <ele>48</ele>
        <time>2021-06-05T09:41:21.000Z</time>
      </trkpt>
      <trkpt lat="47.21927" lon="-1.75606">
        <ele>49</ele>
        <time>2021-06-05T09:41:23.000Z</time>
      </trkpt>
      <trkpt lat="47.21935" lon="-1.75624">
        <ele>49</ele>
        <time>2021-06-05T09:41:25.000Z</time>
      </trkpt>
      <trkpt lat="47.21944" lon="-1.75642">
        <ele>49</ele>
        <time>2021-06-05T09:41:27.000Z</time>
      </trkpt>
      <trkpt lat="47.21952" lon="-1.75661">
        <ele>49</ele>
        <time>2021-06-05T09:41:29.000Z</time>
      </trkpt>
      <trkpt lat="47.21961" lon="-1.75679">
        <ele>48</ele>
        <time>2021-06-05T09:41:31.000Z</time>
      </trkpt>
      <trkpt lat="47.21969" lon="-1.75698">
        <ele>48</ele>
        <time>2021-06-05T09:41:33.000Z</time>
      </trkpt>
      <trkpt lat="47.21977" lon="-1.75716">
        <ele>48</ele>
        <time>2021-06-05T09:41:35.000Z</time>
      </trkpt>
      <trkpt lat="47.21985" lon="-1.75734">
        <ele>48</ele>
        <time>2021-06-05T09:41:37.000Z</time>
      </trkpt>
      <trkpt lat="47.21994" lon="-1.75752">
        <ele>48</ele>
        <time>2021-06-05T09:41:39.000Z</time>
      </trkpt>
      <trkpt lat="47.22002" lon="-1.7577">
        <ele>48</ele>
        <time>2021-06-05T09:41:41.000Z</time>
      </trkpt>
      <trkpt lat="47.22011" lon="-1.75787">
        <ele>48</ele>
        <time>2021-06-05T09:41:43.000Z</time>
      </trkpt>
      <trkpt lat="47.2202" lon="-1.75804">
        <ele>48</ele>
        <time>2021-06-05T09:41:45.000Z</time>
      </trkpt>
      <trkpt lat="47.22029" lon="-1.7582">
        <ele>48</ele>
        <time>2021-06-05T09:41:47.000Z</time>
      </trkpt>
      <trkpt lat="47.22038" lon="-1.75837">
        <ele>48</ele>
        <time>2021-06-05T09:41:49.000Z</time>
      </trkpt>
      <trkpt lat="47.22047" lon="-1.75853">
        <ele>48</ele>
        <time>2021-06-05T09:41:51.000Z</time>
      </trkpt>
      <trkpt lat="47.22057" lon="-1.7587">
        <ele>48</ele>
        <time>2021-06-05T09:41:53.000Z</time>
      </trkpt>
      <trkpt lat="47.22066" lon="-1.75887">
        <ele>49</ele>
        <time>2021-06-05T09:41:55.000Z</time>
      </trkpt>
      <trkpt lat="47.22076" lon="-1.75903">
        <ele>48</ele>
        <time>2021-06-05T09:41:57.000Z</time>
      </trkpt>
      <trkpt lat="47.22085" lon="-1.7592">
        <ele>47</ele>
        <time>2021-06-05T09:41:59.000Z</time>
      </trkpt>
      <trkpt lat="47.22094" lon="-1.75937">
        <ele>48</ele>
        <time>2021-06-05T09:42:01.000Z</time>
      </trkpt>
      <trkpt lat="47.22103" lon="-1.75954">
        <ele>48</ele>
        <time>2021-06-05T09:42:03.000Z</time>
      </trkpt>
      <trkpt lat="47.22111" lon="-1.75971">
        <ele>47</ele>
        <time>2021-06-05T09:42:05.000Z</time>
      </trkpt>
      <trkpt lat="47.22119" lon="-1.75989">
        <ele>48</ele>
        <time>2021-06-05T09:42:07.000Z</time>
      </trkpt>
      <trkpt lat="47.22126" lon="-1.76007">
        <ele>49</ele>
        <time>2021-06-05T09:42:09.000Z</time>
      </trkpt>
      <trkpt lat="47.22133" lon="-1.76024">
        <ele>49</ele>
        <time>2021-06-05T09:42:11.000Z</time>
      </trkpt>
      <trkpt lat="47.2214" lon="-1.76042">
        <ele>49</ele>
        <time>2021-06-05T09:42:13.000Z</time>
      </trkpt>
      <trkpt lat="47.22145" lon="-1.7606">
        <ele>50</ele>
        <time>2021-06-05T09:42:15.000Z</time>
      </trkpt>
      <trkpt lat="47.22145" lon="-1.76081">
        <ele>50</ele>
        <time>2021-06-05T09:42:17.000Z</time>
      </trkpt>
      <trkpt lat="47.22145" lon="-1.76103">
        <ele>50</ele>
        <time>2021-06-05T09:42:19.000Z</time>
      </trkpt>
      <trkpt lat="47.22145" lon="-1.76123">
        <ele>50</ele>
        <time>2021-06-05T09:42:21.000Z</time>
      </trkpt>
      <trkpt lat="47.22146" lon="-1.76144">
        <ele>50</ele>
        <time>2021-06-05T09:42:23.000Z</time>
      </trkpt>
      <trkpt lat="47.22152" lon="-1.76163">
        <ele>49</ele>
        <time>2021-06-05T09:42:25.000Z</time>
      </trkpt>
      <trkpt lat="47.22165" lon="-1.76175">
        <ele>49</ele>
        <time>2021-06-05T09:42:27.000Z</time>
      </trkpt>
      <trkpt lat="47.2218" lon="-1.76184">
        <ele>49</ele>
        <time>2021-06-05T09:42:29.000Z</time>
      </trkpt>
      <trkpt lat="47.22193" lon="-1.76194">
        <ele>49</ele>
        <time>2021-06-05T09:42:31.000Z</time>
      </trkpt>
      <trkpt lat="47.22208" lon="-1.76204">
        <ele>49</ele>
        <time>2021-06-05T09:42:33.000Z</time>
      </trkpt>
      <trkpt lat="47.22221" lon="-1.76216">
        <ele>49</ele>
        <time>2021-06-05T09:42:35.000Z</time>
      </trkpt>
      <trkpt lat="47.22233" lon="-1.7623">
        <ele>48</ele>
        <time>2021-06-05T09:42:37.000Z</time>
      </trkpt>
      <trkpt lat="47.22242" lon="-1.76248">
        <ele>48</ele>
        <time>2021-06-05T09:42:39.000Z</time>
      </trkpt>
      <trkpt lat="47.22251" lon="-1.76266">
        <ele>48</ele>
        <time>2021-06-05T09:42:41.000Z</time>
      </trkpt>
      <trkpt lat="47.2226" lon="-1.76285">
        <ele>48</ele>
        <time>2021-06-05T09:42:43.000Z</time>
      </trkpt>
      <trkpt lat="47.22269" lon="-1.76304">
        <ele>48</ele>
        <time>2021-06-05T09:42:45.000Z</time>
      </trkpt>
      <trkpt lat="47.22277" lon="-1.76323">
        <ele>47</ele>
        <time>2021-06-05T09:42:47.000Z</time>
      </trkpt>
      <trkpt lat="47.22287" lon="-1.76342">
        <ele>47</ele>
        <time>2021-06-05T09:42:49.000Z</time>
      </trkpt>
      <trkpt lat="47.22296" lon="-1.76361">
        <ele>47</ele>
        <time>2021-06-05T09:42:51.000Z</time>
      </trkpt>
      <trkpt lat="47.22305" lon="-1.7638">
        <ele>47</ele>
        <time>2021-06-05T09:42:53.000Z</time>
      </trkpt>
      <trkpt lat="47.22314" lon="-1.76398">
        <ele>47</ele>
        <time>2021-06-05T09:42:55.000Z</time>
      </trkpt>
      <trkpt lat="47.22322" lon="-1.76417">
        <ele>48</ele>
        <time>2021-06-05T09:42:57.000Z</time>
      </trkpt>
      <trkpt lat="47.22331" lon="-1.76435">
        <ele>47</ele>
        <time>2021-06-05T09:42:59.000Z</time>
      </trkpt>
      <trkpt lat="47.22339" lon="-1.76452">
        <ele>47</ele>
        <time>2021-06-05T09:43:01.000Z</time>
      </trkpt>
      <trkpt lat="47.22351" lon="-1.76465">
        <ele>47</ele>
        <time>2021-06-05T09:43:03.000Z</time>
      </trkpt>
      <trkpt lat="47.22365" lon="-1.76463">
        <ele>47</ele>
        <time>2021-06-05T09:43:05.000Z</time>
      </trkpt>
      <trkpt lat="47.22373" lon="-1.76457">
        <ele>47</ele>
        <time>2021-06-05T09:43:06.000Z</time>
      </trkpt>
      <trkpt lat="47.22386" lon="-1.76441">
        <ele>48</ele>
        <time>2021-06-05T09:43:08.000Z</time>
      </trkpt>
      <trkpt lat="47.224" lon="-1.76427">
        <ele>48</ele>
        <time>2021-06-05T09:43:10.000Z</time>
      </trkpt>
      <trkpt lat="47.22413" lon="-1.76414">
        <ele>47</ele>
        <time>2021-06-05T09:43:12.000Z</time>
      </trkpt>
      <trkpt lat="47.22426" lon="-1.764">
        <ele>48</ele>
        <time>2021-06-05T09:43:14.000Z</time>
      </trkpt>
      <trkpt lat="47.22438" lon="-1.76387">
        <ele>48</ele>
        <time>2021-06-05T09:43:16.000Z</time>
      </trkpt>
      <trkpt lat="47.22451" lon="-1.76374">
        <ele>48</ele>
        <time>2021-06-05T09:43:18.000Z</time>
      </trkpt>
      <trkpt lat="47.22464" lon="-1.76361">
        <ele>48</ele>
        <time>2021-06-05T09:43:20.000Z</time>
      </trkpt>
      <trkpt lat="47.22476" lon="-1.76348">
        <ele>49</ele>
        <time>2021-06-05T09:43:22.000Z</time>
      </trkpt>
      <trkpt lat="47.22488" lon="-1.76335">
        <ele>49</ele>
        <time>2021-06-05T09:43:24.000Z</time>
      </trkpt>
      <trkpt lat="47.225" lon="-1.76321">
        <ele>50</ele>
        <time>2021-06-05T09:43:26.000Z</time>
      </trkpt>
      <trkpt lat="47.22511" lon="-1.76308">
        <ele>51</ele>
        <time>2021-06-05T09:43:28.000Z</time>
      </trkpt>
      <trkpt lat="47.22523" lon="-1.76295">
        <ele>52</ele>
        <time>2021-06-05T09:43:30.000Z</time>
      </trkpt>
      <trkpt lat="47.22535" lon="-1.76283">
        <ele>52</ele>
        <time>2021-06-05T09:43:32.000Z</time>
      </trkpt>
      <trkpt lat="47.22548" lon="-1.7627">
        <ele>52</ele>
        <time>2021-06-05T09:43:34.000Z</time>
      </trkpt>
      <trkpt lat="47.22559" lon="-1.76258">
        <ele>54</ele>
        <time>2021-06-05T09:43:36.000Z</time>
      </trkpt>
      <trkpt lat="47.22573" lon="-1.76253">
        <ele>54</ele>
        <time>2021-06-05T09:43:38.000Z</time>
      </trkpt>
      <trkpt lat="47.22587" lon="-1.7626">
        <ele>54</ele>
        <time>2021-06-05T09:43:40.000Z</time>
      </trkpt>
      <trkpt lat="47.226" lon="-1.76273">
        <ele>53</ele>
        <time>2021-06-05T09:43:42.000Z</time>
      </trkpt>
      <trkpt lat="47.22613" lon="-1.76285">
        <ele>52</ele>
        <time>2021-06-05T09:43:44.000Z</time>
      </trkpt>
      <trkpt lat="47.22626" lon="-1.76296">
        <ele>52</ele>
        <time>2021-06-05T09:43:46.000Z</time>
      </trkpt>
      <trkpt lat="47.22639" lon="-1.76308">
        <ele>52</ele>
        <time>2021-06-05T09:43:48.000Z</time>
      </trkpt>
      <trkpt lat="47.22651" lon="-1.76319">
        <ele>52</ele>
        <time>2021-06-05T09:43:50.000Z</time>
      </trkpt>
      <trkpt lat="47.22664" lon="-1.7633">
        <ele>53</ele>
        <time>2021-06-05T09:43:52.000Z</time>
      </trkpt>
      <trkpt lat="47.22677" lon="-1.76343">
        <ele>53</ele>
        <time>2021-06-05T09:43:54.000Z</time>
      </trkpt>
      <trkpt lat="47.22691" lon="-1.76355">
        <ele>53</ele>
        <time>2021-06-05T09:43:56.000Z</time>
      </trkpt>
      <trkpt lat="47.22704" lon="-1.76367">
        <ele>52</ele>
        <time>2021-06-05T09:43:58.000Z</time>
      </trkpt>
      <trkpt lat="47.22717" lon="-1.7638">
        <ele>53</ele>
        <time>2021-06-05T09:44:00.000Z</time>
      </trkpt>
      <trkpt lat="47.22731" lon="-1.76392">
        <ele>53</ele>
        <time>2021-06-05T09:44:02.000Z</time>
      </trkpt>
      <trkpt lat="47.22745" lon="-1.76404">
        <ele>52</ele>
        <time>2021-06-05T09:44:04.000Z</time>
      </trkpt>
      <trkpt lat="47.22758" lon="-1.76415">
        <ele>52</ele>
        <time>2021-06-05T09:44:06.000Z</time>
      </trkpt>
      <trkpt lat="47.2277" lon="-1.76428">
        <ele>52</ele>
        <time>2021-06-05T09:44:08.000Z</time>
      </trkpt>
      <trkpt lat="47.22783" lon="-1.7644">
        <ele>52</ele>
        <time>2021-06-05T09:44:10.000Z</time>
      </trkpt>
      <trkpt lat="47.22796" lon="-1.76452">
        <ele>51</ele>
        <time>2021-06-05T09:44:12.000Z</time>
      </trkpt>
      <trkpt lat="47.22809" lon="-1.76464">
        <ele>51</ele>
        <time>2021-06-05T09:44:14.000Z</time>
      </trkpt>
      <trkpt lat="47.22822" lon="-1.76477">
        <ele>51</ele>
        <time>2021-06-05T09:44:16.000Z</time>
      </trkpt>
      <trkpt lat="47.22834" lon="-1.76491">
        <ele>50</ele>
        <time>2021-06-05T09:44:18.000Z</time>
      </trkpt>
      <trkpt lat="47.22846" lon="-1.76506">
        <ele>50</ele>
        <time>2021-06-05T09:44:20.000Z</time>
      </trkpt>
      <trkpt lat="47.22857" lon="-1.76521">
        <ele>51</ele>
        <time>2021-06-05T09:44:22.000Z</time>
      </trkpt>
      <trkpt lat="47.22868" lon="-1.76536">
        <ele>51</ele>
        <time>2021-06-05T09:44:24.000Z</time>
      </trkpt>
      <trkpt lat="47.2288" lon="-1.76551">
        <ele>51</ele>
        <time>2021-06-05T09:44:26.000Z</time>
      </trkpt>
      <trkpt lat="47.22891" lon="-1.76565">
        <ele>50</ele>
        <time>2021-06-05T09:44:28.000Z</time>
      </trkpt>
      <trkpt lat="47.22903" lon="-1.76579">
        <ele>50</ele>
        <time>2021-06-05T09:44:30.000Z</time>
      </trkpt>
      <trkpt lat="47.22915" lon="-1.76593">
        <ele>50</ele>
        <time>2021-06-05T09:44:32.000Z</time>
      </trkpt>
      <trkpt lat="47.22926" lon="-1.76607">
        <ele>50</ele>
        <time>2021-06-05T09:44:34.000Z</time>
      </trkpt>
      <trkpt lat="47.22938" lon="-1.76621">
        <ele>50</ele>
        <time>2021-06-05T09:44:36.000Z</time>
      </trkpt>
      <trkpt lat="47.22949" lon="-1.76634">
        <ele>50</ele>
        <time>2021-06-05T09:44:38.000Z</time>
      </trkpt>
      <trkpt lat="47.2296" lon="-1.76648">
        <ele>49</ele>
        <time>2021-06-05T09:44:40.000Z</time>
      </trkpt>
      <trkpt lat="47.22972" lon="-1.76662">
        <ele>49</ele>
        <time>2021-06-05T09:44:42.000Z</time>
      </trkpt>
      <trkpt lat="47.22983" lon="-1.76677">
        <ele>49</ele>
        <time>2021-06-05T09:44:44.000Z</time>
      </trkpt>
      <trkpt lat="47.22994" lon="-1.7669">
        <ele>49</ele>
        <time>2021-06-05T09:44:46.000Z</time>
      </trkpt>
      <trkpt lat="47.23006" lon="-1.76705">
        <ele>49</ele>
        <time>2021-06-05T09:44:48.000Z</time>
      </trkpt>
      <trkpt lat="47.23018" lon="-1.76718">
        <ele>49</ele>
        <time>2021-06-05T09:44:50.000Z</time>
      </trkpt>
      <trkpt lat="47.2303" lon="-1.76731">
        <ele>49</ele>
        <time>2021-06-05T09:44:52.000Z</time>
      </trkpt>
      <trkpt lat="47.23043" lon="-1.76742">
        <ele>49</ele>
        <time>2021-06-05T09:44:54.000Z</time>
      </trkpt>
      <trkpt lat="47.23056" lon="-1.76754">
        <ele>49</ele>
        <time>2021-06-05T09:44:56.000Z</time>
      </trkpt>
      <trkpt lat="47.23068" lon="-1.76767">
        <ele>49</ele>
        <time>2021-06-05T09:44:58.000Z</time>
      </trkpt>
      <trkpt lat="47.23079" lon="-1.7678">
        <ele>48</ele>
        <time>2021-06-05T09:45:00.000Z</time>
      </trkpt>
      <trkpt lat="47.2309" lon="-1.76793">
        <ele>48</ele>
        <time>2021-06-05T09:45:02.000Z</time>
      </trkpt>
      <trkpt lat="47.23101" lon="-1.76807">
        <ele>48</ele>
        <time>2021-06-05T09:45:04.000Z</time>
      </trkpt>
      <trkpt lat="47.23112" lon="-1.76821">
        <ele>48</ele>
        <time>2021-06-05T09:45:06.000Z</time>
      </trkpt>
      <trkpt lat="47.23123" lon="-1.76835">
        <ele>47</ele>
        <time>2021-06-05T09:45:08.000Z</time>
      </trkpt>
      <trkpt lat="47.23133" lon="-1.76849">
        <ele>48</ele>
        <time>2021-06-05T09:45:10.000Z</time>
      </trkpt>
      <trkpt lat="47.23143" lon="-1.76863">
        <ele>47</ele>
        <time>2021-06-05T09:45:12.000Z</time>
      </trkpt>
      <trkpt lat="47.23154" lon="-1.76877">
        <ele>47</ele>
        <time>2021-06-05T09:45:14.000Z</time>
      </trkpt>
      <trkpt lat="47.23166" lon="-1.76891">
        <ele>47</ele>
        <time>2021-06-05T09:45:16.000Z</time>
      </trkpt>
      <trkpt lat="47.23178" lon="-1.76902">
        <ele>48</ele>
        <time>2021-06-05T09:45:18.000Z</time>
      </trkpt>
      <trkpt lat="47.23191" lon="-1.76912">
        <ele>48</ele>
        <time>2021-06-05T09:45:20.000Z</time>
      </trkpt>
      <trkpt lat="47.23204" lon="-1.76922">
        <ele>48</ele>
        <time>2021-06-05T09:45:22.000Z</time>
      </trkpt>
      <trkpt lat="47.23216" lon="-1.76933">
        <ele>48</ele>
        <time>2021-06-05T09:45:24.000Z</time>
      </trkpt>
      <trkpt lat="47.23229" lon="-1.76944">
        <ele>48</ele>
        <time>2021-06-05T09:45:26.000Z</time>
      </trkpt>
      <trkpt lat="47.23241" lon="-1.76955">
        <ele>48</ele>
        <time>2021-06-05T09:45:28.000Z</time>
      </trkpt>
      <trkpt lat="47.23253" lon="-1.76965">
        <ele>48</ele>
        <time>2021-06-05T09:45:30.000Z</time>
      </trkpt>
      <trkpt lat="47.23265" lon="-1.76976">
        <ele>48</ele>
        <time>2021-06-05T09:45:32.000Z</time>
      </trkpt>
      <trkpt lat="47.23277" lon="-1.76987">
        <ele>48</ele>
        <time>2021-06-05T09:45:34.000Z</time>
      </trkpt>
      <trkpt lat="47.23289" lon="-1.77">
        <ele>48</ele>
        <time>2021-06-05T09:45:36.000Z</time>
      </trkpt>
      <trkpt lat="47.23299" lon="-1.77014">
        <ele>48</ele>
        <time>2021-06-05T09:45:38.000Z</time>
      </trkpt>
      <trkpt lat="47.23309" lon="-1.77031">
        <ele>48</ele>
        <time>2021-06-05T09:45:40.000Z</time>
      </trkpt>
      <trkpt lat="47.2332" lon="-1.77046">
        <ele>48</ele>
        <time>2021-06-05T09:45:42.000Z</time>
      </trkpt>
      <trkpt lat="47.2333" lon="-1.77061">
        <ele>48</ele>
        <time>2021-06-05T09:45:44.000Z</time>
      </trkpt>
      <trkpt lat="47.2334" lon="-1.77077">
        <ele>48</ele>
        <time>2021-06-05T09:45:46.000Z</time>
      </trkpt>
      <trkpt lat="47.2335" lon="-1.77092">
        <ele>48</ele>
        <time>2021-06-05T09:45:48.000Z</time>
      </trkpt>
      <trkpt lat="47.23361" lon="-1.77107">
        <ele>48</ele>
        <time>2021-06-05T09:45:50.000Z</time>
      </trkpt>
      <trkpt lat="47.23371" lon="-1.77123">
        <ele>48</ele>
        <time>2021-06-05T09:45:52.000Z</time>
      </trkpt>
      <trkpt lat="47.23381" lon="-1.77139">
        <ele>48</ele>
        <time>2021-06-05T09:45:54.000Z</time>
      </trkpt>
      <trkpt lat="47.23392" lon="-1.77155">
        <ele>48</ele>
        <time>2021-06-05T09:45:56.000Z</time>
      </trkpt>
      <trkpt lat="47.23403" lon="-1.7717">
        <ele>48</ele>
        <time>2021-06-05T09:45:58.000Z</time>
      </trkpt>
      <trkpt lat="47.23413" lon="-1.77186">
        <ele>47</ele>
        <time>2021-06-05T09:46:00.000Z</time>
      </trkpt>
      <trkpt lat="47.23424" lon="-1.77201">
        <ele>48</ele>
        <time>2021-06-05T09:46:02.000Z</time>
      </trkpt>
      <trkpt lat="47.23434" lon="-1.77216">
        <ele>48</ele>
        <time>2021-06-05T09:46:04.000Z</time>
      </trkpt>
      <trkpt lat="47.23445" lon="-1.77231">
        <ele>48</ele>
        <time>2021-06-05T09:46:06.000Z</time>
      </trkpt>
      <trkpt lat="47.23455" lon="-1.77247">
        <ele>48</ele>
        <time>2021-06-05T09:46:08.000Z</time>
      </trkpt>
      <trkpt lat="47.23465" lon="-1.77262">
        <ele>48</ele>
        <time>2021-06-05T09:46:10.000Z</time>
      </trkpt>
      <trkpt lat="47.23475" lon="-1.77277">
        <ele>48</ele>
        <time>2021-06-05T09:46:12.000Z</time>
      </trkpt>
      <trkpt lat="47.23485" lon="-1.77292">
        <ele>48</ele>
        <time>2021-06-05T09:46:14.000Z</time>
      </trkpt>
      <trkpt lat="47.23495" lon="-1.77308">
        <ele>48</ele>
        <time>2021-06-05T09:46:16.000Z</time>
      </trkpt>
      <trkpt lat="47.23505" lon="-1.77322">
        <ele>48</ele>
        <time>2021-06-05T09:46:18.000Z</time>
      </trkpt>
      <trkpt lat="47.23515" lon="-1.77338">
        <ele>48</ele>
        <time>2021-06-05T09:46:20.000Z</time>
      </trkpt>
      <trkpt lat="47.23526" lon="-1.77353">
        <ele>48</ele>
        <time>2021-06-05T09:46:22.000Z</time>
      </trkpt>
      <trkpt lat="47.23536" lon="-1.77368">
        <ele>48</ele>
        <time>2021-06-05T09:46:24.000Z</time>
      </trkpt>
      <trkpt lat="47.23546" lon="-1.77384">
        <ele>47</ele>
        <time>2021-06-05T09:46:26.000Z</time>
      </trkpt>
      <trkpt lat="47.23557" lon="-1.77399">
        <ele>47</ele>
        <time>2021-06-05T09:46:28.000Z</time>
      </trkpt>
      <trkpt lat="47.23567" lon="-1.77414">
        <ele>47</ele>
        <time>2021-06-05T09:46:30.000Z</time>
      </trkpt>
      <trkpt lat="47.23577" lon="-1.7743">
        <ele>47</ele>
        <time>2021-06-05T09:46:32.000Z</time>
      </trkpt>
      <trkpt lat="47.23587" lon="-1.77445">
        <ele>47</ele>
        <time>2021-06-05T09:46:34.000Z</time>
      </trkpt>
      <trkpt lat="47.23598" lon="-1.77461">
        <ele>47</ele>
        <time>2021-06-05T09:46:36.000Z</time>
      </trkpt>
      <trkpt lat="47.23608" lon="-1.77476">
        <ele>47</ele>
        <time>2021-06-05T09:46:38.000Z</time>
      </trkpt>
      <trkpt lat="47.23619" lon="-1.77491">
        <ele>47</ele>
        <time>2021-06-05T09:46:40.000Z</time>
      </trkpt>
      <trkpt lat="47.23629" lon="-1.77507">
        <ele>47</ele>
        <time>2021-06-05T09:46:42.000Z</time>
      </trkpt>
      <trkpt lat="47.2364" lon="-1.77523">
        <ele>48</ele>
        <time>2021-06-05T09:46:44.000Z</time>
      </trkpt>
      <trkpt lat="47.2365" lon="-1.77538">
        <ele>48</ele>
        <time>2021-06-05T09:46:46.000Z</time>
      </trkpt>
      <trkpt lat="47.23661" lon="-1.77554">
        <ele>48</ele>
        <time>2021-06-05T09:46:48.000Z</time>
      </trkpt>
      <trkpt lat="47.23671" lon="-1.7757">
        <ele>48</ele>
        <time>2021-06-05T09:46:50.000Z</time>
      </trkpt>
      <trkpt lat="47.23682" lon="-1.77585">
        <ele>49</ele>
        <time>2021-06-05T09:46:52.000Z</time>
      </trkpt>
      <trkpt lat="47.23692" lon="-1.776">
        <ele>49</ele>
        <time>2021-06-05T09:46:54.000Z</time>
      </trkpt>
      <trkpt lat="47.23703" lon="-1.77616">
        <ele>48</ele>
        <time>2021-06-05T09:46:56.000Z</time>
      </trkpt>
      <trkpt lat="47.23713" lon="-1.77631">
        <ele>49</ele>
        <time>2021-06-05T09:46:58.000Z</time>
      </trkpt>
      <trkpt lat="47.23723" lon="-1.77647">
        <ele>49</ele>
        <time>2021-06-05T09:47:00.000Z</time>
      </trkpt>
      <trkpt lat="47.23734" lon="-1.77663">
        <ele>49</ele>
        <time>2021-06-05T09:47:02.000Z</time>
      </trkpt>
      <trkpt lat="47.23744" lon="-1.77679">
        <ele>48</ele>
        <time>2021-06-05T09:47:04.000Z</time>
      </trkpt>
      <trkpt lat="47.23754" lon="-1.77694">
        <ele>48</ele>
        <time>2021-06-05T09:47:06.000Z</time>
      </trkpt>
      <trkpt lat="47.23765" lon="-1.7771">
        <ele>48</ele>
        <time>2021-06-05T09:47:08.000Z</time>
      </trkpt>
      <trkpt lat="47.23774" lon="-1.77725">
        <ele>48</ele>
        <time>2021-06-05T09:47:10.000Z</time>
      </trkpt>
      <trkpt lat="47.23785" lon="-1.77739">
        <ele>48</ele>
        <time>2021-06-05T09:47:12.000Z</time>
      </trkpt>
      <trkpt lat="47.23795" lon="-1.77753">
        <ele>48</ele>
        <time>2021-06-05T09:47:14.000Z</time>
      </trkpt>
      <trkpt lat="47.23806" lon="-1.77769">
        <ele>48</ele>
        <time>2021-06-05T09:47:16.000Z</time>
      </trkpt>
      <trkpt lat="47.23815" lon="-1.77783">
        <ele>48</ele>
        <time>2021-06-05T09:47:18.000Z</time>
      </trkpt>
      <trkpt lat="47.23826" lon="-1.77797">
        <ele>49</ele>
        <time>2021-06-05T09:47:20.000Z</time>
      </trkpt>
      <trkpt lat="47.23836" lon="-1.77812">
        <ele>49</ele>
        <time>2021-06-05T09:47:22.000Z</time>
      </trkpt>
      <trkpt lat="47.23846" lon="-1.77827">
        <ele>49</ele>
        <time>2021-06-05T09:47:24.000Z</time>
      </trkpt>
      <trkpt lat="47.23855" lon="-1.77842">
        <ele>49</ele>
        <time>2021-06-05T09:47:26.000Z</time>
      </trkpt>
      <trkpt lat="47.23866" lon="-1.77857">
        <ele>49</ele>
        <time>2021-06-05T09:47:28.000Z</time>
      </trkpt>
      <trkpt lat="47.23876" lon="-1.77872">
        <ele>49</ele>
        <time>2021-06-05T09:47:30.000Z</time>
      </trkpt>
      <trkpt lat="47.23886" lon="-1.77887">
        <ele>49</ele>
        <time>2021-06-05T09:47:32.000Z</time>
      </trkpt>
      <trkpt lat="47.23896" lon="-1.77903">
        <ele>49</ele>
        <time>2021-06-05T09:47:34.000Z</time>
      </trkpt>
      <trkpt lat="47.23907" lon="-1.77918">
        <ele>49</ele>
        <time>2021-06-05T09:47:36.000Z</time>
      </trkpt>
      <trkpt lat="47.23916" lon="-1.77933">
        <ele>49</ele>
        <time>2021-06-05T09:47:38.000Z</time>
      </trkpt>
      <trkpt lat="47.23926" lon="-1.77948">
        <ele>49</ele>
        <time>2021-06-05T09:47:40.000Z</time>
      </trkpt>
      <trkpt lat="47.23936" lon="-1.77962">
        <ele>49</ele>
        <time>2021-06-05T09:47:42.000Z</time>
      </trkpt>
      <trkpt lat="47.23946" lon="-1.77978">
        <ele>49</ele>
        <time>2021-06-05T09:47:44.000Z</time>
      </trkpt>
      <trkpt lat="47.23956" lon="-1.77993">
        <ele>50</ele>
        <time>2021-06-05T09:47:46.000Z</time>
      </trkpt>
      <trkpt lat="47.23966" lon="-1.78007">
        <ele>49</ele>
        <time>2021-06-05T09:47:48.000Z</time>
      </trkpt>
      <trkpt lat="47.23977" lon="-1.78022">
        <ele>50</ele>
        <time>2021-06-05T09:47:50.000Z</time>
      </trkpt>
      <trkpt lat="47.23987" lon="-1.78036">
        <ele>49</ele>
        <time>2021-06-05T09:47:52.000Z</time>
      </trkpt>
      <trkpt lat="47.23997" lon="-1.78051">
        <ele>49</ele>
        <time>2021-06-05T09:47:54.000Z</time>
      </trkpt>
      <trkpt lat="47.24007" lon="-1.78066">
        <ele>49</ele>
        <time>2021-06-05T09:47:56.000Z</time>
      </trkpt>
      <trkpt lat="47.24017" lon="-1.78081">
        <ele>50</ele>
        <time>2021-06-05T09:47:58.000Z</time>
      </trkpt>
      <trkpt lat="47.24027" lon="-1.78096">
        <ele>50</ele>
        <time>2021-06-05T09:48:00.000Z</time>
      </trkpt>
      <trkpt lat="47.24037" lon="-1.78112">
        <ele>50</ele>
        <time>2021-06-05T09:48:02.000Z</time>
      </trkpt>
      <trkpt lat="47.24047" lon="-1.78127">
        <ele>50</ele>
        <time>2021-06-05T09:48:04.000Z</time>
      </trkpt>
      <trkpt lat="47.24057" lon="-1.78142">
        <ele>50</ele>
        <time>2021-06-05T09:48:06.000Z</time>
      </trkpt>
      <trkpt lat="47.24068" lon="-1.78157">
        <ele>50</ele>
        <time>2021-06-05T09:48:08.000Z</time>
      </trkpt>
      <trkpt lat="47.24078" lon="-1.78172">
        <ele>50</ele>
        <time>2021-06-05T09:48:10.000Z</time>
      </trkpt>
      <trkpt lat="47.24088" lon="-1.78187">
        <ele>50</ele>
        <time>2021-06-05T09:48:12.000Z</time>
      </trkpt>
      <trkpt lat="47.24098" lon="-1.78202">
        <ele>50</ele>
        <time>2021-06-05T09:48:14.000Z</time>
      </trkpt>
      <trkpt lat="47.24108" lon="-1.78218">
        <ele>50</ele>
        <time>2021-06-05T09:48:16.000Z</time>
      </trkpt>
      <trkpt lat="47.24118" lon="-1.78233">
        <ele>50</ele>
        <time>2021-06-05T09:48:18.000Z</time>
      </trkpt>
      <trkpt lat="47.24128" lon="-1.78248">
        <ele>50</ele>
        <time>2021-06-05T09:48:20.000Z</time>
      </trkpt>
      <trkpt lat="47.24139" lon="-1.78263">
        <ele>50</ele>
        <time>2021-06-05T09:48:22.000Z</time>
      </trkpt>
      <trkpt lat="47.24149" lon="-1.78279">
        <ele>50</ele>
        <time>2021-06-05T09:48:24.000Z</time>
      </trkpt>
      <trkpt lat="47.24159" lon="-1.78294">
        <ele>50</ele>
        <time>2021-06-05T09:48:26.000Z</time>
      </trkpt>
      <trkpt lat="47.24169" lon="-1.78309">
        <ele>51</ele>
        <time>2021-06-05T09:48:28.000Z</time>
      </trkpt>
      <trkpt lat="47.2418" lon="-1.78325">
        <ele>51</ele>
        <time>2021-06-05T09:48:30.000Z</time>
      </trkpt>
      <trkpt lat="47.2419" lon="-1.7834">
        <ele>50</ele>
        <time>2021-06-05T09:48:32.000Z</time>
      </trkpt>
      <trkpt lat="47.242" lon="-1.78356">
        <ele>50</ele>
        <time>2021-06-05T09:48:34.000Z</time>
      </trkpt>
      <trkpt lat="47.24211" lon="-1.78371">
        <ele>50</ele>
        <time>2021-06-05T09:48:36.000Z</time>
      </trkpt>
      <trkpt lat="47.24221" lon="-1.78386">
        <ele>50</ele>
        <time>2021-06-05T09:48:38.000Z</time>
      </trkpt>
      <trkpt lat="47.24231" lon="-1.78401">
        <ele>50</ele>
        <time>2021-06-05T09:48:40.000Z</time>
      </trkpt>
      <trkpt lat="47.24241" lon="-1.78416">
        <ele>50</ele>
        <time>2021-06-05T09:48:42.000Z</time>
      </trkpt>
      <trkpt lat="47.24251" lon="-1.7843">
        <ele>50</ele>
        <time>2021-06-05T09:48:44.000Z</time>
      </trkpt>
      <trkpt lat="47.24263" lon="-1.78442">
        <ele>51</ele>
        <time>2021-06-05T09:48:46.000Z</time>
      </trkpt>
      <trkpt lat="47.24278" lon="-1.78448">
        <ele>51</ele>
        <time>2021-06-05T09:48:48.000Z</time>
      </trkpt>
      <trkpt lat="47.24292" lon="-1.78454">
        <ele>51</ele>
        <time>2021-06-05T09:48:50.000Z</time>
      </trkpt>
      <trkpt lat="47.24307" lon="-1.78459">
        <ele>51</ele>
        <time>2021-06-05T09:48:52.000Z</time>
      </trkpt>
      <trkpt lat="47.24321" lon="-1.78466">
        <ele>51</ele>
        <time>2021-06-05T09:48:54.000Z</time>
      </trkpt>
      <trkpt lat="47.24336" lon="-1.78471">
        <ele>52</ele>
        <time>2021-06-05T09:48:56.000Z</time>
      </trkpt>
      <trkpt lat="47.24349" lon="-1.78476">
        <ele>53</ele>
        <time>2021-06-05T09:48:58.000Z</time>
      </trkpt>
      <trkpt lat="47.24364" lon="-1.78481">
        <ele>53</ele>
        <time>2021-06-05T09:49:00.000Z</time>
      </trkpt>
      <trkpt lat="47.24379" lon="-1.78487">
        <ele>53</ele>
        <time>2021-06-05T09:49:02.000Z</time>
      </trkpt>
      <trkpt lat="47.24393" lon="-1.78493">
        <ele>52</ele>
        <time>2021-06-05T09:49:04.000Z</time>
      </trkpt>
      <trkpt lat="47.24408" lon="-1.785">
        <ele>52</ele>
        <time>2021-06-05T09:49:06.000Z</time>
      </trkpt>
      <trkpt lat="47.24422" lon="-1.78506">
        <ele>52</ele>
        <time>2021-06-05T09:49:08.000Z</time>
      </trkpt>
      <trkpt lat="47.24436" lon="-1.78512">
        <ele>52</ele>
        <time>2021-06-05T09:49:10.000Z</time>
      </trkpt>
      <trkpt lat="47.24451" lon="-1.78519">
        <ele>52</ele>
        <time>2021-06-05T09:49:12.000Z</time>
      </trkpt>
      <trkpt lat="47.24465" lon="-1.78526">
        <ele>52</ele>
        <time>2021-06-05T09:49:14.000Z</time>
      </trkpt>
      <trkpt lat="47.2448" lon="-1.78532">
        <ele>52</ele>
        <time>2021-06-05T09:49:16.000Z</time>
      </trkpt>
      <trkpt lat="47.24494" lon="-1.78537">
        <ele>52</ele>
        <time>2021-06-05T09:49:18.000Z</time>
      </trkpt>
      <trkpt lat="47.24508" lon="-1.78544">
        <ele>52</ele>
        <time>2021-06-05T09:49:20.000Z</time>
      </trkpt>
      <trkpt lat="47.24522" lon="-1.78549">
        <ele>51</ele>
        <time>2021-06-05T09:49:22.000Z</time>
      </trkpt>
      <trkpt lat="47.24537" lon="-1.78555">
        <ele>51</ele>
        <time>2021-06-05T09:49:24.000Z</time>
      </trkpt>
      <trkpt lat="47.24551" lon="-1.7856">
        <ele>51</ele>
        <time>2021-06-05T09:49:26.000Z</time>
      </trkpt>
      <trkpt lat="47.24564" lon="-1.78567">
        <ele>51</ele>
        <time>2021-06-05T09:49:28.000Z</time>
      </trkpt>
      <trkpt lat="47.24578" lon="-1.78573">
        <ele>51</ele>
        <time>2021-06-05T09:49:30.000Z</time>
      </trkpt>
      <trkpt lat="47.24592" lon="-1.78579">
        <ele>51</ele>
        <time>2021-06-05T09:49:32.000Z</time>
      </trkpt>
      <trkpt lat="47.24607" lon="-1.78585">
        <ele>51</ele>
        <time>2021-06-05T09:49:34.000Z</time>
      </trkpt>
      <trkpt lat="47.24621" lon="-1.78591">
        <ele>51</ele>
        <time>2021-06-05T09:49:36.000Z</time>
      </trkpt>
      <trkpt lat="47.24636" lon="-1.78597">
        <ele>51</ele>
        <time>2021-06-05T09:49:38.000Z</time>
      </trkpt>
      <trkpt lat="47.2465" lon="-1.78602">
        <ele>51</ele>
        <time>2021-06-05T09:49:40.000Z</time>
      </trkpt>
      <trkpt lat="47.24664" lon="-1.78608">
        <ele>51</ele>
        <time>2021-06-05T09:49:42.000Z</time>
      </trkpt>
      <trkpt lat="47.24679" lon="-1.78614">
        <ele>50</ele>
        <time>2021-06-05T09:49:44.000Z</time>
      </trkpt>
      <trkpt lat="47.24692" lon="-1.78621">
        <ele>51</ele>
        <time>2021-06-05T09:49:46.000Z</time>
      </trkpt>
      <trkpt lat="47.24705" lon="-1.78627">
        <ele>51</ele>
        <time>2021-06-05T09:49:48.000Z</time>
      </trkpt>
      <trkpt lat="47.24719" lon="-1.78632">
        <ele>51</ele>
        <time>2021-06-05T09:49:50.000Z</time>
      </trkpt>
      <trkpt lat="47.24732" lon="-1.78638">
        <ele>52</ele>
        <time>2021-06-05T09:49:52.000Z</time>
      </trkpt>
      <trkpt lat="47.24745" lon="-1.78642">
        <ele>52</ele>
        <time>2021-06-05T09:49:54.000Z</time>
      </trkpt>
      <trkpt lat="47.24758" lon="-1.78648">
        <ele>52</ele>
        <time>2021-06-05T09:49:56.000Z</time>
      </trkpt>
      <trkpt lat="47.24772" lon="-1.78653">
        <ele>52</ele>
        <time>2021-06-05T09:49:58.000Z</time>
      </trkpt>
      <trkpt lat="47.24786" lon="-1.78653">
        <ele>52</ele>
        <time>2021-06-05T09:50:00.000Z</time>
      </trkpt>
      <trkpt lat="47.24796" lon="-1.78641">
        <ele>52</ele>
        <time>2021-06-05T09:50:02.000Z</time>
      </trkpt>
      <trkpt lat="47.24804" lon="-1.78622">
        <ele>52</ele>
        <time>2021-06-05T09:50:04.000Z</time>
      </trkpt>
      <trkpt lat="47.24814" lon="-1.78605">
        <ele>53</ele>
        <time>2021-06-05T09:50:06.000Z</time>
      </trkpt>
      <trkpt lat="47.24825" lon="-1.7859">
        <ele>53</ele>
        <time>2021-06-05T09:50:08.000Z</time>
      </trkpt>
      <trkpt lat="47.24836" lon="-1.78575">
        <ele>53</ele>
        <time>2021-06-05T09:50:10.000Z</time>
      </trkpt>
      <trkpt lat="47.24846" lon="-1.7856">
        <ele>54</ele>
        <time>2021-06-05T09:50:12.000Z</time>
      </trkpt>
      <trkpt lat="47.24858" lon="-1.78544">
        <ele>54</ele>
        <time>2021-06-05T09:50:14.000Z</time>
      </trkpt>
      <trkpt lat="47.24869" lon="-1.78529">
        <ele>54</ele>
        <time>2021-06-05T09:50:16.000Z</time>
      </trkpt>
      <trkpt lat="47.2488" lon="-1.78513">
        <ele>53</ele>
        <time>2021-06-05T09:50:18.000Z</time>
      </trkpt>
      <trkpt lat="47.24891" lon="-1.78498">
        <ele>53</ele>
        <time>2021-06-05T09:50:20.000Z</time>
      </trkpt>
      <trkpt lat="47.24903" lon="-1.78483">
        <ele>54</ele>
        <time>2021-06-05T09:50:22.000Z</time>
      </trkpt>
      <trkpt lat="47.24914" lon="-1.78468">
        <ele>54</ele>
        <time>2021-06-05T09:50:24.000Z</time>
      </trkpt>
      <trkpt lat="47.24925" lon="-1.78453">
        <ele>54</ele>
        <time>2021-06-05T09:50:26.000Z</time>
      </trkpt>
      <trkpt lat="47.24936" lon="-1.78438">
        <ele>54</ele>
        <time>2021-06-05T09:50:28.000Z</time>
      </trkpt>
      <trkpt lat="47.24946" lon="-1.78422">
        <ele>54</ele>
        <time>2021-06-05T09:50:30.000Z</time>
      </trkpt>
      <trkpt lat="47.24958" lon="-1.78409">
        <ele>55</ele>
        <time>2021-06-05T09:50:32.000Z</time>
      </trkpt>
      <trkpt lat="47.2497" lon="-1.78398">
        <ele>55</ele>
        <time>2021-06-05T09:50:34.000Z</time>
      </trkpt>
      <trkpt lat="47.24984" lon="-1.78387">
        <ele>56</ele>
        <time>2021-06-05T09:50:36.000Z</time>
      </trkpt>
      <trkpt lat="47.24997" lon="-1.78375">
        <ele>55</ele>
        <time>2021-06-05T09:50:38.000Z</time>
      </trkpt>
      <trkpt lat="47.2501" lon="-1.78364">
        <ele>55</ele>
        <time>2021-06-05T09:50:40.000Z</time>
      </trkpt>
      <trkpt lat="47.25024" lon="-1.78353">
        <ele>55</ele>
        <time>2021-06-05T09:50:42.000Z</time>
      </trkpt>
      <trkpt lat="47.25037" lon="-1.78341">
        <ele>55</ele>
        <time>2021-06-05T09:50:44.000Z</time>
      </trkpt>
      <trkpt lat="47.2505" lon="-1.7833">
        <ele>55</ele>
        <time>2021-06-05T09:50:46.000Z</time>
      </trkpt>
      <trkpt lat="47.25063" lon="-1.78319">
        <ele>55</ele>
        <time>2021-06-05T09:50:48.000Z</time>
      </trkpt>
      <trkpt lat="47.25077" lon="-1.78308">
        <ele>55</ele>
        <time>2021-06-05T09:50:50.000Z</time>
      </trkpt>
      <trkpt lat="47.2509" lon="-1.78297">
        <ele>55</ele>
        <time>2021-06-05T09:50:52.000Z</time>
      </trkpt>
      <trkpt lat="47.25104" lon="-1.78286">
        <ele>55</ele>
        <time>2021-06-05T09:50:54.000Z</time>
      </trkpt>
      <trkpt lat="47.25118" lon="-1.78274">
        <ele>54</ele>
        <time>2021-06-05T09:50:56.000Z</time>
      </trkpt>
      <trkpt lat="47.25131" lon="-1.78262">
        <ele>55</ele>
        <time>2021-06-05T09:50:58.000Z</time>
      </trkpt>
      <trkpt lat="47.25143" lon="-1.78249">
        <ele>54</ele>
        <time>2021-06-05T09:51:00.000Z</time>
      </trkpt>
      <trkpt lat="47.25156" lon="-1.78236">
        <ele>54</ele>
        <time>2021-06-05T09:51:02.000Z</time>
      </trkpt>
      <trkpt lat="47.25168" lon="-1.78221">
        <ele>55</ele>
        <time>2021-06-05T09:51:04.000Z</time>
      </trkpt>
      <trkpt lat="47.25179" lon="-1.78205">
        <ele>55</ele>
        <time>2021-06-05T09:51:06.000Z</time>
      </trkpt>
      <trkpt lat="47.25189" lon="-1.78188">
        <ele>55</ele>
        <time>2021-06-05T09:51:08.000Z</time>
      </trkpt>
      <trkpt lat="47.25199" lon="-1.78172">
        <ele>55</ele>
        <time>2021-06-05T09:51:10.000Z</time>
      </trkpt>
      <trkpt lat="47.25209" lon="-1.78155">
        <ele>55</ele>
        <time>2021-06-05T09:51:12.000Z</time>
      </trkpt>
      <trkpt lat="47.25218" lon="-1.78138">
        <ele>55</ele>
        <time>2021-06-05T09:51:14.000Z</time>
      </trkpt>
      <trkpt lat="47.25229" lon="-1.78121">
        <ele>54</ele>
        <time>2021-06-05T09:51:16.000Z</time>
      </trkpt>
      <trkpt lat="47.25239" lon="-1.78104">
        <ele>54</ele>
        <time>2021-06-05T09:51:18.000Z</time>
      </trkpt>
      <trkpt lat="47.25248" lon="-1.78087">
        <ele>54</ele>
        <time>2021-06-05T09:51:20.000Z</time>
      </trkpt>
      <trkpt lat="47.25258" lon="-1.7807">
        <ele>54</ele>
        <time>2021-06-05T09:51:22.000Z</time>
      </trkpt>
      <trkpt lat="47.25267" lon="-1.78054">
        <ele>54</ele>
        <time>2021-06-05T09:51:24.000Z</time>
      </trkpt>
      <trkpt lat="47.25278" lon="-1.78038">
        <ele>54</ele>
        <time>2021-06-05T09:51:26.000Z</time>
      </trkpt>
      <trkpt lat="47.25289" lon="-1.78021">
        <ele>54</ele>
        <time>2021-06-05T09:51:28.000Z</time>
      </trkpt>
      <trkpt lat="47.25302" lon="-1.7801">
        <ele>54</ele>
        <time>2021-06-05T09:51:30.000Z</time>
      </trkpt>
      <trkpt lat="47.25317" lon="-1.78006">
        <ele>54</ele>
        <time>2021-06-05T09:51:32.000Z</time>
      </trkpt>
      <trkpt lat="47.25333" lon="-1.78007">
        <ele>53</ele>
        <time>2021-06-05T09:51:34.000Z</time>
      </trkpt>
      <trkpt lat="47.25348" lon="-1.78009">
        <ele>53</ele>
        <time>2021-06-05T09:51:36.000Z</time>
      </trkpt>
      <trkpt lat="47.25363" lon="-1.78012">
        <ele>52</ele>
        <time>2021-06-05T09:51:38.000Z</time>
      </trkpt>
      <trkpt lat="47.25378" lon="-1.78014">
        <ele>51</ele>
        <time>2021-06-05T09:51:40.000Z</time>
      </trkpt>
      <trkpt lat="47.25392" lon="-1.78017">
        <ele>51</ele>
        <time>2021-06-05T09:51:42.000Z</time>
      </trkpt>
      <trkpt lat="47.25407" lon="-1.7802">
        <ele>51</ele>
        <time>2021-06-05T09:51:44.000Z</time>
      </trkpt>
      <trkpt lat="47.25422" lon="-1.78023">
        <ele>51</ele>
        <time>2021-06-05T09:51:46.000Z</time>
      </trkpt>
      <trkpt lat="47.25437" lon="-1.78025">
        <ele>50</ele>
        <time>2021-06-05T09:51:48.000Z</time>
      </trkpt>
      <trkpt lat="47.25451" lon="-1.78028">
        <ele>50</ele>
        <time>2021-06-05T09:51:50.000Z</time>
      </trkpt>
      <trkpt lat="47.25466" lon="-1.78031">
        <ele>50</ele>
        <time>2021-06-05T09:51:52.000Z</time>
      </trkpt>
      <trkpt lat="47.2548" lon="-1.78033">
        <ele>50</ele>
        <time>2021-06-05T09:51:54.000Z</time>
      </trkpt>
      <trkpt lat="47.25495" lon="-1.78036">
        <ele>51</ele>
        <time>2021-06-05T09:51:56.000Z</time>
      </trkpt>
      <trkpt lat="47.25509" lon="-1.78039">
        <ele>51</ele>
        <time>2021-06-05T09:51:58.000Z</time>
      </trkpt>
      <trkpt lat="47.25523" lon="-1.78041">
        <ele>51</ele>
        <time>2021-06-05T09:52:00.000Z</time>
      </trkpt>
      <trkpt lat="47.25537" lon="-1.78043">
        <ele>51</ele>
        <time>2021-06-05T09:52:02.000Z</time>
      </trkpt>
      <trkpt lat="47.25551" lon="-1.78046">
        <ele>51</ele>
        <time>2021-06-05T09:52:04.000Z</time>
      </trkpt>
      <trkpt lat="47.25566" lon="-1.7805">
        <ele>52</ele>
        <time>2021-06-05T09:52:06.000Z</time>
      </trkpt>
      <trkpt lat="47.25587" lon="-1.78055">
        <ele>54</ele>
        <time>2021-06-05T09:52:09.000Z</time>
      </trkpt>
      <trkpt lat="47.25601" lon="-1.78057">
        <ele>54</ele>
        <time>2021-06-05T09:52:11.000Z</time>
      </trkpt>
      <trkpt lat="47.25615" lon="-1.78058">
        <ele>55</ele>
        <time>2021-06-05T09:52:13.000Z</time>
      </trkpt>
      <trkpt lat="47.2563" lon="-1.78059">
        <ele>55</ele>
        <time>2021-06-05T09:52:15.000Z</time>
      </trkpt>
      <trkpt lat="47.25644" lon="-1.78058">
        <ele>56</ele>
        <time>2021-06-05T09:52:17.000Z</time>
      </trkpt>
      <trkpt lat="47.25659" lon="-1.78057">
        <ele>56</ele>
        <time>2021-06-05T09:52:19.000Z</time>
      </trkpt>
      <trkpt lat="47.25674" lon="-1.78054">
        <ele>57</ele>
        <time>2021-06-05T09:52:21.000Z</time>
      </trkpt>
      <trkpt lat="47.25688" lon="-1.7805">
        <ele>57</ele>
        <time>2021-06-05T09:52:23.000Z</time>
      </trkpt>
      <trkpt lat="47.25701" lon="-1.78046">
        <ele>58</ele>
        <time>2021-06-05T09:52:25.000Z</time>
      </trkpt>
      <trkpt lat="47.25714" lon="-1.78042">
        <ele>58</ele>
        <time>2021-06-05T09:52:27.000Z</time>
      </trkpt>
      <trkpt lat="47.25728" lon="-1.78038">
        <ele>58</ele>
        <time>2021-06-05T09:52:29.000Z</time>
      </trkpt>
      <trkpt lat="47.25741" lon="-1.78034">
        <ele>58</ele>
        <time>2021-06-05T09:52:31.000Z</time>
      </trkpt>
      <trkpt lat="47.25754" lon="-1.78029">
        <ele>58</ele>
        <time>2021-06-05T09:52:33.000Z</time>
      </trkpt>
      <trkpt lat="47.25767" lon="-1.78024">
        <ele>58</ele>
        <time>2021-06-05T09:52:35.000Z</time>
      </trkpt>
      <trkpt lat="47.25781" lon="-1.7802">
        <ele>59</ele>
        <time>2021-06-05T09:52:37.000Z</time>
      </trkpt>
      <trkpt lat="47.25794" lon="-1.78015">
        <ele>59</ele>
        <time>2021-06-05T09:52:39.000Z</time>
      </trkpt>
      <trkpt lat="47.25807" lon="-1.78011">
        <ele>59</ele>
        <time>2021-06-05T09:52:41.000Z</time>
      </trkpt>
      <trkpt lat="47.25821" lon="-1.78007">
        <ele>59</ele>
        <time>2021-06-05T09:52:43.000Z</time>
      </trkpt>
      <trkpt lat="47.25834" lon="-1.78003">
        <ele>59</ele>
        <time>2021-06-05T09:52:45.000Z</time>
      </trkpt>
      <trkpt lat="47.25848" lon="-1.78">
        <ele>59</ele>
        <time>2021-06-05T09:52:47.000Z</time>
      </trkpt>
      <trkpt lat="47.25862" lon="-1.77998">
        <ele>59</ele>
        <time>2021-06-05T09:52:49.000Z</time>
      </trkpt>
      <trkpt lat="47.25876" lon="-1.77997">
        <ele>59</ele>
        <time>2021-06-05T09:52:51.000Z</time>
      </trkpt>
      <trkpt lat="47.2589" lon="-1.77997">
        <ele>58</ele>
        <time>2021-06-05T09:52:53.000Z</time>
      </trkpt>
      <trkpt lat="47.25905" lon="-1.77999">
        <ele>58</ele>
        <time>2021-06-05T09:52:55.000Z</time>
      </trkpt>
      <trkpt lat="47.25919" lon="-1.78002">
        <ele>58</ele>
        <time>2021-06-05T09:52:57.000Z</time>
      </trkpt>
      <trkpt lat="47.25933" lon="-1.78006">
        <ele>57</ele>
        <time>2021-06-05T09:52:59.000Z</time>
      </trkpt>
      <trkpt lat="47.25948" lon="-1.78012">
        <ele>57</ele>
        <time>2021-06-05T09:53:01.000Z</time>
      </trkpt>
      <trkpt lat="47.25962" lon="-1.78019">
        <ele>57</ele>
        <time>2021-06-05T09:53:03.000Z</time>
      </trkpt>
      <trkpt lat="47.25975" lon="-1.78026">
        <ele>57</ele>
        <time>2021-06-05T09:53:05.000Z</time>
      </trkpt>
      <trkpt lat="47.25988" lon="-1.78036">
        <ele>58</ele>
        <time>2021-06-05T09:53:07.000Z</time>
      </trkpt>
      <trkpt lat="47.26" lon="-1.78044">
        <ele>58</ele>
        <time>2021-06-05T09:53:09.000Z</time>
      </trkpt>
      <trkpt lat="47.26012" lon="-1.78052">
        <ele>58</ele>
        <time>2021-06-05T09:53:11.000Z</time>
      </trkpt>
      <trkpt lat="47.2603" lon="-1.78065">
        <ele>59</ele>
        <time>2021-06-05T09:53:14.000Z</time>
      </trkpt>
      <trkpt lat="47.26042" lon="-1.78074">
        <ele>59</ele>
        <time>2021-06-05T09:53:16.000Z</time>
      </trkpt>
      <trkpt lat="47.26055" lon="-1.78082">
        <ele>60</ele>
        <time>2021-06-05T09:53:18.000Z</time>
      </trkpt>
      <trkpt lat="47.26074" lon="-1.78094">
        <ele>60</ele>
        <time>2021-06-05T09:53:21.000Z</time>
      </trkpt>
      <trkpt lat="47.26087" lon="-1.78104">
        <ele>60</ele>
        <time>2021-06-05T09:53:23.000Z</time>
      </trkpt>
      <trkpt lat="47.261" lon="-1.78113">
        <ele>61</ele>
        <time>2021-06-05T09:53:25.000Z</time>
      </trkpt>
      <trkpt lat="47.26113" lon="-1.78122">
        <ele>61</ele>
        <time>2021-06-05T09:53:27.000Z</time>
      </trkpt>
      <trkpt lat="47.26125" lon="-1.78131">
        <ele>62</ele>
        <time>2021-06-05T09:53:29.000Z</time>
      </trkpt>
      <trkpt lat="47.26137" lon="-1.78138">
        <ele>62</ele>
        <time>2021-06-05T09:53:31.000Z</time>
      </trkpt>
      <trkpt lat="47.26152" lon="-1.78143">
        <ele>62</ele>
        <time>2021-06-05T09:53:33.000Z</time>
      </trkpt>
      <trkpt lat="47.26166" lon="-1.78146">
        <ele>62</ele>
        <time>2021-06-05T09:53:35.000Z</time>
      </trkpt>
      <trkpt lat="47.2618" lon="-1.78146">
        <ele>62</ele>
        <time>2021-06-05T09:53:37.000Z</time>
      </trkpt>
      <trkpt lat="47.26194" lon="-1.78146">
        <ele>62</ele>
        <time>2021-06-05T09:53:39.000Z</time>
      </trkpt>
      <trkpt lat="47.26207" lon="-1.78144">
        <ele>62</ele>
        <time>2021-06-05T09:53:41.000Z</time>
      </trkpt>
      <trkpt lat="47.26227" lon="-1.78142">
        <ele>62</ele>
        <time>2021-06-05T09:53:44.000Z</time>
      </trkpt>
      <trkpt lat="47.2624" lon="-1.78142">
        <ele>62</ele>
        <time>2021-06-05T09:53:46.000Z</time>
      </trkpt>
      <trkpt lat="47.26252" lon="-1.78139">
        <ele>63</ele>
        <time>2021-06-05T09:53:48.000Z</time>
      </trkpt>
      <trkpt lat="47.26264" lon="-1.78135">
        <ele>63</ele>
        <time>2021-06-05T09:53:50.000Z</time>
      </trkpt>
      <trkpt lat="47.26275" lon="-1.78131">
        <ele>64</ele>
        <time>2021-06-05T09:53:52.000Z</time>
      </trkpt>
      <trkpt lat="47.26286" lon="-1.78152">
        <ele>64</ele>
        <time>2021-06-05T09:53:55.000Z</time>
      </trkpt>
      <trkpt lat="47.26288" lon="-1.7817">
        <ele>64</ele>
        <time>2021-06-05T09:53:57.000Z</time>
      </trkpt>
      <trkpt lat="47.26291" lon="-1.7819">
        <ele>64</ele>
        <time>2021-06-05T09:53:59.000Z</time>
      </trkpt>
      <trkpt lat="47.26294" lon="-1.78208">
        <ele>65</ele>
        <time>2021-06-05T09:54:01.000Z</time>
      </trkpt>
      <trkpt lat="47.26297" lon="-1.78227">
        <ele>65</ele>
        <time>2021-06-05T09:54:03.000Z</time>
      </trkpt>
      <trkpt lat="47.263" lon="-1.78246">
        <ele>65</ele>
        <time>2021-06-05T09:54:05.000Z</time>
      </trkpt>
      <trkpt lat="47.26303" lon="-1.78264">
        <ele>65</ele>
        <time>2021-06-05T09:54:07.000Z</time>
      </trkpt>
      <trkpt lat="47.26308" lon="-1.78292">
        <ele>66</ele>
        <time>2021-06-05T09:54:10.000Z</time>
      </trkpt>
      <trkpt lat="47.26312" lon="-1.7831">
        <ele>66</ele>
        <time>2021-06-05T09:54:12.000Z</time>
      </trkpt>
      <trkpt lat="47.26314" lon="-1.78329">
        <ele>66</ele>
        <time>2021-06-05T09:54:14.000Z</time>
      </trkpt>
      <trkpt lat="47.26316" lon="-1.78347">
        <ele>66</ele>
        <time>2021-06-05T09:54:16.000Z</time>
      </trkpt>
      <trkpt lat="47.26318" lon="-1.78366">
        <ele>66</ele>
        <time>2021-06-05T09:54:18.000Z</time>
      </trkpt>
      <trkpt lat="47.26318" lon="-1.78385">
        <ele>66</ele>
        <time>2021-06-05T09:54:20.000Z</time>
      </trkpt>
      <trkpt lat="47.26318" lon="-1.78413">
        <ele>66</ele>
        <time>2021-06-05T09:54:23.000Z</time>
      </trkpt>
      <trkpt lat="47.26317" lon="-1.78432">
        <ele>67</ele>
        <time>2021-06-05T09:54:25.000Z</time>
      </trkpt>
      <trkpt lat="47.26315" lon="-1.78452">
        <ele>67</ele>
        <time>2021-06-05T09:54:27.000Z</time>
      </trkpt>
      <trkpt lat="47.26311" lon="-1.78471">
        <ele>67</ele>
        <time>2021-06-05T09:54:29.000Z</time>
      </trkpt>
      <trkpt lat="47.26307" lon="-1.78489">
        <ele>66</ele>
        <time>2021-06-05T09:54:31.000Z</time>
      </trkpt>
      <trkpt lat="47.26302" lon="-1.78507">
        <ele>66</ele>
        <time>2021-06-05T09:54:33.000Z</time>
      </trkpt>
      <trkpt lat="47.26296" lon="-1.78524">
        <ele>66</ele>
        <time>2021-06-05T09:54:35.000Z</time>
      </trkpt>
      <trkpt lat="47.26289" lon="-1.7854">
        <ele>66</ele>
        <time>2021-06-05T09:54:37.000Z</time>
      </trkpt>
      <trkpt lat="47.26282" lon="-1.78556">
        <ele>66</ele>
        <time>2021-06-05T09:54:39.000Z</time>
      </trkpt>
      <trkpt lat="47.26274" lon="-1.78571">
        <ele>66</ele>
        <time>2021-06-05T09:54:41.000Z</time>
      </trkpt>
      <trkpt lat="47.26271" lon="-1.78587">
        <ele>66</ele>
        <time>2021-06-05T09:54:43.000Z</time>
      </trkpt>
      <trkpt lat="47.2628" lon="-1.786">
        <ele>66</ele>
        <time>2021-06-05T09:54:45.000Z</time>
      </trkpt>
      <trkpt lat="47.26294" lon="-1.78603">
        <ele>65</ele>
        <time>2021-06-05T09:54:47.000Z</time>
      </trkpt>
      <trkpt lat="47.26307" lon="-1.78607">
        <ele>65</ele>
        <time>2021-06-05T09:54:49.000Z</time>
      </trkpt>
      <trkpt lat="47.2632" lon="-1.78612">
        <ele>66</ele>
        <time>2021-06-05T09:54:51.000Z</time>
      </trkpt>
      <trkpt lat="47.26333" lon="-1.78618">
        <ele>66</ele>
        <time>2021-06-05T09:54:53.000Z</time>
      </trkpt>
      <trkpt lat="47.26345" lon="-1.78625">
        <ele>66</ele>
        <time>2021-06-05T09:54:55.000Z</time>
      </trkpt>
      <trkpt lat="47.26355" lon="-1.78637">
        <ele>66</ele>
        <time>2021-06-05T09:54:57.000Z</time>
      </trkpt>
      <trkpt lat="47.26362" lon="-1.78654">
        <ele>66</ele>
        <time>2021-06-05T09:54:59.000Z</time>
      </trkpt>
      <trkpt lat="47.26368" lon="-1.78672">
        <ele>66</ele>
        <time>2021-06-05T09:55:01.000Z</time>
      </trkpt>
      <trkpt lat="47.26373" lon="-1.7869">
        <ele>65</ele>
        <time>2021-06-05T09:55:03.000Z</time>
      </trkpt>
      <trkpt lat="47.26378" lon="-1.78709">
        <ele>64</ele>
        <time>2021-06-05T09:55:05.000Z</time>
      </trkpt>
      <trkpt lat="47.26383" lon="-1.78729">
        <ele>64</ele>
        <time>2021-06-05T09:55:07.000Z</time>
      </trkpt>
      <trkpt lat="47.26388" lon="-1.78749">
        <ele>63</ele>
        <time>2021-06-05T09:55:09.000Z</time>
      </trkpt>
      <trkpt lat="47.26393" lon="-1.78769">
        <ele>63</ele>
        <time>2021-06-05T09:55:11.000Z</time>
      </trkpt>
      <trkpt lat="47.26399" lon="-1.7879">
        <ele>63</ele>
        <time>2021-06-05T09:55:13.000Z</time>
      </trkpt>
      <trkpt lat="47.26406" lon="-1.78814">
        <ele>62</ele>
        <time>2021-06-05T09:55:15.000Z</time>
      </trkpt>
      <trkpt lat="47.26413" lon="-1.78838">
        <ele>61</ele>
        <time>2021-06-05T09:55:17.000Z</time>
      </trkpt>
      <trkpt lat="47.26417" lon="-1.7885">
        <ele>61</ele>
        <time>2021-06-05T09:55:18.000Z</time>
      </trkpt>
      <trkpt lat="47.26422" lon="-1.78861">
        <ele>60</ele>
        <time>2021-06-05T09:55:19.000Z</time>
      </trkpt>
      <trkpt lat="47.26432" lon="-1.78883">
        <ele>59</ele>
        <time>2021-06-05T09:55:21.000Z</time>
      </trkpt>
      <trkpt lat="47.26442" lon="-1.78904">
        <ele>59</ele>
        <time>2021-06-05T09:55:23.000Z</time>
      </trkpt>
      <trkpt lat="47.26454" lon="-1.78921">
        <ele>59</ele>
        <time>2021-06-05T09:55:25.000Z</time>
      </trkpt>
      <trkpt lat="47.26466" lon="-1.78939">
        <ele>58</ele>
        <time>2021-06-05T09:55:27.000Z</time>
      </trkpt>
      <trkpt lat="47.26478" lon="-1.78957">
        <ele>57</ele>
        <time>2021-06-05T09:55:29.000Z</time>
      </trkpt>
      <trkpt lat="47.2649" lon="-1.78974">
        <ele>56</ele>
        <time>2021-06-05T09:55:31.000Z</time>
      </trkpt>
      <trkpt lat="47.26502" lon="-1.78991">
        <ele>55</ele>
        <time>2021-06-05T09:55:33.000Z</time>
      </trkpt>
      <trkpt lat="47.26514" lon="-1.79009">
        <ele>54</ele>
        <time>2021-06-05T09:55:35.000Z</time>
      </trkpt>
      <trkpt lat="47.26525" lon="-1.79025">
        <ele>54</ele>
        <time>2021-06-05T09:55:37.000Z</time>
      </trkpt>
      <trkpt lat="47.26541" lon="-1.7905">
        <ele>54</ele>
        <time>2021-06-05T09:55:40.000Z</time>
      </trkpt>
      <trkpt lat="47.26552" lon="-1.79066">
        <ele>54</ele>
        <time>2021-06-05T09:55:42.000Z</time>
      </trkpt>
      <trkpt lat="47.26564" lon="-1.7908">
        <ele>54</ele>
        <time>2021-06-05T09:55:44.000Z</time>
      </trkpt>
      <trkpt lat="47.26574" lon="-1.79095">
        <ele>54</ele>
        <time>2021-06-05T09:55:46.000Z</time>
      </trkpt>
      <trkpt lat="47.26584" lon="-1.7911">
        <ele>54</ele>
        <time>2021-06-05T09:55:48.000Z</time>
      </trkpt>
      <trkpt lat="47.26593" lon="-1.79126">
        <ele>54</ele>
        <time>2021-06-05T09:55:50.000Z</time>
      </trkpt>
      <trkpt lat="47.266" lon="-1.79142">
        <ele>54</ele>
        <time>2021-06-05T09:55:52.000Z</time>
      </trkpt>
      <trkpt lat="47.26606" lon="-1.79157">
        <ele>54</ele>
        <time>2021-06-05T09:55:54.000Z</time>
      </trkpt>
      <trkpt lat="47.26612" lon="-1.79172">
        <ele>54</ele>
        <time>2021-06-05T09:55:56.000Z</time>
      </trkpt>
      <trkpt lat="47.26618" lon="-1.79187">
        <ele>55</ele>
        <time>2021-06-05T09:55:58.000Z</time>
      </trkpt>
      <trkpt lat="47.26623" lon="-1.79201">
        <ele>56</ele>
        <time>2021-06-05T09:56:00.000Z</time>
      </trkpt>
      <trkpt lat="47.26629" lon="-1.79215">
        <ele>56</ele>
        <time>2021-06-05T09:56:02.000Z</time>
      </trkpt>
      <trkpt lat="47.26635" lon="-1.79229">
        <ele>57</ele>
        <time>2021-06-05T09:56:04.000Z</time>
      </trkpt>
      <trkpt lat="47.2664" lon="-1.79244">
        <ele>57</ele>
        <time>2021-06-05T09:56:06.000Z</time>
      </trkpt>
      <trkpt lat="47.26649" lon="-1.79267">
        <ele>57</ele>
        <time>2021-06-05T09:56:09.000Z</time>
      </trkpt>
      <trkpt lat="47.26655" lon="-1.79282">
        <ele>58</ele>
        <time>2021-06-05T09:56:11.000Z</time>
      </trkpt>
      <trkpt lat="47.26661" lon="-1.79296">
        <ele>58</ele>
        <time>2021-06-05T09:56:13.000Z</time>
      </trkpt>
      <trkpt lat="47.26667" lon="-1.7931">
        <ele>59</ele>
        <time>2021-06-05T09:56:15.000Z</time>
      </trkpt>
      <trkpt lat="47.26672" lon="-1.79324">
        <ele>60</ele>
        <time>2021-06-05T09:56:17.000Z</time>
      </trkpt>
      <trkpt lat="47.26677" lon="-1.79338">
        <ele>61</ele>
        <time>2021-06-05T09:56:19.000Z</time>
      </trkpt>
      <trkpt lat="47.26683" lon="-1.79353">
        <ele>61</ele>
        <time>2021-06-05T09:56:21.000Z</time>
      </trkpt>
      <trkpt lat="47.26689" lon="-1.79367">
        <ele>62</ele>
        <time>2021-06-05T09:56:23.000Z</time>
      </trkpt>
      <trkpt lat="47.26694" lon="-1.7938">
        <ele>62</ele>
        <time>2021-06-05T09:56:25.000Z</time>
      </trkpt>
      <trkpt lat="47.26701" lon="-1.79395">
        <ele>63</ele>
        <time>2021-06-05T09:56:28.000Z</time>
      </trkpt>
      <trkpt lat="47.26707" lon="-1.79412">
        <ele>63</ele>
        <time>2021-06-05T09:56:31.000Z</time>
      </trkpt>
      <trkpt lat="47.26714" lon="-1.79426">
        <ele>63</ele>
        <time>2021-06-05T09:56:33.000Z</time>
      </trkpt>
      <trkpt lat="47.26723" lon="-1.79438">
        <ele>63</ele>
        <time>2021-06-05T09:56:35.000Z</time>
      </trkpt>
      <trkpt lat="47.26732" lon="-1.7945">
        <ele>64</ele>
        <time>2021-06-05T09:56:37.000Z</time>
      </trkpt>
      <trkpt lat="47.26741" lon="-1.79461">
        <ele>64</ele>
        <time>2021-06-05T09:56:39.000Z</time>
      </trkpt>
      <trkpt lat="47.26749" lon="-1.79472">
        <ele>65</ele>
        <time>2021-06-05T09:56:41.000Z</time>
      </trkpt>
      <trkpt lat="47.26758" lon="-1.79484">
        <ele>65</ele>
        <time>2021-06-05T09:56:43.000Z</time>
      </trkpt>
      <trkpt lat="47.26766" lon="-1.79495">
        <ele>65</ele>
        <time>2021-06-05T09:56:45.000Z</time>
      </trkpt>
      <trkpt lat="47.26774" lon="-1.79506">
        <ele>64</ele>
        <time>2021-06-05T09:56:47.000Z</time>
      </trkpt>
      <trkpt lat="47.26781" lon="-1.79518">
        <ele>65</ele>
        <time>2021-06-05T09:56:49.000Z</time>
      </trkpt>
      <trkpt lat="47.26789" lon="-1.79531">
        <ele>65</ele>
        <time>2021-06-05T09:56:51.000Z</time>
      </trkpt>
      <trkpt lat="47.26796" lon="-1.79544">
        <ele>65</ele>
        <time>2021-06-05T09:56:53.000Z</time>
      </trkpt>
      <trkpt lat="47.26804" lon="-1.79557">
        <ele>65</ele>
        <time>2021-06-05T09:56:55.000Z</time>
      </trkpt>
      <trkpt lat="47.26811" lon="-1.79571">
        <ele>65</ele>
        <time>2021-06-05T09:56:57.000Z</time>
      </trkpt>
      <trkpt lat="47.26818" lon="-1.79583">
        <ele>65</ele>
        <time>2021-06-05T09:56:59.000Z</time>
      </trkpt>
      <trkpt lat="47.26825" lon="-1.79596">
        <ele>65</ele>
        <time>2021-06-05T09:57:01.000Z</time>
      </trkpt>
      <trkpt lat="47.26833" lon="-1.79609">
        <ele>65</ele>
        <time>2021-06-05T09:57:03.000Z</time>
      </trkpt>
      <trkpt lat="47.2684" lon="-1.79623">
        <ele>65</ele>
        <time>2021-06-05T09:57:05.000Z</time>
      </trkpt>
      <trkpt lat="47.26848" lon="-1.79637">
        <ele>65</ele>
        <time>2021-06-05T09:57:07.000Z</time>
      </trkpt>
      <trkpt lat="47.26855" lon="-1.79651">
        <ele>65</ele>
        <time>2021-06-05T09:57:09.000Z</time>
      </trkpt>
      <trkpt lat="47.26862" lon="-1.79665">
        <ele>65</ele>
        <time>2021-06-05T09:57:11.000Z</time>
      </trkpt>
      <trkpt lat="47.26869" lon="-1.79679">
        <ele>65</ele>
        <time>2021-06-05T09:57:13.000Z</time>
      </trkpt>
      <trkpt lat="47.26877" lon="-1.79694">
        <ele>65</ele>
        <time>2021-06-05T09:57:15.000Z</time>
      </trkpt>
      <trkpt lat="47.26885" lon="-1.7971">
        <ele>65</ele>
        <time>2021-06-05T09:57:17.000Z</time>
      </trkpt>
      <trkpt lat="47.26894" lon="-1.79727">
        <ele>64</ele>
        <time>2021-06-05T09:57:19.000Z</time>
      </trkpt>
      <trkpt lat="47.26902" lon="-1.79744">
        <ele>64</ele>
        <time>2021-06-05T09:57:21.000Z</time>
      </trkpt>
      <trkpt lat="47.26912" lon="-1.79761">
        <ele>64</ele>
        <time>2021-06-05T09:57:23.000Z</time>
      </trkpt>
      <trkpt lat="47.26921" lon="-1.79778">
        <ele>63</ele>
        <time>2021-06-05T09:57:25.000Z</time>
      </trkpt>
      <trkpt lat="47.26932" lon="-1.79795">
        <ele>63</ele>
        <time>2021-06-05T09:57:27.000Z</time>
      </trkpt>
      <trkpt lat="47.26943" lon="-1.79812">
        <ele>62</ele>
        <time>2021-06-05T09:57:29.000Z</time>
      </trkpt>
      <trkpt lat="47.26954" lon="-1.79829">
        <ele>62</ele>
        <time>2021-06-05T09:57:31.000Z</time>
      </trkpt>
      <trkpt lat="47.26966" lon="-1.79846">
        <ele>61</ele>
        <time>2021-06-05T09:57:33.000Z</time>
      </trkpt>
      <trkpt lat="47.26976" lon="-1.79865">
        <ele>60</ele>
        <time>2021-06-05T09:57:35.000Z</time>
      </trkpt>
      <trkpt lat="47.26985" lon="-1.79885">
        <ele>60</ele>
        <time>2021-06-05T09:57:37.000Z</time>
      </trkpt>
      <trkpt lat="47.26993" lon="-1.79906">
        <ele>60</ele>
        <time>2021-06-05T09:57:39.000Z</time>
      </trkpt>
      <trkpt lat="47.26999" lon="-1.79928">
        <ele>59</ele>
        <time>2021-06-05T09:57:41.000Z</time>
      </trkpt>
      <trkpt lat="47.27005" lon="-1.79949">
        <ele>59</ele>
        <time>2021-06-05T09:57:43.000Z</time>
      </trkpt>
      <trkpt lat="47.27011" lon="-1.79971">
        <ele>59</ele>
        <time>2021-06-05T09:57:45.000Z</time>
      </trkpt>
      <trkpt lat="47.27017" lon="-1.79995">
        <ele>59</ele>
        <time>2021-06-05T09:57:47.000Z</time>
      </trkpt>
      <trkpt lat="47.27024" lon="-1.80017">
        <ele>58</ele>
        <time>2021-06-05T09:57:49.000Z</time>
      </trkpt>
      <trkpt lat="47.27033" lon="-1.80036">
        <ele>58</ele>
        <time>2021-06-05T09:57:51.000Z</time>
      </trkpt>
      <trkpt lat="47.27046" lon="-1.8005">
        <ele>58</ele>
        <time>2021-06-05T09:57:53.000Z</time>
      </trkpt>
      <trkpt lat="47.27059" lon="-1.80062">
        <ele>57</ele>
        <time>2021-06-05T09:57:55.000Z</time>
      </trkpt>
      <trkpt lat="47.27073" lon="-1.80075">
        <ele>57</ele>
        <time>2021-06-05T09:57:57.000Z</time>
      </trkpt>
      <trkpt lat="47.27086" lon="-1.80088">
        <ele>57</ele>
        <time>2021-06-05T09:57:59.000Z</time>
      </trkpt>
      <trkpt lat="47.27099" lon="-1.801">
        <ele>57</ele>
        <time>2021-06-05T09:58:01.000Z</time>
      </trkpt>
      <trkpt lat="47.27111" lon="-1.80113">
        <ele>56</ele>
        <time>2021-06-05T09:58:03.000Z</time>
      </trkpt>
      <trkpt lat="47.27124" lon="-1.80125">
        <ele>56</ele>
        <time>2021-06-05T09:58:05.000Z</time>
      </trkpt>
      <trkpt lat="47.27136" lon="-1.80137">
        <ele>56</ele>
        <time>2021-06-05T09:58:07.000Z</time>
      </trkpt>
      <trkpt lat="47.27149" lon="-1.80149">
        <ele>56</ele>
        <time>2021-06-05T09:58:09.000Z</time>
      </trkpt>
      <trkpt lat="47.27161" lon="-1.8016">
        <ele>56</ele>
        <time>2021-06-05T09:58:11.000Z</time>
      </trkpt>
      <trkpt lat="47.27174" lon="-1.80171">
        <ele>56</ele>
        <time>2021-06-05T09:58:13.000Z</time>
      </trkpt>
      <trkpt lat="47.27186" lon="-1.80184">
        <ele>56</ele>
        <time>2021-06-05T09:58:15.000Z</time>
      </trkpt>
      <trkpt lat="47.27199" lon="-1.80196">
        <ele>56</ele>
        <time>2021-06-05T09:58:17.000Z</time>
      </trkpt>
      <trkpt lat="47.27211" lon="-1.80207">
        <ele>56</ele>
        <time>2021-06-05T09:58:19.000Z</time>
      </trkpt>
      <trkpt lat="47.27223" lon="-1.80217">
        <ele>56</ele>
        <time>2021-06-05T09:58:21.000Z</time>
      </trkpt>
      <trkpt lat="47.27233" lon="-1.80225">
        <ele>56</ele>
        <time>2021-06-05T09:58:23.000Z</time>
      </trkpt>
      <trkpt lat="47.2724" lon="-1.80235">
        <ele>55</ele>
        <time>2021-06-05T09:58:26.000Z</time>
      </trkpt>
      <trkpt lat="47.27238" lon="-1.8025">
        <ele>55</ele>
        <time>2021-06-05T09:58:28.000Z</time>
      </trkpt>
      <trkpt lat="47.27231" lon="-1.80266">
        <ele>55</ele>
        <time>2021-06-05T09:58:30.000Z</time>
      </trkpt>
      <trkpt lat="47.27224" lon="-1.80283">
        <ele>55</ele>
        <time>2021-06-05T09:58:32.000Z</time>
      </trkpt>
      <trkpt lat="47.27216" lon="-1.80301">
        <ele>55</ele>
        <time>2021-06-05T09:58:34.000Z</time>
      </trkpt>
      <trkpt lat="47.27209" lon="-1.80318">
        <ele>55</ele>
        <time>2021-06-05T09:58:36.000Z</time>
      </trkpt>
      <trkpt lat="47.27202" lon="-1.80337">
        <ele>55</ele>
        <time>2021-06-05T09:58:38.000Z</time>
      </trkpt>
      <trkpt lat="47.27195" lon="-1.80355">
        <ele>55</ele>
        <time>2021-06-05T09:58:40.000Z</time>
      </trkpt>
      <trkpt lat="47.2719" lon="-1.80374">
        <ele>55</ele>
        <time>2021-06-05T09:58:42.000Z</time>
      </trkpt>
      <trkpt lat="47.27187" lon="-1.80394">
        <ele>55</ele>
        <time>2021-06-05T09:58:44.000Z</time>
      </trkpt>
      <trkpt lat="47.27187" lon="-1.80413">
        <ele>55</ele>
        <time>2021-06-05T09:58:46.000Z</time>
      </trkpt>
      <trkpt lat="47.27189" lon="-1.80432">
        <ele>55</ele>
        <time>2021-06-05T09:58:48.000Z</time>
      </trkpt>
      <trkpt lat="47.27192" lon="-1.8045">
        <ele>56</ele>
        <time>2021-06-05T09:58:50.000Z</time>
      </trkpt>
      <trkpt lat="47.27195" lon="-1.80469">
        <ele>57</ele>
        <time>2021-06-05T09:58:52.000Z</time>
      </trkpt>
      <trkpt lat="47.27198" lon="-1.80487">
        <ele>58</ele>
        <time>2021-06-05T09:58:54.000Z</time>
      </trkpt>
      <trkpt lat="47.27202" lon="-1.80505">
        <ele>59</ele>
        <time>2021-06-05T09:58:56.000Z</time>
      </trkpt>
      <trkpt lat="47.27205" lon="-1.80523">
        <ele>59</ele>
        <time>2021-06-05T09:58:58.000Z</time>
      </trkpt>
      <trkpt lat="47.27208" lon="-1.80541">
        <ele>60</ele>
        <time>2021-06-05T09:59:00.000Z</time>
      </trkpt>
      <trkpt lat="47.27212" lon="-1.80559">
        <ele>61</ele>
        <time>2021-06-05T09:59:02.000Z</time>
      </trkpt>
      <trkpt lat="47.27215" lon="-1.80577">
        <ele>61</ele>
        <time>2021-06-05T09:59:04.000Z</time>
      </trkpt>
      <trkpt lat="47.27219" lon="-1.80593">
        <ele>62</ele>
        <time>2021-06-05T09:59:06.000Z</time>
      </trkpt>
      <trkpt lat="47.27222" lon="-1.80611">
        <ele>62</ele>
        <time>2021-06-05T09:59:08.000Z</time>
      </trkpt>
      <trkpt lat="47.27226" lon="-1.80628">
        <ele>62</ele>
        <time>2021-06-05T09:59:10.000Z</time>
      </trkpt>
      <trkpt lat="47.2723" lon="-1.80645">
        <ele>62</ele>
        <time>2021-06-05T09:59:12.000Z</time>
      </trkpt>
      <trkpt lat="47.27234" lon="-1.80662">
        <ele>63</ele>
        <time>2021-06-05T09:59:14.000Z</time>
      </trkpt>
      <trkpt lat="47.27239" lon="-1.80679">
        <ele>63</ele>
        <time>2021-06-05T09:59:16.000Z</time>
      </trkpt>
      <trkpt lat="47.27245" lon="-1.80695">
        <ele>64</ele>
        <time>2021-06-05T09:59:18.000Z</time>
      </trkpt>
      <trkpt lat="47.2725" lon="-1.80712">
        <ele>64</ele>
        <time>2021-06-05T09:59:20.000Z</time>
      </trkpt>
      <trkpt lat="47.27255" lon="-1.80729">
        <ele>64</ele>
        <time>2021-06-05T09:59:22.000Z</time>
      </trkpt>
      <trkpt lat="47.2726" lon="-1.80745">
        <ele>64</ele>
        <time>2021-06-05T09:59:24.000Z</time>
      </trkpt>
      <trkpt lat="47.27266" lon="-1.80761">
        <ele>64</ele>
        <time>2021-06-05T09:59:26.000Z</time>
      </trkpt>
      <trkpt lat="47.27271" lon="-1.80778">
        <ele>63</ele>
        <time>2021-06-05T09:59:28.000Z</time>
      </trkpt>
      <trkpt lat="47.27277" lon="-1.80795">
        <ele>63</ele>
        <time>2021-06-05T09:59:30.000Z</time>
      </trkpt>
      <trkpt lat="47.27282" lon="-1.80811">
        <ele>64</ele>
        <time>2021-06-05T09:59:32.000Z</time>
      </trkpt>
      <trkpt lat="47.27287" lon="-1.80827">
        <ele>64</ele>
        <time>2021-06-05T09:59:34.000Z</time>
      </trkpt>
      <trkpt lat="47.27292" lon="-1.80843">
        <ele>64</ele>
        <time>2021-06-05T09:59:36.000Z</time>
      </trkpt>
      <trkpt lat="47.27297" lon="-1.8086">
        <ele>64</ele>
        <time>2021-06-05T09:59:38.000Z</time>
      </trkpt>
      <trkpt lat="47.27302" lon="-1.80877">
        <ele>63</ele>
        <time>2021-06-05T09:59:40.000Z</time>
      </trkpt>
      <trkpt lat="47.27306" lon="-1.80894">
        <ele>64</ele>
        <time>2021-06-05T09:59:42.000Z</time>
      </trkpt>
      <trkpt lat="47.2731" lon="-1.80912">
        <ele>64</ele>
        <time>2021-06-05T09:59:44.000Z</time>
      </trkpt>
      <trkpt lat="47.27314" lon="-1.8093">
        <ele>64</ele>
        <time>2021-06-05T09:59:46.000Z</time>
      </trkpt>
      <trkpt lat="47.27318" lon="-1.80947">
        <ele>64</ele>
        <time>2021-06-05T09:59:48.000Z</time>
      </trkpt>
      <trkpt lat="47.27322" lon="-1.80965">
        <ele>64</ele>
        <time>2021-06-05T09:59:50.000Z</time>
      </trkpt>
      <trkpt lat="47.27325" lon="-1.80983">
        <ele>64</ele>
        <time>2021-06-05T09:59:52.000Z</time>
      </trkpt>
      <trkpt lat="47.27329" lon="-1.81">
        <ele>64</ele>
        <time>2021-06-05T09:59:54.000Z</time>
      </trkpt>
      <trkpt lat="47.27332" lon="-1.81017">
        <ele>64</ele>
        <time>2021-06-05T09:59:56.000Z</time>
      </trkpt>
      <trkpt lat="47.27335" lon="-1.81035">
        <ele>64</ele>
        <time>2021-06-05T09:59:58.000Z</time>
      </trkpt>
      <trkpt lat="47.27338" lon="-1.81052">
        <ele>64</ele>
        <time>2021-06-05T10:00:00.000Z</time>
      </trkpt>
      <trkpt lat="47.2734" lon="-1.8107">
        <ele>63</ele>
        <time>2021-06-05T10:00:02.000Z</time>
      </trkpt>
      <trkpt lat="47.27341" lon="-1.81088">
        <ele>64</ele>
        <time>2021-06-05T10:00:04.000Z</time>
      </trkpt>
      <trkpt lat="47.27342" lon="-1.81107">
        <ele>64</ele>
        <time>2021-06-05T10:00:06.000Z</time>
      </trkpt>
      <trkpt lat="47.27341" lon="-1.81125">
        <ele>64</ele>
        <time>2021-06-05T10:00:08.000Z</time>
      </trkpt>
      <trkpt lat="47.27339" lon="-1.81145">
        <ele>64</ele>
        <time>2021-06-05T10:00:10.000Z</time>
      </trkpt>
      <trkpt lat="47.27337" lon="-1.81164">
        <ele>64</ele>
        <time>2021-06-05T10:00:12.000Z</time>
      </trkpt>
      <trkpt lat="47.27334" lon="-1.81183">
        <ele>64</ele>
        <time>2021-06-05T10:00:14.000Z</time>
      </trkpt>
      <trkpt lat="47.27332" lon="-1.81202">
        <ele>64</ele>
        <time>2021-06-05T10:00:16.000Z</time>
      </trkpt>
      <trkpt lat="47.27331" lon="-1.8122">
        <ele>64</ele>
        <time>2021-06-05T10:00:18.000Z</time>
      </trkpt>
      <trkpt lat="47.27331" lon="-1.81239">
        <ele>64</ele>
        <time>2021-06-05T10:00:20.000Z</time>
      </trkpt>
      <trkpt lat="47.27333" lon="-1.81258">
        <ele>64</ele>
        <time>2021-06-05T10:00:22.000Z</time>
      </trkpt>
      <trkpt lat="47.27337" lon="-1.81276">
        <ele>64</ele>
        <time>2021-06-05T10:00:24.000Z</time>
      </trkpt>
      <trkpt lat="47.27341" lon="-1.81294">
        <ele>65</ele>
        <time>2021-06-05T10:00:26.000Z</time>
      </trkpt>
      <trkpt lat="47.27345" lon="-1.81312">
        <ele>65</ele>
        <time>2021-06-05T10:00:28.000Z</time>
      </trkpt>
      <trkpt lat="47.2735" lon="-1.8133">
        <ele>64</ele>
        <time>2021-06-05T10:00:30.000Z</time>
      </trkpt>
      <trkpt lat="47.27354" lon="-1.81348">
        <ele>64</ele>
        <time>2021-06-05T10:00:32.000Z</time>
      </trkpt>
      <trkpt lat="47.27359" lon="-1.81365">
        <ele>64</ele>
        <time>2021-06-05T10:00:34.000Z</time>
      </trkpt>
      <trkpt lat="47.27365" lon="-1.81382">
        <ele>64</ele>
        <time>2021-06-05T10:00:36.000Z</time>
      </trkpt>
      <trkpt lat="47.27371" lon="-1.81399">
        <ele>64</ele>
        <time>2021-06-05T10:00:38.000Z</time>
      </trkpt>
      <trkpt lat="47.27377" lon="-1.81415">
        <ele>64</ele>
        <time>2021-06-05T10:00:40.000Z</time>
      </trkpt>
      <trkpt lat="47.27383" lon="-1.81431">
        <ele>64</ele>
        <time>2021-06-05T10:00:42.000Z</time>
      </trkpt>
      <trkpt lat="47.27389" lon="-1.81446">
        <ele>64</ele>
        <time>2021-06-05T10:00:44.000Z</time>
      </trkpt>
      <trkpt lat="47.27396" lon="-1.81462">
        <ele>63</ele>
        <time>2021-06-05T10:00:46.000Z</time>
      </trkpt>
      <trkpt lat="47.27403" lon="-1.81477">
        <ele>64</ele>
        <time>2021-06-05T10:00:48.000Z</time>
      </trkpt>
      <trkpt lat="47.27412" lon="-1.81491">
        <ele>63</ele>
        <time>2021-06-05T10:00:50.000Z</time>
      </trkpt>
      <trkpt lat="47.27421" lon="-1.81505">
        <ele>64</ele>
        <time>2021-06-05T10:00:52.000Z</time>
      </trkpt>
      <trkpt lat="47.2743" lon="-1.81518">
        <ele>64</ele>
        <time>2021-06-05T10:00:54.000Z</time>
      </trkpt>
      <trkpt lat="47.2744" lon="-1.81531">
        <ele>63</ele>
        <time>2021-06-05T10:00:56.000Z</time>
      </trkpt>
      <trkpt lat="47.2745" lon="-1.81544">
        <ele>63</ele>
        <time>2021-06-05T10:00:58.000Z</time>
      </trkpt>
      <trkpt lat="47.27459" lon="-1.81558">
        <ele>63</ele>
        <time>2021-06-05T10:01:00.000Z</time>
      </trkpt>
      <trkpt lat="47.27469" lon="-1.81571">
        <ele>63</ele>
        <time>2021-06-05T10:01:02.000Z</time>
      </trkpt>
      <trkpt lat="47.27478" lon="-1.81585">
        <ele>62</ele>
        <time>2021-06-05T10:01:04.000Z</time>
      </trkpt>
      <trkpt lat="47.27489" lon="-1.81598">
        <ele>62</ele>
        <time>2021-06-05T10:01:06.000Z</time>
      </trkpt>
      <trkpt lat="47.27499" lon="-1.81613">
        <ele>61</ele>
        <time>2021-06-05T10:01:08.000Z</time>
      </trkpt>
      <trkpt lat="47.2751" lon="-1.81627">
        <ele>61</ele>
        <time>2021-06-05T10:01:10.000Z</time>
      </trkpt>
      <trkpt lat="47.27521" lon="-1.81642">
        <ele>61</ele>
        <time>2021-06-05T10:01:12.000Z</time>
      </trkpt>
      <trkpt lat="47.27532" lon="-1.81656">
        <ele>61</ele>
        <time>2021-06-05T10:01:14.000Z</time>
      </trkpt>
      <trkpt lat="47.27543" lon="-1.81671">
        <ele>61</ele>
        <time>2021-06-05T10:01:16.000Z</time>
      </trkpt>
      <trkpt lat="47.27555" lon="-1.81687">
        <ele>61</ele>
        <time>2021-06-05T10:01:18.000Z</time>
      </trkpt>
      <trkpt lat="47.27566" lon="-1.81702">
        <ele>61</ele>
        <time>2021-06-05T10:01:20.000Z</time>
      </trkpt>
      <trkpt lat="47.27577" lon="-1.81717">
        <ele>61</ele>
        <time>2021-06-05T10:01:22.000Z</time>
      </trkpt>
      <trkpt lat="47.27588" lon="-1.81732">
        <ele>61</ele>
        <time>2021-06-05T10:01:24.000Z</time>
      </trkpt>
      <trkpt lat="47.276" lon="-1.81748">
        <ele>60</ele>
        <time>2021-06-05T10:01:26.000Z</time>
      </trkpt>
      <trkpt lat="47.2761" lon="-1.81764">
        <ele>60</ele>
        <time>2021-06-05T10:01:28.000Z</time>
      </trkpt>
      <trkpt lat="47.27619" lon="-1.81781">
        <ele>60</ele>
        <time>2021-06-05T10:01:30.000Z</time>
      </trkpt>
      <trkpt lat="47.27626" lon="-1.81799">
        <ele>60</ele>
        <time>2021-06-05T10:01:32.000Z</time>
      </trkpt>
      <trkpt lat="47.27632" lon="-1.81819">
        <ele>60</ele>
        <time>2021-06-05T10:01:34.000Z</time>
      </trkpt>
      <trkpt lat="47.27638" lon="-1.81838">
        <ele>59</ele>
        <time>2021-06-05T10:01:36.000Z</time>
      </trkpt>
      <trkpt lat="47.27644" lon="-1.81858">
        <ele>59</ele>
        <time>2021-06-05T10:01:38.000Z</time>
      </trkpt>
      <trkpt lat="47.27649" lon="-1.81877">
        <ele>59</ele>
        <time>2021-06-05T10:01:40.000Z</time>
      </trkpt>
      <trkpt lat="47.27654" lon="-1.81897">
        <ele>59</ele>
        <time>2021-06-05T10:01:42.000Z</time>
      </trkpt>
      <trkpt lat="47.27659" lon="-1.81918">
        <ele>59</ele>
        <time>2021-06-05T10:01:44.000Z</time>
      </trkpt>
      <trkpt lat="47.27664" lon="-1.81938">
        <ele>59</ele>
        <time>2021-06-05T10:01:46.000Z</time>
      </trkpt>
      <trkpt lat="47.27669" lon="-1.81958">
        <ele>59</ele>
        <time>2021-06-05T10:01:48.000Z</time>
      </trkpt>
      <trkpt lat="47.27672" lon="-1.8198">
        <ele>58</ele>
        <time>2021-06-05T10:01:50.000Z</time>
      </trkpt>
      <trkpt lat="47.27675" lon="-1.82001">
        <ele>59</ele>
        <time>2021-06-05T10:01:52.000Z</time>
      </trkpt>
      <trkpt lat="47.27678" lon="-1.82022">
        <ele>59</ele>
        <time>2021-06-05T10:01:54.000Z</time>
      </trkpt>
      <trkpt lat="47.2768" lon="-1.82042">
        <ele>59</ele>
        <time>2021-06-05T10:01:56.000Z</time>
      </trkpt>
      <trkpt lat="47.27682" lon="-1.82063">
        <ele>59</ele>
        <time>2021-06-05T10:01:58.000Z</time>
      </trkpt>
      <trkpt lat="47.27684" lon="-1.82084">
        <ele>59</ele>
        <time>2021-06-05T10:02:00.000Z</time>
      </trkpt>
      <trkpt lat="47.27685" lon="-1.82105">
        <ele>59</ele>
        <time>2021-06-05T10:02:02.000Z</time>
      </trkpt>
      <trkpt lat="47.27687" lon="-1.82126">
        <ele>59</ele>
        <time>2021-06-05T10:02:04.000Z</time>
      </trkpt>
      <trkpt lat="47.27689" lon="-1.82147">
        <ele>58</ele>
        <time>2021-06-05T10:02:06.000Z</time>
      </trkpt>
      <trkpt lat="47.27692" lon="-1.82168">
        <ele>58</ele>
        <time>2021-06-05T10:02:08.000Z</time>
      </trkpt>
      <trkpt lat="47.27695" lon="-1.82189">
        <ele>58</ele>
        <time>2021-06-05T10:02:10.000Z</time>
      </trkpt>
      <trkpt lat="47.27697" lon="-1.8221">
        <ele>58</ele>
        <time>2021-06-05T10:02:12.000Z</time>
      </trkpt>
      <trkpt lat="47.27699" lon="-1.82231">
        <ele>58</ele>
        <time>2021-06-05T10:02:14.000Z</time>
      </trkpt>
      <trkpt lat="47.27702" lon="-1.82252">
        <ele>58</ele>
        <time>2021-06-05T10:02:16.000Z</time>
      </trkpt>
      <trkpt lat="47.27704" lon="-1.82273">
        <ele>58</ele>
        <time>2021-06-05T10:02:18.000Z</time>
      </trkpt>
      <trkpt lat="47.27707" lon="-1.82294">
        <ele>58</ele>
        <time>2021-06-05T10:02:20.000Z</time>
      </trkpt>
      <trkpt lat="47.27709" lon="-1.82316">
        <ele>57</ele>
        <time>2021-06-05T10:02:22.000Z</time>
      </trkpt>
      <trkpt lat="47.27713" lon="-1.82337">
        <ele>58</ele>
        <time>2021-06-05T10:02:24.000Z</time>
      </trkpt>
      <trkpt lat="47.27715" lon="-1.82359">
        <ele>57</ele>
        <time>2021-06-05T10:02:26.000Z</time>
      </trkpt>
      <trkpt lat="47.27718" lon="-1.82379">
        <ele>58</ele>
        <time>2021-06-05T10:02:28.000Z</time>
      </trkpt>
      <trkpt lat="47.27721" lon="-1.824">
        <ele>58</ele>
        <time>2021-06-05T10:02:30.000Z</time>
      </trkpt>
      <trkpt lat="47.27723" lon="-1.82422">
        <ele>58</ele>
        <time>2021-06-05T10:02:32.000Z</time>
      </trkpt>
      <trkpt lat="47.27726" lon="-1.82444">
        <ele>58</ele>
        <time>2021-06-05T10:02:34.000Z</time>
      </trkpt>
      <trkpt lat="47.27729" lon="-1.82465">
        <ele>57</ele>
        <time>2021-06-05T10:02:36.000Z</time>
      </trkpt>
      <trkpt lat="47.27731" lon="-1.82486">
        <ele>57</ele>
        <time>2021-06-05T10:02:38.000Z</time>
      </trkpt>
      <trkpt lat="47.27734" lon="-1.82506">
        <ele>58</ele>
        <time>2021-06-05T10:02:40.000Z</time>
      </trkpt>
      <trkpt lat="47.27736" lon="-1.82528">
        <ele>58</ele>
        <time>2021-06-05T10:02:42.000Z</time>
      </trkpt>
      <trkpt lat="47.27738" lon="-1.82549">
        <ele>58</ele>
        <time>2021-06-05T10:02:44.000Z</time>
      </trkpt>
      <trkpt lat="47.27741" lon="-1.8257">
        <ele>57</ele>
        <time>2021-06-05T10:02:46.000Z</time>
      </trkpt>
      <trkpt lat="47.27744" lon="-1.82592">
        <ele>57</ele>
        <time>2021-06-05T10:02:48.000Z</time>
      </trkpt>
      <trkpt lat="47.27746" lon="-1.82613">
        <ele>57</ele>
        <time>2021-06-05T10:02:50.000Z</time>
      </trkpt>
      <trkpt lat="47.27749" lon="-1.82634">
        <ele>57</ele>
        <time>2021-06-05T10:02:52.000Z</time>
      </trkpt>
      <trkpt lat="47.27752" lon="-1.82654">
        <ele>57</ele>
        <time>2021-06-05T10:02:54.000Z</time>
      </trkpt>
      <trkpt lat="47.27758" lon="-1.82674">
        <ele>57</ele>
        <time>2021-06-05T10:02:56.000Z</time>
      </trkpt>
      <trkpt lat="47.27766" lon="-1.82695">
        <ele>56</ele>
        <time>2021-06-05T10:02:58.000Z</time>
      </trkpt>
      <trkpt lat="47.27774" lon="-1.82714">
        <ele>55</ele>
        <time>2021-06-05T10:03:00.000Z</time>
      </trkpt>
      <trkpt lat="47.27782" lon="-1.82732">
        <ele>55</ele>
        <time>2021-06-05T10:03:02.000Z</time>
      </trkpt>
      <trkpt lat="47.27791" lon="-1.8275">
        <ele>55</ele>
        <time>2021-06-05T10:03:04.000Z</time>
      </trkpt>
      <trkpt lat="47.27799" lon="-1.82768">
        <ele>55</ele>
        <time>2021-06-05T10:03:06.000Z</time>
      </trkpt>
      <trkpt lat="47.27807" lon="-1.82787">
        <ele>55</ele>
        <time>2021-06-05T10:03:08.000Z</time>
      </trkpt>
      <trkpt lat="47.27814" lon="-1.82807">
        <ele>54</ele>
        <time>2021-06-05T10:03:10.000Z</time>
      </trkpt>
      <trkpt lat="47.27821" lon="-1.82827">
        <ele>53</ele>
        <time>2021-06-05T10:03:12.000Z</time>
      </trkpt>
      <trkpt lat="47.27826" lon="-1.82847">
        <ele>53</ele>
        <time>2021-06-05T10:03:14.000Z</time>
      </trkpt>
      <trkpt lat="47.27832" lon="-1.82868">
        <ele>53</ele>
        <time>2021-06-05T10:03:16.000Z</time>
      </trkpt>
      <trkpt lat="47.27836" lon="-1.82888">
        <ele>54</ele>
        <time>2021-06-05T10:03:18.000Z</time>
      </trkpt>
      <trkpt lat="47.2784" lon="-1.82909">
        <ele>53</ele>
        <time>2021-06-05T10:03:20.000Z</time>
      </trkpt>
      <trkpt lat="47.27843" lon="-1.8293">
        <ele>54</ele>
        <time>2021-06-05T10:03:22.000Z</time>
      </trkpt>
      <trkpt lat="47.27847" lon="-1.8295">
        <ele>54</ele>
        <time>2021-06-05T10:03:24.000Z</time>
      </trkpt>
      <trkpt lat="47.27851" lon="-1.8297">
        <ele>54</ele>
        <time>2021-06-05T10:03:26.000Z</time>
      </trkpt>
      <trkpt lat="47.27856" lon="-1.82991">
        <ele>54</ele>
        <time>2021-06-05T10:03:28.000Z</time>
      </trkpt>
      <trkpt lat="47.27861" lon="-1.83011">
        <ele>54</ele>
        <time>2021-06-05T10:03:30.000Z</time>
      </trkpt>
      <trkpt lat="47.27865" lon="-1.8303">
        <ele>54</ele>
        <time>2021-06-05T10:03:32.000Z</time>
      </trkpt>
      <trkpt lat="47.2787" lon="-1.83051">
        <ele>54</ele>
        <time>2021-06-05T10:03:34.000Z</time>
      </trkpt>
      <trkpt lat="47.27874" lon="-1.83071">
        <ele>54</ele>
        <time>2021-06-05T10:03:36.000Z</time>
      </trkpt>
      <trkpt lat="47.27878" lon="-1.8309">
        <ele>54</ele>
        <time>2021-06-05T10:03:38.000Z</time>
      </trkpt>
      <trkpt lat="47.27882" lon="-1.83111">
        <ele>54</ele>
        <time>2021-06-05T10:03:40.000Z</time>
      </trkpt>
      <trkpt lat="47.27886" lon="-1.83131">
        <ele>54</ele>
        <time>2021-06-05T10:03:42.000Z</time>
      </trkpt>
      <trkpt lat="47.2789" lon="-1.83151">
        <ele>54</ele>
        <time>2021-06-05T10:03:44.000Z</time>
      </trkpt>
      <trkpt lat="47.27894" lon="-1.8317">
        <ele>54</ele>
        <time>2021-06-05T10:03:46.000Z</time>
      </trkpt>
      <trkpt lat="47.27898" lon="-1.83189">
        <ele>54</ele>
        <time>2021-06-05T10:03:48.000Z</time>
      </trkpt>
      <trkpt lat="47.27902" lon="-1.83208">
        <ele>55</ele>
        <time>2021-06-05T10:03:50.000Z</time>
      </trkpt>
      <trkpt lat="47.27906" lon="-1.83227">
        <ele>55</ele>
        <time>2021-06-05T10:03:52.000Z</time>
      </trkpt>
      <trkpt lat="47.2791" lon="-1.83247">
        <ele>54</ele>
        <time>2021-06-05T10:03:54.000Z</time>
      </trkpt>
      <trkpt lat="47.27916" lon="-1.83266">
        <ele>53</ele>
        <time>2021-06-05T10:03:56.000Z</time>
      </trkpt>
      <trkpt lat="47.27922" lon="-1.83285">
        <ele>53</ele>
        <time>2021-06-05T10:03:58.000Z</time>
      </trkpt>
      <trkpt lat="47.27928" lon="-1.83304">
        <ele>53</ele>
        <time>2021-06-05T10:04:00.000Z</time>
      </trkpt>
      <trkpt lat="47.27935" lon="-1.83322">
        <ele>53</ele>
        <time>2021-06-05T10:04:02.000Z</time>
      </trkpt>
      <trkpt lat="47.27942" lon="-1.8334">
        <ele>53</ele>
        <time>2021-06-05T10:04:04.000Z</time>
      </trkpt>
      <trkpt lat="47.2795" lon="-1.83357">
        <ele>52</ele>
        <time>2021-06-05T10:04:06.000Z</time>
      </trkpt>
      <trkpt lat="47.27958" lon="-1.83374">
        <ele>53</ele>
        <time>2021-06-05T10:04:08.000Z</time>
      </trkpt>
      <trkpt lat="47.27966" lon="-1.8339">
        <ele>53</ele>
        <time>2021-06-05T10:04:10.000Z</time>
      </trkpt>
      <trkpt lat="47.27974" lon="-1.83407">
        <ele>53</ele>
        <time>2021-06-05T10:04:12.000Z</time>
      </trkpt>
      <trkpt lat="47.27982" lon="-1.83424">
        <ele>53</ele>
        <time>2021-06-05T10:04:14.000Z</time>
      </trkpt>
      <trkpt lat="47.2799" lon="-1.83441">
        <ele>53</ele>
        <time>2021-06-05T10:04:16.000Z</time>
      </trkpt>
      <trkpt lat="47.27998" lon="-1.83458">
        <ele>52</ele>
        <time>2021-06-05T10:04:18.000Z</time>
      </trkpt>
      <trkpt lat="47.28007" lon="-1.83476">
        <ele>52</ele>
        <time>2021-06-05T10:04:20.000Z</time>
      </trkpt>
      <trkpt lat="47.28015" lon="-1.83494">
        <ele>52</ele>
        <time>2021-06-05T10:04:22.000Z</time>
      </trkpt>
      <trkpt lat="47.28023" lon="-1.83513">
        <ele>52</ele>
        <time>2021-06-05T10:04:24.000Z</time>
      </trkpt>
      <trkpt lat="47.28029" lon="-1.83532">
        <ele>52</ele>
        <time>2021-06-05T10:04:26.000Z</time>
      </trkpt>
      <trkpt lat="47.28036" lon="-1.83551">
        <ele>52</ele>
        <time>2021-06-05T10:04:28.000Z</time>
      </trkpt>
      <trkpt lat="47.28042" lon="-1.8357">
        <ele>52</ele>
        <time>2021-06-05T10:04:30.000Z</time>
      </trkpt>
      <trkpt lat="47.28047" lon="-1.8359">
        <ele>52</ele>
        <time>2021-06-05T10:04:32.000Z</time>
      </trkpt>
      <trkpt lat="47.28053" lon="-1.83609">
        <ele>52</ele>
        <time>2021-06-05T10:04:34.000Z</time>
      </trkpt>
      <trkpt lat="47.28059" lon="-1.83627">
        <ele>52</ele>
        <time>2021-06-05T10:04:36.000Z</time>
      </trkpt>
      <trkpt lat="47.28064" lon="-1.83646">
        <ele>52</ele>
        <time>2021-06-05T10:04:38.000Z</time>
      </trkpt>
      <trkpt lat="47.28069" lon="-1.83666">
        <ele>52</ele>
        <time>2021-06-05T10:04:40.000Z</time>
      </trkpt>
      <trkpt lat="47.28073" lon="-1.83686">
        <ele>52</ele>
        <time>2021-06-05T10:04:42.000Z</time>
      </trkpt>
      <trkpt lat="47.28077" lon="-1.83706">
        <ele>51</ele>
        <time>2021-06-05T10:04:44.000Z</time>
      </trkpt>
      <trkpt lat="47.28081" lon="-1.83726">
        <ele>51</ele>
        <time>2021-06-05T10:04:46.000Z</time>
      </trkpt>
      <trkpt lat="47.28084" lon="-1.83746">
        <ele>51</ele>
        <time>2021-06-05T10:04:48.000Z</time>
      </trkpt>
      <trkpt lat="47.28088" lon="-1.83766">
        <ele>51</ele>
        <time>2021-06-05T10:04:50.000Z</time>
      </trkpt>
      <trkpt lat="47.28091" lon="-1.83785">
        <ele>51</ele>
        <time>2021-06-05T10:04:52.000Z</time>
      </trkpt>
      <trkpt lat="47.28094" lon="-1.83804">
        <ele>52</ele>
        <time>2021-06-05T10:04:54.000Z</time>
      </trkpt>
      <trkpt lat="47.28097" lon="-1.83823">
        <ele>52</ele>
        <time>2021-06-05T10:04:56.000Z</time>
      </trkpt>
      <trkpt lat="47.28099" lon="-1.83844">
        <ele>52</ele>
        <time>2021-06-05T10:04:58.000Z</time>
      </trkpt>
      <trkpt lat="47.28101" lon="-1.83864">
        <ele>52</ele>
        <time>2021-06-05T10:05:00.000Z</time>
      </trkpt>
      <trkpt lat="47.28103" lon="-1.83885">
        <ele>52</ele>
        <time>2021-06-05T10:05:02.000Z</time>
      </trkpt>
      <trkpt lat="47.28105" lon="-1.83906">
        <ele>52</ele>
        <time>2021-06-05T10:05:04.000Z</time>
      </trkpt>
      <trkpt lat="47.28107" lon="-1.83926">
        <ele>52</ele>
        <time>2021-06-05T10:05:06.000Z</time>
      </trkpt>
      <trkpt lat="47.28109" lon="-1.83946">
        <ele>52</ele>
        <time>2021-06-05T10:05:08.000Z</time>
      </trkpt>
      <trkpt lat="47.28111" lon="-1.83967">
        <ele>52</ele>
        <time>2021-06-05T10:05:10.000Z</time>
      </trkpt>
      <trkpt lat="47.28113" lon="-1.83987">
        <ele>52</ele>
        <time>2021-06-05T10:05:12.000Z</time>
      </trkpt>
      <trkpt lat="47.28115" lon="-1.84008">
        <ele>53</ele>
        <time>2021-06-05T10:05:14.000Z</time>
      </trkpt>
      <trkpt lat="47.28118" lon="-1.84028">
        <ele>53</ele>
        <time>2021-06-05T10:05:16.000Z</time>
      </trkpt>
      <trkpt lat="47.28119" lon="-1.84048">
        <ele>53</ele>
        <time>2021-06-05T10:05:18.000Z</time>
      </trkpt>
      <trkpt lat="47.28121" lon="-1.84069">
        <ele>53</ele>
        <time>2021-06-05T10:05:20.000Z</time>
      </trkpt>
      <trkpt lat="47.28121" lon="-1.84089">
        <ele>53</ele>
        <time>2021-06-05T10:05:22.000Z</time>
      </trkpt>
      <trkpt lat="47.28122" lon="-1.8411">
        <ele>53</ele>
        <time>2021-06-05T10:05:24.000Z</time>
      </trkpt>
      <trkpt lat="47.28122" lon="-1.8413">
        <ele>52</ele>
        <time>2021-06-05T10:05:26.000Z</time>
      </trkpt>
      <trkpt lat="47.28122" lon="-1.84151">
        <ele>52</ele>
        <time>2021-06-05T10:05:28.000Z</time>
      </trkpt>
      <trkpt lat="47.28122" lon="-1.84171">
        <ele>52</ele>
        <time>2021-06-05T10:05:30.000Z</time>
      </trkpt>
      <trkpt lat="47.28122" lon="-1.84192">
        <ele>52</ele>
        <time>2021-06-05T10:05:32.000Z</time>
      </trkpt>
      <trkpt lat="47.28123" lon="-1.84212">
        <ele>51</ele>
        <time>2021-06-05T10:05:34.000Z</time>
      </trkpt>
      <trkpt lat="47.28123" lon="-1.84233">
        <ele>51</ele>
        <time>2021-06-05T10:05:36.000Z</time>
      </trkpt>
      <trkpt lat="47.28124" lon="-1.84255">
        <ele>51</ele>
        <time>2021-06-05T10:05:38.000Z</time>
      </trkpt>
      <trkpt lat="47.28125" lon="-1.84275">
        <ele>51</ele>
        <time>2021-06-05T10:05:40.000Z</time>
      </trkpt>
      <trkpt lat="47.28124" lon="-1.84297">
        <ele>52</ele>
        <time>2021-06-05T10:05:42.000Z</time>
      </trkpt>
      <trkpt lat="47.28124" lon="-1.84318">
        <ele>52</ele>
        <time>2021-06-05T10:05:44.000Z</time>
      </trkpt>
      <trkpt lat="47.28123" lon="-1.84337">
        <ele>52</ele>
        <time>2021-06-05T10:05:46.000Z</time>
      </trkpt>
      <trkpt lat="47.28121" lon="-1.84357">
        <ele>53</ele>
        <time>2021-06-05T10:05:48.000Z</time>
      </trkpt>
      <trkpt lat="47.28117" lon="-1.84377">
        <ele>53</ele>
        <time>2021-06-05T10:05:50.000Z</time>
      </trkpt>
      <trkpt lat="47.28115" lon="-1.84396">
        <ele>53</ele>
        <time>2021-06-05T10:05:52.000Z</time>
      </trkpt>
      <trkpt lat="47.28112" lon="-1.84415">
        <ele>53</ele>
        <time>2021-06-05T10:05:54.000Z</time>
      </trkpt>
      <trkpt lat="47.2811" lon="-1.84435">
        <ele>53</ele>
        <time>2021-06-05T10:05:56.000Z</time>
      </trkpt>
      <trkpt lat="47.2811" lon="-1.84455">
        <ele>53</ele>
        <time>2021-06-05T10:05:58.000Z</time>
      </trkpt>
      <trkpt lat="47.2811" lon="-1.84475">
        <ele>54</ele>
        <time>2021-06-05T10:06:00.000Z</time>
      </trkpt>
      <trkpt lat="47.28111" lon="-1.84495">
        <ele>54</ele>
        <time>2021-06-05T10:06:02.000Z</time>
      </trkpt>
      <trkpt lat="47.28112" lon="-1.84514">
        <ele>54</ele>
        <time>2021-06-05T10:06:04.000Z</time>
      </trkpt>
      <trkpt lat="47.28112" lon="-1.84534">
        <ele>54</ele>
        <time>2021-06-05T10:06:06.000Z</time>
      </trkpt>
      <trkpt lat="47.28113" lon="-1.84554">
        <ele>54</ele>
        <time>2021-06-05T10:06:08.000Z</time>
      </trkpt>
      <trkpt lat="47.28114" lon="-1.84573">
        <ele>55</ele>
        <time>2021-06-05T10:06:10.000Z</time>
      </trkpt>
      <trkpt lat="47.28115" lon="-1.84593">
        <ele>55</ele>
        <time>2021-06-05T10:06:12.000Z</time>
      </trkpt>
      <trkpt lat="47.28116" lon="-1.84612">
        <ele>55</ele>
        <time>2021-06-05T10:06:14.000Z</time>
      </trkpt>
      <trkpt lat="47.28117" lon="-1.84632">
        <ele>56</ele>
        <time>2021-06-05T10:06:16.000Z</time>
      </trkpt>
      <trkpt lat="47.28117" lon="-1.84651">
        <ele>56</ele>
        <time>2021-06-05T10:06:18.000Z</time>
      </trkpt>
      <trkpt lat="47.28116" lon="-1.84671">
        <ele>56</ele>
        <time>2021-06-05T10:06:20.000Z</time>
      </trkpt>
      <trkpt lat="47.28114" lon="-1.8469">
        <ele>56</ele>
        <time>2021-06-05T10:06:22.000Z</time>
      </trkpt>
      <trkpt lat="47.28112" lon="-1.84709">
        <ele>56</ele>
        <time>2021-06-05T10:06:24.000Z</time>
      </trkpt>
      <trkpt lat="47.28109" lon="-1.84728">
        <ele>56</ele>
        <time>2021-06-05T10:06:26.000Z</time>
      </trkpt>
      <trkpt lat="47.28106" lon="-1.84747">
        <ele>56</ele>
        <time>2021-06-05T10:06:28.000Z</time>
      </trkpt>
      <trkpt lat="47.28104" lon="-1.84765">
        <ele>57</ele>
        <time>2021-06-05T10:06:30.000Z</time>
      </trkpt>
      <trkpt lat="47.28103" lon="-1.84783">
        <ele>57</ele>
        <time>2021-06-05T10:06:32.000Z</time>
      </trkpt>
      <trkpt lat="47.28103" lon="-1.84802">
        <ele>57</ele>
        <time>2021-06-05T10:06:34.000Z</time>
      </trkpt>
      <trkpt lat="47.28105" lon="-1.84821">
        <ele>58</ele>
        <time>2021-06-05T10:06:36.000Z</time>
      </trkpt>
      <trkpt lat="47.28108" lon="-1.84841">
        <ele>57</ele>
        <time>2021-06-05T10:06:38.000Z</time>
      </trkpt>
      <trkpt lat="47.2811" lon="-1.8486">
        <ele>58</ele>
        <time>2021-06-05T10:06:40.000Z</time>
      </trkpt>
      <trkpt lat="47.28113" lon="-1.8488">
        <ele>58</ele>
        <time>2021-06-05T10:06:42.000Z</time>
      </trkpt>
      <trkpt lat="47.28115" lon="-1.84899">
        <ele>57</ele>
        <time>2021-06-05T10:06:44.000Z</time>
      </trkpt>
      <trkpt lat="47.28118" lon="-1.84918">
        <ele>58</ele>
        <time>2021-06-05T10:06:46.000Z</time>
      </trkpt>
      <trkpt lat="47.2812" lon="-1.84937">
        <ele>58</ele>
        <time>2021-06-05T10:06:48.000Z</time>
      </trkpt>
      <trkpt lat="47.28123" lon="-1.84957">
        <ele>58</ele>
        <time>2021-06-05T10:06:50.000Z</time>
      </trkpt>
      <trkpt lat="47.28127" lon="-1.84977">
        <ele>58</ele>
        <time>2021-06-05T10:06:52.000Z</time>
      </trkpt>
      <trkpt lat="47.28131" lon="-1.84997">
        <ele>58</ele>
        <time>2021-06-05T10:06:54.000Z</time>
      </trkpt>
      <trkpt lat="47.28135" lon="-1.85017">
        <ele>58</ele>
        <time>2021-06-05T10:06:56.000Z</time>
      </trkpt>
      <trkpt lat="47.28141" lon="-1.85036">
        <ele>58</ele>
        <time>2021-06-05T10:06:58.000Z</time>
      </trkpt>
      <trkpt lat="47.28148" lon="-1.85055">
        <ele>58</ele>
        <time>2021-06-05T10:07:00.000Z</time>
      </trkpt>
      <trkpt lat="47.28155" lon="-1.85073">
        <ele>58</ele>
        <time>2021-06-05T10:07:02.000Z</time>
      </trkpt>
      <trkpt lat="47.2816" lon="-1.8509">
        <ele>58</ele>
        <time>2021-06-05T10:07:04.000Z</time>
      </trkpt>
      <trkpt lat="47.28166" lon="-1.85109">
        <ele>58</ele>
        <time>2021-06-05T10:07:06.000Z</time>
      </trkpt>
      <trkpt lat="47.28172" lon="-1.85128">
        <ele>58</ele>
        <time>2021-06-05T10:07:08.000Z</time>
      </trkpt>
      <trkpt lat="47.28178" lon="-1.85147">
        <ele>58</ele>
        <time>2021-06-05T10:07:10.000Z</time>
      </trkpt>
      <trkpt lat="47.28185" lon="-1.85167">
        <ele>58</ele>
        <time>2021-06-05T10:07:12.000Z</time>
      </trkpt>
      <trkpt lat="47.28192" lon="-1.85186">
        <ele>58</ele>
        <time>2021-06-05T10:07:14.000Z</time>
      </trkpt>
      <trkpt lat="47.28198" lon="-1.85205">
        <ele>58</ele>
        <time>2021-06-05T10:07:16.000Z</time>
      </trkpt>
      <trkpt lat="47.28204" lon="-1.85224">
        <ele>58</ele>
        <time>2021-06-05T10:07:18.000Z</time>
      </trkpt>
      <trkpt lat="47.28212" lon="-1.85242">
        <ele>57</ele>
        <time>2021-06-05T10:07:20.000Z</time>
      </trkpt>
      <trkpt lat="47.2822" lon="-1.8526">
        <ele>57</ele>
        <time>2021-06-05T10:07:22.000Z</time>
      </trkpt>
      <trkpt lat="47.28228" lon="-1.85277">
        <ele>57</ele>
        <time>2021-06-05T10:07:24.000Z</time>
      </trkpt>
      <trkpt lat="47.28236" lon="-1.85294">
        <ele>56</ele>
        <time>2021-06-05T10:07:26.000Z</time>
      </trkpt>
      <trkpt lat="47.28245" lon="-1.85311">
        <ele>56</ele>
        <time>2021-06-05T10:07:28.000Z</time>
      </trkpt>
      <trkpt lat="47.28253" lon="-1.85328">
        <ele>56</ele>
        <time>2021-06-05T10:07:30.000Z</time>
      </trkpt>
      <trkpt lat="47.28262" lon="-1.85345">
        <ele>55</ele>
        <time>2021-06-05T10:07:32.000Z</time>
      </trkpt>
      <trkpt lat="47.2827" lon="-1.85362">
        <ele>55</ele>
        <time>2021-06-05T10:07:34.000Z</time>
      </trkpt>
      <trkpt lat="47.28279" lon="-1.85379">
        <ele>54</ele>
        <time>2021-06-05T10:07:36.000Z</time>
      </trkpt>
      <trkpt lat="47.28287" lon="-1.85396">
        <ele>54</ele>
        <time>2021-06-05T10:07:38.000Z</time>
      </trkpt>
      <trkpt lat="47.28295" lon="-1.85413">
        <ele>54</ele>
        <time>2021-06-05T10:07:40.000Z</time>
      </trkpt>
      <trkpt lat="47.28303" lon="-1.8543">
        <ele>54</ele>
        <time>2021-06-05T10:07:42.000Z</time>
      </trkpt>
      <trkpt lat="47.28309" lon="-1.85448">
        <ele>54</ele>
        <time>2021-06-05T10:07:44.000Z</time>
      </trkpt>
      <trkpt lat="47.28314" lon="-1.85466">
        <ele>54</ele>
        <time>2021-06-05T10:07:46.000Z</time>
      </trkpt>
      <trkpt lat="47.28319" lon="-1.85485">
        <ele>54</ele>
        <time>2021-06-05T10:07:48.000Z</time>
      </trkpt>
      <trkpt lat="47.28324" lon="-1.85503">
        <ele>54</ele>
        <time>2021-06-05T10:07:50.000Z</time>
      </trkpt>
      <trkpt lat="47.28328" lon="-1.85522">
        <ele>55</ele>
        <time>2021-06-05T10:07:52.000Z</time>
      </trkpt>
      <trkpt lat="47.28332" lon="-1.85541">
        <ele>55</ele>
        <time>2021-06-05T10:07:54.000Z</time>
      </trkpt>
      <trkpt lat="47.28336" lon="-1.8556">
        <ele>55</ele>
        <time>2021-06-05T10:07:56.000Z</time>
      </trkpt>
      <trkpt lat="47.28341" lon="-1.85578">
        <ele>55</ele>
        <time>2021-06-05T10:07:58.000Z</time>
      </trkpt>
      <trkpt lat="47.28346" lon="-1.85596">
        <ele>54</ele>
        <time>2021-06-05T10:08:00.000Z</time>
      </trkpt>
      <trkpt lat="47.28352" lon="-1.85615">
        <ele>54</ele>
        <time>2021-06-05T10:08:02.000Z</time>
      </trkpt>
      <trkpt lat="47.28358" lon="-1.85633">
        <ele>54</ele>
        <time>2021-06-05T10:08:04.000Z</time>
      </trkpt>
      <trkpt lat="47.28364" lon="-1.85651">
        <ele>54</ele>
        <time>2021-06-05T10:08:06.000Z</time>
      </trkpt>
      <trkpt lat="47.2837" lon="-1.8567">
        <ele>54</ele>
        <time>2021-06-05T10:08:08.000Z</time>
      </trkpt>
      <trkpt lat="47.28376" lon="-1.85688">
        <ele>54</ele>
        <time>2021-06-05T10:08:10.000Z</time>
      </trkpt>
      <trkpt lat="47.28381" lon="-1.85707">
        <ele>54</ele>
        <time>2021-06-05T10:08:12.000Z</time>
      </trkpt>
      <trkpt lat="47.28387" lon="-1.85725">
        <ele>53</ele>
        <time>2021-06-05T10:08:14.000Z</time>
      </trkpt>
      <trkpt lat="47.28393" lon="-1.85743">
        <ele>53</ele>
        <time>2021-06-05T10:08:16.000Z</time>
      </trkpt>
      <trkpt lat="47.28399" lon="-1.8576">
        <ele>54</ele>
        <time>2021-06-05T10:08:18.000Z</time>
      </trkpt>
      <trkpt lat="47.28405" lon="-1.85778">
        <ele>54</ele>
        <time>2021-06-05T10:08:20.000Z</time>
      </trkpt>
      <trkpt lat="47.28411" lon="-1.85796">
        <ele>54</ele>
        <time>2021-06-05T10:08:22.000Z</time>
      </trkpt>
      <trkpt lat="47.28417" lon="-1.85815">
        <ele>54</ele>
        <time>2021-06-05T10:08:24.000Z</time>
      </trkpt>
      <trkpt lat="47.28422" lon="-1.85833">
        <ele>54</ele>
        <time>2021-06-05T10:08:26.000Z</time>
      </trkpt>
      <trkpt lat="47.28428" lon="-1.85851">
        <ele>53</ele>
        <time>2021-06-05T10:08:28.000Z</time>
      </trkpt>
      <trkpt lat="47.28434" lon="-1.85869">
        <ele>53</ele>
        <time>2021-06-05T10:08:30.000Z</time>
      </trkpt>
      <trkpt lat="47.2844" lon="-1.85887">
        <ele>53</ele>
        <time>2021-06-05T10:08:32.000Z</time>
      </trkpt>
      <trkpt lat="47.28448" lon="-1.85904">
        <ele>53</ele>
        <time>2021-06-05T10:08:34.000Z</time>
      </trkpt>
      <trkpt lat="47.28456" lon="-1.85919">
        <ele>53</ele>
        <time>2021-06-05T10:08:36.000Z</time>
      </trkpt>
      <trkpt lat="47.28464" lon="-1.85934">
        <ele>54</ele>
        <time>2021-06-05T10:08:38.000Z</time>
      </trkpt>
      <trkpt lat="47.28473" lon="-1.85948">
        <ele>54</ele>
        <time>2021-06-05T10:08:40.000Z</time>
      </trkpt>
      <trkpt lat="47.28482" lon="-1.85963">
        <ele>54</ele>
        <time>2021-06-05T10:08:42.000Z</time>
      </trkpt>
      <trkpt lat="47.2849" lon="-1.85977">
        <ele>55</ele>
        <time>2021-06-05T10:08:44.000Z</time>
      </trkpt>
      <trkpt lat="47.28499" lon="-1.85992">
        <ele>55</ele>
        <time>2021-06-05T10:08:46.000Z</time>
      </trkpt>
      <trkpt lat="47.28508" lon="-1.86007">
        <ele>55</ele>
        <time>2021-06-05T10:08:48.000Z</time>
      </trkpt>
      <trkpt lat="47.28515" lon="-1.86023">
        <ele>54</ele>
        <time>2021-06-05T10:08:50.000Z</time>
      </trkpt>
      <trkpt lat="47.2852" lon="-1.86042">
        <ele>55</ele>
        <time>2021-06-05T10:08:52.000Z</time>
      </trkpt>
      <trkpt lat="47.28524" lon="-1.8606">
        <ele>54</ele>
        <time>2021-06-05T10:08:54.000Z</time>
      </trkpt>
      <trkpt lat="47.28528" lon="-1.86079">
        <ele>54</ele>
        <time>2021-06-05T10:08:56.000Z</time>
      </trkpt>
      <trkpt lat="47.28533" lon="-1.86099">
        <ele>54</ele>
        <time>2021-06-05T10:08:58.000Z</time>
      </trkpt>
      <trkpt lat="47.28536" lon="-1.86118">
        <ele>54</ele>
        <time>2021-06-05T10:09:00.000Z</time>
      </trkpt>
      <trkpt lat="47.2854" lon="-1.86138">
        <ele>54</ele>
        <time>2021-06-05T10:09:02.000Z</time>
      </trkpt>
      <trkpt lat="47.28543" lon="-1.86157">
        <ele>54</ele>
        <time>2021-06-05T10:09:04.000Z</time>
      </trkpt>
      <trkpt lat="47.28547" lon="-1.86176">
        <ele>54</ele>
        <time>2021-06-05T10:09:06.000Z</time>
      </trkpt>
      <trkpt lat="47.28551" lon="-1.86195">
        <ele>54</ele>
        <time>2021-06-05T10:09:08.000Z</time>
      </trkpt>
      <trkpt lat="47.28555" lon="-1.86214">
        <ele>55</ele>
        <time>2021-06-05T10:09:10.000Z</time>
      </trkpt>
      <trkpt lat="47.28558" lon="-1.86234">
        <ele>55</ele>
        <time>2021-06-05T10:09:12.000Z</time>
      </trkpt>
      <trkpt lat="47.28563" lon="-1.86253">
        <ele>55</ele>
        <time>2021-06-05T10:09:14.000Z</time>
      </trkpt>
      <trkpt lat="47.28568" lon="-1.86272">
        <ele>55</ele>
        <time>2021-06-05T10:09:16.000Z</time>
      </trkpt>
      <trkpt lat="47.28574" lon="-1.8629">
        <ele>55</ele>
        <time>2021-06-05T10:09:18.000Z</time>
      </trkpt>
      <trkpt lat="47.28579" lon="-1.86309">
        <ele>55</ele>
        <time>2021-06-05T10:09:20.000Z</time>
      </trkpt>
      <trkpt lat="47.28584" lon="-1.86328">
        <ele>55</ele>
        <time>2021-06-05T10:09:22.000Z</time>
      </trkpt>
      <trkpt lat="47.28589" lon="-1.86346">
        <ele>55</ele>
        <time>2021-06-05T10:09:24.000Z</time>
      </trkpt>
      <trkpt lat="47.28594" lon="-1.86365">
        <ele>55</ele>
        <time>2021-06-05T10:09:26.000Z</time>
      </trkpt>
      <trkpt lat="47.28599" lon="-1.86383">
        <ele>54</ele>
        <time>2021-06-05T10:09:28.000Z</time>
      </trkpt>
      <trkpt lat="47.28604" lon="-1.86401">
        <ele>54</ele>
        <time>2021-06-05T10:09:30.000Z</time>
      </trkpt>
      <trkpt lat="47.2861" lon="-1.86419">
        <ele>54</ele>
        <time>2021-06-05T10:09:32.000Z</time>
      </trkpt>
      <trkpt lat="47.28617" lon="-1.86437">
        <ele>54</ele>
        <time>2021-06-05T10:09:34.000Z</time>
      </trkpt>
      <trkpt lat="47.28624" lon="-1.86455">
        <ele>54</ele>
        <time>2021-06-05T10:09:36.000Z</time>
      </trkpt>
      <trkpt lat="47.2863" lon="-1.86472">
        <ele>54</ele>
        <time>2021-06-05T10:09:38.000Z</time>
      </trkpt>
      <trkpt lat="47.28637" lon="-1.86489">
        <ele>54</ele>
        <time>2021-06-05T10:09:40.000Z</time>
      </trkpt>
      <trkpt lat="47.28644" lon="-1.86505">
        <ele>54</ele>
        <time>2021-06-05T10:09:42.000Z</time>
      </trkpt>
      <trkpt lat="47.28651" lon="-1.86521">
        <ele>55</ele>
        <time>2021-06-05T10:09:44.000Z</time>
      </trkpt>
      <trkpt lat="47.28657" lon="-1.86537">
        <ele>55</ele>
        <time>2021-06-05T10:09:46.000Z</time>
      </trkpt>
      <trkpt lat="47.28662" lon="-1.86552">
        <ele>55</ele>
        <time>2021-06-05T10:09:48.000Z</time>
      </trkpt>
      <trkpt lat="47.28668" lon="-1.86566">
        <ele>55</ele>
        <time>2021-06-05T10:09:50.000Z</time>
      </trkpt>
      <trkpt lat="47.28674" lon="-1.86581">
        <ele>55</ele>
        <time>2021-06-05T10:09:52.000Z</time>
      </trkpt>
      <trkpt lat="47.2868" lon="-1.86596">
        <ele>56</ele>
        <time>2021-06-05T10:09:54.000Z</time>
      </trkpt>
      <trkpt lat="47.28685" lon="-1.86611">
        <ele>57</ele>
        <time>2021-06-05T10:09:56.000Z</time>
      </trkpt>
      <trkpt lat="47.28691" lon="-1.86627">
        <ele>58</ele>
        <time>2021-06-05T10:09:58.000Z</time>
      </trkpt>
      <trkpt lat="47.28697" lon="-1.86642">
        <ele>58</ele>
        <time>2021-06-05T10:10:00.000Z</time>
      </trkpt>
      <trkpt lat="47.28702" lon="-1.86657">
        <ele>59</ele>
        <time>2021-06-05T10:10:02.000Z</time>
      </trkpt>
      <trkpt lat="47.28708" lon="-1.86672">
        <ele>59</ele>
        <time>2021-06-05T10:10:04.000Z</time>
      </trkpt>
      <trkpt lat="47.28713" lon="-1.86688">
        <ele>60</ele>
        <time>2021-06-05T10:10:06.000Z</time>
      </trkpt>
      <trkpt lat="47.28718" lon="-1.86704">
        <ele>60</ele>
        <time>2021-06-05T10:10:08.000Z</time>
      </trkpt>
      <trkpt lat="47.28722" lon="-1.8672">
        <ele>60</ele>
        <time>2021-06-05T10:10:10.000Z</time>
      </trkpt>
      <trkpt lat="47.28727" lon="-1.86735">
        <ele>60</ele>
        <time>2021-06-05T10:10:12.000Z</time>
      </trkpt>
      <trkpt lat="47.28731" lon="-1.86751">
        <ele>61</ele>
        <time>2021-06-05T10:10:14.000Z</time>
      </trkpt>
      <trkpt lat="47.28735" lon="-1.86767">
        <ele>61</ele>
        <time>2021-06-05T10:10:16.000Z</time>
      </trkpt>
      <trkpt lat="47.28739" lon="-1.86783">
        <ele>61</ele>
        <time>2021-06-05T10:10:18.000Z</time>
      </trkpt>
      <trkpt lat="47.28743" lon="-1.86799">
        <ele>62</ele>
        <time>2021-06-05T10:10:20.000Z</time>
      </trkpt>
      <trkpt lat="47.28748" lon="-1.86814">
        <ele>62</ele>
        <time>2021-06-05T10:10:22.000Z</time>
      </trkpt>
      <trkpt lat="47.28753" lon="-1.8683">
        <ele>63</ele>
        <time>2021-06-05T10:10:24.000Z</time>
      </trkpt>
      <trkpt lat="47.28759" lon="-1.86845">
        <ele>63</ele>
        <time>2021-06-05T10:10:26.000Z</time>
      </trkpt>
      <trkpt lat="47.28765" lon="-1.86859">
        <ele>63</ele>
        <time>2021-06-05T10:10:28.000Z</time>
      </trkpt>
      <trkpt lat="47.28771" lon="-1.86873">
        <ele>64</ele>
        <time>2021-06-05T10:10:30.000Z</time>
      </trkpt>
      <trkpt lat="47.28777" lon="-1.86887">
        <ele>64</ele>
        <time>2021-06-05T10:10:32.000Z</time>
      </trkpt>
      <trkpt lat="47.28783" lon="-1.86902">
        <ele>64</ele>
        <time>2021-06-05T10:10:34.000Z</time>
      </trkpt>
      <trkpt lat="47.28789" lon="-1.86916">
        <ele>64</ele>
        <time>2021-06-05T10:10:36.000Z</time>
      </trkpt>
      <trkpt lat="47.28795" lon="-1.86931">
        <ele>64</ele>
        <time>2021-06-05T10:10:38.000Z</time>
      </trkpt>
      <trkpt lat="47.28801" lon="-1.86945">
        <ele>65</ele>
        <time>2021-06-05T10:10:40.000Z</time>
      </trkpt>
      <trkpt lat="47.28807" lon="-1.86959">
        <ele>65</ele>
        <time>2021-06-05T10:10:42.000Z</time>
      </trkpt>
      <trkpt lat="47.28812" lon="-1.86973">
        <ele>65</ele>
        <time>2021-06-05T10:10:44.000Z</time>
      </trkpt>
      <trkpt lat="47.28819" lon="-1.86986">
        <ele>65</ele>
        <time>2021-06-05T10:10:46.000Z</time>
      </trkpt>
      <trkpt lat="47.28826" lon="-1.87">
        <ele>65</ele>
        <time>2021-06-05T10:10:48.000Z</time>
      </trkpt>
      <trkpt lat="47.28832" lon="-1.87012">
        <ele>65</ele>
        <time>2021-06-05T10:10:50.000Z</time>
      </trkpt>
      <trkpt lat="47.28838" lon="-1.87026">
        <ele>65</ele>
        <time>2021-06-05T10:10:52.000Z</time>
      </trkpt>
      <trkpt lat="47.28844" lon="-1.87039">
        <ele>66</ele>
        <time>2021-06-05T10:10:54.000Z</time>
      </trkpt>
      <trkpt lat="47.28851" lon="-1.87052">
        <ele>66</ele>
        <time>2021-06-05T10:10:56.000Z</time>
      </trkpt>
      <trkpt lat="47.28857" lon="-1.87065">
        <ele>66</ele>
        <time>2021-06-05T10:10:58.000Z</time>
      </trkpt>
      <trkpt lat="47.28863" lon="-1.87079">
        <ele>66</ele>
        <time>2021-06-05T10:11:00.000Z</time>
      </trkpt>
      <trkpt lat="47.28869" lon="-1.87092">
        <ele>66</ele>
        <time>2021-06-05T10:11:02.000Z</time>
      </trkpt>
      <trkpt lat="47.28876" lon="-1.87106">
        <ele>66</ele>
        <time>2021-06-05T10:11:04.000Z</time>
      </trkpt>
      <trkpt lat="47.28882" lon="-1.87119">
        <ele>66</ele>
        <time>2021-06-05T10:11:06.000Z</time>
      </trkpt>
      <trkpt lat="47.28889" lon="-1.87131">
        <ele>66</ele>
        <time>2021-06-05T10:11:08.000Z</time>
      </trkpt>
      <trkpt lat="47.28897" lon="-1.87143">
        <ele>66</ele>
        <time>2021-06-05T10:11:10.000Z</time>
      </trkpt>
      <trkpt lat="47.28905" lon="-1.87154">
        <ele>66</ele>
        <time>2021-06-05T10:11:12.000Z</time>
      </trkpt>
      <trkpt lat="47.28913" lon="-1.87165">
        <ele>67</ele>
        <time>2021-06-05T10:11:14.000Z</time>
      </trkpt>
      <trkpt lat="47.28922" lon="-1.87176">
        <ele>67</ele>
        <time>2021-06-05T10:11:16.000Z</time>
      </trkpt>
      <trkpt lat="47.28929" lon="-1.87188">
        <ele>67</ele>
        <time>2021-06-05T10:11:18.000Z</time>
      </trkpt>
      <trkpt lat="47.28937" lon="-1.872">
        <ele>68</ele>
        <time>2021-06-05T10:11:20.000Z</time>
      </trkpt>
      <trkpt lat="47.28946" lon="-1.87211">
        <ele>67</ele>
        <time>2021-06-05T10:11:22.000Z</time>
      </trkpt>
      <trkpt lat="47.28954" lon="-1.87224">
        <ele>67</ele>
        <time>2021-06-05T10:11:24.000Z</time>
      </trkpt>
      <trkpt lat="47.28962" lon="-1.87236">
        <ele>68</ele>
        <time>2021-06-05T10:11:26.000Z</time>
      </trkpt>
      <trkpt lat="47.28971" lon="-1.87248">
        <ele>67</ele>
        <time>2021-06-05T10:11:28.000Z</time>
      </trkpt>
      <trkpt lat="47.2898" lon="-1.87259">
        <ele>68</ele>
        <time>2021-06-05T10:11:30.000Z</time>
      </trkpt>
      <trkpt lat="47.28989" lon="-1.87269">
        <ele>68</ele>
        <time>2021-06-05T10:11:32.000Z</time>
      </trkpt>
      <trkpt lat="47.29001" lon="-1.87274">
        <ele>68</ele>
        <time>2021-06-05T10:11:34.000Z</time>
      </trkpt>
      <trkpt lat="47.29011" lon="-1.87284">
        <ele>69</ele>
        <time>2021-06-05T10:11:36.000Z</time>
      </trkpt>
      <trkpt lat="47.29014" lon="-1.87303">
        <ele>68</ele>
        <time>2021-06-05T10:11:38.000Z</time>
      </trkpt>
      <trkpt lat="47.29015" lon="-1.87323">
        <ele>67</ele>
        <time>2021-06-05T10:11:40.000Z</time>
      </trkpt>
      <trkpt lat="47.29014" lon="-1.87343">
        <ele>67</ele>
        <time>2021-06-05T10:11:42.000Z</time>
      </trkpt>
      <trkpt lat="47.29015" lon="-1.87365">
        <ele>66</ele>
        <time>2021-06-05T10:11:44.000Z</time>
      </trkpt>
      <trkpt lat="47.29015" lon="-1.87386">
        <ele>65</ele>
        <time>2021-06-05T10:11:46.000Z</time>
      </trkpt>
      <trkpt lat="47.29016" lon="-1.87408">
        <ele>65</ele>
        <time>2021-06-05T10:11:48.000Z</time>
      </trkpt>
      <trkpt lat="47.29016" lon="-1.8743">
        <ele>64</ele>
        <time>2021-06-05T10:11:50.000Z</time>
      </trkpt>
      <trkpt lat="47.29016" lon="-1.87451">
        <ele>64</ele>
        <time>2021-06-05T10:11:52.000Z</time>
      </trkpt>
      <trkpt lat="47.29016" lon="-1.87472">
        <ele>63</ele>
        <time>2021-06-05T10:11:54.000Z</time>
      </trkpt>
      <trkpt lat="47.29016" lon="-1.87494">
        <ele>63</ele>
        <time>2021-06-05T10:11:56.000Z</time>
      </trkpt>
      <trkpt lat="47.29016" lon="-1.87516">
        <ele>62</ele>
        <time>2021-06-05T10:11:58.000Z</time>
      </trkpt>
      <trkpt lat="47.29016" lon="-1.87538">
        <ele>62</ele>
        <time>2021-06-05T10:12:00.000Z</time>
      </trkpt>
      <trkpt lat="47.29017" lon="-1.8756">
        <ele>62</ele>
        <time>2021-06-05T10:12:02.000Z</time>
      </trkpt>
      <trkpt lat="47.29018" lon="-1.87582">
        <ele>61</ele>
        <time>2021-06-05T10:12:04.000Z</time>
      </trkpt>
      <trkpt lat="47.2902" lon="-1.87603">
        <ele>61</ele>
        <time>2021-06-05T10:12:06.000Z</time>
      </trkpt>
      <trkpt lat="47.29021" lon="-1.87624">
        <ele>61</ele>
        <time>2021-06-05T10:12:08.000Z</time>
      </trkpt>
      <trkpt lat="47.29022" lon="-1.87645">
        <ele>61</ele>
        <time>2021-06-05T10:12:10.000Z</time>
      </trkpt>
      <trkpt lat="47.29023" lon="-1.87666">
        <ele>61</ele>
        <time>2021-06-05T10:12:12.000Z</time>
      </trkpt>
      <trkpt lat="47.29024" lon="-1.87686">
        <ele>61</ele>
        <time>2021-06-05T10:12:14.000Z</time>
      </trkpt>
      <trkpt lat="47.29023" lon="-1.87707">
        <ele>62</ele>
        <time>2021-06-05T10:12:16.000Z</time>
      </trkpt>
      <trkpt lat="47.29022" lon="-1.87727">
        <ele>63</ele>
        <time>2021-06-05T10:12:18.000Z</time>
      </trkpt>
      <trkpt lat="47.29021" lon="-1.87747">
        <ele>63</ele>
        <time>2021-06-05T10:12:20.000Z</time>
      </trkpt>
      <trkpt lat="47.2902" lon="-1.87768">
        <ele>63</ele>
        <time>2021-06-05T10:12:22.000Z</time>
      </trkpt>
      <trkpt lat="47.29018" lon="-1.87786">
        <ele>63</ele>
        <time>2021-06-05T10:12:24.000Z</time>
      </trkpt>
      <trkpt lat="47.29018" lon="-1.87805">
        <ele>63</ele>
        <time>2021-06-05T10:12:26.000Z</time>
      </trkpt>
      <trkpt lat="47.29015" lon="-1.87823">
        <ele>63</ele>
        <time>2021-06-05T10:12:28.000Z</time>
      </trkpt>
      <trkpt lat="47.29017" lon="-1.87839">
        <ele>63</ele>
        <time>2021-06-05T10:12:30.000Z</time>
      </trkpt>
      <trkpt lat="47.29025" lon="-1.87852">
        <ele>65</ele>
        <time>2021-06-05T10:12:32.000Z</time>
      </trkpt>
      <trkpt lat="47.29034" lon="-1.87864">
        <ele>66</ele>
        <time>2021-06-05T10:12:34.000Z</time>
      </trkpt>
      <trkpt lat="47.29043" lon="-1.87878">
        <ele>66</ele>
        <time>2021-06-05T10:12:36.000Z</time>
      </trkpt>
      <trkpt lat="47.29053" lon="-1.8789">
        <ele>66</ele>
        <time>2021-06-05T10:12:38.000Z</time>
      </trkpt>
      <trkpt lat="47.29061" lon="-1.87902">
        <ele>67</ele>
        <time>2021-06-05T10:12:40.000Z</time>
      </trkpt>
      <trkpt lat="47.2907" lon="-1.87913">
        <ele>67</ele>
        <time>2021-06-05T10:12:42.000Z</time>
      </trkpt>
      <trkpt lat="47.29081" lon="-1.87919">
        <ele>67</ele>
        <time>2021-06-05T10:12:44.000Z</time>
      </trkpt>
      <trkpt lat="47.29094" lon="-1.87916">
        <ele>67</ele>
        <time>2021-06-05T10:12:46.000Z</time>
      </trkpt>
      <trkpt lat="47.29107" lon="-1.87911">
        <ele>68</ele>
        <time>2021-06-05T10:12:48.000Z</time>
      </trkpt>
      <trkpt lat="47.2912" lon="-1.87904">
        <ele>68</ele>
        <time>2021-06-05T10:12:50.000Z</time>
      </trkpt>
      <trkpt lat="47.29132" lon="-1.87894">
        <ele>69</ele>
        <time>2021-06-05T10:12:52.000Z</time>
      </trkpt>
      <trkpt lat="47.29145" lon="-1.87886">
        <ele>69</ele>
        <time>2021-06-05T10:12:54.000Z</time>
      </trkpt>
      <trkpt lat="47.29157" lon="-1.87878">
        <ele>69</ele>
        <time>2021-06-05T10:12:56.000Z</time>
      </trkpt>
      <trkpt lat="47.29169" lon="-1.8787">
        <ele>69</ele>
        <time>2021-06-05T10:12:58.000Z</time>
      </trkpt>
      <trkpt lat="47.29181" lon="-1.87861">
        <ele>70</ele>
        <time>2021-06-05T10:13:00.000Z</time>
      </trkpt>
      <trkpt lat="47.29193" lon="-1.87854">
        <ele>70</ele>
        <time>2021-06-05T10:13:02.000Z</time>
      </trkpt>
      <trkpt lat="47.29206" lon="-1.87854">
        <ele>71</ele>
        <time>2021-06-05T10:13:04.000Z</time>
      </trkpt>
      <trkpt lat="47.29218" lon="-1.8786">
        <ele>70</ele>
        <time>2021-06-05T10:13:06.000Z</time>
      </trkpt>
      <trkpt lat="47.29229" lon="-1.87873">
        <ele>71</ele>
        <time>2021-06-05T10:13:08.000Z</time>
      </trkpt>
      <trkpt lat="47.29238" lon="-1.87886">
        <ele>71</ele>
        <time>2021-06-05T10:13:10.000Z</time>
      </trkpt>
      <trkpt lat="47.29247" lon="-1.87901">
        <ele>71</ele>
        <time>2021-06-05T10:13:12.000Z</time>
      </trkpt>
      <trkpt lat="47.29256" lon="-1.87916">
        <ele>70</ele>
        <time>2021-06-05T10:13:14.000Z</time>
      </trkpt>
      <trkpt lat="47.29265" lon="-1.8793">
        <ele>69</ele>
        <time>2021-06-05T10:13:16.000Z</time>
      </trkpt>
      <trkpt lat="47.29274" lon="-1.87944">
        <ele>69</ele>
        <time>2021-06-05T10:13:18.000Z</time>
      </trkpt>
      <trkpt lat="47.29283" lon="-1.87958">
        <ele>69</ele>
        <time>2021-06-05T10:13:20.000Z</time>
      </trkpt>
      <trkpt lat="47.29293" lon="-1.87971">
        <ele>68</ele>
        <time>2021-06-05T10:13:22.000Z</time>
      </trkpt>
      <trkpt lat="47.29304" lon="-1.87982">
        <ele>68</ele>
        <time>2021-06-05T10:13:24.000Z</time>
      </trkpt>
      <trkpt lat="47.29315" lon="-1.87994">
        <ele>68</ele>
        <time>2021-06-05T10:13:26.000Z</time>
      </trkpt>
      <trkpt lat="47.29327" lon="-1.88004">
        <ele>68</ele>
        <time>2021-06-05T10:13:28.000Z</time>
      </trkpt>
      <trkpt lat="47.2934" lon="-1.88016">
        <ele>67</ele>
        <time>2021-06-05T10:13:30.000Z</time>
      </trkpt>
      <trkpt lat="47.29353" lon="-1.88025">
        <ele>67</ele>
        <time>2021-06-05T10:13:32.000Z</time>
      </trkpt>
      <trkpt lat="47.29366" lon="-1.88034">
        <ele>66</ele>
        <time>2021-06-05T10:13:34.000Z</time>
      </trkpt>
      <trkpt lat="47.2938" lon="-1.88039">
        <ele>66</ele>
        <time>2021-06-05T10:13:36.000Z</time>
      </trkpt>
      <trkpt lat="47.29395" lon="-1.88039">
        <ele>66</ele>
        <time>2021-06-05T10:13:38.000Z</time>
      </trkpt>
      <trkpt lat="47.2941" lon="-1.88036">
        <ele>66</ele>
        <time>2021-06-05T10:13:40.000Z</time>
      </trkpt>
      <trkpt lat="47.29424" lon="-1.88033">
        <ele>67</ele>
        <time>2021-06-05T10:13:42.000Z</time>
      </trkpt>
      <trkpt lat="47.29439" lon="-1.88029">
        <ele>66</ele>
        <time>2021-06-05T10:13:44.000Z</time>
      </trkpt>
      <trkpt lat="47.29455" lon="-1.88026">
        <ele>66</ele>
        <time>2021-06-05T10:13:46.000Z</time>
      </trkpt>
      <trkpt lat="47.29471" lon="-1.88029">
        <ele>64</ele>
        <time>2021-06-05T10:13:48.000Z</time>
      </trkpt>
      <trkpt lat="47.29486" lon="-1.88042">
        <ele>62</ele>
        <time>2021-06-05T10:13:50.000Z</time>
      </trkpt>
      <trkpt lat="47.29496" lon="-1.88062">
        <ele>61</ele>
        <time>2021-06-05T10:13:52.000Z</time>
      </trkpt>
      <trkpt lat="47.29503" lon="-1.88083">
        <ele>61</ele>
        <time>2021-06-05T10:13:54.000Z</time>
      </trkpt>
      <trkpt lat="47.29509" lon="-1.88107">
        <ele>59</ele>
        <time>2021-06-05T10:13:56.000Z</time>
      </trkpt>
      <trkpt lat="47.29514" lon="-1.88131">
        <ele>59</ele>
        <time>2021-06-05T10:13:58.000Z</time>
      </trkpt>
      <trkpt lat="47.29518" lon="-1.88155">
        <ele>58</ele>
        <time>2021-06-05T10:14:00.000Z</time>
      </trkpt>
      <trkpt lat="47.2952" lon="-1.88176">
        <ele>58</ele>
        <time>2021-06-05T10:14:02.000Z</time>
      </trkpt>
      <trkpt lat="47.29522" lon="-1.88197">
        <ele>57</ele>
        <time>2021-06-05T10:14:04.000Z</time>
      </trkpt>
      <trkpt lat="47.29521" lon="-1.88219">
        <ele>57</ele>
        <time>2021-06-05T10:14:06.000Z</time>
      </trkpt>
      <trkpt lat="47.29521" lon="-1.88239">
        <ele>57</ele>
        <time>2021-06-05T10:14:08.000Z</time>
      </trkpt>
      <trkpt lat="47.29521" lon="-1.88258">
        <ele>57</ele>
        <time>2021-06-05T10:14:10.000Z</time>
      </trkpt>
      <trkpt lat="47.29522" lon="-1.88277">
        <ele>58</ele>
        <time>2021-06-05T10:14:12.000Z</time>
      </trkpt>
      <trkpt lat="47.29525" lon="-1.88294">
        <ele>58</ele>
        <time>2021-06-05T10:14:14.000Z</time>
      </trkpt>
      <trkpt lat="47.29529" lon="-1.8831">
        <ele>58</ele>
        <time>2021-06-05T10:14:16.000Z</time>
      </trkpt>
      <trkpt lat="47.29533" lon="-1.88326">
        <ele>58</ele>
        <time>2021-06-05T10:14:18.000Z</time>
      </trkpt>
      <trkpt lat="47.29538" lon="-1.88343">
        <ele>58</ele>
        <time>2021-06-05T10:14:20.000Z</time>
      </trkpt>
      <trkpt lat="47.29543" lon="-1.8836">
        <ele>58</ele>
        <time>2021-06-05T10:14:22.000Z</time>
      </trkpt>
      <trkpt lat="47.29549" lon="-1.88376">
        <ele>58</ele>
        <time>2021-06-05T10:14:24.000Z</time>
      </trkpt>
      <trkpt lat="47.29554" lon="-1.88391">
        <ele>59</ele>
        <time>2021-06-05T10:14:26.000Z</time>
      </trkpt>
      <trkpt lat="47.29559" lon="-1.88408">
        <ele>59</ele>
        <time>2021-06-05T10:14:28.000Z</time>
      </trkpt>
      <trkpt lat="47.29565" lon="-1.88424">
        <ele>59</ele>
        <time>2021-06-05T10:14:30.000Z</time>
      </trkpt>
      <trkpt lat="47.2957" lon="-1.8844">
        <ele>58</ele>
        <time>2021-06-05T10:14:32.000Z</time>
      </trkpt>
      <trkpt lat="47.29577" lon="-1.88457">
        <ele>59</ele>
        <time>2021-06-05T10:14:34.000Z</time>
      </trkpt>
      <trkpt lat="47.29584" lon="-1.88473">
        <ele>59</ele>
        <time>2021-06-05T10:14:36.000Z</time>
      </trkpt>
      <trkpt lat="47.29591" lon="-1.88488">
        <ele>59</ele>
        <time>2021-06-05T10:14:38.000Z</time>
      </trkpt>
      <trkpt lat="47.29598" lon="-1.88501">
        <ele>59</ele>
        <time>2021-06-05T10:14:40.000Z</time>
      </trkpt>
      <trkpt lat="47.29607" lon="-1.88516">
        <ele>60</ele>
        <time>2021-06-05T10:14:42.000Z</time>
      </trkpt>
      <trkpt lat="47.29616" lon="-1.88529">
        <ele>60</ele>
        <time>2021-06-05T10:14:44.000Z</time>
      </trkpt>
      <trkpt lat="47.29625" lon="-1.88542">
        <ele>60</ele>
        <time>2021-06-05T10:14:46.000Z</time>
      </trkpt>
      <trkpt lat="47.29633" lon="-1.88555">
        <ele>60</ele>
        <time>2021-06-05T10:14:48.000Z</time>
      </trkpt>
      <trkpt lat="47.29642" lon="-1.88568">
        <ele>60</ele>
        <time>2021-06-05T10:14:50.000Z</time>
      </trkpt>
      <trkpt lat="47.29651" lon="-1.88581">
        <ele>60</ele>
        <time>2021-06-05T10:14:52.000Z</time>
      </trkpt>
      <trkpt lat="47.2966" lon="-1.88595">
        <ele>60</ele>
        <time>2021-06-05T10:14:54.000Z</time>
      </trkpt>
      <trkpt lat="47.29669" lon="-1.88608">
        <ele>60</ele>
        <time>2021-06-05T10:14:56.000Z</time>
      </trkpt>
      <trkpt lat="47.29678" lon="-1.88622">
        <ele>61</ele>
        <time>2021-06-05T10:14:58.000Z</time>
      </trkpt>
      <trkpt lat="47.29687" lon="-1.88635">
        <ele>61</ele>
        <time>2021-06-05T10:15:00.000Z</time>
      </trkpt>
      <trkpt lat="47.29696" lon="-1.88649">
        <ele>61</ele>
        <time>2021-06-05T10:15:02.000Z</time>
      </trkpt>
      <trkpt lat="47.29705" lon="-1.88662">
        <ele>61</ele>
        <time>2021-06-05T10:15:04.000Z</time>
      </trkpt>
      <trkpt lat="47.29714" lon="-1.88676">
        <ele>61</ele>
        <time>2021-06-05T10:15:06.000Z</time>
      </trkpt>
      <trkpt lat="47.29723" lon="-1.88689">
        <ele>61</ele>
        <time>2021-06-05T10:15:08.000Z</time>
      </trkpt>
      <trkpt lat="47.29732" lon="-1.88702">
        <ele>62</ele>
        <time>2021-06-05T10:15:10.000Z</time>
      </trkpt>
      <trkpt lat="47.29741" lon="-1.88715">
        <ele>62</ele>
        <time>2021-06-05T10:15:12.000Z</time>
      </trkpt>
      <trkpt lat="47.2975" lon="-1.8873">
        <ele>62</ele>
        <time>2021-06-05T10:15:14.000Z</time>
      </trkpt>
      <trkpt lat="47.29757" lon="-1.88744">
        <ele>62</ele>
        <time>2021-06-05T10:15:16.000Z</time>
      </trkpt>
      <trkpt lat="47.29765" lon="-1.8876">
        <ele>62</ele>
        <time>2021-06-05T10:15:18.000Z</time>
      </trkpt>
      <trkpt lat="47.29771" lon="-1.88777">
        <ele>62</ele>
        <time>2021-06-05T10:15:20.000Z</time>
      </trkpt>
      <trkpt lat="47.29777" lon="-1.88794">
        <ele>62</ele>
        <time>2021-06-05T10:15:22.000Z</time>
      </trkpt>
      <trkpt lat="47.29782" lon="-1.88811">
        <ele>62</ele>
        <time>2021-06-05T10:15:24.000Z</time>
      </trkpt>
      <trkpt lat="47.29788" lon="-1.88828">
        <ele>63</ele>
        <time>2021-06-05T10:15:26.000Z</time>
      </trkpt>
      <trkpt lat="47.29793" lon="-1.88844">
        <ele>63</ele>
        <time>2021-06-05T10:15:28.000Z</time>
      </trkpt>
      <trkpt lat="47.29798" lon="-1.8886">
        <ele>63</ele>
        <time>2021-06-05T10:15:30.000Z</time>
      </trkpt>
      <trkpt lat="47.29804" lon="-1.88877">
        <ele>62</ele>
        <time>2021-06-05T10:15:32.000Z</time>
      </trkpt>
      <trkpt lat="47.29809" lon="-1.88894">
        <ele>62</ele>
        <time>2021-06-05T10:15:34.000Z</time>
      </trkpt>
      <trkpt lat="47.29814" lon="-1.88911">
        <ele>62</ele>
        <time>2021-06-05T10:15:36.000Z</time>
      </trkpt>
      <trkpt lat="47.29819" lon="-1.88928">
        <ele>62</ele>
        <time>2021-06-05T10:15:38.000Z</time>
      </trkpt>
      <trkpt lat="47.29824" lon="-1.88945">
        <ele>61</ele>
        <time>2021-06-05T10:15:40.000Z</time>
      </trkpt>
      <trkpt lat="47.29829" lon="-1.88961">
        <ele>61</ele>
        <time>2021-06-05T10:15:42.000Z</time>
      </trkpt>
      <trkpt lat="47.29835" lon="-1.88979">
        <ele>61</ele>
        <time>2021-06-05T10:15:44.000Z</time>
      </trkpt>
      <trkpt lat="47.29841" lon="-1.88996">
        <ele>61</ele>
        <time>2021-06-05T10:15:46.000Z</time>
      </trkpt>
      <trkpt lat="47.29846" lon="-1.89014">
        <ele>60</ele>
        <time>2021-06-05T10:15:48.000Z</time>
      </trkpt>
      <trkpt lat="47.29852" lon="-1.89033">
        <ele>60</ele>
        <time>2021-06-05T10:15:50.000Z</time>
      </trkpt>
      <trkpt lat="47.29858" lon="-1.89052">
        <ele>59</ele>
        <time>2021-06-05T10:15:52.000Z</time>
      </trkpt>
      <trkpt lat="47.29864" lon="-1.8907">
        <ele>59</ele>
        <time>2021-06-05T10:15:54.000Z</time>
      </trkpt>
      <trkpt lat="47.2987" lon="-1.89089">
        <ele>58</ele>
        <time>2021-06-05T10:15:56.000Z</time>
      </trkpt>
      <trkpt lat="47.29876" lon="-1.89107">
        <ele>58</ele>
        <time>2021-06-05T10:15:58.000Z</time>
      </trkpt>
      <trkpt lat="47.29882" lon="-1.89127">
        <ele>57</ele>
        <time>2021-06-05T10:16:00.000Z</time>
      </trkpt>
      <trkpt lat="47.29889" lon="-1.89146">
        <ele>57</ele>
        <time>2021-06-05T10:16:02.000Z</time>
      </trkpt>
      <trkpt lat="47.29895" lon="-1.89165">
        <ele>57</ele>
        <time>2021-06-05T10:16:04.000Z</time>
      </trkpt>
      <trkpt lat="47.29902" lon="-1.89184">
        <ele>57</ele>
        <time>2021-06-05T10:16:06.000Z</time>
      </trkpt>
      <trkpt lat="47.2991" lon="-1.89202">
        <ele>57</ele>
        <time>2021-06-05T10:16:08.000Z</time>
      </trkpt>
      <trkpt lat="47.29918" lon="-1.8922">
        <ele>56</ele>
        <time>2021-06-05T10:16:10.000Z</time>
      </trkpt>
      <trkpt lat="47.29928" lon="-1.89236">
        <ele>56</ele>
        <time>2021-06-05T10:16:12.000Z</time>
      </trkpt>
      <trkpt lat="47.29939" lon="-1.89251">
        <ele>56</ele>
        <time>2021-06-05T10:16:14.000Z</time>
      </trkpt>
      <trkpt lat="47.2995" lon="-1.89263">
        <ele>56</ele>
        <time>2021-06-05T10:16:16.000Z</time>
      </trkpt>
      <trkpt lat="47.29962" lon="-1.89276">
        <ele>56</ele>
        <time>2021-06-05T10:16:18.000Z</time>
      </trkpt>
      <trkpt lat="47.29974" lon="-1.89287">
        <ele>56</ele>
        <time>2021-06-05T10:16:20.000Z</time>
      </trkpt>
      <trkpt lat="47.29986" lon="-1.89299">
        <ele>56</ele>
        <time>2021-06-05T10:16:22.000Z</time>
      </trkpt>
      <trkpt lat="47.29998" lon="-1.8931">
        <ele>56</ele>
        <time>2021-06-05T10:16:24.000Z</time>
      </trkpt>
      <trkpt lat="47.30009" lon="-1.8932">
        <ele>56</ele>
        <time>2021-06-05T10:16:26.000Z</time>
      </trkpt>
      <trkpt lat="47.30021" lon="-1.89331">
        <ele>56</ele>
        <time>2021-06-05T10:16:28.000Z</time>
      </trkpt>
      <trkpt lat="47.30034" lon="-1.89341">
        <ele>57</ele>
        <time>2021-06-05T10:16:30.000Z</time>
      </trkpt>
      <trkpt lat="47.30046" lon="-1.8935">
        <ele>57</ele>
        <time>2021-06-05T10:16:32.000Z</time>
      </trkpt>
      <trkpt lat="47.30059" lon="-1.89357">
        <ele>58</ele>
        <time>2021-06-05T10:16:34.000Z</time>
      </trkpt>
      <trkpt lat="47.30072" lon="-1.89364">
        <ele>58</ele>
        <time>2021-06-05T10:16:36.000Z</time>
      </trkpt>
      <trkpt lat="47.30086" lon="-1.8937">
        <ele>58</ele>
        <time>2021-06-05T10:16:38.000Z</time>
      </trkpt>
      <trkpt lat="47.30099" lon="-1.89375">
        <ele>58</ele>
        <time>2021-06-05T10:16:40.000Z</time>
      </trkpt>
      <trkpt lat="47.30112" lon="-1.8938">
        <ele>58</ele>
        <time>2021-06-05T10:16:42.000Z</time>
      </trkpt>
      <trkpt lat="47.30125" lon="-1.89386">
        <ele>58</ele>
        <time>2021-06-05T10:16:44.000Z</time>
      </trkpt>
      <trkpt lat="47.30138" lon="-1.89392">
        <ele>58</ele>
        <time>2021-06-05T10:16:46.000Z</time>
      </trkpt>
      <trkpt lat="47.30151" lon="-1.89397">
        <ele>58</ele>
        <time>2021-06-05T10:16:48.000Z</time>
      </trkpt>
      <trkpt lat="47.30164" lon="-1.89404">
        <ele>58</ele>
        <time>2021-06-05T10:16:50.000Z</time>
      </trkpt>
      <trkpt lat="47.30177" lon="-1.89412">
        <ele>58</ele>
        <time>2021-06-05T10:16:52.000Z</time>
      </trkpt>
      <trkpt lat="47.30189" lon="-1.89422">
        <ele>58</ele>
        <time>2021-06-05T10:16:54.000Z</time>
      </trkpt>
      <trkpt lat="47.302" lon="-1.89432">
        <ele>58</ele>
        <time>2021-06-05T10:16:56.000Z</time>
      </trkpt>
      <trkpt lat="47.3021" lon="-1.89444">
        <ele>58</ele>
        <time>2021-06-05T10:16:58.000Z</time>
      </trkpt>
      <trkpt lat="47.3022" lon="-1.89458">
        <ele>58</ele>
        <time>2021-06-05T10:17:00.000Z</time>
      </trkpt>
      <trkpt lat="47.30228" lon="-1.89473">
        <ele>58</ele>
        <time>2021-06-05T10:17:02.000Z</time>
      </trkpt>
      <trkpt lat="47.30236" lon="-1.89488">
        <ele>58</ele>
        <time>2021-06-05T10:17:04.000Z</time>
      </trkpt>
      <trkpt lat="47.30244" lon="-1.89503">
        <ele>58</ele>
        <time>2021-06-05T10:17:06.000Z</time>
      </trkpt>
      <trkpt lat="47.30252" lon="-1.89518">
        <ele>58</ele>
        <time>2021-06-05T10:17:08.000Z</time>
      </trkpt>
      <trkpt lat="47.30259" lon="-1.89533">
        <ele>58</ele>
        <time>2021-06-05T10:17:10.000Z</time>
      </trkpt>
      <trkpt lat="47.30267" lon="-1.89547">
        <ele>58</ele>
        <time>2021-06-05T10:17:12.000Z</time>
      </trkpt>
      <trkpt lat="47.30274" lon="-1.89562">
        <ele>58</ele>
        <time>2021-06-05T10:17:14.000Z</time>
      </trkpt>
      <trkpt lat="47.30282" lon="-1.89577">
        <ele>58</ele>
        <time>2021-06-05T10:17:16.000Z</time>
      </trkpt>
      <trkpt lat="47.3029" lon="-1.89592">
        <ele>59</ele>
        <time>2021-06-05T10:17:18.000Z</time>
      </trkpt>
      <trkpt lat="47.30297" lon="-1.89607">
        <ele>59</ele>
        <time>2021-06-05T10:17:20.000Z</time>
      </trkpt>
      <trkpt lat="47.30305" lon="-1.89622">
        <ele>59</ele>
        <time>2021-06-05T10:17:22.000Z</time>
      </trkpt>
      <trkpt lat="47.30313" lon="-1.89637">
        <ele>60</ele>
        <time>2021-06-05T10:17:24.000Z</time>
      </trkpt>
      <trkpt lat="47.3032" lon="-1.89651">
        <ele>60</ele>
        <time>2021-06-05T10:17:26.000Z</time>
      </trkpt>
      <trkpt lat="47.30328" lon="-1.89667">
        <ele>60</ele>
        <time>2021-06-05T10:17:28.000Z</time>
      </trkpt>
      <trkpt lat="47.30336" lon="-1.89681">
        <ele>60</ele>
        <time>2021-06-05T10:17:30.000Z</time>
      </trkpt>
      <trkpt lat="47.30345" lon="-1.89694">
        <ele>60</ele>
        <time>2021-06-05T10:17:32.000Z</time>
      </trkpt>
      <trkpt lat="47.30354" lon="-1.89706">
        <ele>60</ele>
        <time>2021-06-05T10:17:34.000Z</time>
      </trkpt>
      <trkpt lat="47.30364" lon="-1.89718">
        <ele>60</ele>
        <time>2021-06-05T10:17:36.000Z</time>
      </trkpt>
      <trkpt lat="47.30375" lon="-1.89726">
        <ele>60</ele>
        <time>2021-06-05T10:17:38.000Z</time>
      </trkpt>
      <trkpt lat="47.30386" lon="-1.89735">
        <ele>60</ele>
        <time>2021-06-05T10:17:40.000Z</time>
      </trkpt>
      <trkpt lat="47.30397" lon="-1.89743">
        <ele>60</ele>
        <time>2021-06-05T10:17:42.000Z</time>
      </trkpt>
      <trkpt lat="47.30408" lon="-1.89749">
        <ele>60</ele>
        <time>2021-06-05T10:17:44.000Z</time>
      </trkpt>
      <trkpt lat="47.30419" lon="-1.89756">
        <ele>61</ele>
        <time>2021-06-05T10:17:46.000Z</time>
      </trkpt>
      <trkpt lat="47.30431" lon="-1.89763">
        <ele>61</ele>
        <time>2021-06-05T10:17:48.000Z</time>
      </trkpt>
      <trkpt lat="47.30442" lon="-1.89769">
        <ele>61</ele>
        <time>2021-06-05T10:17:50.000Z</time>
      </trkpt>
      <trkpt lat="47.30453" lon="-1.89776">
        <ele>61</ele>
        <time>2021-06-05T10:17:52.000Z</time>
      </trkpt>
      <trkpt lat="47.30465" lon="-1.89783">
        <ele>62</ele>
        <time>2021-06-05T10:17:54.000Z</time>
      </trkpt>
      <trkpt lat="47.30477" lon="-1.8979">
        <ele>62</ele>
        <time>2021-06-05T10:17:56.000Z</time>
      </trkpt>
      <trkpt lat="47.30488" lon="-1.89797">
        <ele>63</ele>
        <time>2021-06-05T10:17:58.000Z</time>
      </trkpt>
      <trkpt lat="47.30499" lon="-1.89805">
        <ele>63</ele>
        <time>2021-06-05T10:18:00.000Z</time>
      </trkpt>
      <trkpt lat="47.3051" lon="-1.89814">
        <ele>63</ele>
        <time>2021-06-05T10:18:02.000Z</time>
      </trkpt>
      <trkpt lat="47.3052" lon="-1.89823">
        <ele>64</ele>
        <time>2021-06-05T10:18:04.000Z</time>
      </trkpt>
      <trkpt lat="47.30531" lon="-1.89833">
        <ele>64</ele>
        <time>2021-06-05T10:18:06.000Z</time>
      </trkpt>
      <trkpt lat="47.30541" lon="-1.89844">
        <ele>64</ele>
        <time>2021-06-05T10:18:08.000Z</time>
      </trkpt>
      <trkpt lat="47.3055" lon="-1.89856">
        <ele>64</ele>
        <time>2021-06-05T10:18:10.000Z</time>
      </trkpt>
      <trkpt lat="47.3056" lon="-1.89868">
        <ele>64</ele>
        <time>2021-06-05T10:18:12.000Z</time>
      </trkpt>
      <trkpt lat="47.3057" lon="-1.8988">
        <ele>64</ele>
        <time>2021-06-05T10:18:14.000Z</time>
      </trkpt>
      <trkpt lat="47.30582" lon="-1.89893">
        <ele>65</ele>
        <time>2021-06-05T10:18:16.000Z</time>
      </trkpt>
      <trkpt lat="47.30592" lon="-1.89905">
        <ele>65</ele>
        <time>2021-06-05T10:18:18.000Z</time>
      </trkpt>
      <trkpt lat="47.30603" lon="-1.89917">
        <ele>66</ele>
        <time>2021-06-05T10:18:20.000Z</time>
      </trkpt>
      <trkpt lat="47.30613" lon="-1.89931">
        <ele>66</ele>
        <time>2021-06-05T10:18:22.000Z</time>
      </trkpt>
      <trkpt lat="47.30623" lon="-1.89943">
        <ele>66</ele>
        <time>2021-06-05T10:18:24.000Z</time>
      </trkpt>
      <trkpt lat="47.30634" lon="-1.89956">
        <ele>66</ele>
        <time>2021-06-05T10:18:26.000Z</time>
      </trkpt>
      <trkpt lat="47.30644" lon="-1.89969">
        <ele>66</ele>
        <time>2021-06-05T10:18:28.000Z</time>
      </trkpt>
      <trkpt lat="47.30655" lon="-1.89981">
        <ele>66</ele>
        <time>2021-06-05T10:18:30.000Z</time>
      </trkpt>
      <trkpt lat="47.30665" lon="-1.89993">
        <ele>66</ele>
        <time>2021-06-05T10:18:32.000Z</time>
      </trkpt>
      <trkpt lat="47.30675" lon="-1.90006">
        <ele>66</ele>
        <time>2021-06-05T10:18:34.000Z</time>
      </trkpt>
      <trkpt lat="47.30685" lon="-1.90019">
        <ele>66</ele>
        <time>2021-06-05T10:18:36.000Z</time>
      </trkpt>
      <trkpt lat="47.30695" lon="-1.90031">
        <ele>65</ele>
        <time>2021-06-05T10:18:38.000Z</time>
      </trkpt>
      <trkpt lat="47.30705" lon="-1.90043">
        <ele>65</ele>
        <time>2021-06-05T10:18:40.000Z</time>
      </trkpt>
      <trkpt lat="47.30716" lon="-1.90055">
        <ele>64</ele>
        <time>2021-06-05T10:18:42.000Z</time>
      </trkpt>
      <trkpt lat="47.30728" lon="-1.90068">
        <ele>64</ele>
        <time>2021-06-05T10:18:44.000Z</time>
      </trkpt>
      <trkpt lat="47.3074" lon="-1.9008">
        <ele>63</ele>
        <time>2021-06-05T10:18:46.000Z</time>
      </trkpt>
      <trkpt lat="47.30754" lon="-1.9009">
        <ele>62</ele>
        <time>2021-06-05T10:18:48.000Z</time>
      </trkpt>
      <trkpt lat="47.30769" lon="-1.901">
        <ele>62</ele>
        <time>2021-06-05T10:18:50.000Z</time>
      </trkpt>
      <trkpt lat="47.30784" lon="-1.9011">
        <ele>61</ele>
        <time>2021-06-05T10:18:52.000Z</time>
      </trkpt>
      <trkpt lat="47.308" lon="-1.9012">
        <ele>60</ele>
        <time>2021-06-05T10:18:54.000Z</time>
      </trkpt>
      <trkpt lat="47.30815" lon="-1.90129">
        <ele>60</ele>
        <time>2021-06-05T10:18:56.000Z</time>
      </trkpt>
      <trkpt lat="47.3083" lon="-1.90139">
        <ele>59</ele>
        <time>2021-06-05T10:18:58.000Z</time>
      </trkpt>
      <trkpt lat="47.30846" lon="-1.90149">
        <ele>58</ele>
        <time>2021-06-05T10:19:00.000Z</time>
      </trkpt>
      <trkpt lat="47.30861" lon="-1.90158">
        <ele>57</ele>
        <time>2021-06-05T10:19:02.000Z</time>
      </trkpt>
      <trkpt lat="47.30876" lon="-1.90168">
        <ele>57</ele>
        <time>2021-06-05T10:19:04.000Z</time>
      </trkpt>
      <trkpt lat="47.30892" lon="-1.90178">
        <ele>57</ele>
        <time>2021-06-05T10:19:06.000Z</time>
      </trkpt>
      <trkpt lat="47.30907" lon="-1.90187">
        <ele>57</ele>
        <time>2021-06-05T10:19:08.000Z</time>
      </trkpt>
      <trkpt lat="47.30923" lon="-1.90194">
        <ele>57</ele>
        <time>2021-06-05T10:19:10.000Z</time>
      </trkpt>
      <trkpt lat="47.30938" lon="-1.902">
        <ele>56</ele>
        <time>2021-06-05T10:19:12.000Z</time>
      </trkpt>
      <trkpt lat="47.30952" lon="-1.90205">
        <ele>56</ele>
        <time>2021-06-05T10:19:14.000Z</time>
      </trkpt>
      <trkpt lat="47.30966" lon="-1.90211">
        <ele>57</ele>
        <time>2021-06-05T10:19:16.000Z</time>
      </trkpt>
      <trkpt lat="47.30979" lon="-1.90217">
        <ele>57</ele>
        <time>2021-06-05T10:19:18.000Z</time>
      </trkpt>
      <trkpt lat="47.30991" lon="-1.90225">
        <ele>57</ele>
        <time>2021-06-05T10:19:20.000Z</time>
      </trkpt>
      <trkpt lat="47.31002" lon="-1.90235">
        <ele>57</ele>
        <time>2021-06-05T10:19:22.000Z</time>
      </trkpt>
      <trkpt lat="47.31013" lon="-1.90246">
        <ele>58</ele>
        <time>2021-06-05T10:19:24.000Z</time>
      </trkpt>
      <trkpt lat="47.31024" lon="-1.90257">
        <ele>58</ele>
        <time>2021-06-05T10:19:26.000Z</time>
      </trkpt>
      <trkpt lat="47.31035" lon="-1.90269">
        <ele>58</ele>
        <time>2021-06-05T10:19:28.000Z</time>
      </trkpt>
      <trkpt lat="47.31046" lon="-1.9028">
        <ele>59</ele>
        <time>2021-06-05T10:19:30.000Z</time>
      </trkpt>
      <trkpt lat="47.31056" lon="-1.90292">
        <ele>59</ele>
        <time>2021-06-05T10:19:32.000Z</time>
      </trkpt>
      <trkpt lat="47.31065" lon="-1.90307">
        <ele>58</ele>
        <time>2021-06-05T10:19:34.000Z</time>
      </trkpt>
      <trkpt lat="47.31074" lon="-1.90322">
        <ele>58</ele>
        <time>2021-06-05T10:19:36.000Z</time>
      </trkpt>
      <trkpt lat="47.31082" lon="-1.90338">
        <ele>58</ele>
        <time>2021-06-05T10:19:38.000Z</time>
      </trkpt>
      <trkpt lat="47.31089" lon="-1.90355">
        <ele>58</ele>
        <time>2021-06-05T10:19:40.000Z</time>
      </trkpt>
      <trkpt lat="47.31096" lon="-1.90374">
        <ele>58</ele>
        <time>2021-06-05T10:19:42.000Z</time>
      </trkpt>
      <trkpt lat="47.31103" lon="-1.90392">
        <ele>58</ele>
        <time>2021-06-05T10:19:44.000Z</time>
      </trkpt>
      <trkpt lat="47.3111" lon="-1.9041">
        <ele>58</ele>
        <time>2021-06-05T10:19:46.000Z</time>
      </trkpt>
      <trkpt lat="47.31117" lon="-1.9043">
        <ele>58</ele>
        <time>2021-06-05T10:19:48.000Z</time>
      </trkpt>
      <trkpt lat="47.31124" lon="-1.90448">
        <ele>58</ele>
        <time>2021-06-05T10:19:50.000Z</time>
      </trkpt>
      <trkpt lat="47.31131" lon="-1.90467">
        <ele>57</ele>
        <time>2021-06-05T10:19:52.000Z</time>
      </trkpt>
      <trkpt lat="47.31139" lon="-1.90486">
        <ele>57</ele>
        <time>2021-06-05T10:19:54.000Z</time>
      </trkpt>
      <trkpt lat="47.31146" lon="-1.90506">
        <ele>57</ele>
        <time>2021-06-05T10:19:56.000Z</time>
      </trkpt>
      <trkpt lat="47.31154" lon="-1.90526">
        <ele>57</ele>
        <time>2021-06-05T10:19:58.000Z</time>
      </trkpt>
      <trkpt lat="47.31161" lon="-1.90545">
        <ele>56</ele>
        <time>2021-06-05T10:20:00.000Z</time>
      </trkpt>
      <trkpt lat="47.31168" lon="-1.90565">
        <ele>56</ele>
        <time>2021-06-05T10:20:02.000Z</time>
      </trkpt>
      <trkpt lat="47.31175" lon="-1.90583">
        <ele>56</ele>
        <time>2021-06-05T10:20:04.000Z</time>
      </trkpt>
      <trkpt lat="47.31182" lon="-1.90603">
        <ele>56</ele>
        <time>2021-06-05T10:20:06.000Z</time>
      </trkpt>
      <trkpt lat="47.31189" lon="-1.90622">
        <ele>56</ele>
        <time>2021-06-05T10:20:08.000Z</time>
      </trkpt>
      <trkpt lat="47.31196" lon="-1.90641">
        <ele>56</ele>
        <time>2021-06-05T10:20:10.000Z</time>
      </trkpt>
      <trkpt lat="47.31203" lon="-1.90661">
        <ele>55</ele>
        <time>2021-06-05T10:20:12.000Z</time>
      </trkpt>
      <trkpt lat="47.3121" lon="-1.90679">
        <ele>55</ele>
        <time>2021-06-05T10:20:14.000Z</time>
      </trkpt>
      <trkpt lat="47.31217" lon="-1.90697">
        <ele>54</ele>
        <time>2021-06-05T10:20:16.000Z</time>
      </trkpt>
      <trkpt lat="47.31223" lon="-1.90715">
        <ele>54</ele>
        <time>2021-06-05T10:20:18.000Z</time>
      </trkpt>
      <trkpt lat="47.31229" lon="-1.90733">
        <ele>54</ele>
        <time>2021-06-05T10:20:20.000Z</time>
      </trkpt>
      <trkpt lat="47.31236" lon="-1.90751">
        <ele>54</ele>
        <time>2021-06-05T10:20:22.000Z</time>
      </trkpt>
      <trkpt lat="47.31242" lon="-1.90769">
        <ele>55</ele>
        <time>2021-06-05T10:20:24.000Z</time>
      </trkpt>
      <trkpt lat="47.31249" lon="-1.90787">
        <ele>55</ele>
        <time>2021-06-05T10:20:26.000Z</time>
      </trkpt>
      <trkpt lat="47.31255" lon="-1.90805">
        <ele>55</ele>
        <time>2021-06-05T10:20:28.000Z</time>
      </trkpt>
      <trkpt lat="47.31262" lon="-1.90823">
        <ele>54</ele>
        <time>2021-06-05T10:20:30.000Z</time>
      </trkpt>
      <trkpt lat="47.3127" lon="-1.90841">
        <ele>55</ele>
        <time>2021-06-05T10:20:32.000Z</time>
      </trkpt>
      <trkpt lat="47.31276" lon="-1.90859">
        <ele>55</ele>
        <time>2021-06-05T10:20:34.000Z</time>
      </trkpt>
      <trkpt lat="47.31282" lon="-1.90876">
        <ele>55</ele>
        <time>2021-06-05T10:20:36.000Z</time>
      </trkpt>
      <trkpt lat="47.31288" lon="-1.90893">
        <ele>55</ele>
        <time>2021-06-05T10:20:38.000Z</time>
      </trkpt>
      <trkpt lat="47.31294" lon="-1.9091">
        <ele>55</ele>
        <time>2021-06-05T10:20:40.000Z</time>
      </trkpt>
      <trkpt lat="47.313" lon="-1.90928">
        <ele>55</ele>
        <time>2021-06-05T10:20:42.000Z</time>
      </trkpt>
      <trkpt lat="47.31305" lon="-1.90946">
        <ele>56</ele>
        <time>2021-06-05T10:20:44.000Z</time>
      </trkpt>
      <trkpt lat="47.31311" lon="-1.90965">
        <ele>56</ele>
        <time>2021-06-05T10:20:46.000Z</time>
      </trkpt>
      <trkpt lat="47.31315" lon="-1.90983">
        <ele>56</ele>
        <time>2021-06-05T10:20:48.000Z</time>
      </trkpt>
      <trkpt lat="47.31321" lon="-1.91001">
        <ele>56</ele>
        <time>2021-06-05T10:20:50.000Z</time>
      </trkpt>
      <trkpt lat="47.31326" lon="-1.91019">
        <ele>56</ele>
        <time>2021-06-05T10:20:52.000Z</time>
      </trkpt>
      <trkpt lat="47.31331" lon="-1.91037">
        <ele>56</ele>
        <time>2021-06-05T10:20:54.000Z</time>
      </trkpt>
      <trkpt lat="47.31337" lon="-1.91053">
        <ele>57</ele>
        <time>2021-06-05T10:20:56.000Z</time>
      </trkpt>
      <trkpt lat="47.31344" lon="-1.9107">
        <ele>57</ele>
        <time>2021-06-05T10:20:58.000Z</time>
      </trkpt>
      <trkpt lat="47.31356" lon="-1.91077">
        <ele>57</ele>
        <time>2021-06-05T10:21:00.000Z</time>
      </trkpt>
      <trkpt lat="47.3137" lon="-1.91076">
        <ele>58</ele>
        <time>2021-06-05T10:21:02.000Z</time>
      </trkpt>
      <trkpt lat="47.31383" lon="-1.91071">
        <ele>58</ele>
        <time>2021-06-05T10:21:04.000Z</time>
      </trkpt>
      <trkpt lat="47.31396" lon="-1.91064">
        <ele>58</ele>
        <time>2021-06-05T10:21:06.000Z</time>
      </trkpt>
      <trkpt lat="47.31409" lon="-1.91058">
        <ele>59</ele>
        <time>2021-06-05T10:21:08.000Z</time>
      </trkpt>
      <trkpt lat="47.31421" lon="-1.91051">
        <ele>60</ele>
        <time>2021-06-05T10:21:10.000Z</time>
      </trkpt>
      <trkpt lat="47.31433" lon="-1.91046">
        <ele>60</ele>
        <time>2021-06-05T10:21:12.000Z</time>
      </trkpt>
      <trkpt lat="47.31446" lon="-1.9104">
        <ele>60</ele>
        <time>2021-06-05T10:21:14.000Z</time>
      </trkpt>
      <trkpt lat="47.31458" lon="-1.91035">
        <ele>61</ele>
        <time>2021-06-05T10:21:16.000Z</time>
      </trkpt>
      <trkpt lat="47.3147" lon="-1.9103">
        <ele>61</ele>
        <time>2021-06-05T10:21:18.000Z</time>
      </trkpt>
      <trkpt lat="47.31483" lon="-1.91026">
        <ele>61</ele>
        <time>2021-06-05T10:21:20.000Z</time>
      </trkpt>
      <trkpt lat="47.31495" lon="-1.91021">
        <ele>61</ele>
        <time>2021-06-05T10:21:22.000Z</time>
      </trkpt>
      <trkpt lat="47.31507" lon="-1.91017">
        <ele>61</ele>
        <time>2021-06-05T10:21:24.000Z</time>
      </trkpt>
      <trkpt lat="47.31519" lon="-1.91014">
        <ele>61</ele>
        <time>2021-06-05T10:21:26.000Z</time>
      </trkpt>
      <trkpt lat="47.31531" lon="-1.91012">
        <ele>61</ele>
        <time>2021-06-05T10:21:28.000Z</time>
      </trkpt>
      <trkpt lat="47.31543" lon="-1.91011">
        <ele>61</ele>
        <time>2021-06-05T10:21:30.000Z</time>
      </trkpt>
      <trkpt lat="47.31555" lon="-1.91011">
        <ele>62</ele>
        <time>2021-06-05T10:21:32.000Z</time>
      </trkpt>
      <trkpt lat="47.31566" lon="-1.91012">
        <ele>62</ele>
        <time>2021-06-05T10:21:34.000Z</time>
      </trkpt>
      <trkpt lat="47.31577" lon="-1.91013">
        <ele>62</ele>
        <time>2021-06-05T10:21:36.000Z</time>
      </trkpt>
      <trkpt lat="47.31588" lon="-1.91014">
        <ele>63</ele>
        <time>2021-06-05T10:21:38.000Z</time>
      </trkpt>
      <trkpt lat="47.316" lon="-1.91015">
        <ele>64</ele>
        <time>2021-06-05T10:21:40.000Z</time>
      </trkpt>
      <trkpt lat="47.31612" lon="-1.91016">
        <ele>64</ele>
        <time>2021-06-05T10:21:42.000Z</time>
      </trkpt>
      <trkpt lat="47.31624" lon="-1.91016">
        <ele>65</ele>
        <time>2021-06-05T10:21:44.000Z</time>
      </trkpt>
      <trkpt lat="47.31635" lon="-1.91017">
        <ele>65</ele>
        <time>2021-06-05T10:21:46.000Z</time>
      </trkpt>
      <trkpt lat="47.31647" lon="-1.91018">
        <ele>66</ele>
        <time>2021-06-05T10:21:48.000Z</time>
      </trkpt>
      <trkpt lat="47.31658" lon="-1.91018">
        <ele>66</ele>
        <time>2021-06-05T10:21:50.000Z</time>
      </trkpt>
      <trkpt lat="47.31669" lon="-1.91018">
        <ele>66</ele>
        <time>2021-06-05T10:21:52.000Z</time>
      </trkpt>
      <trkpt lat="47.31681" lon="-1.91019">
        <ele>66</ele>
        <time>2021-06-05T10:21:54.000Z</time>
      </trkpt>
      <trkpt lat="47.31692" lon="-1.9102">
        <ele>66</ele>
        <time>2021-06-05T10:21:56.000Z</time>
      </trkpt>
      <trkpt lat="47.31702" lon="-1.9102">
        <ele>66</ele>
        <time>2021-06-05T10:21:58.000Z</time>
      </trkpt>
      <trkpt lat="47.31713" lon="-1.9102">
        <ele>67</ele>
        <time>2021-06-05T10:22:00.000Z</time>
      </trkpt>
      <trkpt lat="47.31724" lon="-1.9102">
        <ele>67</ele>
        <time>2021-06-05T10:22:02.000Z</time>
      </trkpt>
      <trkpt lat="47.31736" lon="-1.91021">
        <ele>68</ele>
        <time>2021-06-05T10:22:04.000Z</time>
      </trkpt>
      <trkpt lat="47.31747" lon="-1.91022">
        <ele>68</ele>
        <time>2021-06-05T10:22:06.000Z</time>
      </trkpt>
      <trkpt lat="47.31758" lon="-1.91022">
        <ele>68</ele>
        <time>2021-06-05T10:22:08.000Z</time>
      </trkpt>
      <trkpt lat="47.31769" lon="-1.91023">
        <ele>68</ele>
        <time>2021-06-05T10:22:10.000Z</time>
      </trkpt>
      <trkpt lat="47.31781" lon="-1.91023">
        <ele>68</ele>
        <time>2021-06-05T10:22:12.000Z</time>
      </trkpt>
      <trkpt lat="47.31792" lon="-1.91021">
        <ele>68</ele>
        <time>2021-06-05T10:22:14.000Z</time>
      </trkpt>
      <trkpt lat="47.31804" lon="-1.91018">
        <ele>68</ele>
        <time>2021-06-05T10:22:16.000Z</time>
      </trkpt>
      <trkpt lat="47.31815" lon="-1.91014">
        <ele>69</ele>
        <time>2021-06-05T10:22:18.000Z</time>
      </trkpt>
      <trkpt lat="47.31826" lon="-1.91009">
        <ele>69</ele>
        <time>2021-06-05T10:22:20.000Z</time>
      </trkpt>
      <trkpt lat="47.31836" lon="-1.91003">
        <ele>69</ele>
        <time>2021-06-05T10:22:22.000Z</time>
      </trkpt>
      <trkpt lat="47.31847" lon="-1.90998">
        <ele>69</ele>
        <time>2021-06-05T10:22:24.000Z</time>
      </trkpt>
      <trkpt lat="47.31858" lon="-1.90993">
        <ele>70</ele>
        <time>2021-06-05T10:22:26.000Z</time>
      </trkpt>
      <trkpt lat="47.31868" lon="-1.90989">
        <ele>70</ele>
        <time>2021-06-05T10:22:28.000Z</time>
      </trkpt>
      <trkpt lat="47.31879" lon="-1.90984">
        <ele>70</ele>
        <time>2021-06-05T10:22:30.000Z</time>
      </trkpt>
      <trkpt lat="47.3189" lon="-1.9098">
        <ele>71</ele>
        <time>2021-06-05T10:22:32.000Z</time>
      </trkpt>
      <trkpt lat="47.31902" lon="-1.90978">
        <ele>71</ele>
        <time>2021-06-05T10:22:34.000Z</time>
      </trkpt>
      <trkpt lat="47.31913" lon="-1.90979">
        <ele>71</ele>
        <time>2021-06-05T10:22:36.000Z</time>
      </trkpt>
      <trkpt lat="47.31923" lon="-1.90984">
        <ele>71</ele>
        <time>2021-06-05T10:22:38.000Z</time>
      </trkpt>
      <trkpt lat="47.31932" lon="-1.90992">
        <ele>72</ele>
        <time>2021-06-05T10:22:40.000Z</time>
      </trkpt>
      <trkpt lat="47.31941" lon="-1.91">
        <ele>72</ele>
        <time>2021-06-05T10:22:42.000Z</time>
      </trkpt>
      <trkpt lat="47.3195" lon="-1.91009">
        <ele>72</ele>
        <time>2021-06-05T10:22:44.000Z</time>
      </trkpt>
      <trkpt lat="47.31961" lon="-1.91016">
        <ele>72</ele>
        <time>2021-06-05T10:22:46.000Z</time>
      </trkpt>
      <trkpt lat="47.31971" lon="-1.9102">
        <ele>72</ele>
        <time>2021-06-05T10:22:48.000Z</time>
      </trkpt>
      <trkpt lat="47.31983" lon="-1.91022">
        <ele>72</ele>
        <time>2021-06-05T10:22:50.000Z</time>
      </trkpt>
      <trkpt lat="47.31994" lon="-1.91021">
        <ele>72</ele>
        <time>2021-06-05T10:22:52.000Z</time>
      </trkpt>
      <trkpt lat="47.32005" lon="-1.91019">
        <ele>73</ele>
        <time>2021-06-05T10:22:54.000Z</time>
      </trkpt>
      <trkpt lat="47.32015" lon="-1.91014">
        <ele>72</ele>
        <time>2021-06-05T10:22:56.000Z</time>
      </trkpt>
      <trkpt lat="47.32022" lon="-1.91026">
        <ele>73</ele>
        <time>2021-06-05T10:22:59.000Z</time>
      </trkpt>
      <trkpt lat="47.32021" lon="-1.91043">
        <ele>73</ele>
        <time>2021-06-05T10:23:01.000Z</time>
      </trkpt>
      <trkpt lat="47.3202" lon="-1.91062">
        <ele>72</ele>
        <time>2021-06-05T10:23:03.000Z</time>
      </trkpt>
      <trkpt lat="47.32018" lon="-1.91081">
        <ele>71</ele>
        <time>2021-06-05T10:23:05.000Z</time>
      </trkpt>
      <trkpt lat="47.32016" lon="-1.91101">
        <ele>70</ele>
        <time>2021-06-05T10:23:07.000Z</time>
      </trkpt>
      <trkpt lat="47.32013" lon="-1.91121">
        <ele>69</ele>
        <time>2021-06-05T10:23:09.000Z</time>
      </trkpt>
      <trkpt lat="47.32011" lon="-1.91141">
        <ele>68</ele>
        <time>2021-06-05T10:23:11.000Z</time>
      </trkpt>
      <trkpt lat="47.32008" lon="-1.91161">
        <ele>67</ele>
        <time>2021-06-05T10:23:13.000Z</time>
      </trkpt>
      <trkpt lat="47.32005" lon="-1.91181">
        <ele>67</ele>
        <time>2021-06-05T10:23:15.000Z</time>
      </trkpt>
      <trkpt lat="47.32003" lon="-1.91202">
        <ele>66</ele>
        <time>2021-06-05T10:23:17.000Z</time>
      </trkpt>
      <trkpt lat="47.32" lon="-1.91223">
        <ele>66</ele>
        <time>2021-06-05T10:23:19.000Z</time>
      </trkpt>
      <trkpt lat="47.31998" lon="-1.91244">
        <ele>65</ele>
        <time>2021-06-05T10:23:21.000Z</time>
      </trkpt>
      <trkpt lat="47.31995" lon="-1.91267">
        <ele>65</ele>
        <time>2021-06-05T10:23:23.000Z</time>
      </trkpt>
      <trkpt lat="47.31992" lon="-1.91289">
        <ele>64</ele>
        <time>2021-06-05T10:23:25.000Z</time>
      </trkpt>
      <trkpt lat="47.31989" lon="-1.91312">
        <ele>63</ele>
        <time>2021-06-05T10:23:27.000Z</time>
      </trkpt>
      <trkpt lat="47.31986" lon="-1.91335">
        <ele>62</ele>
        <time>2021-06-05T10:23:29.000Z</time>
      </trkpt>
      <trkpt lat="47.31983" lon="-1.9136">
        <ele>62</ele>
        <time>2021-06-05T10:23:31.000Z</time>
      </trkpt>
      <trkpt lat="47.3198" lon="-1.91384">
        <ele>61</ele>
        <time>2021-06-05T10:23:33.000Z</time>
      </trkpt>
      <trkpt lat="47.31977" lon="-1.91409">
        <ele>61</ele>
        <time>2021-06-05T10:23:35.000Z</time>
      </trkpt>
      <trkpt lat="47.31976" lon="-1.91422">
        <ele>61</ele>
        <time>2021-06-05T10:23:36.000Z</time>
      </trkpt>
      <trkpt lat="47.31972" lon="-1.91447">
        <ele>61</ele>
        <time>2021-06-05T10:23:38.000Z</time>
      </trkpt>
      <trkpt lat="47.31969" lon="-1.91473">
        <ele>61</ele>
        <time>2021-06-05T10:23:40.000Z</time>
      </trkpt>
      <trkpt lat="47.31966" lon="-1.91497">
        <ele>61</ele>
        <time>2021-06-05T10:23:42.000Z</time>
      </trkpt>
      <trkpt lat="47.31963" lon="-1.91521">
        <ele>61</ele>
        <time>2021-06-05T10:23:44.000Z</time>
      </trkpt>
      <trkpt lat="47.3196" lon="-1.91544">
        <ele>61</ele>
        <time>2021-06-05T10:23:46.000Z</time>
      </trkpt>
      <trkpt lat="47.31957" lon="-1.91566">
        <ele>61</ele>
        <time>2021-06-05T10:23:48.000Z</time>
      </trkpt>
      <trkpt lat="47.31954" lon="-1.91588">
        <ele>62</ele>
        <time>2021-06-05T10:23:50.000Z</time>
      </trkpt>
      <trkpt lat="47.31951" lon="-1.91611">
        <ele>62</ele>
        <time>2021-06-05T10:23:52.000Z</time>
      </trkpt>
      <trkpt lat="47.31949" lon="-1.91634">
        <ele>62</ele>
        <time>2021-06-05T10:23:54.000Z</time>
      </trkpt>
      <trkpt lat="47.31946" lon="-1.91657">
        <ele>62</ele>
        <time>2021-06-05T10:23:56.000Z</time>
      </trkpt>
      <trkpt lat="47.31943" lon="-1.91682">
        <ele>61</ele>
        <time>2021-06-05T10:23:58.000Z</time>
      </trkpt>
      <trkpt lat="47.3194" lon="-1.91707">
        <ele>59</ele>
        <time>2021-06-05T10:24:00.000Z</time>
      </trkpt>
      <trkpt lat="47.31937" lon="-1.91731">
        <ele>58</ele>
        <time>2021-06-05T10:24:02.000Z</time>
      </trkpt>
      <trkpt lat="47.31934" lon="-1.91756">
        <ele>56</ele>
        <time>2021-06-05T10:24:04.000Z</time>
      </trkpt>
      <trkpt lat="47.31931" lon="-1.91781">
        <ele>55</ele>
        <time>2021-06-05T10:24:06.000Z</time>
      </trkpt>
      <trkpt lat="47.31928" lon="-1.91805">
        <ele>55</ele>
        <time>2021-06-05T10:24:08.000Z</time>
      </trkpt>
      <trkpt lat="47.31925" lon="-1.91829">
        <ele>54</ele>
        <time>2021-06-05T10:24:10.000Z</time>
      </trkpt>
      <trkpt lat="47.31922" lon="-1.91853">
        <ele>55</ele>
        <time>2021-06-05T10:24:12.000Z</time>
      </trkpt>
      <trkpt lat="47.31919" lon="-1.91876">
        <ele>55</ele>
        <time>2021-06-05T10:24:14.000Z</time>
      </trkpt>
      <trkpt lat="47.31916" lon="-1.919">
        <ele>55</ele>
        <time>2021-06-05T10:24:16.000Z</time>
      </trkpt>
      <trkpt lat="47.31913" lon="-1.91922">
        <ele>55</ele>
        <time>2021-06-05T10:24:18.000Z</time>
      </trkpt>
      <trkpt lat="47.31911" lon="-1.91943">
        <ele>56</ele>
        <time>2021-06-05T10:24:20.000Z</time>
      </trkpt>
      <trkpt lat="47.31908" lon="-1.91965">
        <ele>56</ele>
        <time>2021-06-05T10:24:22.000Z</time>
      </trkpt>
      <trkpt lat="47.31905" lon="-1.91985">
        <ele>56</ele>
        <time>2021-06-05T10:24:24.000Z</time>
      </trkpt>
      <trkpt lat="47.31902" lon="-1.92006">
        <ele>57</ele>
        <time>2021-06-05T10:24:26.000Z</time>
      </trkpt>
      <trkpt lat="47.31899" lon="-1.92027">
        <ele>57</ele>
        <time>2021-06-05T10:24:28.000Z</time>
      </trkpt>
      <trkpt lat="47.31897" lon="-1.92049">
        <ele>58</ele>
        <time>2021-06-05T10:24:30.000Z</time>
      </trkpt>
      <trkpt lat="47.31894" lon="-1.9207">
        <ele>57</ele>
        <time>2021-06-05T10:24:32.000Z</time>
      </trkpt>
      <trkpt lat="47.31891" lon="-1.92091">
        <ele>57</ele>
        <time>2021-06-05T10:24:34.000Z</time>
      </trkpt>
      <trkpt lat="47.31888" lon="-1.92112">
        <ele>58</ele>
        <time>2021-06-05T10:24:36.000Z</time>
      </trkpt>
      <trkpt lat="47.31886" lon="-1.92133">
        <ele>57</ele>
        <time>2021-06-05T10:24:38.000Z</time>
      </trkpt>
      <trkpt lat="47.31884" lon="-1.92154">
        <ele>57</ele>
        <time>2021-06-05T10:24:40.000Z</time>
      </trkpt>
      <trkpt lat="47.3188" lon="-1.92175">
        <ele>57</ele>
        <time>2021-06-05T10:24:42.000Z</time>
      </trkpt>
      <trkpt lat="47.31878" lon="-1.92195">
        <ele>57</ele>
        <time>2021-06-05T10:24:44.000Z</time>
      </trkpt>
      <trkpt lat="47.31877" lon="-1.92215">
        <ele>57</ele>
        <time>2021-06-05T10:24:46.000Z</time>
      </trkpt>
      <trkpt lat="47.31875" lon="-1.92235">
        <ele>57</ele>
        <time>2021-06-05T10:24:48.000Z</time>
      </trkpt>
      <trkpt lat="47.31874" lon="-1.92255">
        <ele>56</ele>
        <time>2021-06-05T10:24:50.000Z</time>
      </trkpt>
      <trkpt lat="47.31874" lon="-1.92276">
        <ele>56</ele>
        <time>2021-06-05T10:24:52.000Z</time>
      </trkpt>
      <trkpt lat="47.31874" lon="-1.92297">
        <ele>56</ele>
        <time>2021-06-05T10:24:54.000Z</time>
      </trkpt>
      <trkpt lat="47.31874" lon="-1.92318">
        <ele>56</ele>
        <time>2021-06-05T10:24:56.000Z</time>
      </trkpt>
      <trkpt lat="47.31875" lon="-1.9234">
        <ele>55</ele>
        <time>2021-06-05T10:24:58.000Z</time>
      </trkpt>
      <trkpt lat="47.31876" lon="-1.92362">
        <ele>54</ele>
        <time>2021-06-05T10:25:00.000Z</time>
      </trkpt>
      <trkpt lat="47.31878" lon="-1.92384">
        <ele>54</ele>
        <time>2021-06-05T10:25:02.000Z</time>
      </trkpt>
      <trkpt lat="47.3188" lon="-1.92406">
        <ele>54</ele>
        <time>2021-06-05T10:25:04.000Z</time>
      </trkpt>
      <trkpt lat="47.31882" lon="-1.92428">
        <ele>54</ele>
        <time>2021-06-05T10:25:06.000Z</time>
      </trkpt>
      <trkpt lat="47.31885" lon="-1.92449">
        <ele>54</ele>
        <time>2021-06-05T10:25:08.000Z</time>
      </trkpt>
      <trkpt lat="47.31888" lon="-1.9247">
        <ele>54</ele>
        <time>2021-06-05T10:25:10.000Z</time>
      </trkpt>
      <trkpt lat="47.31891" lon="-1.92493">
        <ele>54</ele>
        <time>2021-06-05T10:25:12.000Z</time>
      </trkpt>
      <trkpt lat="47.31893" lon="-1.92515">
        <ele>54</ele>
        <time>2021-06-05T10:25:14.000Z</time>
      </trkpt>
      <trkpt lat="47.31896" lon="-1.92537">
        <ele>54</ele>
        <time>2021-06-05T10:25:16.000Z</time>
      </trkpt>
      <trkpt lat="47.31899" lon="-1.92559">
        <ele>53</ele>
        <time>2021-06-05T10:25:18.000Z</time>
      </trkpt>
      <trkpt lat="47.31901" lon="-1.9258">
        <ele>54</ele>
        <time>2021-06-05T10:25:20.000Z</time>
      </trkpt>
      <trkpt lat="47.31904" lon="-1.92603">
        <ele>54</ele>
        <time>2021-06-05T10:25:22.000Z</time>
      </trkpt>
      <trkpt lat="47.31907" lon="-1.92625">
        <ele>54</ele>
        <time>2021-06-05T10:25:24.000Z</time>
      </trkpt>
      <trkpt lat="47.31909" lon="-1.92647">
        <ele>54</ele>
        <time>2021-06-05T10:25:26.000Z</time>
      </trkpt>
      <trkpt lat="47.31912" lon="-1.92669">
        <ele>53</ele>
        <time>2021-06-05T10:25:28.000Z</time>
      </trkpt>
      <trkpt lat="47.31915" lon="-1.92692">
        <ele>53</ele>
        <time>2021-06-05T10:25:30.000Z</time>
      </trkpt>
      <trkpt lat="47.31917" lon="-1.92715">
        <ele>53</ele>
        <time>2021-06-05T10:25:32.000Z</time>
      </trkpt>
      <trkpt lat="47.3192" lon="-1.92737">
        <ele>53</ele>
        <time>2021-06-05T10:25:34.000Z</time>
      </trkpt>
      <trkpt lat="47.31922" lon="-1.92759">
        <ele>53</ele>
        <time>2021-06-05T10:25:36.000Z</time>
      </trkpt>
      <trkpt lat="47.31925" lon="-1.92781">
        <ele>53</ele>
        <time>2021-06-05T10:25:38.000Z</time>
      </trkpt>
      <trkpt lat="47.31927" lon="-1.92803">
        <ele>53</ele>
        <time>2021-06-05T10:25:40.000Z</time>
      </trkpt>
      <trkpt lat="47.3193" lon="-1.92825">
        <ele>52</ele>
        <time>2021-06-05T10:25:42.000Z</time>
      </trkpt>
      <trkpt lat="47.31933" lon="-1.92848">
        <ele>52</ele>
        <time>2021-06-05T10:25:44.000Z</time>
      </trkpt>
      <trkpt lat="47.31935" lon="-1.9287">
        <ele>52</ele>
        <time>2021-06-05T10:25:46.000Z</time>
      </trkpt>
      <trkpt lat="47.31938" lon="-1.92892">
        <ele>52</ele>
        <time>2021-06-05T10:25:48.000Z</time>
      </trkpt>
      <trkpt lat="47.31941" lon="-1.92914">
        <ele>52</ele>
        <time>2021-06-05T10:25:50.000Z</time>
      </trkpt>
      <trkpt lat="47.31944" lon="-1.92937">
        <ele>52</ele>
        <time>2021-06-05T10:25:52.000Z</time>
      </trkpt>
      <trkpt lat="47.31946" lon="-1.92958">
        <ele>52</ele>
        <time>2021-06-05T10:25:54.000Z</time>
      </trkpt>
      <trkpt lat="47.31949" lon="-1.9298">
        <ele>52</ele>
        <time>2021-06-05T10:25:56.000Z</time>
      </trkpt>
      <trkpt lat="47.31951" lon="-1.93002">
        <ele>52</ele>
        <time>2021-06-05T10:25:58.000Z</time>
      </trkpt>
      <trkpt lat="47.31954" lon="-1.93025">
        <ele>52</ele>
        <time>2021-06-05T10:26:00.000Z</time>
      </trkpt>
      <trkpt lat="47.31957" lon="-1.93047">
        <ele>52</ele>
        <time>2021-06-05T10:26:02.000Z</time>
      </trkpt>
      <trkpt lat="47.3196" lon="-1.9307">
        <ele>52</ele>
        <time>2021-06-05T10:26:04.000Z</time>
      </trkpt>
      <trkpt lat="47.31962" lon="-1.93092">
        <ele>52</ele>
        <time>2021-06-05T10:26:06.000Z</time>
      </trkpt>
      <trkpt lat="47.31965" lon="-1.93113">
        <ele>53</ele>
        <time>2021-06-05T10:26:08.000Z</time>
      </trkpt>
      <trkpt lat="47.31968" lon="-1.93135">
        <ele>53</ele>
        <time>2021-06-05T10:26:10.000Z</time>
      </trkpt>
      <trkpt lat="47.3197" lon="-1.93156">
        <ele>54</ele>
        <time>2021-06-05T10:26:12.000Z</time>
      </trkpt>
      <trkpt lat="47.31973" lon="-1.93176">
        <ele>55</ele>
        <time>2021-06-05T10:26:14.000Z</time>
      </trkpt>
      <trkpt lat="47.31975" lon="-1.93196">
        <ele>55</ele>
        <time>2021-06-05T10:26:16.000Z</time>
      </trkpt>
      <trkpt lat="47.31978" lon="-1.93217">
        <ele>55</ele>
        <time>2021-06-05T10:26:18.000Z</time>
      </trkpt>
      <trkpt lat="47.3198" lon="-1.93238">
        <ele>55</ele>
        <time>2021-06-05T10:26:20.000Z</time>
      </trkpt>
      <trkpt lat="47.31983" lon="-1.9326">
        <ele>55</ele>
        <time>2021-06-05T10:26:22.000Z</time>
      </trkpt>
      <trkpt lat="47.31986" lon="-1.93282">
        <ele>56</ele>
        <time>2021-06-05T10:26:24.000Z</time>
      </trkpt>
      <trkpt lat="47.31988" lon="-1.93304">
        <ele>56</ele>
        <time>2021-06-05T10:26:26.000Z</time>
      </trkpt>
      <trkpt lat="47.31991" lon="-1.93326">
        <ele>56</ele>
        <time>2021-06-05T10:26:28.000Z</time>
      </trkpt>
      <trkpt lat="47.31993" lon="-1.93348">
        <ele>56</ele>
        <time>2021-06-05T10:26:30.000Z</time>
      </trkpt>
      <trkpt lat="47.31996" lon="-1.93369">
        <ele>56</ele>
        <time>2021-06-05T10:26:32.000Z</time>
      </trkpt>
      <trkpt lat="47.31998" lon="-1.93389">
        <ele>56</ele>
        <time>2021-06-05T10:26:34.000Z</time>
      </trkpt>
      <trkpt lat="47.32" lon="-1.93409">
        <ele>56</ele>
        <time>2021-06-05T10:26:36.000Z</time>
      </trkpt>
      <trkpt lat="47.32002" lon="-1.93429">
        <ele>56</ele>
        <time>2021-06-05T10:26:38.000Z</time>
      </trkpt>
      <trkpt lat="47.32005" lon="-1.93448">
        <ele>56</ele>
        <time>2021-06-05T10:26:40.000Z</time>
      </trkpt>
      <trkpt lat="47.32007" lon="-1.93468">
        <ele>57</ele>
        <time>2021-06-05T10:26:42.000Z</time>
      </trkpt>
      <trkpt lat="47.32009" lon="-1.93488">
        <ele>56</ele>
        <time>2021-06-05T10:26:44.000Z</time>
      </trkpt>
      <trkpt lat="47.32011" lon="-1.93508">
        <ele>56</ele>
        <time>2021-06-05T10:26:46.000Z</time>
      </trkpt>
      <trkpt lat="47.32014" lon="-1.93527">
        <ele>56</ele>
        <time>2021-06-05T10:26:48.000Z</time>
      </trkpt>
      <trkpt lat="47.32016" lon="-1.93547">
        <ele>56</ele>
        <time>2021-06-05T10:26:50.000Z</time>
      </trkpt>
      <trkpt lat="47.32018" lon="-1.93565">
        <ele>56</ele>
        <time>2021-06-05T10:26:52.000Z</time>
      </trkpt>
      <trkpt lat="47.3202" lon="-1.93584">
        <ele>56</ele>
        <time>2021-06-05T10:26:54.000Z</time>
      </trkpt>
      <trkpt lat="47.32023" lon="-1.93604">
        <ele>56</ele>
        <time>2021-06-05T10:26:56.000Z</time>
      </trkpt>
      <trkpt lat="47.32025" lon="-1.93624">
        <ele>56</ele>
        <time>2021-06-05T10:26:58.000Z</time>
      </trkpt>
      <trkpt lat="47.32027" lon="-1.93644">
        <ele>56</ele>
        <time>2021-06-05T10:27:00.000Z</time>
      </trkpt>
      <trkpt lat="47.32029" lon="-1.93663">
        <ele>57</ele>
        <time>2021-06-05T10:27:02.000Z</time>
      </trkpt>
      <trkpt lat="47.32032" lon="-1.93682">
        <ele>57</ele>
        <time>2021-06-05T10:27:04.000Z</time>
      </trkpt>
      <trkpt lat="47.32034" lon="-1.937">
        <ele>58</ele>
        <time>2021-06-05T10:27:06.000Z</time>
      </trkpt>
      <trkpt lat="47.32036" lon="-1.93719">
        <ele>58</ele>
        <time>2021-06-05T10:27:08.000Z</time>
      </trkpt>
      <trkpt lat="47.32039" lon="-1.93738">
        <ele>58</ele>
        <time>2021-06-05T10:27:10.000Z</time>
      </trkpt>
      <trkpt lat="47.32041" lon="-1.93758">
        <ele>58</ele>
        <time>2021-06-05T10:27:12.000Z</time>
      </trkpt>
      <trkpt lat="47.32044" lon="-1.93778">
        <ele>58</ele>
        <time>2021-06-05T10:27:14.000Z</time>
      </trkpt>
      <trkpt lat="47.32046" lon="-1.93797">
        <ele>58</ele>
        <time>2021-06-05T10:27:16.000Z</time>
      </trkpt>
      <trkpt lat="47.32048" lon="-1.93816">
        <ele>58</ele>
        <time>2021-06-05T10:27:18.000Z</time>
      </trkpt>
      <trkpt lat="47.32048" lon="-1.93836">
        <ele>58</ele>
        <time>2021-06-05T10:27:20.000Z</time>
      </trkpt>
      <trkpt lat="47.32048" lon="-1.93857">
        <ele>58</ele>
        <time>2021-06-05T10:27:22.000Z</time>
      </trkpt>
      <trkpt lat="47.32045" lon="-1.93877">
        <ele>58</ele>
        <time>2021-06-05T10:27:24.000Z</time>
      </trkpt>
      <trkpt lat="47.3204" lon="-1.93895">
        <ele>57</ele>
        <time>2021-06-05T10:27:26.000Z</time>
      </trkpt>
      <trkpt lat="47.32033" lon="-1.93914">
        <ele>57</ele>
        <time>2021-06-05T10:27:28.000Z</time>
      </trkpt>
      <trkpt lat="47.32025" lon="-1.9393">
        <ele>57</ele>
        <time>2021-06-05T10:27:30.000Z</time>
      </trkpt>
      <trkpt lat="47.32016" lon="-1.93945">
        <ele>57</ele>
        <time>2021-06-05T10:27:32.000Z</time>
      </trkpt>
      <trkpt lat="47.32006" lon="-1.93958">
        <ele>57</ele>
        <time>2021-06-05T10:27:34.000Z</time>
      </trkpt>
      <trkpt lat="47.31996" lon="-1.93972">
        <ele>57</ele>
        <time>2021-06-05T10:27:36.000Z</time>
      </trkpt>
      <trkpt lat="47.31986" lon="-1.93985">
        <ele>57</ele>
        <time>2021-06-05T10:27:38.000Z</time>
      </trkpt>
      <trkpt lat="47.31975" lon="-1.93998">
        <ele>57</ele>
        <time>2021-06-05T10:27:40.000Z</time>
      </trkpt>
      <trkpt lat="47.31964" lon="-1.94013">
        <ele>56</ele>
        <time>2021-06-05T10:27:42.000Z</time>
      </trkpt>
      <trkpt lat="47.31953" lon="-1.94027">
        <ele>56</ele>
        <time>2021-06-05T10:27:44.000Z</time>
      </trkpt>
      <trkpt lat="47.31941" lon="-1.9404">
        <ele>56</ele>
        <time>2021-06-05T10:27:46.000Z</time>
      </trkpt>
      <trkpt lat="47.31931" lon="-1.94053">
        <ele>56</ele>
        <time>2021-06-05T10:27:48.000Z</time>
      </trkpt>
      <trkpt lat="47.3192" lon="-1.94067">
        <ele>56</ele>
        <time>2021-06-05T10:27:50.000Z</time>
      </trkpt>
      <trkpt lat="47.3191" lon="-1.9408">
        <ele>56</ele>
        <time>2021-06-05T10:27:52.000Z</time>
      </trkpt>
      <trkpt lat="47.31899" lon="-1.94094">
        <ele>56</ele>
        <time>2021-06-05T10:27:54.000Z</time>
      </trkpt>
      <trkpt lat="47.31888" lon="-1.94107">
        <ele>56</ele>
        <time>2021-06-05T10:27:56.000Z</time>
      </trkpt>
      <trkpt lat="47.31877" lon="-1.94121">
        <ele>55</ele>
        <time>2021-06-05T10:27:58.000Z</time>
      </trkpt>
      <trkpt lat="47.31866" lon="-1.94135">
        <ele>54</ele>
        <time>2021-06-05T10:28:00.000Z</time>
      </trkpt>
      <trkpt lat="47.31856" lon="-1.94149">
        <ele>55</ele>
        <time>2021-06-05T10:28:02.000Z</time>
      </trkpt>
      <trkpt lat="47.31845" lon="-1.94162">
        <ele>55</ele>
        <time>2021-06-05T10:28:04.000Z</time>
      </trkpt>
      <trkpt lat="47.31834" lon="-1.94175">
        <ele>54</ele>
        <time>2021-06-05T10:28:06.000Z</time>
      </trkpt>
      <trkpt lat="47.31823" lon="-1.94189">
        <ele>54</ele>
        <time>2021-06-05T10:28:08.000Z</time>
      </trkpt>
      <trkpt lat="47.31813" lon="-1.94202">
        <ele>54</ele>
        <time>2021-06-05T10:28:10.000Z</time>
      </trkpt>
      <trkpt lat="47.31801" lon="-1.94215">
        <ele>54</ele>
        <time>2021-06-05T10:28:12.000Z</time>
      </trkpt>
      <trkpt lat="47.3179" lon="-1.94229">
        <ele>54</ele>
        <time>2021-06-05T10:28:14.000Z</time>
      </trkpt>
      <trkpt lat="47.3178" lon="-1.94242">
        <ele>53</ele>
        <time>2021-06-05T10:28:16.000Z</time>
      </trkpt>
      <trkpt lat="47.3177" lon="-1.94255">
        <ele>53</ele>
        <time>2021-06-05T10:28:18.000Z</time>
      </trkpt>
      <trkpt lat="47.31759" lon="-1.94268">
        <ele>54</ele>
        <time>2021-06-05T10:28:20.000Z</time>
      </trkpt>
      <trkpt lat="47.3175" lon="-1.94283">
        <ele>54</ele>
        <time>2021-06-05T10:28:22.000Z</time>
      </trkpt>
      <trkpt lat="47.31741" lon="-1.94298">
        <ele>54</ele>
        <time>2021-06-05T10:28:24.000Z</time>
      </trkpt>
      <trkpt lat="47.31733" lon="-1.94314">
        <ele>53</ele>
        <time>2021-06-05T10:28:26.000Z</time>
      </trkpt>
      <trkpt lat="47.31725" lon="-1.94332">
        <ele>54</ele>
        <time>2021-06-05T10:28:28.000Z</time>
      </trkpt>
      <trkpt lat="47.31719" lon="-1.94349">
        <ele>54</ele>
        <time>2021-06-05T10:28:30.000Z</time>
      </trkpt>
      <trkpt lat="47.31713" lon="-1.94366">
        <ele>54</ele>
        <time>2021-06-05T10:28:32.000Z</time>
      </trkpt>
      <trkpt lat="47.31707" lon="-1.94384">
        <ele>54</ele>
        <time>2021-06-05T10:28:34.000Z</time>
      </trkpt>
      <trkpt lat="47.317" lon="-1.94402">
        <ele>54</ele>
        <time>2021-06-05T10:28:36.000Z</time>
      </trkpt>
      <trkpt lat="47.31695" lon="-1.9442">
        <ele>54</ele>
        <time>2021-06-05T10:28:38.000Z</time>
      </trkpt>
      <trkpt lat="47.31688" lon="-1.94438">
        <ele>54</ele>
        <time>2021-06-05T10:28:40.000Z</time>
      </trkpt>
      <trkpt lat="47.31682" lon="-1.94456">
        <ele>54</ele>
        <time>2021-06-05T10:28:42.000Z</time>
      </trkpt>
      <trkpt lat="47.31676" lon="-1.94474">
        <ele>54</ele>
        <time>2021-06-05T10:28:44.000Z</time>
      </trkpt>
      <trkpt lat="47.31669" lon="-1.94492">
        <ele>54</ele>
        <time>2021-06-05T10:28:46.000Z</time>
      </trkpt>
      <trkpt lat="47.31663" lon="-1.9451">
        <ele>54</ele>
        <time>2021-06-05T10:28:48.000Z</time>
      </trkpt>
      <trkpt lat="47.31656" lon="-1.94528">
        <ele>54</ele>
        <time>2021-06-05T10:28:50.000Z</time>
      </trkpt>
      <trkpt lat="47.31649" lon="-1.94545">
        <ele>54</ele>
        <time>2021-06-05T10:28:52.000Z</time>
      </trkpt>
      <trkpt lat="47.31643" lon="-1.94562">
        <ele>54</ele>
        <time>2021-06-05T10:28:54.000Z</time>
      </trkpt>
      <trkpt lat="47.31637" lon="-1.94578">
        <ele>55</ele>
        <time>2021-06-05T10:28:56.000Z</time>
      </trkpt>
      <trkpt lat="47.3163" lon="-1.94594">
        <ele>55</ele>
        <time>2021-06-05T10:28:58.000Z</time>
      </trkpt>
      <trkpt lat="47.31622" lon="-1.94609">
        <ele>56</ele>
        <time>2021-06-05T10:29:00.000Z</time>
      </trkpt>
      <trkpt lat="47.31614" lon="-1.94625">
        <ele>55</ele>
        <time>2021-06-05T10:29:02.000Z</time>
      </trkpt>
      <trkpt lat="47.31604" lon="-1.94639">
        <ele>55</ele>
        <time>2021-06-05T10:29:04.000Z</time>
      </trkpt>
      <trkpt lat="47.31594" lon="-1.9465">
        <ele>55</ele>
        <time>2021-06-05T10:29:06.000Z</time>
      </trkpt>
      <trkpt lat="47.31583" lon="-1.94661">
        <ele>55</ele>
        <time>2021-06-05T10:29:08.000Z</time>
      </trkpt>
      <trkpt lat="47.31571" lon="-1.9467">
        <ele>55</ele>
        <time>2021-06-05T10:29:10.000Z</time>
      </trkpt>
      <trkpt lat="47.3156" lon="-1.94678">
        <ele>55</ele>
        <time>2021-06-05T10:29:12.000Z</time>
      </trkpt>
      <trkpt lat="47.31548" lon="-1.94687">
        <ele>55</ele>
        <time>2021-06-05T10:29:14.000Z</time>
      </trkpt>
      <trkpt lat="47.31537" lon="-1.94695">
        <ele>55</ele>
        <time>2021-06-05T10:29:16.000Z</time>
      </trkpt>
      <trkpt lat="47.31525" lon="-1.94702">
        <ele>56</ele>
        <time>2021-06-05T10:29:18.000Z</time>
      </trkpt>
      <trkpt lat="47.31514" lon="-1.94711">
        <ele>56</ele>
        <time>2021-06-05T10:29:20.000Z</time>
      </trkpt>
      <trkpt lat="47.31502" lon="-1.94719">
        <ele>56</ele>
        <time>2021-06-05T10:29:22.000Z</time>
      </trkpt>
      <trkpt lat="47.3149" lon="-1.94728">
        <ele>57</ele>
        <time>2021-06-05T10:29:24.000Z</time>
      </trkpt>
      <trkpt lat="47.31478" lon="-1.94736">
        <ele>57</ele>
        <time>2021-06-05T10:29:26.000Z</time>
      </trkpt>
      <trkpt lat="47.31466" lon="-1.94744">
        <ele>57</ele>
        <time>2021-06-05T10:29:28.000Z</time>
      </trkpt>
      <trkpt lat="47.31455" lon="-1.94753">
        <ele>57</ele>
        <time>2021-06-05T10:29:30.000Z</time>
      </trkpt>
      <trkpt lat="47.31443" lon="-1.94762">
        <ele>57</ele>
        <time>2021-06-05T10:29:32.000Z</time>
      </trkpt>
      <trkpt lat="47.3143" lon="-1.9477">
        <ele>57</ele>
        <time>2021-06-05T10:29:34.000Z</time>
      </trkpt>
      <trkpt lat="47.31418" lon="-1.94778">
        <ele>58</ele>
        <time>2021-06-05T10:29:36.000Z</time>
      </trkpt>
      <trkpt lat="47.31406" lon="-1.94786">
        <ele>59</ele>
        <time>2021-06-05T10:29:38.000Z</time>
      </trkpt>
      <trkpt lat="47.31394" lon="-1.94795">
        <ele>59</ele>
        <time>2021-06-05T10:29:40.000Z</time>
      </trkpt>
      <trkpt lat="47.31383" lon="-1.94802">
        <ele>60</ele>
        <time>2021-06-05T10:29:42.000Z</time>
      </trkpt>
      <trkpt lat="47.31371" lon="-1.9481">
        <ele>60</ele>
        <time>2021-06-05T10:29:44.000Z</time>
      </trkpt>
      <trkpt lat="47.31359" lon="-1.94819">
        <ele>60</ele>
        <time>2021-06-05T10:29:46.000Z</time>
      </trkpt>
      <trkpt lat="47.31347" lon="-1.94827">
        <ele>60</ele>
        <time>2021-06-05T10:29:48.000Z</time>
      </trkpt>
      <trkpt lat="47.31335" lon="-1.94834">
        <ele>60</ele>
        <time>2021-06-05T10:29:50.000Z</time>
      </trkpt>
      <trkpt lat="47.31323" lon="-1.94842">
        <ele>60</ele>
        <time>2021-06-05T10:29:52.000Z</time>
      </trkpt>
      <trkpt lat="47.31312" lon="-1.94851">
        <ele>61</ele>
        <time>2021-06-05T10:29:54.000Z</time>
      </trkpt>
      <trkpt lat="47.313" lon="-1.94859">
        <ele>61</ele>
        <time>2021-06-05T10:29:56.000Z</time>
      </trkpt>
      <trkpt lat="47.31289" lon="-1.94868">
        <ele>60</ele>
        <time>2021-06-05T10:29:58.000Z</time>
      </trkpt>
      <trkpt lat="47.31271" lon="-1.94881">
        <ele>60</ele>
        <time>2021-06-05T10:30:01.000Z</time>
      </trkpt>
      <trkpt lat="47.31254" lon="-1.94894">
        <ele>59</ele>
        <time>2021-06-05T10:30:04.000Z</time>
      </trkpt>
      <trkpt lat="47.31242" lon="-1.94902">
        <ele>60</ele>
        <time>2021-06-05T10:30:06.000Z</time>
      </trkpt>
      <trkpt lat="47.31225" lon="-1.94915">
        <ele>60</ele>
        <time>2021-06-05T10:30:09.000Z</time>
      </trkpt>
      <trkpt lat="47.31214" lon="-1.94922">
        <ele>60</ele>
        <time>2021-06-05T10:30:11.000Z</time>
      </trkpt>
      <trkpt lat="47.31197" lon="-1.94935">
        <ele>60</ele>
        <time>2021-06-05T10:30:14.000Z</time>
      </trkpt>
      <trkpt lat="47.31186" lon="-1.94943">
        <ele>60</ele>
        <time>2021-06-05T10:30:16.000Z</time>
      </trkpt>
      <trkpt lat="47.31174" lon="-1.94952">
        <ele>60</ele>
        <time>2021-06-05T10:30:18.000Z</time>
      </trkpt>
      <trkpt lat="47.31163" lon="-1.94962">
        <ele>59</ele>
        <time>2021-06-05T10:30:20.000Z</time>
      </trkpt>
      <trkpt lat="47.31152" lon="-1.94974">
        <ele>58</ele>
        <time>2021-06-05T10:30:22.000Z</time>
      </trkpt>
      <trkpt lat="47.31144" lon="-1.94989">
        <ele>57</ele>
        <time>2021-06-05T10:30:24.000Z</time>
      </trkpt>
      <trkpt lat="47.31135" lon="-1.95016">
        <ele>56</ele>
        <time>2021-06-05T10:30:27.000Z</time>
      </trkpt>
      <trkpt lat="47.31133" lon="-1.95036">
        <ele>55</ele>
        <time>2021-06-05T10:30:29.000Z</time>
      </trkpt>
      <trkpt lat="47.31133" lon="-1.95058">
        <ele>55</ele>
        <time>2021-06-05T10:30:31.000Z</time>
      </trkpt>
      <trkpt lat="47.31133" lon="-1.95079">
        <ele>54</ele>
        <time>2021-06-05T10:30:33.000Z</time>
      </trkpt>
      <trkpt lat="47.31134" lon="-1.951">
        <ele>53</ele>
        <time>2021-06-05T10:30:35.000Z</time>
      </trkpt>
      <trkpt lat="47.31135" lon="-1.95121">
        <ele>53</ele>
        <time>2021-06-05T10:30:37.000Z</time>
      </trkpt>
      <trkpt lat="47.31135" lon="-1.95141">
        <ele>53</ele>
        <time>2021-06-05T10:30:39.000Z</time>
      </trkpt>
      <trkpt lat="47.31136" lon="-1.95162">
        <ele>53</ele>
        <time>2021-06-05T10:30:41.000Z</time>
      </trkpt>
      <trkpt lat="47.31137" lon="-1.95182">
        <ele>53</ele>
        <time>2021-06-05T10:30:43.000Z</time>
      </trkpt>
      <trkpt lat="47.31137" lon="-1.95202">
        <ele>53</ele>
        <time>2021-06-05T10:30:45.000Z</time>
      </trkpt>
      <trkpt lat="47.31137" lon="-1.95222">
        <ele>53</ele>
        <time>2021-06-05T10:30:47.000Z</time>
      </trkpt>
      <trkpt lat="47.31138" lon="-1.95242">
        <ele>53</ele>
        <time>2021-06-05T10:30:49.000Z</time>
      </trkpt>
      <trkpt lat="47.31138" lon="-1.95262">
        <ele>54</ele>
        <time>2021-06-05T10:30:51.000Z</time>
      </trkpt>
      <trkpt lat="47.31139" lon="-1.95281">
        <ele>54</ele>
        <time>2021-06-05T10:30:53.000Z</time>
      </trkpt>
      <trkpt lat="47.3114" lon="-1.95301">
        <ele>54</ele>
        <time>2021-06-05T10:30:55.000Z</time>
      </trkpt>
      <trkpt lat="47.3114" lon="-1.9532">
        <ele>55</ele>
        <time>2021-06-05T10:30:57.000Z</time>
      </trkpt>
      <trkpt lat="47.3114" lon="-1.9534">
        <ele>55</ele>
        <time>2021-06-05T10:30:59.000Z</time>
      </trkpt>
      <trkpt lat="47.3114" lon="-1.9536">
        <ele>55</ele>
        <time>2021-06-05T10:31:01.000Z</time>
      </trkpt>
      <trkpt lat="47.3114" lon="-1.95378">
        <ele>55</ele>
        <time>2021-06-05T10:31:03.000Z</time>
      </trkpt>
      <trkpt lat="47.31139" lon="-1.95398">
        <ele>55</ele>
        <time>2021-06-05T10:31:05.000Z</time>
      </trkpt>
      <trkpt lat="47.31139" lon="-1.95418">
        <ele>55</ele>
        <time>2021-06-05T10:31:07.000Z</time>
      </trkpt>
      <trkpt lat="47.31139" lon="-1.95437">
        <ele>55</ele>
        <time>2021-06-05T10:31:09.000Z</time>
      </trkpt>
      <trkpt lat="47.31138" lon="-1.95457">
        <ele>55</ele>
        <time>2021-06-05T10:31:11.000Z</time>
      </trkpt>
      <trkpt lat="47.31136" lon="-1.95476">
        <ele>56</ele>
        <time>2021-06-05T10:31:13.000Z</time>
      </trkpt>
      <trkpt lat="47.31136" lon="-1.95497">
        <ele>56</ele>
        <time>2021-06-05T10:31:15.000Z</time>
      </trkpt>
      <trkpt lat="47.31135" lon="-1.95517">
        <ele>56</ele>
        <time>2021-06-05T10:31:17.000Z</time>
      </trkpt>
      <trkpt lat="47.31134" lon="-1.95537">
        <ele>56</ele>
        <time>2021-06-05T10:31:19.000Z</time>
      </trkpt>
      <trkpt lat="47.31133" lon="-1.95557">
        <ele>56</ele>
        <time>2021-06-05T10:31:21.000Z</time>
      </trkpt>
      <trkpt lat="47.31132" lon="-1.95577">
        <ele>55</ele>
        <time>2021-06-05T10:31:23.000Z</time>
      </trkpt>
      <trkpt lat="47.31132" lon="-1.95596">
        <ele>56</ele>
        <time>2021-06-05T10:31:25.000Z</time>
      </trkpt>
      <trkpt lat="47.31131" lon="-1.95616">
        <ele>56</ele>
        <time>2021-06-05T10:31:27.000Z</time>
      </trkpt>
      <trkpt lat="47.3113" lon="-1.95636">
        <ele>56</ele>
        <time>2021-06-05T10:31:29.000Z</time>
      </trkpt>
      <trkpt lat="47.31129" lon="-1.95656">
        <ele>56</ele>
        <time>2021-06-05T10:31:31.000Z</time>
      </trkpt>
      <trkpt lat="47.31128" lon="-1.95676">
        <ele>56</ele>
        <time>2021-06-05T10:31:33.000Z</time>
      </trkpt>
      <trkpt lat="47.31128" lon="-1.95696">
        <ele>56</ele>
        <time>2021-06-05T10:31:35.000Z</time>
      </trkpt>
      <trkpt lat="47.31127" lon="-1.95716">
        <ele>56</ele>
        <time>2021-06-05T10:31:37.000Z</time>
      </trkpt>
      <trkpt lat="47.31126" lon="-1.95735">
        <ele>57</ele>
        <time>2021-06-05T10:31:39.000Z</time>
      </trkpt>
      <trkpt lat="47.31125" lon="-1.95755">
        <ele>57</ele>
        <time>2021-06-05T10:31:41.000Z</time>
      </trkpt>
      <trkpt lat="47.31124" lon="-1.95774">
        <ele>57</ele>
        <time>2021-06-05T10:31:43.000Z</time>
      </trkpt>
      <trkpt lat="47.31123" lon="-1.95794">
        <ele>56</ele>
        <time>2021-06-05T10:31:45.000Z</time>
      </trkpt>
      <trkpt lat="47.31123" lon="-1.95814">
        <ele>56</ele>
        <time>2021-06-05T10:31:47.000Z</time>
      </trkpt>
      <trkpt lat="47.31121" lon="-1.95833">
        <ele>57</ele>
        <time>2021-06-05T10:31:49.000Z</time>
      </trkpt>
      <trkpt lat="47.31121" lon="-1.95852">
        <ele>57</ele>
        <time>2021-06-05T10:31:51.000Z</time>
      </trkpt>
      <trkpt lat="47.3112" lon="-1.95872">
        <ele>57</ele>
        <time>2021-06-05T10:31:53.000Z</time>
      </trkpt>
      <trkpt lat="47.31118" lon="-1.95891">
        <ele>56</ele>
        <time>2021-06-05T10:31:55.000Z</time>
      </trkpt>
      <trkpt lat="47.31117" lon="-1.9591">
        <ele>56</ele>
        <time>2021-06-05T10:31:57.000Z</time>
      </trkpt>
      <trkpt lat="47.31115" lon="-1.95929">
        <ele>56</ele>
        <time>2021-06-05T10:31:59.000Z</time>
      </trkpt>
      <trkpt lat="47.31114" lon="-1.95948">
        <ele>55</ele>
        <time>2021-06-05T10:32:01.000Z</time>
      </trkpt>
      <trkpt lat="47.31112" lon="-1.95968">
        <ele>55</ele>
        <time>2021-06-05T10:32:03.000Z</time>
      </trkpt>
      <trkpt lat="47.3111" lon="-1.95988">
        <ele>55</ele>
        <time>2021-06-05T10:32:05.000Z</time>
      </trkpt>
      <trkpt lat="47.31108" lon="-1.96007">
        <ele>55</ele>
        <time>2021-06-05T10:32:07.000Z</time>
      </trkpt>
      <trkpt lat="47.31107" lon="-1.96026">
        <ele>55</ele>
        <time>2021-06-05T10:32:09.000Z</time>
      </trkpt>
      <trkpt lat="47.31105" lon="-1.96045">
        <ele>56</ele>
        <time>2021-06-05T10:32:11.000Z</time>
      </trkpt>
      <trkpt lat="47.31103" lon="-1.96065">
        <ele>56</ele>
        <time>2021-06-05T10:32:13.000Z</time>
      </trkpt>
      <trkpt lat="47.31101" lon="-1.96084">
        <ele>55</ele>
        <time>2021-06-05T10:32:15.000Z</time>
      </trkpt>
      <trkpt lat="47.31099" lon="-1.96103">
        <ele>55</ele>
        <time>2021-06-05T10:32:17.000Z</time>
      </trkpt>
      <trkpt lat="47.31098" lon="-1.96122">
        <ele>55</ele>
        <time>2021-06-05T10:32:19.000Z</time>
      </trkpt>
      <trkpt lat="47.31096" lon="-1.96142">
        <ele>55</ele>
        <time>2021-06-05T10:32:21.000Z</time>
      </trkpt>
      <trkpt lat="47.31094" lon="-1.96162">
        <ele>55</ele>
        <time>2021-06-05T10:32:23.000Z</time>
      </trkpt>
      <trkpt lat="47.31092" lon="-1.96181">
        <ele>55</ele>
        <time>2021-06-05T10:32:25.000Z</time>
      </trkpt>
      <trkpt lat="47.3109" lon="-1.96201">
        <ele>55</ele>
        <time>2021-06-05T10:32:27.000Z</time>
      </trkpt>
      <trkpt lat="47.31089" lon="-1.9622">
        <ele>54</ele>
        <time>2021-06-05T10:32:29.000Z</time>
      </trkpt>
      <trkpt lat="47.31087" lon="-1.96239">
        <ele>54</ele>
        <time>2021-06-05T10:32:31.000Z</time>
      </trkpt>
      <trkpt lat="47.31085" lon="-1.96259">
        <ele>54</ele>
        <time>2021-06-05T10:32:33.000Z</time>
      </trkpt>
      <trkpt lat="47.31083" lon="-1.96279">
        <ele>54</ele>
        <time>2021-06-05T10:32:35.000Z</time>
      </trkpt>
      <trkpt lat="47.31081" lon="-1.96298">
        <ele>54</ele>
        <time>2021-06-05T10:32:37.000Z</time>
      </trkpt>
      <trkpt lat="47.3108" lon="-1.96318">
        <ele>54</ele>
        <time>2021-06-05T10:32:39.000Z</time>
      </trkpt>
      <trkpt lat="47.31078" lon="-1.96337">
        <ele>55</ele>
        <time>2021-06-05T10:32:41.000Z</time>
      </trkpt>
      <trkpt lat="47.31076" lon="-1.96357">
        <ele>56</ele>
        <time>2021-06-05T10:32:43.000Z</time>
      </trkpt>
      <trkpt lat="47.31073" lon="-1.96376">
        <ele>55</ele>
        <time>2021-06-05T10:32:45.000Z</time>
      </trkpt>
      <trkpt lat="47.31071" lon="-1.96394">
        <ele>55</ele>
        <time>2021-06-05T10:32:47.000Z</time>
      </trkpt>
      <trkpt lat="47.31068" lon="-1.96412">
        <ele>55</ele>
        <time>2021-06-05T10:32:49.000Z</time>
      </trkpt>
      <trkpt lat="47.31066" lon="-1.9643">
        <ele>56</ele>
        <time>2021-06-05T10:32:51.000Z</time>
      </trkpt>
      <trkpt lat="47.31063" lon="-1.96447">
        <ele>56</ele>
        <time>2021-06-05T10:32:53.000Z</time>
      </trkpt>
      <trkpt lat="47.3106" lon="-1.96464">
        <ele>56</ele>
        <time>2021-06-05T10:32:55.000Z</time>
      </trkpt>
      <trkpt lat="47.31056" lon="-1.96478">
        <ele>57</ele>
        <time>2021-06-05T10:32:57.000Z</time>
      </trkpt>
      <trkpt lat="47.31052" lon="-1.96493">
        <ele>58</ele>
        <time>2021-06-05T10:32:59.000Z</time>
      </trkpt>
      <trkpt lat="47.31048" lon="-1.96505">
        <ele>59</ele>
        <time>2021-06-05T10:33:01.000Z</time>
      </trkpt>
      <trkpt lat="47.3103" lon="-1.96513">
        <ele>59</ele>
        <time>2021-06-05T10:33:05.000Z</time>
      </trkpt>
      <trkpt lat="47.31017" lon="-1.96513">
        <ele>59</ele>
        <time>2021-06-05T10:33:07.000Z</time>
      </trkpt>
      <trkpt lat="47.31004" lon="-1.96514">
        <ele>59</ele>
        <time>2021-06-05T10:33:09.000Z</time>
      </trkpt>
      <trkpt lat="47.3099" lon="-1.96518">
        <ele>59</ele>
        <time>2021-06-05T10:33:11.000Z</time>
      </trkpt>
      <trkpt lat="47.30975" lon="-1.96522">
        <ele>59</ele>
        <time>2021-06-05T10:33:13.000Z</time>
      </trkpt>
      <trkpt lat="47.30962" lon="-1.96531">
        <ele>59</ele>
        <time>2021-06-05T10:33:15.000Z</time>
      </trkpt>
      <trkpt lat="47.3095" lon="-1.9654">
        <ele>60</ele>
        <time>2021-06-05T10:33:17.000Z</time>
      </trkpt>
      <trkpt lat="47.30937" lon="-1.9655">
        <ele>60</ele>
        <time>2021-06-05T10:33:19.000Z</time>
      </trkpt>
      <trkpt lat="47.30924" lon="-1.9656">
        <ele>59</ele>
        <time>2021-06-05T10:33:21.000Z</time>
      </trkpt>
      <trkpt lat="47.30913" lon="-1.96569">
        <ele>59</ele>
        <time>2021-06-05T10:33:23.000Z</time>
      </trkpt>
      <trkpt lat="47.30901" lon="-1.96578">
        <ele>58</ele>
        <time>2021-06-05T10:33:25.000Z</time>
      </trkpt>
      <trkpt lat="47.30889" lon="-1.96587">
        <ele>57</ele>
        <time>2021-06-05T10:33:27.000Z</time>
      </trkpt>
      <trkpt lat="47.30878" lon="-1.96597">
        <ele>57</ele>
        <time>2021-06-05T10:33:29.000Z</time>
      </trkpt>
      <trkpt lat="47.30866" lon="-1.96607">
        <ele>56</ele>
        <time>2021-06-05T10:33:31.000Z</time>
      </trkpt>
      <trkpt lat="47.30855" lon="-1.96616">
        <ele>56</ele>
        <time>2021-06-05T10:33:33.000Z</time>
      </trkpt>
      <trkpt lat="47.30843" lon="-1.96623">
        <ele>56</ele>
        <time>2021-06-05T10:33:35.000Z</time>
      </trkpt>
      <trkpt lat="47.3083" lon="-1.96632">
        <ele>56</ele>
        <time>2021-06-05T10:33:37.000Z</time>
      </trkpt>
      <trkpt lat="47.30819" lon="-1.96641">
        <ele>56</ele>
        <time>2021-06-05T10:33:39.000Z</time>
      </trkpt>
      <trkpt lat="47.30808" lon="-1.9665">
        <ele>56</ele>
        <time>2021-06-05T10:33:41.000Z</time>
      </trkpt>
      <trkpt lat="47.30796" lon="-1.96658">
        <ele>56</ele>
        <time>2021-06-05T10:33:43.000Z</time>
      </trkpt>
      <trkpt lat="47.30785" lon="-1.96667">
        <ele>56</ele>
        <time>2021-06-05T10:33:45.000Z</time>
      </trkpt>
      <trkpt lat="47.30773" lon="-1.96676">
        <ele>56</ele>
        <time>2021-06-05T10:33:47.000Z</time>
      </trkpt>
      <trkpt lat="47.30761" lon="-1.96685">
        <ele>55</ele>
        <time>2021-06-05T10:33:49.000Z</time>
      </trkpt>
      <trkpt lat="47.30749" lon="-1.96694">
        <ele>55</ele>
        <time>2021-06-05T10:33:51.000Z</time>
      </trkpt>
      <trkpt lat="47.30738" lon="-1.96702">
        <ele>55</ele>
        <time>2021-06-05T10:33:53.000Z</time>
      </trkpt>
      <trkpt lat="47.30726" lon="-1.9671">
        <ele>55</ele>
        <time>2021-06-05T10:33:55.000Z</time>
      </trkpt>
      <trkpt lat="47.30713" lon="-1.96716">
        <ele>56</ele>
        <time>2021-06-05T10:33:57.000Z</time>
      </trkpt>
      <trkpt lat="47.30701" lon="-1.96722">
        <ele>56</ele>
        <time>2021-06-05T10:33:59.000Z</time>
      </trkpt>
      <trkpt lat="47.30688" lon="-1.96726">
        <ele>57</ele>
        <time>2021-06-05T10:34:01.000Z</time>
      </trkpt>
      <trkpt lat="47.30675" lon="-1.9673">
        <ele>57</ele>
        <time>2021-06-05T10:34:03.000Z</time>
      </trkpt>
      <trkpt lat="47.30662" lon="-1.96735">
        <ele>57</ele>
        <time>2021-06-05T10:34:05.000Z</time>
      </trkpt>
      <trkpt lat="47.30649" lon="-1.9674">
        <ele>56</ele>
        <time>2021-06-05T10:34:07.000Z</time>
      </trkpt>
      <trkpt lat="47.30637" lon="-1.96744">
        <ele>56</ele>
        <time>2021-06-05T10:34:09.000Z</time>
      </trkpt>
      <trkpt lat="47.30624" lon="-1.96749">
        <ele>57</ele>
        <time>2021-06-05T10:34:11.000Z</time>
      </trkpt>
      <trkpt lat="47.30615" lon="-1.96758">
        <ele>57</ele>
        <time>2021-06-05T10:34:13.000Z</time>
      </trkpt>
      <trkpt lat="47.30612" lon="-1.96776">
        <ele>56</ele>
        <time>2021-06-05T10:34:15.000Z</time>
      </trkpt>
      <trkpt lat="47.30611" lon="-1.96795">
        <ele>56</ele>
        <time>2021-06-05T10:34:17.000Z</time>
      </trkpt>
      <trkpt lat="47.30608" lon="-1.96813">
        <ele>56</ele>
        <time>2021-06-05T10:34:19.000Z</time>
      </trkpt>
      <trkpt lat="47.30605" lon="-1.96832">
        <ele>56</ele>
        <time>2021-06-05T10:34:21.000Z</time>
      </trkpt>
      <trkpt lat="47.30603" lon="-1.96852">
        <ele>55</ele>
        <time>2021-06-05T10:34:23.000Z</time>
      </trkpt>
      <trkpt lat="47.30602" lon="-1.96871">
        <ele>55</ele>
        <time>2021-06-05T10:34:25.000Z</time>
      </trkpt>
      <trkpt lat="47.30605" lon="-1.9689">
        <ele>55</ele>
        <time>2021-06-05T10:34:27.000Z</time>
      </trkpt>
      <trkpt lat="47.3061" lon="-1.96908">
        <ele>55</ele>
        <time>2021-06-05T10:34:29.000Z</time>
      </trkpt>
      <trkpt lat="47.30616" lon="-1.96927">
        <ele>55</ele>
        <time>2021-06-05T10:34:31.000Z</time>
      </trkpt>
      <trkpt lat="47.30623" lon="-1.96944">
        <ele>55</ele>
        <time>2021-06-05T10:34:33.000Z</time>
      </trkpt>
      <trkpt lat="47.30629" lon="-1.96962">
        <ele>54</ele>
        <time>2021-06-05T10:34:35.000Z</time>
      </trkpt>
      <trkpt lat="47.30636" lon="-1.9698">
        <ele>54</ele>
        <time>2021-06-05T10:34:37.000Z</time>
      </trkpt>
      <trkpt lat="47.30642" lon="-1.96997">
        <ele>54</ele>
        <time>2021-06-05T10:34:39.000Z</time>
      </trkpt>
      <trkpt lat="47.30647" lon="-1.97015">
        <ele>54</ele>
        <time>2021-06-05T10:34:41.000Z</time>
      </trkpt>
      <trkpt lat="47.30651" lon="-1.97033">
        <ele>54</ele>
        <time>2021-06-05T10:34:43.000Z</time>
      </trkpt>
      <trkpt lat="47.30656" lon="-1.97051">
        <ele>54</ele>
        <time>2021-06-05T10:34:45.000Z</time>
      </trkpt>
      <trkpt lat="47.3066" lon="-1.9707">
        <ele>54</ele>
        <time>2021-06-05T10:34:47.000Z</time>
      </trkpt>
      <trkpt lat="47.30665" lon="-1.97088">
        <ele>54</ele>
        <time>2021-06-05T10:34:49.000Z</time>
      </trkpt>
      <trkpt lat="47.30669" lon="-1.97106">
        <ele>54</ele>
        <time>2021-06-05T10:34:51.000Z</time>
      </trkpt>
      <trkpt lat="47.30674" lon="-1.97126">
        <ele>54</ele>
        <time>2021-06-05T10:34:53.000Z</time>
      </trkpt>
      <trkpt lat="47.30678" lon="-1.97145">
        <ele>54</ele>
        <time>2021-06-05T10:34:55.000Z</time>
      </trkpt>
      <trkpt lat="47.30683" lon="-1.97164">
        <ele>54</ele>
        <time>2021-06-05T10:34:57.000Z</time>
      </trkpt>
      <trkpt lat="47.30688" lon="-1.97183">
        <ele>54</ele>
        <time>2021-06-05T10:34:59.000Z</time>
      </trkpt>
      <trkpt lat="47.30692" lon="-1.97201">
        <ele>54</ele>
        <time>2021-06-05T10:35:01.000Z</time>
      </trkpt>
      <trkpt lat="47.30696" lon="-1.97219">
        <ele>54</ele>
        <time>2021-06-05T10:35:03.000Z</time>
      </trkpt>
      <trkpt lat="47.30701" lon="-1.97237">
        <ele>54</ele>
        <time>2021-06-05T10:35:05.000Z</time>
      </trkpt>
      <trkpt lat="47.30705" lon="-1.97256">
        <ele>54</ele>
        <time>2021-06-05T10:35:07.000Z</time>
      </trkpt>
      <trkpt lat="47.3071" lon="-1.97274">
        <ele>54</ele>
        <time>2021-06-05T10:35:09.000Z</time>
      </trkpt>
      <trkpt lat="47.30714" lon="-1.97293">
        <ele>54</ele>
        <time>2021-06-05T10:35:11.000Z</time>
      </trkpt>
      <trkpt lat="47.30719" lon="-1.97312">
        <ele>54</ele>
        <time>2021-06-05T10:35:13.000Z</time>
      </trkpt>
      <trkpt lat="47.30722" lon="-1.97331">
        <ele>54</ele>
        <time>2021-06-05T10:35:15.000Z</time>
      </trkpt>
      <trkpt lat="47.30724" lon="-1.9735">
        <ele>54</ele>
        <time>2021-06-05T10:35:17.000Z</time>
      </trkpt>
      <trkpt lat="47.30726" lon="-1.9737">
        <ele>54</ele>
        <time>2021-06-05T10:35:19.000Z</time>
      </trkpt>
      <trkpt lat="47.30725" lon="-1.9739">
        <ele>54</ele>
        <time>2021-06-05T10:35:21.000Z</time>
      </trkpt>
      <trkpt lat="47.30723" lon="-1.9741">
        <ele>54</ele>
        <time>2021-06-05T10:35:23.000Z</time>
      </trkpt>
      <trkpt lat="47.3072" lon="-1.9743">
        <ele>54</ele>
        <time>2021-06-05T10:35:25.000Z</time>
      </trkpt>
      <trkpt lat="47.30718" lon="-1.97449">
        <ele>55</ele>
        <time>2021-06-05T10:35:27.000Z</time>
      </trkpt>
      <trkpt lat="47.30716" lon="-1.97468">
        <ele>55</ele>
        <time>2021-06-05T10:35:29.000Z</time>
      </trkpt>
      <trkpt lat="47.30713" lon="-1.97486">
        <ele>55</ele>
        <time>2021-06-05T10:35:31.000Z</time>
      </trkpt>
      <trkpt lat="47.3071" lon="-1.97506">
        <ele>55</ele>
        <time>2021-06-05T10:35:33.000Z</time>
      </trkpt>
      <trkpt lat="47.30708" lon="-1.97525">
        <ele>55</ele>
        <time>2021-06-05T10:35:35.000Z</time>
      </trkpt>
      <trkpt lat="47.30705" lon="-1.97544">
        <ele>55</ele>
        <time>2021-06-05T10:35:37.000Z</time>
      </trkpt>
      <trkpt lat="47.30702" lon="-1.97563">
        <ele>55</ele>
        <time>2021-06-05T10:35:39.000Z</time>
      </trkpt>
      <trkpt lat="47.307" lon="-1.97582">
        <ele>55</ele>
        <time>2021-06-05T10:35:41.000Z</time>
      </trkpt>
      <trkpt lat="47.30698" lon="-1.97601">
        <ele>55</ele>
        <time>2021-06-05T10:35:43.000Z</time>
      </trkpt>
      <trkpt lat="47.30695" lon="-1.97621">
        <ele>55</ele>
        <time>2021-06-05T10:35:45.000Z</time>
      </trkpt>
      <trkpt lat="47.30692" lon="-1.9764">
        <ele>55</ele>
        <time>2021-06-05T10:35:47.000Z</time>
      </trkpt>
      <trkpt lat="47.3069" lon="-1.97659">
        <ele>55</ele>
        <time>2021-06-05T10:35:49.000Z</time>
      </trkpt>
      <trkpt lat="47.30687" lon="-1.97677">
        <ele>55</ele>
        <time>2021-06-05T10:35:51.000Z</time>
      </trkpt>
      <trkpt lat="47.30684" lon="-1.97696">
        <ele>55</ele>
        <time>2021-06-05T10:35:53.000Z</time>
      </trkpt>
      <trkpt lat="47.30682" lon="-1.97714">
        <ele>55</ele>
        <time>2021-06-05T10:35:55.000Z</time>
      </trkpt>
      <trkpt lat="47.30679" lon="-1.97733">
        <ele>55</ele>
        <time>2021-06-05T10:35:57.000Z</time>
      </trkpt>
      <trkpt lat="47.30676" lon="-1.97751">
        <ele>55</ele>
        <time>2021-06-05T10:35:59.000Z</time>
      </trkpt>
      <trkpt lat="47.30674" lon="-1.9777">
        <ele>55</ele>
        <time>2021-06-05T10:36:01.000Z</time>
      </trkpt>
      <trkpt lat="47.30672" lon="-1.97789">
        <ele>55</ele>
        <time>2021-06-05T10:36:03.000Z</time>
      </trkpt>
      <trkpt lat="47.30669" lon="-1.97807">
        <ele>56</ele>
        <time>2021-06-05T10:36:05.000Z</time>
      </trkpt>
      <trkpt lat="47.30667" lon="-1.97826">
        <ele>56</ele>
        <time>2021-06-05T10:36:07.000Z</time>
      </trkpt>
      <trkpt lat="47.30664" lon="-1.97844">
        <ele>56</ele>
        <time>2021-06-05T10:36:09.000Z</time>
      </trkpt>
      <trkpt lat="47.30661" lon="-1.97863">
        <ele>55</ele>
        <time>2021-06-05T10:36:11.000Z</time>
      </trkpt>
      <trkpt lat="47.30658" lon="-1.97881">
        <ele>55</ele>
        <time>2021-06-05T10:36:13.000Z</time>
      </trkpt>
      <trkpt lat="47.30656" lon="-1.979">
        <ele>55</ele>
        <time>2021-06-05T10:36:15.000Z</time>
      </trkpt>
      <trkpt lat="47.30654" lon="-1.97919">
        <ele>55</ele>
        <time>2021-06-05T10:36:17.000Z</time>
      </trkpt>
      <trkpt lat="47.30651" lon="-1.97938">
        <ele>55</ele>
        <time>2021-06-05T10:36:19.000Z</time>
      </trkpt>
      <trkpt lat="47.30649" lon="-1.97956">
        <ele>55</ele>
        <time>2021-06-05T10:36:21.000Z</time>
      </trkpt>
      <trkpt lat="47.30647" lon="-1.97975">
        <ele>55</ele>
        <time>2021-06-05T10:36:23.000Z</time>
      </trkpt>
      <trkpt lat="47.30644" lon="-1.97994">
        <ele>55</ele>
        <time>2021-06-05T10:36:25.000Z</time>
      </trkpt>
      <trkpt lat="47.30642" lon="-1.98013">
        <ele>54</ele>
        <time>2021-06-05T10:36:27.000Z</time>
      </trkpt>
      <trkpt lat="47.3064" lon="-1.98032">
        <ele>54</ele>
        <time>2021-06-05T10:36:29.000Z</time>
      </trkpt>
      <trkpt lat="47.30638" lon="-1.9805">
        <ele>54</ele>
        <time>2021-06-05T10:36:31.000Z</time>
      </trkpt>
      <trkpt lat="47.30635" lon="-1.98068">
        <ele>54</ele>
        <time>2021-06-05T10:36:33.000Z</time>
      </trkpt>
      <trkpt lat="47.30633" lon="-1.98086">
        <ele>55</ele>
        <time>2021-06-05T10:36:35.000Z</time>
      </trkpt>
      <trkpt lat="47.30633" lon="-1.98104">
        <ele>55</ele>
        <time>2021-06-05T10:36:37.000Z</time>
      </trkpt>
      <trkpt lat="47.30637" lon="-1.98121">
        <ele>55</ele>
        <time>2021-06-05T10:36:39.000Z</time>
      </trkpt>
      <trkpt lat="47.30645" lon="-1.98135">
        <ele>56</ele>
        <time>2021-06-05T10:36:41.000Z</time>
      </trkpt>
      <trkpt lat="47.30654" lon="-1.98147">
        <ele>56</ele>
        <time>2021-06-05T10:36:43.000Z</time>
      </trkpt>
      <trkpt lat="47.30665" lon="-1.98157">
        <ele>55</ele>
        <time>2021-06-05T10:36:45.000Z</time>
      </trkpt>
      <trkpt lat="47.30676" lon="-1.98168">
        <ele>55</ele>
        <time>2021-06-05T10:36:47.000Z</time>
      </trkpt>
      <trkpt lat="47.30687" lon="-1.9818">
        <ele>55</ele>
        <time>2021-06-05T10:36:49.000Z</time>
      </trkpt>
      <trkpt lat="47.30698" lon="-1.98191">
        <ele>54</ele>
        <time>2021-06-05T10:36:51.000Z</time>
      </trkpt>
      <trkpt lat="47.3071" lon="-1.98203">
        <ele>54</ele>
        <time>2021-06-05T10:36:53.000Z</time>
      </trkpt>
      <trkpt lat="47.30721" lon="-1.98215">
        <ele>54</ele>
        <time>2021-06-05T10:36:55.000Z</time>
      </trkpt>
      <trkpt lat="47.30733" lon="-1.98226">
        <ele>54</ele>
        <time>2021-06-05T10:36:57.000Z</time>
      </trkpt>
      <trkpt lat="47.30744" lon="-1.98237">
        <ele>55</ele>
        <time>2021-06-05T10:36:59.000Z</time>
      </trkpt>
      <trkpt lat="47.30755" lon="-1.98248">
        <ele>55</ele>
        <time>2021-06-05T10:37:01.000Z</time>
      </trkpt>
      <trkpt lat="47.30767" lon="-1.98257">
        <ele>55</ele>
        <time>2021-06-05T10:37:03.000Z</time>
      </trkpt>
      <trkpt lat="47.3078" lon="-1.98264">
        <ele>55</ele>
        <time>2021-06-05T10:37:05.000Z</time>
      </trkpt>
      <trkpt lat="47.30793" lon="-1.98266">
        <ele>55</ele>
        <time>2021-06-05T10:37:07.000Z</time>
      </trkpt>
      <trkpt lat="47.30807" lon="-1.98267">
        <ele>55</ele>
        <time>2021-06-05T10:37:09.000Z</time>
      </trkpt>
      <trkpt lat="47.3082" lon="-1.98269">
        <ele>55</ele>
        <time>2021-06-05T10:37:11.000Z</time>
      </trkpt>
      <trkpt lat="47.30833" lon="-1.98271">
        <ele>56</ele>
        <time>2021-06-05T10:37:13.000Z</time>
      </trkpt>
      <trkpt lat="47.30844" lon="-1.98277">
        <ele>56</ele>
        <time>2021-06-05T10:37:15.000Z</time>
      </trkpt>
      <trkpt lat="47.30854" lon="-1.98286">
        <ele>56</ele>
        <time>2021-06-05T10:37:17.000Z</time>
      </trkpt>
      <trkpt lat="47.30863" lon="-1.98298">
        <ele>57</ele>
        <time>2021-06-05T10:37:19.000Z</time>
      </trkpt>
      <trkpt lat="47.30871" lon="-1.9831">
        <ele>57</ele>
        <time>2021-06-05T10:37:21.000Z</time>
      </trkpt>
      <trkpt lat="47.30879" lon="-1.98323">
        <ele>57</ele>
        <time>2021-06-05T10:37:23.000Z</time>
      </trkpt>
      <trkpt lat="47.30888" lon="-1.98336">
        <ele>58</ele>
        <time>2021-06-05T10:37:25.000Z</time>
      </trkpt>
      <trkpt lat="47.30897" lon="-1.98348">
        <ele>59</ele>
        <time>2021-06-05T10:37:27.000Z</time>
      </trkpt>
      <trkpt lat="47.30906" lon="-1.98361">
        <ele>59</ele>
        <time>2021-06-05T10:37:29.000Z</time>
      </trkpt>
      <trkpt lat="47.30915" lon="-1.98374">
        <ele>60</ele>
        <time>2021-06-05T10:37:31.000Z</time>
      </trkpt>
      <trkpt lat="47.30924" lon="-1.98388">
        <ele>59</ele>
        <time>2021-06-05T10:37:33.000Z</time>
      </trkpt>
      <trkpt lat="47.30932" lon="-1.984">
        <ele>59</ele>
        <time>2021-06-05T10:37:35.000Z</time>
      </trkpt>
      <trkpt lat="47.30941" lon="-1.98413">
        <ele>59</ele>
        <time>2021-06-05T10:37:37.000Z</time>
      </trkpt>
      <trkpt lat="47.30949" lon="-1.98424">
        <ele>59</ele>
        <time>2021-06-05T10:37:39.000Z</time>
      </trkpt>
      <trkpt lat="47.30958" lon="-1.98437">
        <ele>59</ele>
        <time>2021-06-05T10:37:41.000Z</time>
      </trkpt>
      <trkpt lat="47.30966" lon="-1.9845">
        <ele>59</ele>
        <time>2021-06-05T10:37:43.000Z</time>
      </trkpt>
      <trkpt lat="47.30975" lon="-1.98463">
        <ele>59</ele>
        <time>2021-06-05T10:37:45.000Z</time>
      </trkpt>
      <trkpt lat="47.30983" lon="-1.98476">
        <ele>58</ele>
        <time>2021-06-05T10:37:47.000Z</time>
      </trkpt>
      <trkpt lat="47.3099" lon="-1.98491">
        <ele>58</ele>
        <time>2021-06-05T10:37:49.000Z</time>
      </trkpt>
      <trkpt lat="47.30997" lon="-1.98509">
        <ele>58</ele>
        <time>2021-06-05T10:37:51.000Z</time>
      </trkpt>
      <trkpt lat="47.31001" lon="-1.98527">
        <ele>57</ele>
        <time>2021-06-05T10:37:53.000Z</time>
      </trkpt>
      <trkpt lat="47.31006" lon="-1.98546">
        <ele>57</ele>
        <time>2021-06-05T10:37:55.000Z</time>
      </trkpt>
      <trkpt lat="47.3101" lon="-1.98565">
        <ele>57</ele>
        <time>2021-06-05T10:37:57.000Z</time>
      </trkpt>
      <trkpt lat="47.31015" lon="-1.98585">
        <ele>57</ele>
        <time>2021-06-05T10:37:59.000Z</time>
      </trkpt>
      <trkpt lat="47.31019" lon="-1.98605">
        <ele>57</ele>
        <time>2021-06-05T10:38:01.000Z</time>
      </trkpt>
      <trkpt lat="47.31023" lon="-1.98625">
        <ele>56</ele>
        <time>2021-06-05T10:38:03.000Z</time>
      </trkpt>
      <trkpt lat="47.31029" lon="-1.98644">
        <ele>56</ele>
        <time>2021-06-05T10:38:05.000Z</time>
      </trkpt>
      <trkpt lat="47.31037" lon="-1.98661">
        <ele>55</ele>
        <time>2021-06-05T10:38:07.000Z</time>
      </trkpt>
      <trkpt lat="47.31046" lon="-1.98676">
        <ele>55</ele>
        <time>2021-06-05T10:38:09.000Z</time>
      </trkpt>
      <trkpt lat="47.31057" lon="-1.98688">
        <ele>55</ele>
        <time>2021-06-05T10:38:11.000Z</time>
      </trkpt>
      <trkpt lat="47.31068" lon="-1.98698">
        <ele>55</ele>
        <time>2021-06-05T10:38:13.000Z</time>
      </trkpt>
      <trkpt lat="47.3108" lon="-1.98707">
        <ele>55</ele>
        <time>2021-06-05T10:38:15.000Z</time>
      </trkpt>
      <trkpt lat="47.31093" lon="-1.98715">
        <ele>55</ele>
        <time>2021-06-05T10:38:17.000Z</time>
      </trkpt>
      <trkpt lat="47.31105" lon="-1.98723">
        <ele>54</ele>
        <time>2021-06-05T10:38:19.000Z</time>
      </trkpt>
      <trkpt lat="47.31118" lon="-1.98729">
        <ele>54</ele>
        <time>2021-06-05T10:38:21.000Z</time>
      </trkpt>
      <trkpt lat="47.31131" lon="-1.98735">
        <ele>54</ele>
        <time>2021-06-05T10:38:23.000Z</time>
      </trkpt>
      <trkpt lat="47.31145" lon="-1.98742">
        <ele>53</ele>
        <time>2021-06-05T10:38:25.000Z</time>
      </trkpt>
      <trkpt lat="47.31157" lon="-1.98747">
        <ele>53</ele>
        <time>2021-06-05T10:38:27.000Z</time>
      </trkpt>
      <trkpt lat="47.3117" lon="-1.98754">
        <ele>53</ele>
        <time>2021-06-05T10:38:29.000Z</time>
      </trkpt>
      <trkpt lat="47.31183" lon="-1.9876">
        <ele>53</ele>
        <time>2021-06-05T10:38:31.000Z</time>
      </trkpt>
      <trkpt lat="47.31197" lon="-1.98766">
        <ele>53</ele>
        <time>2021-06-05T10:38:33.000Z</time>
      </trkpt>
      <trkpt lat="47.3121" lon="-1.98772">
        <ele>53</ele>
        <time>2021-06-05T10:38:35.000Z</time>
      </trkpt>
      <trkpt lat="47.31223" lon="-1.98778">
        <ele>53</ele>
        <time>2021-06-05T10:38:37.000Z</time>
      </trkpt>
      <trkpt lat="47.31236" lon="-1.98785">
        <ele>52</ele>
        <time>2021-06-05T10:38:39.000Z</time>
      </trkpt>
      <trkpt lat="47.31249" lon="-1.98791">
        <ele>52</ele>
        <time>2021-06-05T10:38:41.000Z</time>
      </trkpt>
      <trkpt lat="47.31262" lon="-1.98797">
        <ele>52</ele>
        <time>2021-06-05T10:38:43.000Z</time>
      </trkpt>
      <trkpt lat="47.31276" lon="-1.98804">
        <ele>53</ele>
        <time>2021-06-05T10:38:45.000Z</time>
      </trkpt>
      <trkpt lat="47.31289" lon="-1.9881">
        <ele>53</ele>
        <time>2021-06-05T10:38:47.000Z</time>
      </trkpt>
      <trkpt lat="47.31301" lon="-1.98817">
        <ele>53</ele>
        <time>2021-06-05T10:38:49.000Z</time>
      </trkpt>
      <trkpt lat="47.31314" lon="-1.98822">
        <ele>53</ele>
        <time>2021-06-05T10:38:51.000Z</time>
      </trkpt>
      <trkpt lat="47.31327" lon="-1.98828">
        <ele>52</ele>
        <time>2021-06-05T10:38:53.000Z</time>
      </trkpt>
      <trkpt lat="47.3134" lon="-1.98834">
        <ele>52</ele>
        <time>2021-06-05T10:38:55.000Z</time>
      </trkpt>
      <trkpt lat="47.31353" lon="-1.98841">
        <ele>51</ele>
        <time>2021-06-05T10:38:57.000Z</time>
      </trkpt>
      <trkpt lat="47.31365" lon="-1.98847">
        <ele>51</ele>
        <time>2021-06-05T10:38:59.000Z</time>
      </trkpt>
      <trkpt lat="47.31378" lon="-1.98853">
        <ele>51</ele>
        <time>2021-06-05T10:39:01.000Z</time>
      </trkpt>
      <trkpt lat="47.31391" lon="-1.98859">
        <ele>51</ele>
        <time>2021-06-05T10:39:03.000Z</time>
      </trkpt>
      <trkpt lat="47.31404" lon="-1.98864">
        <ele>52</ele>
        <time>2021-06-05T10:39:05.000Z</time>
      </trkpt>
      <trkpt lat="47.31417" lon="-1.9887">
        <ele>51</ele>
        <time>2021-06-05T10:39:07.000Z</time>
      </trkpt>
      <trkpt lat="47.3143" lon="-1.98877">
        <ele>51</ele>
        <time>2021-06-05T10:39:09.000Z</time>
      </trkpt>
      <trkpt lat="47.31442" lon="-1.98883">
        <ele>51</ele>
        <time>2021-06-05T10:39:11.000Z</time>
      </trkpt>
      <trkpt lat="47.31455" lon="-1.98889">
        <ele>51</ele>
        <time>2021-06-05T10:39:13.000Z</time>
      </trkpt>
      <trkpt lat="47.31468" lon="-1.98895">
        <ele>52</ele>
        <time>2021-06-05T10:39:15.000Z</time>
      </trkpt>
      <trkpt lat="47.3148" lon="-1.98901">
        <ele>52</ele>
        <time>2021-06-05T10:39:17.000Z</time>
      </trkpt>
      <trkpt lat="47.31493" lon="-1.98907">
        <ele>51</ele>
        <time>2021-06-05T10:39:19.000Z</time>
      </trkpt>
      <trkpt lat="47.31505" lon="-1.98913">
        <ele>51</ele>
        <time>2021-06-05T10:39:21.000Z</time>
      </trkpt>
      <trkpt lat="47.31518" lon="-1.98919">
        <ele>51</ele>
        <time>2021-06-05T10:39:23.000Z</time>
      </trkpt>
      <trkpt lat="47.3153" lon="-1.98925">
        <ele>51</ele>
        <time>2021-06-05T10:39:25.000Z</time>
      </trkpt>
      <trkpt lat="47.31543" lon="-1.98931">
        <ele>51</ele>
        <time>2021-06-05T10:39:27.000Z</time>
      </trkpt>
      <trkpt lat="47.31556" lon="-1.98937">
        <ele>51</ele>
        <time>2021-06-05T10:39:29.000Z</time>
      </trkpt>
      <trkpt lat="47.31568" lon="-1.98942">
        <ele>52</ele>
        <time>2021-06-05T10:39:31.000Z</time>
      </trkpt>
      <trkpt lat="47.31581" lon="-1.98948">
        <ele>51</ele>
        <time>2021-06-05T10:39:33.000Z</time>
      </trkpt>
      <trkpt lat="47.31593" lon="-1.98955">
        <ele>51</ele>
        <time>2021-06-05T10:39:35.000Z</time>
      </trkpt>
      <trkpt lat="47.31605" lon="-1.98961">
        <ele>51</ele>
        <time>2021-06-05T10:39:37.000Z</time>
      </trkpt>
      <trkpt lat="47.31617" lon="-1.9897">
        <ele>52</ele>
        <time>2021-06-05T10:39:39.000Z</time>
      </trkpt>
      <trkpt lat="47.31627" lon="-1.98981">
        <ele>52</ele>
        <time>2021-06-05T10:39:41.000Z</time>
      </trkpt>
      <trkpt lat="47.31636" lon="-1.98995">
        <ele>52</ele>
        <time>2021-06-05T10:39:43.000Z</time>
      </trkpt>
      <trkpt lat="47.31643" lon="-1.99012">
        <ele>52</ele>
        <time>2021-06-05T10:39:45.000Z</time>
      </trkpt>
      <trkpt lat="47.31649" lon="-1.9903">
        <ele>53</ele>
        <time>2021-06-05T10:39:47.000Z</time>
      </trkpt>
      <trkpt lat="47.31653" lon="-1.99048">
        <ele>53</ele>
        <time>2021-06-05T10:39:49.000Z</time>
      </trkpt>
      <trkpt lat="47.31657" lon="-1.99067">
        <ele>54</ele>
        <time>2021-06-05T10:39:51.000Z</time>
      </trkpt>
      <trkpt lat="47.31662" lon="-1.99085">
        <ele>54</ele>
        <time>2021-06-05T10:39:53.000Z</time>
      </trkpt>
      <trkpt lat="47.31666" lon="-1.99103">
        <ele>54</ele>
        <time>2021-06-05T10:39:55.000Z</time>
      </trkpt>
      <trkpt lat="47.3167" lon="-1.99121">
        <ele>54</ele>
        <time>2021-06-05T10:39:57.000Z</time>
      </trkpt>
      <trkpt lat="47.31675" lon="-1.99141">
        <ele>54</ele>
        <time>2021-06-05T10:39:59.000Z</time>
      </trkpt>
      <trkpt lat="47.31679" lon="-1.99159">
        <ele>54</ele>
        <time>2021-06-05T10:40:01.000Z</time>
      </trkpt>
      <trkpt lat="47.31683" lon="-1.99178">
        <ele>53</ele>
        <time>2021-06-05T10:40:03.000Z</time>
      </trkpt>
      <trkpt lat="47.31688" lon="-1.99196">
        <ele>53</ele>
        <time>2021-06-05T10:40:05.000Z</time>
      </trkpt>
      <trkpt lat="47.31692" lon="-1.99214">
        <ele>54</ele>
        <time>2021-06-05T10:40:07.000Z</time>
      </trkpt>
      <trkpt lat="47.31696" lon="-1.99233">
        <ele>53</ele>
        <time>2021-06-05T10:40:09.000Z</time>
      </trkpt>
      <trkpt lat="47.317" lon="-1.99252">
        <ele>53</ele>
        <time>2021-06-05T10:40:11.000Z</time>
      </trkpt>
      <trkpt lat="47.31704" lon="-1.9927">
        <ele>53</ele>
        <time>2021-06-05T10:40:13.000Z</time>
      </trkpt>
      <trkpt lat="47.31708" lon="-1.99289">
        <ele>53</ele>
        <time>2021-06-05T10:40:15.000Z</time>
      </trkpt>
      <trkpt lat="47.31712" lon="-1.99307">
        <ele>54</ele>
        <time>2021-06-05T10:40:17.000Z</time>
      </trkpt>
      <trkpt lat="47.31716" lon="-1.99326">
        <ele>54</ele>
        <time>2021-06-05T10:40:19.000Z</time>
      </trkpt>
      <trkpt lat="47.31718" lon="-1.99344">
        <ele>54</ele>
        <time>2021-06-05T10:40:21.000Z</time>
      </trkpt>
      <trkpt lat="47.31721" lon="-1.99363">
        <ele>54</ele>
        <time>2021-06-05T10:40:23.000Z</time>
      </trkpt>
      <trkpt lat="47.31724" lon="-1.99382">
        <ele>54</ele>
        <time>2021-06-05T10:40:25.000Z</time>
      </trkpt>
      <trkpt lat="47.31726" lon="-1.99401">
        <ele>54</ele>
        <time>2021-06-05T10:40:27.000Z</time>
      </trkpt>
      <trkpt lat="47.31728" lon="-1.9942">
        <ele>54</ele>
        <time>2021-06-05T10:40:29.000Z</time>
      </trkpt>
      <trkpt lat="47.3173" lon="-1.99439">
        <ele>54</ele>
        <time>2021-06-05T10:40:31.000Z</time>
      </trkpt>
      <trkpt lat="47.31732" lon="-1.99457">
        <ele>54</ele>
        <time>2021-06-05T10:40:33.000Z</time>
      </trkpt>
      <trkpt lat="47.31734" lon="-1.99476">
        <ele>54</ele>
        <time>2021-06-05T10:40:35.000Z</time>
      </trkpt>
      <trkpt lat="47.31736" lon="-1.99493">
        <ele>55</ele>
        <time>2021-06-05T10:40:37.000Z</time>
      </trkpt>
      <trkpt lat="47.31738" lon="-1.99512">
        <ele>55</ele>
        <time>2021-06-05T10:40:39.000Z</time>
      </trkpt>
      <trkpt lat="47.3174" lon="-1.99529">
        <ele>55</ele>
        <time>2021-06-05T10:40:41.000Z</time>
      </trkpt>
      <trkpt lat="47.31741" lon="-1.99546">
        <ele>56</ele>
        <time>2021-06-05T10:40:43.000Z</time>
      </trkpt>
      <trkpt lat="47.31743" lon="-1.99563">
        <ele>56</ele>
        <time>2021-06-05T10:40:45.000Z</time>
      </trkpt>
      <trkpt lat="47.31745" lon="-1.99581">
        <ele>56</ele>
        <time>2021-06-05T10:40:47.000Z</time>
      </trkpt>
      <trkpt lat="47.31747" lon="-1.99599">
        <ele>56</ele>
        <time>2021-06-05T10:40:49.000Z</time>
      </trkpt>
      <trkpt lat="47.31749" lon="-1.99615">
        <ele>57</ele>
        <time>2021-06-05T10:40:51.000Z</time>
      </trkpt>
      <trkpt lat="47.31752" lon="-1.99633">
        <ele>57</ele>
        <time>2021-06-05T10:40:53.000Z</time>
      </trkpt>
      <trkpt lat="47.31753" lon="-1.99651">
        <ele>57</ele>
        <time>2021-06-05T10:40:55.000Z</time>
      </trkpt>
      <trkpt lat="47.31756" lon="-1.99668">
        <ele>58</ele>
        <time>2021-06-05T10:40:57.000Z</time>
      </trkpt>
      <trkpt lat="47.31758" lon="-1.99685">
        <ele>58</ele>
        <time>2021-06-05T10:40:59.000Z</time>
      </trkpt>
      <trkpt lat="47.3176" lon="-1.99702">
        <ele>58</ele>
        <time>2021-06-05T10:41:01.000Z</time>
      </trkpt>
      <trkpt lat="47.31763" lon="-1.99719">
        <ele>58</ele>
        <time>2021-06-05T10:41:03.000Z</time>
      </trkpt>
      <trkpt lat="47.31768" lon="-1.99734">
        <ele>58</ele>
        <time>2021-06-05T10:41:05.000Z</time>
      </trkpt>
      <trkpt lat="47.31776" lon="-1.99744">
        <ele>58</ele>
        <time>2021-06-05T10:41:07.000Z</time>
      </trkpt>
      <trkpt lat="47.31787" lon="-1.99751">
        <ele>58</ele>
        <time>2021-06-05T10:41:09.000Z</time>
      </trkpt>
      <trkpt lat="47.31798" lon="-1.99756">
        <ele>58</ele>
        <time>2021-06-05T10:41:11.000Z</time>
      </trkpt>
      <trkpt lat="47.31808" lon="-1.99762">
        <ele>59</ele>
        <time>2021-06-05T10:41:13.000Z</time>
      </trkpt>
      <trkpt lat="47.31815" lon="-1.99776">
        <ele>59</ele>
        <time>2021-06-05T10:41:15.000Z</time>
      </trkpt>
      <trkpt lat="47.31818" lon="-1.99794">
        <ele>59</ele>
        <time>2021-06-05T10:41:17.000Z</time>
      </trkpt>
      <trkpt lat="47.31819" lon="-1.99812">
        <ele>59</ele>
        <time>2021-06-05T10:41:19.000Z</time>
      </trkpt>
      <trkpt lat="47.3182" lon="-1.99829">
        <ele>58</ele>
        <time>2021-06-05T10:41:21.000Z</time>
      </trkpt>
      <trkpt lat="47.31821" lon="-1.99848">
        <ele>58</ele>
        <time>2021-06-05T10:41:23.000Z</time>
      </trkpt>
      <trkpt lat="47.31822" lon="-1.99867">
        <ele>58</ele>
        <time>2021-06-05T10:41:25.000Z</time>
      </trkpt>
      <trkpt lat="47.31824" lon="-1.99886">
        <ele>58</ele>
        <time>2021-06-05T10:41:27.000Z</time>
      </trkpt>
      <trkpt lat="47.31826" lon="-1.99907">
        <ele>58</ele>
        <time>2021-06-05T10:41:29.000Z</time>
      </trkpt>
      <trkpt lat="47.31827" lon="-1.99929">
        <ele>58</ele>
        <time>2021-06-05T10:41:31.000Z</time>
      </trkpt>
      <trkpt lat="47.31827" lon="-1.9995">
        <ele>57</ele>
        <time>2021-06-05T10:41:33.000Z</time>
      </trkpt>
      <trkpt lat="47.31826" lon="-1.99973">
        <ele>58</ele>
        <time>2021-06-05T10:41:35.000Z</time>
      </trkpt>
      <trkpt lat="47.31824" lon="-1.99995">
        <ele>57</ele>
        <time>2021-06-05T10:41:37.000Z</time>
      </trkpt>
      <trkpt lat="47.31822" lon="-2.00015">
        <ele>57</ele>
        <time>2021-06-05T10:41:39.000Z</time>
      </trkpt>
      <trkpt lat="47.3182" lon="-2.00036">
        <ele>57</ele>
        <time>2021-06-05T10:41:41.000Z</time>
      </trkpt>
      <trkpt lat="47.31817" lon="-2.00058">
        <ele>56</ele>
        <time>2021-06-05T10:41:43.000Z</time>
      </trkpt>
      <trkpt lat="47.31815" lon="-2.00079">
        <ele>56</ele>
        <time>2021-06-05T10:41:45.000Z</time>
      </trkpt>
      <trkpt lat="47.31812" lon="-2.00098">
        <ele>54</ele>
        <time>2021-06-05T10:41:47.000Z</time>
      </trkpt>
      <trkpt lat="47.31809" lon="-2.00117">
        <ele>54</ele>
        <time>2021-06-05T10:41:49.000Z</time>
      </trkpt>
      <trkpt lat="47.31806" lon="-2.00136">
        <ele>54</ele>
        <time>2021-06-05T10:41:51.000Z</time>
      </trkpt>
      <trkpt lat="47.31804" lon="-2.00155">
        <ele>53</ele>
        <time>2021-06-05T10:41:53.000Z</time>
      </trkpt>
      <trkpt lat="47.31802" lon="-2.00173">
        <ele>53</ele>
        <time>2021-06-05T10:41:55.000Z</time>
      </trkpt>
      <trkpt lat="47.31799" lon="-2.00192">
        <ele>53</ele>
        <time>2021-06-05T10:41:57.000Z</time>
      </trkpt>
      <trkpt lat="47.31796" lon="-2.00211">
        <ele>53</ele>
        <time>2021-06-05T10:41:59.000Z</time>
      </trkpt>
      <trkpt lat="47.31794" lon="-2.00229">
        <ele>53</ele>
        <time>2021-06-05T10:42:01.000Z</time>
      </trkpt>
      <trkpt lat="47.31792" lon="-2.00247">
        <ele>53</ele>
        <time>2021-06-05T10:42:03.000Z</time>
      </trkpt>
      <trkpt lat="47.31789" lon="-2.00265">
        <ele>53</ele>
        <time>2021-06-05T10:42:05.000Z</time>
      </trkpt>
      <trkpt lat="47.31787" lon="-2.00283">
        <ele>53</ele>
        <time>2021-06-05T10:42:07.000Z</time>
      </trkpt>
      <trkpt lat="47.31785" lon="-2.00301">
        <ele>53</ele>
        <time>2021-06-05T10:42:09.000Z</time>
      </trkpt>
      <trkpt lat="47.31783" lon="-2.00319">
        <ele>53</ele>
        <time>2021-06-05T10:42:11.000Z</time>
      </trkpt>
      <trkpt lat="47.3178" lon="-2.00337">
        <ele>53</ele>
        <time>2021-06-05T10:42:13.000Z</time>
      </trkpt>
      <trkpt lat="47.31778" lon="-2.00355">
        <ele>53</ele>
        <time>2021-06-05T10:42:15.000Z</time>
      </trkpt>
      <trkpt lat="47.31776" lon="-2.00373">
        <ele>53</ele>
        <time>2021-06-05T10:42:17.000Z</time>
      </trkpt>
      <trkpt lat="47.31773" lon="-2.00392">
        <ele>53</ele>
        <time>2021-06-05T10:42:19.000Z</time>
      </trkpt>
      <trkpt lat="47.31771" lon="-2.0041">
        <ele>53</ele>
        <time>2021-06-05T10:42:21.000Z</time>
      </trkpt>
      <trkpt lat="47.31768" lon="-2.00428">
        <ele>53</ele>
        <time>2021-06-05T10:42:23.000Z</time>
      </trkpt>
      <trkpt lat="47.31766" lon="-2.00447">
        <ele>53</ele>
        <time>2021-06-05T10:42:25.000Z</time>
      </trkpt>
      <trkpt lat="47.31764" lon="-2.00466">
        <ele>53</ele>
        <time>2021-06-05T10:42:27.000Z</time>
      </trkpt>
      <trkpt lat="47.31761" lon="-2.00485">
        <ele>52</ele>
        <time>2021-06-05T10:42:29.000Z</time>
      </trkpt>
      <trkpt lat="47.31758" lon="-2.00504">
        <ele>53</ele>
        <time>2021-06-05T10:42:31.000Z</time>
      </trkpt>
      <trkpt lat="47.31756" lon="-2.00523">
        <ele>53</ele>
        <time>2021-06-05T10:42:33.000Z</time>
      </trkpt>
      <trkpt lat="47.31753" lon="-2.00542">
        <ele>53</ele>
        <time>2021-06-05T10:42:35.000Z</time>
      </trkpt>
      <trkpt lat="47.31752" lon="-2.00561">
        <ele>53</ele>
        <time>2021-06-05T10:42:37.000Z</time>
      </trkpt>
      <trkpt lat="47.31751" lon="-2.0058">
        <ele>54</ele>
        <time>2021-06-05T10:42:39.000Z</time>
      </trkpt>
      <trkpt lat="47.31751" lon="-2.00598">
        <ele>54</ele>
        <time>2021-06-05T10:42:41.000Z</time>
      </trkpt>
      <trkpt lat="47.31752" lon="-2.00617">
        <ele>54</ele>
        <time>2021-06-05T10:42:43.000Z</time>
      </trkpt>
      <trkpt lat="47.31754" lon="-2.00636">
        <ele>54</ele>
        <time>2021-06-05T10:42:45.000Z</time>
      </trkpt>
      <trkpt lat="47.31757" lon="-2.00654">
        <ele>54</ele>
        <time>2021-06-05T10:42:47.000Z</time>
      </trkpt>
      <trkpt lat="47.31761" lon="-2.00672">
        <ele>54</ele>
        <time>2021-06-05T10:42:49.000Z</time>
      </trkpt>
      <trkpt lat="47.31765" lon="-2.0069">
        <ele>54</ele>
        <time>2021-06-05T10:42:51.000Z</time>
      </trkpt>
      <trkpt lat="47.31768" lon="-2.00709">
        <ele>54</ele>
        <time>2021-06-05T10:42:53.000Z</time>
      </trkpt>
      <trkpt lat="47.31772" lon="-2.00726">
        <ele>54</ele>
        <time>2021-06-05T10:42:55.000Z</time>
      </trkpt>
      <trkpt lat="47.31776" lon="-2.00744">
        <ele>54</ele>
        <time>2021-06-05T10:42:57.000Z</time>
      </trkpt>
      <trkpt lat="47.3178" lon="-2.00761">
        <ele>54</ele>
        <time>2021-06-05T10:42:59.000Z</time>
      </trkpt>
      <trkpt lat="47.31783" lon="-2.00779">
        <ele>54</ele>
        <time>2021-06-05T10:43:01.000Z</time>
      </trkpt>
      <trkpt lat="47.31787" lon="-2.00797">
        <ele>54</ele>
        <time>2021-06-05T10:43:03.000Z</time>
      </trkpt>
      <trkpt lat="47.3179" lon="-2.00814">
        <ele>55</ele>
        <time>2021-06-05T10:43:05.000Z</time>
      </trkpt>
      <trkpt lat="47.31793" lon="-2.00831">
        <ele>55</ele>
        <time>2021-06-05T10:43:07.000Z</time>
      </trkpt>
      <trkpt lat="47.31796" lon="-2.00848">
        <ele>56</ele>
        <time>2021-06-05T10:43:09.000Z</time>
      </trkpt>
      <trkpt lat="47.318" lon="-2.00865">
        <ele>56</ele>
        <time>2021-06-05T10:43:11.000Z</time>
      </trkpt>
      <trkpt lat="47.31804" lon="-2.00883">
        <ele>56</ele>
        <time>2021-06-05T10:43:13.000Z</time>
      </trkpt>
      <trkpt lat="47.31807" lon="-2.00902">
        <ele>56</ele>
        <time>2021-06-05T10:43:15.000Z</time>
      </trkpt>
      <trkpt lat="47.31811" lon="-2.00921">
        <ele>55</ele>
        <time>2021-06-05T10:43:17.000Z</time>
      </trkpt>
      <trkpt lat="47.31815" lon="-2.0094">
        <ele>54</ele>
        <time>2021-06-05T10:43:19.000Z</time>
      </trkpt>
      <trkpt lat="47.31819" lon="-2.00958">
        <ele>54</ele>
        <time>2021-06-05T10:43:21.000Z</time>
      </trkpt>
      <trkpt lat="47.31823" lon="-2.00977">
        <ele>54</ele>
        <time>2021-06-05T10:43:23.000Z</time>
      </trkpt>
      <trkpt lat="47.31827" lon="-2.00996">
        <ele>53</ele>
        <time>2021-06-05T10:43:25.000Z</time>
      </trkpt>
      <trkpt lat="47.31831" lon="-2.01015">
        <ele>53</ele>
        <time>2021-06-05T10:43:27.000Z</time>
      </trkpt>
      <trkpt lat="47.31835" lon="-2.01033">
        <ele>53</ele>
        <time>2021-06-05T10:43:29.000Z</time>
      </trkpt>
      <trkpt lat="47.31839" lon="-2.01052">
        <ele>53</ele>
        <time>2021-06-05T10:43:31.000Z</time>
      </trkpt>
      <trkpt lat="47.31842" lon="-2.0107">
        <ele>53</ele>
        <time>2021-06-05T10:43:33.000Z</time>
      </trkpt>
      <trkpt lat="47.31846" lon="-2.01089">
        <ele>52</ele>
        <time>2021-06-05T10:43:35.000Z</time>
      </trkpt>
      <trkpt lat="47.31849" lon="-2.01107">
        <ele>53</ele>
        <time>2021-06-05T10:43:37.000Z</time>
      </trkpt>
      <trkpt lat="47.31853" lon="-2.01124">
        <ele>53</ele>
        <time>2021-06-05T10:43:39.000Z</time>
      </trkpt>
      <trkpt lat="47.31857" lon="-2.01142">
        <ele>53</ele>
        <time>2021-06-05T10:43:41.000Z</time>
      </trkpt>
      <trkpt lat="47.3186" lon="-2.01159">
        <ele>53</ele>
        <time>2021-06-05T10:43:43.000Z</time>
      </trkpt>
      <trkpt lat="47.31864" lon="-2.01177">
        <ele>53</ele>
        <time>2021-06-05T10:43:45.000Z</time>
      </trkpt>
      <trkpt lat="47.31867" lon="-2.01195">
        <ele>53</ele>
        <time>2021-06-05T10:43:47.000Z</time>
      </trkpt>
      <trkpt lat="47.31871" lon="-2.01213">
        <ele>53</ele>
        <time>2021-06-05T10:43:49.000Z</time>
      </trkpt>
      <trkpt lat="47.31874" lon="-2.01232">
        <ele>53</ele>
        <time>2021-06-05T10:43:51.000Z</time>
      </trkpt>
      <trkpt lat="47.31878" lon="-2.0125">
        <ele>53</ele>
        <time>2021-06-05T10:43:53.000Z</time>
      </trkpt>
      <trkpt lat="47.31883" lon="-2.01267">
        <ele>53</ele>
        <time>2021-06-05T10:43:55.000Z</time>
      </trkpt>
      <trkpt lat="47.3189" lon="-2.01283">
        <ele>53</ele>
        <time>2021-06-05T10:43:57.000Z</time>
      </trkpt>
      <trkpt lat="47.31898" lon="-2.01297">
        <ele>53</ele>
        <time>2021-06-05T10:43:59.000Z</time>
      </trkpt>
      <trkpt lat="47.31907" lon="-2.0131">
        <ele>53</ele>
        <time>2021-06-05T10:44:01.000Z</time>
      </trkpt>
      <trkpt lat="47.31918" lon="-2.0132">
        <ele>53</ele>
        <time>2021-06-05T10:44:03.000Z</time>
      </trkpt>
      <trkpt lat="47.31929" lon="-2.01331">
        <ele>53</ele>
        <time>2021-06-05T10:44:05.000Z</time>
      </trkpt>
      <trkpt lat="47.31941" lon="-2.0134">
        <ele>53</ele>
        <time>2021-06-05T10:44:07.000Z</time>
      </trkpt>
      <trkpt lat="47.31953" lon="-2.01349">
        <ele>53</ele>
        <time>2021-06-05T10:44:09.000Z</time>
      </trkpt>
      <trkpt lat="47.31964" lon="-2.01357">
        <ele>53</ele>
        <time>2021-06-05T10:44:11.000Z</time>
      </trkpt>
      <trkpt lat="47.31976" lon="-2.01364">
        <ele>53</ele>
        <time>2021-06-05T10:44:13.000Z</time>
      </trkpt>
      <trkpt lat="47.31988" lon="-2.01372">
        <ele>53</ele>
        <time>2021-06-05T10:44:15.000Z</time>
      </trkpt>
      <trkpt lat="47.32" lon="-2.0138">
        <ele>53</ele>
        <time>2021-06-05T10:44:17.000Z</time>
      </trkpt>
      <trkpt lat="47.32013" lon="-2.01388">
        <ele>53</ele>
        <time>2021-06-05T10:44:19.000Z</time>
      </trkpt>
      <trkpt lat="47.32025" lon="-2.01396">
        <ele>52</ele>
        <time>2021-06-05T10:44:21.000Z</time>
      </trkpt>
      <trkpt lat="47.32037" lon="-2.01404">
        <ele>52</ele>
        <time>2021-06-05T10:44:23.000Z</time>
      </trkpt>
      <trkpt lat="47.32049" lon="-2.01412">
        <ele>52</ele>
        <time>2021-06-05T10:44:25.000Z</time>
      </trkpt>
      <trkpt lat="47.32061" lon="-2.0142">
        <ele>52</ele>
        <time>2021-06-05T10:44:27.000Z</time>
      </trkpt>
      <trkpt lat="47.32074" lon="-2.01428">
        <ele>52</ele>
        <time>2021-06-05T10:44:29.000Z</time>
      </trkpt>
      <trkpt lat="47.32086" lon="-2.01437">
        <ele>52</ele>
        <time>2021-06-05T10:44:31.000Z</time>
      </trkpt>
      <trkpt lat="47.32098" lon="-2.01445">
        <ele>52</ele>
        <time>2021-06-05T10:44:33.000Z</time>
      </trkpt>
      <trkpt lat="47.32109" lon="-2.01453">
        <ele>53</ele>
        <time>2021-06-05T10:44:35.000Z</time>
      </trkpt>
      <trkpt lat="47.32121" lon="-2.01461">
        <ele>53</ele>
        <time>2021-06-05T10:44:37.000Z</time>
      </trkpt>
      <trkpt lat="47.32133" lon="-2.0147">
        <ele>54</ele>
        <time>2021-06-05T10:44:39.000Z</time>
      </trkpt>
      <trkpt lat="47.32145" lon="-2.01478">
        <ele>54</ele>
        <time>2021-06-05T10:44:41.000Z</time>
      </trkpt>
      <trkpt lat="47.32157" lon="-2.01487">
        <ele>54</ele>
        <time>2021-06-05T10:44:43.000Z</time>
      </trkpt>
      <trkpt lat="47.3217" lon="-2.01494">
        <ele>54</ele>
        <time>2021-06-05T10:44:45.000Z</time>
      </trkpt>
      <trkpt lat="47.32182" lon="-2.01502">
        <ele>54</ele>
        <time>2021-06-05T10:44:47.000Z</time>
      </trkpt>
      <trkpt lat="47.32194" lon="-2.0151">
        <ele>54</ele>
        <time>2021-06-05T10:44:49.000Z</time>
      </trkpt>
      <trkpt lat="47.32206" lon="-2.01516">
        <ele>54</ele>
        <time>2021-06-05T10:44:51.000Z</time>
      </trkpt>
      <trkpt lat="47.32218" lon="-2.01523">
        <ele>54</ele>
        <time>2021-06-05T10:44:53.000Z</time>
      </trkpt>
      <trkpt lat="47.3223" lon="-2.01531">
        <ele>54</ele>
        <time>2021-06-05T10:44:55.000Z</time>
      </trkpt>
      <trkpt lat="47.32242" lon="-2.01537">
        <ele>54</ele>
        <time>2021-06-05T10:44:57.000Z</time>
      </trkpt>
      <trkpt lat="47.32254" lon="-2.01545">
        <ele>55</ele>
        <time>2021-06-05T10:44:59.000Z</time>
      </trkpt>
      <trkpt lat="47.32266" lon="-2.01552">
        <ele>55</ele>
        <time>2021-06-05T10:45:01.000Z</time>
      </trkpt>
      <trkpt lat="47.32278" lon="-2.01557">
        <ele>56</ele>
        <time>2021-06-05T10:45:03.000Z</time>
      </trkpt>
      <trkpt lat="47.3229" lon="-2.01563">
        <ele>57</ele>
        <time>2021-06-05T10:45:05.000Z</time>
      </trkpt>
      <trkpt lat="47.32302" lon="-2.0157">
        <ele>57</ele>
        <time>2021-06-05T10:45:07.000Z</time>
      </trkpt>
      <trkpt lat="47.32314" lon="-2.01577">
        <ele>58</ele>
        <time>2021-06-05T10:45:09.000Z</time>
      </trkpt>
      <trkpt lat="47.32326" lon="-2.01584">
        <ele>58</ele>
        <time>2021-06-05T10:45:11.000Z</time>
      </trkpt>
      <trkpt lat="47.32339" lon="-2.01592">
        <ele>57</ele>
        <time>2021-06-05T10:45:13.000Z</time>
      </trkpt>
      <trkpt lat="47.32351" lon="-2.01598">
        <ele>58</ele>
        <time>2021-06-05T10:45:15.000Z</time>
      </trkpt>
      <trkpt lat="47.32363" lon="-2.01604">
        <ele>58</ele>
        <time>2021-06-05T10:45:17.000Z</time>
      </trkpt>
      <trkpt lat="47.32375" lon="-2.01611">
        <ele>57</ele>
        <time>2021-06-05T10:45:19.000Z</time>
      </trkpt>
      <trkpt lat="47.32386" lon="-2.01617">
        <ele>57</ele>
        <time>2021-06-05T10:45:21.000Z</time>
      </trkpt>
      <trkpt lat="47.32399" lon="-2.01624">
        <ele>57</ele>
        <time>2021-06-05T10:45:23.000Z</time>
      </trkpt>
      <trkpt lat="47.3241" lon="-2.01631">
        <ele>57</ele>
        <time>2021-06-05T10:45:25.000Z</time>
      </trkpt>
      <trkpt lat="47.32422" lon="-2.01638">
        <ele>56</ele>
        <time>2021-06-05T10:45:27.000Z</time>
      </trkpt>
      <trkpt lat="47.32433" lon="-2.01645">
        <ele>57</ele>
        <time>2021-06-05T10:45:29.000Z</time>
      </trkpt>
      <trkpt lat="47.32444" lon="-2.01652">
        <ele>57</ele>
        <time>2021-06-05T10:45:31.000Z</time>
      </trkpt>
      <trkpt lat="47.32456" lon="-2.0166">
        <ele>56</ele>
        <time>2021-06-05T10:45:33.000Z</time>
      </trkpt>
      <trkpt lat="47.32468" lon="-2.01666">
        <ele>56</ele>
        <time>2021-06-05T10:45:35.000Z</time>
      </trkpt>
      <trkpt lat="47.3248" lon="-2.01673">
        <ele>56</ele>
        <time>2021-06-05T10:45:37.000Z</time>
      </trkpt>
      <trkpt lat="47.32492" lon="-2.0168">
        <ele>57</ele>
        <time>2021-06-05T10:45:39.000Z</time>
      </trkpt>
      <trkpt lat="47.32504" lon="-2.01686">
        <ele>57</ele>
        <time>2021-06-05T10:45:41.000Z</time>
      </trkpt>
      <trkpt lat="47.32516" lon="-2.01694">
        <ele>56</ele>
        <time>2021-06-05T10:45:43.000Z</time>
      </trkpt>
      <trkpt lat="47.32528" lon="-2.01701">
        <ele>56</ele>
        <time>2021-06-05T10:45:45.000Z</time>
      </trkpt>
      <trkpt lat="47.3254" lon="-2.01709">
        <ele>56</ele>
        <time>2021-06-05T10:45:47.000Z</time>
      </trkpt>
      <trkpt lat="47.32551" lon="-2.01715">
        <ele>56</ele>
        <time>2021-06-05T10:45:49.000Z</time>
      </trkpt>
      <trkpt lat="47.32562" lon="-2.01721">
        <ele>56</ele>
        <time>2021-06-05T10:45:51.000Z</time>
      </trkpt>
      <trkpt lat="47.32574" lon="-2.01728">
        <ele>56</ele>
        <time>2021-06-05T10:45:53.000Z</time>
      </trkpt>
      <trkpt lat="47.32585" lon="-2.01735">
        <ele>56</ele>
        <time>2021-06-05T10:45:55.000Z</time>
      </trkpt>
      <trkpt lat="47.32595" lon="-2.01741">
        <ele>56</ele>
        <time>2021-06-05T10:45:57.000Z</time>
      </trkpt>
      <trkpt lat="47.32606" lon="-2.01749">
        <ele>55</ele>
        <time>2021-06-05T10:45:59.000Z</time>
      </trkpt>
      <trkpt lat="47.32616" lon="-2.01759">
        <ele>55</ele>
        <time>2021-06-05T10:46:01.000Z</time>
      </trkpt>
      <trkpt lat="47.32625" lon="-2.0177">
        <ele>55</ele>
        <time>2021-06-05T10:46:03.000Z</time>
      </trkpt>
      <trkpt lat="47.32633" lon="-2.01783">
        <ele>56</ele>
        <time>2021-06-05T10:46:05.000Z</time>
      </trkpt>
      <trkpt lat="47.32639" lon="-2.01799">
        <ele>55</ele>
        <time>2021-06-05T10:46:07.000Z</time>
      </trkpt>
      <trkpt lat="47.32643" lon="-2.01816">
        <ele>55</ele>
        <time>2021-06-05T10:46:09.000Z</time>
      </trkpt>
      <trkpt lat="47.32646" lon="-2.01835">
        <ele>55</ele>
        <time>2021-06-05T10:46:11.000Z</time>
      </trkpt>
      <trkpt lat="47.32648" lon="-2.01854">
        <ele>55</ele>
        <time>2021-06-05T10:46:13.000Z</time>
      </trkpt>
      <trkpt lat="47.3265" lon="-2.01872">
        <ele>55</ele>
        <time>2021-06-05T10:46:15.000Z</time>
      </trkpt>
      <trkpt lat="47.32652" lon="-2.01891">
        <ele>56</ele>
        <time>2021-06-05T10:46:17.000Z</time>
      </trkpt>
      <trkpt lat="47.32654" lon="-2.01911">
        <ele>56</ele>
        <time>2021-06-05T10:46:19.000Z</time>
      </trkpt>
      <trkpt lat="47.32656" lon="-2.01931">
        <ele>56</ele>
        <time>2021-06-05T10:46:21.000Z</time>
      </trkpt>
      <trkpt lat="47.32659" lon="-2.0195">
        <ele>56</ele>
        <time>2021-06-05T10:46:23.000Z</time>
      </trkpt>
      <trkpt lat="47.32661" lon="-2.01969">
        <ele>56</ele>
        <time>2021-06-05T10:46:25.000Z</time>
      </trkpt>
      <trkpt lat="47.32664" lon="-2.01998">
        <ele>56</ele>
        <time>2021-06-05T10:46:28.000Z</time>
      </trkpt>
      <trkpt lat="47.32665" lon="-2.02017">
        <ele>56</ele>
        <time>2021-06-05T10:46:30.000Z</time>
      </trkpt>
      <trkpt lat="47.32667" lon="-2.02035">
        <ele>56</ele>
        <time>2021-06-05T10:46:32.000Z</time>
      </trkpt>
      <trkpt lat="47.32669" lon="-2.02052">
        <ele>56</ele>
        <time>2021-06-05T10:46:34.000Z</time>
      </trkpt>
      <trkpt lat="47.3267" lon="-2.0207">
        <ele>56</ele>
        <time>2021-06-05T10:46:36.000Z</time>
      </trkpt>
      <trkpt lat="47.32673" lon="-2.02088">
        <ele>56</ele>
        <time>2021-06-05T10:46:38.000Z</time>
      </trkpt>
      <trkpt lat="47.32677" lon="-2.02107">
        <ele>57</ele>
        <time>2021-06-05T10:46:40.000Z</time>
      </trkpt>
      <trkpt lat="47.32683" lon="-2.02126">
        <ele>56</ele>
        <time>2021-06-05T10:46:42.000Z</time>
      </trkpt>
      <trkpt lat="47.3269" lon="-2.02143">
        <ele>56</ele>
        <time>2021-06-05T10:46:44.000Z</time>
      </trkpt>
      <trkpt lat="47.32696" lon="-2.0216">
        <ele>55</ele>
        <time>2021-06-05T10:46:46.000Z</time>
      </trkpt>
      <trkpt lat="47.32702" lon="-2.02177">
        <ele>55</ele>
        <time>2021-06-05T10:46:48.000Z</time>
      </trkpt>
      <trkpt lat="47.32707" lon="-2.02193">
        <ele>55</ele>
        <time>2021-06-05T10:46:50.000Z</time>
      </trkpt>
      <trkpt lat="47.32713" lon="-2.0221">
        <ele>55</ele>
        <time>2021-06-05T10:46:52.000Z</time>
      </trkpt>
      <trkpt lat="47.32719" lon="-2.02226">
        <ele>55</ele>
        <time>2021-06-05T10:46:54.000Z</time>
      </trkpt>
      <trkpt lat="47.32725" lon="-2.02242">
        <ele>55</ele>
        <time>2021-06-05T10:46:56.000Z</time>
      </trkpt>
      <trkpt lat="47.32731" lon="-2.02257">
        <ele>55</ele>
        <time>2021-06-05T10:46:58.000Z</time>
      </trkpt>
      <trkpt lat="47.32737" lon="-2.02273">
        <ele>55</ele>
        <time>2021-06-05T10:47:00.000Z</time>
      </trkpt>
      <trkpt lat="47.32743" lon="-2.02291">
        <ele>54</ele>
        <time>2021-06-05T10:47:02.000Z</time>
      </trkpt>
      <trkpt lat="47.32749" lon="-2.02308">
        <ele>54</ele>
        <time>2021-06-05T10:47:04.000Z</time>
      </trkpt>
      <trkpt lat="47.32755" lon="-2.02325">
        <ele>54</ele>
        <time>2021-06-05T10:47:06.000Z</time>
      </trkpt>
      <trkpt lat="47.32761" lon="-2.02342">
        <ele>54</ele>
        <time>2021-06-05T10:47:08.000Z</time>
      </trkpt>
      <trkpt lat="47.32767" lon="-2.0236">
        <ele>53</ele>
        <time>2021-06-05T10:47:10.000Z</time>
      </trkpt>
      <trkpt lat="47.32773" lon="-2.02377">
        <ele>53</ele>
        <time>2021-06-05T10:47:12.000Z</time>
      </trkpt>
      <trkpt lat="47.3278" lon="-2.02395">
        <ele>52</ele>
        <time>2021-06-05T10:47:14.000Z</time>
      </trkpt>
      <trkpt lat="47.32786" lon="-2.02412">
        <ele>52</ele>
        <time>2021-06-05T10:47:16.000Z</time>
      </trkpt>
      <trkpt lat="47.32792" lon="-2.02429">
        <ele>52</ele>
        <time>2021-06-05T10:47:18.000Z</time>
      </trkpt>
      <trkpt lat="47.32799" lon="-2.02446">
        <ele>53</ele>
        <time>2021-06-05T10:47:20.000Z</time>
      </trkpt>
      <trkpt lat="47.32806" lon="-2.02461">
        <ele>53</ele>
        <time>2021-06-05T10:47:22.000Z</time>
      </trkpt>
      <trkpt lat="47.32814" lon="-2.02476">
        <ele>53</ele>
        <time>2021-06-05T10:47:24.000Z</time>
      </trkpt>
      <trkpt lat="47.32822" lon="-2.02488">
        <ele>53</ele>
        <time>2021-06-05T10:47:26.000Z</time>
      </trkpt>
      <trkpt lat="47.3283" lon="-2.02499">
        <ele>54</ele>
        <time>2021-06-05T10:47:28.000Z</time>
      </trkpt>
      <trkpt lat="47.32838" lon="-2.02509">
        <ele>54</ele>
        <time>2021-06-05T10:47:30.000Z</time>
      </trkpt>
      <trkpt lat="47.32848" lon="-2.02519">
        <ele>54</ele>
        <time>2021-06-05T10:47:33.000Z</time>
      </trkpt>
      <trkpt lat="47.32855" lon="-2.02529">
        <ele>55</ele>
        <time>2021-06-05T10:47:50.000Z</time>
      </trkpt>
      <trkpt lat="47.32857" lon="-2.02543">
        <ele>55</ele>
        <time>2021-06-05T10:47:53.000Z</time>
      </trkpt>
      <trkpt lat="47.32852" lon="-2.02556">
        <ele>55</ele>
        <time>2021-06-05T10:47:55.000Z</time>
      </trkpt>
      <trkpt lat="47.32846" lon="-2.02571">
        <ele>54</ele>
        <time>2021-06-05T10:47:57.000Z</time>
      </trkpt>
      <trkpt lat="47.3284" lon="-2.02585">
        <ele>54</ele>
        <time>2021-06-05T10:47:59.000Z</time>
      </trkpt>
      <trkpt lat="47.32833" lon="-2.026">
        <ele>53</ele>
        <time>2021-06-05T10:48:01.000Z</time>
      </trkpt>
      <trkpt lat="47.32825" lon="-2.02615">
        <ele>53</ele>
        <time>2021-06-05T10:48:03.000Z</time>
      </trkpt>
      <trkpt lat="47.32817" lon="-2.0263">
        <ele>52</ele>
        <time>2021-06-05T10:48:05.000Z</time>
      </trkpt>
      <trkpt lat="47.32809" lon="-2.02646">
        <ele>52</ele>
        <time>2021-06-05T10:48:07.000Z</time>
      </trkpt>
      <trkpt lat="47.328" lon="-2.02661">
        <ele>52</ele>
        <time>2021-06-05T10:48:09.000Z</time>
      </trkpt>
      <trkpt lat="47.32792" lon="-2.02675">
        <ele>52</ele>
        <time>2021-06-05T10:48:11.000Z</time>
      </trkpt>
      <trkpt lat="47.32783" lon="-2.02689">
        <ele>52</ele>
        <time>2021-06-05T10:48:13.000Z</time>
      </trkpt>
      <trkpt lat="47.32775" lon="-2.02703">
        <ele>52</ele>
        <time>2021-06-05T10:48:15.000Z</time>
      </trkpt>
      <trkpt lat="47.32767" lon="-2.02716">
        <ele>52</ele>
        <time>2021-06-05T10:48:17.000Z</time>
      </trkpt>
      <trkpt lat="47.32759" lon="-2.02729">
        <ele>53</ele>
        <time>2021-06-05T10:48:19.000Z</time>
      </trkpt>
      <trkpt lat="47.32751" lon="-2.02742">
        <ele>53</ele>
        <time>2021-06-05T10:48:21.000Z</time>
      </trkpt>
      <trkpt lat="47.32742" lon="-2.02756">
        <ele>52</ele>
        <time>2021-06-05T10:48:23.000Z</time>
      </trkpt>
      <trkpt lat="47.32734" lon="-2.02771">
        <ele>52</ele>
        <time>2021-06-05T10:48:25.000Z</time>
      </trkpt>
      <trkpt lat="47.32726" lon="-2.02785">
        <ele>52</ele>
        <time>2021-06-05T10:48:27.000Z</time>
      </trkpt>
      <trkpt lat="47.32717" lon="-2.02799">
        <ele>52</ele>
        <time>2021-06-05T10:48:29.000Z</time>
      </trkpt>
      <trkpt lat="47.32709" lon="-2.02814">
        <ele>53</ele>
        <time>2021-06-05T10:48:31.000Z</time>
      </trkpt>
      <trkpt lat="47.32702" lon="-2.02828">
        <ele>53</ele>
        <time>2021-06-05T10:48:33.000Z</time>
      </trkpt>
      <trkpt lat="47.32695" lon="-2.02843">
        <ele>53</ele>
        <time>2021-06-05T10:48:35.000Z</time>
      </trkpt>
      <trkpt lat="47.32688" lon="-2.02859">
        <ele>53</ele>
        <time>2021-06-05T10:48:37.000Z</time>
      </trkpt>
      <trkpt lat="47.32682" lon="-2.02876">
        <ele>53</ele>
        <time>2021-06-05T10:48:39.000Z</time>
      </trkpt>
      <trkpt lat="47.32675" lon="-2.02892">
        <ele>53</ele>
        <time>2021-06-05T10:48:41.000Z</time>
      </trkpt>
      <trkpt lat="47.3267" lon="-2.02909">
        <ele>53</ele>
        <time>2021-06-05T10:48:43.000Z</time>
      </trkpt>
      <trkpt lat="47.32664" lon="-2.02925">
        <ele>53</ele>
        <time>2021-06-05T10:48:45.000Z</time>
      </trkpt>
      <trkpt lat="47.32658" lon="-2.0294">
        <ele>53</ele>
        <time>2021-06-05T10:48:47.000Z</time>
      </trkpt>
      <trkpt lat="47.32652" lon="-2.02955">
        <ele>53</ele>
        <time>2021-06-05T10:48:49.000Z</time>
      </trkpt>
      <trkpt lat="47.32645" lon="-2.02971">
        <ele>52</ele>
        <time>2021-06-05T10:48:51.000Z</time>
      </trkpt>
      <trkpt lat="47.3264" lon="-2.02987">
        <ele>52</ele>
        <time>2021-06-05T10:48:53.000Z</time>
      </trkpt>
      <trkpt lat="47.32633" lon="-2.03003">
        <ele>52</ele>
        <time>2021-06-05T10:48:55.000Z</time>
      </trkpt>
      <trkpt lat="47.32627" lon="-2.03019">
        <ele>52</ele>
        <time>2021-06-05T10:48:57.000Z</time>
      </trkpt>
      <trkpt lat="47.32621" lon="-2.03034">
        <ele>52</ele>
        <time>2021-06-05T10:48:59.000Z</time>
      </trkpt>
      <trkpt lat="47.32614" lon="-2.03051">
        <ele>52</ele>
        <time>2021-06-05T10:49:01.000Z</time>
      </trkpt>
      <trkpt lat="47.32609" lon="-2.03066">
        <ele>52</ele>
        <time>2021-06-05T10:49:03.000Z</time>
      </trkpt>
      <trkpt lat="47.32603" lon="-2.03082">
        <ele>52</ele>
        <time>2021-06-05T10:49:05.000Z</time>
      </trkpt>
      <trkpt lat="47.32598" lon="-2.03098">
        <ele>52</ele>
        <time>2021-06-05T10:49:07.000Z</time>
      </trkpt>
      <trkpt lat="47.32593" lon="-2.03115">
        <ele>52</ele>
        <time>2021-06-05T10:49:09.000Z</time>
      </trkpt>
      <trkpt lat="47.32589" lon="-2.03132">
        <ele>51</ele>
        <time>2021-06-05T10:49:11.000Z</time>
      </trkpt>
      <trkpt lat="47.32585" lon="-2.0315">
        <ele>51</ele>
        <time>2021-06-05T10:49:13.000Z</time>
      </trkpt>
      <trkpt lat="47.32582" lon="-2.03167">
        <ele>51</ele>
        <time>2021-06-05T10:49:15.000Z</time>
      </trkpt>
      <trkpt lat="47.32579" lon="-2.03185">
        <ele>52</ele>
        <time>2021-06-05T10:49:17.000Z</time>
      </trkpt>
      <trkpt lat="47.32576" lon="-2.03203">
        <ele>51</ele>
        <time>2021-06-05T10:49:19.000Z</time>
      </trkpt>
      <trkpt lat="47.32573" lon="-2.03221">
        <ele>52</ele>
        <time>2021-06-05T10:49:21.000Z</time>
      </trkpt>
      <trkpt lat="47.3257" lon="-2.03239">
        <ele>52</ele>
        <time>2021-06-05T10:49:23.000Z</time>
      </trkpt>
      <trkpt lat="47.32567" lon="-2.03257">
        <ele>52</ele>
        <time>2021-06-05T10:49:25.000Z</time>
      </trkpt>
      <trkpt lat="47.32564" lon="-2.03275">
        <ele>52</ele>
        <time>2021-06-05T10:49:27.000Z</time>
      </trkpt>
      <trkpt lat="47.32561" lon="-2.03293">
        <ele>52</ele>
        <time>2021-06-05T10:49:29.000Z</time>
      </trkpt>
      <trkpt lat="47.32558" lon="-2.0331">
        <ele>52</ele>
        <time>2021-06-05T10:49:31.000Z</time>
      </trkpt>
      <trkpt lat="47.32554" lon="-2.03328">
        <ele>53</ele>
        <time>2021-06-05T10:49:33.000Z</time>
      </trkpt>
      <trkpt lat="47.32551" lon="-2.03346">
        <ele>53</ele>
        <time>2021-06-05T10:49:35.000Z</time>
      </trkpt>
      <trkpt lat="47.32549" lon="-2.03364">
        <ele>54</ele>
        <time>2021-06-05T10:49:37.000Z</time>
      </trkpt>
      <trkpt lat="47.32546" lon="-2.03382">
        <ele>55</ele>
        <time>2021-06-05T10:49:39.000Z</time>
      </trkpt>
      <trkpt lat="47.32545" lon="-2.03401">
        <ele>55</ele>
        <time>2021-06-05T10:49:41.000Z</time>
      </trkpt>
      <trkpt lat="47.32543" lon="-2.0342">
        <ele>55</ele>
        <time>2021-06-05T10:49:43.000Z</time>
      </trkpt>
      <trkpt lat="47.32542" lon="-2.03439">
        <ele>54</ele>
        <time>2021-06-05T10:49:45.000Z</time>
      </trkpt>
      <trkpt lat="47.3254" lon="-2.03458">
        <ele>54</ele>
        <time>2021-06-05T10:49:47.000Z</time>
      </trkpt>
      <trkpt lat="47.3254" lon="-2.03476">
        <ele>54</ele>
        <time>2021-06-05T10:49:49.000Z</time>
      </trkpt>
      <trkpt lat="47.32539" lon="-2.03495">
        <ele>54</ele>
        <time>2021-06-05T10:49:51.000Z</time>
      </trkpt>
      <trkpt lat="47.32538" lon="-2.03513">
        <ele>54</ele>
        <time>2021-06-05T10:49:53.000Z</time>
      </trkpt>
      <trkpt lat="47.32537" lon="-2.03531">
        <ele>55</ele>
        <time>2021-06-05T10:49:55.000Z</time>
      </trkpt>
      <trkpt lat="47.32536" lon="-2.03549">
        <ele>55</ele>
        <time>2021-06-05T10:49:57.000Z</time>
      </trkpt>
      <trkpt lat="47.32536" lon="-2.03568">
        <ele>55</ele>
        <time>2021-06-05T10:49:59.000Z</time>
      </trkpt>
      <trkpt lat="47.32535" lon="-2.03586">
        <ele>55</ele>
        <time>2021-06-05T10:50:01.000Z</time>
      </trkpt>
      <trkpt lat="47.32534" lon="-2.03605">
        <ele>55</ele>
        <time>2021-06-05T10:50:03.000Z</time>
      </trkpt>
      <trkpt lat="47.32533" lon="-2.03623">
        <ele>55</ele>
        <time>2021-06-05T10:50:05.000Z</time>
      </trkpt>
      <trkpt lat="47.32532" lon="-2.03641">
        <ele>55</ele>
        <time>2021-06-05T10:50:07.000Z</time>
      </trkpt>
      <trkpt lat="47.32531" lon="-2.03659">
        <ele>55</ele>
        <time>2021-06-05T10:50:09.000Z</time>
      </trkpt>
      <trkpt lat="47.32529" lon="-2.03676">
        <ele>55</ele>
        <time>2021-06-05T10:50:11.000Z</time>
      </trkpt>
      <trkpt lat="47.32528" lon="-2.03694">
        <ele>55</ele>
        <time>2021-06-05T10:50:13.000Z</time>
      </trkpt>
      <trkpt lat="47.32526" lon="-2.03712">
        <ele>56</ele>
        <time>2021-06-05T10:50:15.000Z</time>
      </trkpt>
      <trkpt lat="47.32524" lon="-2.03729">
        <ele>56</ele>
        <time>2021-06-05T10:50:17.000Z</time>
      </trkpt>
      <trkpt lat="47.32521" lon="-2.03746">
        <ele>56</ele>
        <time>2021-06-05T10:50:19.000Z</time>
      </trkpt>
      <trkpt lat="47.32518" lon="-2.03763">
        <ele>56</ele>
        <time>2021-06-05T10:50:21.000Z</time>
      </trkpt>
      <trkpt lat="47.32513" lon="-2.03779">
        <ele>56</ele>
        <time>2021-06-05T10:50:23.000Z</time>
      </trkpt>
      <trkpt lat="47.32508" lon="-2.03794">
        <ele>56</ele>
        <time>2021-06-05T10:50:25.000Z</time>
      </trkpt>
      <trkpt lat="47.32501" lon="-2.03809">
        <ele>56</ele>
        <time>2021-06-05T10:50:27.000Z</time>
      </trkpt>
      <trkpt lat="47.32494" lon="-2.03824">
        <ele>55</ele>
        <time>2021-06-05T10:50:29.000Z</time>
      </trkpt>
      <trkpt lat="47.32486" lon="-2.03837">
        <ele>56</ele>
        <time>2021-06-05T10:50:31.000Z</time>
      </trkpt>
      <trkpt lat="47.32477" lon="-2.0385">
        <ele>56</ele>
        <time>2021-06-05T10:50:33.000Z</time>
      </trkpt>
      <trkpt lat="47.32468" lon="-2.03862">
        <ele>56</ele>
        <time>2021-06-05T10:50:35.000Z</time>
      </trkpt>
      <trkpt lat="47.32459" lon="-2.03874">
        <ele>56</ele>
        <time>2021-06-05T10:50:37.000Z</time>
      </trkpt>
      <trkpt lat="47.3245" lon="-2.03886">
        <ele>56</ele>
        <time>2021-06-05T10:50:39.000Z</time>
      </trkpt>
      <trkpt lat="47.32441" lon="-2.03899">
        <ele>57</ele>
        <time>2021-06-05T10:50:41.000Z</time>
      </trkpt>
      <trkpt lat="47.32431" lon="-2.0391">
        <ele>57</ele>
        <time>2021-06-05T10:50:43.000Z</time>
      </trkpt>
      <trkpt lat="47.32422" lon="-2.03923">
        <ele>56</ele>
        <time>2021-06-05T10:50:45.000Z</time>
      </trkpt>
      <trkpt lat="47.32413" lon="-2.03934">
        <ele>56</ele>
        <time>2021-06-05T10:50:47.000Z</time>
      </trkpt>
      <trkpt lat="47.32403" lon="-2.03946">
        <ele>56</ele>
        <time>2021-06-05T10:50:49.000Z</time>
      </trkpt>
      <trkpt lat="47.32394" lon="-2.03957">
        <ele>56</ele>
        <time>2021-06-05T10:50:51.000Z</time>
      </trkpt>
      <trkpt lat="47.32386" lon="-2.03967">
        <ele>56</ele>
        <time>2021-06-05T10:50:53.000Z</time>
      </trkpt>
      <trkpt lat="47.32377" lon="-2.03978">
        <ele>56</ele>
        <time>2021-06-05T10:50:55.000Z</time>
      </trkpt>
      <trkpt lat="47.32369" lon="-2.03989">
        <ele>57</ele>
        <time>2021-06-05T10:50:57.000Z</time>
      </trkpt>
      <trkpt lat="47.32359" lon="-2.04">
        <ele>56</ele>
        <time>2021-06-05T10:50:59.000Z</time>
      </trkpt>
      <trkpt lat="47.32349" lon="-2.04011">
        <ele>56</ele>
        <time>2021-06-05T10:51:01.000Z</time>
      </trkpt>
      <trkpt lat="47.3234" lon="-2.04023">
        <ele>57</ele>
        <time>2021-06-05T10:51:03.000Z</time>
      </trkpt>
      <trkpt lat="47.32331" lon="-2.04034">
        <ele>57</ele>
        <time>2021-06-05T10:51:05.000Z</time>
      </trkpt>
      <trkpt lat="47.32322" lon="-2.04046">
        <ele>57</ele>
        <time>2021-06-05T10:51:07.000Z</time>
      </trkpt>
      <trkpt lat="47.32313" lon="-2.04057">
        <ele>57</ele>
        <time>2021-06-05T10:51:09.000Z</time>
      </trkpt>
      <trkpt lat="47.32304" lon="-2.04069">
        <ele>57</ele>
        <time>2021-06-05T10:51:11.000Z</time>
      </trkpt>
      <trkpt lat="47.32295" lon="-2.0408">
        <ele>57</ele>
        <time>2021-06-05T10:51:13.000Z</time>
      </trkpt>
      <trkpt lat="47.32285" lon="-2.04091">
        <ele>57</ele>
        <time>2021-06-05T10:51:15.000Z</time>
      </trkpt>
      <trkpt lat="47.32276" lon="-2.04102">
        <ele>56</ele>
        <time>2021-06-05T10:51:17.000Z</time>
      </trkpt>
      <trkpt lat="47.32267" lon="-2.04113">
        <ele>57</ele>
        <time>2021-06-05T10:51:19.000Z</time>
      </trkpt>
      <trkpt lat="47.32257" lon="-2.04125">
        <ele>57</ele>
        <time>2021-06-05T10:51:21.000Z</time>
      </trkpt>
      <trkpt lat="47.32248" lon="-2.04136">
        <ele>57</ele>
        <time>2021-06-05T10:51:23.000Z</time>
      </trkpt>
      <trkpt lat="47.3224" lon="-2.04147">
        <ele>57</ele>
        <time>2021-06-05T10:51:25.000Z</time>
      </trkpt>
      <trkpt lat="47.32232" lon="-2.04158">
        <ele>57</ele>
        <time>2021-06-05T10:51:27.000Z</time>
      </trkpt>
      <trkpt lat="47.32225" lon="-2.04171">
        <ele>57</ele>
        <time>2021-06-05T10:51:29.000Z</time>
      </trkpt>
      <trkpt lat="47.32217" lon="-2.04183">
        <ele>57</ele>
        <time>2021-06-05T10:51:31.000Z</time>
      </trkpt>
      <trkpt lat="47.3221" lon="-2.04196">
        <ele>57</ele>
        <time>2021-06-05T10:51:33.000Z</time>
      </trkpt>
      <trkpt lat="47.32204" lon="-2.0421">
        <ele>57</ele>
        <time>2021-06-05T10:51:35.000Z</time>
      </trkpt>
      <trkpt lat="47.32198" lon="-2.04223">
        <ele>57</ele>
        <time>2021-06-05T10:51:37.000Z</time>
      </trkpt>
      <trkpt lat="47.32192" lon="-2.04237">
        <ele>57</ele>
        <time>2021-06-05T10:51:39.000Z</time>
      </trkpt>
      <trkpt lat="47.32187" lon="-2.04251">
        <ele>58</ele>
        <time>2021-06-05T10:51:41.000Z</time>
      </trkpt>
      <trkpt lat="47.32182" lon="-2.04266">
        <ele>58</ele>
        <time>2021-06-05T10:51:43.000Z</time>
      </trkpt>
      <trkpt lat="47.32177" lon="-2.04281">
        <ele>58</ele>
        <time>2021-06-05T10:51:45.000Z</time>
      </trkpt>
      <trkpt lat="47.32172" lon="-2.04295">
        <ele>58</ele>
        <time>2021-06-05T10:51:47.000Z</time>
      </trkpt>
      <trkpt lat="47.32167" lon="-2.0431">
        <ele>58</ele>
        <time>2021-06-05T10:51:49.000Z</time>
      </trkpt>
      <trkpt lat="47.32162" lon="-2.04324">
        <ele>58</ele>
        <time>2021-06-05T10:51:51.000Z</time>
      </trkpt>
      <trkpt lat="47.32157" lon="-2.04338">
        <ele>58</ele>
        <time>2021-06-05T10:51:53.000Z</time>
      </trkpt>
      <trkpt lat="47.32152" lon="-2.04352">
        <ele>58</ele>
        <time>2021-06-05T10:51:55.000Z</time>
      </trkpt>
      <trkpt lat="47.32147" lon="-2.04366">
        <ele>58</ele>
        <time>2021-06-05T10:51:57.000Z</time>
      </trkpt>
      <trkpt lat="47.32142" lon="-2.04381">
        <ele>59</ele>
        <time>2021-06-05T10:51:59.000Z</time>
      </trkpt>
      <trkpt lat="47.32137" lon="-2.04395">
        <ele>59</ele>
        <time>2021-06-05T10:52:01.000Z</time>
      </trkpt>
      <trkpt lat="47.32132" lon="-2.0441">
        <ele>59</ele>
        <time>2021-06-05T10:52:03.000Z</time>
      </trkpt>
      <trkpt lat="47.32127" lon="-2.04424">
        <ele>60</ele>
        <time>2021-06-05T10:52:05.000Z</time>
      </trkpt>
      <trkpt lat="47.32122" lon="-2.04438">
        <ele>60</ele>
        <time>2021-06-05T10:52:07.000Z</time>
      </trkpt>
      <trkpt lat="47.32117" lon="-2.04451">
        <ele>60</ele>
        <time>2021-06-05T10:52:09.000Z</time>
      </trkpt>
      <trkpt lat="47.32112" lon="-2.04464">
        <ele>61</ele>
        <time>2021-06-05T10:52:11.000Z</time>
      </trkpt>
      <trkpt lat="47.32106" lon="-2.04477">
        <ele>61</ele>
        <time>2021-06-05T10:52:13.000Z</time>
      </trkpt>
      <trkpt lat="47.321" lon="-2.0449">
        <ele>62</ele>
        <time>2021-06-05T10:52:15.000Z</time>
      </trkpt>
      <trkpt lat="47.32094" lon="-2.04503">
        <ele>62</ele>
        <time>2021-06-05T10:52:17.000Z</time>
      </trkpt>
      <trkpt lat="47.32088" lon="-2.04514">
        <ele>62</ele>
        <time>2021-06-05T10:52:19.000Z</time>
      </trkpt>
      <trkpt lat="47.32081" lon="-2.04526">
        <ele>63</ele>
        <time>2021-06-05T10:52:21.000Z</time>
      </trkpt>
      <trkpt lat="47.32074" lon="-2.04537">
        <ele>63</ele>
        <time>2021-06-05T10:52:23.000Z</time>
      </trkpt>
      <trkpt lat="47.32066" lon="-2.04547">
        <ele>63</ele>
        <time>2021-06-05T10:52:25.000Z</time>
      </trkpt>
      <trkpt lat="47.32058" lon="-2.04557">
        <ele>63</ele>
        <time>2021-06-05T10:52:27.000Z</time>
      </trkpt>
      <trkpt lat="47.3205" lon="-2.04566">
        <ele>63</ele>
        <time>2021-06-05T10:52:29.000Z</time>
      </trkpt>
      <trkpt lat="47.32042" lon="-2.04574">
        <ele>63</ele>
        <time>2021-06-05T10:52:31.000Z</time>
      </trkpt>
      <trkpt lat="47.32033" lon="-2.04582">
        <ele>63</ele>
        <time>2021-06-05T10:52:33.000Z</time>
      </trkpt>
      <trkpt lat="47.32025" lon="-2.04591">
        <ele>63</ele>
        <time>2021-06-05T10:52:35.000Z</time>
      </trkpt>
      <trkpt lat="47.32017" lon="-2.046">
        <ele>63</ele>
        <time>2021-06-05T10:52:37.000Z</time>
      </trkpt>
      <trkpt lat="47.32008" lon="-2.04609">
        <ele>63</ele>
        <time>2021-06-05T10:52:39.000Z</time>
      </trkpt>
      <trkpt lat="47.32" lon="-2.04618">
        <ele>64</ele>
        <time>2021-06-05T10:52:41.000Z</time>
      </trkpt>
      <trkpt lat="47.31992" lon="-2.04628">
        <ele>63</ele>
        <time>2021-06-05T10:52:43.000Z</time>
      </trkpt>
      <trkpt lat="47.31984" lon="-2.04639">
        <ele>63</ele>
        <time>2021-06-05T10:52:45.000Z</time>
      </trkpt>
      <trkpt lat="47.31975" lon="-2.0465">
        <ele>62</ele>
        <time>2021-06-05T10:52:47.000Z</time>
      </trkpt>
      <trkpt lat="47.31967" lon="-2.04662">
        <ele>62</ele>
        <time>2021-06-05T10:52:49.000Z</time>
      </trkpt>
      <trkpt lat="47.31959" lon="-2.04675">
        <ele>61</ele>
        <time>2021-06-05T10:52:51.000Z</time>
      </trkpt>
      <trkpt lat="47.31951" lon="-2.04689">
        <ele>61</ele>
        <time>2021-06-05T10:52:53.000Z</time>
      </trkpt>
      <trkpt lat="47.31943" lon="-2.04704">
        <ele>60</ele>
        <time>2021-06-05T10:52:55.000Z</time>
      </trkpt>
      <trkpt lat="47.31936" lon="-2.04719">
        <ele>60</ele>
        <time>2021-06-05T10:52:57.000Z</time>
      </trkpt>
      <trkpt lat="47.3193" lon="-2.04736">
        <ele>59</ele>
        <time>2021-06-05T10:52:59.000Z</time>
      </trkpt>
      <trkpt lat="47.31925" lon="-2.04754">
        <ele>59</ele>
        <time>2021-06-05T10:53:01.000Z</time>
      </trkpt>
      <trkpt lat="47.3192" lon="-2.04773">
        <ele>58</ele>
        <time>2021-06-05T10:53:03.000Z</time>
      </trkpt>
      <trkpt lat="47.31916" lon="-2.04792">
        <ele>57</ele>
        <time>2021-06-05T10:53:05.000Z</time>
      </trkpt>
      <trkpt lat="47.31912" lon="-2.04811">
        <ele>57</ele>
        <time>2021-06-05T10:53:07.000Z</time>
      </trkpt>
      <trkpt lat="47.31907" lon="-2.04829">
        <ele>56</ele>
        <time>2021-06-05T10:53:09.000Z</time>
      </trkpt>
      <trkpt lat="47.31905" lon="-2.04849">
        <ele>56</ele>
        <time>2021-06-05T10:53:11.000Z</time>
      </trkpt>
      <trkpt lat="47.31904" lon="-2.04868">
        <ele>56</ele>
        <time>2021-06-05T10:53:13.000Z</time>
      </trkpt>
      <trkpt lat="47.31907" lon="-2.04885">
        <ele>56</ele>
        <time>2021-06-05T10:53:15.000Z</time>
      </trkpt>
      <trkpt lat="47.3191" lon="-2.04903">
        <ele>56</ele>
        <time>2021-06-05T10:53:17.000Z</time>
      </trkpt>
      <trkpt lat="47.31906" lon="-2.0492">
        <ele>56</ele>
        <time>2021-06-05T10:53:19.000Z</time>
      </trkpt>
      <trkpt lat="47.31901" lon="-2.04936">
        <ele>56</ele>
        <time>2021-06-05T10:53:21.000Z</time>
      </trkpt>
      <trkpt lat="47.31902" lon="-2.04956">
        <ele>55</ele>
        <time>2021-06-05T10:53:23.000Z</time>
      </trkpt>
      <trkpt lat="47.31904" lon="-2.04975">
        <ele>55</ele>
        <time>2021-06-05T10:53:25.000Z</time>
      </trkpt>
      <trkpt lat="47.31906" lon="-2.04993">
        <ele>55</ele>
        <time>2021-06-05T10:53:27.000Z</time>
      </trkpt>
      <trkpt lat="47.31908" lon="-2.0501">
        <ele>55</ele>
        <time>2021-06-05T10:53:29.000Z</time>
      </trkpt>
      <trkpt lat="47.31911" lon="-2.05026">
        <ele>55</ele>
        <time>2021-06-05T10:53:31.000Z</time>
      </trkpt>
      <trkpt lat="47.31913" lon="-2.05044">
        <ele>55</ele>
        <time>2021-06-05T10:53:33.000Z</time>
      </trkpt>
      <trkpt lat="47.31915" lon="-2.05062">
        <ele>56</ele>
        <time>2021-06-05T10:53:35.000Z</time>
      </trkpt>
      <trkpt lat="47.31916" lon="-2.0508">
        <ele>55</ele>
        <time>2021-06-05T10:53:37.000Z</time>
      </trkpt>
      <trkpt lat="47.31917" lon="-2.05099">
        <ele>55</ele>
        <time>2021-06-05T10:53:39.000Z</time>
      </trkpt>
      <trkpt lat="47.31918" lon="-2.05118">
        <ele>55</ele>
        <time>2021-06-05T10:53:41.000Z</time>
      </trkpt>
      <trkpt lat="47.31918" lon="-2.05137">
        <ele>55</ele>
        <time>2021-06-05T10:53:43.000Z</time>
      </trkpt>
      <trkpt lat="47.31918" lon="-2.05156">
        <ele>55</ele>
        <time>2021-06-05T10:53:45.000Z</time>
      </trkpt>
      <trkpt lat="47.31918" lon="-2.05175">
        <ele>55</ele>
        <time>2021-06-05T10:53:47.000Z</time>
      </trkpt>
      <trkpt lat="47.31916" lon="-2.05193">
        <ele>54</ele>
        <time>2021-06-05T10:53:49.000Z</time>
      </trkpt>
      <trkpt lat="47.31912" lon="-2.0521">
        <ele>54</ele>
        <time>2021-06-05T10:53:51.000Z</time>
      </trkpt>
      <trkpt lat="47.31909" lon="-2.05229">
        <ele>54</ele>
        <time>2021-06-05T10:53:53.000Z</time>
      </trkpt>
      <trkpt lat="47.31906" lon="-2.05248">
        <ele>54</ele>
        <time>2021-06-05T10:53:55.000Z</time>
      </trkpt>
      <trkpt lat="47.31902" lon="-2.05266">
        <ele>54</ele>
        <time>2021-06-05T10:53:57.000Z</time>
      </trkpt>
      <trkpt lat="47.319" lon="-2.05285">
        <ele>53</ele>
        <time>2021-06-05T10:53:59.000Z</time>
      </trkpt>
      <trkpt lat="47.31897" lon="-2.05305">
        <ele>53</ele>
        <time>2021-06-05T10:54:01.000Z</time>
      </trkpt>
      <trkpt lat="47.31894" lon="-2.05324">
        <ele>53</ele>
        <time>2021-06-05T10:54:03.000Z</time>
      </trkpt>
      <trkpt lat="47.31891" lon="-2.05343">
        <ele>53</ele>
        <time>2021-06-05T10:54:05.000Z</time>
      </trkpt>
      <trkpt lat="47.31887" lon="-2.05362">
        <ele>54</ele>
        <time>2021-06-05T10:54:07.000Z</time>
      </trkpt>
      <trkpt lat="47.31884" lon="-2.05381">
        <ele>54</ele>
        <time>2021-06-05T10:54:09.000Z</time>
      </trkpt>
      <trkpt lat="47.31881" lon="-2.05401">
        <ele>53</ele>
        <time>2021-06-05T10:54:11.000Z</time>
      </trkpt>
      <trkpt lat="47.31878" lon="-2.05421">
        <ele>53</ele>
        <time>2021-06-05T10:54:13.000Z</time>
      </trkpt>
      <trkpt lat="47.31875" lon="-2.0544">
        <ele>53</ele>
        <time>2021-06-05T10:54:15.000Z</time>
      </trkpt>
      <trkpt lat="47.31872" lon="-2.05458">
        <ele>53</ele>
        <time>2021-06-05T10:54:17.000Z</time>
      </trkpt>
      <trkpt lat="47.31869" lon="-2.05477">
        <ele>53</ele>
        <time>2021-06-05T10:54:19.000Z</time>
      </trkpt>
      <trkpt lat="47.31866" lon="-2.05495">
        <ele>54</ele>
        <time>2021-06-05T10:54:21.000Z</time>
      </trkpt>
      <trkpt lat="47.31863" lon="-2.05513">
        <ele>53</ele>
        <time>2021-06-05T10:54:23.000Z</time>
      </trkpt>
      <trkpt lat="47.31859" lon="-2.05531">
        <ele>53</ele>
        <time>2021-06-05T10:54:25.000Z</time>
      </trkpt>
      <trkpt lat="47.31856" lon="-2.0555">
        <ele>53</ele>
        <time>2021-06-05T10:54:27.000Z</time>
      </trkpt>
      <trkpt lat="47.31853" lon="-2.05568">
        <ele>53</ele>
        <time>2021-06-05T10:54:29.000Z</time>
      </trkpt>
      <trkpt lat="47.3185" lon="-2.05586">
        <ele>53</ele>
        <time>2021-06-05T10:54:31.000Z</time>
      </trkpt>
      <trkpt lat="47.31846" lon="-2.05605">
        <ele>54</ele>
        <time>2021-06-05T10:54:33.000Z</time>
      </trkpt>
      <trkpt lat="47.31843" lon="-2.05624">
        <ele>54</ele>
        <time>2021-06-05T10:54:35.000Z</time>
      </trkpt>
      <trkpt lat="47.3184" lon="-2.05641">
        <ele>53</ele>
        <time>2021-06-05T10:54:37.000Z</time>
      </trkpt>
      <trkpt lat="47.31837" lon="-2.05659">
        <ele>53</ele>
        <time>2021-06-05T10:54:39.000Z</time>
      </trkpt>
      <trkpt lat="47.31834" lon="-2.05678">
        <ele>53</ele>
        <time>2021-06-05T10:54:41.000Z</time>
      </trkpt>
      <trkpt lat="47.31831" lon="-2.05695">
        <ele>53</ele>
        <time>2021-06-05T10:54:43.000Z</time>
      </trkpt>
      <trkpt lat="47.31828" lon="-2.05713">
        <ele>53</ele>
        <time>2021-06-05T10:54:45.000Z</time>
      </trkpt>
      <trkpt lat="47.31825" lon="-2.05732">
        <ele>53</ele>
        <time>2021-06-05T10:54:47.000Z</time>
      </trkpt>
      <trkpt lat="47.31822" lon="-2.0575">
        <ele>53</ele>
        <time>2021-06-05T10:54:49.000Z</time>
      </trkpt>
      <trkpt lat="47.31819" lon="-2.05768">
        <ele>53</ele>
        <time>2021-06-05T10:54:51.000Z</time>
      </trkpt>
      <trkpt lat="47.31817" lon="-2.05785">
        <ele>53</ele>
        <time>2021-06-05T10:54:53.000Z</time>
      </trkpt>
      <trkpt lat="47.31814" lon="-2.05803">
        <ele>54</ele>
        <time>2021-06-05T10:54:55.000Z</time>
      </trkpt>
      <trkpt lat="47.31811" lon="-2.05821">
        <ele>54</ele>
        <time>2021-06-05T10:54:57.000Z</time>
      </trkpt>
      <trkpt lat="47.31808" lon="-2.05838">
        <ele>54</ele>
        <time>2021-06-05T10:54:59.000Z</time>
      </trkpt>
      <trkpt lat="47.31805" lon="-2.05856">
        <ele>54</ele>
        <time>2021-06-05T10:55:01.000Z</time>
      </trkpt>
      <trkpt lat="47.31801" lon="-2.05874">
        <ele>54</ele>
        <time>2021-06-05T10:55:03.000Z</time>
      </trkpt>
      <trkpt lat="47.31798" lon="-2.05891">
        <ele>54</ele>
        <time>2021-06-05T10:55:05.000Z</time>
      </trkpt>
      <trkpt lat="47.31796" lon="-2.0591">
        <ele>54</ele>
        <time>2021-06-05T10:55:07.000Z</time>
      </trkpt>
      <trkpt lat="47.31793" lon="-2.05928">
        <ele>53</ele>
        <time>2021-06-05T10:55:09.000Z</time>
      </trkpt>
      <trkpt lat="47.3179" lon="-2.05945">
        <ele>53</ele>
        <time>2021-06-05T10:55:11.000Z</time>
      </trkpt>
      <trkpt lat="47.31787" lon="-2.05963">
        <ele>53</ele>
        <time>2021-06-05T10:55:13.000Z</time>
      </trkpt>
      <trkpt lat="47.31783" lon="-2.0598">
        <ele>53</ele>
        <time>2021-06-05T10:55:15.000Z</time>
      </trkpt>
      <trkpt lat="47.3178" lon="-2.05996">
        <ele>53</ele>
        <time>2021-06-05T10:55:17.000Z</time>
      </trkpt>
      <trkpt lat="47.31772" lon="-2.0601">
        <ele>53</ele>
        <time>2021-06-05T10:55:19.000Z</time>
      </trkpt>
      <trkpt lat="47.31763" lon="-2.06022">
        <ele>53</ele>
        <time>2021-06-05T10:55:21.000Z</time>
      </trkpt>
      <trkpt lat="47.31755" lon="-2.06037">
        <ele>53</ele>
        <time>2021-06-05T10:55:23.000Z</time>
      </trkpt>
      <trkpt lat="47.31748" lon="-2.06052">
        <ele>53</ele>
        <time>2021-06-05T10:55:25.000Z</time>
      </trkpt>
      <trkpt lat="47.31741" lon="-2.06067">
        <ele>53</ele>
        <time>2021-06-05T10:55:27.000Z</time>
      </trkpt>
      <trkpt lat="47.31735" lon="-2.06082">
        <ele>53</ele>
        <time>2021-06-05T10:55:29.000Z</time>
      </trkpt>
      <trkpt lat="47.31728" lon="-2.06097">
        <ele>53</ele>
        <time>2021-06-05T10:55:31.000Z</time>
      </trkpt>
      <trkpt lat="47.31722" lon="-2.06113">
        <ele>53</ele>
        <time>2021-06-05T10:55:33.000Z</time>
      </trkpt>
      <trkpt lat="47.31716" lon="-2.06129">
        <ele>53</ele>
        <time>2021-06-05T10:55:35.000Z</time>
      </trkpt>
      <trkpt lat="47.31712" lon="-2.06146">
        <ele>53</ele>
        <time>2021-06-05T10:55:37.000Z</time>
      </trkpt>
      <trkpt lat="47.31712" lon="-2.06164">
        <ele>53</ele>
        <time>2021-06-05T10:55:39.000Z</time>
      </trkpt>
      <trkpt lat="47.31713" lon="-2.06182">
        <ele>54</ele>
        <time>2021-06-05T10:55:41.000Z</time>
      </trkpt>
      <trkpt lat="47.31715" lon="-2.06199">
        <ele>53</ele>
        <time>2021-06-05T10:55:43.000Z</time>
      </trkpt>
      <trkpt lat="47.31719" lon="-2.06215">
        <ele>53</ele>
        <time>2021-06-05T10:55:45.000Z</time>
      </trkpt>
      <trkpt lat="47.31725" lon="-2.06232">
        <ele>53</ele>
        <time>2021-06-05T10:55:47.000Z</time>
      </trkpt>
      <trkpt lat="47.3173" lon="-2.06248">
        <ele>53</ele>
        <time>2021-06-05T10:55:49.000Z</time>
      </trkpt>
      <trkpt lat="47.31737" lon="-2.06263">
        <ele>53</ele>
        <time>2021-06-05T10:55:51.000Z</time>
      </trkpt>
      <trkpt lat="47.31737" lon="-2.06279">
        <ele>53</ele>
        <time>2021-06-05T10:55:53.000Z</time>
      </trkpt>
      <trkpt lat="47.31733" lon="-2.06296">
        <ele>53</ele>
        <time>2021-06-05T10:55:55.000Z</time>
      </trkpt>
      <trkpt lat="47.3173" lon="-2.06312">
        <ele>53</ele>
        <time>2021-06-05T10:55:57.000Z</time>
      </trkpt>
      <trkpt lat="47.31728" lon="-2.06329">
        <ele>53</ele>
        <time>2021-06-05T10:55:59.000Z</time>
      </trkpt>
      <trkpt lat="47.31725" lon="-2.06345">
        <ele>53</ele>
        <time>2021-06-05T10:56:01.000Z</time>
      </trkpt>
      <trkpt lat="47.31722" lon="-2.06362">
        <ele>53</ele>
        <time>2021-06-05T10:56:03.000Z</time>
      </trkpt>
      <trkpt lat="47.3172" lon="-2.0638">
        <ele>53</ele>
        <time>2021-06-05T10:56:05.000Z</time>
      </trkpt>
      <trkpt lat="47.31718" lon="-2.06396">
        <ele>53</ele>
        <time>2021-06-05T10:56:07.000Z</time>
      </trkpt>
      <trkpt lat="47.31715" lon="-2.06413">
        <ele>53</ele>
        <time>2021-06-05T10:56:09.000Z</time>
      </trkpt>
      <trkpt lat="47.31712" lon="-2.0643">
        <ele>53</ele>
        <time>2021-06-05T10:56:11.000Z</time>
      </trkpt>
      <trkpt lat="47.31711" lon="-2.06447">
        <ele>54</ele>
        <time>2021-06-05T10:56:13.000Z</time>
      </trkpt>
      <trkpt lat="47.31708" lon="-2.06463">
        <ele>54</ele>
        <time>2021-06-05T10:56:15.000Z</time>
      </trkpt>
      <trkpt lat="47.31706" lon="-2.06479">
        <ele>54</ele>
        <time>2021-06-05T10:56:17.000Z</time>
      </trkpt>
      <trkpt lat="47.31704" lon="-2.06495">
        <ele>54</ele>
        <time>2021-06-05T10:56:19.000Z</time>
      </trkpt>
      <trkpt lat="47.31702" lon="-2.06512">
        <ele>54</ele>
        <time>2021-06-05T10:56:21.000Z</time>
      </trkpt>
      <trkpt lat="47.31701" lon="-2.06529">
        <ele>55</ele>
        <time>2021-06-05T10:56:23.000Z</time>
      </trkpt>
      <trkpt lat="47.31699" lon="-2.06546">
        <ele>55</ele>
        <time>2021-06-05T10:56:25.000Z</time>
      </trkpt>
      <trkpt lat="47.31697" lon="-2.06563">
        <ele>55</ele>
        <time>2021-06-05T10:56:27.000Z</time>
      </trkpt>
      <trkpt lat="47.31696" lon="-2.06579">
        <ele>55</ele>
        <time>2021-06-05T10:56:29.000Z</time>
      </trkpt>
      <trkpt lat="47.31694" lon="-2.06596">
        <ele>55</ele>
        <time>2021-06-05T10:56:31.000Z</time>
      </trkpt>
      <trkpt lat="47.31692" lon="-2.06614">
        <ele>55</ele>
        <time>2021-06-05T10:56:33.000Z</time>
      </trkpt>
      <trkpt lat="47.3169" lon="-2.06631">
        <ele>55</ele>
        <time>2021-06-05T10:56:35.000Z</time>
      </trkpt>
      <trkpt lat="47.31688" lon="-2.06649">
        <ele>55</ele>
        <time>2021-06-05T10:56:37.000Z</time>
      </trkpt>
      <trkpt lat="47.31687" lon="-2.06666">
        <ele>55</ele>
        <time>2021-06-05T10:56:39.000Z</time>
      </trkpt>
      <trkpt lat="47.31685" lon="-2.06683">
        <ele>56</ele>
        <time>2021-06-05T10:56:41.000Z</time>
      </trkpt>
      <trkpt lat="47.31684" lon="-2.067">
        <ele>56</ele>
        <time>2021-06-05T10:56:43.000Z</time>
      </trkpt>
      <trkpt lat="47.31682" lon="-2.06717">
        <ele>56</ele>
        <time>2021-06-05T10:56:45.000Z</time>
      </trkpt>
      <trkpt lat="47.3168" lon="-2.06734">
        <ele>56</ele>
        <time>2021-06-05T10:56:47.000Z</time>
      </trkpt>
      <trkpt lat="47.31678" lon="-2.0675">
        <ele>56</ele>
        <time>2021-06-05T10:56:49.000Z</time>
      </trkpt>
      <trkpt lat="47.31677" lon="-2.06766">
        <ele>57</ele>
        <time>2021-06-05T10:56:51.000Z</time>
      </trkpt>
      <trkpt lat="47.31675" lon="-2.06781">
        <ele>57</ele>
        <time>2021-06-05T10:56:53.000Z</time>
      </trkpt>
      <trkpt lat="47.31673" lon="-2.06797">
        <ele>57</ele>
        <time>2021-06-05T10:56:55.000Z</time>
      </trkpt>
      <trkpt lat="47.31672" lon="-2.06813">
        <ele>57</ele>
        <time>2021-06-05T10:56:57.000Z</time>
      </trkpt>
      <trkpt lat="47.3167" lon="-2.06829">
        <ele>57</ele>
        <time>2021-06-05T10:56:59.000Z</time>
      </trkpt>
      <trkpt lat="47.31668" lon="-2.06844">
        <ele>57</ele>
        <time>2021-06-05T10:57:01.000Z</time>
      </trkpt>
      <trkpt lat="47.31666" lon="-2.06859">
        <ele>58</ele>
        <time>2021-06-05T10:57:03.000Z</time>
      </trkpt>
      <trkpt lat="47.31664" lon="-2.06874">
        <ele>58</ele>
        <time>2021-06-05T10:57:05.000Z</time>
      </trkpt>
      <trkpt lat="47.31661" lon="-2.0689">
        <ele>58</ele>
        <time>2021-06-05T10:57:07.000Z</time>
      </trkpt>
      <trkpt lat="47.31658" lon="-2.06905">
        <ele>57</ele>
        <time>2021-06-05T10:57:09.000Z</time>
      </trkpt>
      <trkpt lat="47.31654" lon="-2.06921">
        <ele>58</ele>
        <time>2021-06-05T10:57:11.000Z</time>
      </trkpt>
      <trkpt lat="47.31651" lon="-2.06935">
        <ele>58</ele>
        <time>2021-06-05T10:57:13.000Z</time>
      </trkpt>
      <trkpt lat="47.31647" lon="-2.0695">
        <ele>58</ele>
        <time>2021-06-05T10:57:15.000Z</time>
      </trkpt>
      <trkpt lat="47.31643" lon="-2.06964">
        <ele>59</ele>
        <time>2021-06-05T10:57:17.000Z</time>
      </trkpt>
      <trkpt lat="47.31639" lon="-2.06978">
        <ele>59</ele>
        <time>2021-06-05T10:57:19.000Z</time>
      </trkpt>
      <trkpt lat="47.31634" lon="-2.06992">
        <ele>59</ele>
        <time>2021-06-05T10:57:21.000Z</time>
      </trkpt>
      <trkpt lat="47.3163" lon="-2.07006">
        <ele>59</ele>
        <time>2021-06-05T10:57:23.000Z</time>
      </trkpt>
      <trkpt lat="47.31625" lon="-2.07019">
        <ele>59</ele>
        <time>2021-06-05T10:57:25.000Z</time>
      </trkpt>
      <trkpt lat="47.3162" lon="-2.07032">
        <ele>60</ele>
        <time>2021-06-05T10:57:27.000Z</time>
      </trkpt>
      <trkpt lat="47.31615" lon="-2.07044">
        <ele>60</ele>
        <time>2021-06-05T10:57:29.000Z</time>
      </trkpt>
      <trkpt lat="47.3161" lon="-2.07057">
        <ele>60</ele>
        <time>2021-06-05T10:57:31.000Z</time>
      </trkpt>
      <trkpt lat="47.31604" lon="-2.07069">
        <ele>60</ele>
        <time>2021-06-05T10:57:33.000Z</time>
      </trkpt>
      <trkpt lat="47.31599" lon="-2.07082">
        <ele>60</ele>
        <time>2021-06-05T10:57:35.000Z</time>
      </trkpt>
      <trkpt lat="47.31593" lon="-2.07093">
        <ele>60</ele>
        <time>2021-06-05T10:57:37.000Z</time>
      </trkpt>
      <trkpt lat="47.31587" lon="-2.07104">
        <ele>61</ele>
        <time>2021-06-05T10:57:39.000Z</time>
      </trkpt>
      <trkpt lat="47.31581" lon="-2.07116">
        <ele>61</ele>
        <time>2021-06-05T10:57:41.000Z</time>
      </trkpt>
      <trkpt lat="47.31574" lon="-2.07126">
        <ele>62</ele>
        <time>2021-06-05T10:57:43.000Z</time>
      </trkpt>
      <trkpt lat="47.31565" lon="-2.07129">
        <ele>62</ele>
        <time>2021-06-05T10:57:45.000Z</time>
      </trkpt>
      <trkpt lat="47.31556" lon="-2.07131">
        <ele>62</ele>
        <time>2021-06-05T10:57:47.000Z</time>
      </trkpt>
      <trkpt lat="47.31547" lon="-2.07139">
        <ele>62</ele>
        <time>2021-06-05T10:57:49.000Z</time>
      </trkpt>
      <trkpt lat="47.31544" lon="-2.07153">
        <ele>63</ele>
        <time>2021-06-05T10:57:51.000Z</time>
      </trkpt>
      <trkpt lat="47.31543" lon="-2.07168">
        <ele>63</ele>
        <time>2021-06-05T10:57:53.000Z</time>
      </trkpt>
      <trkpt lat="47.31542" lon="-2.07181">
        <ele>63</ele>
        <time>2021-06-05T10:57:55.000Z</time>
      </trkpt>
      <trkpt lat="47.31546" lon="-2.07197">
        <ele>63</ele>
        <time>2021-06-05T10:57:58.000Z</time>
      </trkpt>
      <trkpt lat="47.31557" lon="-2.07202">
        <ele>63</ele>
        <time>2021-06-05T10:58:01.000Z</time>
      </trkpt>
      <trkpt lat="47.31568" lon="-2.07205">
        <ele>64</ele>
        <time>2021-06-05T10:58:04.000Z</time>
      </trkpt>
      <trkpt lat="47.31574" lon="-2.07215">
        <ele>64</ele>
        <time>2021-06-05T10:58:06.000Z</time>
      </trkpt>
      <trkpt lat="47.31579" lon="-2.07229">
        <ele>64</ele>
        <time>2021-06-05T10:58:08.000Z</time>
      </trkpt>
      <trkpt lat="47.31584" lon="-2.07243">
        <ele>64</ele>
        <time>2021-06-05T10:58:10.000Z</time>
      </trkpt>
      <trkpt lat="47.31588" lon="-2.07257">
        <ele>65</ele>
        <time>2021-06-05T10:58:12.000Z</time>
      </trkpt>
      <trkpt lat="47.31592" lon="-2.07271">
        <ele>65</ele>
        <time>2021-06-05T10:58:14.000Z</time>
      </trkpt>
      <trkpt lat="47.31596" lon="-2.07286">
        <ele>65</ele>
        <time>2021-06-05T10:58:16.000Z</time>
      </trkpt>
      <trkpt lat="47.316" lon="-2.073">
        <ele>64</ele>
        <time>2021-06-05T10:58:18.000Z</time>
      </trkpt>
      <trkpt lat="47.31603" lon="-2.07315">
        <ele>64</ele>
        <time>2021-06-05T10:58:20.000Z</time>
      </trkpt>
      <trkpt lat="47.31607" lon="-2.0733">
        <ele>64</ele>
        <time>2021-06-05T10:58:22.000Z</time>
      </trkpt>
      <trkpt lat="47.3161" lon="-2.07347">
        <ele>63</ele>
        <time>2021-06-05T10:58:24.000Z</time>
      </trkpt>
      <trkpt lat="47.31613" lon="-2.07366">
        <ele>63</ele>
        <time>2021-06-05T10:58:26.000Z</time>
      </trkpt>
      <trkpt lat="47.31615" lon="-2.07384">
        <ele>62</ele>
        <time>2021-06-05T10:58:28.000Z</time>
      </trkpt>
      <trkpt lat="47.31616" lon="-2.07404">
        <ele>62</ele>
        <time>2021-06-05T10:58:30.000Z</time>
      </trkpt>
      <trkpt lat="47.31617" lon="-2.07425">
        <ele>62</ele>
        <time>2021-06-05T10:58:32.000Z</time>
      </trkpt>
      <trkpt lat="47.31617" lon="-2.07446">
        <ele>61</ele>
        <time>2021-06-05T10:58:34.000Z</time>
      </trkpt>
      <trkpt lat="47.31615" lon="-2.07465">
        <ele>61</ele>
        <time>2021-06-05T10:58:36.000Z</time>
      </trkpt>
      <trkpt lat="47.31608" lon="-2.07479">
        <ele>61</ele>
        <time>2021-06-05T10:58:38.000Z</time>
      </trkpt>
      <trkpt lat="47.316" lon="-2.07491">
        <ele>60</ele>
        <time>2021-06-05T10:58:40.000Z</time>
      </trkpt>
      <trkpt lat="47.31599" lon="-2.07507">
        <ele>60</ele>
        <time>2021-06-05T10:58:42.000Z</time>
      </trkpt>
      <trkpt lat="47.31605" lon="-2.0752">
        <ele>60</ele>
        <time>2021-06-05T10:58:44.000Z</time>
      </trkpt>
      <trkpt lat="47.31613" lon="-2.07533">
        <ele>60</ele>
        <time>2021-06-05T10:58:47.000Z</time>
      </trkpt>
      <trkpt lat="47.31614" lon="-2.07553">
        <ele>59</ele>
        <time>2021-06-05T10:58:50.000Z</time>
      </trkpt>
      <trkpt lat="47.31611" lon="-2.07569">
        <ele>59</ele>
        <time>2021-06-05T10:58:52.000Z</time>
      </trkpt>
      <trkpt lat="47.31607" lon="-2.07585">
        <ele>58</ele>
        <time>2021-06-05T10:58:54.000Z</time>
      </trkpt>
      <trkpt lat="47.31604" lon="-2.07601">
        <ele>58</ele>
        <time>2021-06-05T10:58:56.000Z</time>
      </trkpt>
      <trkpt lat="47.316" lon="-2.07618">
        <ele>58</ele>
        <time>2021-06-05T10:58:58.000Z</time>
      </trkpt>
      <trkpt lat="47.31596" lon="-2.07637">
        <ele>57</ele>
        <time>2021-06-05T10:59:00.000Z</time>
      </trkpt>
      <trkpt lat="47.31593" lon="-2.07655">
        <ele>57</ele>
        <time>2021-06-05T10:59:02.000Z</time>
      </trkpt>
      <trkpt lat="47.3159" lon="-2.07674">
        <ele>57</ele>
        <time>2021-06-05T10:59:04.000Z</time>
      </trkpt>
      <trkpt lat="47.31589" lon="-2.07693">
        <ele>56</ele>
        <time>2021-06-05T10:59:06.000Z</time>
      </trkpt>
      <trkpt lat="47.3159" lon="-2.07713">
        <ele>56</ele>
        <time>2021-06-05T10:59:08.000Z</time>
      </trkpt>
      <trkpt lat="47.31591" lon="-2.07733">
        <ele>56</ele>
        <time>2021-06-05T10:59:10.000Z</time>
      </trkpt>
      <trkpt lat="47.31594" lon="-2.07752">
        <ele>56</ele>
        <time>2021-06-05T10:59:12.000Z</time>
      </trkpt>
      <trkpt lat="47.31598" lon="-2.0777">
        <ele>56</ele>
        <time>2021-06-05T10:59:14.000Z</time>
      </trkpt>
      <trkpt lat="47.31604" lon="-2.07788">
        <ele>55</ele>
        <time>2021-06-05T10:59:16.000Z</time>
      </trkpt>
      <trkpt lat="47.31611" lon="-2.07805">
        <ele>55</ele>
        <time>2021-06-05T10:59:18.000Z</time>
      </trkpt>
      <trkpt lat="47.31618" lon="-2.0782">
        <ele>54</ele>
        <time>2021-06-05T10:59:20.000Z</time>
      </trkpt>
      <trkpt lat="47.31627" lon="-2.07834">
        <ele>54</ele>
        <time>2021-06-05T10:59:22.000Z</time>
      </trkpt>
      <trkpt lat="47.31638" lon="-2.07846">
        <ele>54</ele>
        <time>2021-06-05T10:59:24.000Z</time>
      </trkpt>
      <trkpt lat="47.31649" lon="-2.07857">
        <ele>53</ele>
        <time>2021-06-05T10:59:26.000Z</time>
      </trkpt>
      <trkpt lat="47.31661" lon="-2.07867">
        <ele>53</ele>
        <time>2021-06-05T10:59:28.000Z</time>
      </trkpt>
      <trkpt lat="47.31673" lon="-2.07875">
        <ele>52</ele>
        <time>2021-06-05T10:59:30.000Z</time>
      </trkpt>
      <trkpt lat="47.31686" lon="-2.07881">
        <ele>52</ele>
        <time>2021-06-05T10:59:32.000Z</time>
      </trkpt>
      <trkpt lat="47.31699" lon="-2.07885">
        <ele>52</ele>
        <time>2021-06-05T10:59:34.000Z</time>
      </trkpt>
      <trkpt lat="47.31712" lon="-2.07889">
        <ele>52</ele>
        <time>2021-06-05T10:59:36.000Z</time>
      </trkpt>
      <trkpt lat="47.31724" lon="-2.07892">
        <ele>52</ele>
        <time>2021-06-05T10:59:38.000Z</time>
      </trkpt>
      <trkpt lat="47.31737" lon="-2.07895">
        <ele>52</ele>
        <time>2021-06-05T10:59:40.000Z</time>
      </trkpt>
      <trkpt lat="47.31749" lon="-2.07898">
        <ele>52</ele>
        <time>2021-06-05T10:59:42.000Z</time>
      </trkpt>
      <trkpt lat="47.31762" lon="-2.079">
        <ele>52</ele>
        <time>2021-06-05T10:59:44.000Z</time>
      </trkpt>
      <trkpt lat="47.31774" lon="-2.07903">
        <ele>53</ele>
        <time>2021-06-05T10:59:46.000Z</time>
      </trkpt>
      <trkpt lat="47.31786" lon="-2.07904">
        <ele>54</ele>
        <time>2021-06-05T10:59:48.000Z</time>
      </trkpt>
      <trkpt lat="47.31799" lon="-2.07907">
        <ele>54</ele>
        <time>2021-06-05T10:59:50.000Z</time>
      </trkpt>
      <trkpt lat="47.31811" lon="-2.07909">
        <ele>54</ele>
        <time>2021-06-05T10:59:52.000Z</time>
      </trkpt>
      <trkpt lat="47.31822" lon="-2.07913">
        <ele>54</ele>
        <time>2021-06-05T10:59:54.000Z</time>
      </trkpt>
      <trkpt lat="47.31834" lon="-2.07917">
        <ele>55</ele>
        <time>2021-06-05T10:59:56.000Z</time>
      </trkpt>
      <trkpt lat="47.31847" lon="-2.0792">
        <ele>55</ele>
        <time>2021-06-05T10:59:58.000Z</time>
      </trkpt>
      <trkpt lat="47.31859" lon="-2.07924">
        <ele>55</ele>
        <time>2021-06-05T11:00:00.000Z</time>
      </trkpt>
      <trkpt lat="47.3187" lon="-2.07928">
        <ele>55</ele>
        <time>2021-06-05T11:00:02.000Z</time>
      </trkpt>
      <trkpt lat="47.31882" lon="-2.07934">
        <ele>55</ele>
        <time>2021-06-05T11:00:04.000Z</time>
      </trkpt>
      <trkpt lat="47.31893" lon="-2.07942">
        <ele>55</ele>
        <time>2021-06-05T11:00:06.000Z</time>
      </trkpt>
      <trkpt lat="47.31903" lon="-2.07952">
        <ele>55</ele>
        <time>2021-06-05T11:00:08.000Z</time>
      </trkpt>
      <trkpt lat="47.31913" lon="-2.07962">
        <ele>55</ele>
        <time>2021-06-05T11:00:10.000Z</time>
      </trkpt>
      <trkpt lat="47.31924" lon="-2.07974">
        <ele>55</ele>
        <time>2021-06-05T11:00:12.000Z</time>
      </trkpt>
      <trkpt lat="47.31934" lon="-2.07985">
        <ele>55</ele>
        <time>2021-06-05T11:00:14.000Z</time>
      </trkpt>
      <trkpt lat="47.31945" lon="-2.07996">
        <ele>56</ele>
        <time>2021-06-05T11:00:16.000Z</time>
      </trkpt>
      <trkpt lat="47.31955" lon="-2.08007">
        <ele>56</ele>
        <time>2021-06-05T11:00:18.000Z</time>
      </trkpt>
      <trkpt lat="47.31965" lon="-2.08017">
        <ele>56</ele>
        <time>2021-06-05T11:00:20.000Z</time>
      </trkpt>
      <trkpt lat="47.31976" lon="-2.08028">
        <ele>56</ele>
        <time>2021-06-05T11:00:22.000Z</time>
      </trkpt>
      <trkpt lat="47.31986" lon="-2.08039">
        <ele>57</ele>
        <time>2021-06-05T11:00:24.000Z</time>
      </trkpt>
      <trkpt lat="47.31996" lon="-2.08051">
        <ele>57</ele>
        <time>2021-06-05T11:00:26.000Z</time>
      </trkpt>
      <trkpt lat="47.32006" lon="-2.08061">
        <ele>57</ele>
        <time>2021-06-05T11:00:28.000Z</time>
      </trkpt>
      <trkpt lat="47.32016" lon="-2.08071">
        <ele>58</ele>
        <time>2021-06-05T11:00:30.000Z</time>
      </trkpt>
      <trkpt lat="47.32025" lon="-2.08082">
        <ele>58</ele>
        <time>2021-06-05T11:00:32.000Z</time>
      </trkpt>
      <trkpt lat="47.32035" lon="-2.08093">
        <ele>58</ele>
        <time>2021-06-05T11:00:34.000Z</time>
      </trkpt>
      <trkpt lat="47.32046" lon="-2.08103">
        <ele>58</ele>
        <time>2021-06-05T11:00:36.000Z</time>
      </trkpt>
      <trkpt lat="47.32055" lon="-2.08113">
        <ele>58</ele>
        <time>2021-06-05T11:00:38.000Z</time>
      </trkpt>
      <trkpt lat="47.32065" lon="-2.08124">
        <ele>58</ele>
        <time>2021-06-05T11:00:40.000Z</time>
      </trkpt>
      <trkpt lat="47.32074" lon="-2.08135">
        <ele>58</ele>
        <time>2021-06-05T11:00:42.000Z</time>
      </trkpt>
      <trkpt lat="47.32084" lon="-2.08144">
        <ele>59</ele>
        <time>2021-06-05T11:00:44.000Z</time>
      </trkpt>
      <trkpt lat="47.32094" lon="-2.08155">
        <ele>59</ele>
        <time>2021-06-05T11:00:46.000Z</time>
      </trkpt>
      <trkpt lat="47.32103" lon="-2.08164">
        <ele>59</ele>
        <time>2021-06-05T11:00:48.000Z</time>
      </trkpt>
      <trkpt lat="47.32112" lon="-2.08174">
        <ele>59</ele>
        <time>2021-06-05T11:00:50.000Z</time>
      </trkpt>
      <trkpt lat="47.32121" lon="-2.08185">
        <ele>59</ele>
        <time>2021-06-05T11:00:52.000Z</time>
      </trkpt>
      <trkpt lat="47.32131" lon="-2.08195">
        <ele>60</ele>
        <time>2021-06-05T11:00:54.000Z</time>
      </trkpt>
      <trkpt lat="47.3214" lon="-2.08205">
        <ele>60</ele>
        <time>2021-06-05T11:00:56.000Z</time>
      </trkpt>
      <trkpt lat="47.3215" lon="-2.08215">
        <ele>60</ele>
        <time>2021-06-05T11:00:58.000Z</time>
      </trkpt>
      <trkpt lat="47.32159" lon="-2.08225">
        <ele>61</ele>
        <time>2021-06-05T11:01:00.000Z</time>
      </trkpt>
      <trkpt lat="47.32169" lon="-2.08235">
        <ele>60</ele>
        <time>2021-06-05T11:01:02.000Z</time>
      </trkpt>
      <trkpt lat="47.32178" lon="-2.08245">
        <ele>61</ele>
        <time>2021-06-05T11:01:04.000Z</time>
      </trkpt>
      <trkpt lat="47.32187" lon="-2.08255">
        <ele>61</ele>
        <time>2021-06-05T11:01:06.000Z</time>
      </trkpt>
      <trkpt lat="47.32197" lon="-2.08265">
        <ele>61</ele>
        <time>2021-06-05T11:01:08.000Z</time>
      </trkpt>
      <trkpt lat="47.32207" lon="-2.08275">
        <ele>61</ele>
        <time>2021-06-05T11:01:10.000Z</time>
      </trkpt>
      <trkpt lat="47.32216" lon="-2.08285">
        <ele>62</ele>
        <time>2021-06-05T11:01:12.000Z</time>
      </trkpt>
      <trkpt lat="47.32226" lon="-2.08293">
        <ele>62</ele>
        <time>2021-06-05T11:01:14.000Z</time>
      </trkpt>
      <trkpt lat="47.32236" lon="-2.08301">
        <ele>62</ele>
        <time>2021-06-05T11:01:16.000Z</time>
      </trkpt>
      <trkpt lat="47.32247" lon="-2.08309">
        <ele>62</ele>
        <time>2021-06-05T11:01:18.000Z</time>
      </trkpt>
      <trkpt lat="47.32257" lon="-2.08315">
        <ele>63</ele>
        <time>2021-06-05T11:01:20.000Z</time>
      </trkpt>
      <trkpt lat="47.32269" lon="-2.08321">
        <ele>62</ele>
        <time>2021-06-05T11:01:22.000Z</time>
      </trkpt>
      <trkpt lat="47.32279" lon="-2.08327">
        <ele>62</ele>
        <time>2021-06-05T11:01:24.000Z</time>
      </trkpt>
      <trkpt lat="47.32291" lon="-2.08334">
        <ele>62</ele>
        <time>2021-06-05T11:01:26.000Z</time>
      </trkpt>
      <trkpt lat="47.32303" lon="-2.08339">
        <ele>62</ele>
        <time>2021-06-05T11:01:28.000Z</time>
      </trkpt>
      <trkpt lat="47.32314" lon="-2.08344">
        <ele>62</ele>
        <time>2021-06-05T11:01:30.000Z</time>
      </trkpt>
      <trkpt lat="47.32326" lon="-2.08349">
        <ele>61</ele>
        <time>2021-06-05T11:01:32.000Z</time>
      </trkpt>
      <trkpt lat="47.32337" lon="-2.08353">
        <ele>61</ele>
        <time>2021-06-05T11:01:34.000Z</time>
      </trkpt>
      <trkpt lat="47.32349" lon="-2.08357">
        <ele>61</ele>
        <time>2021-06-05T11:01:36.000Z</time>
      </trkpt>
      <trkpt lat="47.32361" lon="-2.08361">
        <ele>61</ele>
        <time>2021-06-05T11:01:38.000Z</time>
      </trkpt>
      <trkpt lat="47.32372" lon="-2.08364">
        <ele>62</ele>
        <time>2021-06-05T11:01:40.000Z</time>
      </trkpt>
      <trkpt lat="47.32384" lon="-2.08367">
        <ele>62</ele>
        <time>2021-06-05T11:01:42.000Z</time>
      </trkpt>
      <trkpt lat="47.32396" lon="-2.0837">
        <ele>62</ele>
        <time>2021-06-05T11:01:44.000Z</time>
      </trkpt>
      <trkpt lat="47.32407" lon="-2.08373">
        <ele>62</ele>
        <time>2021-06-05T11:01:46.000Z</time>
      </trkpt>
      <trkpt lat="47.32419" lon="-2.08375">
        <ele>62</ele>
        <time>2021-06-05T11:01:48.000Z</time>
      </trkpt>
      <trkpt lat="47.3243" lon="-2.08378">
        <ele>63</ele>
        <time>2021-06-05T11:01:50.000Z</time>
      </trkpt>
      <trkpt lat="47.32441" lon="-2.08381">
        <ele>63</ele>
        <time>2021-06-05T11:01:52.000Z</time>
      </trkpt>
      <trkpt lat="47.32452" lon="-2.08384">
        <ele>63</ele>
        <time>2021-06-05T11:01:54.000Z</time>
      </trkpt>
      <trkpt lat="47.32464" lon="-2.08387">
        <ele>62</ele>
        <time>2021-06-05T11:01:56.000Z</time>
      </trkpt>
      <trkpt lat="47.32475" lon="-2.08391">
        <ele>62</ele>
        <time>2021-06-05T11:01:58.000Z</time>
      </trkpt>
      <trkpt lat="47.32488" lon="-2.08395">
        <ele>62</ele>
        <time>2021-06-05T11:02:00.000Z</time>
      </trkpt>
      <trkpt lat="47.325" lon="-2.08401">
        <ele>62</ele>
        <time>2021-06-05T11:02:02.000Z</time>
      </trkpt>
      <trkpt lat="47.32513" lon="-2.08408">
        <ele>61</ele>
        <time>2021-06-05T11:02:04.000Z</time>
      </trkpt>
      <trkpt lat="47.32526" lon="-2.08416">
        <ele>61</ele>
        <time>2021-06-05T11:02:06.000Z</time>
      </trkpt>
      <trkpt lat="47.32539" lon="-2.08424">
        <ele>61</ele>
        <time>2021-06-05T11:02:08.000Z</time>
      </trkpt>
      <trkpt lat="47.32552" lon="-2.08432">
        <ele>61</ele>
        <time>2021-06-05T11:02:10.000Z</time>
      </trkpt>
      <trkpt lat="47.32564" lon="-2.08439">
        <ele>61</ele>
        <time>2021-06-05T11:02:12.000Z</time>
      </trkpt>
      <trkpt lat="47.32577" lon="-2.08446">
        <ele>61</ele>
        <time>2021-06-05T11:02:14.000Z</time>
      </trkpt>
      <trkpt lat="47.32589" lon="-2.08453">
        <ele>60</ele>
        <time>2021-06-05T11:02:16.000Z</time>
      </trkpt>
      <trkpt lat="47.32602" lon="-2.0846">
        <ele>60</ele>
        <time>2021-06-05T11:02:18.000Z</time>
      </trkpt>
      <trkpt lat="47.32614" lon="-2.08468">
        <ele>60</ele>
        <time>2021-06-05T11:02:20.000Z</time>
      </trkpt>
      <trkpt lat="47.32626" lon="-2.08475">
        <ele>60</ele>
        <time>2021-06-05T11:02:22.000Z</time>
      </trkpt>
      <trkpt lat="47.32637" lon="-2.08482">
        <ele>59</ele>
        <time>2021-06-05T11:02:24.000Z</time>
      </trkpt>
      <trkpt lat="47.32649" lon="-2.08489">
        <ele>59</ele>
        <time>2021-06-05T11:02:26.000Z</time>
      </trkpt>
      <trkpt lat="47.32662" lon="-2.08496">
        <ele>59</ele>
        <time>2021-06-05T11:02:28.000Z</time>
      </trkpt>
      <trkpt lat="47.32674" lon="-2.08504">
        <ele>58</ele>
        <time>2021-06-05T11:02:30.000Z</time>
      </trkpt>
      <trkpt lat="47.32686" lon="-2.08511">
        <ele>58</ele>
        <time>2021-06-05T11:02:32.000Z</time>
      </trkpt>
      <trkpt lat="47.32698" lon="-2.08519">
        <ele>58</ele>
        <time>2021-06-05T11:02:34.000Z</time>
      </trkpt>
      <trkpt lat="47.3271" lon="-2.08526">
        <ele>58</ele>
        <time>2021-06-05T11:02:36.000Z</time>
      </trkpt>
      <trkpt lat="47.32721" lon="-2.08532">
        <ele>58</ele>
        <time>2021-06-05T11:02:38.000Z</time>
      </trkpt>
      <trkpt lat="47.32732" lon="-2.08539">
        <ele>58</ele>
        <time>2021-06-05T11:02:40.000Z</time>
      </trkpt>
      <trkpt lat="47.32742" lon="-2.08545">
        <ele>58</ele>
        <time>2021-06-05T11:02:42.000Z</time>
      </trkpt>
      <trkpt lat="47.32753" lon="-2.08552">
        <ele>58</ele>
        <time>2021-06-05T11:02:44.000Z</time>
      </trkpt>
      <trkpt lat="47.32764" lon="-2.08559">
        <ele>58</ele>
        <time>2021-06-05T11:02:46.000Z</time>
      </trkpt>
      <trkpt lat="47.32774" lon="-2.08567">
        <ele>58</ele>
        <time>2021-06-05T11:02:48.000Z</time>
      </trkpt>
      <trkpt lat="47.32785" lon="-2.08574">
        <ele>58</ele>
        <time>2021-06-05T11:02:50.000Z</time>
      </trkpt>
      <trkpt lat="47.32795" lon="-2.08582">
        <ele>58</ele>
        <time>2021-06-05T11:02:52.000Z</time>
      </trkpt>
      <trkpt lat="47.32805" lon="-2.08591">
        <ele>58</ele>
        <time>2021-06-05T11:02:54.000Z</time>
      </trkpt>
      <trkpt lat="47.32815" lon="-2.08601">
        <ele>58</ele>
        <time>2021-06-05T11:02:56.000Z</time>
      </trkpt>
      <trkpt lat="47.32824" lon="-2.08612">
        <ele>58</ele>
        <time>2021-06-05T11:02:58.000Z</time>
      </trkpt>
      <trkpt lat="47.32833" lon="-2.08624">
        <ele>58</ele>
        <time>2021-06-05T11:03:00.000Z</time>
      </trkpt>
      <trkpt lat="47.32842" lon="-2.08637">
        <ele>57</ele>
        <time>2021-06-05T11:03:02.000Z</time>
      </trkpt>
      <trkpt lat="47.3285" lon="-2.08651">
        <ele>58</ele>
        <time>2021-06-05T11:03:04.000Z</time>
      </trkpt>
      <trkpt lat="47.32858" lon="-2.08666">
        <ele>58</ele>
        <time>2021-06-05T11:03:06.000Z</time>
      </trkpt>
      <trkpt lat="47.32865" lon="-2.0868">
        <ele>58</ele>
        <time>2021-06-05T11:03:08.000Z</time>
      </trkpt>
      <trkpt lat="47.32872" lon="-2.08694">
        <ele>58</ele>
        <time>2021-06-05T11:03:10.000Z</time>
      </trkpt>
      <trkpt lat="47.32879" lon="-2.08708">
        <ele>58</ele>
        <time>2021-06-05T11:03:12.000Z</time>
      </trkpt>
      <trkpt lat="47.32886" lon="-2.08723">
        <ele>58</ele>
        <time>2021-06-05T11:03:14.000Z</time>
      </trkpt>
      <trkpt lat="47.32893" lon="-2.08737">
        <ele>58</ele>
        <time>2021-06-05T11:03:16.000Z</time>
      </trkpt>
      <trkpt lat="47.329" lon="-2.08751">
        <ele>58</ele>
        <time>2021-06-05T11:03:18.000Z</time>
      </trkpt>
      <trkpt lat="47.32907" lon="-2.08766">
        <ele>58</ele>
        <time>2021-06-05T11:03:20.000Z</time>
      </trkpt>
      <trkpt lat="47.32914" lon="-2.0878">
        <ele>58</ele>
        <time>2021-06-05T11:03:22.000Z</time>
      </trkpt>
      <trkpt lat="47.32921" lon="-2.08794">
        <ele>58</ele>
        <time>2021-06-05T11:03:24.000Z</time>
      </trkpt>
      <trkpt lat="47.32927" lon="-2.08808">
        <ele>58</ele>
        <time>2021-06-05T11:03:26.000Z</time>
      </trkpt>
      <trkpt lat="47.32934" lon="-2.08822">
        <ele>57</ele>
        <time>2021-06-05T11:03:28.000Z</time>
      </trkpt>
      <trkpt lat="47.32941" lon="-2.08835">
        <ele>57</ele>
        <time>2021-06-05T11:03:30.000Z</time>
      </trkpt>
      <trkpt lat="47.32949" lon="-2.08849">
        <ele>57</ele>
        <time>2021-06-05T11:03:32.000Z</time>
      </trkpt>
      <trkpt lat="47.32956" lon="-2.08861">
        <ele>57</ele>
        <time>2021-06-05T11:03:34.000Z</time>
      </trkpt>
      <trkpt lat="47.32965" lon="-2.08873">
        <ele>57</ele>
        <time>2021-06-05T11:03:36.000Z</time>
      </trkpt>
      <trkpt lat="47.32973" lon="-2.08884">
        <ele>57</ele>
        <time>2021-06-05T11:03:38.000Z</time>
      </trkpt>
      <trkpt lat="47.32982" lon="-2.08894">
        <ele>57</ele>
        <time>2021-06-05T11:03:40.000Z</time>
      </trkpt>
      <trkpt lat="47.32991" lon="-2.08905">
        <ele>57</ele>
        <time>2021-06-05T11:03:42.000Z</time>
      </trkpt>
      <trkpt lat="47.33001" lon="-2.08914">
        <ele>57</ele>
        <time>2021-06-05T11:03:44.000Z</time>
      </trkpt>
      <trkpt lat="47.33011" lon="-2.08923">
        <ele>57</ele>
        <time>2021-06-05T11:03:46.000Z</time>
      </trkpt>
      <trkpt lat="47.33021" lon="-2.08932">
        <ele>57</ele>
        <time>2021-06-05T11:03:48.000Z</time>
      </trkpt>
      <trkpt lat="47.33031" lon="-2.08941">
        <ele>58</ele>
        <time>2021-06-05T11:03:50.000Z</time>
      </trkpt>
      <trkpt lat="47.33041" lon="-2.08949">
        <ele>58</ele>
        <time>2021-06-05T11:03:52.000Z</time>
      </trkpt>
      <trkpt lat="47.3305" lon="-2.08958">
        <ele>58</ele>
        <time>2021-06-05T11:03:54.000Z</time>
      </trkpt>
      <trkpt lat="47.3306" lon="-2.08966">
        <ele>58</ele>
        <time>2021-06-05T11:03:56.000Z</time>
      </trkpt>
      <trkpt lat="47.3307" lon="-2.08975">
        <ele>58</ele>
        <time>2021-06-05T11:03:58.000Z</time>
      </trkpt>
      <trkpt lat="47.3308" lon="-2.08984">
        <ele>58</ele>
        <time>2021-06-05T11:04:00.000Z</time>
      </trkpt>
      <trkpt lat="47.3309" lon="-2.08992">
        <ele>58</ele>
        <time>2021-06-05T11:04:02.000Z</time>
      </trkpt>
      <trkpt lat="47.331" lon="-2.09001">
        <ele>58</ele>
        <time>2021-06-05T11:04:04.000Z</time>
      </trkpt>
      <trkpt lat="47.3311" lon="-2.0901">
        <ele>58</ele>
        <time>2021-06-05T11:04:06.000Z</time>
      </trkpt>
      <trkpt lat="47.3312" lon="-2.09019">
        <ele>58</ele>
        <time>2021-06-05T11:04:08.000Z</time>
      </trkpt>
      <trkpt lat="47.3313" lon="-2.09028">
        <ele>58</ele>
        <time>2021-06-05T11:04:10.000Z</time>
      </trkpt>
      <trkpt lat="47.3314" lon="-2.09037">
        <ele>58</ele>
        <time>2021-06-05T11:04:12.000Z</time>
      </trkpt>
      <trkpt lat="47.3315" lon="-2.09046">
        <ele>58</ele>
        <time>2021-06-05T11:04:14.000Z</time>
      </trkpt>
      <trkpt lat="47.33162" lon="-2.09055">
        <ele>58</ele>
        <time>2021-06-05T11:04:16.000Z</time>
      </trkpt>
      <trkpt lat="47.33173" lon="-2.09065">
        <ele>57</ele>
        <time>2021-06-05T11:04:18.000Z</time>
      </trkpt>
      <trkpt lat="47.33183" lon="-2.09075">
        <ele>57</ele>
        <time>2021-06-05T11:04:20.000Z</time>
      </trkpt>
      <trkpt lat="47.33194" lon="-2.09084">
        <ele>57</ele>
        <time>2021-06-05T11:04:22.000Z</time>
      </trkpt>
      <trkpt lat="47.33204" lon="-2.09093">
        <ele>58</ele>
        <time>2021-06-05T11:04:24.000Z</time>
      </trkpt>
      <trkpt lat="47.33214" lon="-2.09102">
        <ele>57</ele>
        <time>2021-06-05T11:04:26.000Z</time>
      </trkpt>
      <trkpt lat="47.33225" lon="-2.09111">
        <ele>57</ele>
        <time>2021-06-05T11:04:28.000Z</time>
      </trkpt>
      <trkpt lat="47.33235" lon="-2.0912">
        <ele>57</ele>
        <time>2021-06-05T11:04:30.000Z</time>
      </trkpt>
      <trkpt lat="47.33245" lon="-2.09128">
        <ele>57</ele>
        <time>2021-06-05T11:04:32.000Z</time>
      </trkpt>
      <trkpt lat="47.33255" lon="-2.09137">
        <ele>57</ele>
        <time>2021-06-05T11:04:34.000Z</time>
      </trkpt>
      <trkpt lat="47.33265" lon="-2.09145">
        <ele>57</ele>
        <time>2021-06-05T11:04:36.000Z</time>
      </trkpt>
      <trkpt lat="47.33276" lon="-2.09155">
        <ele>57</ele>
        <time>2021-06-05T11:04:38.000Z</time>
      </trkpt>
      <trkpt lat="47.33287" lon="-2.09164">
        <ele>56</ele>
        <time>2021-06-05T11:04:40.000Z</time>
      </trkpt>
      <trkpt lat="47.33298" lon="-2.09173">
        <ele>56</ele>
        <time>2021-06-05T11:04:42.000Z</time>
      </trkpt>
      <trkpt lat="47.33309" lon="-2.09182">
        <ele>56</ele>
        <time>2021-06-05T11:04:44.000Z</time>
      </trkpt>
      <trkpt lat="47.3332" lon="-2.0919">
        <ele>56</ele>
        <time>2021-06-05T11:04:46.000Z</time>
      </trkpt>
      <trkpt lat="47.33332" lon="-2.09198">
        <ele>56</ele>
        <time>2021-06-05T11:04:48.000Z</time>
      </trkpt>
      <trkpt lat="47.33344" lon="-2.09205">
        <ele>56</ele>
        <time>2021-06-05T11:04:50.000Z</time>
      </trkpt>
      <trkpt lat="47.33355" lon="-2.09212">
        <ele>56</ele>
        <time>2021-06-05T11:04:52.000Z</time>
      </trkpt>
      <trkpt lat="47.33365" lon="-2.09221">
        <ele>56</ele>
        <time>2021-06-05T11:04:54.000Z</time>
      </trkpt>
      <trkpt lat="47.33376" lon="-2.09229">
        <ele>56</ele>
        <time>2021-06-05T11:04:56.000Z</time>
      </trkpt>
      <trkpt lat="47.33386" lon="-2.09239">
        <ele>55</ele>
        <time>2021-06-05T11:04:58.000Z</time>
      </trkpt>
      <trkpt lat="47.33395" lon="-2.09248">
        <ele>55</ele>
        <time>2021-06-05T11:05:00.000Z</time>
      </trkpt>
      <trkpt lat="47.33405" lon="-2.09259">
        <ele>56</ele>
        <time>2021-06-05T11:05:02.000Z</time>
      </trkpt>
      <trkpt lat="47.33414" lon="-2.0927">
        <ele>56</ele>
        <time>2021-06-05T11:05:04.000Z</time>
      </trkpt>
      <trkpt lat="47.33423" lon="-2.0928">
        <ele>56</ele>
        <time>2021-06-05T11:05:06.000Z</time>
      </trkpt>
      <trkpt lat="47.33432" lon="-2.09292">
        <ele>55</ele>
        <time>2021-06-05T11:05:08.000Z</time>
      </trkpt>
      <trkpt lat="47.3344" lon="-2.09303">
        <ele>56</ele>
        <time>2021-06-05T11:05:10.000Z</time>
      </trkpt>
      <trkpt lat="47.33449" lon="-2.09313">
        <ele>56</ele>
        <time>2021-06-05T11:05:12.000Z</time>
      </trkpt>
      <trkpt lat="47.33457" lon="-2.09324">
        <ele>56</ele>
        <time>2021-06-05T11:05:14.000Z</time>
      </trkpt>
      <trkpt lat="47.33467" lon="-2.09335">
        <ele>55</ele>
        <time>2021-06-05T11:05:16.000Z</time>
      </trkpt>
      <trkpt lat="47.33475" lon="-2.09346">
        <ele>55</ele>
        <time>2021-06-05T11:05:18.000Z</time>
      </trkpt>
      <trkpt lat="47.33484" lon="-2.09357">
        <ele>55</ele>
        <time>2021-06-05T11:05:20.000Z</time>
      </trkpt>
      <trkpt lat="47.33493" lon="-2.09367">
        <ele>55</ele>
        <time>2021-06-05T11:05:22.000Z</time>
      </trkpt>
      <trkpt lat="47.33502" lon="-2.09378">
        <ele>55</ele>
        <time>2021-06-05T11:05:24.000Z</time>
      </trkpt>
      <trkpt lat="47.3351" lon="-2.09389">
        <ele>55</ele>
        <time>2021-06-05T11:05:26.000Z</time>
      </trkpt>
      <trkpt lat="47.33519" lon="-2.094">
        <ele>54</ele>
        <time>2021-06-05T11:05:28.000Z</time>
      </trkpt>
      <trkpt lat="47.33528" lon="-2.09411">
        <ele>54</ele>
        <time>2021-06-05T11:05:30.000Z</time>
      </trkpt>
      <trkpt lat="47.33537" lon="-2.09422">
        <ele>55</ele>
        <time>2021-06-05T11:05:32.000Z</time>
      </trkpt>
      <trkpt lat="47.33545" lon="-2.09433">
        <ele>54</ele>
        <time>2021-06-05T11:05:34.000Z</time>
      </trkpt>
      <trkpt lat="47.33554" lon="-2.09443">
        <ele>54</ele>
        <time>2021-06-05T11:05:36.000Z</time>
      </trkpt>
      <trkpt lat="47.33563" lon="-2.09454">
        <ele>55</ele>
        <time>2021-06-05T11:05:38.000Z</time>
      </trkpt>
      <trkpt lat="47.33572" lon="-2.09465">
        <ele>54</ele>
        <time>2021-06-05T11:05:40.000Z</time>
      </trkpt>
      <trkpt lat="47.3358" lon="-2.09476">
        <ele>54</ele>
        <time>2021-06-05T11:05:42.000Z</time>
      </trkpt>
      <trkpt lat="47.33588" lon="-2.09487">
        <ele>54</ele>
        <time>2021-06-05T11:05:44.000Z</time>
      </trkpt>
      <trkpt lat="47.33596" lon="-2.09497">
        <ele>55</ele>
        <time>2021-06-05T11:05:46.000Z</time>
      </trkpt>
      <trkpt lat="47.33604" lon="-2.09506">
        <ele>55</ele>
        <time>2021-06-05T11:05:48.000Z</time>
      </trkpt>
      <trkpt lat="47.33614" lon="-2.09512">
        <ele>56</ele>
        <time>2021-06-05T11:05:50.000Z</time>
      </trkpt>
      <trkpt lat="47.33624" lon="-2.09515">
        <ele>57</ele>
        <time>2021-06-05T11:05:52.000Z</time>
      </trkpt>
      <trkpt lat="47.33633" lon="-2.09523">
        <ele>57</ele>
        <time>2021-06-05T11:05:54.000Z</time>
      </trkpt>
      <trkpt lat="47.3364" lon="-2.09535">
        <ele>57</ele>
        <time>2021-06-05T11:05:56.000Z</time>
      </trkpt>
      <trkpt lat="47.33642" lon="-2.09549">
        <ele>56</ele>
        <time>2021-06-05T11:05:58.000Z</time>
      </trkpt>
      <trkpt lat="47.3364" lon="-2.09564">
        <ele>56</ele>
        <time>2021-06-05T11:06:00.000Z</time>
      </trkpt>
      <trkpt lat="47.33637" lon="-2.09578">
        <ele>55</ele>
        <time>2021-06-05T11:06:03.000Z</time>
      </trkpt>
      <trkpt lat="47.3363" lon="-2.0959">
        <ele>55</ele>
        <time>2021-06-05T11:08:42.000Z</time>
      </trkpt>
      <trkpt lat="47.33617" lon="-2.09595">
        <ele>56</ele>
        <time>2021-06-05T11:08:45.000Z</time>
      </trkpt>
      <trkpt lat="47.33607" lon="-2.09597">
        <ele>56</ele>
        <time>2021-06-05T11:08:47.000Z</time>
      </trkpt>
      <trkpt lat="47.33596" lon="-2.09601">
        <ele>55</ele>
        <time>2021-06-05T11:08:49.000Z</time>
      </trkpt>
      <trkpt lat="47.33586" lon="-2.09608">
        <ele>55</ele>
        <time>2021-06-05T11:08:51.000Z</time>
      </trkpt>
      <trkpt lat="47.33577" lon="-2.09618">
        <ele>55</ele>
        <time>2021-06-05T11:08:53.000Z</time>
      </trkpt>
      <trkpt lat="47.33568" lon="-2.09627">
        <ele>56</ele>
        <time>2021-06-05T11:08:55.000Z</time>
      </trkpt>
      <trkpt lat="47.33555" lon="-2.09641">
        <ele>57</ele>
        <time>2021-06-05T11:08:58.000Z</time>
      </trkpt>
      <trkpt lat="47.33545" lon="-2.09652">
        <ele>57</ele>
        <time>2021-06-05T11:09:00.000Z</time>
      </trkpt>
      <trkpt lat="47.33537" lon="-2.09663">
        <ele>57</ele>
        <time>2021-06-05T11:09:02.000Z</time>
      </trkpt>
      <trkpt lat="47.33528" lon="-2.09674">
        <ele>57</ele>
        <time>2021-06-05T11:09:04.000Z</time>
      </trkpt>
      <trkpt lat="47.33519" lon="-2.09686">
        <ele>57</ele>
        <time>2021-06-05T11:09:06.000Z</time>
      </trkpt>
      <trkpt lat="47.3351" lon="-2.09697">
        <ele>56</ele>
        <time>2021-06-05T11:09:08.000Z</time>
      </trkpt>
      <trkpt lat="47.33501" lon="-2.09709">
        <ele>56</ele>
        <time>2021-06-05T11:09:10.000Z</time>
      </trkpt>
      <trkpt lat="47.33492" lon="-2.09721">
        <ele>55</ele>
        <time>2021-06-05T11:09:12.000Z</time>
      </trkpt>
      <trkpt lat="47.33483" lon="-2.09734">
        <ele>55</ele>
        <time>2021-06-05T11:09:14.000Z</time>
      </trkpt>
      <trkpt lat="47.33474" lon="-2.09745">
        <ele>54</ele>
        <time>2021-06-05T11:09:16.000Z</time>
      </trkpt>
      <trkpt lat="47.33465" lon="-2.09758">
        <ele>54</ele>
        <time>2021-06-05T11:09:18.000Z</time>
      </trkpt>
      <trkpt lat="47.33455" lon="-2.0977">
        <ele>54</ele>
        <time>2021-06-05T11:09:20.000Z</time>
      </trkpt>
      <trkpt lat="47.33447" lon="-2.09782">
        <ele>54</ele>
        <time>2021-06-05T11:09:22.000Z</time>
      </trkpt>
      <trkpt lat="47.33438" lon="-2.09794">
        <ele>54</ele>
        <time>2021-06-05T11:09:24.000Z</time>
      </trkpt>
      <trkpt lat="47.33429" lon="-2.09807">
        <ele>54</ele>
        <time>2021-06-05T11:09:26.000Z</time>
      </trkpt>
      <trkpt lat="47.3342" lon="-2.09819">
        <ele>54</ele>
        <time>2021-06-05T11:09:28.000Z</time>
      </trkpt>
      <trkpt lat="47.33411" lon="-2.09832">
        <ele>54</ele>
        <time>2021-06-05T11:09:30.000Z</time>
      </trkpt>
      <trkpt lat="47.33402" lon="-2.09845">
        <ele>54</ele>
        <time>2021-06-05T11:09:32.000Z</time>
      </trkpt>
      <trkpt lat="47.33393" lon="-2.09858">
        <ele>55</ele>
        <time>2021-06-05T11:09:34.000Z</time>
      </trkpt>
      <trkpt lat="47.33384" lon="-2.0987">
        <ele>54</ele>
        <time>2021-06-05T11:09:36.000Z</time>
      </trkpt>
      <trkpt lat="47.33375" lon="-2.09883">
        <ele>54</ele>
        <time>2021-06-05T11:09:38.000Z</time>
      </trkpt>
      <trkpt lat="47.33367" lon="-2.09895">
        <ele>54</ele>
        <time>2021-06-05T11:09:40.000Z</time>
      </trkpt>
      <trkpt lat="47.33358" lon="-2.09907">
        <ele>55</ele>
        <time>2021-06-05T11:09:42.000Z</time>
      </trkpt>
      <trkpt lat="47.33349" lon="-2.09918">
        <ele>55</ele>
        <time>2021-06-05T11:09:44.000Z</time>
      </trkpt>
      <trkpt lat="47.33341" lon="-2.0993">
        <ele>55</ele>
        <time>2021-06-05T11:09:46.000Z</time>
      </trkpt>
      <trkpt lat="47.33332" lon="-2.09941">
        <ele>56</ele>
        <time>2021-06-05T11:09:48.000Z</time>
      </trkpt>
      <trkpt lat="47.33325" lon="-2.09952">
        <ele>56</ele>
        <time>2021-06-05T11:09:50.000Z</time>
      </trkpt>
      <trkpt lat="47.33317" lon="-2.09963">
        <ele>57</ele>
        <time>2021-06-05T11:09:52.000Z</time>
      </trkpt>
      <trkpt lat="47.33307" lon="-2.09975">
        <ele>57</ele>
        <time>2021-06-05T11:09:55.000Z</time>
      </trkpt>
      <trkpt lat="47.33297" lon="-2.09985">
        <ele>57</ele>
        <time>2021-06-05T11:09:58.000Z</time>
      </trkpt>
      <trkpt lat="47.33288" lon="-2.09998">
        <ele>58</ele>
        <time>2021-06-05T11:10:01.000Z</time>
      </trkpt>
      <trkpt lat="47.33279" lon="-2.10007">
        <ele>58</ele>
        <time>2021-06-05T11:10:03.000Z</time>
      </trkpt>
      <trkpt lat="47.3327" lon="-2.10017">
        <ele>58</ele>
        <time>2021-06-05T11:10:05.000Z</time>
      </trkpt>
      <trkpt lat="47.33261" lon="-2.10027">
        <ele>58</ele>
        <time>2021-06-05T11:10:07.000Z</time>
      </trkpt>
      <trkpt lat="47.33253" lon="-2.10038">
        <ele>58</ele>
        <time>2021-06-05T11:10:09.000Z</time>
      </trkpt>
      <trkpt lat="47.33245" lon="-2.10049">
        <ele>58</ele>
        <time>2021-06-05T11:10:11.000Z</time>
      </trkpt>
      <trkpt lat="47.33236" lon="-2.10061">
        <ele>57</ele>
        <time>2021-06-05T11:10:13.000Z</time>
      </trkpt>
      <trkpt lat="47.33228" lon="-2.10073">
        <ele>57</ele>
        <time>2021-06-05T11:10:15.000Z</time>
      </trkpt>
      <trkpt lat="47.33219" lon="-2.10086">
        <ele>57</ele>
        <time>2021-06-05T11:10:17.000Z</time>
      </trkpt>
      <trkpt lat="47.33212" lon="-2.101">
        <ele>57</ele>
        <time>2021-06-05T11:10:19.000Z</time>
      </trkpt>
      <trkpt lat="47.33204" lon="-2.10114">
        <ele>56</ele>
        <time>2021-06-05T11:10:21.000Z</time>
      </trkpt>
      <trkpt lat="47.33195" lon="-2.10128">
        <ele>56</ele>
        <time>2021-06-05T11:10:23.000Z</time>
      </trkpt>
      <trkpt lat="47.33187" lon="-2.10142">
        <ele>56</ele>
        <time>2021-06-05T11:10:25.000Z</time>
      </trkpt>
      <trkpt lat="47.33179" lon="-2.10156">
        <ele>56</ele>
        <time>2021-06-05T11:10:27.000Z</time>
      </trkpt>
      <trkpt lat="47.33169" lon="-2.1017">
        <ele>55</ele>
        <time>2021-06-05T11:10:29.000Z</time>
      </trkpt>
      <trkpt lat="47.3316" lon="-2.10182">
        <ele>56</ele>
        <time>2021-06-05T11:10:31.000Z</time>
      </trkpt>
      <trkpt lat="47.3315" lon="-2.10193">
        <ele>56</ele>
        <time>2021-06-05T11:10:33.000Z</time>
      </trkpt>
      <trkpt lat="47.3314" lon="-2.10204">
        <ele>56</ele>
        <time>2021-06-05T11:10:35.000Z</time>
      </trkpt>
      <trkpt lat="47.3313" lon="-2.10215">
        <ele>55</ele>
        <time>2021-06-05T11:10:37.000Z</time>
      </trkpt>
      <trkpt lat="47.3312" lon="-2.10226">
        <ele>55</ele>
        <time>2021-06-05T11:10:39.000Z</time>
      </trkpt>
      <trkpt lat="47.3311" lon="-2.10237">
        <ele>56</ele>
        <time>2021-06-05T11:10:41.000Z</time>
      </trkpt>
      <trkpt lat="47.331" lon="-2.10248">
        <ele>56</ele>
        <time>2021-06-05T11:10:43.000Z</time>
      </trkpt>
      <trkpt lat="47.3309" lon="-2.10259">
        <ele>55</ele>
        <time>2021-06-05T11:10:45.000Z</time>
      </trkpt>
      <trkpt lat="47.33081" lon="-2.1027">
        <ele>55</ele>
        <time>2021-06-05T11:10:47.000Z</time>
      </trkpt>
      <trkpt lat="47.33071" lon="-2.10281">
        <ele>55</ele>
        <time>2021-06-05T11:10:49.000Z</time>
      </trkpt>
      <trkpt lat="47.33061" lon="-2.10292">
        <ele>55</ele>
        <time>2021-06-05T11:10:51.000Z</time>
      </trkpt>
      <trkpt lat="47.33052" lon="-2.10303">
        <ele>56</ele>
        <time>2021-06-05T11:10:53.000Z</time>
      </trkpt>
      <trkpt lat="47.33043" lon="-2.10315">
        <ele>56</ele>
        <time>2021-06-05T11:10:55.000Z</time>
      </trkpt>
      <trkpt lat="47.33034" lon="-2.10326">
        <ele>57</ele>
        <time>2021-06-05T11:10:57.000Z</time>
      </trkpt>
      <trkpt lat="47.33024" lon="-2.10337">
        <ele>57</ele>
        <time>2021-06-05T11:10:59.000Z</time>
      </trkpt>
      <trkpt lat="47.33015" lon="-2.10348">
        <ele>58</ele>
        <time>2021-06-05T11:11:01.000Z</time>
      </trkpt>
      <trkpt lat="47.33006" lon="-2.10359">
        <ele>59</ele>
        <time>2021-06-05T11:11:03.000Z</time>
      </trkpt>
      <trkpt lat="47.32997" lon="-2.10369">
        <ele>59</ele>
        <time>2021-06-05T11:11:05.000Z</time>
      </trkpt>
      <trkpt lat="47.32988" lon="-2.1038">
        <ele>59</ele>
        <time>2021-06-05T11:11:07.000Z</time>
      </trkpt>
      <trkpt lat="47.32979" lon="-2.10391">
        <ele>59</ele>
        <time>2021-06-05T11:11:09.000Z</time>
      </trkpt>
      <trkpt lat="47.3297" lon="-2.10402">
        <ele>58</ele>
        <time>2021-06-05T11:11:11.000Z</time>
      </trkpt>
      <trkpt lat="47.32962" lon="-2.10414">
        <ele>58</ele>
        <time>2021-06-05T11:11:13.000Z</time>
      </trkpt>
      <trkpt lat="47.32953" lon="-2.10425">
        <ele>58</ele>
        <time>2021-06-05T11:11:15.000Z</time>
      </trkpt>
      <trkpt lat="47.32945" lon="-2.10436">
        <ele>58</ele>
        <time>2021-06-05T11:11:17.000Z</time>
      </trkpt>
      <trkpt lat="47.32936" lon="-2.10448">
        <ele>58</ele>
        <time>2021-06-05T11:11:19.000Z</time>
      </trkpt>
      <trkpt lat="47.32927" lon="-2.1046">
        <ele>58</ele>
        <time>2021-06-05T11:11:21.000Z</time>
      </trkpt>
      <trkpt lat="47.32918" lon="-2.10471">
        <ele>58</ele>
        <time>2021-06-05T11:11:23.000Z</time>
      </trkpt>
      <trkpt lat="47.32909" lon="-2.10482">
        <ele>58</ele>
        <time>2021-06-05T11:11:25.000Z</time>
      </trkpt>
      <trkpt lat="47.32901" lon="-2.10494">
        <ele>58</ele>
        <time>2021-06-05T11:11:27.000Z</time>
      </trkpt>
      <trkpt lat="47.32892" lon="-2.10505">
        <ele>58</ele>
        <time>2021-06-05T11:11:29.000Z</time>
      </trkpt>
      <trkpt lat="47.32883" lon="-2.10517">
        <ele>58</ele>
        <time>2021-06-05T11:11:31.000Z</time>
      </trkpt>
      <trkpt lat="47.32874" lon="-2.10529">
        <ele>57</ele>
        <time>2021-06-05T11:11:33.000Z</time>
      </trkpt>
      <trkpt lat="47.32864" lon="-2.10542">
        <ele>57</ele>
        <time>2021-06-05T11:11:35.000Z</time>
      </trkpt>
      <trkpt lat="47.32854" lon="-2.10554">
        <ele>56</ele>
        <time>2021-06-05T11:11:37.000Z</time>
      </trkpt>
      <trkpt lat="47.32844" lon="-2.10567">
        <ele>56</ele>
        <time>2021-06-05T11:11:39.000Z</time>
      </trkpt>
      <trkpt lat="47.32834" lon="-2.10579">
        <ele>56</ele>
        <time>2021-06-05T11:11:41.000Z</time>
      </trkpt>
      <trkpt lat="47.32823" lon="-2.10592">
        <ele>55</ele>
        <time>2021-06-05T11:11:43.000Z</time>
      </trkpt>
      <trkpt lat="47.32813" lon="-2.10604">
        <ele>55</ele>
        <time>2021-06-05T11:11:45.000Z</time>
      </trkpt>
      <trkpt lat="47.32802" lon="-2.10616">
        <ele>55</ele>
        <time>2021-06-05T11:11:47.000Z</time>
      </trkpt>
      <trkpt lat="47.32792" lon="-2.10628">
        <ele>55</ele>
        <time>2021-06-05T11:11:49.000Z</time>
      </trkpt>
      <trkpt lat="47.32781" lon="-2.10641">
        <ele>55</ele>
        <time>2021-06-05T11:11:51.000Z</time>
      </trkpt>
      <trkpt lat="47.32771" lon="-2.10652">
        <ele>55</ele>
        <time>2021-06-05T11:11:53.000Z</time>
      </trkpt>
      <trkpt lat="47.3276" lon="-2.10664">
        <ele>54</ele>
        <time>2021-06-05T11:11:55.000Z</time>
      </trkpt>
      <trkpt lat="47.3275" lon="-2.10676">
        <ele>54</ele>
        <time>2021-06-05T11:11:57.000Z</time>
      </trkpt>
      <trkpt lat="47.3274" lon="-2.10688">
        <ele>54</ele>
        <time>2021-06-05T11:11:59.000Z</time>
      </trkpt>
      <trkpt lat="47.32729" lon="-2.10698">
        <ele>54</ele>
        <time>2021-06-05T11:12:01.000Z</time>
      </trkpt>
      <trkpt lat="47.3272" lon="-2.10711">
        <ele>54</ele>
        <time>2021-06-05T11:12:03.000Z</time>
      </trkpt>
      <trkpt lat="47.3271" lon="-2.10723">
        <ele>54</ele>
        <time>2021-06-05T11:12:05.000Z</time>
      </trkpt>
      <trkpt lat="47.327" lon="-2.10734">
        <ele>54</ele>
        <time>2021-06-05T11:12:07.000Z</time>
      </trkpt>
      <trkpt lat="47.32691" lon="-2.10744">
        <ele>54</ele>
        <time>2021-06-05T11:12:09.000Z</time>
      </trkpt>
      <trkpt lat="47.32681" lon="-2.10755">
        <ele>54</ele>
        <time>2021-06-05T11:12:11.000Z</time>
      </trkpt>
      <trkpt lat="47.32671" lon="-2.10767">
        <ele>54</ele>
        <time>2021-06-05T11:12:13.000Z</time>
      </trkpt>
      <trkpt lat="47.32661" lon="-2.10778">
        <ele>54</ele>
        <time>2021-06-05T11:12:15.000Z</time>
      </trkpt>
      <trkpt lat="47.32652" lon="-2.10789">
        <ele>54</ele>
        <time>2021-06-05T11:12:17.000Z</time>
      </trkpt>
      <trkpt lat="47.32642" lon="-2.10801">
        <ele>53</ele>
        <time>2021-06-05T11:12:19.000Z</time>
      </trkpt>
      <trkpt lat="47.32633" lon="-2.10813">
        <ele>53</ele>
        <time>2021-06-05T11:12:21.000Z</time>
      </trkpt>
      <trkpt lat="47.32623" lon="-2.10825">
        <ele>53</ele>
        <time>2021-06-05T11:12:23.000Z</time>
      </trkpt>
      <trkpt lat="47.32614" lon="-2.10836">
        <ele>53</ele>
        <time>2021-06-05T11:12:25.000Z</time>
      </trkpt>
      <trkpt lat="47.32605" lon="-2.10849">
        <ele>54</ele>
        <time>2021-06-05T11:12:27.000Z</time>
      </trkpt>
      <trkpt lat="47.32597" lon="-2.10859">
        <ele>55</ele>
        <time>2021-06-05T11:12:29.000Z</time>
      </trkpt>
      <trkpt lat="47.32589" lon="-2.10869">
        <ele>55</ele>
        <time>2021-06-05T11:12:31.000Z</time>
      </trkpt>
      <trkpt lat="47.32577" lon="-2.10873">
        <ele>56</ele>
        <time>2021-06-05T11:12:34.000Z</time>
      </trkpt>
      <trkpt lat="47.3257" lon="-2.10866">
        <ele>56</ele>
        <time>2021-06-05T11:12:36.000Z</time>
      </trkpt>
      <trkpt lat="47.32558" lon="-2.10869">
        <ele>56</ele>
        <time>2021-06-05T11:12:39.000Z</time>
      </trkpt>
      <trkpt lat="47.3255" lon="-2.10879">
        <ele>56</ele>
        <time>2021-06-05T11:12:41.000Z</time>
      </trkpt>
      <trkpt lat="47.32541" lon="-2.10888">
        <ele>57</ele>
        <time>2021-06-05T11:12:43.000Z</time>
      </trkpt>
      <trkpt lat="47.32532" lon="-2.10898">
        <ele>57</ele>
        <time>2021-06-05T11:12:45.000Z</time>
      </trkpt>
      <trkpt lat="47.32523" lon="-2.10907">
        <ele>57</ele>
        <time>2021-06-05T11:12:47.000Z</time>
      </trkpt>
      <trkpt lat="47.32515" lon="-2.10917">
        <ele>58</ele>
        <time>2021-06-05T11:12:49.000Z</time>
      </trkpt>
      <trkpt lat="47.32506" lon="-2.10928">
        <ele>58</ele>
        <time>2021-06-05T11:12:51.000Z</time>
      </trkpt>
      <trkpt lat="47.32497" lon="-2.10939">
        <ele>58</ele>
        <time>2021-06-05T11:12:53.000Z</time>
      </trkpt>
      <trkpt lat="47.32489" lon="-2.1095">
        <ele>59</ele>
        <time>2021-06-05T11:12:55.000Z</time>
      </trkpt>
      <trkpt lat="47.3248" lon="-2.1096">
        <ele>59</ele>
        <time>2021-06-05T11:12:57.000Z</time>
      </trkpt>
      <trkpt lat="47.32471" lon="-2.1097">
        <ele>59</ele>
        <time>2021-06-05T11:12:59.000Z</time>
      </trkpt>
      <trkpt lat="47.32461" lon="-2.10981">
        <ele>59</ele>
        <time>2021-06-05T11:13:01.000Z</time>
      </trkpt>
      <trkpt lat="47.32452" lon="-2.10991">
        <ele>59</ele>
        <time>2021-06-05T11:13:03.000Z</time>
      </trkpt>
      <trkpt lat="47.32444" lon="-2.11001">
        <ele>59</ele>
        <time>2021-06-05T11:13:05.000Z</time>
      </trkpt>
      <trkpt lat="47.32435" lon="-2.11011">
        <ele>60</ele>
        <time>2021-06-05T11:13:07.000Z</time>
      </trkpt>
      <trkpt lat="47.32427" lon="-2.1102">
        <ele>60</ele>
        <time>2021-06-05T11:13:09.000Z</time>
      </trkpt>
      <trkpt lat="47.32417" lon="-2.11028">
        <ele>60</ele>
        <time>2021-06-05T11:13:11.000Z</time>
      </trkpt>
      <trkpt lat="47.32409" lon="-2.11038">
        <ele>60</ele>
        <time>2021-06-05T11:13:13.000Z</time>
      </trkpt>
      <trkpt lat="47.324" lon="-2.11048">
        <ele>60</ele>
        <time>2021-06-05T11:13:15.000Z</time>
      </trkpt>
      <trkpt lat="47.32392" lon="-2.11058">
        <ele>61</ele>
        <time>2021-06-05T11:13:17.000Z</time>
      </trkpt>
      <trkpt lat="47.32384" lon="-2.11068">
        <ele>60</ele>
        <time>2021-06-05T11:13:19.000Z</time>
      </trkpt>
      <trkpt lat="47.32376" lon="-2.11077">
        <ele>60</ele>
        <time>2021-06-05T11:13:21.000Z</time>
      </trkpt>
      <trkpt lat="47.32367" lon="-2.11087">
        <ele>61</ele>
        <time>2021-06-05T11:13:23.000Z</time>
      </trkpt>
      <trkpt lat="47.32359" lon="-2.11097">
        <ele>61</ele>
        <time>2021-06-05T11:13:25.000Z</time>
      </trkpt>
      <trkpt lat="47.3235" lon="-2.11107">
        <ele>61</ele>
        <time>2021-06-05T11:13:27.000Z</time>
      </trkpt>
      <trkpt lat="47.32342" lon="-2.11117">
        <ele>60</ele>
        <time>2021-06-05T11:13:29.000Z</time>
      </trkpt>
      <trkpt lat="47.32332" lon="-2.1113">
        <ele>59</ele>
        <time>2021-06-05T11:13:31.000Z</time>
      </trkpt>
      <trkpt lat="47.32321" lon="-2.11143">
        <ele>59</ele>
        <time>2021-06-05T11:13:33.000Z</time>
      </trkpt>
      <trkpt lat="47.32311" lon="-2.11156">
        <ele>58</ele>
        <time>2021-06-05T11:13:35.000Z</time>
      </trkpt>
      <trkpt lat="47.323" lon="-2.11168">
        <ele>58</ele>
        <time>2021-06-05T11:13:37.000Z</time>
      </trkpt>
      <trkpt lat="47.3229" lon="-2.11179">
        <ele>58</ele>
        <time>2021-06-05T11:13:39.000Z</time>
      </trkpt>
      <trkpt lat="47.3228" lon="-2.11191">
        <ele>58</ele>
        <time>2021-06-05T11:13:41.000Z</time>
      </trkpt>
      <trkpt lat="47.3227" lon="-2.11202">
        <ele>58</ele>
        <time>2021-06-05T11:13:43.000Z</time>
      </trkpt>
      <trkpt lat="47.32259" lon="-2.11214">
        <ele>58</ele>
        <time>2021-06-05T11:13:45.000Z</time>
      </trkpt>
      <trkpt lat="47.32248" lon="-2.11227">
        <ele>57</ele>
        <time>2021-06-05T11:13:47.000Z</time>
      </trkpt>
      <trkpt lat="47.32237" lon="-2.11241">
        <ele>56</ele>
        <time>2021-06-05T11:13:49.000Z</time>
      </trkpt>
      <trkpt lat="47.32226" lon="-2.11254">
        <ele>56</ele>
        <time>2021-06-05T11:13:51.000Z</time>
      </trkpt>
      <trkpt lat="47.32215" lon="-2.11268">
        <ele>56</ele>
        <time>2021-06-05T11:13:53.000Z</time>
      </trkpt>
      <trkpt lat="47.32204" lon="-2.11281">
        <ele>55</ele>
        <time>2021-06-05T11:13:55.000Z</time>
      </trkpt>
      <trkpt lat="47.32193" lon="-2.11294">
        <ele>55</ele>
        <time>2021-06-05T11:13:57.000Z</time>
      </trkpt>
      <trkpt lat="47.32181" lon="-2.11307">
        <ele>54</ele>
        <time>2021-06-05T11:13:59.000Z</time>
      </trkpt>
      <trkpt lat="47.3217" lon="-2.11319">
        <ele>54</ele>
        <time>2021-06-05T11:14:01.000Z</time>
      </trkpt>
      <trkpt lat="47.32159" lon="-2.11332">
        <ele>54</ele>
        <time>2021-06-05T11:14:03.000Z</time>
      </trkpt>
      <trkpt lat="47.32149" lon="-2.11344">
        <ele>54</ele>
        <time>2021-06-05T11:14:05.000Z</time>
      </trkpt>
      <trkpt lat="47.32139" lon="-2.11356">
        <ele>54</ele>
        <time>2021-06-05T11:14:07.000Z</time>
      </trkpt>
      <trkpt lat="47.32128" lon="-2.11368">
        <ele>54</ele>
        <time>2021-06-05T11:14:09.000Z</time>
      </trkpt>
      <trkpt lat="47.32118" lon="-2.1138">
        <ele>54</ele>
        <time>2021-06-05T11:14:11.000Z</time>
      </trkpt>
      <trkpt lat="47.32108" lon="-2.11392">
        <ele>54</ele>
        <time>2021-06-05T11:14:13.000Z</time>
      </trkpt>
      <trkpt lat="47.32098" lon="-2.11404">
        <ele>54</ele>
        <time>2021-06-05T11:14:15.000Z</time>
      </trkpt>
      <trkpt lat="47.32087" lon="-2.11416">
        <ele>54</ele>
        <time>2021-06-05T11:14:17.000Z</time>
      </trkpt>
      <trkpt lat="47.32077" lon="-2.11427">
        <ele>54</ele>
        <time>2021-06-05T11:14:19.000Z</time>
      </trkpt>
      <trkpt lat="47.32067" lon="-2.11439">
        <ele>54</ele>
        <time>2021-06-05T11:14:21.000Z</time>
      </trkpt>
      <trkpt lat="47.32057" lon="-2.11451">
        <ele>53</ele>
        <time>2021-06-05T11:14:23.000Z</time>
      </trkpt>
      <trkpt lat="47.32047" lon="-2.11462">
        <ele>53</ele>
        <time>2021-06-05T11:14:25.000Z</time>
      </trkpt>
      <trkpt lat="47.32038" lon="-2.11474">
        <ele>53</ele>
        <time>2021-06-05T11:14:27.000Z</time>
      </trkpt>
      <trkpt lat="47.32028" lon="-2.11486">
        <ele>53</ele>
        <time>2021-06-05T11:14:29.000Z</time>
      </trkpt>
      <trkpt lat="47.32018" lon="-2.11497">
        <ele>53</ele>
        <time>2021-06-05T11:14:31.000Z</time>
      </trkpt>
      <trkpt lat="47.32008" lon="-2.11508">
        <ele>53</ele>
        <time>2021-06-05T11:14:33.000Z</time>
      </trkpt>
      <trkpt lat="47.31998" lon="-2.11519">
        <ele>53</ele>
        <time>2021-06-05T11:14:35.000Z</time>
      </trkpt>
      <trkpt lat="47.31988" lon="-2.1153">
        <ele>53</ele>
        <time>2021-06-05T11:14:37.000Z</time>
      </trkpt>
      <trkpt lat="47.31978" lon="-2.11542">
        <ele>53</ele>
        <time>2021-06-05T11:14:39.000Z</time>
      </trkpt>
      <trkpt lat="47.31969" lon="-2.11555">
        <ele>53</ele>
        <time>2021-06-05T11:14:41.000Z</time>
      </trkpt>
      <trkpt lat="47.3196" lon="-2.11566">
        <ele>53</ele>
        <time>2021-06-05T11:14:43.000Z</time>
      </trkpt>
      <trkpt lat="47.3195" lon="-2.11577">
        <ele>52</ele>
        <time>2021-06-05T11:14:45.000Z</time>
      </trkpt>
      <trkpt lat="47.31941" lon="-2.11587">
        <ele>52</ele>
        <time>2021-06-05T11:14:47.000Z</time>
      </trkpt>
      <trkpt lat="47.31932" lon="-2.11597">
        <ele>52</ele>
        <time>2021-06-05T11:14:49.000Z</time>
      </trkpt>
      <trkpt lat="47.31921" lon="-2.11601">
        <ele>53</ele>
        <time>2021-06-05T11:14:51.000Z</time>
      </trkpt>
      <trkpt lat="47.31913" lon="-2.11612">
        <ele>52</ele>
        <time>2021-06-05T11:14:53.000Z</time>
      </trkpt>
      <trkpt lat="47.31905" lon="-2.11623">
        <ele>52</ele>
        <time>2021-06-05T11:14:55.000Z</time>
      </trkpt>
      <trkpt lat="47.31897" lon="-2.11635">
        <ele>53</ele>
        <time>2021-06-05T11:14:57.000Z</time>
      </trkpt>
      <trkpt lat="47.31892" lon="-2.11651">
        <ele>53</ele>
        <time>2021-06-05T11:14:59.000Z</time>
      </trkpt>
      <trkpt lat="47.31892" lon="-2.11669">
        <ele>53</ele>
        <time>2021-06-05T11:15:01.000Z</time>
      </trkpt>
      <trkpt lat="47.31892" lon="-2.11687">
        <ele>53</ele>
        <time>2021-06-05T11:15:03.000Z</time>
      </trkpt>
      <trkpt lat="47.31889" lon="-2.11705">
        <ele>53</ele>
        <time>2021-06-05T11:15:05.000Z</time>
      </trkpt>
      <trkpt lat="47.31883" lon="-2.1172">
        <ele>53</ele>
        <time>2021-06-05T11:15:07.000Z</time>
      </trkpt>
      <trkpt lat="47.31874" lon="-2.11732">
        <ele>53</ele>
        <time>2021-06-05T11:15:09.000Z</time>
      </trkpt>
      <trkpt lat="47.31863" lon="-2.1174">
        <ele>53</ele>
        <time>2021-06-05T11:15:11.000Z</time>
      </trkpt>
      <trkpt lat="47.31851" lon="-2.11744">
        <ele>53</ele>
        <time>2021-06-05T11:15:13.000Z</time>
      </trkpt>
      <trkpt lat="47.31839" lon="-2.11743">
        <ele>53</ele>
        <time>2021-06-05T11:15:15.000Z</time>
      </trkpt>
      <trkpt lat="47.31827" lon="-2.11738">
        <ele>53</ele>
        <time>2021-06-05T11:15:17.000Z</time>
      </trkpt>
      <trkpt lat="47.31815" lon="-2.11737">
        <ele>53</ele>
        <time>2021-06-05T11:15:19.000Z</time>
      </trkpt>
      <trkpt lat="47.31804" lon="-2.11745">
        <ele>53</ele>
        <time>2021-06-05T11:15:21.000Z</time>
      </trkpt>
      <trkpt lat="47.31795" lon="-2.11759">
        <ele>53</ele>
        <time>2021-06-05T11:15:23.000Z</time>
      </trkpt>
      <trkpt lat="47.31786" lon="-2.11769">
        <ele>53</ele>
        <time>2021-06-05T11:15:25.000Z</time>
      </trkpt>
      <trkpt lat="47.31776" lon="-2.1178">
        <ele>53</ele>
        <time>2021-06-05T11:15:27.000Z</time>
      </trkpt>
      <trkpt lat="47.31766" lon="-2.1179">
        <ele>53</ele>
        <time>2021-06-05T11:15:29.000Z</time>
      </trkpt>
      <trkpt lat="47.31756" lon="-2.11801">
        <ele>53</ele>
        <time>2021-06-05T11:15:31.000Z</time>
      </trkpt>
      <trkpt lat="47.31747" lon="-2.11812">
        <ele>53</ele>
        <time>2021-06-05T11:15:33.000Z</time>
      </trkpt>
      <trkpt lat="47.31737" lon="-2.11823">
        <ele>53</ele>
        <time>2021-06-05T11:15:35.000Z</time>
      </trkpt>
      <trkpt lat="47.31727" lon="-2.11833">
        <ele>53</ele>
        <time>2021-06-05T11:15:37.000Z</time>
      </trkpt>
      <trkpt lat="47.31718" lon="-2.11844">
        <ele>53</ele>
        <time>2021-06-05T11:15:39.000Z</time>
      </trkpt>
      <trkpt lat="47.31708" lon="-2.11854">
        <ele>53</ele>
        <time>2021-06-05T11:15:41.000Z</time>
      </trkpt>
      <trkpt lat="47.31698" lon="-2.11865">
        <ele>53</ele>
        <time>2021-06-05T11:15:43.000Z</time>
      </trkpt>
      <trkpt lat="47.31689" lon="-2.11876">
        <ele>53</ele>
        <time>2021-06-05T11:15:45.000Z</time>
      </trkpt>
      <trkpt lat="47.3168" lon="-2.11888">
        <ele>53</ele>
        <time>2021-06-05T11:15:47.000Z</time>
      </trkpt>
      <trkpt lat="47.3167" lon="-2.11898">
        <ele>53</ele>
        <time>2021-06-05T11:15:49.000Z</time>
      </trkpt>
      <trkpt lat="47.31661" lon="-2.1191">
        <ele>53</ele>
        <time>2021-06-05T11:15:51.000Z</time>
      </trkpt>
      <trkpt lat="47.31652" lon="-2.11921">
        <ele>53</ele>
        <time>2021-06-05T11:15:53.000Z</time>
      </trkpt>
      <trkpt lat="47.31643" lon="-2.11933">
        <ele>53</ele>
        <time>2021-06-05T11:15:55.000Z</time>
      </trkpt>
      <trkpt lat="47.31634" lon="-2.11944">
        <ele>53</ele>
        <time>2021-06-05T11:15:57.000Z</time>
      </trkpt>
      <trkpt lat="47.31625" lon="-2.11956">
        <ele>53</ele>
        <time>2021-06-05T11:15:59.000Z</time>
      </trkpt>
      <trkpt lat="47.31617" lon="-2.11967">
        <ele>53</ele>
        <time>2021-06-05T11:16:01.000Z</time>
      </trkpt>
      <trkpt lat="47.31609" lon="-2.11979">
        <ele>53</ele>
        <time>2021-06-05T11:16:03.000Z</time>
      </trkpt>
      <trkpt lat="47.31601" lon="-2.1199">
        <ele>53</ele>
        <time>2021-06-05T11:16:05.000Z</time>
      </trkpt>
      <trkpt lat="47.31593" lon="-2.12003">
        <ele>53</ele>
        <time>2021-06-05T11:16:07.000Z</time>
      </trkpt>
      <trkpt lat="47.31585" lon="-2.12016">
        <ele>53</ele>
        <time>2021-06-05T11:16:09.000Z</time>
      </trkpt>
      <trkpt lat="47.31577" lon="-2.12029">
        <ele>53</ele>
        <time>2021-06-05T11:16:11.000Z</time>
      </trkpt>
      <trkpt lat="47.31569" lon="-2.12041">
        <ele>53</ele>
        <time>2021-06-05T11:16:13.000Z</time>
      </trkpt>
      <trkpt lat="47.31561" lon="-2.12054">
        <ele>53</ele>
        <time>2021-06-05T11:16:15.000Z</time>
      </trkpt>
      <trkpt lat="47.31554" lon="-2.12066">
        <ele>53</ele>
        <time>2021-06-05T11:16:17.000Z</time>
      </trkpt>
      <trkpt lat="47.31546" lon="-2.12079">
        <ele>53</ele>
        <time>2021-06-05T11:16:19.000Z</time>
      </trkpt>
      <trkpt lat="47.31539" lon="-2.12093">
        <ele>53</ele>
        <time>2021-06-05T11:16:21.000Z</time>
      </trkpt>
      <trkpt lat="47.31531" lon="-2.12107">
        <ele>53</ele>
        <time>2021-06-05T11:16:23.000Z</time>
      </trkpt>
      <trkpt lat="47.31524" lon="-2.12121">
        <ele>52</ele>
        <time>2021-06-05T11:16:25.000Z</time>
      </trkpt>
      <trkpt lat="47.31513" lon="-2.12142">
        <ele>52</ele>
        <time>2021-06-05T11:16:28.000Z</time>
      </trkpt>
      <trkpt lat="47.31506" lon="-2.12156">
        <ele>52</ele>
        <time>2021-06-05T11:16:30.000Z</time>
      </trkpt>
      <trkpt lat="47.31498" lon="-2.12171">
        <ele>52</ele>
        <time>2021-06-05T11:16:32.000Z</time>
      </trkpt>
      <trkpt lat="47.31491" lon="-2.12185">
        <ele>52</ele>
        <time>2021-06-05T11:16:34.000Z</time>
      </trkpt>
      <trkpt lat="47.31484" lon="-2.122">
        <ele>52</ele>
        <time>2021-06-05T11:16:36.000Z</time>
      </trkpt>
      <trkpt lat="47.31476" lon="-2.12215">
        <ele>52</ele>
        <time>2021-06-05T11:16:38.000Z</time>
      </trkpt>
      <trkpt lat="47.31469" lon="-2.12229">
        <ele>51</ele>
        <time>2021-06-05T11:16:40.000Z</time>
      </trkpt>
      <trkpt lat="47.31462" lon="-2.12244">
        <ele>52</ele>
        <time>2021-06-05T11:16:42.000Z</time>
      </trkpt>
      <trkpt lat="47.31455" lon="-2.12258">
        <ele>52</ele>
        <time>2021-06-05T11:16:44.000Z</time>
      </trkpt>
      <trkpt lat="47.31449" lon="-2.12273">
        <ele>52</ele>
        <time>2021-06-05T11:16:46.000Z</time>
      </trkpt>
      <trkpt lat="47.31443" lon="-2.12287">
        <ele>52</ele>
        <time>2021-06-05T11:16:48.000Z</time>
      </trkpt>
      <trkpt lat="47.31435" lon="-2.12301">
        <ele>52</ele>
        <time>2021-06-05T11:16:50.000Z</time>
      </trkpt>
      <trkpt lat="47.31429" lon="-2.12315">
        <ele>52</ele>
        <time>2021-06-05T11:16:52.000Z</time>
      </trkpt>
      <trkpt lat="47.31422" lon="-2.12329">
        <ele>53</ele>
        <time>2021-06-05T11:16:54.000Z</time>
      </trkpt>
      <trkpt lat="47.31415" lon="-2.12343">
        <ele>53</ele>
        <time>2021-06-05T11:16:56.000Z</time>
      </trkpt>
      <trkpt lat="47.31408" lon="-2.12358">
        <ele>53</ele>
        <time>2021-06-05T11:16:58.000Z</time>
      </trkpt>
      <trkpt lat="47.31401" lon="-2.12372">
        <ele>53</ele>
        <time>2021-06-05T11:17:00.000Z</time>
      </trkpt>
      <trkpt lat="47.31395" lon="-2.12386">
        <ele>53</ele>
        <time>2021-06-05T11:17:02.000Z</time>
      </trkpt>
      <trkpt lat="47.31388" lon="-2.124">
        <ele>53</ele>
        <time>2021-06-05T11:17:04.000Z</time>
      </trkpt>
      <trkpt lat="47.31381" lon="-2.12414">
        <ele>53</ele>
        <time>2021-06-05T11:17:06.000Z</time>
      </trkpt>
      <trkpt lat="47.31375" lon="-2.12429">
        <ele>53</ele>
        <time>2021-06-05T11:17:08.000Z</time>
      </trkpt>
      <trkpt lat="47.31368" lon="-2.12443">
        <ele>53</ele>
        <time>2021-06-05T11:17:10.000Z</time>
      </trkpt>
      <trkpt lat="47.31361" lon="-2.12457">
        <ele>52</ele>
        <time>2021-06-05T11:17:12.000Z</time>
      </trkpt>
      <trkpt lat="47.31354" lon="-2.12472">
        <ele>53</ele>
        <time>2021-06-05T11:17:14.000Z</time>
      </trkpt>
      <trkpt lat="47.31347" lon="-2.12486">
        <ele>52</ele>
        <time>2021-06-05T11:17:16.000Z</time>
      </trkpt>
      <trkpt lat="47.31341" lon="-2.125">
        <ele>52</ele>
        <time>2021-06-05T11:17:18.000Z</time>
      </trkpt>
      <trkpt lat="47.31334" lon="-2.12514">
        <ele>52</ele>
        <time>2021-06-05T11:17:20.000Z</time>
      </trkpt>
      <trkpt lat="47.31327" lon="-2.12527">
        <ele>52</ele>
        <time>2021-06-05T11:17:22.000Z</time>
      </trkpt>
      <trkpt lat="47.3132" lon="-2.12541">
        <ele>52</ele>
        <time>2021-06-05T11:17:24.000Z</time>
      </trkpt>
      <trkpt lat="47.31314" lon="-2.12555">
        <ele>53</ele>
        <time>2021-06-05T11:17:26.000Z</time>
      </trkpt>
      <trkpt lat="47.31307" lon="-2.1257">
        <ele>53</ele>
        <time>2021-06-05T11:17:28.000Z</time>
      </trkpt>
      <trkpt lat="47.313" lon="-2.12584">
        <ele>52</ele>
        <time>2021-06-05T11:17:30.000Z</time>
      </trkpt>
      <trkpt lat="47.31293" lon="-2.12598">
        <ele>52</ele>
        <time>2021-06-05T11:17:32.000Z</time>
      </trkpt>
      <trkpt lat="47.31287" lon="-2.12612">
        <ele>52</ele>
        <time>2021-06-05T11:17:34.000Z</time>
      </trkpt>
      <trkpt lat="47.3128" lon="-2.12626">
        <ele>52</ele>
        <time>2021-06-05T11:17:36.000Z</time>
      </trkpt>
      <trkpt lat="47.31273" lon="-2.1264">
        <ele>52</ele>
        <time>2021-06-05T11:17:38.000Z</time>
      </trkpt>
      <trkpt lat="47.31267" lon="-2.12653">
        <ele>53</ele>
        <time>2021-06-05T11:17:40.000Z</time>
      </trkpt>
      <trkpt lat="47.3126" lon="-2.12668">
        <ele>52</ele>
        <time>2021-06-05T11:17:42.000Z</time>
      </trkpt>
      <trkpt lat="47.31253" lon="-2.12682">
        <ele>52</ele>
        <time>2021-06-05T11:17:44.000Z</time>
      </trkpt>
      <trkpt lat="47.31246" lon="-2.12695">
        <ele>53</ele>
        <time>2021-06-05T11:17:46.000Z</time>
      </trkpt>
      <trkpt lat="47.31239" lon="-2.12709">
        <ele>52</ele>
        <time>2021-06-05T11:17:48.000Z</time>
      </trkpt>
      <trkpt lat="47.31232" lon="-2.12723">
        <ele>52</ele>
        <time>2021-06-05T11:17:50.000Z</time>
      </trkpt>
      <trkpt lat="47.31225" lon="-2.12737">
        <ele>53</ele>
        <time>2021-06-05T11:17:52.000Z</time>
      </trkpt>
      <trkpt lat="47.31219" lon="-2.12753">
        <ele>52</ele>
        <time>2021-06-05T11:17:54.000Z</time>
      </trkpt>
      <trkpt lat="47.31213" lon="-2.12767">
        <ele>52</ele>
        <time>2021-06-05T11:17:56.000Z</time>
      </trkpt>
      <trkpt lat="47.31207" lon="-2.12783">
        <ele>52</ele>
        <time>2021-06-05T11:17:58.000Z</time>
      </trkpt>
      <trkpt lat="47.31201" lon="-2.12798">
        <ele>53</ele>
        <time>2021-06-05T11:18:00.000Z</time>
      </trkpt>
      <trkpt lat="47.31195" lon="-2.12814">
        <ele>52</ele>
        <time>2021-06-05T11:18:02.000Z</time>
      </trkpt>
      <trkpt lat="47.3119" lon="-2.1283">
        <ele>52</ele>
        <time>2021-06-05T11:18:04.000Z</time>
      </trkpt>
      <trkpt lat="47.31184" lon="-2.12845">
        <ele>52</ele>
        <time>2021-06-05T11:18:06.000Z</time>
      </trkpt>
      <trkpt lat="47.3118" lon="-2.12861">
        <ele>52</ele>
        <time>2021-06-05T11:18:08.000Z</time>
      </trkpt>
      <trkpt lat="47.31175" lon="-2.12876">
        <ele>52</ele>
        <time>2021-06-05T11:18:10.000Z</time>
      </trkpt>
      <trkpt lat="47.3117" lon="-2.12892">
        <ele>52</ele>
        <time>2021-06-05T11:18:12.000Z</time>
      </trkpt>
      <trkpt lat="47.31165" lon="-2.12907">
        <ele>52</ele>
        <time>2021-06-05T11:18:14.000Z</time>
      </trkpt>
      <trkpt lat="47.31161" lon="-2.12924">
        <ele>52</ele>
        <time>2021-06-05T11:18:16.000Z</time>
      </trkpt>
      <trkpt lat="47.31156" lon="-2.1294">
        <ele>52</ele>
        <time>2021-06-05T11:18:18.000Z</time>
      </trkpt>
      <trkpt lat="47.31152" lon="-2.12956">
        <ele>52</ele>
        <time>2021-06-05T11:18:20.000Z</time>
      </trkpt>
      <trkpt lat="47.31148" lon="-2.12972">
        <ele>52</ele>
        <time>2021-06-05T11:18:22.000Z</time>
      </trkpt>
      <trkpt lat="47.31143" lon="-2.12988">
        <ele>52</ele>
        <time>2021-06-05T11:18:24.000Z</time>
      </trkpt>
      <trkpt lat="47.31139" lon="-2.13004">
        <ele>52</ele>
        <time>2021-06-05T11:18:26.000Z</time>
      </trkpt>
      <trkpt lat="47.31135" lon="-2.1302">
        <ele>52</ele>
        <time>2021-06-05T11:18:28.000Z</time>
      </trkpt>
      <trkpt lat="47.31131" lon="-2.13036">
        <ele>52</ele>
        <time>2021-06-05T11:18:30.000Z</time>
      </trkpt>
      <trkpt lat="47.31127" lon="-2.13052">
        <ele>52</ele>
        <time>2021-06-05T11:18:32.000Z</time>
      </trkpt>
      <trkpt lat="47.31123" lon="-2.13067">
        <ele>52</ele>
        <time>2021-06-05T11:18:34.000Z</time>
      </trkpt>
      <trkpt lat="47.31123" lon="-2.13083">
        <ele>52</ele>
        <time>2021-06-05T11:18:36.000Z</time>
      </trkpt>
      <trkpt lat="47.31128" lon="-2.13098">
        <ele>53</ele>
        <time>2021-06-05T11:18:38.000Z</time>
      </trkpt>
      <trkpt lat="47.31134" lon="-2.13112">
        <ele>53</ele>
        <time>2021-06-05T11:18:40.000Z</time>
      </trkpt>
      <trkpt lat="47.31138" lon="-2.13128">
        <ele>53</ele>
        <time>2021-06-05T11:18:42.000Z</time>
      </trkpt>
      <trkpt lat="47.31138" lon="-2.13146">
        <ele>53</ele>
        <time>2021-06-05T11:18:44.000Z</time>
      </trkpt>
      <trkpt lat="47.31134" lon="-2.13163">
        <ele>54</ele>
        <time>2021-06-05T11:18:46.000Z</time>
      </trkpt>
      <trkpt lat="47.31127" lon="-2.13177">
        <ele>53</ele>
        <time>2021-06-05T11:18:48.000Z</time>
      </trkpt>
      <trkpt lat="47.31117" lon="-2.13187">
        <ele>53</ele>
        <time>2021-06-05T11:18:50.000Z</time>
      </trkpt>
      <trkpt lat="47.31106" lon="-2.13193">
        <ele>53</ele>
        <time>2021-06-05T11:18:52.000Z</time>
      </trkpt>
      <trkpt lat="47.31097" lon="-2.13203">
        <ele>53</ele>
        <time>2021-06-05T11:18:54.000Z</time>
      </trkpt>
      <trkpt lat="47.31094" lon="-2.13219">
        <ele>52</ele>
        <time>2021-06-05T11:18:56.000Z</time>
      </trkpt>
      <trkpt lat="47.3109" lon="-2.13236">
        <ele>52</ele>
        <time>2021-06-05T11:18:58.000Z</time>
      </trkpt>
      <trkpt lat="47.31087" lon="-2.13252">
        <ele>52</ele>
        <time>2021-06-05T11:19:00.000Z</time>
      </trkpt>
      <trkpt lat="47.31083" lon="-2.13269">
        <ele>52</ele>
        <time>2021-06-05T11:19:02.000Z</time>
      </trkpt>
      <trkpt lat="47.31081" lon="-2.13285">
        <ele>52</ele>
        <time>2021-06-05T11:19:04.000Z</time>
      </trkpt>
      <trkpt lat="47.31078" lon="-2.13302">
        <ele>52</ele>
        <time>2021-06-05T11:19:06.000Z</time>
      </trkpt>
      <trkpt lat="47.31075" lon="-2.13318">
        <ele>52</ele>
        <time>2021-06-05T11:19:08.000Z</time>
      </trkpt>
      <trkpt lat="47.31072" lon="-2.13334">
        <ele>52</ele>
        <time>2021-06-05T11:19:10.000Z</time>
      </trkpt>
      <trkpt lat="47.31068" lon="-2.13349">
        <ele>52</ele>
        <time>2021-06-05T11:19:12.000Z</time>
      </trkpt>
      <trkpt lat="47.31064" lon="-2.13364">
        <ele>52</ele>
        <time>2021-06-05T11:19:14.000Z</time>
      </trkpt>
      <trkpt lat="47.31061" lon="-2.1338">
        <ele>52</ele>
        <time>2021-06-05T11:19:16.000Z</time>
      </trkpt>
      <trkpt lat="47.31058" lon="-2.13396">
        <ele>52</ele>
        <time>2021-06-05T11:19:18.000Z</time>
      </trkpt>
      <trkpt lat="47.31055" lon="-2.13413">
        <ele>52</ele>
        <time>2021-06-05T11:19:20.000Z</time>
      </trkpt>
      <trkpt lat="47.31051" lon="-2.13428">
        <ele>52</ele>
        <time>2021-06-05T11:19:22.000Z</time>
      </trkpt>
      <trkpt lat="47.31048" lon="-2.13444">
        <ele>52</ele>
        <time>2021-06-05T11:19:24.000Z</time>
      </trkpt>
      <trkpt lat="47.31046" lon="-2.1346">
        <ele>52</ele>
        <time>2021-06-05T11:19:26.000Z</time>
      </trkpt>
      <trkpt lat="47.31043" lon="-2.13476">
        <ele>52</ele>
        <time>2021-06-05T11:19:28.000Z</time>
      </trkpt>
      <trkpt lat="47.31039" lon="-2.13493">
        <ele>52</ele>
        <time>2021-06-05T11:19:30.000Z</time>
      </trkpt>
      <trkpt lat="47.31036" lon="-2.13508">
        <ele>52</ele>
        <time>2021-06-05T11:19:32.000Z</time>
      </trkpt>
      <trkpt lat="47.31034" lon="-2.13524">
        <ele>52</ele>
        <time>2021-06-05T11:19:34.000Z</time>
      </trkpt>
      <trkpt lat="47.31031" lon="-2.1354">
        <ele>52</ele>
        <time>2021-06-05T11:19:36.000Z</time>
      </trkpt>
      <trkpt lat="47.31028" lon="-2.13555">
        <ele>52</ele>
        <time>2021-06-05T11:19:38.000Z</time>
      </trkpt>
      <trkpt lat="47.31025" lon="-2.13571">
        <ele>52</ele>
        <time>2021-06-05T11:19:40.000Z</time>
      </trkpt>
      <trkpt lat="47.31022" lon="-2.13587">
        <ele>52</ele>
        <time>2021-06-05T11:19:42.000Z</time>
      </trkpt>
      <trkpt lat="47.31019" lon="-2.13603">
        <ele>52</ele>
        <time>2021-06-05T11:19:44.000Z</time>
      </trkpt>
      <trkpt lat="47.31016" lon="-2.13619">
        <ele>52</ele>
        <time>2021-06-05T11:19:46.000Z</time>
      </trkpt>
      <trkpt lat="47.31013" lon="-2.13635">
        <ele>52</ele>
        <time>2021-06-05T11:19:48.000Z</time>
      </trkpt>
      <trkpt lat="47.31011" lon="-2.13651">
        <ele>52</ele>
        <time>2021-06-05T11:19:50.000Z</time>
      </trkpt>
      <trkpt lat="47.31008" lon="-2.13667">
        <ele>51</ele>
        <time>2021-06-05T11:19:52.000Z</time>
      </trkpt>
      <trkpt lat="47.31005" lon="-2.13683">
        <ele>51</ele>
        <time>2021-06-05T11:19:54.000Z</time>
      </trkpt>
      <trkpt lat="47.31002" lon="-2.13698">
        <ele>52</ele>
        <time>2021-06-05T11:19:56.000Z</time>
      </trkpt>
      <trkpt lat="47.30999" lon="-2.13714">
        <ele>51</ele>
        <time>2021-06-05T11:19:58.000Z</time>
      </trkpt>
      <trkpt lat="47.30997" lon="-2.1373">
        <ele>51</ele>
        <time>2021-06-05T11:20:00.000Z</time>
      </trkpt>
      <trkpt lat="47.30993" lon="-2.13746">
        <ele>51</ele>
        <time>2021-06-05T11:20:02.000Z</time>
      </trkpt>
      <trkpt lat="47.30991" lon="-2.13763">
        <ele>51</ele>
        <time>2021-06-05T11:20:04.000Z</time>
      </trkpt>
      <trkpt lat="47.30988" lon="-2.1378">
        <ele>51</ele>
        <time>2021-06-05T11:20:06.000Z</time>
      </trkpt>
      <trkpt lat="47.30985" lon="-2.13796">
        <ele>51</ele>
        <time>2021-06-05T11:20:08.000Z</time>
      </trkpt>
      <trkpt lat="47.30982" lon="-2.13812">
        <ele>51</ele>
        <time>2021-06-05T11:20:10.000Z</time>
      </trkpt>
      <trkpt lat="47.3098" lon="-2.13828">
        <ele>51</ele>
        <time>2021-06-05T11:20:12.000Z</time>
      </trkpt>
      <trkpt lat="47.30976" lon="-2.13844">
        <ele>51</ele>
        <time>2021-06-05T11:20:14.000Z</time>
      </trkpt>
      <trkpt lat="47.30974" lon="-2.1386">
        <ele>51</ele>
        <time>2021-06-05T11:20:16.000Z</time>
      </trkpt>
      <trkpt lat="47.30971" lon="-2.13877">
        <ele>51</ele>
        <time>2021-06-05T11:20:18.000Z</time>
      </trkpt>
      <trkpt lat="47.30968" lon="-2.13892">
        <ele>52</ele>
        <time>2021-06-05T11:20:20.000Z</time>
      </trkpt>
      <trkpt lat="47.30965" lon="-2.13908">
        <ele>52</ele>
        <time>2021-06-05T11:20:22.000Z</time>
      </trkpt>
      <trkpt lat="47.30962" lon="-2.13924">
        <ele>52</ele>
        <time>2021-06-05T11:20:24.000Z</time>
      </trkpt>
      <trkpt lat="47.30959" lon="-2.13941">
        <ele>52</ele>
        <time>2021-06-05T11:20:26.000Z</time>
      </trkpt>
      <trkpt lat="47.30957" lon="-2.13957">
        <ele>52</ele>
        <time>2021-06-05T11:20:28.000Z</time>
      </trkpt>
      <trkpt lat="47.30954" lon="-2.13974">
        <ele>52</ele>
        <time>2021-06-05T11:20:30.000Z</time>
      </trkpt>
      <trkpt lat="47.30951" lon="-2.1399">
        <ele>52</ele>
        <time>2021-06-05T11:20:32.000Z</time>
      </trkpt>
      <trkpt lat="47.30948" lon="-2.14007">
        <ele>52</ele>
        <time>2021-06-05T11:20:34.000Z</time>
      </trkpt>
      <trkpt lat="47.30945" lon="-2.14022">
        <ele>52</ele>
        <time>2021-06-05T11:20:36.000Z</time>
      </trkpt>
      <trkpt lat="47.30941" lon="-2.14038">
        <ele>52</ele>
        <time>2021-06-05T11:20:38.000Z</time>
      </trkpt>
      <trkpt lat="47.30939" lon="-2.14054">
        <ele>52</ele>
        <time>2021-06-05T11:20:40.000Z</time>
      </trkpt>
      <trkpt lat="47.30936" lon="-2.1407">
        <ele>52</ele>
        <time>2021-06-05T11:20:42.000Z</time>
      </trkpt>
      <trkpt lat="47.30933" lon="-2.14086">
        <ele>52</ele>
        <time>2021-06-05T11:20:44.000Z</time>
      </trkpt>
      <trkpt lat="47.3093" lon="-2.14102">
        <ele>52</ele>
        <time>2021-06-05T11:20:46.000Z</time>
      </trkpt>
      <trkpt lat="47.30927" lon="-2.14118">
        <ele>52</ele>
        <time>2021-06-05T11:20:48.000Z</time>
      </trkpt>
      <trkpt lat="47.30924" lon="-2.14133">
        <ele>52</ele>
        <time>2021-06-05T11:20:50.000Z</time>
      </trkpt>
      <trkpt lat="47.30921" lon="-2.14149">
        <ele>52</ele>
        <time>2021-06-05T11:20:52.000Z</time>
      </trkpt>
      <trkpt lat="47.30918" lon="-2.14166">
        <ele>52</ele>
        <time>2021-06-05T11:20:54.000Z</time>
      </trkpt>
      <trkpt lat="47.30915" lon="-2.14183">
        <ele>52</ele>
        <time>2021-06-05T11:20:56.000Z</time>
      </trkpt>
      <trkpt lat="47.30912" lon="-2.14199">
        <ele>52</ele>
        <time>2021-06-05T11:20:58.000Z</time>
      </trkpt>
      <trkpt lat="47.30909" lon="-2.14216">
        <ele>51</ele>
        <time>2021-06-05T11:21:00.000Z</time>
      </trkpt>
      <trkpt lat="47.30906" lon="-2.14234">
        <ele>51</ele>
        <time>2021-06-05T11:21:02.000Z</time>
      </trkpt>
      <trkpt lat="47.30904" lon="-2.1425">
        <ele>51</ele>
        <time>2021-06-05T11:21:04.000Z</time>
      </trkpt>
      <trkpt lat="47.309" lon="-2.14266">
        <ele>51</ele>
        <time>2021-06-05T11:21:06.000Z</time>
      </trkpt>
      <trkpt lat="47.30897" lon="-2.14282">
        <ele>51</ele>
        <time>2021-06-05T11:21:08.000Z</time>
      </trkpt>
      <trkpt lat="47.30895" lon="-2.14297">
        <ele>51</ele>
        <time>2021-06-05T11:21:10.000Z</time>
      </trkpt>
      <trkpt lat="47.30892" lon="-2.14313">
        <ele>51</ele>
        <time>2021-06-05T11:21:12.000Z</time>
      </trkpt>
      <trkpt lat="47.30888" lon="-2.14329">
        <ele>51</ele>
        <time>2021-06-05T11:21:14.000Z</time>
      </trkpt>
      <trkpt lat="47.30885" lon="-2.14345">
        <ele>51</ele>
        <time>2021-06-05T11:21:16.000Z</time>
      </trkpt>
      <trkpt lat="47.30883" lon="-2.14362">
        <ele>51</ele>
        <time>2021-06-05T11:21:18.000Z</time>
      </trkpt>
      <trkpt lat="47.3088" lon="-2.14378">
        <ele>51</ele>
        <time>2021-06-05T11:21:20.000Z</time>
      </trkpt>
      <trkpt lat="47.30877" lon="-2.14394">
        <ele>51</ele>
        <time>2021-06-05T11:21:22.000Z</time>
      </trkpt>
      <trkpt lat="47.30874" lon="-2.14411">
        <ele>52</ele>
        <time>2021-06-05T11:21:24.000Z</time>
      </trkpt>
      <trkpt lat="47.30871" lon="-2.14427">
        <ele>51</ele>
        <time>2021-06-05T11:21:26.000Z</time>
      </trkpt>
      <trkpt lat="47.30869" lon="-2.14444">
        <ele>51</ele>
        <time>2021-06-05T11:21:28.000Z</time>
      </trkpt>
      <trkpt lat="47.30866" lon="-2.14461">
        <ele>51</ele>
        <time>2021-06-05T11:21:30.000Z</time>
      </trkpt>
      <trkpt lat="47.30862" lon="-2.14476">
        <ele>51</ele>
        <time>2021-06-05T11:21:32.000Z</time>
      </trkpt>
      <trkpt lat="47.30859" lon="-2.14493">
        <ele>51</ele>
        <time>2021-06-05T11:21:34.000Z</time>
      </trkpt>
      <trkpt lat="47.30856" lon="-2.14509">
        <ele>51</ele>
        <time>2021-06-05T11:21:36.000Z</time>
      </trkpt>
      <trkpt lat="47.30853" lon="-2.14525">
        <ele>51</ele>
        <time>2021-06-05T11:21:38.000Z</time>
      </trkpt>
      <trkpt lat="47.3085" lon="-2.14541">
        <ele>51</ele>
        <time>2021-06-05T11:21:40.000Z</time>
      </trkpt>
      <trkpt lat="47.30848" lon="-2.14557">
        <ele>51</ele>
        <time>2021-06-05T11:21:42.000Z</time>
      </trkpt>
      <trkpt lat="47.30845" lon="-2.14573">
        <ele>52</ele>
        <time>2021-06-05T11:21:44.000Z</time>
      </trkpt>
      <trkpt lat="47.30842" lon="-2.14589">
        <ele>51</ele>
        <time>2021-06-05T11:21:46.000Z</time>
      </trkpt>
      <trkpt lat="47.30839" lon="-2.14605">
        <ele>51</ele>
        <time>2021-06-05T11:21:48.000Z</time>
      </trkpt>
      <trkpt lat="47.30836" lon="-2.14622">
        <ele>51</ele>
        <time>2021-06-05T11:21:50.000Z</time>
      </trkpt>
      <trkpt lat="47.30833" lon="-2.14638">
        <ele>51</ele>
        <time>2021-06-05T11:21:52.000Z</time>
      </trkpt>
      <trkpt lat="47.3083" lon="-2.14655">
        <ele>51</ele>
        <time>2021-06-05T11:21:54.000Z</time>
      </trkpt>
      <trkpt lat="47.30827" lon="-2.14671">
        <ele>51</ele>
        <time>2021-06-05T11:21:56.000Z</time>
      </trkpt>
      <trkpt lat="47.30824" lon="-2.14687">
        <ele>51</ele>
        <time>2021-06-05T11:21:58.000Z</time>
      </trkpt>
      <trkpt lat="47.30821" lon="-2.14702">
        <ele>51</ele>
        <time>2021-06-05T11:22:00.000Z</time>
      </trkpt>
      <trkpt lat="47.30818" lon="-2.14718">
        <ele>51</ele>
        <time>2021-06-05T11:22:02.000Z</time>
      </trkpt>
      <trkpt lat="47.30815" lon="-2.14733">
        <ele>51</ele>
        <time>2021-06-05T11:22:04.000Z</time>
      </trkpt>
      <trkpt lat="47.30812" lon="-2.14749">
        <ele>51</ele>
        <time>2021-06-05T11:22:06.000Z</time>
      </trkpt>
      <trkpt lat="47.3081" lon="-2.14765">
        <ele>51</ele>
        <time>2021-06-05T11:22:08.000Z</time>
      </trkpt>
      <trkpt lat="47.30807" lon="-2.1478">
        <ele>51</ele>
        <time>2021-06-05T11:22:10.000Z</time>
      </trkpt>
      <trkpt lat="47.30804" lon="-2.14797">
        <ele>51</ele>
        <time>2021-06-05T11:22:12.000Z</time>
      </trkpt>
      <trkpt lat="47.30801" lon="-2.14813">
        <ele>51</ele>
        <time>2021-06-05T11:22:14.000Z</time>
      </trkpt>
      <trkpt lat="47.30798" lon="-2.14829">
        <ele>51</ele>
        <time>2021-06-05T11:22:16.000Z</time>
      </trkpt>
      <trkpt lat="47.30795" lon="-2.14845">
        <ele>51</ele>
        <time>2021-06-05T11:22:18.000Z</time>
      </trkpt>
      <trkpt lat="47.30793" lon="-2.14861">
        <ele>51</ele>
        <time>2021-06-05T11:22:20.000Z</time>
      </trkpt>
      <trkpt lat="47.3079" lon="-2.14877">
        <ele>51</ele>
        <time>2021-06-05T11:22:22.000Z</time>
      </trkpt>
      <trkpt lat="47.30787" lon="-2.14893">
        <ele>51</ele>
        <time>2021-06-05T11:22:24.000Z</time>
      </trkpt>
      <trkpt lat="47.30784" lon="-2.14909">
        <ele>51</ele>
        <time>2021-06-05T11:22:26.000Z</time>
      </trkpt>
      <trkpt lat="47.30781" lon="-2.14926">
        <ele>51</ele>
        <time>2021-06-05T11:22:28.000Z</time>
      </trkpt>
      <trkpt lat="47.30778" lon="-2.14943">
        <ele>51</ele>
        <time>2021-06-05T11:22:30.000Z</time>
      </trkpt>
      <trkpt lat="47.30775" lon="-2.1496">
        <ele>51</ele>
        <time>2021-06-05T11:22:32.000Z</time>
      </trkpt>
      <trkpt lat="47.30772" lon="-2.14977">
        <ele>51</ele>
        <time>2021-06-05T11:22:34.000Z</time>
      </trkpt>
      <trkpt lat="47.3077" lon="-2.14993">
        <ele>51</ele>
        <time>2021-06-05T11:22:36.000Z</time>
      </trkpt>
      <trkpt lat="47.30766" lon="-2.15009">
        <ele>51</ele>
        <time>2021-06-05T11:22:38.000Z</time>
      </trkpt>
      <trkpt lat="47.30763" lon="-2.15026">
        <ele>51</ele>
        <time>2021-06-05T11:22:40.000Z</time>
      </trkpt>
      <trkpt lat="47.3076" lon="-2.15042">
        <ele>51</ele>
        <time>2021-06-05T11:22:42.000Z</time>
      </trkpt>
      <trkpt lat="47.30757" lon="-2.15058">
        <ele>52</ele>
        <time>2021-06-05T11:22:44.000Z</time>
      </trkpt>
      <trkpt lat="47.30754" lon="-2.15075">
        <ele>52</ele>
        <time>2021-06-05T11:22:46.000Z</time>
      </trkpt>
      <trkpt lat="47.30751" lon="-2.15091">
        <ele>52</ele>
        <time>2021-06-05T11:22:48.000Z</time>
      </trkpt>
      <trkpt lat="47.30748" lon="-2.15108">
        <ele>52</ele>
        <time>2021-06-05T11:22:50.000Z</time>
      </trkpt>
      <trkpt lat="47.30745" lon="-2.15125">
        <ele>52</ele>
        <time>2021-06-05T11:22:52.000Z</time>
      </trkpt>
      <trkpt lat="47.30743" lon="-2.15142">
        <ele>52</ele>
        <time>2021-06-05T11:22:54.000Z</time>
      </trkpt>
      <trkpt lat="47.30741" lon="-2.15159">
        <ele>53</ele>
        <time>2021-06-05T11:22:56.000Z</time>
      </trkpt>
      <trkpt lat="47.30741" lon="-2.15175">
        <ele>53</ele>
        <time>2021-06-05T11:22:58.000Z</time>
      </trkpt>
      <trkpt lat="47.30745" lon="-2.15192">
        <ele>52</ele>
        <time>2021-06-05T11:23:00.000Z</time>
      </trkpt>
      <trkpt lat="47.30747" lon="-2.15209">
        <ele>52</ele>
        <time>2021-06-05T11:23:02.000Z</time>
      </trkpt>
      <trkpt lat="47.30744" lon="-2.15225">
        <ele>52</ele>
        <time>2021-06-05T11:23:04.000Z</time>
      </trkpt>
      <trkpt lat="47.30737" lon="-2.15237">
        <ele>52</ele>
        <time>2021-06-05T11:23:06.000Z</time>
      </trkpt>
      <trkpt lat="47.30728" lon="-2.15246">
        <ele>52</ele>
        <time>2021-06-05T11:23:08.000Z</time>
      </trkpt>
      <trkpt lat="47.30722" lon="-2.15262">
        <ele>52</ele>
        <time>2021-06-05T11:23:10.000Z</time>
      </trkpt>
      <trkpt lat="47.30719" lon="-2.15278">
        <ele>52</ele>
        <time>2021-06-05T11:23:12.000Z</time>
      </trkpt>
      <trkpt lat="47.30715" lon="-2.15294">
        <ele>52</ele>
        <time>2021-06-05T11:23:14.000Z</time>
      </trkpt>
      <trkpt lat="47.30711" lon="-2.1531">
        <ele>51</ele>
        <time>2021-06-05T11:23:16.000Z</time>
      </trkpt>
      <trkpt lat="47.30709" lon="-2.15326">
        <ele>51</ele>
        <time>2021-06-05T11:23:18.000Z</time>
      </trkpt>
      <trkpt lat="47.30706" lon="-2.15341">
        <ele>52</ele>
        <time>2021-06-05T11:23:20.000Z</time>
      </trkpt>
      <trkpt lat="47.30703" lon="-2.15356">
        <ele>52</ele>
        <time>2021-06-05T11:23:22.000Z</time>
      </trkpt>
      <trkpt lat="47.307" lon="-2.15371">
        <ele>52</ele>
        <time>2021-06-05T11:23:24.000Z</time>
      </trkpt>
      <trkpt lat="47.30697" lon="-2.15386">
        <ele>52</ele>
        <time>2021-06-05T11:23:26.000Z</time>
      </trkpt>
      <trkpt lat="47.30693" lon="-2.15401">
        <ele>52</ele>
        <time>2021-06-05T11:23:28.000Z</time>
      </trkpt>
      <trkpt lat="47.3069" lon="-2.15416">
        <ele>52</ele>
        <time>2021-06-05T11:23:30.000Z</time>
      </trkpt>
      <trkpt lat="47.30686" lon="-2.15432">
        <ele>52</ele>
        <time>2021-06-05T11:23:32.000Z</time>
      </trkpt>
      <trkpt lat="47.30682" lon="-2.15448">
        <ele>52</ele>
        <time>2021-06-05T11:23:34.000Z</time>
      </trkpt>
      <trkpt lat="47.30677" lon="-2.15464">
        <ele>52</ele>
        <time>2021-06-05T11:23:36.000Z</time>
      </trkpt>
      <trkpt lat="47.30673" lon="-2.15479">
        <ele>52</ele>
        <time>2021-06-05T11:23:38.000Z</time>
      </trkpt>
      <trkpt lat="47.30669" lon="-2.15495">
        <ele>52</ele>
        <time>2021-06-05T11:23:40.000Z</time>
      </trkpt>
      <trkpt lat="47.30664" lon="-2.15511">
        <ele>51</ele>
        <time>2021-06-05T11:23:42.000Z</time>
      </trkpt>
      <trkpt lat="47.30659" lon="-2.15526">
        <ele>52</ele>
        <time>2021-06-05T11:23:44.000Z</time>
      </trkpt>
      <trkpt lat="47.30654" lon="-2.15542">
        <ele>52</ele>
        <time>2021-06-05T11:23:46.000Z</time>
      </trkpt>
      <trkpt lat="47.30649" lon="-2.15557">
        <ele>51</ele>
        <time>2021-06-05T11:23:48.000Z</time>
      </trkpt>
      <trkpt lat="47.30644" lon="-2.15572">
        <ele>51</ele>
        <time>2021-06-05T11:23:50.000Z</time>
      </trkpt>
      <trkpt lat="47.30639" lon="-2.15587">
        <ele>51</ele>
        <time>2021-06-05T11:23:52.000Z</time>
      </trkpt>
      <trkpt lat="47.30634" lon="-2.15602">
        <ele>51</ele>
        <time>2021-06-05T11:23:54.000Z</time>
      </trkpt>
      <trkpt lat="47.30629" lon="-2.15617">
        <ele>51</ele>
        <time>2021-06-05T11:23:56.000Z</time>
      </trkpt>
      <trkpt lat="47.30624" lon="-2.15632">
        <ele>51</ele>
        <time>2021-06-05T11:23:58.000Z</time>
      </trkpt>
      <trkpt lat="47.30619" lon="-2.15647">
        <ele>51</ele>
        <time>2021-06-05T11:24:00.000Z</time>
      </trkpt>
      <trkpt lat="47.30615" lon="-2.15662">
        <ele>51</ele>
        <time>2021-06-05T11:24:02.000Z</time>
      </trkpt>
      <trkpt lat="47.3061" lon="-2.15677">
        <ele>51</ele>
        <time>2021-06-05T11:24:04.000Z</time>
      </trkpt>
      <trkpt lat="47.30605" lon="-2.15692">
        <ele>51</ele>
        <time>2021-06-05T11:24:06.000Z</time>
      </trkpt>
      <trkpt lat="47.306" lon="-2.15707">
        <ele>51</ele>
        <time>2021-06-05T11:24:08.000Z</time>
      </trkpt>
      <trkpt lat="47.30595" lon="-2.15721">
        <ele>51</ele>
        <time>2021-06-05T11:24:10.000Z</time>
      </trkpt>
      <trkpt lat="47.30591" lon="-2.15737">
        <ele>51</ele>
        <time>2021-06-05T11:24:12.000Z</time>
      </trkpt>
      <trkpt lat="47.30586" lon="-2.15751">
        <ele>51</ele>
        <time>2021-06-05T11:24:14.000Z</time>
      </trkpt>
      <trkpt lat="47.30581" lon="-2.15766">
        <ele>51</ele>
        <time>2021-06-05T11:24:16.000Z</time>
      </trkpt>
      <trkpt lat="47.30576" lon="-2.15781">
        <ele>51</ele>
        <time>2021-06-05T11:24:18.000Z</time>
      </trkpt>
      <trkpt lat="47.30571" lon="-2.15795">
        <ele>51</ele>
        <time>2021-06-05T11:24:20.000Z</time>
      </trkpt>
      <trkpt lat="47.30566" lon="-2.1581">
        <ele>51</ele>
        <time>2021-06-05T11:24:22.000Z</time>
      </trkpt>
      <trkpt lat="47.30562" lon="-2.15825">
        <ele>51</ele>
        <time>2021-06-05T11:24:24.000Z</time>
      </trkpt>
      <trkpt lat="47.30557" lon="-2.15839">
        <ele>51</ele>
        <time>2021-06-05T11:24:26.000Z</time>
      </trkpt>
      <trkpt lat="47.30553" lon="-2.15853">
        <ele>51</ele>
        <time>2021-06-05T11:24:28.000Z</time>
      </trkpt>
      <trkpt lat="47.30548" lon="-2.15868">
        <ele>51</ele>
        <time>2021-06-05T11:24:30.000Z</time>
      </trkpt>
      <trkpt lat="47.30544" lon="-2.15883">
        <ele>52</ele>
        <time>2021-06-05T11:24:32.000Z</time>
      </trkpt>
      <trkpt lat="47.30539" lon="-2.15898">
        <ele>52</ele>
        <time>2021-06-05T11:24:34.000Z</time>
      </trkpt>
      <trkpt lat="47.30534" lon="-2.15912">
        <ele>52</ele>
        <time>2021-06-05T11:24:36.000Z</time>
      </trkpt>
      <trkpt lat="47.3053" lon="-2.15926">
        <ele>52</ele>
        <time>2021-06-05T11:24:38.000Z</time>
      </trkpt>
      <trkpt lat="47.30525" lon="-2.1594">
        <ele>52</ele>
        <time>2021-06-05T11:24:40.000Z</time>
      </trkpt>
      <trkpt lat="47.30521" lon="-2.15955">
        <ele>52</ele>
        <time>2021-06-05T11:24:42.000Z</time>
      </trkpt>
      <trkpt lat="47.30516" lon="-2.1597">
        <ele>52</ele>
        <time>2021-06-05T11:24:44.000Z</time>
      </trkpt>
      <trkpt lat="47.30512" lon="-2.15984">
        <ele>52</ele>
        <time>2021-06-05T11:24:46.000Z</time>
      </trkpt>
      <trkpt lat="47.30508" lon="-2.15999">
        <ele>52</ele>
        <time>2021-06-05T11:24:48.000Z</time>
      </trkpt>
      <trkpt lat="47.30503" lon="-2.16013">
        <ele>52</ele>
        <time>2021-06-05T11:24:50.000Z</time>
      </trkpt>
      <trkpt lat="47.30499" lon="-2.16028">
        <ele>52</ele>
        <time>2021-06-05T11:24:52.000Z</time>
      </trkpt>
      <trkpt lat="47.30495" lon="-2.16043">
        <ele>52</ele>
        <time>2021-06-05T11:24:54.000Z</time>
      </trkpt>
      <trkpt lat="47.30491" lon="-2.16058">
        <ele>52</ele>
        <time>2021-06-05T11:24:56.000Z</time>
      </trkpt>
      <trkpt lat="47.30487" lon="-2.16073">
        <ele>52</ele>
        <time>2021-06-05T11:24:58.000Z</time>
      </trkpt>
      <trkpt lat="47.30482" lon="-2.16088">
        <ele>52</ele>
        <time>2021-06-05T11:25:00.000Z</time>
      </trkpt>
      <trkpt lat="47.30478" lon="-2.16103">
        <ele>52</ele>
        <time>2021-06-05T11:25:02.000Z</time>
      </trkpt>
      <trkpt lat="47.30474" lon="-2.16118">
        <ele>52</ele>
        <time>2021-06-05T11:25:04.000Z</time>
      </trkpt>
      <trkpt lat="47.30469" lon="-2.16133">
        <ele>52</ele>
        <time>2021-06-05T11:25:06.000Z</time>
      </trkpt>
      <trkpt lat="47.30465" lon="-2.16148">
        <ele>52</ele>
        <time>2021-06-05T11:25:08.000Z</time>
      </trkpt>
      <trkpt lat="47.30461" lon="-2.16162">
        <ele>52</ele>
        <time>2021-06-05T11:25:10.000Z</time>
      </trkpt>
      <trkpt lat="47.30456" lon="-2.16177">
        <ele>52</ele>
        <time>2021-06-05T11:25:12.000Z</time>
      </trkpt>
      <trkpt lat="47.30452" lon="-2.16192">
        <ele>52</ele>
        <time>2021-06-05T11:25:14.000Z</time>
      </trkpt>
      <trkpt lat="47.30448" lon="-2.16207">
        <ele>52</ele>
        <time>2021-06-05T11:25:16.000Z</time>
      </trkpt>
      <trkpt lat="47.30443" lon="-2.16222">
        <ele>52</ele>
        <time>2021-06-05T11:25:18.000Z</time>
      </trkpt>
      <trkpt lat="47.30439" lon="-2.16237">
        <ele>52</ele>
        <time>2021-06-05T11:25:20.000Z</time>
      </trkpt>
      <trkpt lat="47.30435" lon="-2.16252">
        <ele>52</ele>
        <time>2021-06-05T11:25:22.000Z</time>
      </trkpt>
      <trkpt lat="47.30431" lon="-2.16268">
        <ele>52</ele>
        <time>2021-06-05T11:25:24.000Z</time>
      </trkpt>
      <trkpt lat="47.30426" lon="-2.16283">
        <ele>52</ele>
        <time>2021-06-05T11:25:26.000Z</time>
      </trkpt>
      <trkpt lat="47.30422" lon="-2.16299">
        <ele>52</ele>
        <time>2021-06-05T11:25:28.000Z</time>
      </trkpt>
      <trkpt lat="47.30417" lon="-2.16314">
        <ele>53</ele>
        <time>2021-06-05T11:25:30.000Z</time>
      </trkpt>
      <trkpt lat="47.30413" lon="-2.16329">
        <ele>53</ele>
        <time>2021-06-05T11:25:32.000Z</time>
      </trkpt>
      <trkpt lat="47.30409" lon="-2.16345">
        <ele>53</ele>
        <time>2021-06-05T11:25:34.000Z</time>
      </trkpt>
      <trkpt lat="47.30405" lon="-2.1636">
        <ele>53</ele>
        <time>2021-06-05T11:25:36.000Z</time>
      </trkpt>
      <trkpt lat="47.30401" lon="-2.16375">
        <ele>53</ele>
        <time>2021-06-05T11:25:38.000Z</time>
      </trkpt>
      <trkpt lat="47.30396" lon="-2.16389">
        <ele>53</ele>
        <time>2021-06-05T11:25:40.000Z</time>
      </trkpt>
      <trkpt lat="47.30392" lon="-2.16404">
        <ele>53</ele>
        <time>2021-06-05T11:25:42.000Z</time>
      </trkpt>
      <trkpt lat="47.30388" lon="-2.16419">
        <ele>53</ele>
        <time>2021-06-05T11:25:44.000Z</time>
      </trkpt>
      <trkpt lat="47.30384" lon="-2.16434">
        <ele>53</ele>
        <time>2021-06-05T11:25:46.000Z</time>
      </trkpt>
      <trkpt lat="47.3038" lon="-2.16448">
        <ele>53</ele>
        <time>2021-06-05T11:25:48.000Z</time>
      </trkpt>
      <trkpt lat="47.30375" lon="-2.16462">
        <ele>53</ele>
        <time>2021-06-05T11:25:50.000Z</time>
      </trkpt>
      <trkpt lat="47.30371" lon="-2.16476">
        <ele>53</ele>
        <time>2021-06-05T11:25:52.000Z</time>
      </trkpt>
      <trkpt lat="47.30367" lon="-2.1649">
        <ele>53</ele>
        <time>2021-06-05T11:25:54.000Z</time>
      </trkpt>
      <trkpt lat="47.30363" lon="-2.16505">
        <ele>53</ele>
        <time>2021-06-05T11:25:56.000Z</time>
      </trkpt>
      <trkpt lat="47.30359" lon="-2.16519">
        <ele>53</ele>
        <time>2021-06-05T11:25:58.000Z</time>
      </trkpt>
      <trkpt lat="47.30356" lon="-2.16532">
        <ele>53</ele>
        <time>2021-06-05T11:26:00.000Z</time>
      </trkpt>
      <trkpt lat="47.30356" lon="-2.16552">
        <ele>53</ele>
        <time>2021-06-05T11:26:03.000Z</time>
      </trkpt>
      <trkpt lat="47.30362" lon="-2.16564">
        <ele>53</ele>
        <time>2021-06-05T11:26:05.000Z</time>
      </trkpt>
      <trkpt lat="47.30366" lon="-2.1658">
        <ele>53</ele>
        <time>2021-06-05T11:26:07.000Z</time>
      </trkpt>
      <trkpt lat="47.30367" lon="-2.16597">
        <ele>53</ele>
        <time>2021-06-05T11:26:09.000Z</time>
      </trkpt>
      <trkpt lat="47.30363" lon="-2.16613">
        <ele>53</ele>
        <time>2021-06-05T11:26:11.000Z</time>
      </trkpt>
      <trkpt lat="47.30357" lon="-2.16628">
        <ele>54</ele>
        <time>2021-06-05T11:26:13.000Z</time>
      </trkpt>
      <trkpt lat="47.30348" lon="-2.16637">
        <ele>54</ele>
        <time>2021-06-05T11:26:15.000Z</time>
      </trkpt>
      <trkpt lat="47.30337" lon="-2.16643">
        <ele>54</ele>
        <time>2021-06-05T11:26:17.000Z</time>
      </trkpt>
      <trkpt lat="47.30326" lon="-2.16646">
        <ele>53</ele>
        <time>2021-06-05T11:26:19.000Z</time>
      </trkpt>
      <trkpt lat="47.30317" lon="-2.16656">
        <ele>53</ele>
        <time>2021-06-05T11:26:21.000Z</time>
      </trkpt>
      <trkpt lat="47.30311" lon="-2.16672">
        <ele>53</ele>
        <time>2021-06-05T11:26:23.000Z</time>
      </trkpt>
      <trkpt lat="47.30306" lon="-2.16687">
        <ele>52</ele>
        <time>2021-06-05T11:26:25.000Z</time>
      </trkpt>
      <trkpt lat="47.30301" lon="-2.16703">
        <ele>53</ele>
        <time>2021-06-05T11:26:27.000Z</time>
      </trkpt>
      <trkpt lat="47.30296" lon="-2.16718">
        <ele>53</ele>
        <time>2021-06-05T11:26:29.000Z</time>
      </trkpt>
      <trkpt lat="47.30292" lon="-2.16734">
        <ele>53</ele>
        <time>2021-06-05T11:26:31.000Z</time>
      </trkpt>
      <trkpt lat="47.30287" lon="-2.1675">
        <ele>53</ele>
        <time>2021-06-05T11:26:33.000Z</time>
      </trkpt>
      <trkpt lat="47.30283" lon="-2.16765">
        <ele>53</ele>
        <time>2021-06-05T11:26:35.000Z</time>
      </trkpt>
      <trkpt lat="47.30278" lon="-2.1678">
        <ele>53</ele>
        <time>2021-06-05T11:26:37.000Z</time>
      </trkpt>
      <trkpt lat="47.30273" lon="-2.16796">
        <ele>53</ele>
        <time>2021-06-05T11:26:39.000Z</time>
      </trkpt>
      <trkpt lat="47.30268" lon="-2.16811">
        <ele>53</ele>
        <time>2021-06-05T11:26:41.000Z</time>
      </trkpt>
      <trkpt lat="47.30264" lon="-2.16826">
        <ele>53</ele>
        <time>2021-06-05T11:26:43.000Z</time>
      </trkpt>
      <trkpt lat="47.30259" lon="-2.16842">
        <ele>53</ele>
        <time>2021-06-05T11:26:45.000Z</time>
      </trkpt>
      <trkpt lat="47.30254" lon="-2.16858">
        <ele>53</ele>
        <time>2021-06-05T11:26:47.000Z</time>
      </trkpt>
      <trkpt lat="47.3025" lon="-2.16874">
        <ele>53</ele>
        <time>2021-06-05T11:26:49.000Z</time>
      </trkpt>
      <trkpt lat="47.30245" lon="-2.16889">
        <ele>53</ele>
        <time>2021-06-05T11:26:51.000Z</time>
      </trkpt>
      <trkpt lat="47.30242" lon="-2.16906">
        <ele>53</ele>
        <time>2021-06-05T11:26:53.000Z</time>
      </trkpt>
      <trkpt lat="47.30238" lon="-2.16922">
        <ele>53</ele>
        <time>2021-06-05T11:26:55.000Z</time>
      </trkpt>
      <trkpt lat="47.30234" lon="-2.16938">
        <ele>53</ele>
        <time>2021-06-05T11:26:57.000Z</time>
      </trkpt>
      <trkpt lat="47.3023" lon="-2.16954">
        <ele>53</ele>
        <time>2021-06-05T11:26:59.000Z</time>
      </trkpt>
      <trkpt lat="47.30227" lon="-2.1697">
        <ele>53</ele>
        <time>2021-06-05T11:27:01.000Z</time>
      </trkpt>
      <trkpt lat="47.30223" lon="-2.16986">
        <ele>53</ele>
        <time>2021-06-05T11:27:03.000Z</time>
      </trkpt>
      <trkpt lat="47.3022" lon="-2.17003">
        <ele>52</ele>
        <time>2021-06-05T11:27:05.000Z</time>
      </trkpt>
      <trkpt lat="47.30217" lon="-2.17019">
        <ele>52</ele>
        <time>2021-06-05T11:27:07.000Z</time>
      </trkpt>
      <trkpt lat="47.30214" lon="-2.17036">
        <ele>52</ele>
        <time>2021-06-05T11:27:09.000Z</time>
      </trkpt>
      <trkpt lat="47.30212" lon="-2.17053">
        <ele>52</ele>
        <time>2021-06-05T11:27:11.000Z</time>
      </trkpt>
      <trkpt lat="47.30209" lon="-2.17071">
        <ele>53</ele>
        <time>2021-06-05T11:27:13.000Z</time>
      </trkpt>
      <trkpt lat="47.30207" lon="-2.17088">
        <ele>53</ele>
        <time>2021-06-05T11:27:15.000Z</time>
      </trkpt>
      <trkpt lat="47.30205" lon="-2.17105">
        <ele>53</ele>
        <time>2021-06-05T11:27:17.000Z</time>
      </trkpt>
      <trkpt lat="47.30203" lon="-2.17122">
        <ele>53</ele>
        <time>2021-06-05T11:27:19.000Z</time>
      </trkpt>
      <trkpt lat="47.30201" lon="-2.17139">
        <ele>53</ele>
        <time>2021-06-05T11:27:21.000Z</time>
      </trkpt>
      <trkpt lat="47.302" lon="-2.17156">
        <ele>53</ele>
        <time>2021-06-05T11:27:23.000Z</time>
      </trkpt>
      <trkpt lat="47.30198" lon="-2.17173">
        <ele>53</ele>
        <time>2021-06-05T11:27:25.000Z</time>
      </trkpt>
      <trkpt lat="47.30197" lon="-2.1719">
        <ele>53</ele>
        <time>2021-06-05T11:27:27.000Z</time>
      </trkpt>
      <trkpt lat="47.30196" lon="-2.17207">
        <ele>53</ele>
        <time>2021-06-05T11:27:29.000Z</time>
      </trkpt>
      <trkpt lat="47.30194" lon="-2.17224">
        <ele>53</ele>
        <time>2021-06-05T11:27:31.000Z</time>
      </trkpt>
      <trkpt lat="47.30193" lon="-2.17241">
        <ele>53</ele>
        <time>2021-06-05T11:27:33.000Z</time>
      </trkpt>
      <trkpt lat="47.30193" lon="-2.17259">
        <ele>53</ele>
        <time>2021-06-05T11:27:35.000Z</time>
      </trkpt>
      <trkpt lat="47.30192" lon="-2.17277">
        <ele>52</ele>
        <time>2021-06-05T11:27:37.000Z</time>
      </trkpt>
      <trkpt lat="47.30191" lon="-2.17295">
        <ele>53</ele>
        <time>2021-06-05T11:27:39.000Z</time>
      </trkpt>
      <trkpt lat="47.30191" lon="-2.17312">
        <ele>53</ele>
        <time>2021-06-05T11:27:41.000Z</time>
      </trkpt>
      <trkpt lat="47.30189" lon="-2.17329">
        <ele>53</ele>
        <time>2021-06-05T11:27:43.000Z</time>
      </trkpt>
      <trkpt lat="47.30188" lon="-2.17346">
        <ele>52</ele>
        <time>2021-06-05T11:27:45.000Z</time>
      </trkpt>
      <trkpt lat="47.30188" lon="-2.17364">
        <ele>52</ele>
        <time>2021-06-05T11:27:47.000Z</time>
      </trkpt>
      <trkpt lat="47.30187" lon="-2.17381">
        <ele>52</ele>
        <time>2021-06-05T11:27:49.000Z</time>
      </trkpt>
      <trkpt lat="47.30186" lon="-2.17398">
        <ele>52</ele>
        <time>2021-06-05T11:27:51.000Z</time>
      </trkpt>
      <trkpt lat="47.30186" lon="-2.17415">
        <ele>52</ele>
        <time>2021-06-05T11:27:53.000Z</time>
      </trkpt>
      <trkpt lat="47.30185" lon="-2.17432">
        <ele>52</ele>
        <time>2021-06-05T11:27:55.000Z</time>
      </trkpt>
      <trkpt lat="47.30185" lon="-2.17449">
        <ele>52</ele>
        <time>2021-06-05T11:27:57.000Z</time>
      </trkpt>
      <trkpt lat="47.30184" lon="-2.17467">
        <ele>52</ele>
        <time>2021-06-05T11:27:59.000Z</time>
      </trkpt>
      <trkpt lat="47.30183" lon="-2.17484">
        <ele>52</ele>
        <time>2021-06-05T11:28:01.000Z</time>
      </trkpt>
      <trkpt lat="47.30182" lon="-2.17502">
        <ele>52</ele>
        <time>2021-06-05T11:28:03.000Z</time>
      </trkpt>
      <trkpt lat="47.3018" lon="-2.17518">
        <ele>52</ele>
        <time>2021-06-05T11:28:05.000Z</time>
      </trkpt>
      <trkpt lat="47.30179" lon="-2.17535">
        <ele>52</ele>
        <time>2021-06-05T11:28:07.000Z</time>
      </trkpt>
      <trkpt lat="47.30178" lon="-2.17552">
        <ele>52</ele>
        <time>2021-06-05T11:28:09.000Z</time>
      </trkpt>
      <trkpt lat="47.30177" lon="-2.17568">
        <ele>52</ele>
        <time>2021-06-05T11:28:11.000Z</time>
      </trkpt>
      <trkpt lat="47.30175" lon="-2.17584">
        <ele>52</ele>
        <time>2021-06-05T11:28:13.000Z</time>
      </trkpt>
      <trkpt lat="47.30174" lon="-2.17601">
        <ele>52</ele>
        <time>2021-06-05T11:28:15.000Z</time>
      </trkpt>
      <trkpt lat="47.30172" lon="-2.17618">
        <ele>52</ele>
        <time>2021-06-05T11:28:17.000Z</time>
      </trkpt>
      <trkpt lat="47.30171" lon="-2.17635">
        <ele>52</ele>
        <time>2021-06-05T11:28:19.000Z</time>
      </trkpt>
      <trkpt lat="47.30171" lon="-2.1765">
        <ele>52</ele>
        <time>2021-06-05T11:28:21.000Z</time>
      </trkpt>
      <trkpt lat="47.30173" lon="-2.17664">
        <ele>52</ele>
        <time>2021-06-05T11:28:23.000Z</time>
      </trkpt>
      <trkpt lat="47.30177" lon="-2.17677">
        <ele>53</ele>
        <time>2021-06-05T11:28:26.000Z</time>
      </trkpt>
      <trkpt lat="47.30185" lon="-2.17687">
        <ele>52</ele>
        <time>2021-06-05T11:28:28.000Z</time>
      </trkpt>
      <trkpt lat="47.30192" lon="-2.177">
        <ele>52</ele>
        <time>2021-06-05T11:28:30.000Z</time>
      </trkpt>
      <trkpt lat="47.30196" lon="-2.17717">
        <ele>52</ele>
        <time>2021-06-05T11:28:32.000Z</time>
      </trkpt>
      <trkpt lat="47.30196" lon="-2.17734">
        <ele>52</ele>
        <time>2021-06-05T11:28:34.000Z</time>
      </trkpt>
      <trkpt lat="47.30191" lon="-2.17751">
        <ele>53</ele>
        <time>2021-06-05T11:28:36.000Z</time>
      </trkpt>
      <trkpt lat="47.30184" lon="-2.17765">
        <ele>53</ele>
        <time>2021-06-05T11:28:38.000Z</time>
      </trkpt>
      <trkpt lat="47.30176" lon="-2.17777">
        <ele>52</ele>
        <time>2021-06-05T11:28:40.000Z</time>
      </trkpt>
      <trkpt lat="47.30171" lon="-2.17793">
        <ele>52</ele>
        <time>2021-06-05T11:28:42.000Z</time>
      </trkpt>
      <trkpt lat="47.3017" lon="-2.1781">
        <ele>52</ele>
        <time>2021-06-05T11:28:44.000Z</time>
      </trkpt>
      <trkpt lat="47.30169" lon="-2.17828">
        <ele>52</ele>
        <time>2021-06-05T11:28:46.000Z</time>
      </trkpt>
      <trkpt lat="47.30169" lon="-2.17846">
        <ele>52</ele>
        <time>2021-06-05T11:28:48.000Z</time>
      </trkpt>
      <trkpt lat="47.3017" lon="-2.17864">
        <ele>53</ele>
        <time>2021-06-05T11:28:50.000Z</time>
      </trkpt>
      <trkpt lat="47.30171" lon="-2.17881">
        <ele>53</ele>
        <time>2021-06-05T11:28:52.000Z</time>
      </trkpt>
      <trkpt lat="47.30174" lon="-2.17897">
        <ele>53</ele>
        <time>2021-06-05T11:28:54.000Z</time>
      </trkpt>
      <trkpt lat="47.30178" lon="-2.17913">
        <ele>53</ele>
        <time>2021-06-05T11:28:56.000Z</time>
      </trkpt>
      <trkpt lat="47.30184" lon="-2.17928">
        <ele>53</ele>
        <time>2021-06-05T11:28:58.000Z</time>
      </trkpt>
      <trkpt lat="47.30189" lon="-2.17942">
        <ele>53</ele>
        <time>2021-06-05T11:29:00.000Z</time>
      </trkpt>
      <trkpt lat="47.30194" lon="-2.17957">
        <ele>53</ele>
        <time>2021-06-05T11:29:02.000Z</time>
      </trkpt>
      <trkpt lat="47.30196" lon="-2.17974">
        <ele>53</ele>
        <time>2021-06-05T11:29:04.000Z</time>
      </trkpt>
      <trkpt lat="47.30194" lon="-2.17992">
        <ele>53</ele>
        <time>2021-06-05T11:29:06.000Z</time>
      </trkpt>
      <trkpt lat="47.3019" lon="-2.18009">
        <ele>51</ele>
        <time>2021-06-05T11:29:08.000Z</time>
      </trkpt>
      <trkpt lat="47.30188" lon="-2.18026">
        <ele>51</ele>
        <time>2021-06-05T11:29:10.000Z</time>
      </trkpt>
      <trkpt lat="47.30184" lon="-2.18044">
        <ele>52</ele>
        <time>2021-06-05T11:29:12.000Z</time>
      </trkpt>
      <trkpt lat="47.30177" lon="-2.18061">
        <ele>52</ele>
        <time>2021-06-05T11:29:14.000Z</time>
      </trkpt>
      <trkpt lat="47.3017" lon="-2.18075">
        <ele>53</ele>
        <time>2021-06-05T11:29:16.000Z</time>
      </trkpt>
      <trkpt lat="47.30162" lon="-2.18087">
        <ele>52</ele>
        <time>2021-06-05T11:29:18.000Z</time>
      </trkpt>
      <trkpt lat="47.30152" lon="-2.18094">
        <ele>53</ele>
        <time>2021-06-05T11:29:20.000Z</time>
      </trkpt>
      <trkpt lat="47.30141" lon="-2.18097">
        <ele>53</ele>
        <time>2021-06-05T11:29:22.000Z</time>
      </trkpt>
      <trkpt lat="47.3013" lon="-2.18097">
        <ele>53</ele>
        <time>2021-06-05T11:29:24.000Z</time>
      </trkpt>
      <trkpt lat="47.30118" lon="-2.18098">
        <ele>52</ele>
        <time>2021-06-05T11:29:26.000Z</time>
      </trkpt>
      <trkpt lat="47.30107" lon="-2.18097">
        <ele>53</ele>
        <time>2021-06-05T11:29:28.000Z</time>
      </trkpt>
      <trkpt lat="47.30096" lon="-2.18096">
        <ele>52</ele>
        <time>2021-06-05T11:29:30.000Z</time>
      </trkpt>
      <trkpt lat="47.30084" lon="-2.18096">
        <ele>52</ele>
        <time>2021-06-05T11:29:32.000Z</time>
      </trkpt>
      <trkpt lat="47.30073" lon="-2.18095">
        <ele>52</ele>
        <time>2021-06-05T11:29:34.000Z</time>
      </trkpt>
      <trkpt lat="47.30061" lon="-2.18094">
        <ele>52</ele>
        <time>2021-06-05T11:29:36.000Z</time>
      </trkpt>
      <trkpt lat="47.3005" lon="-2.18094">
        <ele>52</ele>
        <time>2021-06-05T11:29:38.000Z</time>
      </trkpt>
      <trkpt lat="47.30039" lon="-2.18093">
        <ele>52</ele>
        <time>2021-06-05T11:29:40.000Z</time>
      </trkpt>
      <trkpt lat="47.30028" lon="-2.18093">
        <ele>52</ele>
        <time>2021-06-05T11:29:42.000Z</time>
      </trkpt>
      <trkpt lat="47.30017" lon="-2.18093">
        <ele>52</ele>
        <time>2021-06-05T11:29:44.000Z</time>
      </trkpt>
      <trkpt lat="47.30007" lon="-2.18094">
        <ele>52</ele>
        <time>2021-06-05T11:29:46.000Z</time>
      </trkpt>
      <trkpt lat="47.29997" lon="-2.181">
        <ele>53</ele>
        <time>2021-06-05T11:29:48.000Z</time>
      </trkpt>
      <trkpt lat="47.29988" lon="-2.18108">
        <ele>53</ele>
        <time>2021-06-05T11:29:50.000Z</time>
      </trkpt>
      <trkpt lat="47.29981" lon="-2.1812">
        <ele>53</ele>
        <time>2021-06-05T11:29:52.000Z</time>
      </trkpt>
      <trkpt lat="47.29971" lon="-2.18126">
        <ele>53</ele>
        <time>2021-06-05T11:29:54.000Z</time>
      </trkpt>
      <trkpt lat="47.29961" lon="-2.18126">
        <ele>54</ele>
        <time>2021-06-05T11:29:56.000Z</time>
      </trkpt>
      <trkpt lat="47.29951" lon="-2.18119">
        <ele>54</ele>
        <time>2021-06-05T11:29:58.000Z</time>
      </trkpt>
      <trkpt lat="47.29945" lon="-2.18105">
        <ele>54</ele>
        <time>2021-06-05T11:30:00.000Z</time>
      </trkpt>
      <trkpt lat="47.29944" lon="-2.18089">
        <ele>54</ele>
        <time>2021-06-05T11:30:02.000Z</time>
      </trkpt>
      <trkpt lat="47.29947" lon="-2.18073">
        <ele>54</ele>
        <time>2021-06-05T11:30:04.000Z</time>
      </trkpt>
      <trkpt lat="47.29954" lon="-2.18058">
        <ele>54</ele>
        <time>2021-06-05T11:30:06.000Z</time>
      </trkpt>
      <trkpt lat="47.2996" lon="-2.18042">
        <ele>54</ele>
        <time>2021-06-05T11:30:08.000Z</time>
      </trkpt>
      <trkpt lat="47.29963" lon="-2.18024">
        <ele>53</ele>
        <time>2021-06-05T11:30:10.000Z</time>
      </trkpt>
      <trkpt lat="47.29965" lon="-2.18005">
        <ele>53</ele>
        <time>2021-06-05T11:30:12.000Z</time>
      </trkpt>
      <trkpt lat="47.29966" lon="-2.17986">
        <ele>52</ele>
        <time>2021-06-05T11:30:14.000Z</time>
      </trkpt>
      <trkpt lat="47.29965" lon="-2.17967">
        <ele>52</ele>
        <time>2021-06-05T11:30:16.000Z</time>
      </trkpt>
      <trkpt lat="47.29959" lon="-2.1795">
        <ele>51</ele>
        <time>2021-06-05T11:30:18.000Z</time>
      </trkpt>
      <trkpt lat="47.2995" lon="-2.17938">
        <ele>51</ele>
        <time>2021-06-05T11:30:20.000Z</time>
      </trkpt>
      <trkpt lat="47.29939" lon="-2.17928">
        <ele>52</ele>
        <time>2021-06-05T11:30:22.000Z</time>
      </trkpt>
      <trkpt lat="47.29927" lon="-2.1792">
        <ele>52</ele>
        <time>2021-06-05T11:30:24.000Z</time>
      </trkpt>
      <trkpt lat="47.29915" lon="-2.17914">
        <ele>52</ele>
        <time>2021-06-05T11:30:26.000Z</time>
      </trkpt>
      <trkpt lat="47.29904" lon="-2.17908">
        <ele>52</ele>
        <time>2021-06-05T11:30:28.000Z</time>
      </trkpt>
      <trkpt lat="47.29892" lon="-2.17903">
        <ele>52</ele>
        <time>2021-06-05T11:30:30.000Z</time>
      </trkpt>
      <trkpt lat="47.2988" lon="-2.17898">
        <ele>53</ele>
        <time>2021-06-05T11:30:32.000Z</time>
      </trkpt>
      <trkpt lat="47.29869" lon="-2.17893">
        <ele>53</ele>
        <time>2021-06-05T11:30:34.000Z</time>
      </trkpt>
      <trkpt lat="47.29857" lon="-2.17888">
        <ele>53</ele>
        <time>2021-06-05T11:30:36.000Z</time>
      </trkpt>
      <trkpt lat="47.29846" lon="-2.17883">
        <ele>54</ele>
        <time>2021-06-05T11:30:38.000Z</time>
      </trkpt>
      <trkpt lat="47.29835" lon="-2.17877">
        <ele>54</ele>
        <time>2021-06-05T11:30:40.000Z</time>
      </trkpt>
      <trkpt lat="47.29825" lon="-2.17871">
        <ele>54</ele>
        <time>2021-06-05T11:30:42.000Z</time>
      </trkpt>
      <trkpt lat="47.29814" lon="-2.17865">
        <ele>54</ele>
        <time>2021-06-05T11:30:44.000Z</time>
      </trkpt>
      <trkpt lat="47.29803" lon="-2.17858">
        <ele>54</ele>
        <time>2021-06-05T11:30:46.000Z</time>
      </trkpt>
      <trkpt lat="47.29792" lon="-2.17853">
        <ele>54</ele>
        <time>2021-06-05T11:30:48.000Z</time>
      </trkpt>
      <trkpt lat="47.29781" lon="-2.17848">
        <ele>55</ele>
        <time>2021-06-05T11:30:50.000Z</time>
      </trkpt>
      <trkpt lat="47.2977" lon="-2.17843">
        <ele>55</ele>
        <time>2021-06-05T11:30:52.000Z</time>
      </trkpt>
      <trkpt lat="47.29759" lon="-2.17837">
        <ele>55</ele>
        <time>2021-06-05T11:30:54.000Z</time>
      </trkpt>
      <trkpt lat="47.29748" lon="-2.17832">
        <ele>55</ele>
        <time>2021-06-05T11:30:56.000Z</time>
      </trkpt>
      <trkpt lat="47.29737" lon="-2.17827">
        <ele>55</ele>
        <time>2021-06-05T11:30:58.000Z</time>
      </trkpt>
      <trkpt lat="47.29726" lon="-2.17822">
        <ele>55</ele>
        <time>2021-06-05T11:31:00.000Z</time>
      </trkpt>
      <trkpt lat="47.29714" lon="-2.17818">
        <ele>55</ele>
        <time>2021-06-05T11:31:02.000Z</time>
      </trkpt>
      <trkpt lat="47.29703" lon="-2.17814">
        <ele>56</ele>
        <time>2021-06-05T11:31:04.000Z</time>
      </trkpt>
      <trkpt lat="47.29691" lon="-2.17808">
        <ele>56</ele>
        <time>2021-06-05T11:31:06.000Z</time>
      </trkpt>
      <trkpt lat="47.29681" lon="-2.17803">
        <ele>56</ele>
        <time>2021-06-05T11:31:08.000Z</time>
      </trkpt>
      <trkpt lat="47.2967" lon="-2.17799">
        <ele>56</ele>
        <time>2021-06-05T11:31:10.000Z</time>
      </trkpt>
      <trkpt lat="47.29659" lon="-2.17795">
        <ele>57</ele>
        <time>2021-06-05T11:31:12.000Z</time>
      </trkpt>
      <trkpt lat="47.29648" lon="-2.1779">
        <ele>57</ele>
        <time>2021-06-05T11:31:14.000Z</time>
      </trkpt>
      <trkpt lat="47.29638" lon="-2.17786">
        <ele>57</ele>
        <time>2021-06-05T11:31:16.000Z</time>
      </trkpt>
      <trkpt lat="47.29628" lon="-2.17782">
        <ele>57</ele>
        <time>2021-06-05T11:31:18.000Z</time>
      </trkpt>
      <trkpt lat="47.29617" lon="-2.17778">
        <ele>57</ele>
        <time>2021-06-05T11:31:20.000Z</time>
      </trkpt>
      <trkpt lat="47.29606" lon="-2.17773">
        <ele>57</ele>
        <time>2021-06-05T11:31:22.000Z</time>
      </trkpt>
      <trkpt lat="47.29596" lon="-2.17768">
        <ele>58</ele>
        <time>2021-06-05T11:31:24.000Z</time>
      </trkpt>
      <trkpt lat="47.29585" lon="-2.17763">
        <ele>58</ele>
        <time>2021-06-05T11:31:26.000Z</time>
      </trkpt>
      <trkpt lat="47.29575" lon="-2.17759">
        <ele>59</ele>
        <time>2021-06-05T11:31:28.000Z</time>
      </trkpt>
      <trkpt lat="47.29565" lon="-2.17756">
        <ele>60</ele>
        <time>2021-06-05T11:31:30.000Z</time>
      </trkpt>
      <trkpt lat="47.29555" lon="-2.17752">
        <ele>60</ele>
        <time>2021-06-05T11:31:32.000Z</time>
      </trkpt>
      <trkpt lat="47.29546" lon="-2.17748">
        <ele>60</ele>
        <time>2021-06-05T11:31:34.000Z</time>
      </trkpt>
      <trkpt lat="47.29536" lon="-2.17743">
        <ele>61</ele>
        <time>2021-06-05T11:31:36.000Z</time>
      </trkpt>
      <trkpt lat="47.29526" lon="-2.17739">
        <ele>61</ele>
        <time>2021-06-05T11:31:38.000Z</time>
      </trkpt>
      <trkpt lat="47.29516" lon="-2.17734">
        <ele>61</ele>
        <time>2021-06-05T11:31:40.000Z</time>
      </trkpt>
      <trkpt lat="47.29506" lon="-2.1773">
        <ele>62</ele>
        <time>2021-06-05T11:31:42.000Z</time>
      </trkpt>
      <trkpt lat="47.29496" lon="-2.17726">
        <ele>62</ele>
        <time>2021-06-05T11:31:44.000Z</time>
      </trkpt>
      <trkpt lat="47.29486" lon="-2.17722">
        <ele>62</ele>
        <time>2021-06-05T11:31:46.000Z</time>
      </trkpt>
      <trkpt lat="47.29477" lon="-2.17718">
        <ele>63</ele>
        <time>2021-06-05T11:31:48.000Z</time>
      </trkpt>
      <trkpt lat="47.29467" lon="-2.17714">
        <ele>63</ele>
        <time>2021-06-05T11:31:50.000Z</time>
      </trkpt>
      <trkpt lat="47.29457" lon="-2.1771">
        <ele>63</ele>
        <time>2021-06-05T11:31:52.000Z</time>
      </trkpt>
      <trkpt lat="47.29447" lon="-2.17706">
        <ele>64</ele>
        <time>2021-06-05T11:31:54.000Z</time>
      </trkpt>
      <trkpt lat="47.29437" lon="-2.17702">
        <ele>64</ele>
        <time>2021-06-05T11:31:56.000Z</time>
      </trkpt>
      <trkpt lat="47.29427" lon="-2.17698">
        <ele>64</ele>
        <time>2021-06-05T11:31:58.000Z</time>
      </trkpt>
      <trkpt lat="47.29417" lon="-2.17694">
        <ele>64</ele>
        <time>2021-06-05T11:32:00.000Z</time>
      </trkpt>
      <trkpt lat="47.29407" lon="-2.17689">
        <ele>63</ele>
        <time>2021-06-05T11:32:02.000Z</time>
      </trkpt>
      <trkpt lat="47.29398" lon="-2.17685">
        <ele>64</ele>
        <time>2021-06-05T11:32:04.000Z</time>
      </trkpt>
      <trkpt lat="47.29389" lon="-2.17681">
        <ele>65</ele>
        <time>2021-06-05T11:32:06.000Z</time>
      </trkpt>
      <trkpt lat="47.29379" lon="-2.17677">
        <ele>65</ele>
        <time>2021-06-05T11:32:08.000Z</time>
      </trkpt>
      <trkpt lat="47.2937" lon="-2.17673">
        <ele>66</ele>
        <time>2021-06-05T11:32:10.000Z</time>
      </trkpt>
      <trkpt lat="47.29361" lon="-2.17668">
        <ele>67</ele>
        <time>2021-06-05T11:32:12.000Z</time>
      </trkpt>
      <trkpt lat="47.29351" lon="-2.17664">
        <ele>67</ele>
        <time>2021-06-05T11:32:14.000Z</time>
      </trkpt>
      <trkpt lat="47.29341" lon="-2.1766">
        <ele>67</ele>
        <time>2021-06-05T11:32:16.000Z</time>
      </trkpt>
      <trkpt lat="47.29332" lon="-2.17655">
        <ele>68</ele>
        <time>2021-06-05T11:32:18.000Z</time>
      </trkpt>
      <trkpt lat="47.29323" lon="-2.17651">
        <ele>68</ele>
        <time>2021-06-05T11:32:20.000Z</time>
      </trkpt>
      <trkpt lat="47.29313" lon="-2.17646">
        <ele>69</ele>
        <time>2021-06-05T11:32:22.000Z</time>
      </trkpt>
      <trkpt lat="47.29304" lon="-2.17641">
        <ele>70</ele>
        <time>2021-06-05T11:32:24.000Z</time>
      </trkpt>
      <trkpt lat="47.29295" lon="-2.17636">
        <ele>70</ele>
        <time>2021-06-05T11:32:26.000Z</time>
      </trkpt>
      <trkpt lat="47.29286" lon="-2.17632">
        <ele>71</ele>
        <time>2021-06-05T11:32:28.000Z</time>
      </trkpt>
      <trkpt lat="47.29277" lon="-2.17628">
        <ele>71</ele>
        <time>2021-06-05T11:32:30.000Z</time>
      </trkpt>
      <trkpt lat="47.29268" lon="-2.17623">
        <ele>71</ele>
        <time>2021-06-05T11:32:32.000Z</time>
      </trkpt>
      <trkpt lat="47.2926" lon="-2.17619">
        <ele>71</ele>
        <time>2021-06-05T11:32:34.000Z</time>
      </trkpt>
      <trkpt lat="47.29251" lon="-2.17614">
        <ele>71</ele>
        <time>2021-06-05T11:32:36.000Z</time>
      </trkpt>
      <trkpt lat="47.29242" lon="-2.17609">
        <ele>72</ele>
        <time>2021-06-05T11:32:38.000Z</time>
      </trkpt>
      <trkpt lat="47.29233" lon="-2.17604">
        <ele>73</ele>
        <time>2021-06-05T11:32:40.000Z</time>
      </trkpt>
      <trkpt lat="47.29224" lon="-2.176">
        <ele>73</ele>
        <time>2021-06-05T11:32:42.000Z</time>
      </trkpt>
      <trkpt lat="47.29215" lon="-2.17595">
        <ele>73</ele>
        <time>2021-06-05T11:32:44.000Z</time>
      </trkpt>
      <trkpt lat="47.29202" lon="-2.17588">
        <ele>74</ele>
        <time>2021-06-05T11:32:47.000Z</time>
      </trkpt>
      <trkpt lat="47.29193" lon="-2.17583">
        <ele>74</ele>
        <time>2021-06-05T11:32:49.000Z</time>
      </trkpt>
      <trkpt lat="47.29185" lon="-2.17578">
        <ele>75</ele>
        <time>2021-06-05T11:32:51.000Z</time>
      </trkpt>
      <trkpt lat="47.29176" lon="-2.17573">
        <ele>75</ele>
        <time>2021-06-05T11:32:53.000Z</time>
      </trkpt>
      <trkpt lat="47.29167" lon="-2.17567">
        <ele>76</ele>
        <time>2021-06-05T11:32:55.000Z</time>
      </trkpt>
      <trkpt lat="47.29158" lon="-2.17562">
        <ele>76</ele>
        <time>2021-06-05T11:32:57.000Z</time>
      </trkpt>
      <trkpt lat="47.2915" lon="-2.17556">
        <ele>77</ele>
        <time>2021-06-05T11:32:59.000Z</time>
      </trkpt>
      <trkpt lat="47.29137" lon="-2.17549">
        <ele>78</ele>
        <time>2021-06-05T11:33:02.000Z</time>
      </trkpt>
      <trkpt lat="47.29125" lon="-2.17542">
        <ele>79</ele>
        <time>2021-06-05T11:33:05.000Z</time>
      </trkpt>
      <trkpt lat="47.29113" lon="-2.17535">
        <ele>79</ele>
        <time>2021-06-05T11:33:08.000Z</time>
      </trkpt>
      <trkpt lat="47.29102" lon="-2.17528">
        <ele>80</ele>
        <time>2021-06-05T11:33:11.000Z</time>
      </trkpt>
      <trkpt lat="47.29091" lon="-2.17522">
        <ele>81</ele>
        <time>2021-06-05T11:33:14.000Z</time>
      </trkpt>
      <trkpt lat="47.29079" lon="-2.17515">
        <ele>82</ele>
        <time>2021-06-05T11:33:17.000Z</time>
      </trkpt>
      <trkpt lat="47.29068" lon="-2.17507">
        <ele>82</ele>
        <time>2021-06-05T11:33:20.000Z</time>
      </trkpt>
      <trkpt lat="47.29056" lon="-2.175">
        <ele>83</ele>
        <time>2021-06-05T11:33:23.000Z</time>
      </trkpt>
      <trkpt lat="47.29045" lon="-2.17493">
        <ele>84</ele>
        <time>2021-06-05T11:33:26.000Z</time>
      </trkpt>
      <trkpt lat="47.29034" lon="-2.17485">
        <ele>85</ele>
        <time>2021-06-05T11:33:29.000Z</time>
      </trkpt>
      <trkpt lat="47.29023" lon="-2.17478">
        <ele>86</ele>
        <time>2021-06-05T11:33:32.000Z</time>
      </trkpt>
      <trkpt lat="47.29011" lon="-2.17471">
        <ele>86</ele>
        <time>2021-06-05T11:33:35.000Z</time>
      </trkpt>
      <trkpt lat="47.29" lon="-2.17463">
        <ele>87</ele>
        <time>2021-06-05T11:33:38.000Z</time>
      </trkpt>
      <trkpt lat="47.28989" lon="-2.17454">
        <ele>87</ele>
        <time>2021-06-05T11:33:41.000Z</time>
      </trkpt>
      <trkpt lat="47.28978" lon="-2.17447">
        <ele>88</ele>
        <time>2021-06-05T11:33:44.000Z</time>
      </trkpt>
      <trkpt lat="47.28968" lon="-2.1744">
        <ele>89</ele>
        <time>2021-06-05T11:33:47.000Z</time>
      </trkpt>
      <trkpt lat="47.28957" lon="-2.17432">
        <ele>90</ele>
        <time>2021-06-05T11:33:50.000Z</time>
      </trkpt>
      <trkpt lat="47.28947" lon="-2.17424">
        <ele>91</ele>
        <time>2021-06-05T11:33:53.000Z</time>
      </trkpt>
      <trkpt lat="47.28936" lon="-2.17416">
        <ele>92</ele>
        <time>2021-06-05T11:33:56.000Z</time>
      </trkpt>
      <trkpt lat="47.28925" lon="-2.17409">
        <ele>93</ele>
        <time>2021-06-05T11:33:59.000Z</time>
      </trkpt>
      <trkpt lat="47.28915" lon="-2.17401">
        <ele>93</ele>
        <time>2021-06-05T11:34:02.000Z</time>
      </trkpt>
      <trkpt lat="47.28903" lon="-2.17392">
        <ele>94</ele>
        <time>2021-06-05T11:34:05.000Z</time>
      </trkpt>
      <trkpt lat="47.28892" lon="-2.17384">
        <ele>95</ele>
        <time>2021-06-05T11:34:08.000Z</time>
      </trkpt>
      <trkpt lat="47.28881" lon="-2.17375">
        <ele>95</ele>
        <time>2021-06-05T11:34:11.000Z</time>
      </trkpt>
      <trkpt lat="47.2887" lon="-2.17367">
        <ele>96</ele>
        <time>2021-06-05T11:34:14.000Z</time>
      </trkpt>
      <trkpt lat="47.28859" lon="-2.17359">
        <ele>97</ele>
        <time>2021-06-05T11:34:17.000Z</time>
      </trkpt>
      <trkpt lat="47.28848" lon="-2.1735">
        <ele>97</ele>
        <time>2021-06-05T11:34:20.000Z</time>
      </trkpt>
      <trkpt lat="47.28838" lon="-2.17342">
        <ele>98</ele>
        <time>2021-06-05T11:34:23.000Z</time>
      </trkpt>
      <trkpt lat="47.28828" lon="-2.17334">
        <ele>99</ele>
        <time>2021-06-05T11:34:26.000Z</time>
      </trkpt>
      <trkpt lat="47.28817" lon="-2.17326">
        <ele>100</ele>
        <time>2021-06-05T11:34:29.000Z</time>
      </trkpt>
      <trkpt lat="47.28807" lon="-2.17317">
        <ele>101</ele>
        <time>2021-06-05T11:34:32.000Z</time>
      </trkpt>
      <trkpt lat="47.28796" lon="-2.17308">
        <ele>102</ele>
        <time>2021-06-05T11:34:35.000Z</time>
      </trkpt>
      <trkpt lat="47.28785" lon="-2.17298">
        <ele>102</ele>
        <time>2021-06-05T11:34:38.000Z</time>
      </trkpt>
      <trkpt lat="47.28775" lon="-2.17289">
        <ele>104</ele>
        <time>2021-06-05T11:34:41.000Z</time>
      </trkpt>
      <trkpt lat="47.28765" lon="-2.1728">
        <ele>105</ele>
        <time>2021-06-05T11:34:44.000Z</time>
      </trkpt>
      <trkpt lat="47.28755" lon="-2.17271">
        <ele>106</ele>
        <time>2021-06-05T11:34:47.000Z</time>
      </trkpt>
      <trkpt lat="47.28744" lon="-2.17263">
        <ele>107</ele>
        <time>2021-06-05T11:34:50.000Z</time>
      </trkpt>
      <trkpt lat="47.28734" lon="-2.17255">
        <ele>108</ele>
        <time>2021-06-05T11:34:53.000Z</time>
      </trkpt>
      <trkpt lat="47.28724" lon="-2.17246">
        <ele>109</ele>
        <time>2021-06-05T11:34:56.000Z</time>
      </trkpt>
      <trkpt lat="47.28714" lon="-2.17237">
        <ele>110</ele>
        <time>2021-06-05T11:34:59.000Z</time>
      </trkpt>
      <trkpt lat="47.28704" lon="-2.17229">
        <ele>110</ele>
        <time>2021-06-05T11:35:02.000Z</time>
      </trkpt>
      <trkpt lat="47.28693" lon="-2.1722">
        <ele>111</ele>
        <time>2021-06-05T11:35:05.000Z</time>
      </trkpt>
      <trkpt lat="47.28683" lon="-2.17211">
        <ele>112</ele>
        <time>2021-06-05T11:35:08.000Z</time>
      </trkpt>
      <trkpt lat="47.28672" lon="-2.17202">
        <ele>112</ele>
        <time>2021-06-05T11:35:11.000Z</time>
      </trkpt>
      <trkpt lat="47.28663" lon="-2.17193">
        <ele>113</ele>
        <time>2021-06-05T11:35:14.000Z</time>
      </trkpt>
      <trkpt lat="47.28653" lon="-2.17183">
        <ele>117</ele>
        <time>2021-06-05T11:35:18.000Z</time>
      </trkpt>
      <trkpt lat="47.28642" lon="-2.17174">
        <ele>119</ele>
        <time>2021-06-05T11:35:21.000Z</time>
      </trkpt>
      <trkpt lat="47.28633" lon="-2.17167">
        <ele>118</ele>
        <time>2021-06-05T11:35:23.000Z</time>
      </trkpt>
      <trkpt lat="47.28625" lon="-2.17161">
        <ele>117</ele>
        <time>2021-06-05T11:35:25.000Z</time>
      </trkpt>
      <trkpt lat="47.28617" lon="-2.17155">
        <ele>116</ele>
        <time>2021-06-05T11:35:27.000Z</time>
      </trkpt>
      <trkpt lat="47.28608" lon="-2.17148">
        <ele>116</ele>
        <time>2021-06-05T11:35:29.000Z</time>
      </trkpt>
      <trkpt lat="47.28597" lon="-2.17139">
        <ele>116</ele>
        <time>2021-06-05T11:35:32.000Z</time>
      </trkpt>
      <trkpt lat="47.28585" lon="-2.1713">
        <ele>115</ele>
        <time>2021-06-05T11:35:35.000Z</time>
      </trkpt>
      <trkpt lat="47.28577" lon="-2.17123">
        <ele>115</ele>
        <time>2021-06-05T11:35:37.000Z</time>
      </trkpt>
      <trkpt lat="47.28566" lon="-2.17113">
        <ele>114</ele>
        <time>2021-06-05T11:35:40.000Z</time>
      </trkpt>
      <trkpt lat="47.28557" lon="-2.17106">
        <ele>114</ele>
        <time>2021-06-05T11:35:42.000Z</time>
      </trkpt>
      <trkpt lat="47.28549" lon="-2.171">
        <ele>115</ele>
        <time>2021-06-05T11:35:44.000Z</time>
      </trkpt>
      <trkpt lat="47.28541" lon="-2.17093">
        <ele>114</ele>
        <time>2021-06-05T11:35:46.000Z</time>
      </trkpt>
      <trkpt lat="47.28533" lon="-2.17085">
        <ele>114</ele>
        <time>2021-06-05T11:35:48.000Z</time>
      </trkpt>
      <trkpt lat="47.28524" lon="-2.17078">
        <ele>115</ele>
        <time>2021-06-05T11:35:50.000Z</time>
      </trkpt>
      <trkpt lat="47.28514" lon="-2.17071">
        <ele>115</ele>
        <time>2021-06-05T11:35:52.000Z</time>
      </trkpt>
      <trkpt lat="47.28504" lon="-2.17062">
        <ele>115</ele>
        <time>2021-06-05T11:35:54.000Z</time>
      </trkpt>
      <trkpt lat="47.28495" lon="-2.17054">
        <ele>115</ele>
        <time>2021-06-05T11:35:56.000Z</time>
      </trkpt>
      <trkpt lat="47.28486" lon="-2.17046">
        <ele>115</ele>
        <time>2021-06-05T11:35:58.000Z</time>
      </trkpt>
      <trkpt lat="47.28476" lon="-2.17039">
        <ele>115</ele>
        <time>2021-06-05T11:36:00.000Z</time>
      </trkpt>
      <trkpt lat="47.28466" lon="-2.17031">
        <ele>114</ele>
        <time>2021-06-05T11:36:02.000Z</time>
      </trkpt>
      <trkpt lat="47.28456" lon="-2.17022">
        <ele>115</ele>
        <time>2021-06-05T11:36:04.000Z</time>
      </trkpt>
      <trkpt lat="47.28446" lon="-2.17014">
        <ele>114</ele>
        <time>2021-06-05T11:36:06.000Z</time>
      </trkpt>
      <trkpt lat="47.28436" lon="-2.17006">
        <ele>113</ele>
        <time>2021-06-05T11:36:08.000Z</time>
      </trkpt>
      <trkpt lat="47.28426" lon="-2.16998">
        <ele>112</ele>
        <time>2021-06-05T11:36:10.000Z</time>
      </trkpt>
      <trkpt lat="47.28416" lon="-2.16989">
        <ele>112</ele>
        <time>2021-06-05T11:36:12.000Z</time>
      </trkpt>
      <trkpt lat="47.28405" lon="-2.16981">
        <ele>112</ele>
        <time>2021-06-05T11:36:14.000Z</time>
      </trkpt>
      <trkpt lat="47.28395" lon="-2.16972">
        <ele>112</ele>
        <time>2021-06-05T11:36:16.000Z</time>
      </trkpt>
      <trkpt lat="47.28385" lon="-2.16964">
        <ele>112</ele>
        <time>2021-06-05T11:36:18.000Z</time>
      </trkpt>
      <trkpt lat="47.28376" lon="-2.16955">
        <ele>112</ele>
        <time>2021-06-05T11:36:20.000Z</time>
      </trkpt>
      <trkpt lat="47.28365" lon="-2.16946">
        <ele>112</ele>
        <time>2021-06-05T11:36:22.000Z</time>
      </trkpt>
      <trkpt lat="47.28355" lon="-2.16938">
        <ele>111</ele>
        <time>2021-06-05T11:36:24.000Z</time>
      </trkpt>
      <trkpt lat="47.28344" lon="-2.16929">
        <ele>111</ele>
        <time>2021-06-05T11:36:26.000Z</time>
      </trkpt>
      <trkpt lat="47.28333" lon="-2.16919">
        <ele>111</ele>
        <time>2021-06-05T11:36:28.000Z</time>
      </trkpt>
      <trkpt lat="47.28323" lon="-2.1691">
        <ele>111</ele>
        <time>2021-06-05T11:36:30.000Z</time>
      </trkpt>
      <trkpt lat="47.28311" lon="-2.16902">
        <ele>110</ele>
        <time>2021-06-05T11:36:32.000Z</time>
      </trkpt>
      <trkpt lat="47.283" lon="-2.16892">
        <ele>110</ele>
        <time>2021-06-05T11:36:34.000Z</time>
      </trkpt>
      <trkpt lat="47.28288" lon="-2.16882">
        <ele>109</ele>
        <time>2021-06-05T11:36:36.000Z</time>
      </trkpt>
      <trkpt lat="47.28275" lon="-2.16871">
        <ele>107</ele>
        <time>2021-06-05T11:36:38.000Z</time>
      </trkpt>
      <trkpt lat="47.28262" lon="-2.1686">
        <ele>106</ele>
        <time>2021-06-05T11:36:40.000Z</time>
      </trkpt>
      <trkpt lat="47.28248" lon="-2.16848">
        <ele>105</ele>
        <time>2021-06-05T11:36:42.000Z</time>
      </trkpt>
      <trkpt lat="47.28234" lon="-2.16836">
        <ele>104</ele>
        <time>2021-06-05T11:36:44.000Z</time>
      </trkpt>
      <trkpt lat="47.28226" lon="-2.16829">
        <ele>103</ele>
        <time>2021-06-05T11:36:45.000Z</time>
      </trkpt>
      <trkpt lat="47.2821" lon="-2.16817">
        <ele>102</ele>
        <time>2021-06-05T11:36:47.000Z</time>
      </trkpt>
      <trkpt lat="47.28202" lon="-2.1681">
        <ele>101</ele>
        <time>2021-06-05T11:36:48.000Z</time>
      </trkpt>
      <trkpt lat="47.28194" lon="-2.16803">
        <ele>101</ele>
        <time>2021-06-05T11:36:49.000Z</time>
      </trkpt>
      <trkpt lat="47.28185" lon="-2.16796">
        <ele>100</ele>
        <time>2021-06-05T11:36:50.000Z</time>
      </trkpt>
      <trkpt lat="47.28177" lon="-2.16789">
        <ele>100</ele>
        <time>2021-06-05T11:36:51.000Z</time>
      </trkpt>
      <trkpt lat="47.28168" lon="-2.16783">
        <ele>100</ele>
        <time>2021-06-05T11:36:52.000Z</time>
      </trkpt>
      <trkpt lat="47.28159" lon="-2.16775">
        <ele>99</ele>
        <time>2021-06-05T11:36:53.000Z</time>
      </trkpt>
      <trkpt lat="47.2815" lon="-2.16768">
        <ele>98</ele>
        <time>2021-06-05T11:36:54.000Z</time>
      </trkpt>
      <trkpt lat="47.2814" lon="-2.1676">
        <ele>97</ele>
        <time>2021-06-05T11:36:55.000Z</time>
      </trkpt>
      <trkpt lat="47.28131" lon="-2.16753">
        <ele>97</ele>
        <time>2021-06-05T11:36:56.000Z</time>
      </trkpt>
      <trkpt lat="47.28121" lon="-2.16745">
        <ele>96</ele>
        <time>2021-06-05T11:36:57.000Z</time>
      </trkpt>
      <trkpt lat="47.28111" lon="-2.16738">
        <ele>96</ele>
        <time>2021-06-05T11:36:58.000Z</time>
      </trkpt>
      <trkpt lat="47.28101" lon="-2.16731">
        <ele>95</ele>
        <time>2021-06-05T11:36:59.000Z</time>
      </trkpt>
      <trkpt lat="47.28092" lon="-2.16724">
        <ele>94</ele>
        <time>2021-06-05T11:37:00.000Z</time>
      </trkpt>
      <trkpt lat="47.28081" lon="-2.16717">
        <ele>93</ele>
        <time>2021-06-05T11:37:01.000Z</time>
      </trkpt>
      <trkpt lat="47.28071" lon="-2.16709">
        <ele>93</ele>
        <time>2021-06-05T11:37:02.000Z</time>
      </trkpt>
      <trkpt lat="47.28061" lon="-2.16702">
        <ele>92</ele>
        <time>2021-06-05T11:37:03.000Z</time>
      </trkpt>
      <trkpt lat="47.28051" lon="-2.16694">
        <ele>91</ele>
        <time>2021-06-05T11:37:04.000Z</time>
      </trkpt>
      <trkpt lat="47.28041" lon="-2.16687">
        <ele>90</ele>
        <time>2021-06-05T11:37:05.000Z</time>
      </trkpt>
      <trkpt lat="47.2803" lon="-2.1668">
        <ele>89</ele>
        <time>2021-06-05T11:37:06.000Z</time>
      </trkpt>
      <trkpt lat="47.2802" lon="-2.16673">
        <ele>88</ele>
        <time>2021-06-05T11:37:07.000Z</time>
      </trkpt>
      <trkpt lat="47.28009" lon="-2.16665">
        <ele>88</ele>
        <time>2021-06-05T11:37:08.000Z</time>
      </trkpt>
      <trkpt lat="47.27999" lon="-2.16658">
        <ele>87</ele>
        <time>2021-06-05T11:37:09.000Z</time>
      </trkpt>
      <trkpt lat="47.27989" lon="-2.16651">
        <ele>86</ele>
        <time>2021-06-05T11:37:10.000Z</time>
      </trkpt>
      <trkpt lat="47.27978" lon="-2.16644">
        <ele>85</ele>
        <time>2021-06-05T11:37:11.000Z</time>
      </trkpt>
      <trkpt lat="47.27967" lon="-2.16637">
        <ele>85</ele>
        <time>2021-06-05T11:37:12.000Z</time>
      </trkpt>
      <trkpt lat="47.27955" lon="-2.1663">
        <ele>84</ele>
        <time>2021-06-05T11:37:13.000Z</time>
      </trkpt>
      <trkpt lat="47.27944" lon="-2.16623">
        <ele>83</ele>
        <time>2021-06-05T11:37:14.000Z</time>
      </trkpt>
      <trkpt lat="47.27933" lon="-2.16615">
        <ele>82</ele>
        <time>2021-06-05T11:37:15.000Z</time>
      </trkpt>
      <trkpt lat="47.27922" lon="-2.16608">
        <ele>81</ele>
        <time>2021-06-05T11:37:16.000Z</time>
      </trkpt>
      <trkpt lat="47.2791" lon="-2.166">
        <ele>80</ele>
        <time>2021-06-05T11:37:17.000Z</time>
      </trkpt>
      <trkpt lat="47.27898" lon="-2.16593">
        <ele>79</ele>
        <time>2021-06-05T11:37:18.000Z</time>
      </trkpt>
      <trkpt lat="47.27886" lon="-2.16586">
        <ele>78</ele>
        <time>2021-06-05T11:37:19.000Z</time>
      </trkpt>
      <trkpt lat="47.27873" lon="-2.16578">
        <ele>78</ele>
        <time>2021-06-05T11:37:20.000Z</time>
      </trkpt>
      <trkpt lat="47.27861" lon="-2.16571">
        <ele>77</ele>
        <time>2021-06-05T11:37:21.000Z</time>
      </trkpt>
      <trkpt lat="47.27848" lon="-2.16564">
        <ele>76</ele>
        <time>2021-06-05T11:37:22.000Z</time>
      </trkpt>
      <trkpt lat="47.27835" lon="-2.16556">
        <ele>75</ele>
        <time>2021-06-05T11:37:23.000Z</time>
      </trkpt>
      <trkpt lat="47.27822" lon="-2.16549">
        <ele>74</ele>
        <time>2021-06-05T11:37:24.000Z</time>
      </trkpt>
      <trkpt lat="47.27809" lon="-2.16542">
        <ele>73</ele>
        <time>2021-06-05T11:37:25.000Z</time>
      </trkpt>
      <trkpt lat="47.27796" lon="-2.16534">
        <ele>72</ele>
        <time>2021-06-05T11:37:26.000Z</time>
      </trkpt>
      <trkpt lat="47.27783" lon="-2.16527">
        <ele>71</ele>
        <time>2021-06-05T11:37:27.000Z</time>
      </trkpt>
      <trkpt lat="47.2777" lon="-2.1652">
        <ele>70</ele>
        <time>2021-06-05T11:37:28.000Z</time>
      </trkpt>
      <trkpt lat="47.27757" lon="-2.16512">
        <ele>69</ele>
        <time>2021-06-05T11:37:29.000Z</time>
      </trkpt>
      <trkpt lat="47.27743" lon="-2.16505">
        <ele>69</ele>
        <time>2021-06-05T11:37:30.000Z</time>
      </trkpt>
      <trkpt lat="47.2773" lon="-2.16498">
        <ele>68</ele>
        <time>2021-06-05T11:37:31.000Z</time>
      </trkpt>
      <trkpt lat="47.27716" lon="-2.16492">
        <ele>67</ele>
        <time>2021-06-05T11:37:32.000Z</time>
      </trkpt>
      <trkpt lat="47.27703" lon="-2.16485">
        <ele>66</ele>
        <time>2021-06-05T11:37:33.000Z</time>
      </trkpt>
      <trkpt lat="47.27689" lon="-2.16479">
        <ele>66</ele>
        <time>2021-06-05T11:37:34.000Z</time>
      </trkpt>
      <trkpt lat="47.27676" lon="-2.16473">
        <ele>65</ele>
        <time>2021-06-05T11:37:35.000Z</time>
      </trkpt>
      <trkpt lat="47.27662" lon="-2.16466">
        <ele>65</ele>
        <time>2021-06-05T11:37:36.000Z</time>
      </trkpt>
      <trkpt lat="47.27649" lon="-2.16461">
        <ele>64</ele>
        <time>2021-06-05T11:37:37.000Z</time>
      </trkpt>
      <trkpt lat="47.27636" lon="-2.16455">
        <ele>63</ele>
        <time>2021-06-05T11:37:38.000Z</time>
      </trkpt>
      <trkpt lat="47.27623" lon="-2.16448">
        <ele>63</ele>
        <time>2021-06-05T11:37:39.000Z</time>
      </trkpt>
      <trkpt lat="47.27611" lon="-2.16443">
        <ele>62</ele>
        <time>2021-06-05T11:37:40.000Z</time>
      </trkpt>
      <trkpt lat="47.27598" lon="-2.16438">
        <ele>62</ele>
        <time>2021-06-05T11:37:41.000Z</time>
      </trkpt>
      <trkpt lat="47.27586" lon="-2.16433">
        <ele>62</ele>
        <time>2021-06-05T11:37:42.000Z</time>
      </trkpt>
      <trkpt lat="47.27574" lon="-2.16428">
        <ele>61</ele>
        <time>2021-06-05T11:37:43.000Z</time>
      </trkpt>
      <trkpt lat="47.27562" lon="-2.16423">
        <ele>61</ele>
        <time>2021-06-05T11:37:44.000Z</time>
      </trkpt>
      <trkpt lat="47.27551" lon="-2.16419">
        <ele>60</ele>
        <time>2021-06-05T11:37:45.000Z</time>
      </trkpt>
      <trkpt lat="47.2754" lon="-2.16414">
        <ele>60</ele>
        <time>2021-06-05T11:37:46.000Z</time>
      </trkpt>
      <trkpt lat="47.27528" lon="-2.16411">
        <ele>60</ele>
        <time>2021-06-05T11:37:47.000Z</time>
      </trkpt>
      <trkpt lat="47.27518" lon="-2.16407">
        <ele>59</ele>
        <time>2021-06-05T11:37:48.000Z</time>
      </trkpt>
      <trkpt lat="47.27507" lon="-2.16402">
        <ele>59</ele>
        <time>2021-06-05T11:37:49.000Z</time>
      </trkpt>
      <trkpt lat="47.27497" lon="-2.16399">
        <ele>59</ele>
        <time>2021-06-05T11:37:50.000Z</time>
      </trkpt>
      <trkpt lat="47.27486" lon="-2.16395">
        <ele>59</ele>
        <time>2021-06-05T11:37:51.000Z</time>
      </trkpt>
      <trkpt lat="47.27476" lon="-2.16391">
        <ele>58</ele>
        <time>2021-06-05T11:37:52.000Z</time>
      </trkpt>
      <trkpt lat="47.27467" lon="-2.16388">
        <ele>58</ele>
        <time>2021-06-05T11:37:53.000Z</time>
      </trkpt>
      <trkpt lat="47.27457" lon="-2.16384">
        <ele>58</ele>
        <time>2021-06-05T11:37:54.000Z</time>
      </trkpt>
      <trkpt lat="47.27448" lon="-2.1638">
        <ele>58</ele>
        <time>2021-06-05T11:37:55.000Z</time>
      </trkpt>
      <trkpt lat="47.27438" lon="-2.16377">
        <ele>57</ele>
        <time>2021-06-05T11:37:56.000Z</time>
      </trkpt>
      <trkpt lat="47.2743" lon="-2.16374">
        <ele>57</ele>
        <time>2021-06-05T11:37:57.000Z</time>
      </trkpt>
      <trkpt lat="47.27421" lon="-2.16371">
        <ele>57</ele>
        <time>2021-06-05T11:37:58.000Z</time>
      </trkpt>
      <trkpt lat="47.27412" lon="-2.16368">
        <ele>57</ele>
        <time>2021-06-05T11:37:59.000Z</time>
      </trkpt>
      <trkpt lat="47.27395" lon="-2.16362">
        <ele>57</ele>
        <time>2021-06-05T11:38:01.000Z</time>
      </trkpt>
      <trkpt lat="47.27379" lon="-2.16358">
        <ele>57</ele>
        <time>2021-06-05T11:38:03.000Z</time>
      </trkpt>
      <trkpt lat="47.27362" lon="-2.16353">
        <ele>57</ele>
        <time>2021-06-05T11:38:05.000Z</time>
      </trkpt>
      <trkpt lat="47.27346" lon="-2.16348">
        <ele>57</ele>
        <time>2021-06-05T11:38:07.000Z</time>
      </trkpt>
      <trkpt lat="47.27331" lon="-2.16344">
        <ele>56</ele>
        <time>2021-06-05T11:38:09.000Z</time>
      </trkpt>
      <trkpt lat="47.27316" lon="-2.16339">
        <ele>56</ele>
        <time>2021-06-05T11:38:11.000Z</time>
      </trkpt>
      <trkpt lat="47.27301" lon="-2.16334">
        <ele>56</ele>
        <time>2021-06-05T11:38:13.000Z</time>
      </trkpt>
      <trkpt lat="47.27287" lon="-2.16329">
        <ele>56</ele>
        <time>2021-06-05T11:38:15.000Z</time>
      </trkpt>
      <trkpt lat="47.27273" lon="-2.16325">
        <ele>57</ele>
        <time>2021-06-05T11:38:17.000Z</time>
      </trkpt>
      <trkpt lat="47.27258" lon="-2.1632">
        <ele>56</ele>
        <time>2021-06-05T11:38:19.000Z</time>
      </trkpt>
      <trkpt lat="47.27245" lon="-2.16316">
        <ele>57</ele>
        <time>2021-06-05T11:38:21.000Z</time>
      </trkpt>
      <trkpt lat="47.27231" lon="-2.16313">
        <ele>56</ele>
        <time>2021-06-05T11:38:23.000Z</time>
      </trkpt>
      <trkpt lat="47.27218" lon="-2.16308">
        <ele>56</ele>
        <time>2021-06-05T11:38:25.000Z</time>
      </trkpt>
      <trkpt lat="47.27204" lon="-2.16304">
        <ele>56</ele>
        <time>2021-06-05T11:38:27.000Z</time>
      </trkpt>
      <trkpt lat="47.2719" lon="-2.163">
        <ele>56</ele>
        <time>2021-06-05T11:38:29.000Z</time>
      </trkpt>
      <trkpt lat="47.27177" lon="-2.16295">
        <ele>56</ele>
        <time>2021-06-05T11:38:31.000Z</time>
      </trkpt>
      <trkpt lat="47.27163" lon="-2.16292">
        <ele>56</ele>
        <time>2021-06-05T11:38:33.000Z</time>
      </trkpt>
      <trkpt lat="47.27149" lon="-2.16287">
        <ele>56</ele>
        <time>2021-06-05T11:38:35.000Z</time>
      </trkpt>
      <trkpt lat="47.27136" lon="-2.16283">
        <ele>56</ele>
        <time>2021-06-05T11:38:37.000Z</time>
      </trkpt>
      <trkpt lat="47.27122" lon="-2.16279">
        <ele>56</ele>
        <time>2021-06-05T11:38:39.000Z</time>
      </trkpt>
      <trkpt lat="47.27109" lon="-2.16275">
        <ele>56</ele>
        <time>2021-06-05T11:38:41.000Z</time>
      </trkpt>
      <trkpt lat="47.27095" lon="-2.16271">
        <ele>56</ele>
        <time>2021-06-05T11:38:43.000Z</time>
      </trkpt>
      <trkpt lat="47.27082" lon="-2.16266">
        <ele>56</ele>
        <time>2021-06-05T11:38:45.000Z</time>
      </trkpt>
      <trkpt lat="47.27068" lon="-2.16262">
        <ele>56</ele>
        <time>2021-06-05T11:38:47.000Z</time>
      </trkpt>
      <trkpt lat="47.27054" lon="-2.16258">
        <ele>55</ele>
        <time>2021-06-05T11:38:49.000Z</time>
      </trkpt>
      <trkpt lat="47.2704" lon="-2.16253">
        <ele>55</ele>
        <time>2021-06-05T11:38:51.000Z</time>
      </trkpt>
      <trkpt lat="47.27027" lon="-2.1625">
        <ele>55</ele>
        <time>2021-06-05T11:38:53.000Z</time>
      </trkpt>
      <trkpt lat="47.27014" lon="-2.16245">
        <ele>55</ele>
        <time>2021-06-05T11:38:55.000Z</time>
      </trkpt>
      <trkpt lat="47.27" lon="-2.16241">
        <ele>55</ele>
        <time>2021-06-05T11:38:57.000Z</time>
      </trkpt>
      <trkpt lat="47.26986" lon="-2.16236">
        <ele>54</ele>
        <time>2021-06-05T11:38:59.000Z</time>
      </trkpt>
      <trkpt lat="47.26973" lon="-2.16232">
        <ele>55</ele>
        <time>2021-06-05T11:39:01.000Z</time>
      </trkpt>
      <trkpt lat="47.26959" lon="-2.16228">
        <ele>55</ele>
        <time>2021-06-05T11:39:03.000Z</time>
      </trkpt>
      <trkpt lat="47.26946" lon="-2.16224">
        <ele>55</ele>
        <time>2021-06-05T11:39:05.000Z</time>
      </trkpt>
      <trkpt lat="47.26932" lon="-2.1622">
        <ele>55</ele>
        <time>2021-06-05T11:39:07.000Z</time>
      </trkpt>
      <trkpt lat="47.26919" lon="-2.16216">
        <ele>55</ele>
        <time>2021-06-05T11:39:09.000Z</time>
      </trkpt>
      <trkpt lat="47.26905" lon="-2.16212">
        <ele>55</ele>
        <time>2021-06-05T11:39:11.000Z</time>
      </trkpt>
      <trkpt lat="47.26892" lon="-2.16209">
        <ele>55</ele>
        <time>2021-06-05T11:39:13.000Z</time>
      </trkpt>
      <trkpt lat="47.26879" lon="-2.16206">
        <ele>55</ele>
        <time>2021-06-05T11:39:15.000Z</time>
      </trkpt>
      <trkpt lat="47.26867" lon="-2.16206">
        <ele>54</ele>
        <time>2021-06-05T11:39:17.000Z</time>
      </trkpt>
      <trkpt lat="47.26853" lon="-2.16206">
        <ele>54</ele>
        <time>2021-06-05T11:39:19.000Z</time>
      </trkpt>
      <trkpt lat="47.26839" lon="-2.16204">
        <ele>53</ele>
        <time>2021-06-05T11:39:21.000Z</time>
      </trkpt>
      <trkpt lat="47.26824" lon="-2.16202">
        <ele>52</ele>
        <time>2021-06-05T11:39:23.000Z</time>
      </trkpt>
      <trkpt lat="47.2681" lon="-2.16198">
        <ele>52</ele>
        <time>2021-06-05T11:39:25.000Z</time>
      </trkpt>
      <trkpt lat="47.26797" lon="-2.16194">
        <ele>53</ele>
        <time>2021-06-05T11:39:27.000Z</time>
      </trkpt>
      <trkpt lat="47.26784" lon="-2.1619">
        <ele>53</ele>
        <time>2021-06-05T11:39:29.000Z</time>
      </trkpt>
      <trkpt lat="47.26772" lon="-2.16188">
        <ele>52</ele>
        <time>2021-06-05T11:39:31.000Z</time>
      </trkpt>
      <trkpt lat="47.26762" lon="-2.16185">
        <ele>52</ele>
        <time>2021-06-05T11:39:33.000Z</time>
      </trkpt>
      <trkpt lat="47.26752" lon="-2.16183">
        <ele>52</ele>
        <time>2021-06-05T11:39:35.000Z</time>
      </trkpt>
      <trkpt lat="47.26741" lon="-2.16181">
        <ele>53</ele>
        <time>2021-06-05T11:39:37.000Z</time>
      </trkpt>
      <trkpt lat="47.26731" lon="-2.16179">
        <ele>52</ele>
        <time>2021-06-05T11:39:39.000Z</time>
      </trkpt>
      <trkpt lat="47.26722" lon="-2.16179">
        <ele>53</ele>
        <time>2021-06-05T11:39:41.000Z</time>
      </trkpt>
      <trkpt lat="47.2671" lon="-2.16181">
        <ele>53</ele>
        <time>2021-06-05T11:39:45.000Z</time>
      </trkpt>
      <trkpt lat="47.26699" lon="-2.16184">
        <ele>52</ele>
        <time>2021-06-05T11:39:48.000Z</time>
      </trkpt>
      <trkpt lat="47.26687" lon="-2.16186">
        <ele>52</ele>
        <time>2021-06-05T11:39:51.000Z</time>
      </trkpt>
      <trkpt lat="47.26676" lon="-2.1619">
        <ele>52</ele>
        <time>2021-06-05T11:39:54.000Z</time>
      </trkpt>
      <trkpt lat="47.26667" lon="-2.16191">
        <ele>52</ele>
        <time>2021-06-05T11:39:57.000Z</time>
      </trkpt>
      <trkpt lat="47.26658" lon="-2.16187">
        <ele>52</ele>
        <time>2021-06-05T11:40:07.000Z</time>
      </trkpt>
      <trkpt lat="47.26651" lon="-2.1618">
        <ele>50</ele>
        <time>2021-06-05T11:40:25.000Z</time>
      </trkpt>
      <trkpt lat="47.26657" lon="-2.1619">
        <ele>49</ele>
        <time>2021-06-05T11:41:31.000Z</time>
      </trkpt>
      <trkpt lat="47.26668" lon="-2.16205">
        <ele>49</ele>
        <time>2021-06-05T11:41:36.000Z</time>
      </trkpt>
      <trkpt lat="47.26671" lon="-2.1622">
        <ele>52</ele>
        <time>2021-06-05T11:41:39.000Z</time>
      </trkpt>
      <trkpt lat="47.26671" lon="-2.16239">
        <ele>54</ele>
        <time>2021-06-05T11:41:42.000Z</time>
      </trkpt>
      <trkpt lat="47.26668" lon="-2.16256">
        <ele>54</ele>
        <time>2021-06-05T11:41:45.000Z</time>
      </trkpt>
      <trkpt lat="47.26666" lon="-2.16275">
        <ele>55</ele>
        <time>2021-06-05T11:41:48.000Z</time>
      </trkpt>
      <trkpt lat="47.26664" lon="-2.16296">
        <ele>55</ele>
        <time>2021-06-05T11:41:51.000Z</time>
      </trkpt>
      <trkpt lat="47.26662" lon="-2.1631">
        <ele>54</ele>
        <time>2021-06-05T11:41:53.000Z</time>
      </trkpt>
      <trkpt lat="47.26659" lon="-2.16333">
        <ele>54</ele>
        <time>2021-06-05T11:41:56.000Z</time>
      </trkpt>
      <trkpt lat="47.26655" lon="-2.16357">
        <ele>54</ele>
        <time>2021-06-05T11:41:59.000Z</time>
      </trkpt>
      <trkpt lat="47.2665" lon="-2.16371">
        <ele>54</ele>
        <time>2021-06-05T11:42:01.000Z</time>
      </trkpt>
      <trkpt lat="47.26641" lon="-2.16391">
        <ele>54</ele>
        <time>2021-06-05T11:42:04.000Z</time>
      </trkpt>
      <trkpt lat="47.26633" lon="-2.16403">
        <ele>54</ele>
        <time>2021-06-05T11:42:06.000Z</time>
      </trkpt>
      <trkpt lat="47.26625" lon="-2.16415">
        <ele>54</ele>
        <time>2021-06-05T11:42:08.000Z</time>
      </trkpt>
      <trkpt lat="47.26613" lon="-2.16434">
        <ele>53</ele>
        <time>2021-06-05T11:42:11.000Z</time>
      </trkpt>
      <trkpt lat="47.26605" lon="-2.16445">
        <ele>54</ele>
        <time>2021-06-05T11:42:13.000Z</time>
      </trkpt>
      <trkpt lat="47.26596" lon="-2.16457">
        <ele>54</ele>
        <time>2021-06-05T11:42:15.000Z</time>
      </trkpt>
      <trkpt lat="47.26587" lon="-2.16469">
        <ele>54</ele>
        <time>2021-06-05T11:42:17.000Z</time>
      </trkpt>
      <trkpt lat="47.26579" lon="-2.1648">
        <ele>55</ele>
        <time>2021-06-05T11:42:19.000Z</time>
      </trkpt>
      <trkpt lat="47.26571" lon="-2.16492">
        <ele>55</ele>
        <time>2021-06-05T11:42:21.000Z</time>
      </trkpt>
      <trkpt lat="47.2656" lon="-2.1651">
        <ele>55</ele>
        <time>2021-06-05T11:42:24.000Z</time>
      </trkpt>
      <trkpt lat="47.26552" lon="-2.16521">
        <ele>54</ele>
        <time>2021-06-05T11:42:26.000Z</time>
      </trkpt>
      <trkpt lat="47.2654" lon="-2.1654">
        <ele>53</ele>
        <time>2021-06-05T11:42:30.000Z</time>
      </trkpt>
      <trkpt lat="47.2654" lon="-2.16558">
        <ele>54</ele>
        <time>2021-06-05T11:42:34.000Z</time>
      </trkpt>
      <trkpt lat="47.26549" lon="-2.16564">
        <ele>54</ele>
        <time>2021-06-05T11:42:36.000Z</time>
      </trkpt>
      <trkpt lat="47.26558" lon="-2.16571">
        <ele>54</ele>
        <time>2021-06-05T11:42:38.000Z</time>
      </trkpt>
      <trkpt lat="47.26568" lon="-2.16578">
        <ele>54</ele>
        <time>2021-06-05T11:42:40.000Z</time>
      </trkpt>
      <trkpt lat="47.26572" lon="-2.1659">
        <ele>54</ele>
        <time>2021-06-05T11:42:42.000Z</time>
      </trkpt>
      <trkpt lat="47.26569" lon="-2.16605">
        <ele>54</ele>
        <time>2021-06-05T11:42:44.000Z</time>
      </trkpt>
      <trkpt lat="47.26564" lon="-2.16619">
        <ele>54</ele>
        <time>2021-06-05T11:42:46.000Z</time>
      </trkpt>
      <trkpt lat="47.26558" lon="-2.16635">
        <ele>54</ele>
        <time>2021-06-05T11:42:48.000Z</time>
      </trkpt>
      <trkpt lat="47.26554" lon="-2.1665">
        <ele>54</ele>
        <time>2021-06-05T11:42:50.000Z</time>
      </trkpt>
      <trkpt lat="47.26551" lon="-2.16667">
        <ele>55</ele>
        <time>2021-06-05T11:42:52.000Z</time>
      </trkpt>
      <trkpt lat="47.2655" lon="-2.16683">
        <ele>55</ele>
        <time>2021-06-05T11:42:54.000Z</time>
      </trkpt>
      <trkpt lat="47.26548" lon="-2.16699">
        <ele>56</ele>
        <time>2021-06-05T11:42:56.000Z</time>
      </trkpt>
      <trkpt lat="47.26546" lon="-2.16715">
        <ele>55</ele>
        <time>2021-06-05T11:42:58.000Z</time>
      </trkpt>
      <trkpt lat="47.26545" lon="-2.16732">
        <ele>54</ele>
        <time>2021-06-05T11:43:00.000Z</time>
      </trkpt>
      <trkpt lat="47.26544" lon="-2.16747">
        <ele>55</ele>
        <time>2021-06-05T11:43:02.000Z</time>
      </trkpt>
      <trkpt lat="47.26542" lon="-2.16762">
        <ele>55</ele>
        <time>2021-06-05T11:43:04.000Z</time>
      </trkpt>
      <trkpt lat="47.26544" lon="-2.1678">
        <ele>55</ele>
        <time>2021-06-05T11:43:07.000Z</time>
      </trkpt>
      <trkpt lat="47.26557" lon="-2.16786">
        <ele>55</ele>
        <time>2021-06-05T11:43:10.000Z</time>
      </trkpt>
      <trkpt lat="47.26567" lon="-2.16787">
        <ele>56</ele>
        <time>2021-06-05T11:43:12.000Z</time>
      </trkpt>
      <trkpt lat="47.26576" lon="-2.16787">
        <ele>56</ele>
        <time>2021-06-05T11:43:14.000Z</time>
      </trkpt>
      <trkpt lat="47.26586" lon="-2.16797">
        <ele>56</ele>
        <time>2021-06-05T11:43:17.000Z</time>
      </trkpt>
      <trkpt lat="47.26584" lon="-2.16813">
        <ele>56</ele>
        <time>2021-06-05T11:43:19.000Z</time>
      </trkpt>
      <trkpt lat="47.26584" lon="-2.16836">
        <ele>57</ele>
        <time>2021-06-05T11:43:22.000Z</time>
      </trkpt>
      <trkpt lat="47.26584" lon="-2.16851">
        <ele>57</ele>
        <time>2021-06-05T11:43:24.000Z</time>
      </trkpt>
      <trkpt lat="47.26585" lon="-2.16866">
        <ele>57</ele>
        <time>2021-06-05T11:43:26.000Z</time>
      </trkpt>
      <trkpt lat="47.26585" lon="-2.16881">
        <ele>57</ele>
        <time>2021-06-05T11:43:28.000Z</time>
      </trkpt>
      <trkpt lat="47.26586" lon="-2.16895">
        <ele>56</ele>
        <time>2021-06-05T11:43:30.000Z</time>
      </trkpt>
      <trkpt lat="47.26587" lon="-2.1691">
        <ele>56</ele>
        <time>2021-06-05T11:43:33.000Z</time>
      </trkpt>
      <trkpt lat="47.26588" lon="-2.16927">
        <ele>56</ele>
        <time>2021-06-05T11:43:36.000Z</time>
      </trkpt>
      <trkpt lat="47.26588" lon="-2.16946">
        <ele>57</ele>
        <time>2021-06-05T11:43:39.000Z</time>
      </trkpt>
      <trkpt lat="47.26589" lon="-2.16959">
        <ele>56</ele>
        <time>2021-06-05T11:43:41.000Z</time>
      </trkpt>
      <trkpt lat="47.2659" lon="-2.16977">
        <ele>57</ele>
        <time>2021-06-05T11:43:44.000Z</time>
      </trkpt>
      <trkpt lat="47.2659" lon="-2.16992">
        <ele>57</ele>
        <time>2021-06-05T11:43:47.000Z</time>
      </trkpt>
      <trkpt lat="47.26591" lon="-2.17006">
        <ele>58</ele>
        <time>2021-06-05T11:43:50.000Z</time>
      </trkpt>
      <trkpt lat="47.2659" lon="-2.17022">
        <ele>57</ele>
        <time>2021-06-05T11:43:54.000Z</time>
      </trkpt>
      <trkpt lat="47.2659" lon="-2.17035">
        <ele>57</ele>
        <time>2021-06-05T11:43:58.000Z</time>
      </trkpt>
      <trkpt lat="47.26594" lon="-2.17049">
        <ele>57</ele>
        <time>2021-06-05T11:44:04.000Z</time>
      </trkpt>
      <trkpt lat="47.26604" lon="-2.17047">
        <ele>56</ele>
        <time>2021-06-05T11:44:07.000Z</time>
      </trkpt>
      <trkpt lat="47.26617" lon="-2.17045">
        <ele>54</ele>
        <time>2021-06-05T11:44:10.000Z</time>
      </trkpt>
      <trkpt lat="47.26626" lon="-2.17043">
        <ele>53</ele>
        <time>2021-06-05T11:44:12.000Z</time>
      </trkpt>
      <trkpt lat="47.26636" lon="-2.17041">
        <ele>53</ele>
        <time>2021-06-05T11:44:14.000Z</time>
      </trkpt>
      <trkpt lat="47.26646" lon="-2.17037">
        <ele>52</ele>
        <time>2021-06-05T11:44:16.000Z</time>
      </trkpt>
      <trkpt lat="47.26656" lon="-2.17034">
        <ele>52</ele>
        <time>2021-06-05T11:44:18.000Z</time>
      </trkpt>
      <trkpt lat="47.26669" lon="-2.17032">
        <ele>52</ele>
        <time>2021-06-05T11:44:21.000Z</time>
      </trkpt>
      <trkpt lat="47.26681" lon="-2.17028">
        <ele>52</ele>
        <time>2021-06-05T11:44:24.000Z</time>
      </trkpt>
      <trkpt lat="47.26693" lon="-2.17026">
        <ele>53</ele>
        <time>2021-06-05T11:44:27.000Z</time>
      </trkpt>
      <trkpt lat="47.26703" lon="-2.17023">
        <ele>52</ele>
        <time>2021-06-05T11:44:33.000Z</time>
      </trkpt>
      <trkpt lat="47.26712" lon="-2.17024">
        <ele>51</ele>
        <time>2021-06-05T11:45:02.000Z</time>
      </trkpt>
      <trkpt lat="47.26713" lon="-2.17011">
        <ele>52</ele>
        <time>2021-06-05T11:46:29.000Z</time>
      </trkpt>
      <trkpt lat="47.26714" lon="-2.16996">
        <ele>51</ele>
        <time>2021-06-05T11:46:33.000Z</time>
      </trkpt>
      <trkpt lat="47.26722" lon="-2.17005">
        <ele>52</ele>
        <time>2021-06-05T11:46:42.000Z</time>
      </trkpt>
      <trkpt lat="47.26729" lon="-2.17018">
        <ele>53</ele>
        <time>2021-06-05T11:46:45.000Z</time>
      </trkpt>
      <trkpt lat="47.26741" lon="-2.17021">
        <ele>52</ele>
        <time>2021-06-05T11:46:48.000Z</time>
      </trkpt>
      <trkpt lat="47.26753" lon="-2.17021">
        <ele>52</ele>
        <time>2021-06-05T11:46:51.000Z</time>
      </trkpt>
      <trkpt lat="47.26763" lon="-2.17021">
        <ele>52</ele>
        <time>2021-06-05T11:46:54.000Z</time>
      </trkpt>
      <trkpt lat="47.26773" lon="-2.17021">
        <ele>52</ele>
        <time>2021-06-05T11:46:57.000Z</time>
      </trkpt>
      <trkpt lat="47.26783" lon="-2.17022">
        <ele>51</ele>
        <time>2021-06-05T11:47:00.000Z</time>
      </trkpt>
      <trkpt lat="47.26792" lon="-2.17021">
        <ele>51</ele>
        <time>2021-06-05T11:47:03.000Z</time>
      </trkpt>
      <trkpt lat="47.26802" lon="-2.17021">
        <ele>51</ele>
        <time>2021-06-05T11:47:06.000Z</time>
      </trkpt>
      <trkpt lat="47.26814" lon="-2.17022">
        <ele>51</ele>
        <time>2021-06-05T11:47:10.000Z</time>
      </trkpt>
      <trkpt lat="47.26824" lon="-2.17021">
        <ele>51</ele>
        <time>2021-06-05T11:47:13.000Z</time>
      </trkpt>
      <trkpt lat="47.26835" lon="-2.17017">
        <ele>52</ele>
        <time>2021-06-05T11:47:16.000Z</time>
      </trkpt>
      <trkpt lat="47.26845" lon="-2.1701">
        <ele>51</ele>
        <time>2021-06-05T11:47:19.000Z</time>
      </trkpt>
      <trkpt lat="47.26853" lon="-2.17001">
        <ele>51</ele>
        <time>2021-06-05T11:47:22.000Z</time>
      </trkpt>
      <trkpt lat="47.26852" lon="-2.16987">
        <ele>50</ele>
        <time>2021-06-05T11:47:26.000Z</time>
      </trkpt>
      <trkpt lat="47.26851" lon="-2.16974">
        <ele>51</ele>
        <time>2021-06-05T11:47:31.000Z</time>
      </trkpt>
      <trkpt lat="47.26849" lon="-2.16959">
        <ele>51</ele>
        <time>2021-06-05T11:47:35.000Z</time>
      </trkpt>
      <trkpt lat="47.26848" lon="-2.16942">
        <ele>51</ele>
        <time>2021-06-05T11:47:39.000Z</time>
      </trkpt>
      <trkpt lat="47.2685" lon="-2.16929">
        <ele>51</ele>
        <time>2021-06-05T11:47:42.000Z</time>
      </trkpt>
      <trkpt lat="47.26852" lon="-2.16914">
        <ele>51</ele>
        <time>2021-06-05T11:47:45.000Z</time>
      </trkpt>
      <trkpt lat="47.26854" lon="-2.16899">
        <ele>51</ele>
        <time>2021-06-05T11:47:48.000Z</time>
      </trkpt>
      <trkpt lat="47.26856" lon="-2.16884">
        <ele>51</ele>
        <time>2021-06-05T11:47:51.000Z</time>
      </trkpt>
      <trkpt lat="47.26858" lon="-2.1687">
        <ele>51</ele>
        <time>2021-06-05T11:47:54.000Z</time>
      </trkpt>
      <trkpt lat="47.26859" lon="-2.16853">
        <ele>51</ele>
        <time>2021-06-05T11:47:58.000Z</time>
      </trkpt>
      <trkpt lat="47.26853" lon="-2.1684">
        <ele>50</ele>
        <time>2021-06-05T11:48:03.000Z</time>
      </trkpt>
      <trkpt lat="47.26843" lon="-2.16836">
        <ele>50</ele>
        <time>2021-06-05T11:48:07.000Z</time>
      </trkpt>
      <trkpt lat="47.26833" lon="-2.16834">
        <ele>50</ele>
        <time>2021-06-05T11:48:10.000Z</time>
      </trkpt>
      <trkpt lat="47.26823" lon="-2.16828">
        <ele>50</ele>
        <time>2021-06-05T11:48:14.000Z</time>
      </trkpt>
      <trkpt lat="47.26814" lon="-2.16827">
        <ele>50</ele>
        <time>2021-06-05T11:48:17.000Z</time>
      </trkpt>
      <trkpt lat="47.26805" lon="-2.16817">
        <ele>50</ele>
        <time>2021-06-05T11:48:21.000Z</time>
      </trkpt>
      <trkpt lat="47.26802" lon="-2.168">
        <ele>50</ele>
        <time>2021-06-05T11:48:25.000Z</time>
      </trkpt>
      <trkpt lat="47.26802" lon="-2.16787">
        <ele>50</ele>
        <time>2021-06-05T11:48:28.000Z</time>
      </trkpt>
      <trkpt lat="47.26799" lon="-2.16772">
        <ele>50</ele>
        <time>2021-06-05T11:48:32.000Z</time>
      </trkpt>
      <trkpt lat="47.26799" lon="-2.16756">
        <ele>51</ele>
        <time>2021-06-05T11:50:55.000Z</time>
      </trkpt>
      <trkpt lat="47.26798" lon="-2.1674">
        <ele>51</ele>
        <time>2021-06-05T11:50:59.000Z</time>
      </trkpt>
      <trkpt lat="47.26799" lon="-2.16725">
        <ele>51</ele>
        <time>2021-06-05T11:51:03.000Z</time>
      </trkpt>
      <trkpt lat="47.26812" lon="-2.16722">
        <ele>53</ele>
        <time>2021-06-05T11:51:06.000Z</time>
      </trkpt>
      <trkpt lat="47.2682" lon="-2.16708">
        <ele>53</ele>
        <time>2021-06-05T11:51:09.000Z</time>
      </trkpt>
      <trkpt lat="47.26819" lon="-2.16693">
        <ele>52</ele>
        <time>2021-06-05T11:51:11.000Z</time>
      </trkpt>
      <trkpt lat="47.26818" lon="-2.16676">
        <ele>51</ele>
        <time>2021-06-05T11:51:13.000Z</time>
      </trkpt>
      <trkpt lat="47.26817" lon="-2.1666">
        <ele>51</ele>
        <time>2021-06-05T11:51:15.000Z</time>
      </trkpt>
      <trkpt lat="47.26815" lon="-2.16642">
        <ele>50</ele>
        <time>2021-06-05T11:51:17.000Z</time>
      </trkpt>
      <trkpt lat="47.26813" lon="-2.16623">
        <ele>50</ele>
        <time>2021-06-05T11:51:19.000Z</time>
      </trkpt>
      <trkpt lat="47.26812" lon="-2.16604">
        <ele>50</ele>
        <time>2021-06-05T11:51:21.000Z</time>
      </trkpt>
      <trkpt lat="47.26811" lon="-2.16585">
        <ele>50</ele>
        <time>2021-06-05T11:51:23.000Z</time>
      </trkpt>
      <trkpt lat="47.26809" lon="-2.16565">
        <ele>49</ele>
        <time>2021-06-05T11:51:25.000Z</time>
      </trkpt>
      <trkpt lat="47.26808" lon="-2.16547">
        <ele>49</ele>
        <time>2021-06-05T11:51:27.000Z</time>
      </trkpt>
      <trkpt lat="47.26807" lon="-2.16528">
        <ele>48</ele>
        <time>2021-06-05T11:51:29.000Z</time>
      </trkpt>
      <trkpt lat="47.26805" lon="-2.16509">
        <ele>48</ele>
        <time>2021-06-05T11:51:31.000Z</time>
      </trkpt>
      <trkpt lat="47.26803" lon="-2.1649">
        <ele>48</ele>
        <time>2021-06-05T11:51:33.000Z</time>
      </trkpt>
      <trkpt lat="47.26802" lon="-2.1647">
        <ele>48</ele>
        <time>2021-06-05T11:51:35.000Z</time>
      </trkpt>
      <trkpt lat="47.268" lon="-2.1645">
        <ele>48</ele>
        <time>2021-06-05T11:51:37.000Z</time>
      </trkpt>
      <trkpt lat="47.268" lon="-2.16431">
        <ele>48</ele>
        <time>2021-06-05T11:51:39.000Z</time>
      </trkpt>
      <trkpt lat="47.26798" lon="-2.16411">
        <ele>47</ele>
        <time>2021-06-05T11:51:41.000Z</time>
      </trkpt>
      <trkpt lat="47.26797" lon="-2.16391">
        <ele>47</ele>
        <time>2021-06-05T11:51:43.000Z</time>
      </trkpt>
      <trkpt lat="47.26796" lon="-2.16371">
        <ele>47</ele>
        <time>2021-06-05T11:51:45.000Z</time>
      </trkpt>
      <trkpt lat="47.26795" lon="-2.16353">
        <ele>47</ele>
        <time>2021-06-05T11:51:47.000Z</time>
      </trkpt>
      <trkpt lat="47.26794" lon="-2.16335">
        <ele>46</ele>
        <time>2021-06-05T11:51:49.000Z</time>
      </trkpt>
      <trkpt lat="47.26793" lon="-2.16319">
        <ele>46</ele>
        <time>2021-06-05T11:51:51.000Z</time>
      </trkpt>
      <trkpt lat="47.26791" lon="-2.16303">
        <ele>46</ele>
        <time>2021-06-05T11:51:53.000Z</time>
      </trkpt>
      <trkpt lat="47.2679" lon="-2.16287">
        <ele>46</ele>
        <time>2021-06-05T11:51:55.000Z</time>
      </trkpt>
      <trkpt lat="47.26789" lon="-2.1627">
        <ele>45</ele>
        <time>2021-06-05T11:51:57.000Z</time>
      </trkpt>
      <trkpt lat="47.26788" lon="-2.16255">
        <ele>45</ele>
        <time>2021-06-05T11:51:59.000Z</time>
      </trkpt>
      <trkpt lat="47.26776" lon="-2.16247">
        <ele>45</ele>
        <time>2021-06-05T11:52:02.000Z</time>
      </trkpt>
      <trkpt lat="47.26765" lon="-2.16249">
        <ele>46</ele>
        <time>2021-06-05T11:52:04.000Z</time>
      </trkpt>
      <trkpt lat="47.26754" lon="-2.1625">
        <ele>46</ele>
        <time>2021-06-05T11:52:06.000Z</time>
      </trkpt>
      <trkpt lat="47.26743" lon="-2.16252">
        <ele>47</ele>
        <time>2021-06-05T11:52:08.000Z</time>
      </trkpt>
      <trkpt lat="47.26733" lon="-2.16254">
        <ele>47</ele>
        <time>2021-06-05T11:52:10.000Z</time>
      </trkpt>
      <trkpt lat="47.26724" lon="-2.16257">
        <ele>47</ele>
        <time>2021-06-05T11:52:12.000Z</time>
      </trkpt>
      <trkpt lat="47.26712" lon="-2.1626">
        <ele>49</ele>
        <time>2021-06-05T11:52:15.000Z</time>
      </trkpt>
      <trkpt lat="47.26705" lon="-2.16251">
        <ele>50</ele>
        <time>2021-06-05T11:52:19.000Z</time>
      </trkpt>
      <trkpt lat="47.26704" lon="-2.16234">
        <ele>50</ele>
        <time>2021-06-05T11:52:21.000Z</time>
      </trkpt>
      <trkpt lat="47.26704" lon="-2.16216">
        <ele>50</ele>
        <time>2021-06-05T11:52:23.000Z</time>
      </trkpt>
      <trkpt lat="47.26705" lon="-2.16198">
        <ele>49</ele>
        <time>2021-06-05T11:52:25.000Z</time>
      </trkpt>
      <trkpt lat="47.26707" lon="-2.1618">
        <ele>49</ele>
        <time>2021-06-05T11:52:27.000Z</time>
      </trkpt>
      <trkpt lat="47.26709" lon="-2.16162">
        <ele>49</ele>
        <time>2021-06-05T11:52:29.000Z</time>
      </trkpt>
      <trkpt lat="47.26711" lon="-2.16145">
        <ele>48</ele>
        <time>2021-06-05T11:52:31.000Z</time>
      </trkpt>
      <trkpt lat="47.26713" lon="-2.16127">
        <ele>47</ele>
        <time>2021-06-05T11:52:33.000Z</time>
      </trkpt>
      <trkpt lat="47.26715" lon="-2.16106">
        <ele>48</ele>
        <time>2021-06-05T11:52:35.000Z</time>
      </trkpt>
      <trkpt lat="47.26719" lon="-2.16085">
        <ele>48</ele>
        <time>2021-06-05T11:52:37.000Z</time>
      </trkpt>
      <trkpt lat="47.26723" lon="-2.16065">
        <ele>49</ele>
        <time>2021-06-05T11:52:39.000Z</time>
      </trkpt>
      <trkpt lat="47.26728" lon="-2.16045">
        <ele>49</ele>
        <time>2021-06-05T11:52:41.000Z</time>
      </trkpt>
      <trkpt lat="47.26733" lon="-2.16025">
        <ele>49</ele>
        <time>2021-06-05T11:52:43.000Z</time>
      </trkpt>
      <trkpt lat="47.26738" lon="-2.16005">
        <ele>49</ele>
        <time>2021-06-05T11:52:45.000Z</time>
      </trkpt>
      <trkpt lat="47.26744" lon="-2.15985">
        <ele>49</ele>
        <time>2021-06-05T11:52:47.000Z</time>
      </trkpt>
      <trkpt lat="47.26749" lon="-2.15965">
        <ele>48</ele>
        <time>2021-06-05T11:52:49.000Z</time>
      </trkpt>
      <trkpt lat="47.26753" lon="-2.15944">
        <ele>48</ele>
        <time>2021-06-05T11:52:51.000Z</time>
      </trkpt>
      <trkpt lat="47.26755" lon="-2.15923">
        <ele>48</ele>
        <time>2021-06-05T11:52:53.000Z</time>
      </trkpt>
      <trkpt lat="47.26757" lon="-2.15902">
        <ele>48</ele>
        <time>2021-06-05T11:52:55.000Z</time>
      </trkpt>
      <trkpt lat="47.26759" lon="-2.15881">
        <ele>48</ele>
        <time>2021-06-05T11:52:57.000Z</time>
      </trkpt>
      <trkpt lat="47.26761" lon="-2.15859">
        <ele>48</ele>
        <time>2021-06-05T11:52:59.000Z</time>
      </trkpt>
      <trkpt lat="47.26762" lon="-2.15838">
        <ele>48</ele>
        <time>2021-06-05T11:53:01.000Z</time>
      </trkpt>
      <trkpt lat="47.26765" lon="-2.15817">
        <ele>47</ele>
        <time>2021-06-05T11:53:03.000Z</time>
      </trkpt>
      <trkpt lat="47.26767" lon="-2.15796">
        <ele>47</ele>
        <time>2021-06-05T11:53:05.000Z</time>
      </trkpt>
      <trkpt lat="47.26768" lon="-2.15774">
        <ele>47</ele>
        <time>2021-06-05T11:53:07.000Z</time>
      </trkpt>
      <trkpt lat="47.2677" lon="-2.15753">
        <ele>47</ele>
        <time>2021-06-05T11:53:09.000Z</time>
      </trkpt>
      <trkpt lat="47.26772" lon="-2.15732">
        <ele>47</ele>
        <time>2021-06-05T11:53:11.000Z</time>
      </trkpt>
      <trkpt lat="47.26774" lon="-2.15711">
        <ele>47</ele>
        <time>2021-06-05T11:53:13.000Z</time>
      </trkpt>
      <trkpt lat="47.26776" lon="-2.1569">
        <ele>47</ele>
        <time>2021-06-05T11:53:15.000Z</time>
      </trkpt>
      <trkpt lat="47.26778" lon="-2.1567">
        <ele>47</ele>
        <time>2021-06-05T11:53:17.000Z</time>
      </trkpt>
      <trkpt lat="47.2678" lon="-2.15649">
        <ele>47</ele>
        <time>2021-06-05T11:53:19.000Z</time>
      </trkpt>
      <trkpt lat="47.26781" lon="-2.15629">
        <ele>47</ele>
        <time>2021-06-05T11:53:21.000Z</time>
      </trkpt>
      <trkpt lat="47.26783" lon="-2.15608">
        <ele>47</ele>
        <time>2021-06-05T11:53:23.000Z</time>
      </trkpt>
      <trkpt lat="47.26786" lon="-2.15588">
        <ele>47</ele>
        <time>2021-06-05T11:53:25.000Z</time>
      </trkpt>
      <trkpt lat="47.26788" lon="-2.15566">
        <ele>47</ele>
        <time>2021-06-05T11:53:27.000Z</time>
      </trkpt>
      <trkpt lat="47.26791" lon="-2.15545">
        <ele>46</ele>
        <time>2021-06-05T11:53:29.000Z</time>
      </trkpt>
      <trkpt lat="47.26794" lon="-2.15525">
        <ele>46</ele>
        <time>2021-06-05T11:53:31.000Z</time>
      </trkpt>
      <trkpt lat="47.26797" lon="-2.15504">
        <ele>46</ele>
        <time>2021-06-05T11:53:33.000Z</time>
      </trkpt>
      <trkpt lat="47.26801" lon="-2.15484">
        <ele>46</ele>
        <time>2021-06-05T11:53:35.000Z</time>
      </trkpt>
      <trkpt lat="47.26805" lon="-2.15464">
        <ele>47</ele>
        <time>2021-06-05T11:53:37.000Z</time>
      </trkpt>
      <trkpt lat="47.2681" lon="-2.15444">
        <ele>47</ele>
        <time>2021-06-05T11:53:39.000Z</time>
      </trkpt>
      <trkpt lat="47.26815" lon="-2.15424">
        <ele>48</ele>
        <time>2021-06-05T11:53:41.000Z</time>
      </trkpt>
      <trkpt lat="47.26819" lon="-2.15404">
        <ele>49</ele>
        <time>2021-06-05T11:53:43.000Z</time>
      </trkpt>
      <trkpt lat="47.26823" lon="-2.15384">
        <ele>49</ele>
        <time>2021-06-05T11:53:45.000Z</time>
      </trkpt>
      <trkpt lat="47.26828" lon="-2.15365">
        <ele>49</ele>
        <time>2021-06-05T11:53:47.000Z</time>
      </trkpt>
      <trkpt lat="47.26833" lon="-2.15345">
        <ele>50</ele>
        <time>2021-06-05T11:53:49.000Z</time>
      </trkpt>
      <trkpt lat="47.26839" lon="-2.15326">
        <ele>50</ele>
        <time>2021-06-05T11:53:51.000Z</time>
      </trkpt>
      <trkpt lat="47.26844" lon="-2.15306">
        <ele>49</ele>
        <time>2021-06-05T11:53:53.000Z</time>
      </trkpt>
      <trkpt lat="47.26849" lon="-2.15287">
        <ele>50</ele>
        <time>2021-06-05T11:53:55.000Z</time>
      </trkpt>
      <trkpt lat="47.26853" lon="-2.15267">
        <ele>51</ele>
        <time>2021-06-05T11:53:57.000Z</time>
      </trkpt>
      <trkpt lat="47.26857" lon="-2.15247">
        <ele>51</ele>
        <time>2021-06-05T11:53:59.000Z</time>
      </trkpt>
      <trkpt lat="47.26861" lon="-2.15226">
        <ele>50</ele>
        <time>2021-06-05T11:54:01.000Z</time>
      </trkpt>
      <trkpt lat="47.26863" lon="-2.15205">
        <ele>51</ele>
        <time>2021-06-05T11:54:03.000Z</time>
      </trkpt>
      <trkpt lat="47.26864" lon="-2.15185">
        <ele>51</ele>
        <time>2021-06-05T11:54:05.000Z</time>
      </trkpt>
      <trkpt lat="47.26865" lon="-2.15164">
        <ele>50</ele>
        <time>2021-06-05T11:54:07.000Z</time>
      </trkpt>
      <trkpt lat="47.26866" lon="-2.15143">
        <ele>50</ele>
        <time>2021-06-05T11:54:09.000Z</time>
      </trkpt>
      <trkpt lat="47.26866" lon="-2.15123">
        <ele>50</ele>
        <time>2021-06-05T11:54:11.000Z</time>
      </trkpt>
      <trkpt lat="47.26865" lon="-2.15103">
        <ele>49</ele>
        <time>2021-06-05T11:54:13.000Z</time>
      </trkpt>
      <trkpt lat="47.26863" lon="-2.15082">
        <ele>49</ele>
        <time>2021-06-05T11:54:15.000Z</time>
      </trkpt>
      <trkpt lat="47.26861" lon="-2.15063">
        <ele>48</ele>
        <time>2021-06-05T11:54:17.000Z</time>
      </trkpt>
      <trkpt lat="47.26859" lon="-2.15044">
        <ele>48</ele>
        <time>2021-06-05T11:54:19.000Z</time>
      </trkpt>
      <trkpt lat="47.26855" lon="-2.15025">
        <ele>48</ele>
        <time>2021-06-05T11:54:21.000Z</time>
      </trkpt>
      <trkpt lat="47.26849" lon="-2.15011">
        <ele>48</ele>
        <time>2021-06-05T11:54:23.000Z</time>
      </trkpt>
      <trkpt lat="47.26839" lon="-2.14998">
        <ele>49</ele>
        <time>2021-06-05T11:54:25.000Z</time>
      </trkpt>
      <trkpt lat="47.26827" lon="-2.14988">
        <ele>49</ele>
        <time>2021-06-05T11:54:27.000Z</time>
      </trkpt>
      <trkpt lat="47.26814" lon="-2.14985">
        <ele>49</ele>
        <time>2021-06-05T11:54:29.000Z</time>
      </trkpt>
      <trkpt lat="47.26801" lon="-2.14986">
        <ele>48</ele>
        <time>2021-06-05T11:54:31.000Z</time>
      </trkpt>
      <trkpt lat="47.26789" lon="-2.14987">
        <ele>48</ele>
        <time>2021-06-05T11:54:33.000Z</time>
      </trkpt>
      <trkpt lat="47.26776" lon="-2.14987">
        <ele>48</ele>
        <time>2021-06-05T11:54:35.000Z</time>
      </trkpt>
      <trkpt lat="47.26764" lon="-2.14984">
        <ele>49</ele>
        <time>2021-06-05T11:54:37.000Z</time>
      </trkpt>
      <trkpt lat="47.26752" lon="-2.1498">
        <ele>50</ele>
        <time>2021-06-05T11:54:39.000Z</time>
      </trkpt>
      <trkpt lat="47.26742" lon="-2.14974">
        <ele>50</ele>
        <time>2021-06-05T11:54:42.000Z</time>
      </trkpt>
      <trkpt lat="47.26735" lon="-2.1496">
        <ele>51</ele>
        <time>2021-06-05T11:55:04.000Z</time>
      </trkpt>
      <trkpt lat="47.26732" lon="-2.14946">
        <ele>50</ele>
        <time>2021-06-05T11:55:06.000Z</time>
      </trkpt>
      <trkpt lat="47.26735" lon="-2.14928">
        <ele>50</ele>
        <time>2021-06-05T11:55:08.000Z</time>
      </trkpt>
      <trkpt lat="47.26741" lon="-2.14911">
        <ele>50</ele>
        <time>2021-06-05T11:55:10.000Z</time>
      </trkpt>
      <trkpt lat="47.26746" lon="-2.14893">
        <ele>50</ele>
        <time>2021-06-05T11:55:12.000Z</time>
      </trkpt>
      <trkpt lat="47.26751" lon="-2.14873">
        <ele>50</ele>
        <time>2021-06-05T11:55:14.000Z</time>
      </trkpt>
      <trkpt lat="47.26757" lon="-2.14854">
        <ele>50</ele>
        <time>2021-06-05T11:55:16.000Z</time>
      </trkpt>
      <trkpt lat="47.26763" lon="-2.14835">
        <ele>50</ele>
        <time>2021-06-05T11:55:18.000Z</time>
      </trkpt>
      <trkpt lat="47.26768" lon="-2.14815">
        <ele>50</ele>
        <time>2021-06-05T11:55:20.000Z</time>
      </trkpt>
      <trkpt lat="47.26774" lon="-2.14794">
        <ele>49</ele>
        <time>2021-06-05T11:55:22.000Z</time>
      </trkpt>
      <trkpt lat="47.2678" lon="-2.14774">
        <ele>49</ele>
        <time>2021-06-05T11:55:24.000Z</time>
      </trkpt>
      <trkpt lat="47.26785" lon="-2.14754">
        <ele>49</ele>
        <time>2021-06-05T11:55:26.000Z</time>
      </trkpt>
      <trkpt lat="47.2679" lon="-2.14734">
        <ele>49</ele>
        <time>2021-06-05T11:55:28.000Z</time>
      </trkpt>
      <trkpt lat="47.26794" lon="-2.14713">
        <ele>49</ele>
        <time>2021-06-05T11:55:30.000Z</time>
      </trkpt>
      <trkpt lat="47.26798" lon="-2.14692">
        <ele>49</ele>
        <time>2021-06-05T11:55:32.000Z</time>
      </trkpt>
      <trkpt lat="47.26802" lon="-2.14671">
        <ele>49</ele>
        <time>2021-06-05T11:55:34.000Z</time>
      </trkpt>
      <trkpt lat="47.26806" lon="-2.1465">
        <ele>49</ele>
        <time>2021-06-05T11:55:36.000Z</time>
      </trkpt>
      <trkpt lat="47.26809" lon="-2.14629">
        <ele>49</ele>
        <time>2021-06-05T11:55:38.000Z</time>
      </trkpt>
      <trkpt lat="47.26812" lon="-2.14608">
        <ele>49</ele>
        <time>2021-06-05T11:55:40.000Z</time>
      </trkpt>
      <trkpt lat="47.26815" lon="-2.14587">
        <ele>49</ele>
        <time>2021-06-05T11:55:42.000Z</time>
      </trkpt>
      <trkpt lat="47.26818" lon="-2.14567">
        <ele>49</ele>
        <time>2021-06-05T11:55:44.000Z</time>
      </trkpt>
      <trkpt lat="47.26821" lon="-2.14545">
        <ele>49</ele>
        <time>2021-06-05T11:55:46.000Z</time>
      </trkpt>
      <trkpt lat="47.26824" lon="-2.14524">
        <ele>49</ele>
        <time>2021-06-05T11:55:48.000Z</time>
      </trkpt>
      <trkpt lat="47.26826" lon="-2.14503">
        <ele>49</ele>
        <time>2021-06-05T11:55:50.000Z</time>
      </trkpt>
      <trkpt lat="47.26828" lon="-2.14482">
        <ele>49</ele>
        <time>2021-06-05T11:55:52.000Z</time>
      </trkpt>
      <trkpt lat="47.2683" lon="-2.14461">
        <ele>49</ele>
        <time>2021-06-05T11:55:54.000Z</time>
      </trkpt>
      <trkpt lat="47.26832" lon="-2.1444">
        <ele>49</ele>
        <time>2021-06-05T11:55:56.000Z</time>
      </trkpt>
      <trkpt lat="47.26834" lon="-2.14418">
        <ele>48</ele>
        <time>2021-06-05T11:55:58.000Z</time>
      </trkpt>
      <trkpt lat="47.26836" lon="-2.14397">
        <ele>48</ele>
        <time>2021-06-05T11:56:00.000Z</time>
      </trkpt>
      <trkpt lat="47.26839" lon="-2.14375">
        <ele>48</ele>
        <time>2021-06-05T11:56:02.000Z</time>
      </trkpt>
      <trkpt lat="47.26841" lon="-2.14353">
        <ele>48</ele>
        <time>2021-06-05T11:56:04.000Z</time>
      </trkpt>
      <trkpt lat="47.26843" lon="-2.14331">
        <ele>48</ele>
        <time>2021-06-05T11:56:06.000Z</time>
      </trkpt>
      <trkpt lat="47.26845" lon="-2.14309">
        <ele>48</ele>
        <time>2021-06-05T11:56:08.000Z</time>
      </trkpt>
      <trkpt lat="47.26847" lon="-2.14287">
        <ele>48</ele>
        <time>2021-06-05T11:56:10.000Z</time>
      </trkpt>
      <trkpt lat="47.26849" lon="-2.14265">
        <ele>48</ele>
        <time>2021-06-05T11:56:12.000Z</time>
      </trkpt>
      <trkpt lat="47.26851" lon="-2.14243">
        <ele>48</ele>
        <time>2021-06-05T11:56:14.000Z</time>
      </trkpt>
      <trkpt lat="47.26853" lon="-2.14221">
        <ele>48</ele>
        <time>2021-06-05T11:56:16.000Z</time>
      </trkpt>
      <trkpt lat="47.26855" lon="-2.142">
        <ele>48</ele>
        <time>2021-06-05T11:56:18.000Z</time>
      </trkpt>
      <trkpt lat="47.26857" lon="-2.14179">
        <ele>48</ele>
        <time>2021-06-05T11:56:20.000Z</time>
      </trkpt>
      <trkpt lat="47.26859" lon="-2.14157">
        <ele>47</ele>
        <time>2021-06-05T11:56:22.000Z</time>
      </trkpt>
      <trkpt lat="47.26861" lon="-2.14136">
        <ele>47</ele>
        <time>2021-06-05T11:56:24.000Z</time>
      </trkpt>
      <trkpt lat="47.26863" lon="-2.14115">
        <ele>47</ele>
        <time>2021-06-05T11:56:26.000Z</time>
      </trkpt>
      <trkpt lat="47.26865" lon="-2.14093">
        <ele>47</ele>
        <time>2021-06-05T11:56:28.000Z</time>
      </trkpt>
      <trkpt lat="47.26867" lon="-2.14071">
        <ele>48</ele>
        <time>2021-06-05T11:56:30.000Z</time>
      </trkpt>
      <trkpt lat="47.26868" lon="-2.14049">
        <ele>48</ele>
        <time>2021-06-05T11:56:32.000Z</time>
      </trkpt>
      <trkpt lat="47.26869" lon="-2.14028">
        <ele>48</ele>
        <time>2021-06-05T11:56:34.000Z</time>
      </trkpt>
      <trkpt lat="47.2687" lon="-2.14007">
        <ele>48</ele>
        <time>2021-06-05T11:56:36.000Z</time>
      </trkpt>
      <trkpt lat="47.2687" lon="-2.13986">
        <ele>48</ele>
        <time>2021-06-05T11:56:38.000Z</time>
      </trkpt>
      <trkpt lat="47.26868" lon="-2.13964">
        <ele>48</ele>
        <time>2021-06-05T11:56:40.000Z</time>
      </trkpt>
      <trkpt lat="47.26867" lon="-2.13943">
        <ele>49</ele>
        <time>2021-06-05T11:56:42.000Z</time>
      </trkpt>
      <trkpt lat="47.26865" lon="-2.13923">
        <ele>49</ele>
        <time>2021-06-05T11:56:44.000Z</time>
      </trkpt>
      <trkpt lat="47.26863" lon="-2.13902">
        <ele>49</ele>
        <time>2021-06-05T11:56:46.000Z</time>
      </trkpt>
      <trkpt lat="47.2686" lon="-2.13882">
        <ele>49</ele>
        <time>2021-06-05T11:56:48.000Z</time>
      </trkpt>
      <trkpt lat="47.26856" lon="-2.13862">
        <ele>49</ele>
        <time>2021-06-05T11:56:50.000Z</time>
      </trkpt>
      <trkpt lat="47.26852" lon="-2.13843">
        <ele>49</ele>
        <time>2021-06-05T11:56:52.000Z</time>
      </trkpt>
      <trkpt lat="47.26848" lon="-2.13824">
        <ele>49</ele>
        <time>2021-06-05T11:56:54.000Z</time>
      </trkpt>
      <trkpt lat="47.26843" lon="-2.13804">
        <ele>49</ele>
        <time>2021-06-05T11:56:56.000Z</time>
      </trkpt>
      <trkpt lat="47.26838" lon="-2.13785">
        <ele>50</ele>
        <time>2021-06-05T11:56:58.000Z</time>
      </trkpt>
      <trkpt lat="47.26832" lon="-2.13767">
        <ele>50</ele>
        <time>2021-06-05T11:57:00.000Z</time>
      </trkpt>
      <trkpt lat="47.26826" lon="-2.13748">
        <ele>50</ele>
        <time>2021-06-05T11:57:02.000Z</time>
      </trkpt>
      <trkpt lat="47.26821" lon="-2.1373">
        <ele>50</ele>
        <time>2021-06-05T11:57:04.000Z</time>
      </trkpt>
      <trkpt lat="47.26815" lon="-2.13713">
        <ele>49</ele>
        <time>2021-06-05T11:57:06.000Z</time>
      </trkpt>
      <trkpt lat="47.26809" lon="-2.13694">
        <ele>49</ele>
        <time>2021-06-05T11:57:08.000Z</time>
      </trkpt>
      <trkpt lat="47.26804" lon="-2.13676">
        <ele>49</ele>
        <time>2021-06-05T11:57:10.000Z</time>
      </trkpt>
      <trkpt lat="47.26798" lon="-2.13658">
        <ele>48</ele>
        <time>2021-06-05T11:57:12.000Z</time>
      </trkpt>
      <trkpt lat="47.26792" lon="-2.1364">
        <ele>48</ele>
        <time>2021-06-05T11:57:14.000Z</time>
      </trkpt>
      <trkpt lat="47.26787" lon="-2.13622">
        <ele>48</ele>
        <time>2021-06-05T11:57:16.000Z</time>
      </trkpt>
      <trkpt lat="47.26781" lon="-2.13604">
        <ele>48</ele>
        <time>2021-06-05T11:57:18.000Z</time>
      </trkpt>
      <trkpt lat="47.26775" lon="-2.13586">
        <ele>49</ele>
        <time>2021-06-05T11:57:20.000Z</time>
      </trkpt>
      <trkpt lat="47.26769" lon="-2.13568">
        <ele>49</ele>
        <time>2021-06-05T11:57:22.000Z</time>
      </trkpt>
      <trkpt lat="47.26763" lon="-2.13551">
        <ele>50</ele>
        <time>2021-06-05T11:57:24.000Z</time>
      </trkpt>
      <trkpt lat="47.26756" lon="-2.13533">
        <ele>50</ele>
        <time>2021-06-05T11:57:26.000Z</time>
      </trkpt>
      <trkpt lat="47.26751" lon="-2.13517">
        <ele>50</ele>
        <time>2021-06-05T11:57:28.000Z</time>
      </trkpt>
      <trkpt lat="47.26745" lon="-2.135">
        <ele>50</ele>
        <time>2021-06-05T11:57:30.000Z</time>
      </trkpt>
      <trkpt lat="47.26739" lon="-2.13482">
        <ele>51</ele>
        <time>2021-06-05T11:57:32.000Z</time>
      </trkpt>
      <trkpt lat="47.26733" lon="-2.13464">
        <ele>51</ele>
        <time>2021-06-05T11:57:34.000Z</time>
      </trkpt>
      <trkpt lat="47.26728" lon="-2.13446">
        <ele>50</ele>
        <time>2021-06-05T11:57:36.000Z</time>
      </trkpt>
      <trkpt lat="47.26722" lon="-2.13429">
        <ele>50</ele>
        <time>2021-06-05T11:57:38.000Z</time>
      </trkpt>
      <trkpt lat="47.26717" lon="-2.13411">
        <ele>50</ele>
        <time>2021-06-05T11:57:40.000Z</time>
      </trkpt>
      <trkpt lat="47.26711" lon="-2.13393">
        <ele>50</ele>
        <time>2021-06-05T11:57:42.000Z</time>
      </trkpt>
      <trkpt lat="47.26705" lon="-2.13375">
        <ele>50</ele>
        <time>2021-06-05T11:57:44.000Z</time>
      </trkpt>
      <trkpt lat="47.26698" lon="-2.13358">
        <ele>50</ele>
        <time>2021-06-05T11:57:46.000Z</time>
      </trkpt>
      <trkpt lat="47.26692" lon="-2.1334">
        <ele>50</ele>
        <time>2021-06-05T11:57:48.000Z</time>
      </trkpt>
      <trkpt lat="47.26685" lon="-2.13323">
        <ele>50</ele>
        <time>2021-06-05T11:57:50.000Z</time>
      </trkpt>
      <trkpt lat="47.26679" lon="-2.13306">
        <ele>50</ele>
        <time>2021-06-05T11:57:52.000Z</time>
      </trkpt>
      <trkpt lat="47.26672" lon="-2.13289">
        <ele>50</ele>
        <time>2021-06-05T11:57:54.000Z</time>
      </trkpt>
      <trkpt lat="47.26664" lon="-2.13272">
        <ele>50</ele>
        <time>2021-06-05T11:57:56.000Z</time>
      </trkpt>
      <trkpt lat="47.26657" lon="-2.13255">
        <ele>50</ele>
        <time>2021-06-05T11:57:58.000Z</time>
      </trkpt>
      <trkpt lat="47.2665" lon="-2.13239">
        <ele>50</ele>
        <time>2021-06-05T11:58:00.000Z</time>
      </trkpt>
      <trkpt lat="47.26643" lon="-2.13222">
        <ele>50</ele>
        <time>2021-06-05T11:58:02.000Z</time>
      </trkpt>
      <trkpt lat="47.26636" lon="-2.13206">
        <ele>51</ele>
        <time>2021-06-05T11:58:04.000Z</time>
      </trkpt>
      <trkpt lat="47.26629" lon="-2.13189">
        <ele>50</ele>
        <time>2021-06-05T11:58:06.000Z</time>
      </trkpt>
      <trkpt lat="47.26622" lon="-2.13173">
        <ele>51</ele>
        <time>2021-06-05T11:58:08.000Z</time>
      </trkpt>
      <trkpt lat="47.26615" lon="-2.13155">
        <ele>51</ele>
        <time>2021-06-05T11:58:10.000Z</time>
      </trkpt>
      <trkpt lat="47.26609" lon="-2.13137">
        <ele>51</ele>
        <time>2021-06-05T11:58:12.000Z</time>
      </trkpt>
      <trkpt lat="47.26604" lon="-2.13119">
        <ele>51</ele>
        <time>2021-06-05T11:58:14.000Z</time>
      </trkpt>
      <trkpt lat="47.26598" lon="-2.131">
        <ele>50</ele>
        <time>2021-06-05T11:58:16.000Z</time>
      </trkpt>
      <trkpt lat="47.26594" lon="-2.1308">
        <ele>50</ele>
        <time>2021-06-05T11:58:18.000Z</time>
      </trkpt>
      <trkpt lat="47.2659" lon="-2.13061">
        <ele>50</ele>
        <time>2021-06-05T11:58:20.000Z</time>
      </trkpt>
      <trkpt lat="47.26586" lon="-2.13041">
        <ele>50</ele>
        <time>2021-06-05T11:58:22.000Z</time>
      </trkpt>
      <trkpt lat="47.26582" lon="-2.13021">
        <ele>50</ele>
        <time>2021-06-05T11:58:24.000Z</time>
      </trkpt>
      <trkpt lat="47.26579" lon="-2.13">
        <ele>50</ele>
        <time>2021-06-05T11:58:26.000Z</time>
      </trkpt>
      <trkpt lat="47.26576" lon="-2.12979">
        <ele>50</ele>
        <time>2021-06-05T11:58:28.000Z</time>
      </trkpt>
      <trkpt lat="47.26574" lon="-2.12957">
        <ele>50</ele>
        <time>2021-06-05T11:58:30.000Z</time>
      </trkpt>
      <trkpt lat="47.26573" lon="-2.12935">
        <ele>49</ele>
        <time>2021-06-05T11:58:32.000Z</time>
      </trkpt>
      <trkpt lat="47.26572" lon="-2.12914">
        <ele>48</ele>
        <time>2021-06-05T11:58:34.000Z</time>
      </trkpt>
      <trkpt lat="47.26572" lon="-2.12892">
        <ele>48</ele>
        <time>2021-06-05T11:58:36.000Z</time>
      </trkpt>
      <trkpt lat="47.26571" lon="-2.1287">
        <ele>47</ele>
        <time>2021-06-05T11:58:38.000Z</time>
      </trkpt>
      <trkpt lat="47.26571" lon="-2.12847">
        <ele>47</ele>
        <time>2021-06-05T11:58:40.000Z</time>
      </trkpt>
      <trkpt lat="47.2657" lon="-2.12824">
        <ele>46</ele>
        <time>2021-06-05T11:58:42.000Z</time>
      </trkpt>
      <trkpt lat="47.2657" lon="-2.12802">
        <ele>46</ele>
        <time>2021-06-05T11:58:44.000Z</time>
      </trkpt>
      <trkpt lat="47.26569" lon="-2.1278">
        <ele>46</ele>
        <time>2021-06-05T11:58:46.000Z</time>
      </trkpt>
      <trkpt lat="47.26568" lon="-2.12759">
        <ele>46</ele>
        <time>2021-06-05T11:58:48.000Z</time>
      </trkpt>
      <trkpt lat="47.26567" lon="-2.12737">
        <ele>46</ele>
        <time>2021-06-05T11:58:50.000Z</time>
      </trkpt>
      <trkpt lat="47.26565" lon="-2.12716">
        <ele>46</ele>
        <time>2021-06-05T11:58:52.000Z</time>
      </trkpt>
      <trkpt lat="47.26563" lon="-2.12695">
        <ele>46</ele>
        <time>2021-06-05T11:58:54.000Z</time>
      </trkpt>
      <trkpt lat="47.2656" lon="-2.12674">
        <ele>46</ele>
        <time>2021-06-05T11:58:56.000Z</time>
      </trkpt>
      <trkpt lat="47.26557" lon="-2.12653">
        <ele>46</ele>
        <time>2021-06-05T11:58:58.000Z</time>
      </trkpt>
      <trkpt lat="47.26553" lon="-2.12633">
        <ele>46</ele>
        <time>2021-06-05T11:59:00.000Z</time>
      </trkpt>
      <trkpt lat="47.2655" lon="-2.12612">
        <ele>47</ele>
        <time>2021-06-05T11:59:02.000Z</time>
      </trkpt>
      <trkpt lat="47.26547" lon="-2.12592">
        <ele>47</ele>
        <time>2021-06-05T11:59:04.000Z</time>
      </trkpt>
      <trkpt lat="47.26544" lon="-2.12572">
        <ele>47</ele>
        <time>2021-06-05T11:59:06.000Z</time>
      </trkpt>
      <trkpt lat="47.26542" lon="-2.12553">
        <ele>47</ele>
        <time>2021-06-05T11:59:08.000Z</time>
      </trkpt>
      <trkpt lat="47.26539" lon="-2.12533">
        <ele>47</ele>
        <time>2021-06-05T11:59:10.000Z</time>
      </trkpt>
      <trkpt lat="47.26536" lon="-2.12513">
        <ele>47</ele>
        <time>2021-06-05T11:59:12.000Z</time>
      </trkpt>
      <trkpt lat="47.26534" lon="-2.12494">
        <ele>48</ele>
        <time>2021-06-05T11:59:14.000Z</time>
      </trkpt>
      <trkpt lat="47.26533" lon="-2.12473">
        <ele>48</ele>
        <time>2021-06-05T11:59:16.000Z</time>
      </trkpt>
      <trkpt lat="47.26532" lon="-2.12452">
        <ele>48</ele>
        <time>2021-06-05T11:59:18.000Z</time>
      </trkpt>
      <trkpt lat="47.26531" lon="-2.12433">
        <ele>48</ele>
        <time>2021-06-05T11:59:20.000Z</time>
      </trkpt>
      <trkpt lat="47.26531" lon="-2.12413">
        <ele>48</ele>
        <time>2021-06-05T11:59:22.000Z</time>
      </trkpt>
      <trkpt lat="47.26531" lon="-2.12393">
        <ele>48</ele>
        <time>2021-06-05T11:59:24.000Z</time>
      </trkpt>
      <trkpt lat="47.26531" lon="-2.12373">
        <ele>48</ele>
        <time>2021-06-05T11:59:26.000Z</time>
      </trkpt>
      <trkpt lat="47.26532" lon="-2.12353">
        <ele>48</ele>
        <time>2021-06-05T11:59:28.000Z</time>
      </trkpt>
      <trkpt lat="47.26534" lon="-2.12332">
        <ele>47</ele>
        <time>2021-06-05T11:59:30.000Z</time>
      </trkpt>
      <trkpt lat="47.26535" lon="-2.12313">
        <ele>47</ele>
        <time>2021-06-05T11:59:32.000Z</time>
      </trkpt>
      <trkpt lat="47.26537" lon="-2.12293">
        <ele>47</ele>
        <time>2021-06-05T11:59:34.000Z</time>
      </trkpt>
      <trkpt lat="47.2654" lon="-2.12273">
        <ele>48</ele>
        <time>2021-06-05T11:59:36.000Z</time>
      </trkpt>
      <trkpt lat="47.26544" lon="-2.12253">
        <ele>48</ele>
        <time>2021-06-05T11:59:38.000Z</time>
      </trkpt>
      <trkpt lat="47.26548" lon="-2.12234">
        <ele>48</ele>
        <time>2021-06-05T11:59:40.000Z</time>
      </trkpt>
      <trkpt lat="47.26552" lon="-2.12215">
        <ele>48</ele>
        <time>2021-06-05T11:59:42.000Z</time>
      </trkpt>
      <trkpt lat="47.26556" lon="-2.12196">
        <ele>48</ele>
        <time>2021-06-05T11:59:44.000Z</time>
      </trkpt>
      <trkpt lat="47.26561" lon="-2.12178">
        <ele>48</ele>
        <time>2021-06-05T11:59:46.000Z</time>
      </trkpt>
      <trkpt lat="47.26565" lon="-2.12158">
        <ele>48</ele>
        <time>2021-06-05T11:59:48.000Z</time>
      </trkpt>
      <trkpt lat="47.2657" lon="-2.1214">
        <ele>48</ele>
        <time>2021-06-05T11:59:50.000Z</time>
      </trkpt>
      <trkpt lat="47.26574" lon="-2.12121">
        <ele>48</ele>
        <time>2021-06-05T11:59:52.000Z</time>
      </trkpt>
      <trkpt lat="47.26579" lon="-2.12101">
        <ele>48</ele>
        <time>2021-06-05T11:59:54.000Z</time>
      </trkpt>
      <trkpt lat="47.26583" lon="-2.12082">
        <ele>48</ele>
        <time>2021-06-05T11:59:56.000Z</time>
      </trkpt>
      <trkpt lat="47.26588" lon="-2.12063">
        <ele>49</ele>
        <time>2021-06-05T11:59:58.000Z</time>
      </trkpt>
      <trkpt lat="47.26592" lon="-2.12044">
        <ele>49</ele>
        <time>2021-06-05T12:00:00.000Z</time>
      </trkpt>
      <trkpt lat="47.26597" lon="-2.12025">
        <ele>49</ele>
        <time>2021-06-05T12:00:02.000Z</time>
      </trkpt>
      <trkpt lat="47.26602" lon="-2.12006">
        <ele>49</ele>
        <time>2021-06-05T12:00:04.000Z</time>
      </trkpt>
      <trkpt lat="47.26606" lon="-2.11987">
        <ele>49</ele>
        <time>2021-06-05T12:00:06.000Z</time>
      </trkpt>
      <trkpt lat="47.26611" lon="-2.11968">
        <ele>49</ele>
        <time>2021-06-05T12:00:08.000Z</time>
      </trkpt>
      <trkpt lat="47.26616" lon="-2.11949">
        <ele>49</ele>
        <time>2021-06-05T12:00:10.000Z</time>
      </trkpt>
      <trkpt lat="47.26621" lon="-2.1193">
        <ele>49</ele>
        <time>2021-06-05T12:00:12.000Z</time>
      </trkpt>
      <trkpt lat="47.26625" lon="-2.11911">
        <ele>49</ele>
        <time>2021-06-05T12:00:14.000Z</time>
      </trkpt>
      <trkpt lat="47.2663" lon="-2.11892">
        <ele>49</ele>
        <time>2021-06-05T12:00:16.000Z</time>
      </trkpt>
      <trkpt lat="47.26634" lon="-2.11873">
        <ele>49</ele>
        <time>2021-06-05T12:00:18.000Z</time>
      </trkpt>
      <trkpt lat="47.26639" lon="-2.11853">
        <ele>49</ele>
        <time>2021-06-05T12:00:20.000Z</time>
      </trkpt>
      <trkpt lat="47.26643" lon="-2.11834">
        <ele>49</ele>
        <time>2021-06-05T12:00:22.000Z</time>
      </trkpt>
      <trkpt lat="47.26648" lon="-2.11815">
        <ele>50</ele>
        <time>2021-06-05T12:00:24.000Z</time>
      </trkpt>
      <trkpt lat="47.26653" lon="-2.11796">
        <ele>50</ele>
        <time>2021-06-05T12:00:26.000Z</time>
      </trkpt>
      <trkpt lat="47.26658" lon="-2.11778">
        <ele>50</ele>
        <time>2021-06-05T12:00:28.000Z</time>
      </trkpt>
      <trkpt lat="47.26662" lon="-2.11759">
        <ele>50</ele>
        <time>2021-06-05T12:00:30.000Z</time>
      </trkpt>
      <trkpt lat="47.26667" lon="-2.1174">
        <ele>50</ele>
        <time>2021-06-05T12:00:32.000Z</time>
      </trkpt>
      <trkpt lat="47.26671" lon="-2.11722">
        <ele>50</ele>
        <time>2021-06-05T12:00:34.000Z</time>
      </trkpt>
      <trkpt lat="47.26675" lon="-2.11703">
        <ele>50</ele>
        <time>2021-06-05T12:00:36.000Z</time>
      </trkpt>
      <trkpt lat="47.26679" lon="-2.11684">
        <ele>50</ele>
        <time>2021-06-05T12:00:38.000Z</time>
      </trkpt>
      <trkpt lat="47.26683" lon="-2.11665">
        <ele>51</ele>
        <time>2021-06-05T12:00:40.000Z</time>
      </trkpt>
      <trkpt lat="47.26688" lon="-2.11646">
        <ele>51</ele>
        <time>2021-06-05T12:00:42.000Z</time>
      </trkpt>
      <trkpt lat="47.26693" lon="-2.11628">
        <ele>51</ele>
        <time>2021-06-05T12:00:44.000Z</time>
      </trkpt>
      <trkpt lat="47.26697" lon="-2.1161">
        <ele>50</ele>
        <time>2021-06-05T12:00:46.000Z</time>
      </trkpt>
      <trkpt lat="47.26701" lon="-2.11591">
        <ele>50</ele>
        <time>2021-06-05T12:00:48.000Z</time>
      </trkpt>
      <trkpt lat="47.26705" lon="-2.11573">
        <ele>50</ele>
        <time>2021-06-05T12:00:50.000Z</time>
      </trkpt>
      <trkpt lat="47.2671" lon="-2.11554">
        <ele>50</ele>
        <time>2021-06-05T12:00:52.000Z</time>
      </trkpt>
      <trkpt lat="47.26714" lon="-2.11535">
        <ele>51</ele>
        <time>2021-06-05T12:00:54.000Z</time>
      </trkpt>
      <trkpt lat="47.26718" lon="-2.11517">
        <ele>51</ele>
        <time>2021-06-05T12:00:56.000Z</time>
      </trkpt>
      <trkpt lat="47.26721" lon="-2.11498">
        <ele>51</ele>
        <time>2021-06-05T12:00:58.000Z</time>
      </trkpt>
      <trkpt lat="47.26726" lon="-2.1148">
        <ele>51</ele>
        <time>2021-06-05T12:01:00.000Z</time>
      </trkpt>
      <trkpt lat="47.2673" lon="-2.11461">
        <ele>51</ele>
        <time>2021-06-05T12:01:02.000Z</time>
      </trkpt>
      <trkpt lat="47.26734" lon="-2.11443">
        <ele>51</ele>
        <time>2021-06-05T12:01:04.000Z</time>
      </trkpt>
      <trkpt lat="47.26737" lon="-2.11424">
        <ele>51</ele>
        <time>2021-06-05T12:01:06.000Z</time>
      </trkpt>
      <trkpt lat="47.26741" lon="-2.11405">
        <ele>51</ele>
        <time>2021-06-05T12:01:08.000Z</time>
      </trkpt>
      <trkpt lat="47.26744" lon="-2.11386">
        <ele>51</ele>
        <time>2021-06-05T12:01:10.000Z</time>
      </trkpt>
      <trkpt lat="47.26747" lon="-2.11367">
        <ele>51</ele>
        <time>2021-06-05T12:01:12.000Z</time>
      </trkpt>
      <trkpt lat="47.2675" lon="-2.11349">
        <ele>51</ele>
        <time>2021-06-05T12:01:14.000Z</time>
      </trkpt>
      <trkpt lat="47.26754" lon="-2.1133">
        <ele>51</ele>
        <time>2021-06-05T12:01:16.000Z</time>
      </trkpt>
      <trkpt lat="47.26759" lon="-2.11312">
        <ele>51</ele>
        <time>2021-06-05T12:01:18.000Z</time>
      </trkpt>
      <trkpt lat="47.26764" lon="-2.11293">
        <ele>51</ele>
        <time>2021-06-05T12:01:20.000Z</time>
      </trkpt>
      <trkpt lat="47.26768" lon="-2.11275">
        <ele>51</ele>
        <time>2021-06-05T12:01:22.000Z</time>
      </trkpt>
      <trkpt lat="47.26772" lon="-2.11257">
        <ele>51</ele>
        <time>2021-06-05T12:01:24.000Z</time>
      </trkpt>
      <trkpt lat="47.26776" lon="-2.11239">
        <ele>51</ele>
        <time>2021-06-05T12:01:26.000Z</time>
      </trkpt>
      <trkpt lat="47.26779" lon="-2.11221">
        <ele>51</ele>
        <time>2021-06-05T12:01:28.000Z</time>
      </trkpt>
      <trkpt lat="47.26783" lon="-2.11202">
        <ele>51</ele>
        <time>2021-06-05T12:01:30.000Z</time>
      </trkpt>
      <trkpt lat="47.26786" lon="-2.11183">
        <ele>51</ele>
        <time>2021-06-05T12:01:32.000Z</time>
      </trkpt>
      <trkpt lat="47.26791" lon="-2.11164">
        <ele>51</ele>
        <time>2021-06-05T12:01:34.000Z</time>
      </trkpt>
      <trkpt lat="47.26795" lon="-2.11145">
        <ele>51</ele>
        <time>2021-06-05T12:01:36.000Z</time>
      </trkpt>
      <trkpt lat="47.26799" lon="-2.11127">
        <ele>51</ele>
        <time>2021-06-05T12:01:38.000Z</time>
      </trkpt>
      <trkpt lat="47.26804" lon="-2.11108">
        <ele>52</ele>
        <time>2021-06-05T12:01:40.000Z</time>
      </trkpt>
      <trkpt lat="47.26808" lon="-2.1109">
        <ele>52</ele>
        <time>2021-06-05T12:01:42.000Z</time>
      </trkpt>
      <trkpt lat="47.26813" lon="-2.11072">
        <ele>52</ele>
        <time>2021-06-05T12:01:44.000Z</time>
      </trkpt>
      <trkpt lat="47.26818" lon="-2.11054">
        <ele>51</ele>
        <time>2021-06-05T12:01:46.000Z</time>
      </trkpt>
      <trkpt lat="47.26823" lon="-2.11036">
        <ele>51</ele>
        <time>2021-06-05T12:01:48.000Z</time>
      </trkpt>
      <trkpt lat="47.26827" lon="-2.11017">
        <ele>51</ele>
        <time>2021-06-05T12:01:50.000Z</time>
      </trkpt>
      <trkpt lat="47.26831" lon="-2.11">
        <ele>51</ele>
        <time>2021-06-05T12:01:52.000Z</time>
      </trkpt>
      <trkpt lat="47.26836" lon="-2.10983">
        <ele>51</ele>
        <time>2021-06-05T12:01:54.000Z</time>
      </trkpt>
      <trkpt lat="47.26841" lon="-2.10965">
        <ele>50</ele>
        <time>2021-06-05T12:01:56.000Z</time>
      </trkpt>
      <trkpt lat="47.26846" lon="-2.10948">
        <ele>50</ele>
        <time>2021-06-05T12:01:58.000Z</time>
      </trkpt>
      <trkpt lat="47.26851" lon="-2.10931">
        <ele>50</ele>
        <time>2021-06-05T12:02:00.000Z</time>
      </trkpt>
      <trkpt lat="47.26855" lon="-2.10913">
        <ele>50</ele>
        <time>2021-06-05T12:02:02.000Z</time>
      </trkpt>
      <trkpt lat="47.26859" lon="-2.10894">
        <ele>50</ele>
        <time>2021-06-05T12:02:04.000Z</time>
      </trkpt>
      <trkpt lat="47.26864" lon="-2.10876">
        <ele>50</ele>
        <time>2021-06-05T12:02:06.000Z</time>
      </trkpt>
      <trkpt lat="47.26868" lon="-2.10858">
        <ele>50</ele>
        <time>2021-06-05T12:02:08.000Z</time>
      </trkpt>
      <trkpt lat="47.26872" lon="-2.1084">
        <ele>50</ele>
        <time>2021-06-05T12:02:10.000Z</time>
      </trkpt>
      <trkpt lat="47.26876" lon="-2.10821">
        <ele>49</ele>
        <time>2021-06-05T12:02:12.000Z</time>
      </trkpt>
      <trkpt lat="47.26881" lon="-2.10802">
        <ele>49</ele>
        <time>2021-06-05T12:02:14.000Z</time>
      </trkpt>
      <trkpt lat="47.26885" lon="-2.10783">
        <ele>49</ele>
        <time>2021-06-05T12:02:16.000Z</time>
      </trkpt>
      <trkpt lat="47.26889" lon="-2.10763">
        <ele>49</ele>
        <time>2021-06-05T12:02:18.000Z</time>
      </trkpt>
      <trkpt lat="47.26894" lon="-2.10744">
        <ele>49</ele>
        <time>2021-06-05T12:02:20.000Z</time>
      </trkpt>
      <trkpt lat="47.26898" lon="-2.10723">
        <ele>49</ele>
        <time>2021-06-05T12:02:22.000Z</time>
      </trkpt>
      <trkpt lat="47.26903" lon="-2.10703">
        <ele>49</ele>
        <time>2021-06-05T12:02:24.000Z</time>
      </trkpt>
      <trkpt lat="47.26908" lon="-2.10683">
        <ele>48</ele>
        <time>2021-06-05T12:02:26.000Z</time>
      </trkpt>
      <trkpt lat="47.26913" lon="-2.10663">
        <ele>48</ele>
        <time>2021-06-05T12:02:28.000Z</time>
      </trkpt>
      <trkpt lat="47.26917" lon="-2.10642">
        <ele>48</ele>
        <time>2021-06-05T12:02:30.000Z</time>
      </trkpt>
      <trkpt lat="47.26922" lon="-2.10622">
        <ele>48</ele>
        <time>2021-06-05T12:02:32.000Z</time>
      </trkpt>
      <trkpt lat="47.26926" lon="-2.10602">
        <ele>48</ele>
        <time>2021-06-05T12:02:34.000Z</time>
      </trkpt>
      <trkpt lat="47.26931" lon="-2.10582">
        <ele>48</ele>
        <time>2021-06-05T12:02:36.000Z</time>
      </trkpt>
      <trkpt lat="47.26935" lon="-2.10563">
        <ele>48</ele>
        <time>2021-06-05T12:02:38.000Z</time>
      </trkpt>
      <trkpt lat="47.2694" lon="-2.10543">
        <ele>48</ele>
        <time>2021-06-05T12:02:40.000Z</time>
      </trkpt>
      <trkpt lat="47.26945" lon="-2.10523">
        <ele>48</ele>
        <time>2021-06-05T12:02:42.000Z</time>
      </trkpt>
      <trkpt lat="47.26949" lon="-2.10503">
        <ele>48</ele>
        <time>2021-06-05T12:02:44.000Z</time>
      </trkpt>
      <trkpt lat="47.26954" lon="-2.10483">
        <ele>48</ele>
        <time>2021-06-05T12:02:46.000Z</time>
      </trkpt>
      <trkpt lat="47.26959" lon="-2.10463">
        <ele>49</ele>
        <time>2021-06-05T12:02:48.000Z</time>
      </trkpt>
      <trkpt lat="47.26964" lon="-2.10443">
        <ele>48</ele>
        <time>2021-06-05T12:02:50.000Z</time>
      </trkpt>
      <trkpt lat="47.26968" lon="-2.10423">
        <ele>48</ele>
        <time>2021-06-05T12:02:52.000Z</time>
      </trkpt>
      <trkpt lat="47.26973" lon="-2.10402">
        <ele>48</ele>
        <time>2021-06-05T12:02:54.000Z</time>
      </trkpt>
      <trkpt lat="47.26978" lon="-2.10382">
        <ele>49</ele>
        <time>2021-06-05T12:02:56.000Z</time>
      </trkpt>
      <trkpt lat="47.26982" lon="-2.10362">
        <ele>48</ele>
        <time>2021-06-05T12:02:58.000Z</time>
      </trkpt>
      <trkpt lat="47.26987" lon="-2.10343">
        <ele>49</ele>
        <time>2021-06-05T12:03:00.000Z</time>
      </trkpt>
      <trkpt lat="47.26991" lon="-2.10324">
        <ele>49</ele>
        <time>2021-06-05T12:03:02.000Z</time>
      </trkpt>
      <trkpt lat="47.26996" lon="-2.10303">
        <ele>48</ele>
        <time>2021-06-05T12:03:04.000Z</time>
      </trkpt>
      <trkpt lat="47.27" lon="-2.10284">
        <ele>49</ele>
        <time>2021-06-05T12:03:06.000Z</time>
      </trkpt>
      <trkpt lat="47.27005" lon="-2.10265">
        <ele>49</ele>
        <time>2021-06-05T12:03:08.000Z</time>
      </trkpt>
      <trkpt lat="47.27009" lon="-2.10245">
        <ele>49</ele>
        <time>2021-06-05T12:03:10.000Z</time>
      </trkpt>
      <trkpt lat="47.27014" lon="-2.10226">
        <ele>48</ele>
        <time>2021-06-05T12:03:12.000Z</time>
      </trkpt>
      <trkpt lat="47.27019" lon="-2.10207">
        <ele>48</ele>
        <time>2021-06-05T12:03:14.000Z</time>
      </trkpt>
      <trkpt lat="47.27023" lon="-2.10187">
        <ele>48</ele>
        <time>2021-06-05T12:03:16.000Z</time>
      </trkpt>
      <trkpt lat="47.27027" lon="-2.10169">
        <ele>48</ele>
        <time>2021-06-05T12:03:18.000Z</time>
      </trkpt>
      <trkpt lat="47.27032" lon="-2.10149">
        <ele>48</ele>
        <time>2021-06-05T12:03:20.000Z</time>
      </trkpt>
      <trkpt lat="47.27036" lon="-2.10131">
        <ele>48</ele>
        <time>2021-06-05T12:03:22.000Z</time>
      </trkpt>
      <trkpt lat="47.2704" lon="-2.10111">
        <ele>48</ele>
        <time>2021-06-05T12:03:24.000Z</time>
      </trkpt>
      <trkpt lat="47.27045" lon="-2.10091">
        <ele>48</ele>
        <time>2021-06-05T12:03:26.000Z</time>
      </trkpt>
      <trkpt lat="47.2705" lon="-2.10072">
        <ele>48</ele>
        <time>2021-06-05T12:03:28.000Z</time>
      </trkpt>
      <trkpt lat="47.27055" lon="-2.10051">
        <ele>49</ele>
        <time>2021-06-05T12:03:30.000Z</time>
      </trkpt>
      <trkpt lat="47.27059" lon="-2.10032">
        <ele>48</ele>
        <time>2021-06-05T12:03:32.000Z</time>
      </trkpt>
      <trkpt lat="47.27064" lon="-2.10012">
        <ele>48</ele>
        <time>2021-06-05T12:03:34.000Z</time>
      </trkpt>
      <trkpt lat="47.27068" lon="-2.09992">
        <ele>48</ele>
        <time>2021-06-05T12:03:36.000Z</time>
      </trkpt>
      <trkpt lat="47.27073" lon="-2.09973">
        <ele>48</ele>
        <time>2021-06-05T12:03:38.000Z</time>
      </trkpt>
      <trkpt lat="47.27077" lon="-2.09953">
        <ele>48</ele>
        <time>2021-06-05T12:03:40.000Z</time>
      </trkpt>
      <trkpt lat="47.27082" lon="-2.09934">
        <ele>48</ele>
        <time>2021-06-05T12:03:42.000Z</time>
      </trkpt>
      <trkpt lat="47.27086" lon="-2.09914">
        <ele>48</ele>
        <time>2021-06-05T12:03:44.000Z</time>
      </trkpt>
      <trkpt lat="47.27091" lon="-2.09895">
        <ele>48</ele>
        <time>2021-06-05T12:03:46.000Z</time>
      </trkpt>
      <trkpt lat="47.27096" lon="-2.09876">
        <ele>48</ele>
        <time>2021-06-05T12:03:48.000Z</time>
      </trkpt>
      <trkpt lat="47.271" lon="-2.09857">
        <ele>48</ele>
        <time>2021-06-05T12:03:50.000Z</time>
      </trkpt>
      <trkpt lat="47.27105" lon="-2.09837">
        <ele>48</ele>
        <time>2021-06-05T12:03:52.000Z</time>
      </trkpt>
      <trkpt lat="47.27109" lon="-2.09817">
        <ele>48</ele>
        <time>2021-06-05T12:03:54.000Z</time>
      </trkpt>
      <trkpt lat="47.27114" lon="-2.09798">
        <ele>48</ele>
        <time>2021-06-05T12:03:56.000Z</time>
      </trkpt>
      <trkpt lat="47.27118" lon="-2.09778">
        <ele>48</ele>
        <time>2021-06-05T12:03:58.000Z</time>
      </trkpt>
      <trkpt lat="47.27122" lon="-2.09759">
        <ele>48</ele>
        <time>2021-06-05T12:04:00.000Z</time>
      </trkpt>
      <trkpt lat="47.27126" lon="-2.0974">
        <ele>47</ele>
        <time>2021-06-05T12:04:02.000Z</time>
      </trkpt>
      <trkpt lat="47.27131" lon="-2.09721">
        <ele>47</ele>
        <time>2021-06-05T12:04:04.000Z</time>
      </trkpt>
      <trkpt lat="47.27135" lon="-2.09701">
        <ele>47</ele>
        <time>2021-06-05T12:04:06.000Z</time>
      </trkpt>
      <trkpt lat="47.2714" lon="-2.09681">
        <ele>47</ele>
        <time>2021-06-05T12:04:08.000Z</time>
      </trkpt>
      <trkpt lat="47.27144" lon="-2.09662">
        <ele>48</ele>
        <time>2021-06-05T12:04:10.000Z</time>
      </trkpt>
      <trkpt lat="47.27148" lon="-2.09643">
        <ele>48</ele>
        <time>2021-06-05T12:04:12.000Z</time>
      </trkpt>
      <trkpt lat="47.27153" lon="-2.09624">
        <ele>48</ele>
        <time>2021-06-05T12:04:14.000Z</time>
      </trkpt>
      <trkpt lat="47.27157" lon="-2.09604">
        <ele>48</ele>
        <time>2021-06-05T12:04:16.000Z</time>
      </trkpt>
      <trkpt lat="47.27162" lon="-2.09586">
        <ele>48</ele>
        <time>2021-06-05T12:04:18.000Z</time>
      </trkpt>
      <trkpt lat="47.27166" lon="-2.09567">
        <ele>49</ele>
        <time>2021-06-05T12:04:20.000Z</time>
      </trkpt>
      <trkpt lat="47.2717" lon="-2.09547">
        <ele>49</ele>
        <time>2021-06-05T12:04:22.000Z</time>
      </trkpt>
      <trkpt lat="47.27175" lon="-2.09528">
        <ele>49</ele>
        <time>2021-06-05T12:04:24.000Z</time>
      </trkpt>
      <trkpt lat="47.2718" lon="-2.09508">
        <ele>49</ele>
        <time>2021-06-05T12:04:26.000Z</time>
      </trkpt>
      <trkpt lat="47.27184" lon="-2.09489">
        <ele>49</ele>
        <time>2021-06-05T12:04:28.000Z</time>
      </trkpt>
      <trkpt lat="47.27189" lon="-2.09471">
        <ele>49</ele>
        <time>2021-06-05T12:04:30.000Z</time>
      </trkpt>
      <trkpt lat="47.27193" lon="-2.09452">
        <ele>49</ele>
        <time>2021-06-05T12:04:32.000Z</time>
      </trkpt>
      <trkpt lat="47.27197" lon="-2.09433">
        <ele>50</ele>
        <time>2021-06-05T12:04:34.000Z</time>
      </trkpt>
      <trkpt lat="47.27201" lon="-2.09415">
        <ele>50</ele>
        <time>2021-06-05T12:04:36.000Z</time>
      </trkpt>
      <trkpt lat="47.27205" lon="-2.09396">
        <ele>50</ele>
        <time>2021-06-05T12:04:38.000Z</time>
      </trkpt>
      <trkpt lat="47.27209" lon="-2.09378">
        <ele>50</ele>
        <time>2021-06-05T12:04:40.000Z</time>
      </trkpt>
      <trkpt lat="47.27214" lon="-2.09359">
        <ele>50</ele>
        <time>2021-06-05T12:04:42.000Z</time>
      </trkpt>
      <trkpt lat="47.27219" lon="-2.0934">
        <ele>50</ele>
        <time>2021-06-05T12:04:44.000Z</time>
      </trkpt>
      <trkpt lat="47.27224" lon="-2.09322">
        <ele>50</ele>
        <time>2021-06-05T12:04:46.000Z</time>
      </trkpt>
      <trkpt lat="47.27229" lon="-2.09304">
        <ele>50</ele>
        <time>2021-06-05T12:04:48.000Z</time>
      </trkpt>
      <trkpt lat="47.27236" lon="-2.09285">
        <ele>50</ele>
        <time>2021-06-05T12:04:50.000Z</time>
      </trkpt>
      <trkpt lat="47.27242" lon="-2.09268">
        <ele>50</ele>
        <time>2021-06-05T12:04:52.000Z</time>
      </trkpt>
      <trkpt lat="47.27249" lon="-2.0925">
        <ele>50</ele>
        <time>2021-06-05T12:04:54.000Z</time>
      </trkpt>
      <trkpt lat="47.27256" lon="-2.09234">
        <ele>50</ele>
        <time>2021-06-05T12:04:56.000Z</time>
      </trkpt>
      <trkpt lat="47.27264" lon="-2.09217">
        <ele>50</ele>
        <time>2021-06-05T12:04:58.000Z</time>
      </trkpt>
      <trkpt lat="47.27272" lon="-2.09201">
        <ele>50</ele>
        <time>2021-06-05T12:05:00.000Z</time>
      </trkpt>
      <trkpt lat="47.2728" lon="-2.09186">
        <ele>50</ele>
        <time>2021-06-05T12:05:02.000Z</time>
      </trkpt>
      <trkpt lat="47.27289" lon="-2.09171">
        <ele>50</ele>
        <time>2021-06-05T12:05:04.000Z</time>
      </trkpt>
      <trkpt lat="47.27297" lon="-2.09155">
        <ele>50</ele>
        <time>2021-06-05T12:05:06.000Z</time>
      </trkpt>
      <trkpt lat="47.27305" lon="-2.09139">
        <ele>49</ele>
        <time>2021-06-05T12:05:08.000Z</time>
      </trkpt>
      <trkpt lat="47.27313" lon="-2.09124">
        <ele>49</ele>
        <time>2021-06-05T12:05:10.000Z</time>
      </trkpt>
      <trkpt lat="47.27321" lon="-2.09109">
        <ele>49</ele>
        <time>2021-06-05T12:05:12.000Z</time>
      </trkpt>
      <trkpt lat="47.2733" lon="-2.09092">
        <ele>48</ele>
        <time>2021-06-05T12:05:14.000Z</time>
      </trkpt>
      <trkpt lat="47.27338" lon="-2.09076">
        <ele>47</ele>
        <time>2021-06-05T12:05:16.000Z</time>
      </trkpt>
      <trkpt lat="47.27347" lon="-2.09059">
        <ele>47</ele>
        <time>2021-06-05T12:05:18.000Z</time>
      </trkpt>
      <trkpt lat="47.27356" lon="-2.09043">
        <ele>47</ele>
        <time>2021-06-05T12:05:20.000Z</time>
      </trkpt>
      <trkpt lat="47.27364" lon="-2.09027">
        <ele>47</ele>
        <time>2021-06-05T12:05:22.000Z</time>
      </trkpt>
      <trkpt lat="47.27373" lon="-2.09011">
        <ele>47</ele>
        <time>2021-06-05T12:05:24.000Z</time>
      </trkpt>
      <trkpt lat="47.27381" lon="-2.08995">
        <ele>47</ele>
        <time>2021-06-05T12:05:26.000Z</time>
      </trkpt>
      <trkpt lat="47.2739" lon="-2.08979">
        <ele>47</ele>
        <time>2021-06-05T12:05:28.000Z</time>
      </trkpt>
      <trkpt lat="47.27398" lon="-2.08964">
        <ele>47</ele>
        <time>2021-06-05T12:05:30.000Z</time>
      </trkpt>
      <trkpt lat="47.27406" lon="-2.08948">
        <ele>47</ele>
        <time>2021-06-05T12:05:32.000Z</time>
      </trkpt>
      <trkpt lat="47.27414" lon="-2.08933">
        <ele>47</ele>
        <time>2021-06-05T12:05:34.000Z</time>
      </trkpt>
      <trkpt lat="47.27422" lon="-2.08917">
        <ele>47</ele>
        <time>2021-06-05T12:05:36.000Z</time>
      </trkpt>
      <trkpt lat="47.2743" lon="-2.08901">
        <ele>48</ele>
        <time>2021-06-05T12:05:38.000Z</time>
      </trkpt>
      <trkpt lat="47.27439" lon="-2.08886">
        <ele>48</ele>
        <time>2021-06-05T12:05:40.000Z</time>
      </trkpt>
      <trkpt lat="47.27447" lon="-2.08871">
        <ele>47</ele>
        <time>2021-06-05T12:05:42.000Z</time>
      </trkpt>
      <trkpt lat="47.27455" lon="-2.08855">
        <ele>47</ele>
        <time>2021-06-05T12:05:44.000Z</time>
      </trkpt>
      <trkpt lat="47.27464" lon="-2.08839">
        <ele>47</ele>
        <time>2021-06-05T12:05:46.000Z</time>
      </trkpt>
      <trkpt lat="47.27472" lon="-2.08823">
        <ele>47</ele>
        <time>2021-06-05T12:05:48.000Z</time>
      </trkpt>
      <trkpt lat="47.2748" lon="-2.08806">
        <ele>47</ele>
        <time>2021-06-05T12:05:50.000Z</time>
      </trkpt>
      <trkpt lat="47.27488" lon="-2.08789">
        <ele>47</ele>
        <time>2021-06-05T12:05:52.000Z</time>
      </trkpt>
      <trkpt lat="47.27495" lon="-2.08772">
        <ele>48</ele>
        <time>2021-06-05T12:05:54.000Z</time>
      </trkpt>
      <trkpt lat="47.27502" lon="-2.08755">
        <ele>47</ele>
        <time>2021-06-05T12:05:56.000Z</time>
      </trkpt>
      <trkpt lat="47.27509" lon="-2.08737">
        <ele>47</ele>
        <time>2021-06-05T12:05:58.000Z</time>
      </trkpt>
      <trkpt lat="47.27515" lon="-2.08719">
        <ele>47</ele>
        <time>2021-06-05T12:06:00.000Z</time>
      </trkpt>
      <trkpt lat="47.27521" lon="-2.08701">
        <ele>47</ele>
        <time>2021-06-05T12:06:02.000Z</time>
      </trkpt>
      <trkpt lat="47.27526" lon="-2.08682">
        <ele>47</ele>
        <time>2021-06-05T12:06:04.000Z</time>
      </trkpt>
      <trkpt lat="47.27531" lon="-2.08663">
        <ele>47</ele>
        <time>2021-06-05T12:06:06.000Z</time>
      </trkpt>
      <trkpt lat="47.27536" lon="-2.08644">
        <ele>46</ele>
        <time>2021-06-05T12:06:08.000Z</time>
      </trkpt>
      <trkpt lat="47.2754" lon="-2.08625">
        <ele>46</ele>
        <time>2021-06-05T12:06:10.000Z</time>
      </trkpt>
      <trkpt lat="47.27543" lon="-2.08605">
        <ele>46</ele>
        <time>2021-06-05T12:06:12.000Z</time>
      </trkpt>
      <trkpt lat="47.27546" lon="-2.08586">
        <ele>46</ele>
        <time>2021-06-05T12:06:14.000Z</time>
      </trkpt>
      <trkpt lat="47.2755" lon="-2.08566">
        <ele>46</ele>
        <time>2021-06-05T12:06:16.000Z</time>
      </trkpt>
      <trkpt lat="47.27553" lon="-2.08546">
        <ele>46</ele>
        <time>2021-06-05T12:06:18.000Z</time>
      </trkpt>
      <trkpt lat="47.27556" lon="-2.08527">
        <ele>46</ele>
        <time>2021-06-05T12:06:20.000Z</time>
      </trkpt>
      <trkpt lat="47.27559" lon="-2.08508">
        <ele>46</ele>
        <time>2021-06-05T12:06:22.000Z</time>
      </trkpt>
      <trkpt lat="47.27563" lon="-2.08488">
        <ele>46</ele>
        <time>2021-06-05T12:06:24.000Z</time>
      </trkpt>
      <trkpt lat="47.27566" lon="-2.08469">
        <ele>46</ele>
        <time>2021-06-05T12:06:26.000Z</time>
      </trkpt>
      <trkpt lat="47.27569" lon="-2.0845">
        <ele>47</ele>
        <time>2021-06-05T12:06:28.000Z</time>
      </trkpt>
      <trkpt lat="47.27573" lon="-2.08431">
        <ele>47</ele>
        <time>2021-06-05T12:06:30.000Z</time>
      </trkpt>
      <trkpt lat="47.27576" lon="-2.08411">
        <ele>47</ele>
        <time>2021-06-05T12:06:32.000Z</time>
      </trkpt>
      <trkpt lat="47.27579" lon="-2.08392">
        <ele>47</ele>
        <time>2021-06-05T12:06:34.000Z</time>
      </trkpt>
      <trkpt lat="47.27582" lon="-2.08374">
        <ele>47</ele>
        <time>2021-06-05T12:06:36.000Z</time>
      </trkpt>
      <trkpt lat="47.27585" lon="-2.08355">
        <ele>48</ele>
        <time>2021-06-05T12:06:38.000Z</time>
      </trkpt>
      <trkpt lat="47.27589" lon="-2.08336">
        <ele>48</ele>
        <time>2021-06-05T12:06:40.000Z</time>
      </trkpt>
      <trkpt lat="47.27592" lon="-2.08317">
        <ele>48</ele>
        <time>2021-06-05T12:06:42.000Z</time>
      </trkpt>
      <trkpt lat="47.27596" lon="-2.08298">
        <ele>49</ele>
        <time>2021-06-05T12:06:44.000Z</time>
      </trkpt>
      <trkpt lat="47.27599" lon="-2.0828">
        <ele>48</ele>
        <time>2021-06-05T12:06:46.000Z</time>
      </trkpt>
      <trkpt lat="47.27602" lon="-2.08262">
        <ele>49</ele>
        <time>2021-06-05T12:06:48.000Z</time>
      </trkpt>
      <trkpt lat="47.27605" lon="-2.08242">
        <ele>49</ele>
        <time>2021-06-05T12:06:50.000Z</time>
      </trkpt>
      <trkpt lat="47.27608" lon="-2.08224">
        <ele>49</ele>
        <time>2021-06-05T12:06:52.000Z</time>
      </trkpt>
      <trkpt lat="47.27612" lon="-2.08206">
        <ele>49</ele>
        <time>2021-06-05T12:06:54.000Z</time>
      </trkpt>
      <trkpt lat="47.27615" lon="-2.08187">
        <ele>49</ele>
        <time>2021-06-05T12:06:56.000Z</time>
      </trkpt>
      <trkpt lat="47.27618" lon="-2.08168">
        <ele>49</ele>
        <time>2021-06-05T12:06:58.000Z</time>
      </trkpt>
      <trkpt lat="47.27621" lon="-2.08149">
        <ele>49</ele>
        <time>2021-06-05T12:07:00.000Z</time>
      </trkpt>
      <trkpt lat="47.27625" lon="-2.0813">
        <ele>49</ele>
        <time>2021-06-05T12:07:02.000Z</time>
      </trkpt>
      <trkpt lat="47.27628" lon="-2.08112">
        <ele>48</ele>
        <time>2021-06-05T12:07:04.000Z</time>
      </trkpt>
      <trkpt lat="47.27631" lon="-2.08093">
        <ele>48</ele>
        <time>2021-06-05T12:07:06.000Z</time>
      </trkpt>
      <trkpt lat="47.27635" lon="-2.08075">
        <ele>48</ele>
        <time>2021-06-05T12:07:08.000Z</time>
      </trkpt>
      <trkpt lat="47.27639" lon="-2.08056">
        <ele>48</ele>
        <time>2021-06-05T12:07:10.000Z</time>
      </trkpt>
      <trkpt lat="47.27643" lon="-2.08038">
        <ele>48</ele>
        <time>2021-06-05T12:07:12.000Z</time>
      </trkpt>
      <trkpt lat="47.27648" lon="-2.08019">
        <ele>48</ele>
        <time>2021-06-05T12:07:14.000Z</time>
      </trkpt>
      <trkpt lat="47.27653" lon="-2.08001">
        <ele>48</ele>
        <time>2021-06-05T12:07:16.000Z</time>
      </trkpt>
      <trkpt lat="47.27658" lon="-2.07982">
        <ele>48</ele>
        <time>2021-06-05T12:07:18.000Z</time>
      </trkpt>
      <trkpt lat="47.27662" lon="-2.07964">
        <ele>48</ele>
        <time>2021-06-05T12:07:20.000Z</time>
      </trkpt>
      <trkpt lat="47.27667" lon="-2.07945">
        <ele>48</ele>
        <time>2021-06-05T12:07:22.000Z</time>
      </trkpt>
      <trkpt lat="47.27672" lon="-2.07927">
        <ele>47</ele>
        <time>2021-06-05T12:07:24.000Z</time>
      </trkpt>
      <trkpt lat="47.27677" lon="-2.0791">
        <ele>47</ele>
        <time>2021-06-05T12:07:26.000Z</time>
      </trkpt>
      <trkpt lat="47.27681" lon="-2.07892">
        <ele>48</ele>
        <time>2021-06-05T12:07:28.000Z</time>
      </trkpt>
      <trkpt lat="47.27686" lon="-2.07875">
        <ele>47</ele>
        <time>2021-06-05T12:07:30.000Z</time>
      </trkpt>
      <trkpt lat="47.27691" lon="-2.07857">
        <ele>47</ele>
        <time>2021-06-05T12:07:32.000Z</time>
      </trkpt>
      <trkpt lat="47.27696" lon="-2.0784">
        <ele>47</ele>
        <time>2021-06-05T12:07:34.000Z</time>
      </trkpt>
      <trkpt lat="47.277" lon="-2.07822">
        <ele>48</ele>
        <time>2021-06-05T12:07:36.000Z</time>
      </trkpt>
      <trkpt lat="47.27705" lon="-2.07804">
        <ele>48</ele>
        <time>2021-06-05T12:07:38.000Z</time>
      </trkpt>
      <trkpt lat="47.27709" lon="-2.07787">
        <ele>48</ele>
        <time>2021-06-05T12:07:40.000Z</time>
      </trkpt>
      <trkpt lat="47.27713" lon="-2.07769">
        <ele>48</ele>
        <time>2021-06-05T12:07:42.000Z</time>
      </trkpt>
      <trkpt lat="47.27717" lon="-2.0775">
        <ele>48</ele>
        <time>2021-06-05T12:07:44.000Z</time>
      </trkpt>
      <trkpt lat="47.27721" lon="-2.07732">
        <ele>48</ele>
        <time>2021-06-05T12:07:46.000Z</time>
      </trkpt>
      <trkpt lat="47.27724" lon="-2.07713">
        <ele>48</ele>
        <time>2021-06-05T12:07:48.000Z</time>
      </trkpt>
      <trkpt lat="47.27727" lon="-2.07695">
        <ele>48</ele>
        <time>2021-06-05T12:07:50.000Z</time>
      </trkpt>
      <trkpt lat="47.2773" lon="-2.07676">
        <ele>48</ele>
        <time>2021-06-05T12:07:52.000Z</time>
      </trkpt>
      <trkpt lat="47.27732" lon="-2.07657">
        <ele>48</ele>
        <time>2021-06-05T12:07:54.000Z</time>
      </trkpt>
      <trkpt lat="47.27733" lon="-2.07637">
        <ele>48</ele>
        <time>2021-06-05T12:07:56.000Z</time>
      </trkpt>
      <trkpt lat="47.27734" lon="-2.07618">
        <ele>48</ele>
        <time>2021-06-05T12:07:58.000Z</time>
      </trkpt>
      <trkpt lat="47.27734" lon="-2.07598">
        <ele>48</ele>
        <time>2021-06-05T12:08:00.000Z</time>
      </trkpt>
      <trkpt lat="47.27734" lon="-2.07578">
        <ele>48</ele>
        <time>2021-06-05T12:08:02.000Z</time>
      </trkpt>
      <trkpt lat="47.27734" lon="-2.07558">
        <ele>49</ele>
        <time>2021-06-05T12:08:04.000Z</time>
      </trkpt>
      <trkpt lat="47.27733" lon="-2.07539">
        <ele>49</ele>
        <time>2021-06-05T12:08:06.000Z</time>
      </trkpt>
      <trkpt lat="47.27732" lon="-2.07519">
        <ele>49</ele>
        <time>2021-06-05T12:08:08.000Z</time>
      </trkpt>
      <trkpt lat="47.27732" lon="-2.07499">
        <ele>49</ele>
        <time>2021-06-05T12:08:10.000Z</time>
      </trkpt>
      <trkpt lat="47.27732" lon="-2.07478">
        <ele>49</ele>
        <time>2021-06-05T12:08:12.000Z</time>
      </trkpt>
      <trkpt lat="47.27731" lon="-2.07457">
        <ele>49</ele>
        <time>2021-06-05T12:08:14.000Z</time>
      </trkpt>
      <trkpt lat="47.27731" lon="-2.07436">
        <ele>49</ele>
        <time>2021-06-05T12:08:16.000Z</time>
      </trkpt>
      <trkpt lat="47.2773" lon="-2.07416">
        <ele>49</ele>
        <time>2021-06-05T12:08:18.000Z</time>
      </trkpt>
      <trkpt lat="47.27729" lon="-2.07395">
        <ele>48</ele>
        <time>2021-06-05T12:08:20.000Z</time>
      </trkpt>
      <trkpt lat="47.27729" lon="-2.07374">
        <ele>48</ele>
        <time>2021-06-05T12:08:22.000Z</time>
      </trkpt>
      <trkpt lat="47.27728" lon="-2.07354">
        <ele>48</ele>
        <time>2021-06-05T12:08:24.000Z</time>
      </trkpt>
      <trkpt lat="47.27727" lon="-2.07333">
        <ele>48</ele>
        <time>2021-06-05T12:08:26.000Z</time>
      </trkpt>
      <trkpt lat="47.27727" lon="-2.07313">
        <ele>48</ele>
        <time>2021-06-05T12:08:28.000Z</time>
      </trkpt>
      <trkpt lat="47.27726" lon="-2.07293">
        <ele>48</ele>
        <time>2021-06-05T12:08:30.000Z</time>
      </trkpt>
      <trkpt lat="47.27726" lon="-2.07272">
        <ele>47</ele>
        <time>2021-06-05T12:08:32.000Z</time>
      </trkpt>
      <trkpt lat="47.27725" lon="-2.07252">
        <ele>47</ele>
        <time>2021-06-05T12:08:34.000Z</time>
      </trkpt>
      <trkpt lat="47.27724" lon="-2.07231">
        <ele>47</ele>
        <time>2021-06-05T12:08:36.000Z</time>
      </trkpt>
      <trkpt lat="47.27723" lon="-2.0721">
        <ele>47</ele>
        <time>2021-06-05T12:08:38.000Z</time>
      </trkpt>
      <trkpt lat="47.27722" lon="-2.0719">
        <ele>47</ele>
        <time>2021-06-05T12:08:40.000Z</time>
      </trkpt>
      <trkpt lat="47.27722" lon="-2.07171">
        <ele>47</ele>
        <time>2021-06-05T12:08:42.000Z</time>
      </trkpt>
      <trkpt lat="47.27722" lon="-2.0715">
        <ele>46</ele>
        <time>2021-06-05T12:08:44.000Z</time>
      </trkpt>
      <trkpt lat="47.27723" lon="-2.07131">
        <ele>46</ele>
        <time>2021-06-05T12:08:46.000Z</time>
      </trkpt>
      <trkpt lat="47.27724" lon="-2.07112">
        <ele>46</ele>
        <time>2021-06-05T12:08:48.000Z</time>
      </trkpt>
      <trkpt lat="47.27726" lon="-2.07091">
        <ele>46</ele>
        <time>2021-06-05T12:08:50.000Z</time>
      </trkpt>
      <trkpt lat="47.27729" lon="-2.07072">
        <ele>46</ele>
        <time>2021-06-05T12:08:52.000Z</time>
      </trkpt>
      <trkpt lat="47.27733" lon="-2.07052">
        <ele>46</ele>
        <time>2021-06-05T12:08:54.000Z</time>
      </trkpt>
      <trkpt lat="47.27737" lon="-2.07032">
        <ele>46</ele>
        <time>2021-06-05T12:08:56.000Z</time>
      </trkpt>
      <trkpt lat="47.2774" lon="-2.07013">
        <ele>45</ele>
        <time>2021-06-05T12:08:58.000Z</time>
      </trkpt>
      <trkpt lat="47.27744" lon="-2.06992">
        <ele>45</ele>
        <time>2021-06-05T12:09:00.000Z</time>
      </trkpt>
      <trkpt lat="47.27747" lon="-2.06972">
        <ele>45</ele>
        <time>2021-06-05T12:09:02.000Z</time>
      </trkpt>
      <trkpt lat="47.27751" lon="-2.06951">
        <ele>45</ele>
        <time>2021-06-05T12:09:04.000Z</time>
      </trkpt>
      <trkpt lat="47.27754" lon="-2.0693">
        <ele>44</ele>
        <time>2021-06-05T12:09:06.000Z</time>
      </trkpt>
      <trkpt lat="47.27757" lon="-2.06909">
        <ele>44</ele>
        <time>2021-06-05T12:09:08.000Z</time>
      </trkpt>
      <trkpt lat="47.27758" lon="-2.06889">
        <ele>45</ele>
        <time>2021-06-05T12:09:10.000Z</time>
      </trkpt>
      <trkpt lat="47.27758" lon="-2.06868">
        <ele>45</ele>
        <time>2021-06-05T12:09:12.000Z</time>
      </trkpt>
      <trkpt lat="47.27758" lon="-2.06848">
        <ele>45</ele>
        <time>2021-06-05T12:09:14.000Z</time>
      </trkpt>
      <trkpt lat="47.27757" lon="-2.06827">
        <ele>45</ele>
        <time>2021-06-05T12:09:16.000Z</time>
      </trkpt>
      <trkpt lat="47.27756" lon="-2.06806">
        <ele>45</ele>
        <time>2021-06-05T12:09:18.000Z</time>
      </trkpt>
      <trkpt lat="47.27753" lon="-2.06786">
        <ele>45</ele>
        <time>2021-06-05T12:09:20.000Z</time>
      </trkpt>
      <trkpt lat="47.2775" lon="-2.06765">
        <ele>45</ele>
        <time>2021-06-05T12:09:22.000Z</time>
      </trkpt>
      <trkpt lat="47.27748" lon="-2.06744">
        <ele>45</ele>
        <time>2021-06-05T12:09:24.000Z</time>
      </trkpt>
      <trkpt lat="47.27745" lon="-2.06723">
        <ele>45</ele>
        <time>2021-06-05T12:09:26.000Z</time>
      </trkpt>
      <trkpt lat="47.27743" lon="-2.06703">
        <ele>45</ele>
        <time>2021-06-05T12:09:28.000Z</time>
      </trkpt>
      <trkpt lat="47.27742" lon="-2.06682">
        <ele>46</ele>
        <time>2021-06-05T12:09:30.000Z</time>
      </trkpt>
      <trkpt lat="47.2774" lon="-2.06662">
        <ele>46</ele>
        <time>2021-06-05T12:09:32.000Z</time>
      </trkpt>
      <trkpt lat="47.27738" lon="-2.06641">
        <ele>46</ele>
        <time>2021-06-05T12:09:34.000Z</time>
      </trkpt>
      <trkpt lat="47.27737" lon="-2.06621">
        <ele>46</ele>
        <time>2021-06-05T12:09:36.000Z</time>
      </trkpt>
      <trkpt lat="47.27736" lon="-2.06599">
        <ele>46</ele>
        <time>2021-06-05T12:09:38.000Z</time>
      </trkpt>
      <trkpt lat="47.27735" lon="-2.06579">
        <ele>46</ele>
        <time>2021-06-05T12:09:40.000Z</time>
      </trkpt>
      <trkpt lat="47.27736" lon="-2.06558">
        <ele>46</ele>
        <time>2021-06-05T12:09:42.000Z</time>
      </trkpt>
      <trkpt lat="47.27736" lon="-2.06538">
        <ele>46</ele>
        <time>2021-06-05T12:09:44.000Z</time>
      </trkpt>
      <trkpt lat="47.27738" lon="-2.06518">
        <ele>46</ele>
        <time>2021-06-05T12:09:46.000Z</time>
      </trkpt>
      <trkpt lat="47.27741" lon="-2.06498">
        <ele>45</ele>
        <time>2021-06-05T12:09:48.000Z</time>
      </trkpt>
      <trkpt lat="47.27743" lon="-2.06478">
        <ele>45</ele>
        <time>2021-06-05T12:09:50.000Z</time>
      </trkpt>
      <trkpt lat="47.27744" lon="-2.06457">
        <ele>45</ele>
        <time>2021-06-05T12:09:52.000Z</time>
      </trkpt>
      <trkpt lat="47.27747" lon="-2.06438">
        <ele>45</ele>
        <time>2021-06-05T12:09:54.000Z</time>
      </trkpt>
      <trkpt lat="47.2775" lon="-2.06418">
        <ele>45</ele>
        <time>2021-06-05T12:09:56.000Z</time>
      </trkpt>
      <trkpt lat="47.27754" lon="-2.06399">
        <ele>45</ele>
        <time>2021-06-05T12:09:58.000Z</time>
      </trkpt>
      <trkpt lat="47.27757" lon="-2.0638">
        <ele>45</ele>
        <time>2021-06-05T12:10:00.000Z</time>
      </trkpt>
      <trkpt lat="47.27759" lon="-2.06362">
        <ele>46</ele>
        <time>2021-06-05T12:10:02.000Z</time>
      </trkpt>
      <trkpt lat="47.27762" lon="-2.06344">
        <ele>46</ele>
        <time>2021-06-05T12:10:04.000Z</time>
      </trkpt>
      <trkpt lat="47.27764" lon="-2.06326">
        <ele>47</ele>
        <time>2021-06-05T12:10:06.000Z</time>
      </trkpt>
      <trkpt lat="47.27764" lon="-2.06307">
        <ele>47</ele>
        <time>2021-06-05T12:10:08.000Z</time>
      </trkpt>
      <trkpt lat="47.27766" lon="-2.06289">
        <ele>47</ele>
        <time>2021-06-05T12:10:10.000Z</time>
      </trkpt>
      <trkpt lat="47.27767" lon="-2.0627">
        <ele>47</ele>
        <time>2021-06-05T12:10:12.000Z</time>
      </trkpt>
      <trkpt lat="47.27769" lon="-2.06252">
        <ele>47</ele>
        <time>2021-06-05T12:10:14.000Z</time>
      </trkpt>
      <trkpt lat="47.2777" lon="-2.06239">
        <ele>47</ele>
        <time>2021-06-05T12:10:16.000Z</time>
      </trkpt>
      <trkpt lat="47.27775" lon="-2.06252">
        <ele>48</ele>
        <time>2021-06-05T12:10:22.000Z</time>
      </trkpt>
      <trkpt lat="47.27775" lon="-2.06269">
        <ele>48</ele>
        <time>2021-06-05T12:10:26.000Z</time>
      </trkpt>
      <trkpt lat="47.27781" lon="-2.06279">
        <ele>49</ele>
        <time>2021-06-05T12:10:40.000Z</time>
      </trkpt>
      <trkpt lat="47.27789" lon="-2.0627">
        <ele>48</ele>
        <time>2021-06-05T12:11:26.000Z</time>
      </trkpt>
      <trkpt lat="47.27795" lon="-2.06259">
        <ele>46</ele>
        <time>2021-06-05T12:12:05.000Z</time>
      </trkpt>
      <trkpt lat="47.27797" lon="-2.06246">
        <ele>46</ele>
        <time>2021-06-05T12:13:28.000Z</time>
      </trkpt>
      <trkpt lat="47.27804" lon="-2.06238">
        <ele>49</ele>
        <time>2021-06-05T12:14:40.000Z</time>
      </trkpt>
      <trkpt lat="47.27811" lon="-2.06228">
        <ele>50</ele>
        <time>2021-06-05T12:15:23.000Z</time>
      </trkpt>
      <trkpt lat="47.27813" lon="-2.06215">
        <ele>48</ele>
        <time>2021-06-05T12:15:50.000Z</time>
      </trkpt>
      <trkpt lat="47.27822" lon="-2.06209">
        <ele>49</ele>
        <time>2021-06-05T12:16:20.000Z</time>
      </trkpt>
      <trkpt lat="47.27829" lon="-2.06199">
        <ele>48</ele>
        <time>2021-06-05T12:17:12.000Z</time>
      </trkpt>
      <trkpt lat="47.27822" lon="-2.06209">
        <ele>47</ele>
        <time>2021-06-05T12:17:46.000Z</time>
      </trkpt>
      <trkpt lat="47.27816" lon="-2.06221">
        <ele>48</ele>
        <time>2021-06-05T12:17:53.000Z</time>
      </trkpt>
      <trkpt lat="47.2781" lon="-2.06232">
        <ele>48</ele>
        <time>2021-06-05T12:18:02.000Z</time>
      </trkpt>
      <trkpt lat="47.27804" lon="-2.06244">
        <ele>47</ele>
        <time>2021-06-05T12:18:11.000Z</time>
      </trkpt>
      <trkpt lat="47.27796" lon="-2.06253">
        <ele>51</ele>
        <time>2021-06-05T12:18:19.000Z</time>
      </trkpt>
      <trkpt lat="47.2779" lon="-2.06264">
        <ele>51</ele>
        <time>2021-06-05T12:18:27.000Z</time>
      </trkpt>
      <trkpt lat="47.27785" lon="-2.06274">
        <ele>51</ele>
        <time>2021-06-05T12:18:33.000Z</time>
      </trkpt>
      <trkpt lat="47.27774" lon="-2.06276">
        <ele>50</ele>
        <time>2021-06-05T12:18:41.000Z</time>
      </trkpt>
      <trkpt lat="47.2777" lon="-2.06262">
        <ele>49</ele>
        <time>2021-06-05T12:18:44.000Z</time>
      </trkpt>
      <trkpt lat="47.27771" lon="-2.06243">
        <ele>49</ele>
        <time>2021-06-05T12:18:47.000Z</time>
      </trkpt>
      <trkpt lat="47.27771" lon="-2.06228">
        <ele>49</ele>
        <time>2021-06-05T12:18:49.000Z</time>
      </trkpt>
      <trkpt lat="47.2777" lon="-2.06215">
        <ele>48</ele>
        <time>2021-06-05T12:18:51.000Z</time>
      </trkpt>
      <trkpt lat="47.27769" lon="-2.06199">
        <ele>48</ele>
        <time>2021-06-05T12:18:53.000Z</time>
      </trkpt>
      <trkpt lat="47.27768" lon="-2.06184">
        <ele>48</ele>
        <time>2021-06-05T12:18:55.000Z</time>
      </trkpt>
      <trkpt lat="47.27766" lon="-2.06169">
        <ele>48</ele>
        <time>2021-06-05T12:18:57.000Z</time>
      </trkpt>
      <trkpt lat="47.27765" lon="-2.06153">
        <ele>49</ele>
        <time>2021-06-05T12:18:59.000Z</time>
      </trkpt>
      <trkpt lat="47.27764" lon="-2.06137">
        <ele>49</ele>
        <time>2021-06-05T12:19:01.000Z</time>
      </trkpt>
      <trkpt lat="47.27763" lon="-2.06121">
        <ele>49</ele>
        <time>2021-06-05T12:19:03.000Z</time>
      </trkpt>
      <trkpt lat="47.27761" lon="-2.06106">
        <ele>48</ele>
        <time>2021-06-05T12:19:05.000Z</time>
      </trkpt>
      <trkpt lat="47.2776" lon="-2.0609">
        <ele>48</ele>
        <time>2021-06-05T12:19:07.000Z</time>
      </trkpt>
      <trkpt lat="47.27759" lon="-2.06075">
        <ele>48</ele>
        <time>2021-06-05T12:19:09.000Z</time>
      </trkpt>
      <trkpt lat="47.27758" lon="-2.06059">
        <ele>48</ele>
        <time>2021-06-05T12:19:11.000Z</time>
      </trkpt>
      <trkpt lat="47.27756" lon="-2.06043">
        <ele>48</ele>
        <time>2021-06-05T12:19:13.000Z</time>
      </trkpt>
      <trkpt lat="47.27755" lon="-2.06027">
        <ele>48</ele>
        <time>2021-06-05T12:19:15.000Z</time>
      </trkpt>
      <trkpt lat="47.27754" lon="-2.06012">
        <ele>48</ele>
        <time>2021-06-05T12:19:17.000Z</time>
      </trkpt>
      <trkpt lat="47.27753" lon="-2.05997">
        <ele>47</ele>
        <time>2021-06-05T12:19:19.000Z</time>
      </trkpt>
      <trkpt lat="47.27751" lon="-2.05983">
        <ele>47</ele>
        <time>2021-06-05T12:19:21.000Z</time>
      </trkpt>
      <trkpt lat="47.2775" lon="-2.05969">
        <ele>47</ele>
        <time>2021-06-05T12:19:23.000Z</time>
      </trkpt>
      <trkpt lat="47.27749" lon="-2.05955">
        <ele>48</ele>
        <time>2021-06-05T12:19:25.000Z</time>
      </trkpt>
      <trkpt lat="47.27751" lon="-2.05938">
        <ele>48</ele>
        <time>2021-06-05T12:19:28.000Z</time>
      </trkpt>
      <trkpt lat="47.27757" lon="-2.05928">
        <ele>48</ele>
        <time>2021-06-05T12:19:32.000Z</time>
      </trkpt>
      <trkpt lat="47.27758" lon="-2.05912">
        <ele>49</ele>
        <time>2021-06-05T12:20:02.000Z</time>
      </trkpt>
      <trkpt lat="47.27758" lon="-2.05894">
        <ele>49</ele>
        <time>2021-06-05T12:20:05.000Z</time>
      </trkpt>
      <trkpt lat="47.2776" lon="-2.0588">
        <ele>49</ele>
        <time>2021-06-05T12:20:07.000Z</time>
      </trkpt>
      <trkpt lat="47.27763" lon="-2.05868">
        <ele>48</ele>
        <time>2021-06-05T12:20:09.000Z</time>
      </trkpt>
      <trkpt lat="47.2777" lon="-2.05852">
        <ele>49</ele>
        <time>2021-06-05T12:20:12.000Z</time>
      </trkpt>
      <trkpt lat="47.27782" lon="-2.05843">
        <ele>51</ele>
        <time>2021-06-05T12:20:15.000Z</time>
      </trkpt>
      <trkpt lat="47.27792" lon="-2.05836">
        <ele>51</ele>
        <time>2021-06-05T12:20:17.000Z</time>
      </trkpt>
      <trkpt lat="47.27801" lon="-2.0583">
        <ele>51</ele>
        <time>2021-06-05T12:20:19.000Z</time>
      </trkpt>
      <trkpt lat="47.27812" lon="-2.05821">
        <ele>51</ele>
        <time>2021-06-05T12:20:21.000Z</time>
      </trkpt>
      <trkpt lat="47.27822" lon="-2.05813">
        <ele>51</ele>
        <time>2021-06-05T12:20:23.000Z</time>
      </trkpt>
      <trkpt lat="47.27832" lon="-2.05804">
        <ele>52</ele>
        <time>2021-06-05T12:20:25.000Z</time>
      </trkpt>
      <trkpt lat="47.27843" lon="-2.05795">
        <ele>52</ele>
        <time>2021-06-05T12:20:27.000Z</time>
      </trkpt>
      <trkpt lat="47.27859" lon="-2.05782">
        <ele>52</ele>
        <time>2021-06-05T12:20:30.000Z</time>
      </trkpt>
      <trkpt lat="47.27876" lon="-2.05767">
        <ele>52</ele>
        <time>2021-06-05T12:20:33.000Z</time>
      </trkpt>
      <trkpt lat="47.27889" lon="-2.05758">
        <ele>50</ele>
        <time>2021-06-05T12:20:35.000Z</time>
      </trkpt>
      <trkpt lat="47.27906" lon="-2.05744">
        <ele>49</ele>
        <time>2021-06-05T12:20:38.000Z</time>
      </trkpt>
      <trkpt lat="47.27917" lon="-2.05734">
        <ele>49</ele>
        <time>2021-06-05T12:20:40.000Z</time>
      </trkpt>
      <trkpt lat="47.27935" lon="-2.0572">
        <ele>48</ele>
        <time>2021-06-05T12:20:43.000Z</time>
      </trkpt>
      <trkpt lat="47.27952" lon="-2.05708">
        <ele>48</ele>
        <time>2021-06-05T12:20:46.000Z</time>
      </trkpt>
      <trkpt lat="47.27962" lon="-2.05695">
        <ele>47</ele>
        <time>2021-06-05T12:20:48.000Z</time>
      </trkpt>
      <trkpt lat="47.2797" lon="-2.05681">
        <ele>47</ele>
        <time>2021-06-05T12:20:50.000Z</time>
      </trkpt>
      <trkpt lat="47.27977" lon="-2.05665">
        <ele>47</ele>
        <time>2021-06-05T12:20:52.000Z</time>
      </trkpt>
      <trkpt lat="47.27987" lon="-2.05639">
        <ele>46</ele>
        <time>2021-06-05T12:20:55.000Z</time>
      </trkpt>
      <trkpt lat="47.27995" lon="-2.05622">
        <ele>46</ele>
        <time>2021-06-05T12:20:57.000Z</time>
      </trkpt>
      <trkpt lat="47.28003" lon="-2.05606">
        <ele>46</ele>
        <time>2021-06-05T12:20:59.000Z</time>
      </trkpt>
      <trkpt lat="47.2801" lon="-2.05589">
        <ele>46</ele>
        <time>2021-06-05T12:21:01.000Z</time>
      </trkpt>
      <trkpt lat="47.28018" lon="-2.05574">
        <ele>46</ele>
        <time>2021-06-05T12:21:03.000Z</time>
      </trkpt>
      <trkpt lat="47.28026" lon="-2.05558">
        <ele>46</ele>
        <time>2021-06-05T12:21:05.000Z</time>
      </trkpt>
      <trkpt lat="47.28034" lon="-2.05541">
        <ele>45</ele>
        <time>2021-06-05T12:21:07.000Z</time>
      </trkpt>
      <trkpt lat="47.28041" lon="-2.05525">
        <ele>45</ele>
        <time>2021-06-05T12:21:09.000Z</time>
      </trkpt>
      <trkpt lat="47.28049" lon="-2.05508">
        <ele>45</ele>
        <time>2021-06-05T12:21:11.000Z</time>
      </trkpt>
      <trkpt lat="47.28057" lon="-2.05492">
        <ele>45</ele>
        <time>2021-06-05T12:21:13.000Z</time>
      </trkpt>
      <trkpt lat="47.28064" lon="-2.05476">
        <ele>45</ele>
        <time>2021-06-05T12:21:15.000Z</time>
      </trkpt>
      <trkpt lat="47.28071" lon="-2.05459">
        <ele>45</ele>
        <time>2021-06-05T12:21:17.000Z</time>
      </trkpt>
      <trkpt lat="47.28079" lon="-2.05443">
        <ele>45</ele>
        <time>2021-06-05T12:21:19.000Z</time>
      </trkpt>
      <trkpt lat="47.28087" lon="-2.05427">
        <ele>45</ele>
        <time>2021-06-05T12:21:21.000Z</time>
      </trkpt>
      <trkpt lat="47.28095" lon="-2.05412">
        <ele>45</ele>
        <time>2021-06-05T12:21:23.000Z</time>
      </trkpt>
      <trkpt lat="47.28102" lon="-2.05395">
        <ele>45</ele>
        <time>2021-06-05T12:21:25.000Z</time>
      </trkpt>
      <trkpt lat="47.28109" lon="-2.05379">
        <ele>45</ele>
        <time>2021-06-05T12:21:27.000Z</time>
      </trkpt>
      <trkpt lat="47.28117" lon="-2.05362">
        <ele>46</ele>
        <time>2021-06-05T12:21:29.000Z</time>
      </trkpt>
      <trkpt lat="47.28125" lon="-2.05346">
        <ele>46</ele>
        <time>2021-06-05T12:21:31.000Z</time>
      </trkpt>
      <trkpt lat="47.28132" lon="-2.0533">
        <ele>46</ele>
        <time>2021-06-05T12:21:33.000Z</time>
      </trkpt>
      <trkpt lat="47.2814" lon="-2.05313">
        <ele>46</ele>
        <time>2021-06-05T12:21:35.000Z</time>
      </trkpt>
      <trkpt lat="47.28147" lon="-2.05296">
        <ele>46</ele>
        <time>2021-06-05T12:21:37.000Z</time>
      </trkpt>
      <trkpt lat="47.28155" lon="-2.0528">
        <ele>46</ele>
        <time>2021-06-05T12:21:39.000Z</time>
      </trkpt>
      <trkpt lat="47.28162" lon="-2.05263">
        <ele>45</ele>
        <time>2021-06-05T12:21:41.000Z</time>
      </trkpt>
      <trkpt lat="47.2817" lon="-2.05247">
        <ele>46</ele>
        <time>2021-06-05T12:21:43.000Z</time>
      </trkpt>
      <trkpt lat="47.28178" lon="-2.0523">
        <ele>45</ele>
        <time>2021-06-05T12:21:45.000Z</time>
      </trkpt>
      <trkpt lat="47.28186" lon="-2.05213">
        <ele>46</ele>
        <time>2021-06-05T12:21:47.000Z</time>
      </trkpt>
      <trkpt lat="47.28193" lon="-2.05197">
        <ele>45</ele>
        <time>2021-06-05T12:21:49.000Z</time>
      </trkpt>
      <trkpt lat="47.28204" lon="-2.05172">
        <ele>46</ele>
        <time>2021-06-05T12:21:52.000Z</time>
      </trkpt>
      <trkpt lat="47.28211" lon="-2.05155">
        <ele>45</ele>
        <time>2021-06-05T12:21:54.000Z</time>
      </trkpt>
      <trkpt lat="47.28219" lon="-2.05139">
        <ele>45</ele>
        <time>2021-06-05T12:21:56.000Z</time>
      </trkpt>
      <trkpt lat="47.28227" lon="-2.05124">
        <ele>45</ele>
        <time>2021-06-05T12:21:58.000Z</time>
      </trkpt>
      <trkpt lat="47.28235" lon="-2.05108">
        <ele>45</ele>
        <time>2021-06-05T12:22:00.000Z</time>
      </trkpt>
      <trkpt lat="47.28243" lon="-2.05091">
        <ele>45</ele>
        <time>2021-06-05T12:22:02.000Z</time>
      </trkpt>
      <trkpt lat="47.28251" lon="-2.05074">
        <ele>45</ele>
        <time>2021-06-05T12:22:04.000Z</time>
      </trkpt>
      <trkpt lat="47.28258" lon="-2.05057">
        <ele>45</ele>
        <time>2021-06-05T12:22:06.000Z</time>
      </trkpt>
      <trkpt lat="47.28266" lon="-2.0504">
        <ele>45</ele>
        <time>2021-06-05T12:22:08.000Z</time>
      </trkpt>
      <trkpt lat="47.28274" lon="-2.05023">
        <ele>44</ele>
        <time>2021-06-05T12:22:10.000Z</time>
      </trkpt>
      <trkpt lat="47.28282" lon="-2.05006">
        <ele>45</ele>
        <time>2021-06-05T12:22:12.000Z</time>
      </trkpt>
      <trkpt lat="47.28289" lon="-2.0499">
        <ele>45</ele>
        <time>2021-06-05T12:22:14.000Z</time>
      </trkpt>
      <trkpt lat="47.28297" lon="-2.04973">
        <ele>44</ele>
        <time>2021-06-05T12:22:16.000Z</time>
      </trkpt>
      <trkpt lat="47.28305" lon="-2.04956">
        <ele>44</ele>
        <time>2021-06-05T12:22:18.000Z</time>
      </trkpt>
      <trkpt lat="47.28313" lon="-2.04939">
        <ele>44</ele>
        <time>2021-06-05T12:22:20.000Z</time>
      </trkpt>
      <trkpt lat="47.28321" lon="-2.04922">
        <ele>44</ele>
        <time>2021-06-05T12:22:22.000Z</time>
      </trkpt>
      <trkpt lat="47.28328" lon="-2.04905">
        <ele>45</ele>
        <time>2021-06-05T12:22:24.000Z</time>
      </trkpt>
      <trkpt lat="47.28336" lon="-2.04889">
        <ele>45</ele>
        <time>2021-06-05T12:22:26.000Z</time>
      </trkpt>
      <trkpt lat="47.28344" lon="-2.04873">
        <ele>45</ele>
        <time>2021-06-05T12:22:28.000Z</time>
      </trkpt>
      <trkpt lat="47.28352" lon="-2.04857">
        <ele>45</ele>
        <time>2021-06-05T12:22:30.000Z</time>
      </trkpt>
      <trkpt lat="47.28363" lon="-2.0483">
        <ele>45</ele>
        <time>2021-06-05T12:22:33.000Z</time>
      </trkpt>
      <trkpt lat="47.28371" lon="-2.04812">
        <ele>45</ele>
        <time>2021-06-05T12:22:35.000Z</time>
      </trkpt>
      <trkpt lat="47.28379" lon="-2.04795">
        <ele>45</ele>
        <time>2021-06-05T12:22:37.000Z</time>
      </trkpt>
      <trkpt lat="47.28386" lon="-2.04778">
        <ele>45</ele>
        <time>2021-06-05T12:22:39.000Z</time>
      </trkpt>
      <trkpt lat="47.28395" lon="-2.04762">
        <ele>46</ele>
        <time>2021-06-05T12:22:41.000Z</time>
      </trkpt>
      <trkpt lat="47.28403" lon="-2.04745">
        <ele>46</ele>
        <time>2021-06-05T12:22:43.000Z</time>
      </trkpt>
      <trkpt lat="47.28411" lon="-2.04728">
        <ele>45</ele>
        <time>2021-06-05T12:22:45.000Z</time>
      </trkpt>
      <trkpt lat="47.28419" lon="-2.04711">
        <ele>45</ele>
        <time>2021-06-05T12:22:47.000Z</time>
      </trkpt>
      <trkpt lat="47.28427" lon="-2.04693">
        <ele>46</ele>
        <time>2021-06-05T12:22:49.000Z</time>
      </trkpt>
      <trkpt lat="47.28435" lon="-2.04676">
        <ele>46</ele>
        <time>2021-06-05T12:22:51.000Z</time>
      </trkpt>
      <trkpt lat="47.28442" lon="-2.0466">
        <ele>45</ele>
        <time>2021-06-05T12:22:53.000Z</time>
      </trkpt>
      <trkpt lat="47.2845" lon="-2.04643">
        <ele>45</ele>
        <time>2021-06-05T12:22:55.000Z</time>
      </trkpt>
      <trkpt lat="47.28457" lon="-2.04626">
        <ele>45</ele>
        <time>2021-06-05T12:22:57.000Z</time>
      </trkpt>
      <trkpt lat="47.28466" lon="-2.04609">
        <ele>45</ele>
        <time>2021-06-05T12:22:59.000Z</time>
      </trkpt>
      <trkpt lat="47.28474" lon="-2.04592">
        <ele>45</ele>
        <time>2021-06-05T12:23:01.000Z</time>
      </trkpt>
      <trkpt lat="47.28483" lon="-2.04577">
        <ele>45</ele>
        <time>2021-06-05T12:23:03.000Z</time>
      </trkpt>
      <trkpt lat="47.28493" lon="-2.04562">
        <ele>45</ele>
        <time>2021-06-05T12:23:05.000Z</time>
      </trkpt>
      <trkpt lat="47.28503" lon="-2.04547">
        <ele>45</ele>
        <time>2021-06-05T12:23:07.000Z</time>
      </trkpt>
      <trkpt lat="47.28512" lon="-2.04533">
        <ele>45</ele>
        <time>2021-06-05T12:23:09.000Z</time>
      </trkpt>
      <trkpt lat="47.28522" lon="-2.04518">
        <ele>45</ele>
        <time>2021-06-05T12:23:11.000Z</time>
      </trkpt>
      <trkpt lat="47.28532" lon="-2.04503">
        <ele>45</ele>
        <time>2021-06-05T12:23:13.000Z</time>
      </trkpt>
      <trkpt lat="47.28541" lon="-2.04489">
        <ele>45</ele>
        <time>2021-06-05T12:23:15.000Z</time>
      </trkpt>
      <trkpt lat="47.28551" lon="-2.04475">
        <ele>45</ele>
        <time>2021-06-05T12:23:17.000Z</time>
      </trkpt>
      <trkpt lat="47.28561" lon="-2.04461">
        <ele>45</ele>
        <time>2021-06-05T12:23:19.000Z</time>
      </trkpt>
      <trkpt lat="47.2857" lon="-2.04447">
        <ele>45</ele>
        <time>2021-06-05T12:23:21.000Z</time>
      </trkpt>
      <trkpt lat="47.2858" lon="-2.04433">
        <ele>45</ele>
        <time>2021-06-05T12:23:23.000Z</time>
      </trkpt>
      <trkpt lat="47.2859" lon="-2.04419">
        <ele>45</ele>
        <time>2021-06-05T12:23:25.000Z</time>
      </trkpt>
      <trkpt lat="47.28599" lon="-2.04405">
        <ele>45</ele>
        <time>2021-06-05T12:23:27.000Z</time>
      </trkpt>
      <trkpt lat="47.28609" lon="-2.04391">
        <ele>45</ele>
        <time>2021-06-05T12:23:29.000Z</time>
      </trkpt>
      <trkpt lat="47.28618" lon="-2.04377">
        <ele>45</ele>
        <time>2021-06-05T12:23:31.000Z</time>
      </trkpt>
      <trkpt lat="47.28627" lon="-2.04362">
        <ele>45</ele>
        <time>2021-06-05T12:23:33.000Z</time>
      </trkpt>
      <trkpt lat="47.28636" lon="-2.04347">
        <ele>46</ele>
        <time>2021-06-05T12:23:35.000Z</time>
      </trkpt>
      <trkpt lat="47.28645" lon="-2.04333">
        <ele>46</ele>
        <time>2021-06-05T12:23:37.000Z</time>
      </trkpt>
      <trkpt lat="47.28655" lon="-2.04318">
        <ele>46</ele>
        <time>2021-06-05T12:23:39.000Z</time>
      </trkpt>
      <trkpt lat="47.28664" lon="-2.04304">
        <ele>47</ele>
        <time>2021-06-05T12:23:41.000Z</time>
      </trkpt>
      <trkpt lat="47.28673" lon="-2.04289">
        <ele>47</ele>
        <time>2021-06-05T12:23:43.000Z</time>
      </trkpt>
      <trkpt lat="47.28681" lon="-2.04275">
        <ele>47</ele>
        <time>2021-06-05T12:23:45.000Z</time>
      </trkpt>
      <trkpt lat="47.28689" lon="-2.04261">
        <ele>47</ele>
        <time>2021-06-05T12:23:47.000Z</time>
      </trkpt>
      <trkpt lat="47.28693" lon="-2.04246">
        <ele>47</ele>
        <time>2021-06-05T12:23:49.000Z</time>
      </trkpt>
      <trkpt lat="47.28691" lon="-2.04232">
        <ele>47</ele>
        <time>2021-06-05T12:23:51.000Z</time>
      </trkpt>
      <trkpt lat="47.28694" lon="-2.04216">
        <ele>47</ele>
        <time>2021-06-05T12:23:53.000Z</time>
      </trkpt>
      <trkpt lat="47.28704" lon="-2.04205">
        <ele>47</ele>
        <time>2021-06-05T12:23:55.000Z</time>
      </trkpt>
      <trkpt lat="47.28717" lon="-2.04205">
        <ele>47</ele>
        <time>2021-06-05T12:23:57.000Z</time>
      </trkpt>
      <trkpt lat="47.28729" lon="-2.04206">
        <ele>47</ele>
        <time>2021-06-05T12:23:59.000Z</time>
      </trkpt>
      <trkpt lat="47.28741" lon="-2.04198">
        <ele>47</ele>
        <time>2021-06-05T12:24:01.000Z</time>
      </trkpt>
      <trkpt lat="47.28752" lon="-2.04186">
        <ele>47</ele>
        <time>2021-06-05T12:24:03.000Z</time>
      </trkpt>
      <trkpt lat="47.28762" lon="-2.04171">
        <ele>47</ele>
        <time>2021-06-05T12:24:05.000Z</time>
      </trkpt>
      <trkpt lat="47.28771" lon="-2.04156">
        <ele>47</ele>
        <time>2021-06-05T12:24:07.000Z</time>
      </trkpt>
      <trkpt lat="47.28781" lon="-2.04141">
        <ele>47</ele>
        <time>2021-06-05T12:24:09.000Z</time>
      </trkpt>
      <trkpt lat="47.28791" lon="-2.04127">
        <ele>47</ele>
        <time>2021-06-05T12:24:11.000Z</time>
      </trkpt>
      <trkpt lat="47.28801" lon="-2.04112">
        <ele>48</ele>
        <time>2021-06-05T12:24:13.000Z</time>
      </trkpt>
      <trkpt lat="47.2881" lon="-2.04098">
        <ele>48</ele>
        <time>2021-06-05T12:24:15.000Z</time>
      </trkpt>
      <trkpt lat="47.2882" lon="-2.04084">
        <ele>49</ele>
        <time>2021-06-05T12:24:17.000Z</time>
      </trkpt>
      <trkpt lat="47.28829" lon="-2.0407">
        <ele>49</ele>
        <time>2021-06-05T12:24:19.000Z</time>
      </trkpt>
      <trkpt lat="47.28838" lon="-2.04056">
        <ele>49</ele>
        <time>2021-06-05T12:24:21.000Z</time>
      </trkpt>
      <trkpt lat="47.28847" lon="-2.04043">
        <ele>49</ele>
        <time>2021-06-05T12:24:23.000Z</time>
      </trkpt>
      <trkpt lat="47.28857" lon="-2.04029">
        <ele>49</ele>
        <time>2021-06-05T12:24:25.000Z</time>
      </trkpt>
      <trkpt lat="47.28866" lon="-2.04014">
        <ele>49</ele>
        <time>2021-06-05T12:24:27.000Z</time>
      </trkpt>
      <trkpt lat="47.28874" lon="-2.03998">
        <ele>49</ele>
        <time>2021-06-05T12:24:29.000Z</time>
      </trkpt>
      <trkpt lat="47.28881" lon="-2.03982">
        <ele>49</ele>
        <time>2021-06-05T12:24:31.000Z</time>
      </trkpt>
      <trkpt lat="47.28887" lon="-2.03965">
        <ele>49</ele>
        <time>2021-06-05T12:24:33.000Z</time>
      </trkpt>
      <trkpt lat="47.28892" lon="-2.03946">
        <ele>49</ele>
        <time>2021-06-05T12:24:35.000Z</time>
      </trkpt>
      <trkpt lat="47.28894" lon="-2.03926">
        <ele>49</ele>
        <time>2021-06-05T12:24:37.000Z</time>
      </trkpt>
      <trkpt lat="47.28894" lon="-2.03906">
        <ele>49</ele>
        <time>2021-06-05T12:24:39.000Z</time>
      </trkpt>
      <trkpt lat="47.28895" lon="-2.03886">
        <ele>50</ele>
        <time>2021-06-05T12:24:41.000Z</time>
      </trkpt>
      <trkpt lat="47.28896" lon="-2.03865">
        <ele>50</ele>
        <time>2021-06-05T12:24:43.000Z</time>
      </trkpt>
      <trkpt lat="47.28897" lon="-2.03844">
        <ele>50</ele>
        <time>2021-06-05T12:24:45.000Z</time>
      </trkpt>
      <trkpt lat="47.28898" lon="-2.03823">
        <ele>50</ele>
        <time>2021-06-05T12:24:47.000Z</time>
      </trkpt>
      <trkpt lat="47.289" lon="-2.03802">
        <ele>49</ele>
        <time>2021-06-05T12:24:49.000Z</time>
      </trkpt>
      <trkpt lat="47.289" lon="-2.03782">
        <ele>49</ele>
        <time>2021-06-05T12:24:51.000Z</time>
      </trkpt>
      <trkpt lat="47.28901" lon="-2.03761">
        <ele>49</ele>
        <time>2021-06-05T12:24:53.000Z</time>
      </trkpt>
      <trkpt lat="47.28902" lon="-2.0374">
        <ele>49</ele>
        <time>2021-06-05T12:24:55.000Z</time>
      </trkpt>
      <trkpt lat="47.28903" lon="-2.03719">
        <ele>49</ele>
        <time>2021-06-05T12:24:57.000Z</time>
      </trkpt>
      <trkpt lat="47.28903" lon="-2.03698">
        <ele>49</ele>
        <time>2021-06-05T12:24:59.000Z</time>
      </trkpt>
      <trkpt lat="47.28904" lon="-2.03677">
        <ele>49</ele>
        <time>2021-06-05T12:25:01.000Z</time>
      </trkpt>
      <trkpt lat="47.28905" lon="-2.03656">
        <ele>49</ele>
        <time>2021-06-05T12:25:03.000Z</time>
      </trkpt>
      <trkpt lat="47.28906" lon="-2.03636">
        <ele>49</ele>
        <time>2021-06-05T12:25:05.000Z</time>
      </trkpt>
      <trkpt lat="47.28908" lon="-2.03615">
        <ele>50</ele>
        <time>2021-06-05T12:25:07.000Z</time>
      </trkpt>
      <trkpt lat="47.28909" lon="-2.03593">
        <ele>51</ele>
        <time>2021-06-05T12:25:09.000Z</time>
      </trkpt>
      <trkpt lat="47.2891" lon="-2.03572">
        <ele>51</ele>
        <time>2021-06-05T12:25:11.000Z</time>
      </trkpt>
      <trkpt lat="47.28911" lon="-2.03552">
        <ele>51</ele>
        <time>2021-06-05T12:25:13.000Z</time>
      </trkpt>
      <trkpt lat="47.28912" lon="-2.0353">
        <ele>51</ele>
        <time>2021-06-05T12:25:15.000Z</time>
      </trkpt>
      <trkpt lat="47.28913" lon="-2.0351">
        <ele>51</ele>
        <time>2021-06-05T12:25:17.000Z</time>
      </trkpt>
      <trkpt lat="47.28914" lon="-2.0349">
        <ele>51</ele>
        <time>2021-06-05T12:25:19.000Z</time>
      </trkpt>
      <trkpt lat="47.28917" lon="-2.03469">
        <ele>51</ele>
        <time>2021-06-05T12:25:21.000Z</time>
      </trkpt>
      <trkpt lat="47.2892" lon="-2.0345">
        <ele>51</ele>
        <time>2021-06-05T12:25:23.000Z</time>
      </trkpt>
      <trkpt lat="47.28922" lon="-2.03431">
        <ele>52</ele>
        <time>2021-06-05T12:25:25.000Z</time>
      </trkpt>
      <trkpt lat="47.28925" lon="-2.0341">
        <ele>51</ele>
        <time>2021-06-05T12:25:27.000Z</time>
      </trkpt>
      <trkpt lat="47.28928" lon="-2.0339">
        <ele>51</ele>
        <time>2021-06-05T12:25:29.000Z</time>
      </trkpt>
      <trkpt lat="47.28932" lon="-2.0337">
        <ele>51</ele>
        <time>2021-06-05T12:25:31.000Z</time>
      </trkpt>
      <trkpt lat="47.28937" lon="-2.0335">
        <ele>51</ele>
        <time>2021-06-05T12:25:33.000Z</time>
      </trkpt>
      <trkpt lat="47.28941" lon="-2.03331">
        <ele>51</ele>
        <time>2021-06-05T12:25:35.000Z</time>
      </trkpt>
      <trkpt lat="47.28945" lon="-2.03313">
        <ele>50</ele>
        <time>2021-06-05T12:25:37.000Z</time>
      </trkpt>
      <trkpt lat="47.2895" lon="-2.03294">
        <ele>50</ele>
        <time>2021-06-05T12:25:39.000Z</time>
      </trkpt>
      <trkpt lat="47.28954" lon="-2.03274">
        <ele>50</ele>
        <time>2021-06-05T12:25:41.000Z</time>
      </trkpt>
      <trkpt lat="47.28956" lon="-2.03255">
        <ele>50</ele>
        <time>2021-06-05T12:25:43.000Z</time>
      </trkpt>
      <trkpt lat="47.28959" lon="-2.03235">
        <ele>50</ele>
        <time>2021-06-05T12:25:45.000Z</time>
      </trkpt>
      <trkpt lat="47.2896" lon="-2.03215">
        <ele>51</ele>
        <time>2021-06-05T12:25:47.000Z</time>
      </trkpt>
      <trkpt lat="47.28962" lon="-2.03196">
        <ele>50</ele>
        <time>2021-06-05T12:25:49.000Z</time>
      </trkpt>
      <trkpt lat="47.28963" lon="-2.03176">
        <ele>50</ele>
        <time>2021-06-05T12:25:51.000Z</time>
      </trkpt>
      <trkpt lat="47.28963" lon="-2.03155">
        <ele>50</ele>
        <time>2021-06-05T12:25:53.000Z</time>
      </trkpt>
      <trkpt lat="47.28964" lon="-2.03135">
        <ele>50</ele>
        <time>2021-06-05T12:25:55.000Z</time>
      </trkpt>
      <trkpt lat="47.28966" lon="-2.03114">
        <ele>50</ele>
        <time>2021-06-05T12:25:57.000Z</time>
      </trkpt>
      <trkpt lat="47.28967" lon="-2.03094">
        <ele>51</ele>
        <time>2021-06-05T12:25:59.000Z</time>
      </trkpt>
      <trkpt lat="47.28967" lon="-2.03074">
        <ele>51</ele>
        <time>2021-06-05T12:26:01.000Z</time>
      </trkpt>
      <trkpt lat="47.28967" lon="-2.03054">
        <ele>50</ele>
        <time>2021-06-05T12:26:03.000Z</time>
      </trkpt>
      <trkpt lat="47.28967" lon="-2.03034">
        <ele>50</ele>
        <time>2021-06-05T12:26:05.000Z</time>
      </trkpt>
      <trkpt lat="47.28965" lon="-2.03014">
        <ele>50</ele>
        <time>2021-06-05T12:26:07.000Z</time>
      </trkpt>
      <trkpt lat="47.28961" lon="-2.02996">
        <ele>50</ele>
        <time>2021-06-05T12:26:09.000Z</time>
      </trkpt>
      <trkpt lat="47.28953" lon="-2.02978">
        <ele>50</ele>
        <time>2021-06-05T12:26:11.000Z</time>
      </trkpt>
      <trkpt lat="47.28946" lon="-2.0296">
        <ele>50</ele>
        <time>2021-06-05T12:26:13.000Z</time>
      </trkpt>
      <trkpt lat="47.28939" lon="-2.02942">
        <ele>49</ele>
        <time>2021-06-05T12:26:15.000Z</time>
      </trkpt>
      <trkpt lat="47.2893" lon="-2.02924">
        <ele>48</ele>
        <time>2021-06-05T12:26:17.000Z</time>
      </trkpt>
      <trkpt lat="47.28921" lon="-2.02908">
        <ele>48</ele>
        <time>2021-06-05T12:26:19.000Z</time>
      </trkpt>
      <trkpt lat="47.28912" lon="-2.02893">
        <ele>48</ele>
        <time>2021-06-05T12:26:21.000Z</time>
      </trkpt>
      <trkpt lat="47.28906" lon="-2.02875">
        <ele>48</ele>
        <time>2021-06-05T12:26:23.000Z</time>
      </trkpt>
      <trkpt lat="47.289" lon="-2.02856">
        <ele>48</ele>
        <time>2021-06-05T12:26:25.000Z</time>
      </trkpt>
      <trkpt lat="47.28895" lon="-2.02836">
        <ele>48</ele>
        <time>2021-06-05T12:26:27.000Z</time>
      </trkpt>
      <trkpt lat="47.28889" lon="-2.02817">
        <ele>48</ele>
        <time>2021-06-05T12:26:29.000Z</time>
      </trkpt>
      <trkpt lat="47.28883" lon="-2.02798">
        <ele>48</ele>
        <time>2021-06-05T12:26:31.000Z</time>
      </trkpt>
      <trkpt lat="47.28878" lon="-2.02778">
        <ele>47</ele>
        <time>2021-06-05T12:26:33.000Z</time>
      </trkpt>
      <trkpt lat="47.28873" lon="-2.02758">
        <ele>48</ele>
        <time>2021-06-05T12:26:35.000Z</time>
      </trkpt>
      <trkpt lat="47.28869" lon="-2.0274">
        <ele>47</ele>
        <time>2021-06-05T12:26:37.000Z</time>
      </trkpt>
      <trkpt lat="47.28864" lon="-2.02721">
        <ele>47</ele>
        <time>2021-06-05T12:26:39.000Z</time>
      </trkpt>
      <trkpt lat="47.28859" lon="-2.02701">
        <ele>47</ele>
        <time>2021-06-05T12:26:41.000Z</time>
      </trkpt>
      <trkpt lat="47.28855" lon="-2.02682">
        <ele>46</ele>
        <time>2021-06-05T12:26:43.000Z</time>
      </trkpt>
      <trkpt lat="47.28851" lon="-2.02662">
        <ele>46</ele>
        <time>2021-06-05T12:26:45.000Z</time>
      </trkpt>
      <trkpt lat="47.28848" lon="-2.02642">
        <ele>46</ele>
        <time>2021-06-05T12:26:47.000Z</time>
      </trkpt>
      <trkpt lat="47.28845" lon="-2.02621">
        <ele>46</ele>
        <time>2021-06-05T12:26:49.000Z</time>
      </trkpt>
      <trkpt lat="47.28841" lon="-2.02601">
        <ele>46</ele>
        <time>2021-06-05T12:26:51.000Z</time>
      </trkpt>
      <trkpt lat="47.28839" lon="-2.02581">
        <ele>46</ele>
        <time>2021-06-05T12:26:53.000Z</time>
      </trkpt>
      <trkpt lat="47.28838" lon="-2.0256">
        <ele>46</ele>
        <time>2021-06-05T12:26:55.000Z</time>
      </trkpt>
      <trkpt lat="47.28837" lon="-2.02539">
        <ele>46</ele>
        <time>2021-06-05T12:26:57.000Z</time>
      </trkpt>
      <trkpt lat="47.28837" lon="-2.02518">
        <ele>46</ele>
        <time>2021-06-05T12:26:59.000Z</time>
      </trkpt>
      <trkpt lat="47.28836" lon="-2.02496">
        <ele>46</ele>
        <time>2021-06-05T12:27:01.000Z</time>
      </trkpt>
      <trkpt lat="47.28836" lon="-2.02476">
        <ele>46</ele>
        <time>2021-06-05T12:27:03.000Z</time>
      </trkpt>
      <trkpt lat="47.28834" lon="-2.02455">
        <ele>47</ele>
        <time>2021-06-05T12:27:05.000Z</time>
      </trkpt>
      <trkpt lat="47.28833" lon="-2.02435">
        <ele>47</ele>
        <time>2021-06-05T12:27:07.000Z</time>
      </trkpt>
      <trkpt lat="47.28833" lon="-2.02415">
        <ele>47</ele>
        <time>2021-06-05T12:27:09.000Z</time>
      </trkpt>
      <trkpt lat="47.28831" lon="-2.02396">
        <ele>47</ele>
        <time>2021-06-05T12:27:11.000Z</time>
      </trkpt>
      <trkpt lat="47.28831" lon="-2.02377">
        <ele>47</ele>
        <time>2021-06-05T12:27:13.000Z</time>
      </trkpt>
      <trkpt lat="47.28829" lon="-2.02357">
        <ele>47</ele>
        <time>2021-06-05T12:27:15.000Z</time>
      </trkpt>
      <trkpt lat="47.28828" lon="-2.02338">
        <ele>47</ele>
        <time>2021-06-05T12:27:17.000Z</time>
      </trkpt>
      <trkpt lat="47.28827" lon="-2.02318">
        <ele>47</ele>
        <time>2021-06-05T12:27:19.000Z</time>
      </trkpt>
      <trkpt lat="47.28825" lon="-2.02298">
        <ele>47</ele>
        <time>2021-06-05T12:27:21.000Z</time>
      </trkpt>
      <trkpt lat="47.2882" lon="-2.02279">
        <ele>48</ele>
        <time>2021-06-05T12:27:23.000Z</time>
      </trkpt>
      <trkpt lat="47.28816" lon="-2.02259">
        <ele>48</ele>
        <time>2021-06-05T12:27:25.000Z</time>
      </trkpt>
      <trkpt lat="47.28811" lon="-2.02238">
        <ele>48</ele>
        <time>2021-06-05T12:27:27.000Z</time>
      </trkpt>
      <trkpt lat="47.28807" lon="-2.02218">
        <ele>48</ele>
        <time>2021-06-05T12:27:29.000Z</time>
      </trkpt>
      <trkpt lat="47.28803" lon="-2.02198">
        <ele>48</ele>
        <time>2021-06-05T12:27:31.000Z</time>
      </trkpt>
      <trkpt lat="47.28799" lon="-2.02178">
        <ele>48</ele>
        <time>2021-06-05T12:27:33.000Z</time>
      </trkpt>
      <trkpt lat="47.28793" lon="-2.02159">
        <ele>49</ele>
        <time>2021-06-05T12:27:35.000Z</time>
      </trkpt>
      <trkpt lat="47.28787" lon="-2.0214">
        <ele>48</ele>
        <time>2021-06-05T12:27:37.000Z</time>
      </trkpt>
      <trkpt lat="47.28777" lon="-2.02125">
        <ele>49</ele>
        <time>2021-06-05T12:27:39.000Z</time>
      </trkpt>
      <trkpt lat="47.28766" lon="-2.02112">
        <ele>50</ele>
        <time>2021-06-05T12:27:41.000Z</time>
      </trkpt>
      <trkpt lat="47.28756" lon="-2.02098">
        <ele>50</ele>
        <time>2021-06-05T12:27:43.000Z</time>
      </trkpt>
      <trkpt lat="47.28746" lon="-2.02084">
        <ele>50</ele>
        <time>2021-06-05T12:27:45.000Z</time>
      </trkpt>
      <trkpt lat="47.28738" lon="-2.02067">
        <ele>50</ele>
        <time>2021-06-05T12:27:47.000Z</time>
      </trkpt>
      <trkpt lat="47.28731" lon="-2.02049">
        <ele>51</ele>
        <time>2021-06-05T12:27:49.000Z</time>
      </trkpt>
      <trkpt lat="47.28725" lon="-2.02031">
        <ele>51</ele>
        <time>2021-06-05T12:27:51.000Z</time>
      </trkpt>
      <trkpt lat="47.28719" lon="-2.02013">
        <ele>51</ele>
        <time>2021-06-05T12:27:53.000Z</time>
      </trkpt>
      <trkpt lat="47.28714" lon="-2.01993">
        <ele>51</ele>
        <time>2021-06-05T12:27:55.000Z</time>
      </trkpt>
      <trkpt lat="47.2871" lon="-2.01973">
        <ele>51</ele>
        <time>2021-06-05T12:27:57.000Z</time>
      </trkpt>
      <trkpt lat="47.28706" lon="-2.01952">
        <ele>50</ele>
        <time>2021-06-05T12:27:59.000Z</time>
      </trkpt>
      <trkpt lat="47.28701" lon="-2.01933">
        <ele>50</ele>
        <time>2021-06-05T12:28:01.000Z</time>
      </trkpt>
      <trkpt lat="47.28694" lon="-2.01915">
        <ele>50</ele>
        <time>2021-06-05T12:28:03.000Z</time>
      </trkpt>
      <trkpt lat="47.28686" lon="-2.01898">
        <ele>50</ele>
        <time>2021-06-05T12:28:05.000Z</time>
      </trkpt>
      <trkpt lat="47.28676" lon="-2.01881">
        <ele>50</ele>
        <time>2021-06-05T12:28:07.000Z</time>
      </trkpt>
      <trkpt lat="47.28667" lon="-2.01865">
        <ele>50</ele>
        <time>2021-06-05T12:28:09.000Z</time>
      </trkpt>
      <trkpt lat="47.28657" lon="-2.0185">
        <ele>50</ele>
        <time>2021-06-05T12:28:11.000Z</time>
      </trkpt>
      <trkpt lat="47.28647" lon="-2.01834">
        <ele>50</ele>
        <time>2021-06-05T12:28:13.000Z</time>
      </trkpt>
      <trkpt lat="47.28638" lon="-2.01818">
        <ele>50</ele>
        <time>2021-06-05T12:28:15.000Z</time>
      </trkpt>
      <trkpt lat="47.28629" lon="-2.01802">
        <ele>50</ele>
        <time>2021-06-05T12:28:17.000Z</time>
      </trkpt>
      <trkpt lat="47.2862" lon="-2.01785">
        <ele>49</ele>
        <time>2021-06-05T12:28:19.000Z</time>
      </trkpt>
      <trkpt lat="47.28611" lon="-2.01768">
        <ele>49</ele>
        <time>2021-06-05T12:28:21.000Z</time>
      </trkpt>
      <trkpt lat="47.28602" lon="-2.01751">
        <ele>49</ele>
        <time>2021-06-05T12:28:23.000Z</time>
      </trkpt>
      <trkpt lat="47.28593" lon="-2.01734">
        <ele>49</ele>
        <time>2021-06-05T12:28:25.000Z</time>
      </trkpt>
      <trkpt lat="47.28584" lon="-2.01719">
        <ele>49</ele>
        <time>2021-06-05T12:28:27.000Z</time>
      </trkpt>
      <trkpt lat="47.28573" lon="-2.01706">
        <ele>49</ele>
        <time>2021-06-05T12:28:29.000Z</time>
      </trkpt>
      <trkpt lat="47.28562" lon="-2.01695">
        <ele>50</ele>
        <time>2021-06-05T12:28:31.000Z</time>
      </trkpt>
      <trkpt lat="47.2855" lon="-2.01686">
        <ele>50</ele>
        <time>2021-06-05T12:28:33.000Z</time>
      </trkpt>
      <trkpt lat="47.28537" lon="-2.0168">
        <ele>52</ele>
        <time>2021-06-05T12:28:35.000Z</time>
      </trkpt>
      <trkpt lat="47.28523" lon="-2.01676">
        <ele>54</ele>
        <time>2021-06-05T12:28:37.000Z</time>
      </trkpt>
      <trkpt lat="47.28508" lon="-2.01671">
        <ele>56</ele>
        <time>2021-06-05T12:28:39.000Z</time>
      </trkpt>
      <trkpt lat="47.28495" lon="-2.01667">
        <ele>56</ele>
        <time>2021-06-05T12:28:41.000Z</time>
      </trkpt>
      <trkpt lat="47.28481" lon="-2.01664">
        <ele>55</ele>
        <time>2021-06-05T12:28:43.000Z</time>
      </trkpt>
      <trkpt lat="47.2847" lon="-2.01659">
        <ele>56</ele>
        <time>2021-06-05T12:28:45.000Z</time>
      </trkpt>
      <trkpt lat="47.28456" lon="-2.01655">
        <ele>55</ele>
        <time>2021-06-05T12:28:47.000Z</time>
      </trkpt>
      <trkpt lat="47.28443" lon="-2.01652">
        <ele>55</ele>
        <time>2021-06-05T12:28:49.000Z</time>
      </trkpt>
      <trkpt lat="47.2843" lon="-2.01647">
        <ele>54</ele>
        <time>2021-06-05T12:28:51.000Z</time>
      </trkpt>
      <trkpt lat="47.28416" lon="-2.01642">
        <ele>54</ele>
        <time>2021-06-05T12:28:53.000Z</time>
      </trkpt>
      <trkpt lat="47.28401" lon="-2.01639">
        <ele>53</ele>
        <time>2021-06-05T12:28:55.000Z</time>
      </trkpt>
      <trkpt lat="47.28388" lon="-2.01634">
        <ele>53</ele>
        <time>2021-06-05T12:28:57.000Z</time>
      </trkpt>
      <trkpt lat="47.28374" lon="-2.0163">
        <ele>52</ele>
        <time>2021-06-05T12:28:59.000Z</time>
      </trkpt>
      <trkpt lat="47.28361" lon="-2.01626">
        <ele>52</ele>
        <time>2021-06-05T12:29:01.000Z</time>
      </trkpt>
      <trkpt lat="47.28349" lon="-2.01625">
        <ele>52</ele>
        <time>2021-06-05T12:29:03.000Z</time>
      </trkpt>
      <trkpt lat="47.28336" lon="-2.01626">
        <ele>52</ele>
        <time>2021-06-05T12:29:05.000Z</time>
      </trkpt>
      <trkpt lat="47.28323" lon="-2.01622">
        <ele>51</ele>
        <time>2021-06-05T12:29:07.000Z</time>
      </trkpt>
      <trkpt lat="47.28311" lon="-2.01613">
        <ele>51</ele>
        <time>2021-06-05T12:29:09.000Z</time>
      </trkpt>
      <trkpt lat="47.28298" lon="-2.01606">
        <ele>51</ele>
        <time>2021-06-05T12:29:11.000Z</time>
      </trkpt>
      <trkpt lat="47.28285" lon="-2.01602">
        <ele>51</ele>
        <time>2021-06-05T12:29:13.000Z</time>
      </trkpt>
      <trkpt lat="47.28271" lon="-2.01598">
        <ele>50</ele>
        <time>2021-06-05T12:29:15.000Z</time>
      </trkpt>
      <trkpt lat="47.28257" lon="-2.01594">
        <ele>50</ele>
        <time>2021-06-05T12:29:17.000Z</time>
      </trkpt>
      <trkpt lat="47.28243" lon="-2.01589">
        <ele>50</ele>
        <time>2021-06-05T12:29:19.000Z</time>
      </trkpt>
      <trkpt lat="47.28229" lon="-2.01585">
        <ele>50</ele>
        <time>2021-06-05T12:29:21.000Z</time>
      </trkpt>
      <trkpt lat="47.28215" lon="-2.01581">
        <ele>50</ele>
        <time>2021-06-05T12:29:23.000Z</time>
      </trkpt>
      <trkpt lat="47.28201" lon="-2.01577">
        <ele>49</ele>
        <time>2021-06-05T12:29:25.000Z</time>
      </trkpt>
      <trkpt lat="47.28188" lon="-2.01573">
        <ele>49</ele>
        <time>2021-06-05T12:29:27.000Z</time>
      </trkpt>
      <trkpt lat="47.28174" lon="-2.01568">
        <ele>49</ele>
        <time>2021-06-05T12:29:29.000Z</time>
      </trkpt>
      <trkpt lat="47.28161" lon="-2.01564">
        <ele>48</ele>
        <time>2021-06-05T12:29:31.000Z</time>
      </trkpt>
      <trkpt lat="47.28148" lon="-2.0156">
        <ele>48</ele>
        <time>2021-06-05T12:29:33.000Z</time>
      </trkpt>
      <trkpt lat="47.28134" lon="-2.01556">
        <ele>48</ele>
        <time>2021-06-05T12:29:35.000Z</time>
      </trkpt>
      <trkpt lat="47.28122" lon="-2.01553">
        <ele>48</ele>
        <time>2021-06-05T12:29:37.000Z</time>
      </trkpt>
      <trkpt lat="47.28109" lon="-2.01548">
        <ele>48</ele>
        <time>2021-06-05T12:29:39.000Z</time>
      </trkpt>
      <trkpt lat="47.28096" lon="-2.01543">
        <ele>48</ele>
        <time>2021-06-05T12:29:41.000Z</time>
      </trkpt>
      <trkpt lat="47.28084" lon="-2.01539">
        <ele>49</ele>
        <time>2021-06-05T12:29:43.000Z</time>
      </trkpt>
      <trkpt lat="47.28075" lon="-2.01535">
        <ele>49</ele>
        <time>2021-06-05T12:29:45.000Z</time>
      </trkpt>
      <trkpt lat="47.28067" lon="-2.01524">
        <ele>49</ele>
        <time>2021-06-05T12:29:48.000Z</time>
      </trkpt>
      <trkpt lat="47.28058" lon="-2.0152">
        <ele>48</ele>
        <time>2021-06-05T12:29:57.000Z</time>
      </trkpt>
      <trkpt lat="47.28045" lon="-2.01516">
        <ele>48</ele>
        <time>2021-06-05T12:30:00.000Z</time>
      </trkpt>
      <trkpt lat="47.28034" lon="-2.01513">
        <ele>49</ele>
        <time>2021-06-05T12:30:02.000Z</time>
      </trkpt>
      <trkpt lat="47.28021" lon="-2.0151">
        <ele>49</ele>
        <time>2021-06-05T12:30:04.000Z</time>
      </trkpt>
      <trkpt lat="47.28007" lon="-2.01506">
        <ele>49</ele>
        <time>2021-06-05T12:30:06.000Z</time>
      </trkpt>
      <trkpt lat="47.27993" lon="-2.01502">
        <ele>49</ele>
        <time>2021-06-05T12:30:08.000Z</time>
      </trkpt>
      <trkpt lat="47.27979" lon="-2.01499">
        <ele>49</ele>
        <time>2021-06-05T12:30:10.000Z</time>
      </trkpt>
      <trkpt lat="47.27967" lon="-2.01495">
        <ele>49</ele>
        <time>2021-06-05T12:30:12.000Z</time>
      </trkpt>
      <trkpt lat="47.27954" lon="-2.0149">
        <ele>49</ele>
        <time>2021-06-05T12:30:14.000Z</time>
      </trkpt>
      <trkpt lat="47.27942" lon="-2.01486">
        <ele>49</ele>
        <time>2021-06-05T12:30:16.000Z</time>
      </trkpt>
      <trkpt lat="47.27933" lon="-2.01475">
        <ele>49</ele>
        <time>2021-06-05T12:30:18.000Z</time>
      </trkpt>
      <trkpt lat="47.27932" lon="-2.01456">
        <ele>49</ele>
        <time>2021-06-05T12:30:20.000Z</time>
      </trkpt>
      <trkpt lat="47.27931" lon="-2.01437">
        <ele>48</ele>
        <time>2021-06-05T12:30:22.000Z</time>
      </trkpt>
      <trkpt lat="47.2793" lon="-2.01416">
        <ele>49</ele>
        <time>2021-06-05T12:30:24.000Z</time>
      </trkpt>
      <trkpt lat="47.27927" lon="-2.01395">
        <ele>49</ele>
        <time>2021-06-05T12:30:26.000Z</time>
      </trkpt>
      <trkpt lat="47.27923" lon="-2.01375">
        <ele>49</ele>
        <time>2021-06-05T12:30:28.000Z</time>
      </trkpt>
      <trkpt lat="47.27918" lon="-2.01356">
        <ele>49</ele>
        <time>2021-06-05T12:30:30.000Z</time>
      </trkpt>
      <trkpt lat="47.27913" lon="-2.01336">
        <ele>49</ele>
        <time>2021-06-05T12:30:32.000Z</time>
      </trkpt>
      <trkpt lat="47.27907" lon="-2.01318">
        <ele>49</ele>
        <time>2021-06-05T12:30:34.000Z</time>
      </trkpt>
      <trkpt lat="47.27901" lon="-2.013">
        <ele>49</ele>
        <time>2021-06-05T12:30:36.000Z</time>
      </trkpt>
      <trkpt lat="47.27895" lon="-2.01283">
        <ele>49</ele>
        <time>2021-06-05T12:30:38.000Z</time>
      </trkpt>
      <trkpt lat="47.27888" lon="-2.01266">
        <ele>49</ele>
        <time>2021-06-05T12:30:40.000Z</time>
      </trkpt>
      <trkpt lat="47.27882" lon="-2.0125">
        <ele>50</ele>
        <time>2021-06-05T12:30:42.000Z</time>
      </trkpt>
      <trkpt lat="47.27877" lon="-2.01232">
        <ele>50</ele>
        <time>2021-06-05T12:30:44.000Z</time>
      </trkpt>
      <trkpt lat="47.27872" lon="-2.01216">
        <ele>50</ele>
        <time>2021-06-05T12:30:46.000Z</time>
      </trkpt>
      <trkpt lat="47.27866" lon="-2.01199">
        <ele>51</ele>
        <time>2021-06-05T12:30:48.000Z</time>
      </trkpt>
      <trkpt lat="47.27857" lon="-2.01184">
        <ele>51</ele>
        <time>2021-06-05T12:30:50.000Z</time>
      </trkpt>
      <trkpt lat="47.2785" lon="-2.01168">
        <ele>52</ele>
        <time>2021-06-05T12:30:52.000Z</time>
      </trkpt>
      <trkpt lat="47.27842" lon="-2.01153">
        <ele>52</ele>
        <time>2021-06-05T12:30:54.000Z</time>
      </trkpt>
      <trkpt lat="47.27835" lon="-2.01138">
        <ele>52</ele>
        <time>2021-06-05T12:30:56.000Z</time>
      </trkpt>
      <trkpt lat="47.27828" lon="-2.01124">
        <ele>53</ele>
        <time>2021-06-05T12:30:58.000Z</time>
      </trkpt>
      <trkpt lat="47.27821" lon="-2.01109">
        <ele>53</ele>
        <time>2021-06-05T12:31:00.000Z</time>
      </trkpt>
      <trkpt lat="47.27813" lon="-2.01093">
        <ele>53</ele>
        <time>2021-06-05T12:31:02.000Z</time>
      </trkpt>
      <trkpt lat="47.27806" lon="-2.01078">
        <ele>53</ele>
        <time>2021-06-05T12:31:04.000Z</time>
      </trkpt>
      <trkpt lat="47.27799" lon="-2.01064">
        <ele>53</ele>
        <time>2021-06-05T12:31:06.000Z</time>
      </trkpt>
      <trkpt lat="47.27792" lon="-2.0105">
        <ele>53</ele>
        <time>2021-06-05T12:31:08.000Z</time>
      </trkpt>
      <trkpt lat="47.27785" lon="-2.01036">
        <ele>54</ele>
        <time>2021-06-05T12:31:10.000Z</time>
      </trkpt>
      <trkpt lat="47.27777" lon="-2.01022">
        <ele>54</ele>
        <time>2021-06-05T12:31:12.000Z</time>
      </trkpt>
      <trkpt lat="47.2777" lon="-2.01007">
        <ele>54</ele>
        <time>2021-06-05T12:31:14.000Z</time>
      </trkpt>
      <trkpt lat="47.27763" lon="-2.00992">
        <ele>54</ele>
        <time>2021-06-05T12:31:16.000Z</time>
      </trkpt>
      <trkpt lat="47.27756" lon="-2.00978">
        <ele>54</ele>
        <time>2021-06-05T12:31:18.000Z</time>
      </trkpt>
      <trkpt lat="47.27753" lon="-2.00962">
        <ele>53</ele>
        <time>2021-06-05T12:31:20.000Z</time>
      </trkpt>
      <trkpt lat="47.27758" lon="-2.00944">
        <ele>53</ele>
        <time>2021-06-05T12:31:22.000Z</time>
      </trkpt>
      <trkpt lat="47.27766" lon="-2.00928">
        <ele>53</ele>
        <time>2021-06-05T12:31:24.000Z</time>
      </trkpt>
      <trkpt lat="47.27774" lon="-2.00912">
        <ele>53</ele>
        <time>2021-06-05T12:31:26.000Z</time>
      </trkpt>
      <trkpt lat="47.27782" lon="-2.00897">
        <ele>53</ele>
        <time>2021-06-05T12:31:28.000Z</time>
      </trkpt>
      <trkpt lat="47.2779" lon="-2.00881">
        <ele>53</ele>
        <time>2021-06-05T12:31:30.000Z</time>
      </trkpt>
      <trkpt lat="47.27798" lon="-2.00866">
        <ele>53</ele>
        <time>2021-06-05T12:31:32.000Z</time>
      </trkpt>
      <trkpt lat="47.27806" lon="-2.00851">
        <ele>53</ele>
        <time>2021-06-05T12:31:34.000Z</time>
      </trkpt>
      <trkpt lat="47.27815" lon="-2.00835">
        <ele>53</ele>
        <time>2021-06-05T12:31:36.000Z</time>
      </trkpt>
      <trkpt lat="47.27824" lon="-2.0082">
        <ele>52</ele>
        <time>2021-06-05T12:31:38.000Z</time>
      </trkpt>
      <trkpt lat="47.27835" lon="-2.00807">
        <ele>52</ele>
        <time>2021-06-05T12:31:40.000Z</time>
      </trkpt>
      <trkpt lat="47.27845" lon="-2.00795">
        <ele>52</ele>
        <time>2021-06-05T12:31:42.000Z</time>
      </trkpt>
      <trkpt lat="47.27857" lon="-2.00783">
        <ele>52</ele>
        <time>2021-06-05T12:31:44.000Z</time>
      </trkpt>
      <trkpt lat="47.27868" lon="-2.00771">
        <ele>51</ele>
        <time>2021-06-05T12:31:46.000Z</time>
      </trkpt>
      <trkpt lat="47.27878" lon="-2.0076">
        <ele>51</ele>
        <time>2021-06-05T12:31:48.000Z</time>
      </trkpt>
      <trkpt lat="47.27889" lon="-2.00748">
        <ele>51</ele>
        <time>2021-06-05T12:31:50.000Z</time>
      </trkpt>
      <trkpt lat="47.27901" lon="-2.00736">
        <ele>51</ele>
        <time>2021-06-05T12:31:52.000Z</time>
      </trkpt>
      <trkpt lat="47.27912" lon="-2.00724">
        <ele>50</ele>
        <time>2021-06-05T12:31:54.000Z</time>
      </trkpt>
      <trkpt lat="47.27923" lon="-2.00713">
        <ele>50</ele>
        <time>2021-06-05T12:31:56.000Z</time>
      </trkpt>
      <trkpt lat="47.27933" lon="-2.00701">
        <ele>50</ele>
        <time>2021-06-05T12:31:58.000Z</time>
      </trkpt>
      <trkpt lat="47.27944" lon="-2.00689">
        <ele>50</ele>
        <time>2021-06-05T12:32:00.000Z</time>
      </trkpt>
      <trkpt lat="47.27951" lon="-2.00674">
        <ele>50</ele>
        <time>2021-06-05T12:32:02.000Z</time>
      </trkpt>
      <trkpt lat="47.27948" lon="-2.00655">
        <ele>50</ele>
        <time>2021-06-05T12:32:04.000Z</time>
      </trkpt>
      <trkpt lat="47.27944" lon="-2.00636">
        <ele>50</ele>
        <time>2021-06-05T12:32:06.000Z</time>
      </trkpt>
      <trkpt lat="47.2794" lon="-2.00617">
        <ele>49</ele>
        <time>2021-06-05T12:32:08.000Z</time>
      </trkpt>
      <trkpt lat="47.27933" lon="-2.00599">
        <ele>49</ele>
        <time>2021-06-05T12:32:10.000Z</time>
      </trkpt>
      <trkpt lat="47.27923" lon="-2.00586">
        <ele>49</ele>
        <time>2021-06-05T12:32:12.000Z</time>
      </trkpt>
      <trkpt lat="47.2791" lon="-2.00576">
        <ele>49</ele>
        <time>2021-06-05T12:32:14.000Z</time>
      </trkpt>
      <trkpt lat="47.27897" lon="-2.00566">
        <ele>49</ele>
        <time>2021-06-05T12:32:16.000Z</time>
      </trkpt>
      <trkpt lat="47.27885" lon="-2.00557">
        <ele>49</ele>
        <time>2021-06-05T12:32:18.000Z</time>
      </trkpt>
      <trkpt lat="47.27873" lon="-2.00546">
        <ele>49</ele>
        <time>2021-06-05T12:32:20.000Z</time>
      </trkpt>
      <trkpt lat="47.27861" lon="-2.00534">
        <ele>49</ele>
        <time>2021-06-05T12:32:22.000Z</time>
      </trkpt>
      <trkpt lat="47.2785" lon="-2.00522">
        <ele>49</ele>
        <time>2021-06-05T12:32:24.000Z</time>
      </trkpt>
      <trkpt lat="47.27839" lon="-2.00511">
        <ele>49</ele>
        <time>2021-06-05T12:32:26.000Z</time>
      </trkpt>
      <trkpt lat="47.27827" lon="-2.00499">
        <ele>49</ele>
        <time>2021-06-05T12:32:28.000Z</time>
      </trkpt>
      <trkpt lat="47.27815" lon="-2.00487">
        <ele>49</ele>
        <time>2021-06-05T12:32:30.000Z</time>
      </trkpt>
      <trkpt lat="47.27803" lon="-2.00477">
        <ele>49</ele>
        <time>2021-06-05T12:32:32.000Z</time>
      </trkpt>
      <trkpt lat="47.2779" lon="-2.00468">
        <ele>49</ele>
        <time>2021-06-05T12:32:34.000Z</time>
      </trkpt>
      <trkpt lat="47.27777" lon="-2.0046">
        <ele>48</ele>
        <time>2021-06-05T12:32:36.000Z</time>
      </trkpt>
      <trkpt lat="47.27764" lon="-2.00454">
        <ele>48</ele>
        <time>2021-06-05T12:32:38.000Z</time>
      </trkpt>
      <trkpt lat="47.2775" lon="-2.00449">
        <ele>48</ele>
        <time>2021-06-05T12:32:40.000Z</time>
      </trkpt>
      <trkpt lat="47.27736" lon="-2.00447">
        <ele>48</ele>
        <time>2021-06-05T12:32:42.000Z</time>
      </trkpt>
      <trkpt lat="47.27722" lon="-2.00446">
        <ele>49</ele>
        <time>2021-06-05T12:32:44.000Z</time>
      </trkpt>
      <trkpt lat="47.27708" lon="-2.00446">
        <ele>49</ele>
        <time>2021-06-05T12:32:46.000Z</time>
      </trkpt>
      <trkpt lat="47.27695" lon="-2.00446">
        <ele>49</ele>
        <time>2021-06-05T12:32:48.000Z</time>
      </trkpt>
      <trkpt lat="47.27683" lon="-2.00442">
        <ele>49</ele>
        <time>2021-06-05T12:32:50.000Z</time>
      </trkpt>
      <trkpt lat="47.27673" lon="-2.00431">
        <ele>49</ele>
        <time>2021-06-05T12:32:52.000Z</time>
      </trkpt>
      <trkpt lat="47.2767" lon="-2.00412">
        <ele>49</ele>
        <time>2021-06-05T12:32:54.000Z</time>
      </trkpt>
      <trkpt lat="47.27669" lon="-2.00391">
        <ele>49</ele>
        <time>2021-06-05T12:32:56.000Z</time>
      </trkpt>
      <trkpt lat="47.2767" lon="-2.00371">
        <ele>50</ele>
        <time>2021-06-05T12:32:58.000Z</time>
      </trkpt>
      <trkpt lat="47.27671" lon="-2.00351">
        <ele>50</ele>
        <time>2021-06-05T12:33:00.000Z</time>
      </trkpt>
      <trkpt lat="47.27672" lon="-2.00331">
        <ele>50</ele>
        <time>2021-06-05T12:33:02.000Z</time>
      </trkpt>
      <trkpt lat="47.27674" lon="-2.00311">
        <ele>50</ele>
        <time>2021-06-05T12:33:04.000Z</time>
      </trkpt>
      <trkpt lat="47.27675" lon="-2.00291">
        <ele>50</ele>
        <time>2021-06-05T12:33:06.000Z</time>
      </trkpt>
      <trkpt lat="47.27676" lon="-2.00271">
        <ele>50</ele>
        <time>2021-06-05T12:33:08.000Z</time>
      </trkpt>
      <trkpt lat="47.27678" lon="-2.00252">
        <ele>50</ele>
        <time>2021-06-05T12:33:10.000Z</time>
      </trkpt>
      <trkpt lat="47.27678" lon="-2.00232">
        <ele>50</ele>
        <time>2021-06-05T12:33:12.000Z</time>
      </trkpt>
      <trkpt lat="47.27677" lon="-2.00213">
        <ele>50</ele>
        <time>2021-06-05T12:33:14.000Z</time>
      </trkpt>
      <trkpt lat="47.27672" lon="-2.00194">
        <ele>50</ele>
        <time>2021-06-05T12:33:16.000Z</time>
      </trkpt>
      <trkpt lat="47.27667" lon="-2.00176">
        <ele>50</ele>
        <time>2021-06-05T12:33:18.000Z</time>
      </trkpt>
      <trkpt lat="47.27662" lon="-2.00158">
        <ele>50</ele>
        <time>2021-06-05T12:33:20.000Z</time>
      </trkpt>
      <trkpt lat="47.27657" lon="-2.00139">
        <ele>50</ele>
        <time>2021-06-05T12:33:22.000Z</time>
      </trkpt>
      <trkpt lat="47.27652" lon="-2.00121">
        <ele>50</ele>
        <time>2021-06-05T12:33:24.000Z</time>
      </trkpt>
      <trkpt lat="47.27646" lon="-2.00102">
        <ele>50</ele>
        <time>2021-06-05T12:33:26.000Z</time>
      </trkpt>
      <trkpt lat="47.27641" lon="-2.00084">
        <ele>50</ele>
        <time>2021-06-05T12:33:28.000Z</time>
      </trkpt>
      <trkpt lat="47.27634" lon="-2.00067">
        <ele>49</ele>
        <time>2021-06-05T12:33:30.000Z</time>
      </trkpt>
      <trkpt lat="47.27625" lon="-2.00051">
        <ele>49</ele>
        <time>2021-06-05T12:33:32.000Z</time>
      </trkpt>
      <trkpt lat="47.27615" lon="-2.00037">
        <ele>49</ele>
        <time>2021-06-05T12:33:34.000Z</time>
      </trkpt>
      <trkpt lat="47.27607" lon="-2.00023">
        <ele>49</ele>
        <time>2021-06-05T12:33:36.000Z</time>
      </trkpt>
      <trkpt lat="47.27598" lon="-2.00008">
        <ele>49</ele>
        <time>2021-06-05T12:33:38.000Z</time>
      </trkpt>
      <trkpt lat="47.2759" lon="-1.99991">
        <ele>49</ele>
        <time>2021-06-05T12:33:40.000Z</time>
      </trkpt>
      <trkpt lat="47.27582" lon="-1.99974">
        <ele>49</ele>
        <time>2021-06-05T12:33:42.000Z</time>
      </trkpt>
      <trkpt lat="47.27576" lon="-1.99956">
        <ele>49</ele>
        <time>2021-06-05T12:33:44.000Z</time>
      </trkpt>
      <trkpt lat="47.27571" lon="-1.99938">
        <ele>48</ele>
        <time>2021-06-05T12:33:46.000Z</time>
      </trkpt>
      <trkpt lat="47.27568" lon="-1.99919">
        <ele>49</ele>
        <time>2021-06-05T12:33:48.000Z</time>
      </trkpt>
      <trkpt lat="47.27566" lon="-1.99899">
        <ele>48</ele>
        <time>2021-06-05T12:33:50.000Z</time>
      </trkpt>
      <trkpt lat="47.27566" lon="-1.9988">
        <ele>48</ele>
        <time>2021-06-05T12:33:52.000Z</time>
      </trkpt>
      <trkpt lat="47.27568" lon="-1.9986">
        <ele>48</ele>
        <time>2021-06-05T12:33:54.000Z</time>
      </trkpt>
      <trkpt lat="47.2757" lon="-1.99841">
        <ele>49</ele>
        <time>2021-06-05T12:33:56.000Z</time>
      </trkpt>
      <trkpt lat="47.27572" lon="-1.99821">
        <ele>49</ele>
        <time>2021-06-05T12:33:58.000Z</time>
      </trkpt>
      <trkpt lat="47.27573" lon="-1.99801">
        <ele>49</ele>
        <time>2021-06-05T12:34:00.000Z</time>
      </trkpt>
      <trkpt lat="47.27574" lon="-1.9978">
        <ele>48</ele>
        <time>2021-06-05T12:34:02.000Z</time>
      </trkpt>
      <trkpt lat="47.27572" lon="-1.99759">
        <ele>48</ele>
        <time>2021-06-05T12:34:04.000Z</time>
      </trkpt>
      <trkpt lat="47.27571" lon="-1.99739">
        <ele>48</ele>
        <time>2021-06-05T12:34:06.000Z</time>
      </trkpt>
      <trkpt lat="47.27569" lon="-1.99719">
        <ele>48</ele>
        <time>2021-06-05T12:34:08.000Z</time>
      </trkpt>
      <trkpt lat="47.27568" lon="-1.99699">
        <ele>47</ele>
        <time>2021-06-05T12:34:10.000Z</time>
      </trkpt>
      <trkpt lat="47.27567" lon="-1.9968">
        <ele>47</ele>
        <time>2021-06-05T12:34:12.000Z</time>
      </trkpt>
      <trkpt lat="47.27564" lon="-1.99661">
        <ele>47</ele>
        <time>2021-06-05T12:34:14.000Z</time>
      </trkpt>
      <trkpt lat="47.27559" lon="-1.99642">
        <ele>47</ele>
        <time>2021-06-05T12:34:16.000Z</time>
      </trkpt>
      <trkpt lat="47.27554" lon="-1.99623">
        <ele>47</ele>
        <time>2021-06-05T12:34:18.000Z</time>
      </trkpt>
      <trkpt lat="47.27549" lon="-1.99604">
        <ele>47</ele>
        <time>2021-06-05T12:34:20.000Z</time>
      </trkpt>
      <trkpt lat="47.27545" lon="-1.99585">
        <ele>47</ele>
        <time>2021-06-05T12:34:22.000Z</time>
      </trkpt>
      <trkpt lat="47.27542" lon="-1.99566">
        <ele>47</ele>
        <time>2021-06-05T12:34:24.000Z</time>
      </trkpt>
      <trkpt lat="47.27539" lon="-1.99547">
        <ele>46</ele>
        <time>2021-06-05T12:34:26.000Z</time>
      </trkpt>
      <trkpt lat="47.27535" lon="-1.99528">
        <ele>46</ele>
        <time>2021-06-05T12:34:28.000Z</time>
      </trkpt>
      <trkpt lat="47.2753" lon="-1.99509">
        <ele>46</ele>
        <time>2021-06-05T12:34:30.000Z</time>
      </trkpt>
      <trkpt lat="47.27523" lon="-1.99491">
        <ele>46</ele>
        <time>2021-06-05T12:34:32.000Z</time>
      </trkpt>
      <trkpt lat="47.27517" lon="-1.99474">
        <ele>46</ele>
        <time>2021-06-05T12:34:34.000Z</time>
      </trkpt>
      <trkpt lat="47.27511" lon="-1.99457">
        <ele>46</ele>
        <time>2021-06-05T12:34:36.000Z</time>
      </trkpt>
      <trkpt lat="47.27505" lon="-1.9944">
        <ele>46</ele>
        <time>2021-06-05T12:34:38.000Z</time>
      </trkpt>
      <trkpt lat="47.27501" lon="-1.99422">
        <ele>47</ele>
        <time>2021-06-05T12:34:40.000Z</time>
      </trkpt>
      <trkpt lat="47.27501" lon="-1.99402">
        <ele>46</ele>
        <time>2021-06-05T12:34:42.000Z</time>
      </trkpt>
      <trkpt lat="47.27505" lon="-1.99382">
        <ele>46</ele>
        <time>2021-06-05T12:34:44.000Z</time>
      </trkpt>
      <trkpt lat="47.2751" lon="-1.99363">
        <ele>47</ele>
        <time>2021-06-05T12:34:46.000Z</time>
      </trkpt>
      <trkpt lat="47.27516" lon="-1.99346">
        <ele>47</ele>
        <time>2021-06-05T12:34:48.000Z</time>
      </trkpt>
      <trkpt lat="47.27521" lon="-1.99328">
        <ele>47</ele>
        <time>2021-06-05T12:34:50.000Z</time>
      </trkpt>
      <trkpt lat="47.27525" lon="-1.99308">
        <ele>47</ele>
        <time>2021-06-05T12:34:52.000Z</time>
      </trkpt>
      <trkpt lat="47.27526" lon="-1.99289">
        <ele>47</ele>
        <time>2021-06-05T12:34:54.000Z</time>
      </trkpt>
      <trkpt lat="47.27526" lon="-1.99269">
        <ele>48</ele>
        <time>2021-06-05T12:34:56.000Z</time>
      </trkpt>
      <trkpt lat="47.27528" lon="-1.99249">
        <ele>47</ele>
        <time>2021-06-05T12:34:58.000Z</time>
      </trkpt>
      <trkpt lat="47.27532" lon="-1.9923">
        <ele>47</ele>
        <time>2021-06-05T12:35:00.000Z</time>
      </trkpt>
      <trkpt lat="47.27541" lon="-1.99212">
        <ele>46</ele>
        <time>2021-06-05T12:35:02.000Z</time>
      </trkpt>
      <trkpt lat="47.2755" lon="-1.99194">
        <ele>47</ele>
        <time>2021-06-05T12:35:04.000Z</time>
      </trkpt>
      <trkpt lat="47.27558" lon="-1.99178">
        <ele>47</ele>
        <time>2021-06-05T12:35:06.000Z</time>
      </trkpt>
      <trkpt lat="47.27566" lon="-1.99162">
        <ele>47</ele>
        <time>2021-06-05T12:35:08.000Z</time>
      </trkpt>
      <trkpt lat="47.27574" lon="-1.99145">
        <ele>46</ele>
        <time>2021-06-05T12:35:10.000Z</time>
      </trkpt>
      <trkpt lat="47.27581" lon="-1.99128">
        <ele>46</ele>
        <time>2021-06-05T12:35:12.000Z</time>
      </trkpt>
      <trkpt lat="47.27587" lon="-1.9911">
        <ele>47</ele>
        <time>2021-06-05T12:35:14.000Z</time>
      </trkpt>
      <trkpt lat="47.27592" lon="-1.99091">
        <ele>47</ele>
        <time>2021-06-05T12:35:16.000Z</time>
      </trkpt>
      <trkpt lat="47.27597" lon="-1.99073">
        <ele>48</ele>
        <time>2021-06-05T12:35:18.000Z</time>
      </trkpt>
      <trkpt lat="47.276" lon="-1.99053">
        <ele>48</ele>
        <time>2021-06-05T12:35:20.000Z</time>
      </trkpt>
      <trkpt lat="47.27603" lon="-1.99032">
        <ele>48</ele>
        <time>2021-06-05T12:35:22.000Z</time>
      </trkpt>
      <trkpt lat="47.27604" lon="-1.99011">
        <ele>48</ele>
        <time>2021-06-05T12:35:24.000Z</time>
      </trkpt>
      <trkpt lat="47.27603" lon="-1.98991">
        <ele>48</ele>
        <time>2021-06-05T12:35:26.000Z</time>
      </trkpt>
      <trkpt lat="47.27601" lon="-1.9897">
        <ele>47</ele>
        <time>2021-06-05T12:35:28.000Z</time>
      </trkpt>
      <trkpt lat="47.27599" lon="-1.9895">
        <ele>47</ele>
        <time>2021-06-05T12:35:30.000Z</time>
      </trkpt>
      <trkpt lat="47.27596" lon="-1.9893">
        <ele>47</ele>
        <time>2021-06-05T12:35:32.000Z</time>
      </trkpt>
      <trkpt lat="47.27593" lon="-1.98909">
        <ele>48</ele>
        <time>2021-06-05T12:35:34.000Z</time>
      </trkpt>
      <trkpt lat="47.27589" lon="-1.9889">
        <ele>48</ele>
        <time>2021-06-05T12:35:36.000Z</time>
      </trkpt>
      <trkpt lat="47.27584" lon="-1.98871">
        <ele>49</ele>
        <time>2021-06-05T12:35:38.000Z</time>
      </trkpt>
      <trkpt lat="47.27579" lon="-1.98851">
        <ele>49</ele>
        <time>2021-06-05T12:35:40.000Z</time>
      </trkpt>
      <trkpt lat="47.27574" lon="-1.98832">
        <ele>49</ele>
        <time>2021-06-05T12:35:42.000Z</time>
      </trkpt>
      <trkpt lat="47.27569" lon="-1.98813">
        <ele>48</ele>
        <time>2021-06-05T12:35:44.000Z</time>
      </trkpt>
      <trkpt lat="47.27564" lon="-1.98794">
        <ele>49</ele>
        <time>2021-06-05T12:35:46.000Z</time>
      </trkpt>
      <trkpt lat="47.27559" lon="-1.98775">
        <ele>49</ele>
        <time>2021-06-05T12:35:48.000Z</time>
      </trkpt>
      <trkpt lat="47.27554" lon="-1.98756">
        <ele>49</ele>
        <time>2021-06-05T12:35:50.000Z</time>
      </trkpt>
      <trkpt lat="47.27549" lon="-1.98737">
        <ele>49</ele>
        <time>2021-06-05T12:35:52.000Z</time>
      </trkpt>
      <trkpt lat="47.27544" lon="-1.98718">
        <ele>49</ele>
        <time>2021-06-05T12:35:54.000Z</time>
      </trkpt>
      <trkpt lat="47.2754" lon="-1.98698">
        <ele>49</ele>
        <time>2021-06-05T12:35:56.000Z</time>
      </trkpt>
      <trkpt lat="47.27535" lon="-1.98679">
        <ele>50</ele>
        <time>2021-06-05T12:35:58.000Z</time>
      </trkpt>
      <trkpt lat="47.2753" lon="-1.98659">
        <ele>50</ele>
        <time>2021-06-05T12:36:00.000Z</time>
      </trkpt>
      <trkpt lat="47.27525" lon="-1.9864">
        <ele>50</ele>
        <time>2021-06-05T12:36:02.000Z</time>
      </trkpt>
      <trkpt lat="47.27518" lon="-1.98622">
        <ele>50</ele>
        <time>2021-06-05T12:36:04.000Z</time>
      </trkpt>
      <trkpt lat="47.2751" lon="-1.98605">
        <ele>50</ele>
        <time>2021-06-05T12:36:06.000Z</time>
      </trkpt>
      <trkpt lat="47.27501" lon="-1.98589">
        <ele>50</ele>
        <time>2021-06-05T12:36:08.000Z</time>
      </trkpt>
      <trkpt lat="47.27492" lon="-1.98574">
        <ele>50</ele>
        <time>2021-06-05T12:36:10.000Z</time>
      </trkpt>
      <trkpt lat="47.27481" lon="-1.98561">
        <ele>50</ele>
        <time>2021-06-05T12:36:12.000Z</time>
      </trkpt>
      <trkpt lat="47.2747" lon="-1.98548">
        <ele>50</ele>
        <time>2021-06-05T12:36:14.000Z</time>
      </trkpt>
      <trkpt lat="47.27459" lon="-1.98535">
        <ele>50</ele>
        <time>2021-06-05T12:36:16.000Z</time>
      </trkpt>
      <trkpt lat="47.27448" lon="-1.98523">
        <ele>50</ele>
        <time>2021-06-05T12:36:18.000Z</time>
      </trkpt>
      <trkpt lat="47.27437" lon="-1.98513">
        <ele>51</ele>
        <time>2021-06-05T12:36:20.000Z</time>
      </trkpt>
      <trkpt lat="47.27425" lon="-1.98501">
        <ele>51</ele>
        <time>2021-06-05T12:36:22.000Z</time>
      </trkpt>
      <trkpt lat="47.27414" lon="-1.98489">
        <ele>51</ele>
        <time>2021-06-05T12:36:24.000Z</time>
      </trkpt>
      <trkpt lat="47.27408" lon="-1.98471">
        <ele>51</ele>
        <time>2021-06-05T12:36:26.000Z</time>
      </trkpt>
      <trkpt lat="47.27409" lon="-1.9845">
        <ele>51</ele>
        <time>2021-06-05T12:36:28.000Z</time>
      </trkpt>
      <trkpt lat="47.27412" lon="-1.98429">
        <ele>51</ele>
        <time>2021-06-05T12:36:30.000Z</time>
      </trkpt>
      <trkpt lat="47.27415" lon="-1.98409">
        <ele>51</ele>
        <time>2021-06-05T12:36:32.000Z</time>
      </trkpt>
      <trkpt lat="47.27417" lon="-1.98388">
        <ele>52</ele>
        <time>2021-06-05T12:36:34.000Z</time>
      </trkpt>
      <trkpt lat="47.27418" lon="-1.98367">
        <ele>52</ele>
        <time>2021-06-05T12:36:36.000Z</time>
      </trkpt>
      <trkpt lat="47.27421" lon="-1.98347">
        <ele>52</ele>
        <time>2021-06-05T12:36:38.000Z</time>
      </trkpt>
      <trkpt lat="47.27424" lon="-1.98326">
        <ele>52</ele>
        <time>2021-06-05T12:36:40.000Z</time>
      </trkpt>
      <trkpt lat="47.27427" lon="-1.98306">
        <ele>52</ele>
        <time>2021-06-05T12:36:42.000Z</time>
      </trkpt>
      <trkpt lat="47.27431" lon="-1.98287">
        <ele>52</ele>
        <time>2021-06-05T12:36:44.000Z</time>
      </trkpt>
      <trkpt lat="47.27434" lon="-1.98267">
        <ele>51</ele>
        <time>2021-06-05T12:36:46.000Z</time>
      </trkpt>
      <trkpt lat="47.27435" lon="-1.98249">
        <ele>52</ele>
        <time>2021-06-05T12:36:48.000Z</time>
      </trkpt>
      <trkpt lat="47.27437" lon="-1.98232">
        <ele>51</ele>
        <time>2021-06-05T12:36:50.000Z</time>
      </trkpt>
      <trkpt lat="47.2744" lon="-1.98215">
        <ele>52</ele>
        <time>2021-06-05T12:36:52.000Z</time>
      </trkpt>
      <trkpt lat="47.27442" lon="-1.98198">
        <ele>51</ele>
        <time>2021-06-05T12:36:54.000Z</time>
      </trkpt>
      <trkpt lat="47.27444" lon="-1.98178">
        <ele>51</ele>
        <time>2021-06-05T12:36:56.000Z</time>
      </trkpt>
      <trkpt lat="47.27445" lon="-1.98157">
        <ele>51</ele>
        <time>2021-06-05T12:36:58.000Z</time>
      </trkpt>
      <trkpt lat="47.27446" lon="-1.98137">
        <ele>51</ele>
        <time>2021-06-05T12:37:00.000Z</time>
      </trkpt>
      <trkpt lat="47.27447" lon="-1.98116">
        <ele>51</ele>
        <time>2021-06-05T12:37:02.000Z</time>
      </trkpt>
      <trkpt lat="47.27447" lon="-1.98095">
        <ele>50</ele>
        <time>2021-06-05T12:37:04.000Z</time>
      </trkpt>
      <trkpt lat="47.27447" lon="-1.98072">
        <ele>50</ele>
        <time>2021-06-05T12:37:06.000Z</time>
      </trkpt>
      <trkpt lat="47.27447" lon="-1.98052">
        <ele>50</ele>
        <time>2021-06-05T12:37:08.000Z</time>
      </trkpt>
      <trkpt lat="47.27446" lon="-1.98031">
        <ele>49</ele>
        <time>2021-06-05T12:37:10.000Z</time>
      </trkpt>
      <trkpt lat="47.27444" lon="-1.98011">
        <ele>49</ele>
        <time>2021-06-05T12:37:12.000Z</time>
      </trkpt>
      <trkpt lat="47.27441" lon="-1.9799">
        <ele>50</ele>
        <time>2021-06-05T12:37:14.000Z</time>
      </trkpt>
      <trkpt lat="47.27439" lon="-1.97969">
        <ele>50</ele>
        <time>2021-06-05T12:37:16.000Z</time>
      </trkpt>
      <trkpt lat="47.27437" lon="-1.97949">
        <ele>50</ele>
        <time>2021-06-05T12:37:18.000Z</time>
      </trkpt>
      <trkpt lat="47.27434" lon="-1.9793">
        <ele>51</ele>
        <time>2021-06-05T12:37:20.000Z</time>
      </trkpt>
      <trkpt lat="47.27429" lon="-1.9791">
        <ele>51</ele>
        <time>2021-06-05T12:37:22.000Z</time>
      </trkpt>
      <trkpt lat="47.27424" lon="-1.97891">
        <ele>51</ele>
        <time>2021-06-05T12:37:24.000Z</time>
      </trkpt>
      <trkpt lat="47.27419" lon="-1.97871">
        <ele>52</ele>
        <time>2021-06-05T12:37:26.000Z</time>
      </trkpt>
      <trkpt lat="47.27414" lon="-1.97852">
        <ele>52</ele>
        <time>2021-06-05T12:37:28.000Z</time>
      </trkpt>
      <trkpt lat="47.27408" lon="-1.97832">
        <ele>52</ele>
        <time>2021-06-05T12:37:30.000Z</time>
      </trkpt>
      <trkpt lat="47.27404" lon="-1.97813">
        <ele>52</ele>
        <time>2021-06-05T12:37:32.000Z</time>
      </trkpt>
      <trkpt lat="47.274" lon="-1.97793">
        <ele>52</ele>
        <time>2021-06-05T12:37:34.000Z</time>
      </trkpt>
      <trkpt lat="47.27391" lon="-1.97778">
        <ele>52</ele>
        <time>2021-06-05T12:37:36.000Z</time>
      </trkpt>
      <trkpt lat="47.27378" lon="-1.9777">
        <ele>53</ele>
        <time>2021-06-05T12:37:38.000Z</time>
      </trkpt>
      <trkpt lat="47.27365" lon="-1.97765">
        <ele>54</ele>
        <time>2021-06-05T12:37:40.000Z</time>
      </trkpt>
      <trkpt lat="47.27351" lon="-1.97761">
        <ele>54</ele>
        <time>2021-06-05T12:37:42.000Z</time>
      </trkpt>
      <trkpt lat="47.27339" lon="-1.97755">
        <ele>54</ele>
        <time>2021-06-05T12:37:44.000Z</time>
      </trkpt>
      <trkpt lat="47.27327" lon="-1.97748">
        <ele>55</ele>
        <time>2021-06-05T12:37:46.000Z</time>
      </trkpt>
      <trkpt lat="47.27316" lon="-1.97739">
        <ele>55</ele>
        <time>2021-06-05T12:37:48.000Z</time>
      </trkpt>
      <trkpt lat="47.27306" lon="-1.97725">
        <ele>55</ele>
        <time>2021-06-05T12:37:50.000Z</time>
      </trkpt>
      <trkpt lat="47.27298" lon="-1.97711">
        <ele>55</ele>
        <time>2021-06-05T12:37:52.000Z</time>
      </trkpt>
      <trkpt lat="47.27294" lon="-1.97693">
        <ele>55</ele>
        <time>2021-06-05T12:37:54.000Z</time>
      </trkpt>
      <trkpt lat="47.27292" lon="-1.97673">
        <ele>55</ele>
        <time>2021-06-05T12:37:56.000Z</time>
      </trkpt>
      <trkpt lat="47.27292" lon="-1.97652">
        <ele>54</ele>
        <time>2021-06-05T12:37:58.000Z</time>
      </trkpt>
      <trkpt lat="47.2729" lon="-1.9763">
        <ele>53</ele>
        <time>2021-06-05T12:38:00.000Z</time>
      </trkpt>
      <trkpt lat="47.27287" lon="-1.97608">
        <ele>53</ele>
        <time>2021-06-05T12:38:02.000Z</time>
      </trkpt>
      <trkpt lat="47.27284" lon="-1.97585">
        <ele>52</ele>
        <time>2021-06-05T12:38:04.000Z</time>
      </trkpt>
      <trkpt lat="47.2728" lon="-1.97563">
        <ele>52</ele>
        <time>2021-06-05T12:38:06.000Z</time>
      </trkpt>
      <trkpt lat="47.27276" lon="-1.97541">
        <ele>51</ele>
        <time>2021-06-05T12:38:08.000Z</time>
      </trkpt>
      <trkpt lat="47.27271" lon="-1.97519">
        <ele>51</ele>
        <time>2021-06-05T12:38:10.000Z</time>
      </trkpt>
      <trkpt lat="47.27266" lon="-1.97497">
        <ele>51</ele>
        <time>2021-06-05T12:38:12.000Z</time>
      </trkpt>
      <trkpt lat="47.2726" lon="-1.97475">
        <ele>50</ele>
        <time>2021-06-05T12:38:14.000Z</time>
      </trkpt>
      <trkpt lat="47.27255" lon="-1.97454">
        <ele>49</ele>
        <time>2021-06-05T12:38:16.000Z</time>
      </trkpt>
      <trkpt lat="47.27248" lon="-1.97431">
        <ele>49</ele>
        <time>2021-06-05T12:38:18.000Z</time>
      </trkpt>
      <trkpt lat="47.27243" lon="-1.9741">
        <ele>50</ele>
        <time>2021-06-05T12:38:20.000Z</time>
      </trkpt>
      <trkpt lat="47.27237" lon="-1.9739">
        <ele>50</ele>
        <time>2021-06-05T12:38:22.000Z</time>
      </trkpt>
      <trkpt lat="47.2723" lon="-1.97371">
        <ele>49</ele>
        <time>2021-06-05T12:38:24.000Z</time>
      </trkpt>
      <trkpt lat="47.27221" lon="-1.97355">
        <ele>50</ele>
        <time>2021-06-05T12:38:26.000Z</time>
      </trkpt>
      <trkpt lat="47.27211" lon="-1.9734">
        <ele>51</ele>
        <time>2021-06-05T12:38:28.000Z</time>
      </trkpt>
      <trkpt lat="47.27202" lon="-1.97326">
        <ele>52</ele>
        <time>2021-06-05T12:38:30.000Z</time>
      </trkpt>
      <trkpt lat="47.27192" lon="-1.97312">
        <ele>52</ele>
        <time>2021-06-05T12:38:32.000Z</time>
      </trkpt>
      <trkpt lat="47.27182" lon="-1.97298">
        <ele>52</ele>
        <time>2021-06-05T12:38:34.000Z</time>
      </trkpt>
      <trkpt lat="47.27173" lon="-1.97282">
        <ele>53</ele>
        <time>2021-06-05T12:38:36.000Z</time>
      </trkpt>
      <trkpt lat="47.27164" lon="-1.97267">
        <ele>54</ele>
        <time>2021-06-05T12:38:38.000Z</time>
      </trkpt>
      <trkpt lat="47.27155" lon="-1.97252">
        <ele>54</ele>
        <time>2021-06-05T12:38:40.000Z</time>
      </trkpt>
      <trkpt lat="47.27146" lon="-1.97238">
        <ele>55</ele>
        <time>2021-06-05T12:38:42.000Z</time>
      </trkpt>
      <trkpt lat="47.27137" lon="-1.97224">
        <ele>55</ele>
        <time>2021-06-05T12:38:44.000Z</time>
      </trkpt>
      <trkpt lat="47.27128" lon="-1.97211">
        <ele>55</ele>
        <time>2021-06-05T12:38:46.000Z</time>
      </trkpt>
      <trkpt lat="47.27119" lon="-1.97197">
        <ele>55</ele>
        <time>2021-06-05T12:38:48.000Z</time>
      </trkpt>
      <trkpt lat="47.2711" lon="-1.97181">
        <ele>55</ele>
        <time>2021-06-05T12:38:50.000Z</time>
      </trkpt>
      <trkpt lat="47.27102" lon="-1.97163">
        <ele>55</ele>
        <time>2021-06-05T12:38:52.000Z</time>
      </trkpt>
      <trkpt lat="47.27095" lon="-1.97144">
        <ele>54</ele>
        <time>2021-06-05T12:38:54.000Z</time>
      </trkpt>
      <trkpt lat="47.27091" lon="-1.97124">
        <ele>54</ele>
        <time>2021-06-05T12:38:56.000Z</time>
      </trkpt>
      <trkpt lat="47.27089" lon="-1.97103">
        <ele>55</ele>
        <time>2021-06-05T12:38:58.000Z</time>
      </trkpt>
      <trkpt lat="47.27087" lon="-1.97083">
        <ele>55</ele>
        <time>2021-06-05T12:39:00.000Z</time>
      </trkpt>
      <trkpt lat="47.27086" lon="-1.97062">
        <ele>55</ele>
        <time>2021-06-05T12:39:02.000Z</time>
      </trkpt>
      <trkpt lat="47.27084" lon="-1.97041">
        <ele>56</ele>
        <time>2021-06-05T12:39:04.000Z</time>
      </trkpt>
      <trkpt lat="47.27082" lon="-1.97021">
        <ele>56</ele>
        <time>2021-06-05T12:39:06.000Z</time>
      </trkpt>
      <trkpt lat="47.2708" lon="-1.97">
        <ele>56</ele>
        <time>2021-06-05T12:39:08.000Z</time>
      </trkpt>
      <trkpt lat="47.27078" lon="-1.96981">
        <ele>57</ele>
        <time>2021-06-05T12:39:10.000Z</time>
      </trkpt>
      <trkpt lat="47.27074" lon="-1.96963">
        <ele>57</ele>
        <time>2021-06-05T12:39:12.000Z</time>
      </trkpt>
      <trkpt lat="47.27068" lon="-1.96947">
        <ele>56</ele>
        <time>2021-06-05T12:39:14.000Z</time>
      </trkpt>
      <trkpt lat="47.27059" lon="-1.96931">
        <ele>55</ele>
        <time>2021-06-05T12:39:16.000Z</time>
      </trkpt>
      <trkpt lat="47.27049" lon="-1.96913">
        <ele>53</ele>
        <time>2021-06-05T12:39:18.000Z</time>
      </trkpt>
      <trkpt lat="47.27038" lon="-1.96893">
        <ele>52</ele>
        <time>2021-06-05T12:39:20.000Z</time>
      </trkpt>
      <trkpt lat="47.27033" lon="-1.96883">
        <ele>51</ele>
        <time>2021-06-05T12:39:21.000Z</time>
      </trkpt>
      <trkpt lat="47.27022" lon="-1.96863">
        <ele>50</ele>
        <time>2021-06-05T12:39:23.000Z</time>
      </trkpt>
      <trkpt lat="47.27011" lon="-1.96843">
        <ele>50</ele>
        <time>2021-06-05T12:39:25.000Z</time>
      </trkpt>
      <trkpt lat="47.27002" lon="-1.96826">
        <ele>50</ele>
        <time>2021-06-05T12:39:27.000Z</time>
      </trkpt>
      <trkpt lat="47.26995" lon="-1.96809">
        <ele>51</ele>
        <time>2021-06-05T12:39:29.000Z</time>
      </trkpt>
      <trkpt lat="47.26988" lon="-1.96792">
        <ele>52</ele>
        <time>2021-06-05T12:39:31.000Z</time>
      </trkpt>
      <trkpt lat="47.26981" lon="-1.96776">
        <ele>52</ele>
        <time>2021-06-05T12:39:33.000Z</time>
      </trkpt>
      <trkpt lat="47.26974" lon="-1.96759">
        <ele>53</ele>
        <time>2021-06-05T12:39:35.000Z</time>
      </trkpt>
      <trkpt lat="47.26967" lon="-1.96741">
        <ele>53</ele>
        <time>2021-06-05T12:39:37.000Z</time>
      </trkpt>
      <trkpt lat="47.2696" lon="-1.96724">
        <ele>54</ele>
        <time>2021-06-05T12:39:39.000Z</time>
      </trkpt>
      <trkpt lat="47.26954" lon="-1.96708">
        <ele>55</ele>
        <time>2021-06-05T12:39:41.000Z</time>
      </trkpt>
      <trkpt lat="47.26946" lon="-1.96691">
        <ele>56</ele>
        <time>2021-06-05T12:39:43.000Z</time>
      </trkpt>
      <trkpt lat="47.26939" lon="-1.96673">
        <ele>56</ele>
        <time>2021-06-05T12:39:45.000Z</time>
      </trkpt>
      <trkpt lat="47.26932" lon="-1.96655">
        <ele>57</ele>
        <time>2021-06-05T12:39:47.000Z</time>
      </trkpt>
      <trkpt lat="47.26926" lon="-1.96638">
        <ele>57</ele>
        <time>2021-06-05T12:39:49.000Z</time>
      </trkpt>
      <trkpt lat="47.2692" lon="-1.96622">
        <ele>57</ele>
        <time>2021-06-05T12:39:51.000Z</time>
      </trkpt>
      <trkpt lat="47.26914" lon="-1.96606">
        <ele>58</ele>
        <time>2021-06-05T12:39:53.000Z</time>
      </trkpt>
      <trkpt lat="47.26907" lon="-1.9659">
        <ele>58</ele>
        <time>2021-06-05T12:39:55.000Z</time>
      </trkpt>
      <trkpt lat="47.26901" lon="-1.96572">
        <ele>58</ele>
        <time>2021-06-05T12:39:57.000Z</time>
      </trkpt>
      <trkpt lat="47.26895" lon="-1.96554">
        <ele>58</ele>
        <time>2021-06-05T12:39:59.000Z</time>
      </trkpt>
      <trkpt lat="47.26889" lon="-1.96537">
        <ele>58</ele>
        <time>2021-06-05T12:40:01.000Z</time>
      </trkpt>
      <trkpt lat="47.26882" lon="-1.9652">
        <ele>58</ele>
        <time>2021-06-05T12:40:03.000Z</time>
      </trkpt>
      <trkpt lat="47.26876" lon="-1.96502">
        <ele>58</ele>
        <time>2021-06-05T12:40:05.000Z</time>
      </trkpt>
      <trkpt lat="47.26869" lon="-1.96485">
        <ele>58</ele>
        <time>2021-06-05T12:40:07.000Z</time>
      </trkpt>
      <trkpt lat="47.26863" lon="-1.96468">
        <ele>58</ele>
        <time>2021-06-05T12:40:09.000Z</time>
      </trkpt>
      <trkpt lat="47.26856" lon="-1.96451">
        <ele>58</ele>
        <time>2021-06-05T12:40:11.000Z</time>
      </trkpt>
      <trkpt lat="47.26849" lon="-1.96434">
        <ele>58</ele>
        <time>2021-06-05T12:40:13.000Z</time>
      </trkpt>
      <trkpt lat="47.26843" lon="-1.96416">
        <ele>58</ele>
        <time>2021-06-05T12:40:15.000Z</time>
      </trkpt>
      <trkpt lat="47.26836" lon="-1.96398">
        <ele>58</ele>
        <time>2021-06-05T12:40:17.000Z</time>
      </trkpt>
      <trkpt lat="47.26829" lon="-1.9638">
        <ele>58</ele>
        <time>2021-06-05T12:40:19.000Z</time>
      </trkpt>
      <trkpt lat="47.26823" lon="-1.96362">
        <ele>59</ele>
        <time>2021-06-05T12:40:21.000Z</time>
      </trkpt>
      <trkpt lat="47.26816" lon="-1.96344">
        <ele>59</ele>
        <time>2021-06-05T12:40:23.000Z</time>
      </trkpt>
      <trkpt lat="47.2681" lon="-1.96324">
        <ele>59</ele>
        <time>2021-06-05T12:40:25.000Z</time>
      </trkpt>
      <trkpt lat="47.26804" lon="-1.96305">
        <ele>58</ele>
        <time>2021-06-05T12:40:27.000Z</time>
      </trkpt>
      <trkpt lat="47.26798" lon="-1.96286">
        <ele>58</ele>
        <time>2021-06-05T12:40:29.000Z</time>
      </trkpt>
      <trkpt lat="47.26792" lon="-1.96267">
        <ele>58</ele>
        <time>2021-06-05T12:40:31.000Z</time>
      </trkpt>
      <trkpt lat="47.26787" lon="-1.96247">
        <ele>58</ele>
        <time>2021-06-05T12:40:33.000Z</time>
      </trkpt>
      <trkpt lat="47.26782" lon="-1.96227">
        <ele>57</ele>
        <time>2021-06-05T12:40:35.000Z</time>
      </trkpt>
      <trkpt lat="47.26777" lon="-1.96207">
        <ele>57</ele>
        <time>2021-06-05T12:40:37.000Z</time>
      </trkpt>
      <trkpt lat="47.26771" lon="-1.96188">
        <ele>58</ele>
        <time>2021-06-05T12:40:39.000Z</time>
      </trkpt>
      <trkpt lat="47.26766" lon="-1.96171">
        <ele>59</ele>
        <time>2021-06-05T12:40:41.000Z</time>
      </trkpt>
      <trkpt lat="47.26762" lon="-1.96151">
        <ele>59</ele>
        <time>2021-06-05T12:40:43.000Z</time>
      </trkpt>
      <trkpt lat="47.26756" lon="-1.9613">
        <ele>58</ele>
        <time>2021-06-05T12:40:45.000Z</time>
      </trkpt>
      <trkpt lat="47.26751" lon="-1.96109">
        <ele>58</ele>
        <time>2021-06-05T12:40:47.000Z</time>
      </trkpt>
      <trkpt lat="47.26747" lon="-1.96088">
        <ele>58</ele>
        <time>2021-06-05T12:40:49.000Z</time>
      </trkpt>
      <trkpt lat="47.26742" lon="-1.96067">
        <ele>58</ele>
        <time>2021-06-05T12:40:51.000Z</time>
      </trkpt>
      <trkpt lat="47.26736" lon="-1.96048">
        <ele>58</ele>
        <time>2021-06-05T12:40:53.000Z</time>
      </trkpt>
      <trkpt lat="47.2673" lon="-1.96028">
        <ele>58</ele>
        <time>2021-06-05T12:40:55.000Z</time>
      </trkpt>
      <trkpt lat="47.26725" lon="-1.96007">
        <ele>58</ele>
        <time>2021-06-05T12:40:57.000Z</time>
      </trkpt>
      <trkpt lat="47.26719" lon="-1.95987">
        <ele>58</ele>
        <time>2021-06-05T12:40:59.000Z</time>
      </trkpt>
      <trkpt lat="47.26713" lon="-1.95967">
        <ele>58</ele>
        <time>2021-06-05T12:41:01.000Z</time>
      </trkpt>
      <trkpt lat="47.26707" lon="-1.95946">
        <ele>58</ele>
        <time>2021-06-05T12:41:03.000Z</time>
      </trkpt>
      <trkpt lat="47.26701" lon="-1.95926">
        <ele>58</ele>
        <time>2021-06-05T12:41:05.000Z</time>
      </trkpt>
      <trkpt lat="47.26695" lon="-1.95906">
        <ele>58</ele>
        <time>2021-06-05T12:41:07.000Z</time>
      </trkpt>
      <trkpt lat="47.26688" lon="-1.95885">
        <ele>57</ele>
        <time>2021-06-05T12:41:09.000Z</time>
      </trkpt>
      <trkpt lat="47.26682" lon="-1.95867">
        <ele>57</ele>
        <time>2021-06-05T12:41:11.000Z</time>
      </trkpt>
      <trkpt lat="47.26674" lon="-1.9585">
        <ele>57</ele>
        <time>2021-06-05T12:41:13.000Z</time>
      </trkpt>
      <trkpt lat="47.26667" lon="-1.95832">
        <ele>57</ele>
        <time>2021-06-05T12:41:15.000Z</time>
      </trkpt>
      <trkpt lat="47.2666" lon="-1.95815">
        <ele>58</ele>
        <time>2021-06-05T12:41:17.000Z</time>
      </trkpt>
      <trkpt lat="47.26653" lon="-1.95797">
        <ele>58</ele>
        <time>2021-06-05T12:41:19.000Z</time>
      </trkpt>
      <trkpt lat="47.26646" lon="-1.95779">
        <ele>58</ele>
        <time>2021-06-05T12:41:21.000Z</time>
      </trkpt>
      <trkpt lat="47.26639" lon="-1.95762">
        <ele>58</ele>
        <time>2021-06-05T12:41:23.000Z</time>
      </trkpt>
      <trkpt lat="47.26632" lon="-1.95744">
        <ele>58</ele>
        <time>2021-06-05T12:41:25.000Z</time>
      </trkpt>
      <trkpt lat="47.26625" lon="-1.95726">
        <ele>58</ele>
        <time>2021-06-05T12:41:27.000Z</time>
      </trkpt>
      <trkpt lat="47.26619" lon="-1.95709">
        <ele>58</ele>
        <time>2021-06-05T12:41:29.000Z</time>
      </trkpt>
      <trkpt lat="47.26612" lon="-1.95691">
        <ele>58</ele>
        <time>2021-06-05T12:41:31.000Z</time>
      </trkpt>
      <trkpt lat="47.26606" lon="-1.95673">
        <ele>57</ele>
        <time>2021-06-05T12:41:33.000Z</time>
      </trkpt>
      <trkpt lat="47.266" lon="-1.95654">
        <ele>57</ele>
        <time>2021-06-05T12:41:35.000Z</time>
      </trkpt>
      <trkpt lat="47.26595" lon="-1.95634">
        <ele>57</ele>
        <time>2021-06-05T12:41:37.000Z</time>
      </trkpt>
      <trkpt lat="47.26591" lon="-1.95614">
        <ele>56</ele>
        <time>2021-06-05T12:41:39.000Z</time>
      </trkpt>
      <trkpt lat="47.26587" lon="-1.95594">
        <ele>56</ele>
        <time>2021-06-05T12:41:41.000Z</time>
      </trkpt>
      <trkpt lat="47.26582" lon="-1.95573">
        <ele>55</ele>
        <time>2021-06-05T12:41:43.000Z</time>
      </trkpt>
      <trkpt lat="47.26578" lon="-1.95551">
        <ele>55</ele>
        <time>2021-06-05T12:41:45.000Z</time>
      </trkpt>
      <trkpt lat="47.26574" lon="-1.95528">
        <ele>54</ele>
        <time>2021-06-05T12:41:47.000Z</time>
      </trkpt>
      <trkpt lat="47.26569" lon="-1.95505">
        <ele>54</ele>
        <time>2021-06-05T12:41:49.000Z</time>
      </trkpt>
      <trkpt lat="47.26562" lon="-1.95483">
        <ele>54</ele>
        <time>2021-06-05T12:41:51.000Z</time>
      </trkpt>
      <trkpt lat="47.26554" lon="-1.95463">
        <ele>54</ele>
        <time>2021-06-05T12:41:53.000Z</time>
      </trkpt>
      <trkpt lat="47.26544" lon="-1.95444">
        <ele>53</ele>
        <time>2021-06-05T12:41:55.000Z</time>
      </trkpt>
      <trkpt lat="47.26534" lon="-1.95427">
        <ele>53</ele>
        <time>2021-06-05T12:41:57.000Z</time>
      </trkpt>
      <trkpt lat="47.26523" lon="-1.95411">
        <ele>53</ele>
        <time>2021-06-05T12:41:59.000Z</time>
      </trkpt>
      <trkpt lat="47.26513" lon="-1.95394">
        <ele>53</ele>
        <time>2021-06-05T12:42:01.000Z</time>
      </trkpt>
      <trkpt lat="47.26504" lon="-1.95375">
        <ele>53</ele>
        <time>2021-06-05T12:42:03.000Z</time>
      </trkpt>
      <trkpt lat="47.26495" lon="-1.95355">
        <ele>52</ele>
        <time>2021-06-05T12:42:05.000Z</time>
      </trkpt>
      <trkpt lat="47.26489" lon="-1.95333">
        <ele>52</ele>
        <time>2021-06-05T12:42:07.000Z</time>
      </trkpt>
      <trkpt lat="47.26485" lon="-1.95311">
        <ele>52</ele>
        <time>2021-06-05T12:42:09.000Z</time>
      </trkpt>
      <trkpt lat="47.26481" lon="-1.95288">
        <ele>52</ele>
        <time>2021-06-05T12:42:11.000Z</time>
      </trkpt>
      <trkpt lat="47.26478" lon="-1.95268">
        <ele>52</ele>
        <time>2021-06-05T12:42:13.000Z</time>
      </trkpt>
      <trkpt lat="47.26475" lon="-1.95247">
        <ele>52</ele>
        <time>2021-06-05T12:42:15.000Z</time>
      </trkpt>
      <trkpt lat="47.26471" lon="-1.95226">
        <ele>53</ele>
        <time>2021-06-05T12:42:17.000Z</time>
      </trkpt>
      <trkpt lat="47.26468" lon="-1.95205">
        <ele>53</ele>
        <time>2021-06-05T12:42:19.000Z</time>
      </trkpt>
      <trkpt lat="47.26465" lon="-1.95184">
        <ele>53</ele>
        <time>2021-06-05T12:42:21.000Z</time>
      </trkpt>
      <trkpt lat="47.26465" lon="-1.95162">
        <ele>53</ele>
        <time>2021-06-05T12:42:23.000Z</time>
      </trkpt>
      <trkpt lat="47.26465" lon="-1.9514">
        <ele>53</ele>
        <time>2021-06-05T12:42:25.000Z</time>
      </trkpt>
      <trkpt lat="47.26466" lon="-1.95119">
        <ele>54</ele>
        <time>2021-06-05T12:42:27.000Z</time>
      </trkpt>
      <trkpt lat="47.26468" lon="-1.95097">
        <ele>53</ele>
        <time>2021-06-05T12:42:29.000Z</time>
      </trkpt>
      <trkpt lat="47.2647" lon="-1.9508">
        <ele>52</ele>
        <time>2021-06-05T12:42:31.000Z</time>
      </trkpt>
      <trkpt lat="47.2648" lon="-1.9508">
        <ele>51</ele>
        <time>2021-06-05T12:42:34.000Z</time>
      </trkpt>
      <trkpt lat="47.26488" lon="-1.95088">
        <ele>51</ele>
        <time>2021-06-05T12:42:36.000Z</time>
      </trkpt>
      <trkpt lat="47.26502" lon="-1.9509">
        <ele>50</ele>
        <time>2021-06-05T12:42:38.000Z</time>
      </trkpt>
      <trkpt lat="47.26518" lon="-1.95089">
        <ele>50</ele>
        <time>2021-06-05T12:42:40.000Z</time>
      </trkpt>
      <trkpt lat="47.26533" lon="-1.95089">
        <ele>49</ele>
        <time>2021-06-05T12:42:42.000Z</time>
      </trkpt>
      <trkpt lat="47.26549" lon="-1.95088">
        <ele>49</ele>
        <time>2021-06-05T12:42:44.000Z</time>
      </trkpt>
      <trkpt lat="47.26564" lon="-1.95088">
        <ele>48</ele>
        <time>2021-06-05T12:42:46.000Z</time>
      </trkpt>
      <trkpt lat="47.26579" lon="-1.95087">
        <ele>48</ele>
        <time>2021-06-05T12:42:48.000Z</time>
      </trkpt>
      <trkpt lat="47.26593" lon="-1.95084">
        <ele>49</ele>
        <time>2021-06-05T12:42:50.000Z</time>
      </trkpt>
      <trkpt lat="47.26607" lon="-1.95073">
        <ele>49</ele>
        <time>2021-06-05T12:42:52.000Z</time>
      </trkpt>
      <trkpt lat="47.2662" lon="-1.95061">
        <ele>49</ele>
        <time>2021-06-05T12:42:54.000Z</time>
      </trkpt>
      <trkpt lat="47.26632" lon="-1.95045">
        <ele>49</ele>
        <time>2021-06-05T12:42:56.000Z</time>
      </trkpt>
      <trkpt lat="47.26643" lon="-1.95028">
        <ele>49</ele>
        <time>2021-06-05T12:42:58.000Z</time>
      </trkpt>
      <trkpt lat="47.26653" lon="-1.95009">
        <ele>49</ele>
        <time>2021-06-05T12:43:00.000Z</time>
      </trkpt>
      <trkpt lat="47.26661" lon="-1.9499">
        <ele>48</ele>
        <time>2021-06-05T12:43:02.000Z</time>
      </trkpt>
      <trkpt lat="47.26668" lon="-1.9497">
        <ele>49</ele>
        <time>2021-06-05T12:43:04.000Z</time>
      </trkpt>
      <trkpt lat="47.26676" lon="-1.94951">
        <ele>49</ele>
        <time>2021-06-05T12:43:06.000Z</time>
      </trkpt>
      <trkpt lat="47.26684" lon="-1.94933">
        <ele>49</ele>
        <time>2021-06-05T12:43:08.000Z</time>
      </trkpt>
      <trkpt lat="47.26692" lon="-1.94915">
        <ele>49</ele>
        <time>2021-06-05T12:43:10.000Z</time>
      </trkpt>
      <trkpt lat="47.26702" lon="-1.94899">
        <ele>49</ele>
        <time>2021-06-05T12:43:12.000Z</time>
      </trkpt>
      <trkpt lat="47.26713" lon="-1.94886">
        <ele>49</ele>
        <time>2021-06-05T12:43:14.000Z</time>
      </trkpt>
      <trkpt lat="47.26723" lon="-1.94871">
        <ele>50</ele>
        <time>2021-06-05T12:43:16.000Z</time>
      </trkpt>
      <trkpt lat="47.26726" lon="-1.94853">
        <ele>49</ele>
        <time>2021-06-05T12:43:18.000Z</time>
      </trkpt>
      <trkpt lat="47.26719" lon="-1.94835">
        <ele>50</ele>
        <time>2021-06-05T12:43:20.000Z</time>
      </trkpt>
      <trkpt lat="47.2671" lon="-1.94818">
        <ele>49</ele>
        <time>2021-06-05T12:43:22.000Z</time>
      </trkpt>
      <trkpt lat="47.26701" lon="-1.94802">
        <ele>50</ele>
        <time>2021-06-05T12:43:24.000Z</time>
      </trkpt>
      <trkpt lat="47.26693" lon="-1.94785">
        <ele>50</ele>
        <time>2021-06-05T12:43:26.000Z</time>
      </trkpt>
      <trkpt lat="47.26686" lon="-1.94767">
        <ele>49</ele>
        <time>2021-06-05T12:43:28.000Z</time>
      </trkpt>
      <trkpt lat="47.26677" lon="-1.9475">
        <ele>49</ele>
        <time>2021-06-05T12:43:30.000Z</time>
      </trkpt>
      <trkpt lat="47.2667" lon="-1.94733">
        <ele>49</ele>
        <time>2021-06-05T12:43:32.000Z</time>
      </trkpt>
      <trkpt lat="47.26662" lon="-1.94716">
        <ele>49</ele>
        <time>2021-06-05T12:43:34.000Z</time>
      </trkpt>
      <trkpt lat="47.26654" lon="-1.94699">
        <ele>49</ele>
        <time>2021-06-05T12:43:36.000Z</time>
      </trkpt>
      <trkpt lat="47.26646" lon="-1.94683">
        <ele>49</ele>
        <time>2021-06-05T12:43:38.000Z</time>
      </trkpt>
      <trkpt lat="47.26638" lon="-1.94666">
        <ele>49</ele>
        <time>2021-06-05T12:43:40.000Z</time>
      </trkpt>
      <trkpt lat="47.26632" lon="-1.94648">
        <ele>49</ele>
        <time>2021-06-05T12:43:42.000Z</time>
      </trkpt>
      <trkpt lat="47.26628" lon="-1.9463">
        <ele>50</ele>
        <time>2021-06-05T12:43:44.000Z</time>
      </trkpt>
      <trkpt lat="47.26626" lon="-1.94609">
        <ele>50</ele>
        <time>2021-06-05T12:43:46.000Z</time>
      </trkpt>
      <trkpt lat="47.26624" lon="-1.94588">
        <ele>50</ele>
        <time>2021-06-05T12:43:48.000Z</time>
      </trkpt>
      <trkpt lat="47.26623" lon="-1.94567">
        <ele>50</ele>
        <time>2021-06-05T12:43:50.000Z</time>
      </trkpt>
      <trkpt lat="47.26621" lon="-1.94546">
        <ele>49</ele>
        <time>2021-06-05T12:43:52.000Z</time>
      </trkpt>
      <trkpt lat="47.26618" lon="-1.94525">
        <ele>49</ele>
        <time>2021-06-05T12:43:54.000Z</time>
      </trkpt>
      <trkpt lat="47.26614" lon="-1.94504">
        <ele>49</ele>
        <time>2021-06-05T12:43:56.000Z</time>
      </trkpt>
      <trkpt lat="47.2661" lon="-1.94484">
        <ele>50</ele>
        <time>2021-06-05T12:43:58.000Z</time>
      </trkpt>
      <trkpt lat="47.26605" lon="-1.94464">
        <ele>49</ele>
        <time>2021-06-05T12:44:00.000Z</time>
      </trkpt>
      <trkpt lat="47.266" lon="-1.94443">
        <ele>50</ele>
        <time>2021-06-05T12:44:02.000Z</time>
      </trkpt>
      <trkpt lat="47.26595" lon="-1.94423">
        <ele>50</ele>
        <time>2021-06-05T12:44:04.000Z</time>
      </trkpt>
      <trkpt lat="47.26591" lon="-1.94403">
        <ele>50</ele>
        <time>2021-06-05T12:44:06.000Z</time>
      </trkpt>
      <trkpt lat="47.26586" lon="-1.94384">
        <ele>50</ele>
        <time>2021-06-05T12:44:08.000Z</time>
      </trkpt>
      <trkpt lat="47.26582" lon="-1.94364">
        <ele>50</ele>
        <time>2021-06-05T12:44:10.000Z</time>
      </trkpt>
      <trkpt lat="47.26577" lon="-1.94344">
        <ele>50</ele>
        <time>2021-06-05T12:44:12.000Z</time>
      </trkpt>
      <trkpt lat="47.26574" lon="-1.94324">
        <ele>50</ele>
        <time>2021-06-05T12:44:14.000Z</time>
      </trkpt>
      <trkpt lat="47.26572" lon="-1.94304">
        <ele>51</ele>
        <time>2021-06-05T12:44:16.000Z</time>
      </trkpt>
      <trkpt lat="47.26573" lon="-1.94282">
        <ele>50</ele>
        <time>2021-06-05T12:44:18.000Z</time>
      </trkpt>
      <trkpt lat="47.26575" lon="-1.94261">
        <ele>50</ele>
        <time>2021-06-05T12:44:20.000Z</time>
      </trkpt>
      <trkpt lat="47.26577" lon="-1.94241">
        <ele>50</ele>
        <time>2021-06-05T12:44:22.000Z</time>
      </trkpt>
      <trkpt lat="47.26579" lon="-1.94219">
        <ele>50</ele>
        <time>2021-06-05T12:44:24.000Z</time>
      </trkpt>
      <trkpt lat="47.26581" lon="-1.94199">
        <ele>50</ele>
        <time>2021-06-05T12:44:26.000Z</time>
      </trkpt>
      <trkpt lat="47.26582" lon="-1.94178">
        <ele>50</ele>
        <time>2021-06-05T12:44:28.000Z</time>
      </trkpt>
      <trkpt lat="47.26582" lon="-1.94157">
        <ele>51</ele>
        <time>2021-06-05T12:44:30.000Z</time>
      </trkpt>
      <trkpt lat="47.26582" lon="-1.94137">
        <ele>51</ele>
        <time>2021-06-05T12:44:32.000Z</time>
      </trkpt>
      <trkpt lat="47.26581" lon="-1.94117">
        <ele>51</ele>
        <time>2021-06-05T12:44:34.000Z</time>
      </trkpt>
      <trkpt lat="47.26579" lon="-1.94097">
        <ele>51</ele>
        <time>2021-06-05T12:44:36.000Z</time>
      </trkpt>
      <trkpt lat="47.26577" lon="-1.94076">
        <ele>51</ele>
        <time>2021-06-05T12:44:38.000Z</time>
      </trkpt>
      <trkpt lat="47.26574" lon="-1.94056">
        <ele>51</ele>
        <time>2021-06-05T12:44:40.000Z</time>
      </trkpt>
      <trkpt lat="47.2657" lon="-1.94036">
        <ele>51</ele>
        <time>2021-06-05T12:44:42.000Z</time>
      </trkpt>
      <trkpt lat="47.26567" lon="-1.94016">
        <ele>50</ele>
        <time>2021-06-05T12:44:44.000Z</time>
      </trkpt>
      <trkpt lat="47.26563" lon="-1.93995">
        <ele>50</ele>
        <time>2021-06-05T12:44:46.000Z</time>
      </trkpt>
      <trkpt lat="47.26559" lon="-1.93974">
        <ele>50</ele>
        <time>2021-06-05T12:44:48.000Z</time>
      </trkpt>
      <trkpt lat="47.26555" lon="-1.93954">
        <ele>49</ele>
        <time>2021-06-05T12:44:50.000Z</time>
      </trkpt>
      <trkpt lat="47.26551" lon="-1.93934">
        <ele>49</ele>
        <time>2021-06-05T12:44:52.000Z</time>
      </trkpt>
      <trkpt lat="47.26548" lon="-1.93913">
        <ele>49</ele>
        <time>2021-06-05T12:44:54.000Z</time>
      </trkpt>
      <trkpt lat="47.26544" lon="-1.93892">
        <ele>49</ele>
        <time>2021-06-05T12:44:56.000Z</time>
      </trkpt>
      <trkpt lat="47.26541" lon="-1.93872">
        <ele>49</ele>
        <time>2021-06-05T12:44:58.000Z</time>
      </trkpt>
      <trkpt lat="47.26537" lon="-1.93851">
        <ele>48</ele>
        <time>2021-06-05T12:45:00.000Z</time>
      </trkpt>
      <trkpt lat="47.26533" lon="-1.93832">
        <ele>48</ele>
        <time>2021-06-05T12:45:02.000Z</time>
      </trkpt>
      <trkpt lat="47.26529" lon="-1.93811">
        <ele>49</ele>
        <time>2021-06-05T12:45:04.000Z</time>
      </trkpt>
      <trkpt lat="47.26524" lon="-1.93791">
        <ele>49</ele>
        <time>2021-06-05T12:45:06.000Z</time>
      </trkpt>
      <trkpt lat="47.2652" lon="-1.9377">
        <ele>49</ele>
        <time>2021-06-05T12:45:08.000Z</time>
      </trkpt>
      <trkpt lat="47.26517" lon="-1.9375">
        <ele>49</ele>
        <time>2021-06-05T12:45:10.000Z</time>
      </trkpt>
      <trkpt lat="47.26513" lon="-1.9373">
        <ele>49</ele>
        <time>2021-06-05T12:45:12.000Z</time>
      </trkpt>
      <trkpt lat="47.2651" lon="-1.93709">
        <ele>49</ele>
        <time>2021-06-05T12:45:14.000Z</time>
      </trkpt>
      <trkpt lat="47.26506" lon="-1.93688">
        <ele>49</ele>
        <time>2021-06-05T12:45:16.000Z</time>
      </trkpt>
      <trkpt lat="47.26502" lon="-1.93668">
        <ele>49</ele>
        <time>2021-06-05T12:45:18.000Z</time>
      </trkpt>
      <trkpt lat="47.26499" lon="-1.93648">
        <ele>49</ele>
        <time>2021-06-05T12:45:20.000Z</time>
      </trkpt>
      <trkpt lat="47.26495" lon="-1.93626">
        <ele>48</ele>
        <time>2021-06-05T12:45:22.000Z</time>
      </trkpt>
      <trkpt lat="47.26491" lon="-1.93606">
        <ele>49</ele>
        <time>2021-06-05T12:45:24.000Z</time>
      </trkpt>
      <trkpt lat="47.26488" lon="-1.93586">
        <ele>49</ele>
        <time>2021-06-05T12:45:26.000Z</time>
      </trkpt>
      <trkpt lat="47.26484" lon="-1.93566">
        <ele>49</ele>
        <time>2021-06-05T12:45:28.000Z</time>
      </trkpt>
      <trkpt lat="47.2648" lon="-1.93545">
        <ele>49</ele>
        <time>2021-06-05T12:45:30.000Z</time>
      </trkpt>
      <trkpt lat="47.26477" lon="-1.93525">
        <ele>49</ele>
        <time>2021-06-05T12:45:32.000Z</time>
      </trkpt>
      <trkpt lat="47.26473" lon="-1.93505">
        <ele>49</ele>
        <time>2021-06-05T12:45:34.000Z</time>
      </trkpt>
      <trkpt lat="47.26469" lon="-1.93484">
        <ele>48</ele>
        <time>2021-06-05T12:45:36.000Z</time>
      </trkpt>
      <trkpt lat="47.26465" lon="-1.93464">
        <ele>49</ele>
        <time>2021-06-05T12:45:38.000Z</time>
      </trkpt>
      <trkpt lat="47.26461" lon="-1.93443">
        <ele>49</ele>
        <time>2021-06-05T12:45:40.000Z</time>
      </trkpt>
      <trkpt lat="47.26458" lon="-1.93423">
        <ele>49</ele>
        <time>2021-06-05T12:45:42.000Z</time>
      </trkpt>
      <trkpt lat="47.26455" lon="-1.93403">
        <ele>49</ele>
        <time>2021-06-05T12:45:44.000Z</time>
      </trkpt>
      <trkpt lat="47.26454" lon="-1.93382">
        <ele>49</ele>
        <time>2021-06-05T12:45:46.000Z</time>
      </trkpt>
      <trkpt lat="47.26454" lon="-1.9336">
        <ele>50</ele>
        <time>2021-06-05T12:45:48.000Z</time>
      </trkpt>
      <trkpt lat="47.26452" lon="-1.9334">
        <ele>50</ele>
        <time>2021-06-05T12:45:50.000Z</time>
      </trkpt>
      <trkpt lat="47.26449" lon="-1.9332">
        <ele>51</ele>
        <time>2021-06-05T12:45:52.000Z</time>
      </trkpt>
      <trkpt lat="47.26445" lon="-1.93301">
        <ele>51</ele>
        <time>2021-06-05T12:45:54.000Z</time>
      </trkpt>
      <trkpt lat="47.26442" lon="-1.93282">
        <ele>51</ele>
        <time>2021-06-05T12:45:56.000Z</time>
      </trkpt>
      <trkpt lat="47.26438" lon="-1.93262">
        <ele>51</ele>
        <time>2021-06-05T12:45:58.000Z</time>
      </trkpt>
      <trkpt lat="47.26434" lon="-1.93241">
        <ele>51</ele>
        <time>2021-06-05T12:46:00.000Z</time>
      </trkpt>
      <trkpt lat="47.2643" lon="-1.93221">
        <ele>52</ele>
        <time>2021-06-05T12:46:02.000Z</time>
      </trkpt>
      <trkpt lat="47.26428" lon="-1.93201">
        <ele>52</ele>
        <time>2021-06-05T12:46:04.000Z</time>
      </trkpt>
      <trkpt lat="47.26425" lon="-1.93182">
        <ele>52</ele>
        <time>2021-06-05T12:46:06.000Z</time>
      </trkpt>
      <trkpt lat="47.26421" lon="-1.93162">
        <ele>52</ele>
        <time>2021-06-05T12:46:08.000Z</time>
      </trkpt>
      <trkpt lat="47.26417" lon="-1.93141">
        <ele>51</ele>
        <time>2021-06-05T12:46:10.000Z</time>
      </trkpt>
      <trkpt lat="47.26412" lon="-1.9312">
        <ele>51</ele>
        <time>2021-06-05T12:46:12.000Z</time>
      </trkpt>
      <trkpt lat="47.26408" lon="-1.931">
        <ele>51</ele>
        <time>2021-06-05T12:46:14.000Z</time>
      </trkpt>
      <trkpt lat="47.26404" lon="-1.9308">
        <ele>52</ele>
        <time>2021-06-05T12:46:16.000Z</time>
      </trkpt>
      <trkpt lat="47.264" lon="-1.93062">
        <ele>52</ele>
        <time>2021-06-05T12:46:18.000Z</time>
      </trkpt>
      <trkpt lat="47.26394" lon="-1.93046">
        <ele>53</ele>
        <time>2021-06-05T12:46:20.000Z</time>
      </trkpt>
      <trkpt lat="47.26387" lon="-1.93026">
        <ele>52</ele>
        <time>2021-06-05T12:46:22.000Z</time>
      </trkpt>
      <trkpt lat="47.26381" lon="-1.93006">
        <ele>52</ele>
        <time>2021-06-05T12:46:24.000Z</time>
      </trkpt>
      <trkpt lat="47.26378" lon="-1.92986">
        <ele>51</ele>
        <time>2021-06-05T12:46:26.000Z</time>
      </trkpt>
      <trkpt lat="47.26374" lon="-1.92965">
        <ele>51</ele>
        <time>2021-06-05T12:46:28.000Z</time>
      </trkpt>
      <trkpt lat="47.26371" lon="-1.92944">
        <ele>51</ele>
        <time>2021-06-05T12:46:30.000Z</time>
      </trkpt>
      <trkpt lat="47.26367" lon="-1.92923">
        <ele>50</ele>
        <time>2021-06-05T12:46:32.000Z</time>
      </trkpt>
      <trkpt lat="47.26364" lon="-1.92902">
        <ele>49</ele>
        <time>2021-06-05T12:46:34.000Z</time>
      </trkpt>
      <trkpt lat="47.2636" lon="-1.92882">
        <ele>49</ele>
        <time>2021-06-05T12:46:36.000Z</time>
      </trkpt>
      <trkpt lat="47.26356" lon="-1.92863">
        <ele>49</ele>
        <time>2021-06-05T12:46:38.000Z</time>
      </trkpt>
      <trkpt lat="47.26353" lon="-1.92843">
        <ele>49</ele>
        <time>2021-06-05T12:46:40.000Z</time>
      </trkpt>
      <trkpt lat="47.26349" lon="-1.92824">
        <ele>48</ele>
        <time>2021-06-05T12:46:42.000Z</time>
      </trkpt>
      <trkpt lat="47.26345" lon="-1.92804">
        <ele>47</ele>
        <time>2021-06-05T12:46:44.000Z</time>
      </trkpt>
      <trkpt lat="47.26342" lon="-1.92784">
        <ele>47</ele>
        <time>2021-06-05T12:46:46.000Z</time>
      </trkpt>
      <trkpt lat="47.26338" lon="-1.92764">
        <ele>47</ele>
        <time>2021-06-05T12:46:48.000Z</time>
      </trkpt>
      <trkpt lat="47.26335" lon="-1.92744">
        <ele>47</ele>
        <time>2021-06-05T12:46:50.000Z</time>
      </trkpt>
      <trkpt lat="47.26331" lon="-1.92725">
        <ele>47</ele>
        <time>2021-06-05T12:46:52.000Z</time>
      </trkpt>
      <trkpt lat="47.26327" lon="-1.92705">
        <ele>47</ele>
        <time>2021-06-05T12:46:54.000Z</time>
      </trkpt>
      <trkpt lat="47.26322" lon="-1.92685">
        <ele>47</ele>
        <time>2021-06-05T12:46:56.000Z</time>
      </trkpt>
      <trkpt lat="47.26318" lon="-1.92666">
        <ele>48</ele>
        <time>2021-06-05T12:46:58.000Z</time>
      </trkpt>
      <trkpt lat="47.26314" lon="-1.92646">
        <ele>48</ele>
        <time>2021-06-05T12:47:00.000Z</time>
      </trkpt>
      <trkpt lat="47.2631" lon="-1.92626">
        <ele>48</ele>
        <time>2021-06-05T12:47:02.000Z</time>
      </trkpt>
      <trkpt lat="47.26306" lon="-1.92606">
        <ele>48</ele>
        <time>2021-06-05T12:47:04.000Z</time>
      </trkpt>
      <trkpt lat="47.26302" lon="-1.92586">
        <ele>48</ele>
        <time>2021-06-05T12:47:06.000Z</time>
      </trkpt>
      <trkpt lat="47.26298" lon="-1.92566">
        <ele>48</ele>
        <time>2021-06-05T12:47:08.000Z</time>
      </trkpt>
      <trkpt lat="47.26294" lon="-1.92546">
        <ele>48</ele>
        <time>2021-06-05T12:47:10.000Z</time>
      </trkpt>
      <trkpt lat="47.26289" lon="-1.92526">
        <ele>48</ele>
        <time>2021-06-05T12:47:12.000Z</time>
      </trkpt>
      <trkpt lat="47.26284" lon="-1.92506">
        <ele>47</ele>
        <time>2021-06-05T12:47:14.000Z</time>
      </trkpt>
      <trkpt lat="47.26278" lon="-1.92487">
        <ele>48</ele>
        <time>2021-06-05T12:47:16.000Z</time>
      </trkpt>
      <trkpt lat="47.26273" lon="-1.92467">
        <ele>48</ele>
        <time>2021-06-05T12:47:18.000Z</time>
      </trkpt>
      <trkpt lat="47.26268" lon="-1.92448">
        <ele>48</ele>
        <time>2021-06-05T12:47:20.000Z</time>
      </trkpt>
      <trkpt lat="47.26263" lon="-1.92428">
        <ele>48</ele>
        <time>2021-06-05T12:47:22.000Z</time>
      </trkpt>
      <trkpt lat="47.26257" lon="-1.92409">
        <ele>48</ele>
        <time>2021-06-05T12:47:24.000Z</time>
      </trkpt>
      <trkpt lat="47.26251" lon="-1.9239">
        <ele>49</ele>
        <time>2021-06-05T12:47:26.000Z</time>
      </trkpt>
      <trkpt lat="47.26246" lon="-1.92372">
        <ele>49</ele>
        <time>2021-06-05T12:47:28.000Z</time>
      </trkpt>
      <trkpt lat="47.2624" lon="-1.92353">
        <ele>49</ele>
        <time>2021-06-05T12:47:30.000Z</time>
      </trkpt>
      <trkpt lat="47.26234" lon="-1.92334">
        <ele>49</ele>
        <time>2021-06-05T12:47:32.000Z</time>
      </trkpt>
      <trkpt lat="47.26228" lon="-1.92315">
        <ele>50</ele>
        <time>2021-06-05T12:47:34.000Z</time>
      </trkpt>
      <trkpt lat="47.26223" lon="-1.92297">
        <ele>50</ele>
        <time>2021-06-05T12:47:36.000Z</time>
      </trkpt>
      <trkpt lat="47.26217" lon="-1.92279">
        <ele>50</ele>
        <time>2021-06-05T12:47:38.000Z</time>
      </trkpt>
      <trkpt lat="47.26211" lon="-1.92261">
        <ele>50</ele>
        <time>2021-06-05T12:47:40.000Z</time>
      </trkpt>
      <trkpt lat="47.26204" lon="-1.92244">
        <ele>51</ele>
        <time>2021-06-05T12:47:42.000Z</time>
      </trkpt>
      <trkpt lat="47.26198" lon="-1.92225">
        <ele>50</ele>
        <time>2021-06-05T12:47:44.000Z</time>
      </trkpt>
      <trkpt lat="47.26192" lon="-1.92207">
        <ele>50</ele>
        <time>2021-06-05T12:47:46.000Z</time>
      </trkpt>
      <trkpt lat="47.26185" lon="-1.92188">
        <ele>49</ele>
        <time>2021-06-05T12:47:48.000Z</time>
      </trkpt>
      <trkpt lat="47.26179" lon="-1.9217">
        <ele>49</ele>
        <time>2021-06-05T12:47:50.000Z</time>
      </trkpt>
      <trkpt lat="47.26173" lon="-1.92152">
        <ele>49</ele>
        <time>2021-06-05T12:47:52.000Z</time>
      </trkpt>
      <trkpt lat="47.26167" lon="-1.92134">
        <ele>49</ele>
        <time>2021-06-05T12:47:54.000Z</time>
      </trkpt>
      <trkpt lat="47.26161" lon="-1.92116">
        <ele>49</ele>
        <time>2021-06-05T12:47:56.000Z</time>
      </trkpt>
      <trkpt lat="47.26154" lon="-1.92098">
        <ele>49</ele>
        <time>2021-06-05T12:47:58.000Z</time>
      </trkpt>
      <trkpt lat="47.26148" lon="-1.9208">
        <ele>49</ele>
        <time>2021-06-05T12:48:00.000Z</time>
      </trkpt>
      <trkpt lat="47.26141" lon="-1.92063">
        <ele>49</ele>
        <time>2021-06-05T12:48:02.000Z</time>
      </trkpt>
      <trkpt lat="47.26134" lon="-1.92045">
        <ele>49</ele>
        <time>2021-06-05T12:48:04.000Z</time>
      </trkpt>
      <trkpt lat="47.26128" lon="-1.92028">
        <ele>49</ele>
        <time>2021-06-05T12:48:06.000Z</time>
      </trkpt>
      <trkpt lat="47.2612" lon="-1.92012">
        <ele>49</ele>
        <time>2021-06-05T12:48:08.000Z</time>
      </trkpt>
      <trkpt lat="47.26113" lon="-1.91997">
        <ele>49</ele>
        <time>2021-06-05T12:48:10.000Z</time>
      </trkpt>
      <trkpt lat="47.26109" lon="-1.9198">
        <ele>49</ele>
        <time>2021-06-05T12:48:12.000Z</time>
      </trkpt>
      <trkpt lat="47.26105" lon="-1.91961">
        <ele>50</ele>
        <time>2021-06-05T12:48:14.000Z</time>
      </trkpt>
      <trkpt lat="47.26098" lon="-1.91944">
        <ele>50</ele>
        <time>2021-06-05T12:48:16.000Z</time>
      </trkpt>
      <trkpt lat="47.26089" lon="-1.91928">
        <ele>50</ele>
        <time>2021-06-05T12:48:18.000Z</time>
      </trkpt>
      <trkpt lat="47.2608" lon="-1.91914">
        <ele>50</ele>
        <time>2021-06-05T12:48:20.000Z</time>
      </trkpt>
      <trkpt lat="47.26072" lon="-1.91899">
        <ele>51</ele>
        <time>2021-06-05T12:48:22.000Z</time>
      </trkpt>
      <trkpt lat="47.26066" lon="-1.91882">
        <ele>50</ele>
        <time>2021-06-05T12:48:24.000Z</time>
      </trkpt>
      <trkpt lat="47.26061" lon="-1.91865">
        <ele>50</ele>
        <time>2021-06-05T12:48:26.000Z</time>
      </trkpt>
      <trkpt lat="47.26055" lon="-1.91846">
        <ele>50</ele>
        <time>2021-06-05T12:48:28.000Z</time>
      </trkpt>
      <trkpt lat="47.26048" lon="-1.91828">
        <ele>50</ele>
        <time>2021-06-05T12:48:30.000Z</time>
      </trkpt>
      <trkpt lat="47.2604" lon="-1.91811">
        <ele>49</ele>
        <time>2021-06-05T12:48:32.000Z</time>
      </trkpt>
      <trkpt lat="47.26032" lon="-1.91793">
        <ele>50</ele>
        <time>2021-06-05T12:48:34.000Z</time>
      </trkpt>
      <trkpt lat="47.26023" lon="-1.91777">
        <ele>49</ele>
        <time>2021-06-05T12:48:36.000Z</time>
      </trkpt>
      <trkpt lat="47.26015" lon="-1.9176">
        <ele>49</ele>
        <time>2021-06-05T12:48:38.000Z</time>
      </trkpt>
      <trkpt lat="47.26008" lon="-1.91745">
        <ele>50</ele>
        <time>2021-06-05T12:48:40.000Z</time>
      </trkpt>
      <trkpt lat="47.25999" lon="-1.91729">
        <ele>50</ele>
        <time>2021-06-05T12:48:42.000Z</time>
      </trkpt>
      <trkpt lat="47.2599" lon="-1.91713">
        <ele>49</ele>
        <time>2021-06-05T12:48:44.000Z</time>
      </trkpt>
      <trkpt lat="47.25981" lon="-1.91695">
        <ele>49</ele>
        <time>2021-06-05T12:48:46.000Z</time>
      </trkpt>
      <trkpt lat="47.25973" lon="-1.91678">
        <ele>49</ele>
        <time>2021-06-05T12:48:48.000Z</time>
      </trkpt>
      <trkpt lat="47.25964" lon="-1.91662">
        <ele>49</ele>
        <time>2021-06-05T12:48:50.000Z</time>
      </trkpt>
      <trkpt lat="47.25956" lon="-1.91646">
        <ele>49</ele>
        <time>2021-06-05T12:48:52.000Z</time>
      </trkpt>
      <trkpt lat="47.25948" lon="-1.91629">
        <ele>49</ele>
        <time>2021-06-05T12:48:54.000Z</time>
      </trkpt>
      <trkpt lat="47.25939" lon="-1.91613">
        <ele>49</ele>
        <time>2021-06-05T12:48:56.000Z</time>
      </trkpt>
      <trkpt lat="47.2593" lon="-1.91597">
        <ele>48</ele>
        <time>2021-06-05T12:48:58.000Z</time>
      </trkpt>
      <trkpt lat="47.25922" lon="-1.91583">
        <ele>49</ele>
        <time>2021-06-05T12:49:00.000Z</time>
      </trkpt>
      <trkpt lat="47.25914" lon="-1.91567">
        <ele>49</ele>
        <time>2021-06-05T12:49:02.000Z</time>
      </trkpt>
      <trkpt lat="47.25906" lon="-1.91552">
        <ele>49</ele>
        <time>2021-06-05T12:49:04.000Z</time>
      </trkpt>
      <trkpt lat="47.25897" lon="-1.91536">
        <ele>49</ele>
        <time>2021-06-05T12:49:06.000Z</time>
      </trkpt>
      <trkpt lat="47.25889" lon="-1.91521">
        <ele>49</ele>
        <time>2021-06-05T12:49:08.000Z</time>
      </trkpt>
      <trkpt lat="47.25881" lon="-1.91506">
        <ele>48</ele>
        <time>2021-06-05T12:49:10.000Z</time>
      </trkpt>
      <trkpt lat="47.25872" lon="-1.9149">
        <ele>49</ele>
        <time>2021-06-05T12:49:12.000Z</time>
      </trkpt>
      <trkpt lat="47.25864" lon="-1.91475">
        <ele>49</ele>
        <time>2021-06-05T12:49:14.000Z</time>
      </trkpt>
      <trkpt lat="47.25855" lon="-1.91459">
        <ele>48</ele>
        <time>2021-06-05T12:49:16.000Z</time>
      </trkpt>
      <trkpt lat="47.25846" lon="-1.91443">
        <ele>49</ele>
        <time>2021-06-05T12:49:18.000Z</time>
      </trkpt>
      <trkpt lat="47.25838" lon="-1.91429">
        <ele>49</ele>
        <time>2021-06-05T12:49:20.000Z</time>
      </trkpt>
      <trkpt lat="47.25829" lon="-1.91413">
        <ele>49</ele>
        <time>2021-06-05T12:49:22.000Z</time>
      </trkpt>
      <trkpt lat="47.25821" lon="-1.91397">
        <ele>49</ele>
        <time>2021-06-05T12:49:24.000Z</time>
      </trkpt>
      <trkpt lat="47.25812" lon="-1.91382">
        <ele>49</ele>
        <time>2021-06-05T12:49:26.000Z</time>
      </trkpt>
      <trkpt lat="47.25803" lon="-1.91369">
        <ele>49</ele>
        <time>2021-06-05T12:49:28.000Z</time>
      </trkpt>
      <trkpt lat="47.25794" lon="-1.91353">
        <ele>49</ele>
        <time>2021-06-05T12:49:30.000Z</time>
      </trkpt>
      <trkpt lat="47.25786" lon="-1.91337">
        <ele>49</ele>
        <time>2021-06-05T12:49:32.000Z</time>
      </trkpt>
      <trkpt lat="47.25777" lon="-1.91321">
        <ele>49</ele>
        <time>2021-06-05T12:49:34.000Z</time>
      </trkpt>
      <trkpt lat="47.25769" lon="-1.91304">
        <ele>49</ele>
        <time>2021-06-05T12:49:36.000Z</time>
      </trkpt>
      <trkpt lat="47.2576" lon="-1.91288">
        <ele>49</ele>
        <time>2021-06-05T12:49:38.000Z</time>
      </trkpt>
      <trkpt lat="47.25751" lon="-1.91272">
        <ele>49</ele>
        <time>2021-06-05T12:49:40.000Z</time>
      </trkpt>
      <trkpt lat="47.25743" lon="-1.91257">
        <ele>48</ele>
        <time>2021-06-05T12:49:42.000Z</time>
      </trkpt>
      <trkpt lat="47.25733" lon="-1.91241">
        <ele>48</ele>
        <time>2021-06-05T12:49:44.000Z</time>
      </trkpt>
      <trkpt lat="47.25725" lon="-1.91226">
        <ele>48</ele>
        <time>2021-06-05T12:49:46.000Z</time>
      </trkpt>
      <trkpt lat="47.25717" lon="-1.9121">
        <ele>48</ele>
        <time>2021-06-05T12:49:48.000Z</time>
      </trkpt>
      <trkpt lat="47.25709" lon="-1.91195">
        <ele>48</ele>
        <time>2021-06-05T12:49:50.000Z</time>
      </trkpt>
      <trkpt lat="47.257" lon="-1.91179">
        <ele>48</ele>
        <time>2021-06-05T12:49:52.000Z</time>
      </trkpt>
      <trkpt lat="47.25692" lon="-1.91164">
        <ele>48</ele>
        <time>2021-06-05T12:49:54.000Z</time>
      </trkpt>
      <trkpt lat="47.25684" lon="-1.91149">
        <ele>49</ele>
        <time>2021-06-05T12:49:56.000Z</time>
      </trkpt>
      <trkpt lat="47.25676" lon="-1.91134">
        <ele>49</ele>
        <time>2021-06-05T12:49:58.000Z</time>
      </trkpt>
      <trkpt lat="47.25667" lon="-1.91118">
        <ele>49</ele>
        <time>2021-06-05T12:50:00.000Z</time>
      </trkpt>
      <trkpt lat="47.25659" lon="-1.91103">
        <ele>49</ele>
        <time>2021-06-05T12:50:02.000Z</time>
      </trkpt>
      <trkpt lat="47.25651" lon="-1.91087">
        <ele>49</ele>
        <time>2021-06-05T12:50:04.000Z</time>
      </trkpt>
      <trkpt lat="47.25642" lon="-1.91072">
        <ele>49</ele>
        <time>2021-06-05T12:50:06.000Z</time>
      </trkpt>
      <trkpt lat="47.25634" lon="-1.91057">
        <ele>49</ele>
        <time>2021-06-05T12:50:08.000Z</time>
      </trkpt>
      <trkpt lat="47.25625" lon="-1.91042">
        <ele>49</ele>
        <time>2021-06-05T12:50:10.000Z</time>
      </trkpt>
      <trkpt lat="47.25616" lon="-1.91026">
        <ele>48</ele>
        <time>2021-06-05T12:50:12.000Z</time>
      </trkpt>
      <trkpt lat="47.25608" lon="-1.91011">
        <ele>48</ele>
        <time>2021-06-05T12:50:14.000Z</time>
      </trkpt>
      <trkpt lat="47.256" lon="-1.90996">
        <ele>49</ele>
        <time>2021-06-05T12:50:16.000Z</time>
      </trkpt>
      <trkpt lat="47.25592" lon="-1.9098">
        <ele>48</ele>
        <time>2021-06-05T12:50:18.000Z</time>
      </trkpt>
      <trkpt lat="47.25583" lon="-1.90966">
        <ele>49</ele>
        <time>2021-06-05T12:50:20.000Z</time>
      </trkpt>
      <trkpt lat="47.25575" lon="-1.9095">
        <ele>49</ele>
        <time>2021-06-05T12:50:22.000Z</time>
      </trkpt>
      <trkpt lat="47.25567" lon="-1.90934">
        <ele>49</ele>
        <time>2021-06-05T12:50:24.000Z</time>
      </trkpt>
      <trkpt lat="47.25558" lon="-1.90919">
        <ele>49</ele>
        <time>2021-06-05T12:50:26.000Z</time>
      </trkpt>
      <trkpt lat="47.25549" lon="-1.90903">
        <ele>48</ele>
        <time>2021-06-05T12:50:28.000Z</time>
      </trkpt>
      <trkpt lat="47.25541" lon="-1.90888">
        <ele>48</ele>
        <time>2021-06-05T12:50:30.000Z</time>
      </trkpt>
      <trkpt lat="47.25533" lon="-1.90872">
        <ele>48</ele>
        <time>2021-06-05T12:50:32.000Z</time>
      </trkpt>
      <trkpt lat="47.25524" lon="-1.90857">
        <ele>48</ele>
        <time>2021-06-05T12:50:34.000Z</time>
      </trkpt>
      <trkpt lat="47.25516" lon="-1.90841">
        <ele>48</ele>
        <time>2021-06-05T12:50:36.000Z</time>
      </trkpt>
      <trkpt lat="47.25508" lon="-1.90827">
        <ele>48</ele>
        <time>2021-06-05T12:50:38.000Z</time>
      </trkpt>
      <trkpt lat="47.255" lon="-1.90812">
        <ele>49</ele>
        <time>2021-06-05T12:50:40.000Z</time>
      </trkpt>
      <trkpt lat="47.25493" lon="-1.90797">
        <ele>49</ele>
        <time>2021-06-05T12:50:42.000Z</time>
      </trkpt>
      <trkpt lat="47.25484" lon="-1.90782">
        <ele>49</ele>
        <time>2021-06-05T12:50:44.000Z</time>
      </trkpt>
      <trkpt lat="47.25476" lon="-1.90767">
        <ele>49</ele>
        <time>2021-06-05T12:50:46.000Z</time>
      </trkpt>
      <trkpt lat="47.25467" lon="-1.90751">
        <ele>49</ele>
        <time>2021-06-05T12:50:48.000Z</time>
      </trkpt>
      <trkpt lat="47.25459" lon="-1.90735">
        <ele>48</ele>
        <time>2021-06-05T12:50:50.000Z</time>
      </trkpt>
      <trkpt lat="47.2545" lon="-1.90719">
        <ele>48</ele>
        <time>2021-06-05T12:50:52.000Z</time>
      </trkpt>
      <trkpt lat="47.25441" lon="-1.90703">
        <ele>48</ele>
        <time>2021-06-05T12:50:54.000Z</time>
      </trkpt>
      <trkpt lat="47.25433" lon="-1.90688">
        <ele>49</ele>
        <time>2021-06-05T12:50:56.000Z</time>
      </trkpt>
      <trkpt lat="47.25424" lon="-1.90672">
        <ele>48</ele>
        <time>2021-06-05T12:50:58.000Z</time>
      </trkpt>
      <trkpt lat="47.25415" lon="-1.90656">
        <ele>48</ele>
        <time>2021-06-05T12:51:00.000Z</time>
      </trkpt>
      <trkpt lat="47.25407" lon="-1.9064">
        <ele>48</ele>
        <time>2021-06-05T12:51:02.000Z</time>
      </trkpt>
      <trkpt lat="47.25398" lon="-1.90625">
        <ele>48</ele>
        <time>2021-06-05T12:51:04.000Z</time>
      </trkpt>
      <trkpt lat="47.2539" lon="-1.90609">
        <ele>48</ele>
        <time>2021-06-05T12:51:06.000Z</time>
      </trkpt>
      <trkpt lat="47.25381" lon="-1.90595">
        <ele>48</ele>
        <time>2021-06-05T12:51:08.000Z</time>
      </trkpt>
      <trkpt lat="47.25372" lon="-1.90579">
        <ele>48</ele>
        <time>2021-06-05T12:51:10.000Z</time>
      </trkpt>
      <trkpt lat="47.25364" lon="-1.90564">
        <ele>48</ele>
        <time>2021-06-05T12:51:12.000Z</time>
      </trkpt>
      <trkpt lat="47.25355" lon="-1.90547">
        <ele>48</ele>
        <time>2021-06-05T12:51:14.000Z</time>
      </trkpt>
      <trkpt lat="47.25347" lon="-1.90531">
        <ele>48</ele>
        <time>2021-06-05T12:51:16.000Z</time>
      </trkpt>
      <trkpt lat="47.25338" lon="-1.90516">
        <ele>48</ele>
        <time>2021-06-05T12:51:18.000Z</time>
      </trkpt>
      <trkpt lat="47.25329" lon="-1.905">
        <ele>48</ele>
        <time>2021-06-05T12:51:20.000Z</time>
      </trkpt>
      <trkpt lat="47.2532" lon="-1.90484">
        <ele>48</ele>
        <time>2021-06-05T12:51:22.000Z</time>
      </trkpt>
      <trkpt lat="47.25311" lon="-1.90468">
        <ele>48</ele>
        <time>2021-06-05T12:51:24.000Z</time>
      </trkpt>
      <trkpt lat="47.25303" lon="-1.90452">
        <ele>48</ele>
        <time>2021-06-05T12:51:26.000Z</time>
      </trkpt>
      <trkpt lat="47.25294" lon="-1.90436">
        <ele>48</ele>
        <time>2021-06-05T12:51:28.000Z</time>
      </trkpt>
      <trkpt lat="47.25285" lon="-1.90421">
        <ele>48</ele>
        <time>2021-06-05T12:51:30.000Z</time>
      </trkpt>
      <trkpt lat="47.25276" lon="-1.90405">
        <ele>48</ele>
        <time>2021-06-05T12:51:32.000Z</time>
      </trkpt>
      <trkpt lat="47.25267" lon="-1.9039">
        <ele>48</ele>
        <time>2021-06-05T12:51:34.000Z</time>
      </trkpt>
      <trkpt lat="47.25259" lon="-1.90374">
        <ele>48</ele>
        <time>2021-06-05T12:51:36.000Z</time>
      </trkpt>
      <trkpt lat="47.2525" lon="-1.90358">
        <ele>48</ele>
        <time>2021-06-05T12:51:38.000Z</time>
      </trkpt>
      <trkpt lat="47.25242" lon="-1.90343">
        <ele>48</ele>
        <time>2021-06-05T12:51:40.000Z</time>
      </trkpt>
      <trkpt lat="47.25233" lon="-1.90327">
        <ele>48</ele>
        <time>2021-06-05T12:51:42.000Z</time>
      </trkpt>
      <trkpt lat="47.25224" lon="-1.90312">
        <ele>49</ele>
        <time>2021-06-05T12:51:44.000Z</time>
      </trkpt>
      <trkpt lat="47.25216" lon="-1.90296">
        <ele>49</ele>
        <time>2021-06-05T12:51:46.000Z</time>
      </trkpt>
      <trkpt lat="47.25207" lon="-1.90281">
        <ele>49</ele>
        <time>2021-06-05T12:51:48.000Z</time>
      </trkpt>
      <trkpt lat="47.25198" lon="-1.90265">
        <ele>49</ele>
        <time>2021-06-05T12:51:50.000Z</time>
      </trkpt>
      <trkpt lat="47.2519" lon="-1.90248">
        <ele>49</ele>
        <time>2021-06-05T12:51:52.000Z</time>
      </trkpt>
      <trkpt lat="47.25181" lon="-1.90232">
        <ele>49</ele>
        <time>2021-06-05T12:51:54.000Z</time>
      </trkpt>
      <trkpt lat="47.25172" lon="-1.90216">
        <ele>50</ele>
        <time>2021-06-05T12:51:56.000Z</time>
      </trkpt>
      <trkpt lat="47.25164" lon="-1.90201">
        <ele>50</ele>
        <time>2021-06-05T12:51:58.000Z</time>
      </trkpt>
      <trkpt lat="47.25154" lon="-1.90184">
        <ele>50</ele>
        <time>2021-06-05T12:52:00.000Z</time>
      </trkpt>
      <trkpt lat="47.25146" lon="-1.90168">
        <ele>49</ele>
        <time>2021-06-05T12:52:02.000Z</time>
      </trkpt>
      <trkpt lat="47.25137" lon="-1.90151">
        <ele>49</ele>
        <time>2021-06-05T12:52:04.000Z</time>
      </trkpt>
      <trkpt lat="47.25129" lon="-1.90137">
        <ele>49</ele>
        <time>2021-06-05T12:52:06.000Z</time>
      </trkpt>
      <trkpt lat="47.25118" lon="-1.90123">
        <ele>49</ele>
        <time>2021-06-05T12:52:08.000Z</time>
      </trkpt>
      <trkpt lat="47.25107" lon="-1.90114">
        <ele>50</ele>
        <time>2021-06-05T12:52:10.000Z</time>
      </trkpt>
      <trkpt lat="47.25093" lon="-1.90107">
        <ele>50</ele>
        <time>2021-06-05T12:52:12.000Z</time>
      </trkpt>
      <trkpt lat="47.25079" lon="-1.90102">
        <ele>50</ele>
        <time>2021-06-05T12:52:14.000Z</time>
      </trkpt>
      <trkpt lat="47.25067" lon="-1.90094">
        <ele>50</ele>
        <time>2021-06-05T12:52:16.000Z</time>
      </trkpt>
      <trkpt lat="47.25055" lon="-1.90083">
        <ele>50</ele>
        <time>2021-06-05T12:52:18.000Z</time>
      </trkpt>
      <trkpt lat="47.25045" lon="-1.90068">
        <ele>50</ele>
        <time>2021-06-05T12:52:20.000Z</time>
      </trkpt>
      <trkpt lat="47.25038" lon="-1.90052">
        <ele>50</ele>
        <time>2021-06-05T12:52:22.000Z</time>
      </trkpt>
      <trkpt lat="47.2503" lon="-1.90035">
        <ele>50</ele>
        <time>2021-06-05T12:52:24.000Z</time>
      </trkpt>
      <trkpt lat="47.25022" lon="-1.90018">
        <ele>50</ele>
        <time>2021-06-05T12:52:26.000Z</time>
      </trkpt>
      <trkpt lat="47.25015" lon="-1.90002">
        <ele>50</ele>
        <time>2021-06-05T12:52:28.000Z</time>
      </trkpt>
      <trkpt lat="47.25007" lon="-1.89986">
        <ele>50</ele>
        <time>2021-06-05T12:52:30.000Z</time>
      </trkpt>
      <trkpt lat="47.24998" lon="-1.8997">
        <ele>50</ele>
        <time>2021-06-05T12:52:32.000Z</time>
      </trkpt>
      <trkpt lat="47.24991" lon="-1.89954">
        <ele>50</ele>
        <time>2021-06-05T12:52:34.000Z</time>
      </trkpt>
      <trkpt lat="47.24984" lon="-1.89938">
        <ele>50</ele>
        <time>2021-06-05T12:52:36.000Z</time>
      </trkpt>
      <trkpt lat="47.24977" lon="-1.8992">
        <ele>50</ele>
        <time>2021-06-05T12:52:38.000Z</time>
      </trkpt>
      <trkpt lat="47.24974" lon="-1.89901">
        <ele>49</ele>
        <time>2021-06-05T12:52:40.000Z</time>
      </trkpt>
      <trkpt lat="47.24972" lon="-1.89882">
        <ele>50</ele>
        <time>2021-06-05T12:52:42.000Z</time>
      </trkpt>
      <trkpt lat="47.24972" lon="-1.89862">
        <ele>50</ele>
        <time>2021-06-05T12:52:44.000Z</time>
      </trkpt>
      <trkpt lat="47.24973" lon="-1.89841">
        <ele>50</ele>
        <time>2021-06-05T12:52:46.000Z</time>
      </trkpt>
      <trkpt lat="47.24972" lon="-1.8982">
        <ele>50</ele>
        <time>2021-06-05T12:52:48.000Z</time>
      </trkpt>
      <trkpt lat="47.24966" lon="-1.89801">
        <ele>49</ele>
        <time>2021-06-05T12:52:50.000Z</time>
      </trkpt>
      <trkpt lat="47.24959" lon="-1.89782">
        <ele>49</ele>
        <time>2021-06-05T12:52:52.000Z</time>
      </trkpt>
      <trkpt lat="47.24952" lon="-1.89765">
        <ele>49</ele>
        <time>2021-06-05T12:52:54.000Z</time>
      </trkpt>
      <trkpt lat="47.24944" lon="-1.89748">
        <ele>49</ele>
        <time>2021-06-05T12:52:56.000Z</time>
      </trkpt>
      <trkpt lat="47.24936" lon="-1.89731">
        <ele>49</ele>
        <time>2021-06-05T12:52:58.000Z</time>
      </trkpt>
      <trkpt lat="47.24929" lon="-1.89713">
        <ele>49</ele>
        <time>2021-06-05T12:53:00.000Z</time>
      </trkpt>
      <trkpt lat="47.24922" lon="-1.89696">
        <ele>50</ele>
        <time>2021-06-05T12:53:02.000Z</time>
      </trkpt>
      <trkpt lat="47.24915" lon="-1.89678">
        <ele>50</ele>
        <time>2021-06-05T12:53:04.000Z</time>
      </trkpt>
      <trkpt lat="47.24908" lon="-1.8966">
        <ele>49</ele>
        <time>2021-06-05T12:53:06.000Z</time>
      </trkpt>
      <trkpt lat="47.24901" lon="-1.89642">
        <ele>49</ele>
        <time>2021-06-05T12:53:08.000Z</time>
      </trkpt>
      <trkpt lat="47.24895" lon="-1.89624">
        <ele>49</ele>
        <time>2021-06-05T12:53:10.000Z</time>
      </trkpt>
      <trkpt lat="47.24888" lon="-1.89607">
        <ele>49</ele>
        <time>2021-06-05T12:53:12.000Z</time>
      </trkpt>
      <trkpt lat="47.24881" lon="-1.89589">
        <ele>49</ele>
        <time>2021-06-05T12:53:14.000Z</time>
      </trkpt>
      <trkpt lat="47.24873" lon="-1.89572">
        <ele>49</ele>
        <time>2021-06-05T12:53:16.000Z</time>
      </trkpt>
      <trkpt lat="47.24866" lon="-1.89554">
        <ele>49</ele>
        <time>2021-06-05T12:53:18.000Z</time>
      </trkpt>
      <trkpt lat="47.24858" lon="-1.89536">
        <ele>49</ele>
        <time>2021-06-05T12:53:20.000Z</time>
      </trkpt>
      <trkpt lat="47.24852" lon="-1.89518">
        <ele>49</ele>
        <time>2021-06-05T12:53:22.000Z</time>
      </trkpt>
      <trkpt lat="47.24844" lon="-1.895">
        <ele>48</ele>
        <time>2021-06-05T12:53:24.000Z</time>
      </trkpt>
      <trkpt lat="47.24837" lon="-1.89482">
        <ele>49</ele>
        <time>2021-06-05T12:53:26.000Z</time>
      </trkpt>
      <trkpt lat="47.2483" lon="-1.89465">
        <ele>48</ele>
        <time>2021-06-05T12:53:28.000Z</time>
      </trkpt>
      <trkpt lat="47.24822" lon="-1.89446">
        <ele>48</ele>
        <time>2021-06-05T12:53:30.000Z</time>
      </trkpt>
      <trkpt lat="47.24815" lon="-1.89429">
        <ele>48</ele>
        <time>2021-06-05T12:53:32.000Z</time>
      </trkpt>
      <trkpt lat="47.24809" lon="-1.89411">
        <ele>48</ele>
        <time>2021-06-05T12:53:34.000Z</time>
      </trkpt>
      <trkpt lat="47.24801" lon="-1.89394">
        <ele>48</ele>
        <time>2021-06-05T12:53:36.000Z</time>
      </trkpt>
      <trkpt lat="47.24794" lon="-1.89376">
        <ele>48</ele>
        <time>2021-06-05T12:53:38.000Z</time>
      </trkpt>
      <trkpt lat="47.24787" lon="-1.89358">
        <ele>48</ele>
        <time>2021-06-05T12:53:40.000Z</time>
      </trkpt>
      <trkpt lat="47.2478" lon="-1.89341">
        <ele>48</ele>
        <time>2021-06-05T12:53:42.000Z</time>
      </trkpt>
      <trkpt lat="47.24773" lon="-1.89323">
        <ele>49</ele>
        <time>2021-06-05T12:53:44.000Z</time>
      </trkpt>
      <trkpt lat="47.24766" lon="-1.89305">
        <ele>49</ele>
        <time>2021-06-05T12:53:46.000Z</time>
      </trkpt>
      <trkpt lat="47.24759" lon="-1.89287">
        <ele>48</ele>
        <time>2021-06-05T12:53:48.000Z</time>
      </trkpt>
      <trkpt lat="47.24752" lon="-1.8927">
        <ele>48</ele>
        <time>2021-06-05T12:53:50.000Z</time>
      </trkpt>
      <trkpt lat="47.24745" lon="-1.89253">
        <ele>48</ele>
        <time>2021-06-05T12:53:52.000Z</time>
      </trkpt>
      <trkpt lat="47.24738" lon="-1.89236">
        <ele>48</ele>
        <time>2021-06-05T12:53:54.000Z</time>
      </trkpt>
      <trkpt lat="47.24731" lon="-1.89218">
        <ele>48</ele>
        <time>2021-06-05T12:53:56.000Z</time>
      </trkpt>
      <trkpt lat="47.24724" lon="-1.89202">
        <ele>48</ele>
        <time>2021-06-05T12:53:58.000Z</time>
      </trkpt>
      <trkpt lat="47.24717" lon="-1.89185">
        <ele>48</ele>
        <time>2021-06-05T12:54:00.000Z</time>
      </trkpt>
      <trkpt lat="47.24711" lon="-1.89168">
        <ele>48</ele>
        <time>2021-06-05T12:54:02.000Z</time>
      </trkpt>
      <trkpt lat="47.24704" lon="-1.89149">
        <ele>49</ele>
        <time>2021-06-05T12:54:04.000Z</time>
      </trkpt>
      <trkpt lat="47.24697" lon="-1.89131">
        <ele>49</ele>
        <time>2021-06-05T12:54:06.000Z</time>
      </trkpt>
      <trkpt lat="47.2469" lon="-1.89114">
        <ele>49</ele>
        <time>2021-06-05T12:54:08.000Z</time>
      </trkpt>
      <trkpt lat="47.24684" lon="-1.89097">
        <ele>49</ele>
        <time>2021-06-05T12:54:10.000Z</time>
      </trkpt>
      <trkpt lat="47.24677" lon="-1.89079">
        <ele>49</ele>
        <time>2021-06-05T12:54:12.000Z</time>
      </trkpt>
      <trkpt lat="47.2467" lon="-1.89062">
        <ele>49</ele>
        <time>2021-06-05T12:54:14.000Z</time>
      </trkpt>
      <trkpt lat="47.24663" lon="-1.89045">
        <ele>49</ele>
        <time>2021-06-05T12:54:16.000Z</time>
      </trkpt>
      <trkpt lat="47.24655" lon="-1.89029">
        <ele>49</ele>
        <time>2021-06-05T12:54:18.000Z</time>
      </trkpt>
      <trkpt lat="47.24647" lon="-1.89011">
        <ele>49</ele>
        <time>2021-06-05T12:54:20.000Z</time>
      </trkpt>
      <trkpt lat="47.2464" lon="-1.88994">
        <ele>49</ele>
        <time>2021-06-05T12:54:22.000Z</time>
      </trkpt>
      <trkpt lat="47.24633" lon="-1.88977">
        <ele>50</ele>
        <time>2021-06-05T12:54:24.000Z</time>
      </trkpt>
      <trkpt lat="47.24627" lon="-1.88959">
        <ele>50</ele>
        <time>2021-06-05T12:54:26.000Z</time>
      </trkpt>
      <trkpt lat="47.2462" lon="-1.88942">
        <ele>50</ele>
        <time>2021-06-05T12:54:28.000Z</time>
      </trkpt>
      <trkpt lat="47.24613" lon="-1.88924">
        <ele>49</ele>
        <time>2021-06-05T12:54:30.000Z</time>
      </trkpt>
      <trkpt lat="47.24606" lon="-1.88908">
        <ele>50</ele>
        <time>2021-06-05T12:54:32.000Z</time>
      </trkpt>
      <trkpt lat="47.246" lon="-1.88891">
        <ele>50</ele>
        <time>2021-06-05T12:54:34.000Z</time>
      </trkpt>
      <trkpt lat="47.24593" lon="-1.88874">
        <ele>50</ele>
        <time>2021-06-05T12:54:36.000Z</time>
      </trkpt>
      <trkpt lat="47.24586" lon="-1.88858">
        <ele>50</ele>
        <time>2021-06-05T12:54:38.000Z</time>
      </trkpt>
      <trkpt lat="47.24579" lon="-1.88841">
        <ele>50</ele>
        <time>2021-06-05T12:54:40.000Z</time>
      </trkpt>
      <trkpt lat="47.24573" lon="-1.88825">
        <ele>50</ele>
        <time>2021-06-05T12:54:42.000Z</time>
      </trkpt>
      <trkpt lat="47.24566" lon="-1.88808">
        <ele>50</ele>
        <time>2021-06-05T12:54:44.000Z</time>
      </trkpt>
      <trkpt lat="47.2456" lon="-1.88791">
        <ele>50</ele>
        <time>2021-06-05T12:54:46.000Z</time>
      </trkpt>
      <trkpt lat="47.24552" lon="-1.88774">
        <ele>49</ele>
        <time>2021-06-05T12:54:48.000Z</time>
      </trkpt>
      <trkpt lat="47.24545" lon="-1.88757">
        <ele>49</ele>
        <time>2021-06-05T12:54:50.000Z</time>
      </trkpt>
      <trkpt lat="47.24538" lon="-1.8874">
        <ele>50</ele>
        <time>2021-06-05T12:54:52.000Z</time>
      </trkpt>
      <trkpt lat="47.24531" lon="-1.88723">
        <ele>50</ele>
        <time>2021-06-05T12:54:54.000Z</time>
      </trkpt>
      <trkpt lat="47.24524" lon="-1.88705">
        <ele>50</ele>
        <time>2021-06-05T12:54:56.000Z</time>
      </trkpt>
      <trkpt lat="47.24517" lon="-1.88688">
        <ele>49</ele>
        <time>2021-06-05T12:54:58.000Z</time>
      </trkpt>
      <trkpt lat="47.2451" lon="-1.8867">
        <ele>49</ele>
        <time>2021-06-05T12:55:00.000Z</time>
      </trkpt>
      <trkpt lat="47.24503" lon="-1.88653">
        <ele>49</ele>
        <time>2021-06-05T12:55:02.000Z</time>
      </trkpt>
      <trkpt lat="47.24496" lon="-1.88637">
        <ele>49</ele>
        <time>2021-06-05T12:55:04.000Z</time>
      </trkpt>
      <trkpt lat="47.2449" lon="-1.8862">
        <ele>49</ele>
        <time>2021-06-05T12:55:06.000Z</time>
      </trkpt>
      <trkpt lat="47.24483" lon="-1.88604">
        <ele>49</ele>
        <time>2021-06-05T12:55:08.000Z</time>
      </trkpt>
      <trkpt lat="47.24477" lon="-1.88588">
        <ele>49</ele>
        <time>2021-06-05T12:55:10.000Z</time>
      </trkpt>
      <trkpt lat="47.24469" lon="-1.88572">
        <ele>50</ele>
        <time>2021-06-05T12:55:12.000Z</time>
      </trkpt>
      <trkpt lat="47.24461" lon="-1.88555">
        <ele>49</ele>
        <time>2021-06-05T12:55:14.000Z</time>
      </trkpt>
      <trkpt lat="47.24454" lon="-1.88537">
        <ele>49</ele>
        <time>2021-06-05T12:55:16.000Z</time>
      </trkpt>
      <trkpt lat="47.24447" lon="-1.8852">
        <ele>50</ele>
        <time>2021-06-05T12:55:18.000Z</time>
      </trkpt>
      <trkpt lat="47.24439" lon="-1.88503">
        <ele>50</ele>
        <time>2021-06-05T12:55:20.000Z</time>
      </trkpt>
      <trkpt lat="47.24431" lon="-1.88486">
        <ele>49</ele>
        <time>2021-06-05T12:55:22.000Z</time>
      </trkpt>
      <trkpt lat="47.24424" lon="-1.88468">
        <ele>49</ele>
        <time>2021-06-05T12:55:24.000Z</time>
      </trkpt>
      <trkpt lat="47.24416" lon="-1.88451">
        <ele>49</ele>
        <time>2021-06-05T12:55:26.000Z</time>
      </trkpt>
      <trkpt lat="47.24408" lon="-1.88434">
        <ele>49</ele>
        <time>2021-06-05T12:55:28.000Z</time>
      </trkpt>
      <trkpt lat="47.24401" lon="-1.88417">
        <ele>49</ele>
        <time>2021-06-05T12:55:30.000Z</time>
      </trkpt>
      <trkpt lat="47.24393" lon="-1.88401">
        <ele>49</ele>
        <time>2021-06-05T12:55:32.000Z</time>
      </trkpt>
      <trkpt lat="47.24381" lon="-1.88377">
        <ele>50</ele>
        <time>2021-06-05T12:55:35.000Z</time>
      </trkpt>
      <trkpt lat="47.24373" lon="-1.8836">
        <ele>50</ele>
        <time>2021-06-05T12:55:37.000Z</time>
      </trkpt>
      <trkpt lat="47.24366" lon="-1.88343">
        <ele>50</ele>
        <time>2021-06-05T12:55:39.000Z</time>
      </trkpt>
      <trkpt lat="47.24358" lon="-1.88326">
        <ele>50</ele>
        <time>2021-06-05T12:55:41.000Z</time>
      </trkpt>
      <trkpt lat="47.2435" lon="-1.88309">
        <ele>50</ele>
        <time>2021-06-05T12:55:43.000Z</time>
      </trkpt>
      <trkpt lat="47.24342" lon="-1.88292">
        <ele>50</ele>
        <time>2021-06-05T12:55:45.000Z</time>
      </trkpt>
      <trkpt lat="47.24334" lon="-1.88276">
        <ele>50</ele>
        <time>2021-06-05T12:55:47.000Z</time>
      </trkpt>
      <trkpt lat="47.24326" lon="-1.88259">
        <ele>50</ele>
        <time>2021-06-05T12:55:49.000Z</time>
      </trkpt>
      <trkpt lat="47.24314" lon="-1.88234">
        <ele>50</ele>
        <time>2021-06-05T12:55:52.000Z</time>
      </trkpt>
      <trkpt lat="47.24306" lon="-1.88217">
        <ele>51</ele>
        <time>2021-06-05T12:55:54.000Z</time>
      </trkpt>
      <trkpt lat="47.24298" lon="-1.88201">
        <ele>51</ele>
        <time>2021-06-05T12:55:56.000Z</time>
      </trkpt>
      <trkpt lat="47.24291" lon="-1.88185">
        <ele>51</ele>
        <time>2021-06-05T12:55:58.000Z</time>
      </trkpt>
      <trkpt lat="47.24283" lon="-1.88169">
        <ele>51</ele>
        <time>2021-06-05T12:56:00.000Z</time>
      </trkpt>
      <trkpt lat="47.24275" lon="-1.88153">
        <ele>50</ele>
        <time>2021-06-05T12:56:02.000Z</time>
      </trkpt>
      <trkpt lat="47.24267" lon="-1.88138">
        <ele>50</ele>
        <time>2021-06-05T12:56:04.000Z</time>
      </trkpt>
      <trkpt lat="47.24259" lon="-1.88122">
        <ele>50</ele>
        <time>2021-06-05T12:56:06.000Z</time>
      </trkpt>
      <trkpt lat="47.24247" lon="-1.88098">
        <ele>50</ele>
        <time>2021-06-05T12:56:09.000Z</time>
      </trkpt>
      <trkpt lat="47.24239" lon="-1.88082">
        <ele>50</ele>
        <time>2021-06-05T12:56:11.000Z</time>
      </trkpt>
      <trkpt lat="47.24231" lon="-1.88067">
        <ele>50</ele>
        <time>2021-06-05T12:56:13.000Z</time>
      </trkpt>
      <trkpt lat="47.24223" lon="-1.88051">
        <ele>50</ele>
        <time>2021-06-05T12:56:15.000Z</time>
      </trkpt>
      <trkpt lat="47.24215" lon="-1.88035">
        <ele>50</ele>
        <time>2021-06-05T12:56:17.000Z</time>
      </trkpt>
      <trkpt lat="47.24208" lon="-1.88019">
        <ele>50</ele>
        <time>2021-06-05T12:56:19.000Z</time>
      </trkpt>
      <trkpt lat="47.24197" lon="-1.87996">
        <ele>50</ele>
        <time>2021-06-05T12:56:22.000Z</time>
      </trkpt>
      <trkpt lat="47.24189" lon="-1.87981">
        <ele>50</ele>
        <time>2021-06-05T12:56:24.000Z</time>
      </trkpt>
      <trkpt lat="47.24181" lon="-1.87965">
        <ele>50</ele>
        <time>2021-06-05T12:56:26.000Z</time>
      </trkpt>
      <trkpt lat="47.2417" lon="-1.87941">
        <ele>50</ele>
        <time>2021-06-05T12:56:29.000Z</time>
      </trkpt>
      <trkpt lat="47.24161" lon="-1.87925">
        <ele>50</ele>
        <time>2021-06-05T12:56:31.000Z</time>
      </trkpt>
      <trkpt lat="47.24153" lon="-1.8791">
        <ele>50</ele>
        <time>2021-06-05T12:56:33.000Z</time>
      </trkpt>
      <trkpt lat="47.24145" lon="-1.87893">
        <ele>50</ele>
        <time>2021-06-05T12:56:35.000Z</time>
      </trkpt>
      <trkpt lat="47.24137" lon="-1.87877">
        <ele>50</ele>
        <time>2021-06-05T12:56:37.000Z</time>
      </trkpt>
      <trkpt lat="47.24129" lon="-1.87861">
        <ele>50</ele>
        <time>2021-06-05T12:56:39.000Z</time>
      </trkpt>
      <trkpt lat="47.24121" lon="-1.87845">
        <ele>50</ele>
        <time>2021-06-05T12:56:41.000Z</time>
      </trkpt>
      <trkpt lat="47.24113" lon="-1.87829">
        <ele>50</ele>
        <time>2021-06-05T12:56:43.000Z</time>
      </trkpt>
      <trkpt lat="47.24105" lon="-1.87812">
        <ele>50</ele>
        <time>2021-06-05T12:56:45.000Z</time>
      </trkpt>
      <trkpt lat="47.24097" lon="-1.87797">
        <ele>50</ele>
        <time>2021-06-05T12:56:47.000Z</time>
      </trkpt>
      <trkpt lat="47.24089" lon="-1.87781">
        <ele>50</ele>
        <time>2021-06-05T12:56:49.000Z</time>
      </trkpt>
      <trkpt lat="47.24076" lon="-1.87757">
        <ele>50</ele>
        <time>2021-06-05T12:56:52.000Z</time>
      </trkpt>
      <trkpt lat="47.24068" lon="-1.8774">
        <ele>50</ele>
        <time>2021-06-05T12:56:54.000Z</time>
      </trkpt>
      <trkpt lat="47.2406" lon="-1.87724">
        <ele>50</ele>
        <time>2021-06-05T12:56:56.000Z</time>
      </trkpt>
      <trkpt lat="47.24051" lon="-1.87707">
        <ele>50</ele>
        <time>2021-06-05T12:56:58.000Z</time>
      </trkpt>
      <trkpt lat="47.24043" lon="-1.87689">
        <ele>49</ele>
        <time>2021-06-05T12:57:00.000Z</time>
      </trkpt>
      <trkpt lat="47.24035" lon="-1.87674">
        <ele>49</ele>
        <time>2021-06-05T12:57:02.000Z</time>
      </trkpt>
      <trkpt lat="47.24027" lon="-1.87658">
        <ele>49</ele>
        <time>2021-06-05T12:57:04.000Z</time>
      </trkpt>
      <trkpt lat="47.24019" lon="-1.87642">
        <ele>49</ele>
        <time>2021-06-05T12:57:06.000Z</time>
      </trkpt>
      <trkpt lat="47.24011" lon="-1.87626">
        <ele>50</ele>
        <time>2021-06-05T12:57:08.000Z</time>
      </trkpt>
      <trkpt lat="47.24003" lon="-1.87611">
        <ele>50</ele>
        <time>2021-06-05T12:57:10.000Z</time>
      </trkpt>
      <trkpt lat="47.23995" lon="-1.87595">
        <ele>51</ele>
        <time>2021-06-05T12:57:12.000Z</time>
      </trkpt>
      <trkpt lat="47.23987" lon="-1.87579">
        <ele>51</ele>
        <time>2021-06-05T12:57:14.000Z</time>
      </trkpt>
      <trkpt lat="47.23979" lon="-1.87563">
        <ele>51</ele>
        <time>2021-06-05T12:57:16.000Z</time>
      </trkpt>
      <trkpt lat="47.23971" lon="-1.87547">
        <ele>51</ele>
        <time>2021-06-05T12:57:18.000Z</time>
      </trkpt>
      <trkpt lat="47.23963" lon="-1.87531">
        <ele>52</ele>
        <time>2021-06-05T12:57:20.000Z</time>
      </trkpt>
      <trkpt lat="47.23955" lon="-1.87515">
        <ele>52</ele>
        <time>2021-06-05T12:57:22.000Z</time>
      </trkpt>
      <trkpt lat="47.23947" lon="-1.87499">
        <ele>52</ele>
        <time>2021-06-05T12:57:24.000Z</time>
      </trkpt>
      <trkpt lat="47.23939" lon="-1.87482">
        <ele>52</ele>
        <time>2021-06-05T12:57:26.000Z</time>
      </trkpt>
      <trkpt lat="47.23931" lon="-1.87466">
        <ele>52</ele>
        <time>2021-06-05T12:57:28.000Z</time>
      </trkpt>
      <trkpt lat="47.23923" lon="-1.8745">
        <ele>52</ele>
        <time>2021-06-05T12:57:30.000Z</time>
      </trkpt>
      <trkpt lat="47.23915" lon="-1.87434">
        <ele>52</ele>
        <time>2021-06-05T12:57:32.000Z</time>
      </trkpt>
      <trkpt lat="47.23907" lon="-1.87419">
        <ele>52</ele>
        <time>2021-06-05T12:57:34.000Z</time>
      </trkpt>
      <trkpt lat="47.239" lon="-1.87404">
        <ele>53</ele>
        <time>2021-06-05T12:57:36.000Z</time>
      </trkpt>
      <trkpt lat="47.23892" lon="-1.87388">
        <ele>53</ele>
        <time>2021-06-05T12:57:38.000Z</time>
      </trkpt>
      <trkpt lat="47.23884" lon="-1.87373">
        <ele>53</ele>
        <time>2021-06-05T12:57:40.000Z</time>
      </trkpt>
      <trkpt lat="47.23877" lon="-1.87356">
        <ele>52</ele>
        <time>2021-06-05T12:57:42.000Z</time>
      </trkpt>
      <trkpt lat="47.23869" lon="-1.87339">
        <ele>52</ele>
        <time>2021-06-05T12:57:44.000Z</time>
      </trkpt>
      <trkpt lat="47.23861" lon="-1.87323">
        <ele>52</ele>
        <time>2021-06-05T12:57:46.000Z</time>
      </trkpt>
      <trkpt lat="47.23854" lon="-1.87307">
        <ele>51</ele>
        <time>2021-06-05T12:57:48.000Z</time>
      </trkpt>
      <trkpt lat="47.23847" lon="-1.87292">
        <ele>51</ele>
        <time>2021-06-05T12:57:50.000Z</time>
      </trkpt>
      <trkpt lat="47.23839" lon="-1.87277">
        <ele>51</ele>
        <time>2021-06-05T12:57:52.000Z</time>
      </trkpt>
      <trkpt lat="47.23831" lon="-1.87261">
        <ele>51</ele>
        <time>2021-06-05T12:57:54.000Z</time>
      </trkpt>
      <trkpt lat="47.23825" lon="-1.87242">
        <ele>51</ele>
        <time>2021-06-05T12:57:56.000Z</time>
      </trkpt>
      <trkpt lat="47.23818" lon="-1.87224">
        <ele>51</ele>
        <time>2021-06-05T12:57:58.000Z</time>
      </trkpt>
      <trkpt lat="47.23811" lon="-1.87206">
        <ele>51</ele>
        <time>2021-06-05T12:58:00.000Z</time>
      </trkpt>
      <trkpt lat="47.23802" lon="-1.87189">
        <ele>52</ele>
        <time>2021-06-05T12:58:02.000Z</time>
      </trkpt>
      <trkpt lat="47.23793" lon="-1.87172">
        <ele>52</ele>
        <time>2021-06-05T12:58:04.000Z</time>
      </trkpt>
      <trkpt lat="47.23782" lon="-1.87157">
        <ele>52</ele>
        <time>2021-06-05T12:58:06.000Z</time>
      </trkpt>
      <trkpt lat="47.23773" lon="-1.87142">
        <ele>52</ele>
        <time>2021-06-05T12:58:08.000Z</time>
      </trkpt>
      <trkpt lat="47.23763" lon="-1.87126">
        <ele>52</ele>
        <time>2021-06-05T12:58:10.000Z</time>
      </trkpt>
      <trkpt lat="47.23755" lon="-1.87109">
        <ele>52</ele>
        <time>2021-06-05T12:58:12.000Z</time>
      </trkpt>
      <trkpt lat="47.23746" lon="-1.87093">
        <ele>52</ele>
        <time>2021-06-05T12:58:14.000Z</time>
      </trkpt>
      <trkpt lat="47.23737" lon="-1.87076">
        <ele>52</ele>
        <time>2021-06-05T12:58:16.000Z</time>
      </trkpt>
      <trkpt lat="47.23729" lon="-1.87058">
        <ele>52</ele>
        <time>2021-06-05T12:58:18.000Z</time>
      </trkpt>
      <trkpt lat="47.23721" lon="-1.87041">
        <ele>52</ele>
        <time>2021-06-05T12:58:20.000Z</time>
      </trkpt>
      <trkpt lat="47.23713" lon="-1.87024">
        <ele>53</ele>
        <time>2021-06-05T12:58:22.000Z</time>
      </trkpt>
      <trkpt lat="47.23705" lon="-1.87007">
        <ele>53</ele>
        <time>2021-06-05T12:58:24.000Z</time>
      </trkpt>
      <trkpt lat="47.23696" lon="-1.86991">
        <ele>52</ele>
        <time>2021-06-05T12:58:26.000Z</time>
      </trkpt>
      <trkpt lat="47.23688" lon="-1.86974">
        <ele>52</ele>
        <time>2021-06-05T12:58:28.000Z</time>
      </trkpt>
      <trkpt lat="47.2368" lon="-1.86956">
        <ele>52</ele>
        <time>2021-06-05T12:58:30.000Z</time>
      </trkpt>
      <trkpt lat="47.23672" lon="-1.86939">
        <ele>52</ele>
        <time>2021-06-05T12:58:32.000Z</time>
      </trkpt>
      <trkpt lat="47.23664" lon="-1.86923">
        <ele>51</ele>
        <time>2021-06-05T12:58:34.000Z</time>
      </trkpt>
      <trkpt lat="47.23656" lon="-1.86907">
        <ele>51</ele>
        <time>2021-06-05T12:58:36.000Z</time>
      </trkpt>
      <trkpt lat="47.23648" lon="-1.86891">
        <ele>51</ele>
        <time>2021-06-05T12:58:38.000Z</time>
      </trkpt>
      <trkpt lat="47.2364" lon="-1.86876">
        <ele>52</ele>
        <time>2021-06-05T12:58:40.000Z</time>
      </trkpt>
      <trkpt lat="47.23632" lon="-1.8686">
        <ele>52</ele>
        <time>2021-06-05T12:58:42.000Z</time>
      </trkpt>
      <trkpt lat="47.23624" lon="-1.86843">
        <ele>52</ele>
        <time>2021-06-05T12:58:44.000Z</time>
      </trkpt>
      <trkpt lat="47.23616" lon="-1.86826">
        <ele>51</ele>
        <time>2021-06-05T12:58:46.000Z</time>
      </trkpt>
      <trkpt lat="47.23607" lon="-1.8681">
        <ele>51</ele>
        <time>2021-06-05T12:58:48.000Z</time>
      </trkpt>
      <trkpt lat="47.23599" lon="-1.86793">
        <ele>51</ele>
        <time>2021-06-05T12:58:50.000Z</time>
      </trkpt>
      <trkpt lat="47.23591" lon="-1.86778">
        <ele>51</ele>
        <time>2021-06-05T12:58:52.000Z</time>
      </trkpt>
      <trkpt lat="47.23583" lon="-1.86761">
        <ele>51</ele>
        <time>2021-06-05T12:58:54.000Z</time>
      </trkpt>
      <trkpt lat="47.23575" lon="-1.86744">
        <ele>51</ele>
        <time>2021-06-05T12:58:56.000Z</time>
      </trkpt>
      <trkpt lat="47.23568" lon="-1.86728">
        <ele>51</ele>
        <time>2021-06-05T12:58:58.000Z</time>
      </trkpt>
      <trkpt lat="47.2356" lon="-1.86712">
        <ele>51</ele>
        <time>2021-06-05T12:59:00.000Z</time>
      </trkpt>
      <trkpt lat="47.23552" lon="-1.86697">
        <ele>52</ele>
        <time>2021-06-05T12:59:02.000Z</time>
      </trkpt>
      <trkpt lat="47.23543" lon="-1.86682">
        <ele>51</ele>
        <time>2021-06-05T12:59:04.000Z</time>
      </trkpt>
      <trkpt lat="47.23535" lon="-1.86664">
        <ele>51</ele>
        <time>2021-06-05T12:59:06.000Z</time>
      </trkpt>
      <trkpt lat="47.23527" lon="-1.86647">
        <ele>50</ele>
        <time>2021-06-05T12:59:08.000Z</time>
      </trkpt>
      <trkpt lat="47.23518" lon="-1.8663">
        <ele>50</ele>
        <time>2021-06-05T12:59:10.000Z</time>
      </trkpt>
      <trkpt lat="47.23509" lon="-1.86614">
        <ele>50</ele>
        <time>2021-06-05T12:59:12.000Z</time>
      </trkpt>
      <trkpt lat="47.23501" lon="-1.86598">
        <ele>49</ele>
        <time>2021-06-05T12:59:14.000Z</time>
      </trkpt>
      <trkpt lat="47.23493" lon="-1.86581">
        <ele>49</ele>
        <time>2021-06-05T12:59:16.000Z</time>
      </trkpt>
      <trkpt lat="47.23485" lon="-1.86565">
        <ele>49</ele>
        <time>2021-06-05T12:59:18.000Z</time>
      </trkpt>
      <trkpt lat="47.23476" lon="-1.86549">
        <ele>49</ele>
        <time>2021-06-05T12:59:20.000Z</time>
      </trkpt>
      <trkpt lat="47.23468" lon="-1.86532">
        <ele>49</ele>
        <time>2021-06-05T12:59:22.000Z</time>
      </trkpt>
      <trkpt lat="47.23461" lon="-1.86515">
        <ele>49</ele>
        <time>2021-06-05T12:59:24.000Z</time>
      </trkpt>
      <trkpt lat="47.23452" lon="-1.86499">
        <ele>49</ele>
        <time>2021-06-05T12:59:26.000Z</time>
      </trkpt>
      <trkpt lat="47.23444" lon="-1.86483">
        <ele>49</ele>
        <time>2021-06-05T12:59:28.000Z</time>
      </trkpt>
      <trkpt lat="47.23436" lon="-1.86467">
        <ele>49</ele>
        <time>2021-06-05T12:59:30.000Z</time>
      </trkpt>
      <trkpt lat="47.23428" lon="-1.86451">
        <ele>49</ele>
        <time>2021-06-05T12:59:32.000Z</time>
      </trkpt>
      <trkpt lat="47.2342" lon="-1.86435">
        <ele>49</ele>
        <time>2021-06-05T12:59:34.000Z</time>
      </trkpt>
      <trkpt lat="47.23412" lon="-1.86419">
        <ele>49</ele>
        <time>2021-06-05T12:59:36.000Z</time>
      </trkpt>
      <trkpt lat="47.23403" lon="-1.86402">
        <ele>49</ele>
        <time>2021-06-05T12:59:38.000Z</time>
      </trkpt>
      <trkpt lat="47.23395" lon="-1.86386">
        <ele>49</ele>
        <time>2021-06-05T12:59:40.000Z</time>
      </trkpt>
      <trkpt lat="47.23387" lon="-1.86368">
        <ele>49</ele>
        <time>2021-06-05T12:59:42.000Z</time>
      </trkpt>
      <trkpt lat="47.23379" lon="-1.86352">
        <ele>49</ele>
        <time>2021-06-05T12:59:44.000Z</time>
      </trkpt>
      <trkpt lat="47.2337" lon="-1.86335">
        <ele>49</ele>
        <time>2021-06-05T12:59:46.000Z</time>
      </trkpt>
      <trkpt lat="47.23362" lon="-1.86319">
        <ele>49</ele>
        <time>2021-06-05T12:59:48.000Z</time>
      </trkpt>
      <trkpt lat="47.23354" lon="-1.86303">
        <ele>49</ele>
        <time>2021-06-05T12:59:50.000Z</time>
      </trkpt>
      <trkpt lat="47.23345" lon="-1.86286">
        <ele>49</ele>
        <time>2021-06-05T12:59:52.000Z</time>
      </trkpt>
      <trkpt lat="47.23337" lon="-1.86269">
        <ele>48</ele>
        <time>2021-06-05T12:59:54.000Z</time>
      </trkpt>
      <trkpt lat="47.23328" lon="-1.86252">
        <ele>48</ele>
        <time>2021-06-05T12:59:56.000Z</time>
      </trkpt>
      <trkpt lat="47.2332" lon="-1.86236">
        <ele>48</ele>
        <time>2021-06-05T12:59:58.000Z</time>
      </trkpt>
      <trkpt lat="47.23312" lon="-1.86219">
        <ele>48</ele>
        <time>2021-06-05T13:00:00.000Z</time>
      </trkpt>
      <trkpt lat="47.23304" lon="-1.86203">
        <ele>49</ele>
        <time>2021-06-05T13:00:02.000Z</time>
      </trkpt>
      <trkpt lat="47.23295" lon="-1.86186">
        <ele>49</ele>
        <time>2021-06-05T13:00:04.000Z</time>
      </trkpt>
      <trkpt lat="47.23288" lon="-1.8617">
        <ele>49</ele>
        <time>2021-06-05T13:00:06.000Z</time>
      </trkpt>
      <trkpt lat="47.23279" lon="-1.86153">
        <ele>49</ele>
        <time>2021-06-05T13:00:08.000Z</time>
      </trkpt>
      <trkpt lat="47.23271" lon="-1.86136">
        <ele>48</ele>
        <time>2021-06-05T13:00:10.000Z</time>
      </trkpt>
      <trkpt lat="47.23263" lon="-1.86119">
        <ele>48</ele>
        <time>2021-06-05T13:00:12.000Z</time>
      </trkpt>
      <trkpt lat="47.23255" lon="-1.86103">
        <ele>48</ele>
        <time>2021-06-05T13:00:14.000Z</time>
      </trkpt>
      <trkpt lat="47.23247" lon="-1.86086">
        <ele>49</ele>
        <time>2021-06-05T13:00:16.000Z</time>
      </trkpt>
      <trkpt lat="47.23238" lon="-1.86069">
        <ele>48</ele>
        <time>2021-06-05T13:00:18.000Z</time>
      </trkpt>
      <trkpt lat="47.2323" lon="-1.86053">
        <ele>48</ele>
        <time>2021-06-05T13:00:20.000Z</time>
      </trkpt>
      <trkpt lat="47.23222" lon="-1.86037">
        <ele>48</ele>
        <time>2021-06-05T13:00:22.000Z</time>
      </trkpt>
      <trkpt lat="47.23213" lon="-1.86021">
        <ele>48</ele>
        <time>2021-06-05T13:00:24.000Z</time>
      </trkpt>
      <trkpt lat="47.23205" lon="-1.86004">
        <ele>48</ele>
        <time>2021-06-05T13:00:26.000Z</time>
      </trkpt>
      <trkpt lat="47.23197" lon="-1.85987">
        <ele>48</ele>
        <time>2021-06-05T13:00:28.000Z</time>
      </trkpt>
      <trkpt lat="47.23189" lon="-1.8597">
        <ele>48</ele>
        <time>2021-06-05T13:00:30.000Z</time>
      </trkpt>
      <trkpt lat="47.23181" lon="-1.85954">
        <ele>48</ele>
        <time>2021-06-05T13:00:32.000Z</time>
      </trkpt>
      <trkpt lat="47.23173" lon="-1.85938">
        <ele>49</ele>
        <time>2021-06-05T13:00:34.000Z</time>
      </trkpt>
      <trkpt lat="47.23164" lon="-1.85922">
        <ele>48</ele>
        <time>2021-06-05T13:00:36.000Z</time>
      </trkpt>
      <trkpt lat="47.23156" lon="-1.85905">
        <ele>48</ele>
        <time>2021-06-05T13:00:38.000Z</time>
      </trkpt>
      <trkpt lat="47.23147" lon="-1.85888">
        <ele>48</ele>
        <time>2021-06-05T13:00:40.000Z</time>
      </trkpt>
      <trkpt lat="47.23139" lon="-1.85871">
        <ele>48</ele>
        <time>2021-06-05T13:00:42.000Z</time>
      </trkpt>
      <trkpt lat="47.23131" lon="-1.85854">
        <ele>48</ele>
        <time>2021-06-05T13:00:44.000Z</time>
      </trkpt>
      <trkpt lat="47.23123" lon="-1.85838">
        <ele>48</ele>
        <time>2021-06-05T13:00:46.000Z</time>
      </trkpt>
      <trkpt lat="47.23115" lon="-1.85822">
        <ele>48</ele>
        <time>2021-06-05T13:00:48.000Z</time>
      </trkpt>
      <trkpt lat="47.23106" lon="-1.85806">
        <ele>48</ele>
        <time>2021-06-05T13:00:50.000Z</time>
      </trkpt>
      <trkpt lat="47.23098" lon="-1.85789">
        <ele>48</ele>
        <time>2021-06-05T13:00:52.000Z</time>
      </trkpt>
      <trkpt lat="47.2309" lon="-1.85772">
        <ele>48</ele>
        <time>2021-06-05T13:00:54.000Z</time>
      </trkpt>
      <trkpt lat="47.23081" lon="-1.85755">
        <ele>48</ele>
        <time>2021-06-05T13:00:56.000Z</time>
      </trkpt>
      <trkpt lat="47.23074" lon="-1.85738">
        <ele>48</ele>
        <time>2021-06-05T13:00:58.000Z</time>
      </trkpt>
      <trkpt lat="47.23065" lon="-1.85722">
        <ele>48</ele>
        <time>2021-06-05T13:01:00.000Z</time>
      </trkpt>
      <trkpt lat="47.23057" lon="-1.85706">
        <ele>48</ele>
        <time>2021-06-05T13:01:02.000Z</time>
      </trkpt>
      <trkpt lat="47.23049" lon="-1.8569">
        <ele>49</ele>
        <time>2021-06-05T13:01:04.000Z</time>
      </trkpt>
      <trkpt lat="47.2304" lon="-1.85674">
        <ele>49</ele>
        <time>2021-06-05T13:01:06.000Z</time>
      </trkpt>
      <trkpt lat="47.23032" lon="-1.85657">
        <ele>49</ele>
        <time>2021-06-05T13:01:08.000Z</time>
      </trkpt>
      <trkpt lat="47.23023" lon="-1.85641">
        <ele>50</ele>
        <time>2021-06-05T13:01:10.000Z</time>
      </trkpt>
      <trkpt lat="47.23015" lon="-1.85624">
        <ele>50</ele>
        <time>2021-06-05T13:01:12.000Z</time>
      </trkpt>
      <trkpt lat="47.23007" lon="-1.85607">
        <ele>50</ele>
        <time>2021-06-05T13:01:14.000Z</time>
      </trkpt>
      <trkpt lat="47.22998" lon="-1.85589">
        <ele>50</ele>
        <time>2021-06-05T13:01:16.000Z</time>
      </trkpt>
      <trkpt lat="47.2299" lon="-1.85573">
        <ele>50</ele>
        <time>2021-06-05T13:01:18.000Z</time>
      </trkpt>
      <trkpt lat="47.22982" lon="-1.85556">
        <ele>50</ele>
        <time>2021-06-05T13:01:20.000Z</time>
      </trkpt>
      <trkpt lat="47.22974" lon="-1.8554">
        <ele>50</ele>
        <time>2021-06-05T13:01:22.000Z</time>
      </trkpt>
      <trkpt lat="47.22966" lon="-1.85524">
        <ele>50</ele>
        <time>2021-06-05T13:01:24.000Z</time>
      </trkpt>
      <trkpt lat="47.22958" lon="-1.85508">
        <ele>50</ele>
        <time>2021-06-05T13:01:26.000Z</time>
      </trkpt>
      <trkpt lat="47.2295" lon="-1.85493">
        <ele>51</ele>
        <time>2021-06-05T13:01:28.000Z</time>
      </trkpt>
      <trkpt lat="47.22942" lon="-1.85477">
        <ele>52</ele>
        <time>2021-06-05T13:01:30.000Z</time>
      </trkpt>
      <trkpt lat="47.22934" lon="-1.85461">
        <ele>52</ele>
        <time>2021-06-05T13:01:32.000Z</time>
      </trkpt>
      <trkpt lat="47.22926" lon="-1.85445">
        <ele>52</ele>
        <time>2021-06-05T13:01:34.000Z</time>
      </trkpt>
      <trkpt lat="47.22919" lon="-1.85428">
        <ele>52</ele>
        <time>2021-06-05T13:01:36.000Z</time>
      </trkpt>
      <trkpt lat="47.22911" lon="-1.8541">
        <ele>51</ele>
        <time>2021-06-05T13:01:38.000Z</time>
      </trkpt>
      <trkpt lat="47.22902" lon="-1.85394">
        <ele>50</ele>
        <time>2021-06-05T13:01:40.000Z</time>
      </trkpt>
      <trkpt lat="47.22894" lon="-1.85378">
        <ele>51</ele>
        <time>2021-06-05T13:01:42.000Z</time>
      </trkpt>
      <trkpt lat="47.22885" lon="-1.85361">
        <ele>51</ele>
        <time>2021-06-05T13:01:44.000Z</time>
      </trkpt>
      <trkpt lat="47.22877" lon="-1.85344">
        <ele>50</ele>
        <time>2021-06-05T13:01:46.000Z</time>
      </trkpt>
      <trkpt lat="47.22868" lon="-1.85328">
        <ele>50</ele>
        <time>2021-06-05T13:01:48.000Z</time>
      </trkpt>
      <trkpt lat="47.22861" lon="-1.85312">
        <ele>50</ele>
        <time>2021-06-05T13:01:50.000Z</time>
      </trkpt>
      <trkpt lat="47.22853" lon="-1.85296">
        <ele>50</ele>
        <time>2021-06-05T13:01:52.000Z</time>
      </trkpt>
      <trkpt lat="47.22846" lon="-1.8528">
        <ele>50</ele>
        <time>2021-06-05T13:01:54.000Z</time>
      </trkpt>
      <trkpt lat="47.22837" lon="-1.85264">
        <ele>50</ele>
        <time>2021-06-05T13:01:56.000Z</time>
      </trkpt>
      <trkpt lat="47.22829" lon="-1.85249">
        <ele>50</ele>
        <time>2021-06-05T13:01:58.000Z</time>
      </trkpt>
      <trkpt lat="47.22821" lon="-1.85233">
        <ele>50</ele>
        <time>2021-06-05T13:02:00.000Z</time>
      </trkpt>
      <trkpt lat="47.22813" lon="-1.85218">
        <ele>50</ele>
        <time>2021-06-05T13:02:02.000Z</time>
      </trkpt>
      <trkpt lat="47.22806" lon="-1.85202">
        <ele>50</ele>
        <time>2021-06-05T13:02:04.000Z</time>
      </trkpt>
      <trkpt lat="47.22797" lon="-1.85185">
        <ele>50</ele>
        <time>2021-06-05T13:02:06.000Z</time>
      </trkpt>
      <trkpt lat="47.22789" lon="-1.85169">
        <ele>50</ele>
        <time>2021-06-05T13:02:08.000Z</time>
      </trkpt>
      <trkpt lat="47.22781" lon="-1.85152">
        <ele>50</ele>
        <time>2021-06-05T13:02:10.000Z</time>
      </trkpt>
      <trkpt lat="47.22773" lon="-1.85137">
        <ele>50</ele>
        <time>2021-06-05T13:02:12.000Z</time>
      </trkpt>
      <trkpt lat="47.22766" lon="-1.85121">
        <ele>50</ele>
        <time>2021-06-05T13:02:14.000Z</time>
      </trkpt>
      <trkpt lat="47.22758" lon="-1.85106">
        <ele>50</ele>
        <time>2021-06-05T13:02:16.000Z</time>
      </trkpt>
      <trkpt lat="47.2275" lon="-1.85089">
        <ele>50</ele>
        <time>2021-06-05T13:02:18.000Z</time>
      </trkpt>
      <trkpt lat="47.22742" lon="-1.85073">
        <ele>50</ele>
        <time>2021-06-05T13:02:20.000Z</time>
      </trkpt>
      <trkpt lat="47.22734" lon="-1.85056">
        <ele>50</ele>
        <time>2021-06-05T13:02:22.000Z</time>
      </trkpt>
      <trkpt lat="47.22726" lon="-1.85041">
        <ele>50</ele>
        <time>2021-06-05T13:02:24.000Z</time>
      </trkpt>
      <trkpt lat="47.22717" lon="-1.85024">
        <ele>50</ele>
        <time>2021-06-05T13:02:26.000Z</time>
      </trkpt>
      <trkpt lat="47.22709" lon="-1.85008">
        <ele>50</ele>
        <time>2021-06-05T13:02:28.000Z</time>
      </trkpt>
      <trkpt lat="47.22701" lon="-1.84992">
        <ele>50</ele>
        <time>2021-06-05T13:02:30.000Z</time>
      </trkpt>
      <trkpt lat="47.22694" lon="-1.84978">
        <ele>50</ele>
        <time>2021-06-05T13:02:32.000Z</time>
      </trkpt>
      <trkpt lat="47.22686" lon="-1.84963">
        <ele>50</ele>
        <time>2021-06-05T13:02:34.000Z</time>
      </trkpt>
      <trkpt lat="47.22678" lon="-1.84947">
        <ele>51</ele>
        <time>2021-06-05T13:02:36.000Z</time>
      </trkpt>
      <trkpt lat="47.2267" lon="-1.8493">
        <ele>51</ele>
        <time>2021-06-05T13:02:38.000Z</time>
      </trkpt>
      <trkpt lat="47.22662" lon="-1.84914">
        <ele>51</ele>
        <time>2021-06-05T13:02:40.000Z</time>
      </trkpt>
      <trkpt lat="47.22655" lon="-1.84899">
        <ele>51</ele>
        <time>2021-06-05T13:02:42.000Z</time>
      </trkpt>
      <trkpt lat="47.22647" lon="-1.84883">
        <ele>51</ele>
        <time>2021-06-05T13:02:44.000Z</time>
      </trkpt>
      <trkpt lat="47.22639" lon="-1.84867">
        <ele>51</ele>
        <time>2021-06-05T13:02:46.000Z</time>
      </trkpt>
      <trkpt lat="47.22631" lon="-1.84851">
        <ele>50</ele>
        <time>2021-06-05T13:02:48.000Z</time>
      </trkpt>
      <trkpt lat="47.22624" lon="-1.84836">
        <ele>50</ele>
        <time>2021-06-05T13:02:50.000Z</time>
      </trkpt>
      <trkpt lat="47.22616" lon="-1.84821">
        <ele>50</ele>
        <time>2021-06-05T13:02:52.000Z</time>
      </trkpt>
      <trkpt lat="47.22608" lon="-1.84805">
        <ele>50</ele>
        <time>2021-06-05T13:02:54.000Z</time>
      </trkpt>
      <trkpt lat="47.226" lon="-1.84789">
        <ele>50</ele>
        <time>2021-06-05T13:02:56.000Z</time>
      </trkpt>
      <trkpt lat="47.22591" lon="-1.84773">
        <ele>50</ele>
        <time>2021-06-05T13:02:58.000Z</time>
      </trkpt>
      <trkpt lat="47.22583" lon="-1.84757">
        <ele>50</ele>
        <time>2021-06-05T13:03:00.000Z</time>
      </trkpt>
      <trkpt lat="47.22575" lon="-1.84742">
        <ele>50</ele>
        <time>2021-06-05T13:03:02.000Z</time>
      </trkpt>
      <trkpt lat="47.22567" lon="-1.84729">
        <ele>52</ele>
        <time>2021-06-05T13:03:04.000Z</time>
      </trkpt>
      <trkpt lat="47.22559" lon="-1.84713">
        <ele>52</ele>
        <time>2021-06-05T13:03:06.000Z</time>
      </trkpt>
      <trkpt lat="47.2255" lon="-1.84699">
        <ele>52</ele>
        <time>2021-06-05T13:03:08.000Z</time>
      </trkpt>
      <trkpt lat="47.22542" lon="-1.84685">
        <ele>52</ele>
        <time>2021-06-05T13:03:10.000Z</time>
      </trkpt>
      <trkpt lat="47.22533" lon="-1.8467">
        <ele>51</ele>
        <time>2021-06-05T13:03:12.000Z</time>
      </trkpt>
      <trkpt lat="47.22522" lon="-1.84656">
        <ele>51</ele>
        <time>2021-06-05T13:03:14.000Z</time>
      </trkpt>
      <trkpt lat="47.2251" lon="-1.84645">
        <ele>51</ele>
        <time>2021-06-05T13:03:16.000Z</time>
      </trkpt>
      <trkpt lat="47.22498" lon="-1.84636">
        <ele>50</ele>
        <time>2021-06-05T13:03:18.000Z</time>
      </trkpt>
      <trkpt lat="47.22487" lon="-1.84626">
        <ele>51</ele>
        <time>2021-06-05T13:03:20.000Z</time>
      </trkpt>
      <trkpt lat="47.22476" lon="-1.84615">
        <ele>51</ele>
        <time>2021-06-05T13:03:22.000Z</time>
      </trkpt>
      <trkpt lat="47.22467" lon="-1.84601">
        <ele>51</ele>
        <time>2021-06-05T13:03:24.000Z</time>
      </trkpt>
      <trkpt lat="47.2246" lon="-1.84588">
        <ele>52</ele>
        <time>2021-06-05T13:03:26.000Z</time>
      </trkpt>
      <trkpt lat="47.22454" lon="-1.84575">
        <ele>52</ele>
        <time>2021-06-05T13:03:29.000Z</time>
      </trkpt>
      <trkpt lat="47.2245" lon="-1.84563">
        <ele>52</ele>
        <time>2021-06-05T13:04:49.000Z</time>
      </trkpt>
      <trkpt lat="47.22444" lon="-1.84553">
        <ele>52</ele>
        <time>2021-06-05T13:04:52.000Z</time>
      </trkpt>
      <trkpt lat="47.22437" lon="-1.8454">
        <ele>53</ele>
        <time>2021-06-05T13:04:54.000Z</time>
      </trkpt>
      <trkpt lat="47.22431" lon="-1.84526">
        <ele>53</ele>
        <time>2021-06-05T13:04:56.000Z</time>
      </trkpt>
      <trkpt lat="47.22424" lon="-1.84509">
        <ele>52</ele>
        <time>2021-06-05T13:04:58.000Z</time>
      </trkpt>
      <trkpt lat="47.22417" lon="-1.84493">
        <ele>51</ele>
        <time>2021-06-05T13:05:00.000Z</time>
      </trkpt>
      <trkpt lat="47.22411" lon="-1.84479">
        <ele>50</ele>
        <time>2021-06-05T13:05:02.000Z</time>
      </trkpt>
      <trkpt lat="47.22405" lon="-1.84462">
        <ele>50</ele>
        <time>2021-06-05T13:05:04.000Z</time>
      </trkpt>
      <trkpt lat="47.22401" lon="-1.84442">
        <ele>50</ele>
        <time>2021-06-05T13:05:06.000Z</time>
      </trkpt>
      <trkpt lat="47.22398" lon="-1.84422">
        <ele>50</ele>
        <time>2021-06-05T13:05:08.000Z</time>
      </trkpt>
      <trkpt lat="47.22396" lon="-1.84402">
        <ele>50</ele>
        <time>2021-06-05T13:05:10.000Z</time>
      </trkpt>
      <trkpt lat="47.22391" lon="-1.84382">
        <ele>49</ele>
        <time>2021-06-05T13:05:12.000Z</time>
      </trkpt>
      <trkpt lat="47.22385" lon="-1.84364">
        <ele>49</ele>
        <time>2021-06-05T13:05:14.000Z</time>
      </trkpt>
      <trkpt lat="47.22377" lon="-1.84346">
        <ele>49</ele>
        <time>2021-06-05T13:05:16.000Z</time>
      </trkpt>
      <trkpt lat="47.22369" lon="-1.84328">
        <ele>49</ele>
        <time>2021-06-05T13:05:18.000Z</time>
      </trkpt>
      <trkpt lat="47.22362" lon="-1.84311">
        <ele>49</ele>
        <time>2021-06-05T13:05:20.000Z</time>
      </trkpt>
      <trkpt lat="47.22353" lon="-1.84293">
        <ele>48</ele>
        <time>2021-06-05T13:05:22.000Z</time>
      </trkpt>
      <trkpt lat="47.22344" lon="-1.84276">
        <ele>48</ele>
        <time>2021-06-05T13:05:24.000Z</time>
      </trkpt>
      <trkpt lat="47.22336" lon="-1.84259">
        <ele>48</ele>
        <time>2021-06-05T13:05:26.000Z</time>
      </trkpt>
      <trkpt lat="47.22327" lon="-1.84242">
        <ele>48</ele>
        <time>2021-06-05T13:05:28.000Z</time>
      </trkpt>
      <trkpt lat="47.22319" lon="-1.84225">
        <ele>48</ele>
        <time>2021-06-05T13:05:30.000Z</time>
      </trkpt>
      <trkpt lat="47.22311" lon="-1.84209">
        <ele>48</ele>
        <time>2021-06-05T13:05:32.000Z</time>
      </trkpt>
      <trkpt lat="47.22303" lon="-1.84192">
        <ele>48</ele>
        <time>2021-06-05T13:05:34.000Z</time>
      </trkpt>
      <trkpt lat="47.22295" lon="-1.84177">
        <ele>49</ele>
        <time>2021-06-05T13:05:36.000Z</time>
      </trkpt>
      <trkpt lat="47.22286" lon="-1.84161">
        <ele>49</ele>
        <time>2021-06-05T13:05:38.000Z</time>
      </trkpt>
      <trkpt lat="47.22278" lon="-1.84145">
        <ele>49</ele>
        <time>2021-06-05T13:05:40.000Z</time>
      </trkpt>
      <trkpt lat="47.2227" lon="-1.84129">
        <ele>50</ele>
        <time>2021-06-05T13:05:42.000Z</time>
      </trkpt>
      <trkpt lat="47.22262" lon="-1.84114">
        <ele>50</ele>
        <time>2021-06-05T13:05:44.000Z</time>
      </trkpt>
      <trkpt lat="47.22253" lon="-1.84097">
        <ele>51</ele>
        <time>2021-06-05T13:05:46.000Z</time>
      </trkpt>
      <trkpt lat="47.22245" lon="-1.84081">
        <ele>51</ele>
        <time>2021-06-05T13:05:48.000Z</time>
      </trkpt>
      <trkpt lat="47.22236" lon="-1.84064">
        <ele>51</ele>
        <time>2021-06-05T13:05:50.000Z</time>
      </trkpt>
      <trkpt lat="47.22228" lon="-1.84047">
        <ele>51</ele>
        <time>2021-06-05T13:05:52.000Z</time>
      </trkpt>
      <trkpt lat="47.22219" lon="-1.8403">
        <ele>52</ele>
        <time>2021-06-05T13:05:54.000Z</time>
      </trkpt>
      <trkpt lat="47.22211" lon="-1.84013">
        <ele>52</ele>
        <time>2021-06-05T13:05:56.000Z</time>
      </trkpt>
      <trkpt lat="47.22203" lon="-1.83997">
        <ele>52</ele>
        <time>2021-06-05T13:05:58.000Z</time>
      </trkpt>
      <trkpt lat="47.22195" lon="-1.8398">
        <ele>52</ele>
        <time>2021-06-05T13:06:00.000Z</time>
      </trkpt>
      <trkpt lat="47.22186" lon="-1.83964">
        <ele>52</ele>
        <time>2021-06-05T13:06:02.000Z</time>
      </trkpt>
      <trkpt lat="47.22178" lon="-1.83947">
        <ele>52</ele>
        <time>2021-06-05T13:06:04.000Z</time>
      </trkpt>
      <trkpt lat="47.2217" lon="-1.83929">
        <ele>51</ele>
        <time>2021-06-05T13:06:06.000Z</time>
      </trkpt>
      <trkpt lat="47.22162" lon="-1.83912">
        <ele>50</ele>
        <time>2021-06-05T13:06:08.000Z</time>
      </trkpt>
      <trkpt lat="47.22155" lon="-1.83895">
        <ele>51</ele>
        <time>2021-06-05T13:06:10.000Z</time>
      </trkpt>
      <trkpt lat="47.22147" lon="-1.83878">
        <ele>51</ele>
        <time>2021-06-05T13:06:12.000Z</time>
      </trkpt>
      <trkpt lat="47.22137" lon="-1.83861">
        <ele>51</ele>
        <time>2021-06-05T13:06:14.000Z</time>
      </trkpt>
      <trkpt lat="47.22128" lon="-1.83843">
        <ele>50</ele>
        <time>2021-06-05T13:06:16.000Z</time>
      </trkpt>
      <trkpt lat="47.2212" lon="-1.83825">
        <ele>50</ele>
        <time>2021-06-05T13:06:18.000Z</time>
      </trkpt>
      <trkpt lat="47.22111" lon="-1.83808">
        <ele>49</ele>
        <time>2021-06-05T13:06:20.000Z</time>
      </trkpt>
      <trkpt lat="47.22103" lon="-1.8379">
        <ele>49</ele>
        <time>2021-06-05T13:06:22.000Z</time>
      </trkpt>
      <trkpt lat="47.22095" lon="-1.83774">
        <ele>49</ele>
        <time>2021-06-05T13:06:24.000Z</time>
      </trkpt>
      <trkpt lat="47.22087" lon="-1.83757">
        <ele>49</ele>
        <time>2021-06-05T13:06:26.000Z</time>
      </trkpt>
      <trkpt lat="47.22078" lon="-1.83741">
        <ele>49</ele>
        <time>2021-06-05T13:06:28.000Z</time>
      </trkpt>
      <trkpt lat="47.2207" lon="-1.83725">
        <ele>49</ele>
        <time>2021-06-05T13:06:30.000Z</time>
      </trkpt>
      <trkpt lat="47.22062" lon="-1.83708">
        <ele>49</ele>
        <time>2021-06-05T13:06:32.000Z</time>
      </trkpt>
      <trkpt lat="47.22053" lon="-1.83692">
        <ele>49</ele>
        <time>2021-06-05T13:06:34.000Z</time>
      </trkpt>
      <trkpt lat="47.22045" lon="-1.83675">
        <ele>49</ele>
        <time>2021-06-05T13:06:36.000Z</time>
      </trkpt>
      <trkpt lat="47.22037" lon="-1.83658">
        <ele>49</ele>
        <time>2021-06-05T13:06:38.000Z</time>
      </trkpt>
      <trkpt lat="47.22029" lon="-1.83641">
        <ele>49</ele>
        <time>2021-06-05T13:06:40.000Z</time>
      </trkpt>
      <trkpt lat="47.22021" lon="-1.83624">
        <ele>49</ele>
        <time>2021-06-05T13:06:42.000Z</time>
      </trkpt>
      <trkpt lat="47.22013" lon="-1.83608">
        <ele>49</ele>
        <time>2021-06-05T13:06:44.000Z</time>
      </trkpt>
      <trkpt lat="47.22005" lon="-1.83592">
        <ele>49</ele>
        <time>2021-06-05T13:06:46.000Z</time>
      </trkpt>
      <trkpt lat="47.21997" lon="-1.83577">
        <ele>49</ele>
        <time>2021-06-05T13:06:48.000Z</time>
      </trkpt>
      <trkpt lat="47.21989" lon="-1.8356">
        <ele>49</ele>
        <time>2021-06-05T13:06:50.000Z</time>
      </trkpt>
      <trkpt lat="47.21982" lon="-1.83544">
        <ele>49</ele>
        <time>2021-06-05T13:06:52.000Z</time>
      </trkpt>
      <trkpt lat="47.21974" lon="-1.83529">
        <ele>49</ele>
        <time>2021-06-05T13:06:54.000Z</time>
      </trkpt>
      <trkpt lat="47.21966" lon="-1.83514">
        <ele>49</ele>
        <time>2021-06-05T13:06:56.000Z</time>
      </trkpt>
      <trkpt lat="47.21958" lon="-1.83498">
        <ele>49</ele>
        <time>2021-06-05T13:06:58.000Z</time>
      </trkpt>
      <trkpt lat="47.2195" lon="-1.83482">
        <ele>49</ele>
        <time>2021-06-05T13:07:00.000Z</time>
      </trkpt>
      <trkpt lat="47.21943" lon="-1.83466">
        <ele>49</ele>
        <time>2021-06-05T13:07:02.000Z</time>
      </trkpt>
      <trkpt lat="47.21934" lon="-1.8345">
        <ele>49</ele>
        <time>2021-06-05T13:07:04.000Z</time>
      </trkpt>
      <trkpt lat="47.21926" lon="-1.83434">
        <ele>49</ele>
        <time>2021-06-05T13:07:06.000Z</time>
      </trkpt>
      <trkpt lat="47.21918" lon="-1.83418">
        <ele>49</ele>
        <time>2021-06-05T13:07:08.000Z</time>
      </trkpt>
      <trkpt lat="47.2191" lon="-1.83402">
        <ele>49</ele>
        <time>2021-06-05T13:07:10.000Z</time>
      </trkpt>
      <trkpt lat="47.21901" lon="-1.83384">
        <ele>49</ele>
        <time>2021-06-05T13:07:12.000Z</time>
      </trkpt>
      <trkpt lat="47.21893" lon="-1.83368">
        <ele>49</ele>
        <time>2021-06-05T13:07:14.000Z</time>
      </trkpt>
      <trkpt lat="47.21885" lon="-1.83352">
        <ele>49</ele>
        <time>2021-06-05T13:07:16.000Z</time>
      </trkpt>
      <trkpt lat="47.21876" lon="-1.83335">
        <ele>49</ele>
        <time>2021-06-05T13:07:18.000Z</time>
      </trkpt>
      <trkpt lat="47.21868" lon="-1.83318">
        <ele>49</ele>
        <time>2021-06-05T13:07:20.000Z</time>
      </trkpt>
      <trkpt lat="47.2186" lon="-1.83302">
        <ele>49</ele>
        <time>2021-06-05T13:07:22.000Z</time>
      </trkpt>
      <trkpt lat="47.21852" lon="-1.83285">
        <ele>49</ele>
        <time>2021-06-05T13:07:24.000Z</time>
      </trkpt>
      <trkpt lat="47.21844" lon="-1.83268">
        <ele>48</ele>
        <time>2021-06-05T13:07:26.000Z</time>
      </trkpt>
      <trkpt lat="47.21836" lon="-1.83252">
        <ele>49</ele>
        <time>2021-06-05T13:07:28.000Z</time>
      </trkpt>
      <trkpt lat="47.21828" lon="-1.83237">
        <ele>49</ele>
        <time>2021-06-05T13:07:30.000Z</time>
      </trkpt>
      <trkpt lat="47.2182" lon="-1.8322">
        <ele>49</ele>
        <time>2021-06-05T13:07:32.000Z</time>
      </trkpt>
      <trkpt lat="47.21812" lon="-1.83205">
        <ele>49</ele>
        <time>2021-06-05T13:07:34.000Z</time>
      </trkpt>
      <trkpt lat="47.21804" lon="-1.83189">
        <ele>49</ele>
        <time>2021-06-05T13:07:36.000Z</time>
      </trkpt>
      <trkpt lat="47.21796" lon="-1.83174">
        <ele>49</ele>
        <time>2021-06-05T13:07:38.000Z</time>
      </trkpt>
      <trkpt lat="47.21788" lon="-1.83158">
        <ele>49</ele>
        <time>2021-06-05T13:07:40.000Z</time>
      </trkpt>
      <trkpt lat="47.2178" lon="-1.83141">
        <ele>49</ele>
        <time>2021-06-05T13:07:42.000Z</time>
      </trkpt>
      <trkpt lat="47.21773" lon="-1.83126">
        <ele>49</ele>
        <time>2021-06-05T13:07:44.000Z</time>
      </trkpt>
      <trkpt lat="47.21765" lon="-1.8311">
        <ele>49</ele>
        <time>2021-06-05T13:07:46.000Z</time>
      </trkpt>
      <trkpt lat="47.21757" lon="-1.83094">
        <ele>49</ele>
        <time>2021-06-05T13:07:48.000Z</time>
      </trkpt>
      <trkpt lat="47.21749" lon="-1.8308">
        <ele>49</ele>
        <time>2021-06-05T13:07:50.000Z</time>
      </trkpt>
      <trkpt lat="47.21742" lon="-1.83065">
        <ele>50</ele>
        <time>2021-06-05T13:07:52.000Z</time>
      </trkpt>
      <trkpt lat="47.21734" lon="-1.83051">
        <ele>51</ele>
        <time>2021-06-05T13:07:54.000Z</time>
      </trkpt>
      <trkpt lat="47.21725" lon="-1.83035">
        <ele>51</ele>
        <time>2021-06-05T13:07:56.000Z</time>
      </trkpt>
      <trkpt lat="47.21717" lon="-1.8302">
        <ele>52</ele>
        <time>2021-06-05T13:07:58.000Z</time>
      </trkpt>
      <trkpt lat="47.21709" lon="-1.83004">
        <ele>52</ele>
        <time>2021-06-05T13:08:00.000Z</time>
      </trkpt>
      <trkpt lat="47.217" lon="-1.82988">
        <ele>52</ele>
        <time>2021-06-05T13:08:02.000Z</time>
      </trkpt>
      <trkpt lat="47.21691" lon="-1.82972">
        <ele>52</ele>
        <time>2021-06-05T13:08:04.000Z</time>
      </trkpt>
      <trkpt lat="47.21683" lon="-1.82956">
        <ele>52</ele>
        <time>2021-06-05T13:08:06.000Z</time>
      </trkpt>
      <trkpt lat="47.21675" lon="-1.82939">
        <ele>52</ele>
        <time>2021-06-05T13:08:08.000Z</time>
      </trkpt>
      <trkpt lat="47.21666" lon="-1.82923">
        <ele>51</ele>
        <time>2021-06-05T13:08:10.000Z</time>
      </trkpt>
      <trkpt lat="47.21658" lon="-1.82906">
        <ele>50</ele>
        <time>2021-06-05T13:08:12.000Z</time>
      </trkpt>
      <trkpt lat="47.21649" lon="-1.82891">
        <ele>50</ele>
        <time>2021-06-05T13:08:14.000Z</time>
      </trkpt>
      <trkpt lat="47.21641" lon="-1.82875">
        <ele>50</ele>
        <time>2021-06-05T13:08:16.000Z</time>
      </trkpt>
      <trkpt lat="47.21634" lon="-1.82859">
        <ele>50</ele>
        <time>2021-06-05T13:08:18.000Z</time>
      </trkpt>
      <trkpt lat="47.21625" lon="-1.82844">
        <ele>50</ele>
        <time>2021-06-05T13:08:20.000Z</time>
      </trkpt>
      <trkpt lat="47.21617" lon="-1.82829">
        <ele>50</ele>
        <time>2021-06-05T13:08:22.000Z</time>
      </trkpt>
      <trkpt lat="47.21608" lon="-1.82814">
        <ele>50</ele>
        <time>2021-06-05T13:08:24.000Z</time>
      </trkpt>
      <trkpt lat="47.21599" lon="-1.82799">
        <ele>50</ele>
        <time>2021-06-05T13:08:26.000Z</time>
      </trkpt>
      <trkpt lat="47.21589" lon="-1.82784">
        <ele>50</ele>
        <time>2021-06-05T13:08:28.000Z</time>
      </trkpt>
      <trkpt lat="47.2158" lon="-1.82769">
        <ele>50</ele>
        <time>2021-06-05T13:08:30.000Z</time>
      </trkpt>
      <trkpt lat="47.21571" lon="-1.82755">
        <ele>50</ele>
        <time>2021-06-05T13:08:32.000Z</time>
      </trkpt>
      <trkpt lat="47.21562" lon="-1.8274">
        <ele>50</ele>
        <time>2021-06-05T13:08:34.000Z</time>
      </trkpt>
      <trkpt lat="47.21552" lon="-1.82725">
        <ele>51</ele>
        <time>2021-06-05T13:08:36.000Z</time>
      </trkpt>
      <trkpt lat="47.21543" lon="-1.82709">
        <ele>50</ele>
        <time>2021-06-05T13:08:38.000Z</time>
      </trkpt>
      <trkpt lat="47.21534" lon="-1.82694">
        <ele>50</ele>
        <time>2021-06-05T13:08:40.000Z</time>
      </trkpt>
      <trkpt lat="47.21525" lon="-1.82679">
        <ele>50</ele>
        <time>2021-06-05T13:08:42.000Z</time>
      </trkpt>
      <trkpt lat="47.21516" lon="-1.82664">
        <ele>49</ele>
        <time>2021-06-05T13:08:44.000Z</time>
      </trkpt>
      <trkpt lat="47.21508" lon="-1.82649">
        <ele>49</ele>
        <time>2021-06-05T13:08:46.000Z</time>
      </trkpt>
      <trkpt lat="47.21499" lon="-1.82634">
        <ele>49</ele>
        <time>2021-06-05T13:08:48.000Z</time>
      </trkpt>
      <trkpt lat="47.2149" lon="-1.82619">
        <ele>49</ele>
        <time>2021-06-05T13:08:50.000Z</time>
      </trkpt>
      <trkpt lat="47.21481" lon="-1.82605">
        <ele>49</ele>
        <time>2021-06-05T13:08:52.000Z</time>
      </trkpt>
      <trkpt lat="47.21472" lon="-1.82591">
        <ele>48</ele>
        <time>2021-06-05T13:08:54.000Z</time>
      </trkpt>
      <trkpt lat="47.21464" lon="-1.82576">
        <ele>48</ele>
        <time>2021-06-05T13:08:56.000Z</time>
      </trkpt>
      <trkpt lat="47.21455" lon="-1.82562">
        <ele>49</ele>
        <time>2021-06-05T13:08:58.000Z</time>
      </trkpt>
      <trkpt lat="47.21446" lon="-1.82548">
        <ele>49</ele>
        <time>2021-06-05T13:09:00.000Z</time>
      </trkpt>
      <trkpt lat="47.21437" lon="-1.82533">
        <ele>49</ele>
        <time>2021-06-05T13:09:02.000Z</time>
      </trkpt>
      <trkpt lat="47.21428" lon="-1.82519">
        <ele>49</ele>
        <time>2021-06-05T13:09:04.000Z</time>
      </trkpt>
      <trkpt lat="47.2142" lon="-1.82504">
        <ele>49</ele>
        <time>2021-06-05T13:09:06.000Z</time>
      </trkpt>
      <trkpt lat="47.21412" lon="-1.8249">
        <ele>49</ele>
        <time>2021-06-05T13:09:08.000Z</time>
      </trkpt>
      <trkpt lat="47.21404" lon="-1.82476">
        <ele>49</ele>
        <time>2021-06-05T13:09:10.000Z</time>
      </trkpt>
      <trkpt lat="47.21396" lon="-1.82462">
        <ele>49</ele>
        <time>2021-06-05T13:09:12.000Z</time>
      </trkpt>
      <trkpt lat="47.21389" lon="-1.8245">
        <ele>50</ele>
        <time>2021-06-05T13:09:14.000Z</time>
      </trkpt>
      <trkpt lat="47.21383" lon="-1.82438">
        <ele>50</ele>
        <time>2021-06-05T13:09:16.000Z</time>
      </trkpt>
      <trkpt lat="47.21387" lon="-1.82424">
        <ele>51</ele>
        <time>2021-06-05T13:09:18.000Z</time>
      </trkpt>
      <trkpt lat="47.21395" lon="-1.82414">
        <ele>51</ele>
        <time>2021-06-05T13:09:20.000Z</time>
      </trkpt>
      <trkpt lat="47.21403" lon="-1.82403">
        <ele>51</ele>
        <time>2021-06-05T13:09:22.000Z</time>
      </trkpt>
      <trkpt lat="47.21411" lon="-1.82392">
        <ele>51</ele>
        <time>2021-06-05T13:09:24.000Z</time>
      </trkpt>
      <trkpt lat="47.2142" lon="-1.82381">
        <ele>51</ele>
        <time>2021-06-05T13:09:26.000Z</time>
      </trkpt>
      <trkpt lat="47.21429" lon="-1.8237">
        <ele>51</ele>
        <time>2021-06-05T13:09:28.000Z</time>
      </trkpt>
      <trkpt lat="47.21439" lon="-1.82362">
        <ele>51</ele>
        <time>2021-06-05T13:09:30.000Z</time>
      </trkpt>
      <trkpt lat="47.21448" lon="-1.82353">
        <ele>51</ele>
        <time>2021-06-05T13:09:32.000Z</time>
      </trkpt>
      <trkpt lat="47.21447" lon="-1.82338">
        <ele>51</ele>
        <time>2021-06-05T13:09:34.000Z</time>
      </trkpt>
      <trkpt lat="47.2144" lon="-1.82324">
        <ele>51</ele>
        <time>2021-06-05T13:09:36.000Z</time>
      </trkpt>
      <trkpt lat="47.21433" lon="-1.8231">
        <ele>52</ele>
        <time>2021-06-05T13:09:38.000Z</time>
      </trkpt>
      <trkpt lat="47.21425" lon="-1.82297">
        <ele>53</ele>
        <time>2021-06-05T13:09:40.000Z</time>
      </trkpt>
      <trkpt lat="47.21417" lon="-1.82285">
        <ele>53</ele>
        <time>2021-06-05T13:09:42.000Z</time>
      </trkpt>
      <trkpt lat="47.21405" lon="-1.82279">
        <ele>52</ele>
        <time>2021-06-05T13:09:44.000Z</time>
      </trkpt>
      <trkpt lat="47.21391" lon="-1.82274">
        <ele>50</ele>
        <time>2021-06-05T13:09:46.000Z</time>
      </trkpt>
      <trkpt lat="47.21376" lon="-1.82263">
        <ele>49</ele>
        <time>2021-06-05T13:09:48.000Z</time>
      </trkpt>
      <trkpt lat="47.21365" lon="-1.82246">
        <ele>49</ele>
        <time>2021-06-05T13:09:50.000Z</time>
      </trkpt>
      <trkpt lat="47.21356" lon="-1.8223">
        <ele>49</ele>
        <time>2021-06-05T13:09:52.000Z</time>
      </trkpt>
      <trkpt lat="47.21345" lon="-1.82215">
        <ele>49</ele>
        <time>2021-06-05T13:09:54.000Z</time>
      </trkpt>
      <trkpt lat="47.21336" lon="-1.82199">
        <ele>50</ele>
        <time>2021-06-05T13:09:56.000Z</time>
      </trkpt>
      <trkpt lat="47.21326" lon="-1.82184">
        <ele>50</ele>
        <time>2021-06-05T13:09:58.000Z</time>
      </trkpt>
      <trkpt lat="47.21317" lon="-1.82169">
        <ele>51</ele>
        <time>2021-06-05T13:10:00.000Z</time>
      </trkpt>
      <trkpt lat="47.21308" lon="-1.82154">
        <ele>51</ele>
        <time>2021-06-05T13:10:02.000Z</time>
      </trkpt>
      <trkpt lat="47.21299" lon="-1.82139">
        <ele>51</ele>
        <time>2021-06-05T13:10:04.000Z</time>
      </trkpt>
      <trkpt lat="47.21289" lon="-1.82124">
        <ele>52</ele>
        <time>2021-06-05T13:10:06.000Z</time>
      </trkpt>
      <trkpt lat="47.2128" lon="-1.8211">
        <ele>52</ele>
        <time>2021-06-05T13:10:08.000Z</time>
      </trkpt>
      <trkpt lat="47.2127" lon="-1.82095">
        <ele>52</ele>
        <time>2021-06-05T13:10:10.000Z</time>
      </trkpt>
      <trkpt lat="47.21261" lon="-1.82082">
        <ele>52</ele>
        <time>2021-06-05T13:10:12.000Z</time>
      </trkpt>
      <trkpt lat="47.21252" lon="-1.82066">
        <ele>52</ele>
        <time>2021-06-05T13:10:14.000Z</time>
      </trkpt>
      <trkpt lat="47.21242" lon="-1.8205">
        <ele>53</ele>
        <time>2021-06-05T13:10:16.000Z</time>
      </trkpt>
      <trkpt lat="47.21233" lon="-1.82035">
        <ele>53</ele>
        <time>2021-06-05T13:10:18.000Z</time>
      </trkpt>
      <trkpt lat="47.21223" lon="-1.8202">
        <ele>53</ele>
        <time>2021-06-05T13:10:20.000Z</time>
      </trkpt>
      <trkpt lat="47.21213" lon="-1.82006">
        <ele>54</ele>
        <time>2021-06-05T13:10:22.000Z</time>
      </trkpt>
      <trkpt lat="47.21204" lon="-1.8199">
        <ele>54</ele>
        <time>2021-06-05T13:10:24.000Z</time>
      </trkpt>
      <trkpt lat="47.21194" lon="-1.81974">
        <ele>53</ele>
        <time>2021-06-05T13:10:26.000Z</time>
      </trkpt>
      <trkpt lat="47.21185" lon="-1.81959">
        <ele>53</ele>
        <time>2021-06-05T13:10:28.000Z</time>
      </trkpt>
      <trkpt lat="47.21176" lon="-1.81943">
        <ele>52</ele>
        <time>2021-06-05T13:10:30.000Z</time>
      </trkpt>
      <trkpt lat="47.21167" lon="-1.81927">
        <ele>52</ele>
        <time>2021-06-05T13:10:32.000Z</time>
      </trkpt>
      <trkpt lat="47.21157" lon="-1.81911">
        <ele>52</ele>
        <time>2021-06-05T13:10:34.000Z</time>
      </trkpt>
      <trkpt lat="47.21149" lon="-1.81895">
        <ele>52</ele>
        <time>2021-06-05T13:10:36.000Z</time>
      </trkpt>
      <trkpt lat="47.21139" lon="-1.81879">
        <ele>53</ele>
        <time>2021-06-05T13:10:38.000Z</time>
      </trkpt>
      <trkpt lat="47.21131" lon="-1.81861">
        <ele>53</ele>
        <time>2021-06-05T13:10:40.000Z</time>
      </trkpt>
      <trkpt lat="47.2112" lon="-1.81844">
        <ele>52</ele>
        <time>2021-06-05T13:10:42.000Z</time>
      </trkpt>
      <trkpt lat="47.21111" lon="-1.81827">
        <ele>52</ele>
        <time>2021-06-05T13:10:44.000Z</time>
      </trkpt>
      <trkpt lat="47.21102" lon="-1.81812">
        <ele>52</ele>
        <time>2021-06-05T13:10:46.000Z</time>
      </trkpt>
      <trkpt lat="47.21093" lon="-1.81796">
        <ele>53</ele>
        <time>2021-06-05T13:10:48.000Z</time>
      </trkpt>
      <trkpt lat="47.21085" lon="-1.81781">
        <ele>52</ele>
        <time>2021-06-05T13:10:50.000Z</time>
      </trkpt>
      <trkpt lat="47.21076" lon="-1.81765">
        <ele>53</ele>
        <time>2021-06-05T13:10:52.000Z</time>
      </trkpt>
      <trkpt lat="47.21068" lon="-1.8175">
        <ele>53</ele>
        <time>2021-06-05T13:10:54.000Z</time>
      </trkpt>
      <trkpt lat="47.2106" lon="-1.81732">
        <ele>53</ele>
        <time>2021-06-05T13:10:56.000Z</time>
      </trkpt>
      <trkpt lat="47.21052" lon="-1.81715">
        <ele>52</ele>
        <time>2021-06-05T13:10:58.000Z</time>
      </trkpt>
      <trkpt lat="47.21044" lon="-1.81697">
        <ele>51</ele>
        <time>2021-06-05T13:11:00.000Z</time>
      </trkpt>
      <trkpt lat="47.21036" lon="-1.8168">
        <ele>50</ele>
        <time>2021-06-05T13:11:02.000Z</time>
      </trkpt>
      <trkpt lat="47.21028" lon="-1.81664">
        <ele>50</ele>
        <time>2021-06-05T13:11:04.000Z</time>
      </trkpt>
      <trkpt lat="47.21021" lon="-1.81646">
        <ele>50</ele>
        <time>2021-06-05T13:11:06.000Z</time>
      </trkpt>
      <trkpt lat="47.21013" lon="-1.8163">
        <ele>50</ele>
        <time>2021-06-05T13:11:08.000Z</time>
      </trkpt>
      <trkpt lat="47.21005" lon="-1.81614">
        <ele>50</ele>
        <time>2021-06-05T13:11:10.000Z</time>
      </trkpt>
      <trkpt lat="47.20998" lon="-1.81595">
        <ele>50</ele>
        <time>2021-06-05T13:11:12.000Z</time>
      </trkpt>
      <trkpt lat="47.2099" lon="-1.81577">
        <ele>50</ele>
        <time>2021-06-05T13:11:14.000Z</time>
      </trkpt>
      <trkpt lat="47.20982" lon="-1.8156">
        <ele>50</ele>
        <time>2021-06-05T13:11:16.000Z</time>
      </trkpt>
      <trkpt lat="47.20976" lon="-1.81543">
        <ele>50</ele>
        <time>2021-06-05T13:11:18.000Z</time>
      </trkpt>
      <trkpt lat="47.20969" lon="-1.81526">
        <ele>51</ele>
        <time>2021-06-05T13:11:20.000Z</time>
      </trkpt>
      <trkpt lat="47.20962" lon="-1.8151">
        <ele>51</ele>
        <time>2021-06-05T13:11:22.000Z</time>
      </trkpt>
      <trkpt lat="47.20955" lon="-1.81493">
        <ele>51</ele>
        <time>2021-06-05T13:11:24.000Z</time>
      </trkpt>
      <trkpt lat="47.20948" lon="-1.81475">
        <ele>51</ele>
        <time>2021-06-05T13:11:26.000Z</time>
      </trkpt>
      <trkpt lat="47.20942" lon="-1.81458">
        <ele>52</ele>
        <time>2021-06-05T13:11:28.000Z</time>
      </trkpt>
      <trkpt lat="47.20936" lon="-1.8144">
        <ele>51</ele>
        <time>2021-06-05T13:11:30.000Z</time>
      </trkpt>
      <trkpt lat="47.2093" lon="-1.81423">
        <ele>52</ele>
        <time>2021-06-05T13:11:32.000Z</time>
      </trkpt>
      <trkpt lat="47.20924" lon="-1.81406">
        <ele>52</ele>
        <time>2021-06-05T13:11:34.000Z</time>
      </trkpt>
      <trkpt lat="47.20917" lon="-1.81388">
        <ele>52</ele>
        <time>2021-06-05T13:11:36.000Z</time>
      </trkpt>
      <trkpt lat="47.20912" lon="-1.8137">
        <ele>52</ele>
        <time>2021-06-05T13:11:38.000Z</time>
      </trkpt>
      <trkpt lat="47.20905" lon="-1.81352">
        <ele>51</ele>
        <time>2021-06-05T13:11:40.000Z</time>
      </trkpt>
      <trkpt lat="47.209" lon="-1.81335">
        <ele>51</ele>
        <time>2021-06-05T13:11:42.000Z</time>
      </trkpt>
      <trkpt lat="47.20894" lon="-1.81318">
        <ele>51</ele>
        <time>2021-06-05T13:11:44.000Z</time>
      </trkpt>
      <trkpt lat="47.20889" lon="-1.813">
        <ele>52</ele>
        <time>2021-06-05T13:11:46.000Z</time>
      </trkpt>
      <trkpt lat="47.20883" lon="-1.81282">
        <ele>52</ele>
        <time>2021-06-05T13:11:48.000Z</time>
      </trkpt>
      <trkpt lat="47.20878" lon="-1.81264">
        <ele>52</ele>
        <time>2021-06-05T13:11:50.000Z</time>
      </trkpt>
      <trkpt lat="47.20872" lon="-1.81247">
        <ele>52</ele>
        <time>2021-06-05T13:11:52.000Z</time>
      </trkpt>
      <trkpt lat="47.20867" lon="-1.81226">
        <ele>52</ele>
        <time>2021-06-05T13:11:54.000Z</time>
      </trkpt>
      <trkpt lat="47.20861" lon="-1.81206">
        <ele>52</ele>
        <time>2021-06-05T13:11:56.000Z</time>
      </trkpt>
      <trkpt lat="47.20856" lon="-1.81186">
        <ele>51</ele>
        <time>2021-06-05T13:11:58.000Z</time>
      </trkpt>
      <trkpt lat="47.20851" lon="-1.81167">
        <ele>51</ele>
        <time>2021-06-05T13:12:00.000Z</time>
      </trkpt>
      <trkpt lat="47.20846" lon="-1.8115">
        <ele>51</ele>
        <time>2021-06-05T13:12:02.000Z</time>
      </trkpt>
      <trkpt lat="47.20841" lon="-1.81132">
        <ele>50</ele>
        <time>2021-06-05T13:12:04.000Z</time>
      </trkpt>
      <trkpt lat="47.20836" lon="-1.81114">
        <ele>50</ele>
        <time>2021-06-05T13:12:06.000Z</time>
      </trkpt>
      <trkpt lat="47.20832" lon="-1.81096">
        <ele>51</ele>
        <time>2021-06-05T13:12:08.000Z</time>
      </trkpt>
      <trkpt lat="47.20827" lon="-1.81079">
        <ele>51</ele>
        <time>2021-06-05T13:12:10.000Z</time>
      </trkpt>
      <trkpt lat="47.20823" lon="-1.8106">
        <ele>51</ele>
        <time>2021-06-05T13:12:12.000Z</time>
      </trkpt>
      <trkpt lat="47.20819" lon="-1.81042">
        <ele>51</ele>
        <time>2021-06-05T13:12:14.000Z</time>
      </trkpt>
      <trkpt lat="47.20815" lon="-1.81024">
        <ele>52</ele>
        <time>2021-06-05T13:12:16.000Z</time>
      </trkpt>
      <trkpt lat="47.20811" lon="-1.81004">
        <ele>52</ele>
        <time>2021-06-05T13:12:18.000Z</time>
      </trkpt>
      <trkpt lat="47.20807" lon="-1.80984">
        <ele>51</ele>
        <time>2021-06-05T13:12:20.000Z</time>
      </trkpt>
      <trkpt lat="47.20802" lon="-1.80965">
        <ele>51</ele>
        <time>2021-06-05T13:12:22.000Z</time>
      </trkpt>
      <trkpt lat="47.20798" lon="-1.80946">
        <ele>52</ele>
        <time>2021-06-05T13:12:24.000Z</time>
      </trkpt>
      <trkpt lat="47.20795" lon="-1.80926">
        <ele>52</ele>
        <time>2021-06-05T13:12:26.000Z</time>
      </trkpt>
      <trkpt lat="47.20791" lon="-1.80906">
        <ele>52</ele>
        <time>2021-06-05T13:12:28.000Z</time>
      </trkpt>
      <trkpt lat="47.20787" lon="-1.80887">
        <ele>52</ele>
        <time>2021-06-05T13:12:30.000Z</time>
      </trkpt>
      <trkpt lat="47.20784" lon="-1.80866">
        <ele>51</ele>
        <time>2021-06-05T13:12:32.000Z</time>
      </trkpt>
      <trkpt lat="47.2078" lon="-1.80845">
        <ele>50</ele>
        <time>2021-06-05T13:12:34.000Z</time>
      </trkpt>
      <trkpt lat="47.20777" lon="-1.80825">
        <ele>49</ele>
        <time>2021-06-05T13:12:36.000Z</time>
      </trkpt>
      <trkpt lat="47.20774" lon="-1.80805">
        <ele>50</ele>
        <time>2021-06-05T13:12:38.000Z</time>
      </trkpt>
      <trkpt lat="47.20771" lon="-1.80787">
        <ele>51</ele>
        <time>2021-06-05T13:12:40.000Z</time>
      </trkpt>
      <trkpt lat="47.20768" lon="-1.80768">
        <ele>51</ele>
        <time>2021-06-05T13:12:42.000Z</time>
      </trkpt>
      <trkpt lat="47.20764" lon="-1.80748">
        <ele>50</ele>
        <time>2021-06-05T13:12:44.000Z</time>
      </trkpt>
      <trkpt lat="47.2076" lon="-1.80727">
        <ele>50</ele>
        <time>2021-06-05T13:12:46.000Z</time>
      </trkpt>
      <trkpt lat="47.20758" lon="-1.80708">
        <ele>50</ele>
        <time>2021-06-05T13:12:48.000Z</time>
      </trkpt>
      <trkpt lat="47.20755" lon="-1.8069">
        <ele>50</ele>
        <time>2021-06-05T13:12:50.000Z</time>
      </trkpt>
      <trkpt lat="47.20752" lon="-1.80671">
        <ele>50</ele>
        <time>2021-06-05T13:12:52.000Z</time>
      </trkpt>
      <trkpt lat="47.2075" lon="-1.80652">
        <ele>50</ele>
        <time>2021-06-05T13:12:54.000Z</time>
      </trkpt>
      <trkpt lat="47.20748" lon="-1.80632">
        <ele>50</ele>
        <time>2021-06-05T13:12:56.000Z</time>
      </trkpt>
      <trkpt lat="47.20746" lon="-1.80612">
        <ele>50</ele>
        <time>2021-06-05T13:12:58.000Z</time>
      </trkpt>
      <trkpt lat="47.20745" lon="-1.80591">
        <ele>50</ele>
        <time>2021-06-05T13:13:00.000Z</time>
      </trkpt>
      <trkpt lat="47.20743" lon="-1.80571">
        <ele>50</ele>
        <time>2021-06-05T13:13:02.000Z</time>
      </trkpt>
      <trkpt lat="47.20741" lon="-1.80552">
        <ele>51</ele>
        <time>2021-06-05T13:13:04.000Z</time>
      </trkpt>
      <trkpt lat="47.20739" lon="-1.80531">
        <ele>51</ele>
        <time>2021-06-05T13:13:06.000Z</time>
      </trkpt>
      <trkpt lat="47.20737" lon="-1.80511">
        <ele>50</ele>
        <time>2021-06-05T13:13:08.000Z</time>
      </trkpt>
      <trkpt lat="47.20736" lon="-1.80491">
        <ele>50</ele>
        <time>2021-06-05T13:13:10.000Z</time>
      </trkpt>
      <trkpt lat="47.20734" lon="-1.8047">
        <ele>50</ele>
        <time>2021-06-05T13:13:12.000Z</time>
      </trkpt>
      <trkpt lat="47.20733" lon="-1.80447">
        <ele>49</ele>
        <time>2021-06-05T13:13:14.000Z</time>
      </trkpt>
      <trkpt lat="47.20731" lon="-1.80426">
        <ele>49</ele>
        <time>2021-06-05T13:13:16.000Z</time>
      </trkpt>
      <trkpt lat="47.2073" lon="-1.80407">
        <ele>50</ele>
        <time>2021-06-05T13:13:18.000Z</time>
      </trkpt>
      <trkpt lat="47.20729" lon="-1.80388">
        <ele>50</ele>
        <time>2021-06-05T13:13:20.000Z</time>
      </trkpt>
      <trkpt lat="47.20727" lon="-1.80369">
        <ele>50</ele>
        <time>2021-06-05T13:13:22.000Z</time>
      </trkpt>
      <trkpt lat="47.20726" lon="-1.8035">
        <ele>50</ele>
        <time>2021-06-05T13:13:24.000Z</time>
      </trkpt>
      <trkpt lat="47.20725" lon="-1.8033">
        <ele>50</ele>
        <time>2021-06-05T13:13:26.000Z</time>
      </trkpt>
      <trkpt lat="47.20724" lon="-1.80312">
        <ele>51</ele>
        <time>2021-06-05T13:13:28.000Z</time>
      </trkpt>
      <trkpt lat="47.20722" lon="-1.80294">
        <ele>51</ele>
        <time>2021-06-05T13:13:30.000Z</time>
      </trkpt>
      <trkpt lat="47.2072" lon="-1.80276">
        <ele>51</ele>
        <time>2021-06-05T13:13:32.000Z</time>
      </trkpt>
      <trkpt lat="47.20717" lon="-1.80256">
        <ele>52</ele>
        <time>2021-06-05T13:13:34.000Z</time>
      </trkpt>
      <trkpt lat="47.20716" lon="-1.80235">
        <ele>52</ele>
        <time>2021-06-05T13:13:36.000Z</time>
      </trkpt>
      <trkpt lat="47.20715" lon="-1.80215">
        <ele>52</ele>
        <time>2021-06-05T13:13:38.000Z</time>
      </trkpt>
      <trkpt lat="47.20714" lon="-1.80193">
        <ele>51</ele>
        <time>2021-06-05T13:13:40.000Z</time>
      </trkpt>
      <trkpt lat="47.20713" lon="-1.80173">
        <ele>50</ele>
        <time>2021-06-05T13:13:42.000Z</time>
      </trkpt>
      <trkpt lat="47.20712" lon="-1.80152">
        <ele>50</ele>
        <time>2021-06-05T13:13:44.000Z</time>
      </trkpt>
      <trkpt lat="47.20712" lon="-1.80133">
        <ele>50</ele>
        <time>2021-06-05T13:13:46.000Z</time>
      </trkpt>
      <trkpt lat="47.2071" lon="-1.80114">
        <ele>51</ele>
        <time>2021-06-05T13:13:48.000Z</time>
      </trkpt>
      <trkpt lat="47.20708" lon="-1.80094">
        <ele>51</ele>
        <time>2021-06-05T13:13:50.000Z</time>
      </trkpt>
      <trkpt lat="47.20707" lon="-1.80073">
        <ele>50</ele>
        <time>2021-06-05T13:13:52.000Z</time>
      </trkpt>
      <trkpt lat="47.20705" lon="-1.80054">
        <ele>50</ele>
        <time>2021-06-05T13:13:54.000Z</time>
      </trkpt>
      <trkpt lat="47.20703" lon="-1.80034">
        <ele>50</ele>
        <time>2021-06-05T13:13:56.000Z</time>
      </trkpt>
      <trkpt lat="47.20702" lon="-1.80012">
        <ele>50</ele>
        <time>2021-06-05T13:13:58.000Z</time>
      </trkpt>
      <trkpt lat="47.207" lon="-1.79991">
        <ele>50</ele>
        <time>2021-06-05T13:14:00.000Z</time>
      </trkpt>
      <trkpt lat="47.20699" lon="-1.79971">
        <ele>50</ele>
        <time>2021-06-05T13:14:02.000Z</time>
      </trkpt>
      <trkpt lat="47.20698" lon="-1.79951">
        <ele>50</ele>
        <time>2021-06-05T13:14:04.000Z</time>
      </trkpt>
      <trkpt lat="47.20697" lon="-1.79931">
        <ele>50</ele>
        <time>2021-06-05T13:14:06.000Z</time>
      </trkpt>
      <trkpt lat="47.20696" lon="-1.79911">
        <ele>50</ele>
        <time>2021-06-05T13:14:08.000Z</time>
      </trkpt>
      <trkpt lat="47.20694" lon="-1.79891">
        <ele>50</ele>
        <time>2021-06-05T13:14:10.000Z</time>
      </trkpt>
      <trkpt lat="47.20693" lon="-1.79871">
        <ele>50</ele>
        <time>2021-06-05T13:14:12.000Z</time>
      </trkpt>
      <trkpt lat="47.20691" lon="-1.79851">
        <ele>50</ele>
        <time>2021-06-05T13:14:14.000Z</time>
      </trkpt>
      <trkpt lat="47.2069" lon="-1.79831">
        <ele>50</ele>
        <time>2021-06-05T13:14:16.000Z</time>
      </trkpt>
      <trkpt lat="47.20689" lon="-1.7981">
        <ele>49</ele>
        <time>2021-06-05T13:14:18.000Z</time>
      </trkpt>
      <trkpt lat="47.20688" lon="-1.79791">
        <ele>50</ele>
        <time>2021-06-05T13:14:20.000Z</time>
      </trkpt>
      <trkpt lat="47.20687" lon="-1.79772">
        <ele>50</ele>
        <time>2021-06-05T13:14:22.000Z</time>
      </trkpt>
      <trkpt lat="47.20685" lon="-1.79753">
        <ele>49</ele>
        <time>2021-06-05T13:14:24.000Z</time>
      </trkpt>
      <trkpt lat="47.20684" lon="-1.79733">
        <ele>49</ele>
        <time>2021-06-05T13:14:26.000Z</time>
      </trkpt>
      <trkpt lat="47.20683" lon="-1.79714">
        <ele>49</ele>
        <time>2021-06-05T13:14:28.000Z</time>
      </trkpt>
      <trkpt lat="47.20683" lon="-1.79694">
        <ele>48</ele>
        <time>2021-06-05T13:14:30.000Z</time>
      </trkpt>
      <trkpt lat="47.20683" lon="-1.79673">
        <ele>48</ele>
        <time>2021-06-05T13:14:32.000Z</time>
      </trkpt>
      <trkpt lat="47.20683" lon="-1.79652">
        <ele>48</ele>
        <time>2021-06-05T13:14:34.000Z</time>
      </trkpt>
      <trkpt lat="47.20683" lon="-1.79631">
        <ele>49</ele>
        <time>2021-06-05T13:14:36.000Z</time>
      </trkpt>
      <trkpt lat="47.20682" lon="-1.79611">
        <ele>50</ele>
        <time>2021-06-05T13:14:38.000Z</time>
      </trkpt>
      <trkpt lat="47.20682" lon="-1.7959">
        <ele>49</ele>
        <time>2021-06-05T13:14:40.000Z</time>
      </trkpt>
      <trkpt lat="47.20682" lon="-1.7957">
        <ele>49</ele>
        <time>2021-06-05T13:14:42.000Z</time>
      </trkpt>
      <trkpt lat="47.20682" lon="-1.79551">
        <ele>49</ele>
        <time>2021-06-05T13:14:44.000Z</time>
      </trkpt>
      <trkpt lat="47.20682" lon="-1.79531">
        <ele>49</ele>
        <time>2021-06-05T13:14:46.000Z</time>
      </trkpt>
      <trkpt lat="47.20682" lon="-1.79512">
        <ele>49</ele>
        <time>2021-06-05T13:14:48.000Z</time>
      </trkpt>
      <trkpt lat="47.20682" lon="-1.79492">
        <ele>49</ele>
        <time>2021-06-05T13:14:50.000Z</time>
      </trkpt>
      <trkpt lat="47.20682" lon="-1.79472">
        <ele>49</ele>
        <time>2021-06-05T13:14:52.000Z</time>
      </trkpt>
      <trkpt lat="47.20683" lon="-1.79452">
        <ele>49</ele>
        <time>2021-06-05T13:14:54.000Z</time>
      </trkpt>
      <trkpt lat="47.20684" lon="-1.79432">
        <ele>49</ele>
        <time>2021-06-05T13:14:56.000Z</time>
      </trkpt>
      <trkpt lat="47.20687" lon="-1.79414">
        <ele>49</ele>
        <time>2021-06-05T13:14:58.000Z</time>
      </trkpt>
      <trkpt lat="47.20694" lon="-1.79395">
        <ele>49</ele>
        <time>2021-06-05T13:15:00.000Z</time>
      </trkpt>
      <trkpt lat="47.207" lon="-1.79378">
        <ele>49</ele>
        <time>2021-06-05T13:15:02.000Z</time>
      </trkpt>
      <trkpt lat="47.20705" lon="-1.79359">
        <ele>49</ele>
        <time>2021-06-05T13:15:04.000Z</time>
      </trkpt>
      <trkpt lat="47.20709" lon="-1.7934">
        <ele>49</ele>
        <time>2021-06-05T13:15:06.000Z</time>
      </trkpt>
      <trkpt lat="47.2071" lon="-1.7932">
        <ele>49</ele>
        <time>2021-06-05T13:15:08.000Z</time>
      </trkpt>
      <trkpt lat="47.20709" lon="-1.793">
        <ele>49</ele>
        <time>2021-06-05T13:15:10.000Z</time>
      </trkpt>
      <trkpt lat="47.20708" lon="-1.7928">
        <ele>49</ele>
        <time>2021-06-05T13:15:12.000Z</time>
      </trkpt>
      <trkpt lat="47.20706" lon="-1.7926">
        <ele>49</ele>
        <time>2021-06-05T13:15:14.000Z</time>
      </trkpt>
      <trkpt lat="47.20703" lon="-1.7924">
        <ele>49</ele>
        <time>2021-06-05T13:15:16.000Z</time>
      </trkpt>
      <trkpt lat="47.20699" lon="-1.7922">
        <ele>50</ele>
        <time>2021-06-05T13:15:18.000Z</time>
      </trkpt>
      <trkpt lat="47.20699" lon="-1.792">
        <ele>50</ele>
        <time>2021-06-05T13:15:20.000Z</time>
      </trkpt>
      <trkpt lat="47.20701" lon="-1.7918">
        <ele>50</ele>
        <time>2021-06-05T13:15:22.000Z</time>
      </trkpt>
      <trkpt lat="47.20704" lon="-1.7916">
        <ele>50</ele>
        <time>2021-06-05T13:15:24.000Z</time>
      </trkpt>
      <trkpt lat="47.20706" lon="-1.7914">
        <ele>49</ele>
        <time>2021-06-05T13:15:26.000Z</time>
      </trkpt>
      <trkpt lat="47.20708" lon="-1.79121">
        <ele>49</ele>
        <time>2021-06-05T13:15:28.000Z</time>
      </trkpt>
      <trkpt lat="47.2071" lon="-1.79101">
        <ele>50</ele>
        <time>2021-06-05T13:15:30.000Z</time>
      </trkpt>
      <trkpt lat="47.20712" lon="-1.79083">
        <ele>50</ele>
        <time>2021-06-05T13:15:32.000Z</time>
      </trkpt>
      <trkpt lat="47.20716" lon="-1.79065">
        <ele>50</ele>
        <time>2021-06-05T13:15:34.000Z</time>
      </trkpt>
      <trkpt lat="47.20722" lon="-1.79047">
        <ele>50</ele>
        <time>2021-06-05T13:15:36.000Z</time>
      </trkpt>
      <trkpt lat="47.2073" lon="-1.79031">
        <ele>50</ele>
        <time>2021-06-05T13:15:38.000Z</time>
      </trkpt>
      <trkpt lat="47.20737" lon="-1.79015">
        <ele>50</ele>
        <time>2021-06-05T13:15:40.000Z</time>
      </trkpt>
      <trkpt lat="47.20746" lon="-1.79001">
        <ele>50</ele>
        <time>2021-06-05T13:15:42.000Z</time>
      </trkpt>
      <trkpt lat="47.20754" lon="-1.78987">
        <ele>50</ele>
        <time>2021-06-05T13:15:44.000Z</time>
      </trkpt>
      <trkpt lat="47.20762" lon="-1.78971">
        <ele>50</ele>
        <time>2021-06-05T13:15:46.000Z</time>
      </trkpt>
      <trkpt lat="47.20771" lon="-1.78957">
        <ele>50</ele>
        <time>2021-06-05T13:15:48.000Z</time>
      </trkpt>
      <trkpt lat="47.20778" lon="-1.78941">
        <ele>50</ele>
        <time>2021-06-05T13:15:50.000Z</time>
      </trkpt>
      <trkpt lat="47.20784" lon="-1.78924">
        <ele>49</ele>
        <time>2021-06-05T13:15:52.000Z</time>
      </trkpt>
      <trkpt lat="47.20789" lon="-1.78906">
        <ele>50</ele>
        <time>2021-06-05T13:15:54.000Z</time>
      </trkpt>
      <trkpt lat="47.20793" lon="-1.78886">
        <ele>50</ele>
        <time>2021-06-05T13:15:56.000Z</time>
      </trkpt>
      <trkpt lat="47.20796" lon="-1.78867">
        <ele>50</ele>
        <time>2021-06-05T13:15:58.000Z</time>
      </trkpt>
      <trkpt lat="47.208" lon="-1.78848">
        <ele>50</ele>
        <time>2021-06-05T13:16:00.000Z</time>
      </trkpt>
      <trkpt lat="47.20804" lon="-1.78828">
        <ele>50</ele>
        <time>2021-06-05T13:16:02.000Z</time>
      </trkpt>
      <trkpt lat="47.20808" lon="-1.78809">
        <ele>50</ele>
        <time>2021-06-05T13:16:04.000Z</time>
      </trkpt>
      <trkpt lat="47.20812" lon="-1.7879">
        <ele>50</ele>
        <time>2021-06-05T13:16:06.000Z</time>
      </trkpt>
      <trkpt lat="47.20816" lon="-1.7877">
        <ele>50</ele>
        <time>2021-06-05T13:16:08.000Z</time>
      </trkpt>
      <trkpt lat="47.2082" lon="-1.78752">
        <ele>50</ele>
        <time>2021-06-05T13:16:10.000Z</time>
      </trkpt>
      <trkpt lat="47.20824" lon="-1.78732">
        <ele>50</ele>
        <time>2021-06-05T13:16:12.000Z</time>
      </trkpt>
      <trkpt lat="47.20827" lon="-1.78713">
        <ele>50</ele>
        <time>2021-06-05T13:16:14.000Z</time>
      </trkpt>
      <trkpt lat="47.20829" lon="-1.78694">
        <ele>50</ele>
        <time>2021-06-05T13:16:16.000Z</time>
      </trkpt>
      <trkpt lat="47.2083" lon="-1.78675">
        <ele>51</ele>
        <time>2021-06-05T13:16:18.000Z</time>
      </trkpt>
      <trkpt lat="47.20829" lon="-1.78656">
        <ele>51</ele>
        <time>2021-06-05T13:16:20.000Z</time>
      </trkpt>
      <trkpt lat="47.20827" lon="-1.78637">
        <ele>52</ele>
        <time>2021-06-05T13:16:22.000Z</time>
      </trkpt>
      <trkpt lat="47.20819" lon="-1.78621">
        <ele>52</ele>
        <time>2021-06-05T13:16:24.000Z</time>
      </trkpt>
      <trkpt lat="47.20809" lon="-1.7861">
        <ele>52</ele>
        <time>2021-06-05T13:16:26.000Z</time>
      </trkpt>
      <trkpt lat="47.20798" lon="-1.78599">
        <ele>52</ele>
        <time>2021-06-05T13:16:28.000Z</time>
      </trkpt>
      <trkpt lat="47.20787" lon="-1.78591">
        <ele>52</ele>
        <time>2021-06-05T13:16:30.000Z</time>
      </trkpt>
      <trkpt lat="47.20776" lon="-1.78584">
        <ele>52</ele>
        <time>2021-06-05T13:16:32.000Z</time>
      </trkpt>
      <trkpt lat="47.20764" lon="-1.78577">
        <ele>52</ele>
        <time>2021-06-05T13:16:34.000Z</time>
      </trkpt>
      <trkpt lat="47.20752" lon="-1.78572">
        <ele>52</ele>
        <time>2021-06-05T13:16:36.000Z</time>
      </trkpt>
      <trkpt lat="47.20739" lon="-1.78566">
        <ele>52</ele>
        <time>2021-06-05T13:16:38.000Z</time>
      </trkpt>
      <trkpt lat="47.20725" lon="-1.78563">
        <ele>52</ele>
        <time>2021-06-05T13:16:40.000Z</time>
      </trkpt>
      <trkpt lat="47.20712" lon="-1.7856">
        <ele>52</ele>
        <time>2021-06-05T13:16:42.000Z</time>
      </trkpt>
      <trkpt lat="47.207" lon="-1.78558">
        <ele>52</ele>
        <time>2021-06-05T13:16:44.000Z</time>
      </trkpt>
      <trkpt lat="47.20689" lon="-1.78557">
        <ele>53</ele>
        <time>2021-06-05T13:16:46.000Z</time>
      </trkpt>
      <trkpt lat="47.20675" lon="-1.78556">
        <ele>55</ele>
        <time>2021-06-05T13:16:49.000Z</time>
      </trkpt>
      <trkpt lat="47.20663" lon="-1.78552">
        <ele>56</ele>
        <time>2021-06-05T13:16:51.000Z</time>
      </trkpt>
      <trkpt lat="47.2065" lon="-1.78547">
        <ele>56</ele>
        <time>2021-06-05T13:16:53.000Z</time>
      </trkpt>
      <trkpt lat="47.20636" lon="-1.7854">
        <ele>57</ele>
        <time>2021-06-05T13:16:55.000Z</time>
      </trkpt>
      <trkpt lat="47.20624" lon="-1.78532">
        <ele>58</ele>
        <time>2021-06-05T13:16:57.000Z</time>
      </trkpt>
      <trkpt lat="47.20613" lon="-1.78525">
        <ele>58</ele>
        <time>2021-06-05T13:16:59.000Z</time>
      </trkpt>
      <trkpt lat="47.20599" lon="-1.78519">
        <ele>58</ele>
        <time>2021-06-05T13:17:01.000Z</time>
      </trkpt>
      <trkpt lat="47.20584" lon="-1.78516">
        <ele>56</ele>
        <time>2021-06-05T13:17:03.000Z</time>
      </trkpt>
      <trkpt lat="47.20569" lon="-1.78514">
        <ele>54</ele>
        <time>2021-06-05T13:17:05.000Z</time>
      </trkpt>
      <trkpt lat="47.20554" lon="-1.78513">
        <ele>54</ele>
        <time>2021-06-05T13:17:07.000Z</time>
      </trkpt>
      <trkpt lat="47.2054" lon="-1.78513">
        <ele>53</ele>
        <time>2021-06-05T13:17:09.000Z</time>
      </trkpt>
      <trkpt lat="47.20525" lon="-1.78513">
        <ele>53</ele>
        <time>2021-06-05T13:17:11.000Z</time>
      </trkpt>
      <trkpt lat="47.20511" lon="-1.78512">
        <ele>53</ele>
        <time>2021-06-05T13:17:13.000Z</time>
      </trkpt>
      <trkpt lat="47.20498" lon="-1.78506">
        <ele>53</ele>
        <time>2021-06-05T13:17:15.000Z</time>
      </trkpt>
      <trkpt lat="47.20485" lon="-1.78498">
        <ele>53</ele>
        <time>2021-06-05T13:17:17.000Z</time>
      </trkpt>
      <trkpt lat="47.20473" lon="-1.78487">
        <ele>54</ele>
        <time>2021-06-05T13:17:19.000Z</time>
      </trkpt>
      <trkpt lat="47.20462" lon="-1.78472">
        <ele>53</ele>
        <time>2021-06-05T13:17:21.000Z</time>
      </trkpt>
      <trkpt lat="47.20451" lon="-1.78458">
        <ele>53</ele>
        <time>2021-06-05T13:17:23.000Z</time>
      </trkpt>
      <trkpt lat="47.2044" lon="-1.78444">
        <ele>52</ele>
        <time>2021-06-05T13:17:25.000Z</time>
      </trkpt>
      <trkpt lat="47.20428" lon="-1.7843">
        <ele>53</ele>
        <time>2021-06-05T13:17:27.000Z</time>
      </trkpt>
      <trkpt lat="47.20418" lon="-1.78414">
        <ele>52</ele>
        <time>2021-06-05T13:17:29.000Z</time>
      </trkpt>
      <trkpt lat="47.20409" lon="-1.78395">
        <ele>51</ele>
        <time>2021-06-05T13:17:31.000Z</time>
      </trkpt>
      <trkpt lat="47.20401" lon="-1.78378">
        <ele>52</ele>
        <time>2021-06-05T13:17:33.000Z</time>
      </trkpt>
      <trkpt lat="47.20392" lon="-1.78361">
        <ele>52</ele>
        <time>2021-06-05T13:17:35.000Z</time>
      </trkpt>
      <trkpt lat="47.20384" lon="-1.78344">
        <ele>52</ele>
        <time>2021-06-05T13:17:37.000Z</time>
      </trkpt>
      <trkpt lat="47.20375" lon="-1.78327">
        <ele>52</ele>
        <time>2021-06-05T13:17:39.000Z</time>
      </trkpt>
      <trkpt lat="47.20367" lon="-1.7831">
        <ele>52</ele>
        <time>2021-06-05T13:17:41.000Z</time>
      </trkpt>
      <trkpt lat="47.20358" lon="-1.78294">
        <ele>52</ele>
        <time>2021-06-05T13:17:43.000Z</time>
      </trkpt>
      <trkpt lat="47.2035" lon="-1.78278">
        <ele>52</ele>
        <time>2021-06-05T13:17:45.000Z</time>
      </trkpt>
      <trkpt lat="47.2034" lon="-1.78263">
        <ele>51</ele>
        <time>2021-06-05T13:17:47.000Z</time>
      </trkpt>
      <trkpt lat="47.20331" lon="-1.78248">
        <ele>52</ele>
        <time>2021-06-05T13:17:49.000Z</time>
      </trkpt>
      <trkpt lat="47.20321" lon="-1.78233">
        <ele>51</ele>
        <time>2021-06-05T13:17:51.000Z</time>
      </trkpt>
      <trkpt lat="47.20312" lon="-1.78219">
        <ele>52</ele>
        <time>2021-06-05T13:17:53.000Z</time>
      </trkpt>
      <trkpt lat="47.20302" lon="-1.78204">
        <ele>52</ele>
        <time>2021-06-05T13:17:55.000Z</time>
      </trkpt>
      <trkpt lat="47.20293" lon="-1.78191">
        <ele>53</ele>
        <time>2021-06-05T13:17:57.000Z</time>
      </trkpt>
      <trkpt lat="47.20283" lon="-1.78177">
        <ele>53</ele>
        <time>2021-06-05T13:17:59.000Z</time>
      </trkpt>
      <trkpt lat="47.20274" lon="-1.78161">
        <ele>54</ele>
        <time>2021-06-05T13:18:01.000Z</time>
      </trkpt>
      <trkpt lat="47.20265" lon="-1.78146">
        <ele>54</ele>
        <time>2021-06-05T13:18:03.000Z</time>
      </trkpt>
      <trkpt lat="47.20256" lon="-1.7813">
        <ele>54</ele>
        <time>2021-06-05T13:18:05.000Z</time>
      </trkpt>
      <trkpt lat="47.20247" lon="-1.78114">
        <ele>55</ele>
        <time>2021-06-05T13:18:07.000Z</time>
      </trkpt>
      <trkpt lat="47.20238" lon="-1.78098">
        <ele>55</ele>
        <time>2021-06-05T13:18:09.000Z</time>
      </trkpt>
      <trkpt lat="47.20231" lon="-1.78082">
        <ele>56</ele>
        <time>2021-06-05T13:18:11.000Z</time>
      </trkpt>
      <trkpt lat="47.20223" lon="-1.78066">
        <ele>56</ele>
        <time>2021-06-05T13:18:13.000Z</time>
      </trkpt>
      <trkpt lat="47.20216" lon="-1.78051">
        <ele>57</ele>
        <time>2021-06-05T13:18:15.000Z</time>
      </trkpt>
      <trkpt lat="47.20208" lon="-1.78036">
        <ele>57</ele>
        <time>2021-06-05T13:18:17.000Z</time>
      </trkpt>
      <trkpt lat="47.20202" lon="-1.78021">
        <ele>58</ele>
        <time>2021-06-05T13:18:19.000Z</time>
      </trkpt>
      <trkpt lat="47.20195" lon="-1.78006">
        <ele>58</ele>
        <time>2021-06-05T13:18:21.000Z</time>
      </trkpt>
      <trkpt lat="47.20188" lon="-1.77989">
        <ele>58</ele>
        <time>2021-06-05T13:18:23.000Z</time>
      </trkpt>
      <trkpt lat="47.20182" lon="-1.77974">
        <ele>58</ele>
        <time>2021-06-05T13:18:25.000Z</time>
      </trkpt>
      <trkpt lat="47.20176" lon="-1.77959">
        <ele>59</ele>
        <time>2021-06-05T13:18:27.000Z</time>
      </trkpt>
      <trkpt lat="47.20171" lon="-1.77944">
        <ele>59</ele>
        <time>2021-06-05T13:18:29.000Z</time>
      </trkpt>
      <trkpt lat="47.20167" lon="-1.77929">
        <ele>60</ele>
        <time>2021-06-05T13:18:31.000Z</time>
      </trkpt>
      <trkpt lat="47.20162" lon="-1.77914">
        <ele>60</ele>
        <time>2021-06-05T13:18:33.000Z</time>
      </trkpt>
      <trkpt lat="47.20157" lon="-1.77898">
        <ele>60</ele>
        <time>2021-06-05T13:18:35.000Z</time>
      </trkpt>
      <trkpt lat="47.20154" lon="-1.77885">
        <ele>60</ele>
        <time>2021-06-05T13:18:37.000Z</time>
      </trkpt>
      <trkpt lat="47.20148" lon="-1.77867">
        <ele>60</ele>
        <time>2021-06-05T13:18:40.000Z</time>
      </trkpt>
      <trkpt lat="47.20144" lon="-1.7785">
        <ele>60</ele>
        <time>2021-06-05T13:18:43.000Z</time>
      </trkpt>
      <trkpt lat="47.20141" lon="-1.77837">
        <ele>60</ele>
        <time>2021-06-05T13:18:45.000Z</time>
      </trkpt>
      <trkpt lat="47.20136" lon="-1.77821">
        <ele>60</ele>
        <time>2021-06-05T13:18:47.000Z</time>
      </trkpt>
      <trkpt lat="47.20131" lon="-1.77804">
        <ele>59</ele>
        <time>2021-06-05T13:18:49.000Z</time>
      </trkpt>
      <trkpt lat="47.20125" lon="-1.77784">
        <ele>58</ele>
        <time>2021-06-05T13:18:51.000Z</time>
      </trkpt>
      <trkpt lat="47.20113" lon="-1.77772">
        <ele>58</ele>
        <time>2021-06-05T13:18:53.000Z</time>
      </trkpt>
      <trkpt lat="47.20097" lon="-1.77774">
        <ele>57</ele>
        <time>2021-06-05T13:18:55.000Z</time>
      </trkpt>
      <trkpt lat="47.20081" lon="-1.77778">
        <ele>57</ele>
        <time>2021-06-05T13:18:57.000Z</time>
      </trkpt>
      <trkpt lat="47.20065" lon="-1.7778">
        <ele>56</ele>
        <time>2021-06-05T13:18:59.000Z</time>
      </trkpt>
      <trkpt lat="47.20049" lon="-1.7778">
        <ele>55</ele>
        <time>2021-06-05T13:19:01.000Z</time>
      </trkpt>
      <trkpt lat="47.20033" lon="-1.77779">
        <ele>55</ele>
        <time>2021-06-05T13:19:03.000Z</time>
      </trkpt>
      <trkpt lat="47.20019" lon="-1.77774">
        <ele>54</ele>
        <time>2021-06-05T13:19:05.000Z</time>
      </trkpt>
      <trkpt lat="47.20013" lon="-1.77757">
        <ele>54</ele>
        <time>2021-06-05T13:19:07.000Z</time>
      </trkpt>
      <trkpt lat="47.20015" lon="-1.77737">
        <ele>55</ele>
        <time>2021-06-05T13:19:09.000Z</time>
      </trkpt>
      <trkpt lat="47.20017" lon="-1.77717">
        <ele>55</ele>
        <time>2021-06-05T13:19:11.000Z</time>
      </trkpt>
      <trkpt lat="47.20018" lon="-1.77697">
        <ele>55</ele>
        <time>2021-06-05T13:19:13.000Z</time>
      </trkpt>
      <trkpt lat="47.20017" lon="-1.77678">
        <ele>56</ele>
        <time>2021-06-05T13:19:15.000Z</time>
      </trkpt>
      <trkpt lat="47.20016" lon="-1.77657">
        <ele>56</ele>
        <time>2021-06-05T13:19:17.000Z</time>
      </trkpt>
      <trkpt lat="47.20015" lon="-1.77637">
        <ele>57</ele>
        <time>2021-06-05T13:19:19.000Z</time>
      </trkpt>
      <trkpt lat="47.20013" lon="-1.77616">
        <ele>58</ele>
        <time>2021-06-05T13:19:21.000Z</time>
      </trkpt>
      <trkpt lat="47.20013" lon="-1.77595">
        <ele>58</ele>
        <time>2021-06-05T13:19:23.000Z</time>
      </trkpt>
      <trkpt lat="47.20012" lon="-1.77575">
        <ele>59</ele>
        <time>2021-06-05T13:19:25.000Z</time>
      </trkpt>
      <trkpt lat="47.20012" lon="-1.77555">
        <ele>60</ele>
        <time>2021-06-05T13:19:27.000Z</time>
      </trkpt>
      <trkpt lat="47.20013" lon="-1.77535">
        <ele>60</ele>
        <time>2021-06-05T13:19:29.000Z</time>
      </trkpt>
      <trkpt lat="47.20013" lon="-1.77516">
        <ele>60</ele>
        <time>2021-06-05T13:19:31.000Z</time>
      </trkpt>
      <trkpt lat="47.20013" lon="-1.77498">
        <ele>60</ele>
        <time>2021-06-05T13:19:33.000Z</time>
      </trkpt>
      <trkpt lat="47.20014" lon="-1.77478">
        <ele>60</ele>
        <time>2021-06-05T13:19:35.000Z</time>
      </trkpt>
      <trkpt lat="47.20014" lon="-1.77458">
        <ele>60</ele>
        <time>2021-06-05T13:19:37.000Z</time>
      </trkpt>
      <trkpt lat="47.20014" lon="-1.77438">
        <ele>60</ele>
        <time>2021-06-05T13:19:39.000Z</time>
      </trkpt>
      <trkpt lat="47.20014" lon="-1.77418">
        <ele>60</ele>
        <time>2021-06-05T13:19:41.000Z</time>
      </trkpt>
      <trkpt lat="47.20014" lon="-1.77396">
        <ele>60</ele>
        <time>2021-06-05T13:19:43.000Z</time>
      </trkpt>
      <trkpt lat="47.20015" lon="-1.77375">
        <ele>60</ele>
        <time>2021-06-05T13:19:45.000Z</time>
      </trkpt>
      <trkpt lat="47.20016" lon="-1.77354">
        <ele>60</ele>
        <time>2021-06-05T13:19:47.000Z</time>
      </trkpt>
      <trkpt lat="47.20016" lon="-1.77334">
        <ele>60</ele>
        <time>2021-06-05T13:19:49.000Z</time>
      </trkpt>
      <trkpt lat="47.20017" lon="-1.77313">
        <ele>60</ele>
        <time>2021-06-05T13:19:51.000Z</time>
      </trkpt>
      <trkpt lat="47.20017" lon="-1.77293">
        <ele>59</ele>
        <time>2021-06-05T13:19:53.000Z</time>
      </trkpt>
      <trkpt lat="47.20017" lon="-1.77273">
        <ele>59</ele>
        <time>2021-06-05T13:19:55.000Z</time>
      </trkpt>
      <trkpt lat="47.20017" lon="-1.77253">
        <ele>60</ele>
        <time>2021-06-05T13:19:57.000Z</time>
      </trkpt>
      <trkpt lat="47.20018" lon="-1.77233">
        <ele>59</ele>
        <time>2021-06-05T13:19:59.000Z</time>
      </trkpt>
      <trkpt lat="47.20018" lon="-1.77213">
        <ele>59</ele>
        <time>2021-06-05T13:20:01.000Z</time>
      </trkpt>
      <trkpt lat="47.20017" lon="-1.77193">
        <ele>59</ele>
        <time>2021-06-05T13:20:03.000Z</time>
      </trkpt>
      <trkpt lat="47.20018" lon="-1.77173">
        <ele>59</ele>
        <time>2021-06-05T13:20:05.000Z</time>
      </trkpt>
      <trkpt lat="47.2002" lon="-1.77153">
        <ele>59</ele>
        <time>2021-06-05T13:20:07.000Z</time>
      </trkpt>
      <trkpt lat="47.2002" lon="-1.77132">
        <ele>59</ele>
        <time>2021-06-05T13:20:09.000Z</time>
      </trkpt>
      <trkpt lat="47.20019" lon="-1.77112">
        <ele>59</ele>
        <time>2021-06-05T13:20:11.000Z</time>
      </trkpt>
      <trkpt lat="47.20019" lon="-1.77093">
        <ele>60</ele>
        <time>2021-06-05T13:20:13.000Z</time>
      </trkpt>
      <trkpt lat="47.2002" lon="-1.77073">
        <ele>60</ele>
        <time>2021-06-05T13:20:15.000Z</time>
      </trkpt>
      <trkpt lat="47.2002" lon="-1.77054">
        <ele>60</ele>
        <time>2021-06-05T13:20:17.000Z</time>
      </trkpt>
      <trkpt lat="47.2002" lon="-1.77034">
        <ele>61</ele>
        <time>2021-06-05T13:20:19.000Z</time>
      </trkpt>
      <trkpt lat="47.20021" lon="-1.77014">
        <ele>61</ele>
        <time>2021-06-05T13:20:21.000Z</time>
      </trkpt>
      <trkpt lat="47.20021" lon="-1.76994">
        <ele>61</ele>
        <time>2021-06-05T13:20:23.000Z</time>
      </trkpt>
      <trkpt lat="47.20022" lon="-1.76975">
        <ele>62</ele>
        <time>2021-06-05T13:20:25.000Z</time>
      </trkpt>
      <trkpt lat="47.20022" lon="-1.76955">
        <ele>62</ele>
        <time>2021-06-05T13:20:27.000Z</time>
      </trkpt>
      <trkpt lat="47.20022" lon="-1.76936">
        <ele>62</ele>
        <time>2021-06-05T13:20:29.000Z</time>
      </trkpt>
      <trkpt lat="47.20022" lon="-1.76916">
        <ele>62</ele>
        <time>2021-06-05T13:20:31.000Z</time>
      </trkpt>
      <trkpt lat="47.20023" lon="-1.76897">
        <ele>62</ele>
        <time>2021-06-05T13:20:33.000Z</time>
      </trkpt>
      <trkpt lat="47.20024" lon="-1.76878">
        <ele>62</ele>
        <time>2021-06-05T13:20:35.000Z</time>
      </trkpt>
      <trkpt lat="47.20025" lon="-1.76858">
        <ele>62</ele>
        <time>2021-06-05T13:20:37.000Z</time>
      </trkpt>
      <trkpt lat="47.20025" lon="-1.76838">
        <ele>61</ele>
        <time>2021-06-05T13:20:39.000Z</time>
      </trkpt>
      <trkpt lat="47.20026" lon="-1.76818">
        <ele>61</ele>
        <time>2021-06-05T13:20:41.000Z</time>
      </trkpt>
      <trkpt lat="47.20026" lon="-1.76798">
        <ele>61</ele>
        <time>2021-06-05T13:20:43.000Z</time>
      </trkpt>
      <trkpt lat="47.20027" lon="-1.76778">
        <ele>62</ele>
        <time>2021-06-05T13:20:45.000Z</time>
      </trkpt>
      <trkpt lat="47.20027" lon="-1.76758">
        <ele>62</ele>
        <time>2021-06-05T13:20:47.000Z</time>
      </trkpt>
      <trkpt lat="47.20028" lon="-1.76738">
        <ele>62</ele>
        <time>2021-06-05T13:20:49.000Z</time>
      </trkpt>
      <trkpt lat="47.20029" lon="-1.76718">
        <ele>62</ele>
        <time>2021-06-05T13:20:51.000Z</time>
      </trkpt>
      <trkpt lat="47.2003" lon="-1.76698">
        <ele>62</ele>
        <time>2021-06-05T13:20:53.000Z</time>
      </trkpt>
      <trkpt lat="47.2003" lon="-1.76678">
        <ele>62</ele>
        <time>2021-06-05T13:20:55.000Z</time>
      </trkpt>
      <trkpt lat="47.20031" lon="-1.76657">
        <ele>62</ele>
        <time>2021-06-05T13:20:57.000Z</time>
      </trkpt>
      <trkpt lat="47.20032" lon="-1.76637">
        <ele>61</ele>
        <time>2021-06-05T13:20:59.000Z</time>
      </trkpt>
      <trkpt lat="47.20032" lon="-1.76616">
        <ele>61</ele>
        <time>2021-06-05T13:21:01.000Z</time>
      </trkpt>
      <trkpt lat="47.20033" lon="-1.76596">
        <ele>61</ele>
        <time>2021-06-05T13:21:03.000Z</time>
      </trkpt>
      <trkpt lat="47.20034" lon="-1.76576">
        <ele>61</ele>
        <time>2021-06-05T13:21:05.000Z</time>
      </trkpt>
      <trkpt lat="47.20035" lon="-1.76557">
        <ele>61</ele>
        <time>2021-06-05T13:21:07.000Z</time>
      </trkpt>
      <trkpt lat="47.20035" lon="-1.76537">
        <ele>62</ele>
        <time>2021-06-05T13:21:09.000Z</time>
      </trkpt>
      <trkpt lat="47.20036" lon="-1.76518">
        <ele>61</ele>
        <time>2021-06-05T13:21:11.000Z</time>
      </trkpt>
      <trkpt lat="47.20037" lon="-1.76499">
        <ele>62</ele>
        <time>2021-06-05T13:21:13.000Z</time>
      </trkpt>
      <trkpt lat="47.20038" lon="-1.7648">
        <ele>62</ele>
        <time>2021-06-05T13:21:15.000Z</time>
      </trkpt>
      <trkpt lat="47.20039" lon="-1.7646">
        <ele>62</ele>
        <time>2021-06-05T13:21:17.000Z</time>
      </trkpt>
      <trkpt lat="47.2004" lon="-1.7644">
        <ele>62</ele>
        <time>2021-06-05T13:21:19.000Z</time>
      </trkpt>
      <trkpt lat="47.20041" lon="-1.7642">
        <ele>62</ele>
        <time>2021-06-05T13:21:21.000Z</time>
      </trkpt>
      <trkpt lat="47.20042" lon="-1.764">
        <ele>62</ele>
        <time>2021-06-05T13:21:23.000Z</time>
      </trkpt>
      <trkpt lat="47.20043" lon="-1.7638">
        <ele>61</ele>
        <time>2021-06-05T13:21:25.000Z</time>
      </trkpt>
      <trkpt lat="47.20045" lon="-1.7636">
        <ele>61</ele>
        <time>2021-06-05T13:21:27.000Z</time>
      </trkpt>
      <trkpt lat="47.20046" lon="-1.7634">
        <ele>61</ele>
        <time>2021-06-05T13:21:29.000Z</time>
      </trkpt>
      <trkpt lat="47.20048" lon="-1.76321">
        <ele>61</ele>
        <time>2021-06-05T13:21:31.000Z</time>
      </trkpt>
      <trkpt lat="47.20049" lon="-1.76301">
        <ele>61</ele>
        <time>2021-06-05T13:21:33.000Z</time>
      </trkpt>
      <trkpt lat="47.2005" lon="-1.7628">
        <ele>61</ele>
        <time>2021-06-05T13:21:35.000Z</time>
      </trkpt>
      <trkpt lat="47.20051" lon="-1.7626">
        <ele>60</ele>
        <time>2021-06-05T13:21:37.000Z</time>
      </trkpt>
      <trkpt lat="47.20052" lon="-1.7624">
        <ele>60</ele>
        <time>2021-06-05T13:21:39.000Z</time>
      </trkpt>
      <trkpt lat="47.20054" lon="-1.76221">
        <ele>60</ele>
        <time>2021-06-05T13:21:41.000Z</time>
      </trkpt>
      <trkpt lat="47.20054" lon="-1.762">
        <ele>60</ele>
        <time>2021-06-05T13:21:43.000Z</time>
      </trkpt>
      <trkpt lat="47.20055" lon="-1.76181">
        <ele>60</ele>
        <time>2021-06-05T13:21:45.000Z</time>
      </trkpt>
      <trkpt lat="47.20055" lon="-1.7616">
        <ele>60</ele>
        <time>2021-06-05T13:21:47.000Z</time>
      </trkpt>
      <trkpt lat="47.20055" lon="-1.7614">
        <ele>59</ele>
        <time>2021-06-05T13:21:49.000Z</time>
      </trkpt>
      <trkpt lat="47.20054" lon="-1.76119">
        <ele>59</ele>
        <time>2021-06-05T13:21:51.000Z</time>
      </trkpt>
      <trkpt lat="47.20053" lon="-1.76099">
        <ele>59</ele>
        <time>2021-06-05T13:21:53.000Z</time>
      </trkpt>
      <trkpt lat="47.20053" lon="-1.76078">
        <ele>59</ele>
        <time>2021-06-05T13:21:55.000Z</time>
      </trkpt>
      <trkpt lat="47.20052" lon="-1.76058">
        <ele>59</ele>
        <time>2021-06-05T13:21:57.000Z</time>
      </trkpt>
      <trkpt lat="47.20051" lon="-1.76038">
        <ele>59</ele>
        <time>2021-06-05T13:21:59.000Z</time>
      </trkpt>
      <trkpt lat="47.2005" lon="-1.76017">
        <ele>59</ele>
        <time>2021-06-05T13:22:01.000Z</time>
      </trkpt>
      <trkpt lat="47.20048" lon="-1.75997">
        <ele>60</ele>
        <time>2021-06-05T13:22:03.000Z</time>
      </trkpt>
      <trkpt lat="47.20043" lon="-1.75979">
        <ele>59</ele>
        <time>2021-06-05T13:22:05.000Z</time>
      </trkpt>
      <trkpt lat="47.20045" lon="-1.7596">
        <ele>59</ele>
        <time>2021-06-05T13:22:07.000Z</time>
      </trkpt>
      <trkpt lat="47.20048" lon="-1.7594">
        <ele>59</ele>
        <time>2021-06-05T13:22:09.000Z</time>
      </trkpt>
      <trkpt lat="47.20047" lon="-1.75919">
        <ele>59</ele>
        <time>2021-06-05T13:22:11.000Z</time>
      </trkpt>
      <trkpt lat="47.20046" lon="-1.75899">
        <ele>59</ele>
        <time>2021-06-05T13:22:13.000Z</time>
      </trkpt>
      <trkpt lat="47.20045" lon="-1.7588">
        <ele>59</ele>
        <time>2021-06-05T13:22:15.000Z</time>
      </trkpt>
      <trkpt lat="47.20045" lon="-1.7586">
        <ele>59</ele>
        <time>2021-06-05T13:22:17.000Z</time>
      </trkpt>
      <trkpt lat="47.20045" lon="-1.75841">
        <ele>60</ele>
        <time>2021-06-05T13:22:19.000Z</time>
      </trkpt>
      <trkpt lat="47.20044" lon="-1.75821">
        <ele>60</ele>
        <time>2021-06-05T13:22:21.000Z</time>
      </trkpt>
      <trkpt lat="47.20043" lon="-1.75801">
        <ele>60</ele>
        <time>2021-06-05T13:22:23.000Z</time>
      </trkpt>
      <trkpt lat="47.20042" lon="-1.75781">
        <ele>61</ele>
        <time>2021-06-05T13:22:25.000Z</time>
      </trkpt>
      <trkpt lat="47.20041" lon="-1.75762">
        <ele>61</ele>
        <time>2021-06-05T13:22:27.000Z</time>
      </trkpt>
      <trkpt lat="47.2004" lon="-1.75743">
        <ele>61</ele>
        <time>2021-06-05T13:22:29.000Z</time>
      </trkpt>
      <trkpt lat="47.20037" lon="-1.75725">
        <ele>61</ele>
        <time>2021-06-05T13:22:31.000Z</time>
      </trkpt>
      <trkpt lat="47.20033" lon="-1.75706">
        <ele>61</ele>
        <time>2021-06-05T13:22:33.000Z</time>
      </trkpt>
      <trkpt lat="47.20028" lon="-1.75688">
        <ele>62</ele>
        <time>2021-06-05T13:22:35.000Z</time>
      </trkpt>
      <trkpt lat="47.20023" lon="-1.7567">
        <ele>63</ele>
        <time>2021-06-05T13:22:37.000Z</time>
      </trkpt>
      <trkpt lat="47.20017" lon="-1.75651">
        <ele>63</ele>
        <time>2021-06-05T13:22:39.000Z</time>
      </trkpt>
      <trkpt lat="47.20012" lon="-1.75633">
        <ele>64</ele>
        <time>2021-06-05T13:22:41.000Z</time>
      </trkpt>
      <trkpt lat="47.20007" lon="-1.75616">
        <ele>64</ele>
        <time>2021-06-05T13:22:43.000Z</time>
      </trkpt>
      <trkpt lat="47.20003" lon="-1.756">
        <ele>65</ele>
        <time>2021-06-05T13:22:45.000Z</time>
      </trkpt>
      <trkpt lat="47.19999" lon="-1.75585">
        <ele>65</ele>
        <time>2021-06-05T13:22:47.000Z</time>
      </trkpt>
      <trkpt lat="47.19995" lon="-1.75573">
        <ele>65</ele>
        <time>2021-06-05T13:22:49.000Z</time>
      </trkpt>
      <trkpt lat="47.1999" lon="-1.75554">
        <ele>65</ele>
        <time>2021-06-05T13:22:52.000Z</time>
      </trkpt>
      <trkpt lat="47.19987" lon="-1.75537">
        <ele>65</ele>
        <time>2021-06-05T13:22:54.000Z</time>
      </trkpt>
      <trkpt lat="47.19981" lon="-1.75519">
        <ele>65</ele>
        <time>2021-06-05T13:22:56.000Z</time>
      </trkpt>
      <trkpt lat="47.19976" lon="-1.75502">
        <ele>66</ele>
        <time>2021-06-05T13:22:58.000Z</time>
      </trkpt>
      <trkpt lat="47.19971" lon="-1.75485">
        <ele>66</ele>
        <time>2021-06-05T13:23:00.000Z</time>
      </trkpt>
      <trkpt lat="47.19967" lon="-1.75469">
        <ele>66</ele>
        <time>2021-06-05T13:23:02.000Z</time>
      </trkpt>
      <trkpt lat="47.19964" lon="-1.75452">
        <ele>67</ele>
        <time>2021-06-05T13:23:04.000Z</time>
      </trkpt>
      <trkpt lat="47.1996" lon="-1.75435">
        <ele>67</ele>
        <time>2021-06-05T13:23:06.000Z</time>
      </trkpt>
      <trkpt lat="47.19958" lon="-1.75417">
        <ele>67</ele>
        <time>2021-06-05T13:23:08.000Z</time>
      </trkpt>
      <trkpt lat="47.19955" lon="-1.75399">
        <ele>68</ele>
        <time>2021-06-05T13:23:10.000Z</time>
      </trkpt>
      <trkpt lat="47.19953" lon="-1.75381">
        <ele>68</ele>
        <time>2021-06-05T13:23:12.000Z</time>
      </trkpt>
      <trkpt lat="47.19951" lon="-1.75362">
        <ele>68</ele>
        <time>2021-06-05T13:23:14.000Z</time>
      </trkpt>
      <trkpt lat="47.1995" lon="-1.75343">
        <ele>68</ele>
        <time>2021-06-05T13:23:16.000Z</time>
      </trkpt>
      <trkpt lat="47.19948" lon="-1.75325">
        <ele>68</ele>
        <time>2021-06-05T13:23:18.000Z</time>
      </trkpt>
      <trkpt lat="47.19944" lon="-1.75307">
        <ele>68</ele>
        <time>2021-06-05T13:23:20.000Z</time>
      </trkpt>
      <trkpt lat="47.19939" lon="-1.75289">
        <ele>67</ele>
        <time>2021-06-05T13:23:22.000Z</time>
      </trkpt>
      <trkpt lat="47.19933" lon="-1.75272">
        <ele>67</ele>
        <time>2021-06-05T13:23:24.000Z</time>
      </trkpt>
      <trkpt lat="47.19925" lon="-1.75255">
        <ele>67</ele>
        <time>2021-06-05T13:23:26.000Z</time>
      </trkpt>
      <trkpt lat="47.19919" lon="-1.75239">
        <ele>67</ele>
        <time>2021-06-05T13:23:28.000Z</time>
      </trkpt>
      <trkpt lat="47.19912" lon="-1.75223">
        <ele>67</ele>
        <time>2021-06-05T13:23:30.000Z</time>
      </trkpt>
      <trkpt lat="47.19906" lon="-1.75207">
        <ele>67</ele>
        <time>2021-06-05T13:23:32.000Z</time>
      </trkpt>
      <trkpt lat="47.199" lon="-1.75191">
        <ele>67</ele>
        <time>2021-06-05T13:23:34.000Z</time>
      </trkpt>
      <trkpt lat="47.19893" lon="-1.75175">
        <ele>67</ele>
        <time>2021-06-05T13:23:36.000Z</time>
      </trkpt>
      <trkpt lat="47.19887" lon="-1.75159">
        <ele>67</ele>
        <time>2021-06-05T13:23:38.000Z</time>
      </trkpt>
      <trkpt lat="47.1988" lon="-1.75143">
        <ele>67</ele>
        <time>2021-06-05T13:23:40.000Z</time>
      </trkpt>
      <trkpt lat="47.19873" lon="-1.75128">
        <ele>67</ele>
        <time>2021-06-05T13:23:42.000Z</time>
      </trkpt>
      <trkpt lat="47.19867" lon="-1.75113">
        <ele>68</ele>
        <time>2021-06-05T13:23:44.000Z</time>
      </trkpt>
      <trkpt lat="47.19861" lon="-1.75098">
        <ele>68</ele>
        <time>2021-06-05T13:23:46.000Z</time>
      </trkpt>
      <trkpt lat="47.19855" lon="-1.75081">
        <ele>68</ele>
        <time>2021-06-05T13:23:48.000Z</time>
      </trkpt>
      <trkpt lat="47.19849" lon="-1.75065">
        <ele>67</ele>
        <time>2021-06-05T13:23:50.000Z</time>
      </trkpt>
      <trkpt lat="47.19843" lon="-1.75049">
        <ele>67</ele>
        <time>2021-06-05T13:23:52.000Z</time>
      </trkpt>
      <trkpt lat="47.19836" lon="-1.75032">
        <ele>67</ele>
        <time>2021-06-05T13:23:54.000Z</time>
      </trkpt>
      <trkpt lat="47.19828" lon="-1.75016">
        <ele>66</ele>
        <time>2021-06-05T13:23:56.000Z</time>
      </trkpt>
      <trkpt lat="47.19818" lon="-1.75005">
        <ele>66</ele>
        <time>2021-06-05T13:23:58.000Z</time>
      </trkpt>
      <trkpt lat="47.19804" lon="-1.75001">
        <ele>66</ele>
        <time>2021-06-05T13:24:00.000Z</time>
      </trkpt>
      <trkpt lat="47.1979" lon="-1.74996">
        <ele>66</ele>
        <time>2021-06-05T13:24:02.000Z</time>
      </trkpt>
      <trkpt lat="47.19777" lon="-1.7499">
        <ele>67</ele>
        <time>2021-06-05T13:24:04.000Z</time>
      </trkpt>
      <trkpt lat="47.19763" lon="-1.74984">
        <ele>67</ele>
        <time>2021-06-05T13:24:06.000Z</time>
      </trkpt>
      <trkpt lat="47.1975" lon="-1.74978">
        <ele>68</ele>
        <time>2021-06-05T13:24:08.000Z</time>
      </trkpt>
      <trkpt lat="47.19737" lon="-1.74973">
        <ele>68</ele>
        <time>2021-06-05T13:24:10.000Z</time>
      </trkpt>
      <trkpt lat="47.19725" lon="-1.74967">
        <ele>68</ele>
        <time>2021-06-05T13:24:12.000Z</time>
      </trkpt>
      <trkpt lat="47.19712" lon="-1.7496">
        <ele>68</ele>
        <time>2021-06-05T13:24:14.000Z</time>
      </trkpt>
      <trkpt lat="47.19699" lon="-1.74954">
        <ele>68</ele>
        <time>2021-06-05T13:24:16.000Z</time>
      </trkpt>
      <trkpt lat="47.19687" lon="-1.74947">
        <ele>68</ele>
        <time>2021-06-05T13:24:18.000Z</time>
      </trkpt>
      <trkpt lat="47.19674" lon="-1.7494">
        <ele>69</ele>
        <time>2021-06-05T13:24:20.000Z</time>
      </trkpt>
      <trkpt lat="47.19662" lon="-1.74933">
        <ele>68</ele>
        <time>2021-06-05T13:24:22.000Z</time>
      </trkpt>
      <trkpt lat="47.19649" lon="-1.74926">
        <ele>68</ele>
        <time>2021-06-05T13:24:24.000Z</time>
      </trkpt>
      <trkpt lat="47.19636" lon="-1.74919">
        <ele>67</ele>
        <time>2021-06-05T13:24:26.000Z</time>
      </trkpt>
      <trkpt lat="47.19623" lon="-1.74911">
        <ele>67</ele>
        <time>2021-06-05T13:24:28.000Z</time>
      </trkpt>
      <trkpt lat="47.19609" lon="-1.74903">
        <ele>66</ele>
        <time>2021-06-05T13:24:30.000Z</time>
      </trkpt>
      <trkpt lat="47.19597" lon="-1.74892">
        <ele>67</ele>
        <time>2021-06-05T13:24:32.000Z</time>
      </trkpt>
      <trkpt lat="47.19585" lon="-1.74878">
        <ele>66</ele>
        <time>2021-06-05T13:24:34.000Z</time>
      </trkpt>
      <trkpt lat="47.19574" lon="-1.74862">
        <ele>65</ele>
        <time>2021-06-05T13:24:36.000Z</time>
      </trkpt>
      <trkpt lat="47.19561" lon="-1.74849">
        <ele>64</ele>
        <time>2021-06-05T13:24:38.000Z</time>
      </trkpt>
      <trkpt lat="47.19548" lon="-1.74835">
        <ele>64</ele>
        <time>2021-06-05T13:24:40.000Z</time>
      </trkpt>
      <trkpt lat="47.19535" lon="-1.74822">
        <ele>64</ele>
        <time>2021-06-05T13:24:42.000Z</time>
      </trkpt>
      <trkpt lat="47.19522" lon="-1.74811">
        <ele>63</ele>
        <time>2021-06-05T13:24:44.000Z</time>
      </trkpt>
      <trkpt lat="47.19508" lon="-1.74801">
        <ele>63</ele>
        <time>2021-06-05T13:24:46.000Z</time>
      </trkpt>
      <trkpt lat="47.19495" lon="-1.74792">
        <ele>64</ele>
        <time>2021-06-05T13:24:48.000Z</time>
      </trkpt>
      <trkpt lat="47.19481" lon="-1.74784">
        <ele>64</ele>
        <time>2021-06-05T13:24:50.000Z</time>
      </trkpt>
      <trkpt lat="47.19468" lon="-1.74782">
        <ele>64</ele>
        <time>2021-06-05T13:24:52.000Z</time>
      </trkpt>
      <trkpt lat="47.19454" lon="-1.74783">
        <ele>65</ele>
        <time>2021-06-05T13:24:54.000Z</time>
      </trkpt>
      <trkpt lat="47.19441" lon="-1.74776">
        <ele>64</ele>
        <time>2021-06-05T13:24:56.000Z</time>
      </trkpt>
      <trkpt lat="47.19432" lon="-1.74761">
        <ele>65</ele>
        <time>2021-06-05T13:24:58.000Z</time>
      </trkpt>
      <trkpt lat="47.19422" lon="-1.74747">
        <ele>65</ele>
        <time>2021-06-05T13:25:00.000Z</time>
      </trkpt>
      <trkpt lat="47.19409" lon="-1.74737">
        <ele>66</ele>
        <time>2021-06-05T13:25:02.000Z</time>
      </trkpt>
      <trkpt lat="47.19396" lon="-1.74726">
        <ele>67</ele>
        <time>2021-06-05T13:25:04.000Z</time>
      </trkpt>
      <trkpt lat="47.19385" lon="-1.74716">
        <ele>68</ele>
        <time>2021-06-05T13:25:06.000Z</time>
      </trkpt>
      <trkpt lat="47.19373" lon="-1.74706">
        <ele>68</ele>
        <time>2021-06-05T13:25:08.000Z</time>
      </trkpt>
      <trkpt lat="47.19361" lon="-1.74695">
        <ele>68</ele>
        <time>2021-06-05T13:25:10.000Z</time>
      </trkpt>
      <trkpt lat="47.19349" lon="-1.74685">
        <ele>69</ele>
        <time>2021-06-05T13:25:12.000Z</time>
      </trkpt>
      <trkpt lat="47.19337" lon="-1.74676">
        <ele>69</ele>
        <time>2021-06-05T13:25:14.000Z</time>
      </trkpt>
      <trkpt lat="47.19326" lon="-1.74666">
        <ele>70</ele>
        <time>2021-06-05T13:25:16.000Z</time>
      </trkpt>
      <trkpt lat="47.19314" lon="-1.74656">
        <ele>70</ele>
        <time>2021-06-05T13:25:18.000Z</time>
      </trkpt>
      <trkpt lat="47.19302" lon="-1.74647">
        <ele>71</ele>
        <time>2021-06-05T13:25:20.000Z</time>
      </trkpt>
      <trkpt lat="47.1929" lon="-1.74637">
        <ele>71</ele>
        <time>2021-06-05T13:25:22.000Z</time>
      </trkpt>
      <trkpt lat="47.19279" lon="-1.74627">
        <ele>70</ele>
        <time>2021-06-05T13:25:24.000Z</time>
      </trkpt>
      <trkpt lat="47.19267" lon="-1.74618">
        <ele>71</ele>
        <time>2021-06-05T13:25:26.000Z</time>
      </trkpt>
      <trkpt lat="47.19257" lon="-1.74609">
        <ele>71</ele>
        <time>2021-06-05T13:25:28.000Z</time>
      </trkpt>
      <trkpt lat="47.19246" lon="-1.74599">
        <ele>72</ele>
        <time>2021-06-05T13:25:30.000Z</time>
      </trkpt>
      <trkpt lat="47.19236" lon="-1.74589">
        <ele>72</ele>
        <time>2021-06-05T13:25:32.000Z</time>
      </trkpt>
      <trkpt lat="47.19225" lon="-1.74579">
        <ele>72</ele>
        <time>2021-06-05T13:25:34.000Z</time>
      </trkpt>
      <trkpt lat="47.19215" lon="-1.74568">
        <ele>73</ele>
        <time>2021-06-05T13:25:36.000Z</time>
      </trkpt>
      <trkpt lat="47.19204" lon="-1.74558">
        <ele>73</ele>
        <time>2021-06-05T13:25:38.000Z</time>
      </trkpt>
      <trkpt lat="47.19194" lon="-1.74547">
        <ele>73</ele>
        <time>2021-06-05T13:25:40.000Z</time>
      </trkpt>
      <trkpt lat="47.19183" lon="-1.74537">
        <ele>73</ele>
        <time>2021-06-05T13:25:42.000Z</time>
      </trkpt>
      <trkpt lat="47.19173" lon="-1.74527">
        <ele>73</ele>
        <time>2021-06-05T13:25:44.000Z</time>
      </trkpt>
      <trkpt lat="47.19163" lon="-1.74517">
        <ele>73</ele>
        <time>2021-06-05T13:25:46.000Z</time>
      </trkpt>
      <trkpt lat="47.19152" lon="-1.74506">
        <ele>73</ele>
        <time>2021-06-05T13:25:48.000Z</time>
      </trkpt>
      <trkpt lat="47.19141" lon="-1.74495">
        <ele>73</ele>
        <time>2021-06-05T13:25:50.000Z</time>
      </trkpt>
      <trkpt lat="47.19131" lon="-1.74484">
        <ele>73</ele>
        <time>2021-06-05T13:25:52.000Z</time>
      </trkpt>
      <trkpt lat="47.1912" lon="-1.74473">
        <ele>73</ele>
        <time>2021-06-05T13:25:54.000Z</time>
      </trkpt>
      <trkpt lat="47.19109" lon="-1.74462">
        <ele>73</ele>
        <time>2021-06-05T13:25:56.000Z</time>
      </trkpt>
      <trkpt lat="47.19097" lon="-1.74451">
        <ele>73</ele>
        <time>2021-06-05T13:25:58.000Z</time>
      </trkpt>
      <trkpt lat="47.19087" lon="-1.7444">
        <ele>73</ele>
        <time>2021-06-05T13:26:00.000Z</time>
      </trkpt>
      <trkpt lat="47.19075" lon="-1.74429">
        <ele>73</ele>
        <time>2021-06-05T13:26:02.000Z</time>
      </trkpt>
      <trkpt lat="47.19065" lon="-1.74418">
        <ele>74</ele>
        <time>2021-06-05T13:26:04.000Z</time>
      </trkpt>
      <trkpt lat="47.19054" lon="-1.74407">
        <ele>74</ele>
        <time>2021-06-05T13:26:06.000Z</time>
      </trkpt>
      <trkpt lat="47.19042" lon="-1.74396">
        <ele>74</ele>
        <time>2021-06-05T13:26:08.000Z</time>
      </trkpt>
      <trkpt lat="47.19031" lon="-1.74385">
        <ele>74</ele>
        <time>2021-06-05T13:26:10.000Z</time>
      </trkpt>
      <trkpt lat="47.1902" lon="-1.74374">
        <ele>75</ele>
        <time>2021-06-05T13:26:12.000Z</time>
      </trkpt>
      <trkpt lat="47.1901" lon="-1.74364">
        <ele>75</ele>
        <time>2021-06-05T13:26:14.000Z</time>
      </trkpt>
      <trkpt lat="47.19" lon="-1.74353">
        <ele>75</ele>
        <time>2021-06-05T13:26:16.000Z</time>
      </trkpt>
      <trkpt lat="47.18989" lon="-1.74343">
        <ele>75</ele>
        <time>2021-06-05T13:26:18.000Z</time>
      </trkpt>
      <trkpt lat="47.18978" lon="-1.74332">
        <ele>76</ele>
        <time>2021-06-05T13:26:20.000Z</time>
      </trkpt>
      <trkpt lat="47.18968" lon="-1.74322">
        <ele>76</ele>
        <time>2021-06-05T13:26:22.000Z</time>
      </trkpt>
      <trkpt lat="47.18957" lon="-1.74312">
        <ele>76</ele>
        <time>2021-06-05T13:26:24.000Z</time>
      </trkpt>
      <trkpt lat="47.18946" lon="-1.74302">
        <ele>76</ele>
        <time>2021-06-05T13:26:26.000Z</time>
      </trkpt>
      <trkpt lat="47.18935" lon="-1.74292">
        <ele>76</ele>
        <time>2021-06-05T13:26:28.000Z</time>
      </trkpt>
      <trkpt lat="47.18924" lon="-1.74283">
        <ele>76</ele>
        <time>2021-06-05T13:26:30.000Z</time>
      </trkpt>
      <trkpt lat="47.18913" lon="-1.74274">
        <ele>76</ele>
        <time>2021-06-05T13:26:32.000Z</time>
      </trkpt>
      <trkpt lat="47.18901" lon="-1.74266">
        <ele>76</ele>
        <time>2021-06-05T13:26:34.000Z</time>
      </trkpt>
      <trkpt lat="47.18889" lon="-1.74258">
        <ele>76</ele>
        <time>2021-06-05T13:26:36.000Z</time>
      </trkpt>
      <trkpt lat="47.18878" lon="-1.7425">
        <ele>76</ele>
        <time>2021-06-05T13:26:38.000Z</time>
      </trkpt>
      <trkpt lat="47.18866" lon="-1.74245">
        <ele>76</ele>
        <time>2021-06-05T13:26:40.000Z</time>
      </trkpt>
      <trkpt lat="47.18853" lon="-1.74239">
        <ele>76</ele>
        <time>2021-06-05T13:26:42.000Z</time>
      </trkpt>
      <trkpt lat="47.1884" lon="-1.74234">
        <ele>75</ele>
        <time>2021-06-05T13:26:44.000Z</time>
      </trkpt>
      <trkpt lat="47.18827" lon="-1.74228">
        <ele>75</ele>
        <time>2021-06-05T13:26:46.000Z</time>
      </trkpt>
      <trkpt lat="47.18813" lon="-1.74224">
        <ele>75</ele>
        <time>2021-06-05T13:26:48.000Z</time>
      </trkpt>
      <trkpt lat="47.188" lon="-1.7422">
        <ele>75</ele>
        <time>2021-06-05T13:26:50.000Z</time>
      </trkpt>
      <trkpt lat="47.18787" lon="-1.74216">
        <ele>75</ele>
        <time>2021-06-05T13:26:52.000Z</time>
      </trkpt>
      <trkpt lat="47.18775" lon="-1.74213">
        <ele>76</ele>
        <time>2021-06-05T13:26:54.000Z</time>
      </trkpt>
      <trkpt lat="47.18762" lon="-1.7421">
        <ele>76</ele>
        <time>2021-06-05T13:26:56.000Z</time>
      </trkpt>
      <trkpt lat="47.18749" lon="-1.74207">
        <ele>76</ele>
        <time>2021-06-05T13:26:58.000Z</time>
      </trkpt>
      <trkpt lat="47.18736" lon="-1.74203">
        <ele>75</ele>
        <time>2021-06-05T13:27:00.000Z</time>
      </trkpt>
      <trkpt lat="47.18723" lon="-1.742">
        <ele>75</ele>
        <time>2021-06-05T13:27:02.000Z</time>
      </trkpt>
      <trkpt lat="47.18711" lon="-1.74196">
        <ele>75</ele>
        <time>2021-06-05T13:27:04.000Z</time>
      </trkpt>
      <trkpt lat="47.18698" lon="-1.74192">
        <ele>75</ele>
        <time>2021-06-05T13:27:06.000Z</time>
      </trkpt>
      <trkpt lat="47.18685" lon="-1.74189">
        <ele>74</ele>
        <time>2021-06-05T13:27:08.000Z</time>
      </trkpt>
      <trkpt lat="47.18672" lon="-1.74185">
        <ele>74</ele>
        <time>2021-06-05T13:27:10.000Z</time>
      </trkpt>
      <trkpt lat="47.18658" lon="-1.74182">
        <ele>73</ele>
        <time>2021-06-05T13:27:12.000Z</time>
      </trkpt>
      <trkpt lat="47.18645" lon="-1.74178">
        <ele>73</ele>
        <time>2021-06-05T13:27:14.000Z</time>
      </trkpt>
      <trkpt lat="47.1863" lon="-1.74174">
        <ele>72</ele>
        <time>2021-06-05T13:27:16.000Z</time>
      </trkpt>
      <trkpt lat="47.18616" lon="-1.7417">
        <ele>72</ele>
        <time>2021-06-05T13:27:18.000Z</time>
      </trkpt>
      <trkpt lat="47.18601" lon="-1.74166">
        <ele>72</ele>
        <time>2021-06-05T13:27:20.000Z</time>
      </trkpt>
      <trkpt lat="47.18587" lon="-1.74162">
        <ele>71</ele>
        <time>2021-06-05T13:27:22.000Z</time>
      </trkpt>
      <trkpt lat="47.18573" lon="-1.74158">
        <ele>71</ele>
        <time>2021-06-05T13:27:24.000Z</time>
      </trkpt>
      <trkpt lat="47.18559" lon="-1.74156">
        <ele>71</ele>
        <time>2021-06-05T13:27:26.000Z</time>
      </trkpt>
      <trkpt lat="47.18545" lon="-1.74154">
        <ele>71</ele>
        <time>2021-06-05T13:27:28.000Z</time>
      </trkpt>
      <trkpt lat="47.18531" lon="-1.74151">
        <ele>71</ele>
        <time>2021-06-05T13:27:30.000Z</time>
      </trkpt>
      <trkpt lat="47.18519" lon="-1.74154">
        <ele>71</ele>
        <time>2021-06-05T13:27:32.000Z</time>
      </trkpt>
      <trkpt lat="47.18506" lon="-1.74154">
        <ele>70</ele>
        <time>2021-06-05T13:27:34.000Z</time>
      </trkpt>
      <trkpt lat="47.18497" lon="-1.7414">
        <ele>71</ele>
        <time>2021-06-05T13:27:36.000Z</time>
      </trkpt>
      <trkpt lat="47.18498" lon="-1.7412">
        <ele>71</ele>
        <time>2021-06-05T13:27:38.000Z</time>
      </trkpt>
      <trkpt lat="47.18506" lon="-1.74104">
        <ele>71</ele>
        <time>2021-06-05T13:27:40.000Z</time>
      </trkpt>
      <trkpt lat="47.1851" lon="-1.74084">
        <ele>71</ele>
        <time>2021-06-05T13:27:42.000Z</time>
      </trkpt>
      <trkpt lat="47.18512" lon="-1.74063">
        <ele>71</ele>
        <time>2021-06-05T13:27:44.000Z</time>
      </trkpt>
      <trkpt lat="47.18514" lon="-1.74043">
        <ele>71</ele>
        <time>2021-06-05T13:27:46.000Z</time>
      </trkpt>
      <trkpt lat="47.18515" lon="-1.74022">
        <ele>72</ele>
        <time>2021-06-05T13:27:48.000Z</time>
      </trkpt>
      <trkpt lat="47.18515" lon="-1.74002">
        <ele>72</ele>
        <time>2021-06-05T13:27:50.000Z</time>
      </trkpt>
      <trkpt lat="47.18516" lon="-1.73982">
        <ele>72</ele>
        <time>2021-06-05T13:27:52.000Z</time>
      </trkpt>
      <trkpt lat="47.18516" lon="-1.73962">
        <ele>73</ele>
        <time>2021-06-05T13:27:54.000Z</time>
      </trkpt>
      <trkpt lat="47.18516" lon="-1.73942">
        <ele>73</ele>
        <time>2021-06-05T13:27:56.000Z</time>
      </trkpt>
      <trkpt lat="47.18515" lon="-1.73923">
        <ele>73</ele>
        <time>2021-06-05T13:27:58.000Z</time>
      </trkpt>
      <trkpt lat="47.18514" lon="-1.73903">
        <ele>73</ele>
        <time>2021-06-05T13:28:00.000Z</time>
      </trkpt>
      <trkpt lat="47.18512" lon="-1.73884">
        <ele>73</ele>
        <time>2021-06-05T13:28:02.000Z</time>
      </trkpt>
      <trkpt lat="47.18511" lon="-1.73865">
        <ele>73</ele>
        <time>2021-06-05T13:28:04.000Z</time>
      </trkpt>
      <trkpt lat="47.18509" lon="-1.73846">
        <ele>73</ele>
        <time>2021-06-05T13:28:06.000Z</time>
      </trkpt>
      <trkpt lat="47.18507" lon="-1.73827">
        <ele>74</ele>
        <time>2021-06-05T13:28:08.000Z</time>
      </trkpt>
      <trkpt lat="47.18505" lon="-1.73808">
        <ele>74</ele>
        <time>2021-06-05T13:28:10.000Z</time>
      </trkpt>
      <trkpt lat="47.18503" lon="-1.73788">
        <ele>74</ele>
        <time>2021-06-05T13:28:12.000Z</time>
      </trkpt>
      <trkpt lat="47.18501" lon="-1.73768">
        <ele>73</ele>
        <time>2021-06-05T13:28:14.000Z</time>
      </trkpt>
      <trkpt lat="47.18499" lon="-1.73749">
        <ele>74</ele>
        <time>2021-06-05T13:28:16.000Z</time>
      </trkpt>
      <trkpt lat="47.18498" lon="-1.73729">
        <ele>73</ele>
        <time>2021-06-05T13:28:18.000Z</time>
      </trkpt>
      <trkpt lat="47.18496" lon="-1.73709">
        <ele>73</ele>
        <time>2021-06-05T13:28:20.000Z</time>
      </trkpt>
      <trkpt lat="47.18494" lon="-1.73689">
        <ele>73</ele>
        <time>2021-06-05T13:28:22.000Z</time>
      </trkpt>
      <trkpt lat="47.18492" lon="-1.7367">
        <ele>73</ele>
        <time>2021-06-05T13:28:24.000Z</time>
      </trkpt>
      <trkpt lat="47.1849" lon="-1.73651">
        <ele>73</ele>
        <time>2021-06-05T13:28:26.000Z</time>
      </trkpt>
      <trkpt lat="47.18488" lon="-1.73631">
        <ele>72</ele>
        <time>2021-06-05T13:28:28.000Z</time>
      </trkpt>
      <trkpt lat="47.18487" lon="-1.73611">
        <ele>72</ele>
        <time>2021-06-05T13:28:30.000Z</time>
      </trkpt>
      <trkpt lat="47.18485" lon="-1.73591">
        <ele>72</ele>
        <time>2021-06-05T13:28:32.000Z</time>
      </trkpt>
      <trkpt lat="47.18483" lon="-1.73572">
        <ele>72</ele>
        <time>2021-06-05T13:28:34.000Z</time>
      </trkpt>
      <trkpt lat="47.18481" lon="-1.73553">
        <ele>72</ele>
        <time>2021-06-05T13:28:36.000Z</time>
      </trkpt>
      <trkpt lat="47.1848" lon="-1.73534">
        <ele>72</ele>
        <time>2021-06-05T13:28:38.000Z</time>
      </trkpt>
      <trkpt lat="47.18478" lon="-1.73515">
        <ele>73</ele>
        <time>2021-06-05T13:28:40.000Z</time>
      </trkpt>
      <trkpt lat="47.18476" lon="-1.73495">
        <ele>73</ele>
        <time>2021-06-05T13:28:42.000Z</time>
      </trkpt>
      <trkpt lat="47.18474" lon="-1.73476">
        <ele>73</ele>
        <time>2021-06-05T13:28:44.000Z</time>
      </trkpt>
      <trkpt lat="47.18473" lon="-1.73456">
        <ele>72</ele>
        <time>2021-06-05T13:28:46.000Z</time>
      </trkpt>
      <trkpt lat="47.1847" lon="-1.73437">
        <ele>72</ele>
        <time>2021-06-05T13:28:48.000Z</time>
      </trkpt>
      <trkpt lat="47.18469" lon="-1.73419">
        <ele>73</ele>
        <time>2021-06-05T13:28:50.000Z</time>
      </trkpt>
      <trkpt lat="47.18466" lon="-1.734">
        <ele>73</ele>
        <time>2021-06-05T13:28:52.000Z</time>
      </trkpt>
      <trkpt lat="47.18465" lon="-1.7338">
        <ele>73</ele>
        <time>2021-06-05T13:28:54.000Z</time>
      </trkpt>
      <trkpt lat="47.18463" lon="-1.73361">
        <ele>73</ele>
        <time>2021-06-05T13:28:56.000Z</time>
      </trkpt>
      <trkpt lat="47.18461" lon="-1.73342">
        <ele>74</ele>
        <time>2021-06-05T13:28:58.000Z</time>
      </trkpt>
      <trkpt lat="47.18459" lon="-1.73323">
        <ele>74</ele>
        <time>2021-06-05T13:29:00.000Z</time>
      </trkpt>
      <trkpt lat="47.18457" lon="-1.73304">
        <ele>73</ele>
        <time>2021-06-05T13:29:02.000Z</time>
      </trkpt>
      <trkpt lat="47.18454" lon="-1.73286">
        <ele>74</ele>
        <time>2021-06-05T13:29:04.000Z</time>
      </trkpt>
      <trkpt lat="47.18452" lon="-1.73266">
        <ele>74</ele>
        <time>2021-06-05T13:29:06.000Z</time>
      </trkpt>
      <trkpt lat="47.1845" lon="-1.73248">
        <ele>74</ele>
        <time>2021-06-05T13:29:08.000Z</time>
      </trkpt>
      <trkpt lat="47.18447" lon="-1.73229">
        <ele>74</ele>
        <time>2021-06-05T13:29:10.000Z</time>
      </trkpt>
      <trkpt lat="47.18445" lon="-1.73211">
        <ele>75</ele>
        <time>2021-06-05T13:29:12.000Z</time>
      </trkpt>
      <trkpt lat="47.18442" lon="-1.73193">
        <ele>75</ele>
        <time>2021-06-05T13:29:14.000Z</time>
      </trkpt>
      <trkpt lat="47.1844" lon="-1.73174">
        <ele>75</ele>
        <time>2021-06-05T13:29:16.000Z</time>
      </trkpt>
      <trkpt lat="47.18437" lon="-1.73156">
        <ele>75</ele>
        <time>2021-06-05T13:29:18.000Z</time>
      </trkpt>
      <trkpt lat="47.18436" lon="-1.73137">
        <ele>75</ele>
        <time>2021-06-05T13:29:20.000Z</time>
      </trkpt>
      <trkpt lat="47.18433" lon="-1.73118">
        <ele>75</ele>
        <time>2021-06-05T13:29:22.000Z</time>
      </trkpt>
      <trkpt lat="47.18431" lon="-1.731">
        <ele>75</ele>
        <time>2021-06-05T13:29:24.000Z</time>
      </trkpt>
      <trkpt lat="47.18428" lon="-1.73081">
        <ele>75</ele>
        <time>2021-06-05T13:29:26.000Z</time>
      </trkpt>
      <trkpt lat="47.18426" lon="-1.73063">
        <ele>75</ele>
        <time>2021-06-05T13:29:28.000Z</time>
      </trkpt>
      <trkpt lat="47.18424" lon="-1.73044">
        <ele>75</ele>
        <time>2021-06-05T13:29:30.000Z</time>
      </trkpt>
      <trkpt lat="47.18421" lon="-1.73025">
        <ele>75</ele>
        <time>2021-06-05T13:29:32.000Z</time>
      </trkpt>
      <trkpt lat="47.18419" lon="-1.73007">
        <ele>75</ele>
        <time>2021-06-05T13:29:34.000Z</time>
      </trkpt>
      <trkpt lat="47.18416" lon="-1.72989">
        <ele>76</ele>
        <time>2021-06-05T13:29:36.000Z</time>
      </trkpt>
      <trkpt lat="47.18413" lon="-1.72971">
        <ele>76</ele>
        <time>2021-06-05T13:29:38.000Z</time>
      </trkpt>
      <trkpt lat="47.18411" lon="-1.72953">
        <ele>76</ele>
        <time>2021-06-05T13:29:40.000Z</time>
      </trkpt>
      <trkpt lat="47.18407" lon="-1.72934">
        <ele>76</ele>
        <time>2021-06-05T13:29:42.000Z</time>
      </trkpt>
      <trkpt lat="47.18403" lon="-1.72916">
        <ele>75</ele>
        <time>2021-06-05T13:29:44.000Z</time>
      </trkpt>
      <trkpt lat="47.18398" lon="-1.72897">
        <ele>75</ele>
        <time>2021-06-05T13:29:46.000Z</time>
      </trkpt>
      <trkpt lat="47.18392" lon="-1.72879">
        <ele>75</ele>
        <time>2021-06-05T13:29:48.000Z</time>
      </trkpt>
      <trkpt lat="47.18386" lon="-1.72863">
        <ele>75</ele>
        <time>2021-06-05T13:29:50.000Z</time>
      </trkpt>
      <trkpt lat="47.18381" lon="-1.72845">
        <ele>75</ele>
        <time>2021-06-05T13:29:52.000Z</time>
      </trkpt>
      <trkpt lat="47.18375" lon="-1.72827">
        <ele>75</ele>
        <time>2021-06-05T13:29:54.000Z</time>
      </trkpt>
      <trkpt lat="47.18368" lon="-1.7281">
        <ele>75</ele>
        <time>2021-06-05T13:29:56.000Z</time>
      </trkpt>
      <trkpt lat="47.18362" lon="-1.72793">
        <ele>75</ele>
        <time>2021-06-05T13:29:58.000Z</time>
      </trkpt>
      <trkpt lat="47.18356" lon="-1.72776">
        <ele>75</ele>
        <time>2021-06-05T13:30:00.000Z</time>
      </trkpt>
      <trkpt lat="47.1835" lon="-1.72759">
        <ele>75</ele>
        <time>2021-06-05T13:30:02.000Z</time>
      </trkpt>
      <trkpt lat="47.18344" lon="-1.72743">
        <ele>75</ele>
        <time>2021-06-05T13:30:04.000Z</time>
      </trkpt>
      <trkpt lat="47.18339" lon="-1.72726">
        <ele>76</ele>
        <time>2021-06-05T13:30:06.000Z</time>
      </trkpt>
      <trkpt lat="47.18333" lon="-1.7271">
        <ele>76</ele>
        <time>2021-06-05T13:30:08.000Z</time>
      </trkpt>
      <trkpt lat="47.18327" lon="-1.72694">
        <ele>77</ele>
        <time>2021-06-05T13:30:10.000Z</time>
      </trkpt>
      <trkpt lat="47.18321" lon="-1.72677">
        <ele>77</ele>
        <time>2021-06-05T13:30:12.000Z</time>
      </trkpt>
      <trkpt lat="47.18316" lon="-1.7266">
        <ele>78</ele>
        <time>2021-06-05T13:30:14.000Z</time>
      </trkpt>
      <trkpt lat="47.1831" lon="-1.72644">
        <ele>78</ele>
        <time>2021-06-05T13:30:16.000Z</time>
      </trkpt>
      <trkpt lat="47.18302" lon="-1.72628">
        <ele>78</ele>
        <time>2021-06-05T13:30:18.000Z</time>
      </trkpt>
      <trkpt lat="47.18293" lon="-1.72615">
        <ele>78</ele>
        <time>2021-06-05T13:30:20.000Z</time>
      </trkpt>
      <trkpt lat="47.18283" lon="-1.72604">
        <ele>79</ele>
        <time>2021-06-05T13:30:22.000Z</time>
      </trkpt>
      <trkpt lat="47.18275" lon="-1.7259">
        <ele>79</ele>
        <time>2021-06-05T13:30:24.000Z</time>
      </trkpt>
      <trkpt lat="47.18272" lon="-1.72572">
        <ele>79</ele>
        <time>2021-06-05T13:30:26.000Z</time>
      </trkpt>
      <trkpt lat="47.18271" lon="-1.72557">
        <ele>78</ele>
        <time>2021-06-05T13:30:28.000Z</time>
      </trkpt>
      <trkpt lat="47.18265" lon="-1.72543">
        <ele>78</ele>
        <time>2021-06-05T13:30:30.000Z</time>
      </trkpt>
      <trkpt lat="47.18259" lon="-1.72528">
        <ele>78</ele>
        <time>2021-06-05T13:30:32.000Z</time>
      </trkpt>
      <trkpt lat="47.18257" lon="-1.7251">
        <ele>78</ele>
        <time>2021-06-05T13:30:34.000Z</time>
      </trkpt>
      <trkpt lat="47.18259" lon="-1.72491">
        <ele>78</ele>
        <time>2021-06-05T13:30:36.000Z</time>
      </trkpt>
      <trkpt lat="47.18263" lon="-1.72471">
        <ele>77</ele>
        <time>2021-06-05T13:30:38.000Z</time>
      </trkpt>
      <trkpt lat="47.18266" lon="-1.7245">
        <ele>76</ele>
        <time>2021-06-05T13:30:40.000Z</time>
      </trkpt>
      <trkpt lat="47.18268" lon="-1.72428">
        <ele>76</ele>
        <time>2021-06-05T13:30:42.000Z</time>
      </trkpt>
      <trkpt lat="47.18269" lon="-1.72406">
        <ele>76</ele>
        <time>2021-06-05T13:30:44.000Z</time>
      </trkpt>
      <trkpt lat="47.18269" lon="-1.72385">
        <ele>76</ele>
        <time>2021-06-05T13:30:46.000Z</time>
      </trkpt>
      <trkpt lat="47.18267" lon="-1.72363">
        <ele>76</ele>
        <time>2021-06-05T13:30:48.000Z</time>
      </trkpt>
      <trkpt lat="47.18266" lon="-1.72342">
        <ele>75</ele>
        <time>2021-06-05T13:30:50.000Z</time>
      </trkpt>
      <trkpt lat="47.18264" lon="-1.72322">
        <ele>75</ele>
        <time>2021-06-05T13:30:52.000Z</time>
      </trkpt>
      <trkpt lat="47.18262" lon="-1.72303">
        <ele>75</ele>
        <time>2021-06-05T13:30:54.000Z</time>
      </trkpt>
      <trkpt lat="47.18261" lon="-1.72284">
        <ele>75</ele>
        <time>2021-06-05T13:30:56.000Z</time>
      </trkpt>
      <trkpt lat="47.18259" lon="-1.72265">
        <ele>75</ele>
        <time>2021-06-05T13:30:58.000Z</time>
      </trkpt>
      <trkpt lat="47.18257" lon="-1.72245">
        <ele>75</ele>
        <time>2021-06-05T13:31:00.000Z</time>
      </trkpt>
      <trkpt lat="47.18254" lon="-1.72227">
        <ele>75</ele>
        <time>2021-06-05T13:31:02.000Z</time>
      </trkpt>
      <trkpt lat="47.18251" lon="-1.72208">
        <ele>75</ele>
        <time>2021-06-05T13:31:04.000Z</time>
      </trkpt>
      <trkpt lat="47.18246" lon="-1.7219">
        <ele>76</ele>
        <time>2021-06-05T13:31:06.000Z</time>
      </trkpt>
      <trkpt lat="47.18241" lon="-1.72172">
        <ele>76</ele>
        <time>2021-06-05T13:31:08.000Z</time>
      </trkpt>
      <trkpt lat="47.18236" lon="-1.72155">
        <ele>76</ele>
        <time>2021-06-05T13:31:10.000Z</time>
      </trkpt>
      <trkpt lat="47.1823" lon="-1.72139">
        <ele>76</ele>
        <time>2021-06-05T13:31:12.000Z</time>
      </trkpt>
      <trkpt lat="47.18225" lon="-1.72122">
        <ele>76</ele>
        <time>2021-06-05T13:31:14.000Z</time>
      </trkpt>
      <trkpt lat="47.18219" lon="-1.72105">
        <ele>76</ele>
        <time>2021-06-05T13:31:16.000Z</time>
      </trkpt>
      <trkpt lat="47.18213" lon="-1.72087">
        <ele>76</ele>
        <time>2021-06-05T13:31:18.000Z</time>
      </trkpt>
      <trkpt lat="47.18208" lon="-1.72069">
        <ele>76</ele>
        <time>2021-06-05T13:31:20.000Z</time>
      </trkpt>
      <trkpt lat="47.18202" lon="-1.72051">
        <ele>76</ele>
        <time>2021-06-05T13:31:22.000Z</time>
      </trkpt>
      <trkpt lat="47.18196" lon="-1.72033">
        <ele>76</ele>
        <time>2021-06-05T13:31:24.000Z</time>
      </trkpt>
      <trkpt lat="47.18191" lon="-1.72016">
        <ele>76</ele>
        <time>2021-06-05T13:31:26.000Z</time>
      </trkpt>
      <trkpt lat="47.18185" lon="-1.71998">
        <ele>76</ele>
        <time>2021-06-05T13:31:28.000Z</time>
      </trkpt>
      <trkpt lat="47.18179" lon="-1.7198">
        <ele>76</ele>
        <time>2021-06-05T13:31:30.000Z</time>
      </trkpt>
      <trkpt lat="47.18173" lon="-1.71963">
        <ele>76</ele>
        <time>2021-06-05T13:31:32.000Z</time>
      </trkpt>
      <trkpt lat="47.18168" lon="-1.71945">
        <ele>76</ele>
        <time>2021-06-05T13:31:34.000Z</time>
      </trkpt>
      <trkpt lat="47.18163" lon="-1.71927">
        <ele>76</ele>
        <time>2021-06-05T13:31:36.000Z</time>
      </trkpt>
      <trkpt lat="47.18157" lon="-1.7191">
        <ele>76</ele>
        <time>2021-06-05T13:31:38.000Z</time>
      </trkpt>
      <trkpt lat="47.18151" lon="-1.71893">
        <ele>76</ele>
        <time>2021-06-05T13:31:40.000Z</time>
      </trkpt>
      <trkpt lat="47.18146" lon="-1.71875">
        <ele>76</ele>
        <time>2021-06-05T13:31:42.000Z</time>
      </trkpt>
      <trkpt lat="47.18141" lon="-1.71857">
        <ele>76</ele>
        <time>2021-06-05T13:31:44.000Z</time>
      </trkpt>
      <trkpt lat="47.18135" lon="-1.7184">
        <ele>76</ele>
        <time>2021-06-05T13:31:46.000Z</time>
      </trkpt>
      <trkpt lat="47.18129" lon="-1.71822">
        <ele>76</ele>
        <time>2021-06-05T13:31:48.000Z</time>
      </trkpt>
      <trkpt lat="47.18123" lon="-1.71804">
        <ele>76</ele>
        <time>2021-06-05T13:31:50.000Z</time>
      </trkpt>
      <trkpt lat="47.18116" lon="-1.71787">
        <ele>77</ele>
        <time>2021-06-05T13:31:52.000Z</time>
      </trkpt>
      <trkpt lat="47.1811" lon="-1.7177">
        <ele>77</ele>
        <time>2021-06-05T13:31:54.000Z</time>
      </trkpt>
      <trkpt lat="47.18103" lon="-1.71753">
        <ele>77</ele>
        <time>2021-06-05T13:31:56.000Z</time>
      </trkpt>
      <trkpt lat="47.18097" lon="-1.71737">
        <ele>77</ele>
        <time>2021-06-05T13:31:58.000Z</time>
      </trkpt>
      <trkpt lat="47.1809" lon="-1.71719">
        <ele>76</ele>
        <time>2021-06-05T13:32:00.000Z</time>
      </trkpt>
      <trkpt lat="47.18085" lon="-1.71701">
        <ele>76</ele>
        <time>2021-06-05T13:32:02.000Z</time>
      </trkpt>
      <trkpt lat="47.18078" lon="-1.71684">
        <ele>76</ele>
        <time>2021-06-05T13:32:04.000Z</time>
      </trkpt>
      <trkpt lat="47.18073" lon="-1.71667">
        <ele>76</ele>
        <time>2021-06-05T13:32:06.000Z</time>
      </trkpt>
      <trkpt lat="47.18067" lon="-1.7165">
        <ele>76</ele>
        <time>2021-06-05T13:32:08.000Z</time>
      </trkpt>
      <trkpt lat="47.18062" lon="-1.71632">
        <ele>76</ele>
        <time>2021-06-05T13:32:10.000Z</time>
      </trkpt>
      <trkpt lat="47.18057" lon="-1.71615">
        <ele>76</ele>
        <time>2021-06-05T13:32:12.000Z</time>
      </trkpt>
      <trkpt lat="47.18051" lon="-1.71598">
        <ele>76</ele>
        <time>2021-06-05T13:32:14.000Z</time>
      </trkpt>
      <trkpt lat="47.18043" lon="-1.71571">
        <ele>76</ele>
        <time>2021-06-05T13:32:17.000Z</time>
      </trkpt>
      <trkpt lat="47.18037" lon="-1.71554">
        <ele>76</ele>
        <time>2021-06-05T13:32:19.000Z</time>
      </trkpt>
      <trkpt lat="47.18032" lon="-1.71537">
        <ele>76</ele>
        <time>2021-06-05T13:32:21.000Z</time>
      </trkpt>
      <trkpt lat="47.18026" lon="-1.7152">
        <ele>76</ele>
        <time>2021-06-05T13:32:23.000Z</time>
      </trkpt>
      <trkpt lat="47.18021" lon="-1.71504">
        <ele>76</ele>
        <time>2021-06-05T13:32:25.000Z</time>
      </trkpt>
      <trkpt lat="47.18015" lon="-1.71487">
        <ele>76</ele>
        <time>2021-06-05T13:32:27.000Z</time>
      </trkpt>
      <trkpt lat="47.18009" lon="-1.71471">
        <ele>76</ele>
        <time>2021-06-05T13:32:29.000Z</time>
      </trkpt>
      <trkpt lat="47.18001" lon="-1.71445">
        <ele>76</ele>
        <time>2021-06-05T13:32:32.000Z</time>
      </trkpt>
      <trkpt lat="47.17993" lon="-1.71419">
        <ele>76</ele>
        <time>2021-06-05T13:32:35.000Z</time>
      </trkpt>
      <trkpt lat="47.17988" lon="-1.71403">
        <ele>77</ele>
        <time>2021-06-05T13:32:37.000Z</time>
      </trkpt>
      <trkpt lat="47.1798" lon="-1.71378">
        <ele>77</ele>
        <time>2021-06-05T13:32:40.000Z</time>
      </trkpt>
      <trkpt lat="47.17971" lon="-1.71353">
        <ele>77</ele>
        <time>2021-06-05T13:32:43.000Z</time>
      </trkpt>
      <trkpt lat="47.17966" lon="-1.71335">
        <ele>77</ele>
        <time>2021-06-05T13:32:45.000Z</time>
      </trkpt>
      <trkpt lat="47.17961" lon="-1.71318">
        <ele>76</ele>
        <time>2021-06-05T13:32:47.000Z</time>
      </trkpt>
      <trkpt lat="47.17955" lon="-1.71302">
        <ele>76</ele>
        <time>2021-06-05T13:32:49.000Z</time>
      </trkpt>
      <trkpt lat="47.17946" lon="-1.71276">
        <ele>76</ele>
        <time>2021-06-05T13:32:52.000Z</time>
      </trkpt>
      <trkpt lat="47.17941" lon="-1.71259">
        <ele>76</ele>
        <time>2021-06-05T13:32:54.000Z</time>
      </trkpt>
      <trkpt lat="47.17935" lon="-1.71241">
        <ele>76</ele>
        <time>2021-06-05T13:32:56.000Z</time>
      </trkpt>
      <trkpt lat="47.1793" lon="-1.71224">
        <ele>77</ele>
        <time>2021-06-05T13:32:58.000Z</time>
      </trkpt>
      <trkpt lat="47.17925" lon="-1.71206">
        <ele>77</ele>
        <time>2021-06-05T13:33:00.000Z</time>
      </trkpt>
      <trkpt lat="47.17921" lon="-1.71188">
        <ele>77</ele>
        <time>2021-06-05T13:33:02.000Z</time>
      </trkpt>
      <trkpt lat="47.17919" lon="-1.71169">
        <ele>77</ele>
        <time>2021-06-05T13:33:04.000Z</time>
      </trkpt>
      <trkpt lat="47.17914" lon="-1.71142">
        <ele>77</ele>
        <time>2021-06-05T13:33:07.000Z</time>
      </trkpt>
      <trkpt lat="47.17906" lon="-1.71114">
        <ele>77</ele>
        <time>2021-06-05T13:33:10.000Z</time>
      </trkpt>
      <trkpt lat="47.179" lon="-1.71097">
        <ele>77</ele>
        <time>2021-06-05T13:33:12.000Z</time>
      </trkpt>
      <trkpt lat="47.17894" lon="-1.71078">
        <ele>77</ele>
        <time>2021-06-05T13:33:14.000Z</time>
      </trkpt>
      <trkpt lat="47.17888" lon="-1.7106">
        <ele>78</ele>
        <time>2021-06-05T13:33:16.000Z</time>
      </trkpt>
      <trkpt lat="47.17882" lon="-1.71042">
        <ele>78</ele>
        <time>2021-06-05T13:33:18.000Z</time>
      </trkpt>
      <trkpt lat="47.17876" lon="-1.71024">
        <ele>78</ele>
        <time>2021-06-05T13:33:20.000Z</time>
      </trkpt>
      <trkpt lat="47.17869" lon="-1.71007">
        <ele>78</ele>
        <time>2021-06-05T13:33:22.000Z</time>
      </trkpt>
      <trkpt lat="47.17861" lon="-1.70991">
        <ele>78</ele>
        <time>2021-06-05T13:33:24.000Z</time>
      </trkpt>
      <trkpt lat="47.17852" lon="-1.70976">
        <ele>78</ele>
        <time>2021-06-05T13:33:26.000Z</time>
      </trkpt>
      <trkpt lat="47.17844" lon="-1.7096">
        <ele>78</ele>
        <time>2021-06-05T13:33:28.000Z</time>
      </trkpt>
      <trkpt lat="47.17838" lon="-1.70942">
        <ele>78</ele>
        <time>2021-06-05T13:33:30.000Z</time>
      </trkpt>
      <trkpt lat="47.17832" lon="-1.70923">
        <ele>77</ele>
        <time>2021-06-05T13:33:32.000Z</time>
      </trkpt>
      <trkpt lat="47.17825" lon="-1.70905">
        <ele>77</ele>
        <time>2021-06-05T13:33:34.000Z</time>
      </trkpt>
      <trkpt lat="47.17819" lon="-1.70885">
        <ele>77</ele>
        <time>2021-06-05T13:33:36.000Z</time>
      </trkpt>
      <trkpt lat="47.17813" lon="-1.70867">
        <ele>77</ele>
        <time>2021-06-05T13:33:38.000Z</time>
      </trkpt>
      <trkpt lat="47.17807" lon="-1.70847">
        <ele>77</ele>
        <time>2021-06-05T13:33:40.000Z</time>
      </trkpt>
      <trkpt lat="47.178" lon="-1.70828">
        <ele>76</ele>
        <time>2021-06-05T13:33:42.000Z</time>
      </trkpt>
      <trkpt lat="47.17791" lon="-1.708">
        <ele>76</ele>
        <time>2021-06-05T13:33:45.000Z</time>
      </trkpt>
      <trkpt lat="47.17785" lon="-1.70781">
        <ele>76</ele>
        <time>2021-06-05T13:33:47.000Z</time>
      </trkpt>
      <trkpt lat="47.17779" lon="-1.70763">
        <ele>76</ele>
        <time>2021-06-05T13:33:49.000Z</time>
      </trkpt>
      <trkpt lat="47.17772" lon="-1.70745">
        <ele>76</ele>
        <time>2021-06-05T13:33:51.000Z</time>
      </trkpt>
      <trkpt lat="47.17766" lon="-1.70726">
        <ele>76</ele>
        <time>2021-06-05T13:33:53.000Z</time>
      </trkpt>
      <trkpt lat="47.17761" lon="-1.70708">
        <ele>76</ele>
        <time>2021-06-05T13:33:55.000Z</time>
      </trkpt>
      <trkpt lat="47.17754" lon="-1.7069">
        <ele>75</ele>
        <time>2021-06-05T13:33:57.000Z</time>
      </trkpt>
      <trkpt lat="47.17748" lon="-1.70672">
        <ele>75</ele>
        <time>2021-06-05T13:33:59.000Z</time>
      </trkpt>
      <trkpt lat="47.17742" lon="-1.70653">
        <ele>75</ele>
        <time>2021-06-05T13:34:01.000Z</time>
      </trkpt>
      <trkpt lat="47.17736" lon="-1.70636">
        <ele>75</ele>
        <time>2021-06-05T13:34:03.000Z</time>
      </trkpt>
      <trkpt lat="47.17729" lon="-1.70619">
        <ele>75</ele>
        <time>2021-06-05T13:34:05.000Z</time>
      </trkpt>
      <trkpt lat="47.17721" lon="-1.70603">
        <ele>76</ele>
        <time>2021-06-05T13:34:07.000Z</time>
      </trkpt>
      <trkpt lat="47.17712" lon="-1.70589">
        <ele>76</ele>
        <time>2021-06-05T13:34:09.000Z</time>
      </trkpt>
      <trkpt lat="47.17702" lon="-1.70577">
        <ele>76</ele>
        <time>2021-06-05T13:34:11.000Z</time>
      </trkpt>
      <trkpt lat="47.1769" lon="-1.70565">
        <ele>76</ele>
        <time>2021-06-05T13:34:13.000Z</time>
      </trkpt>
      <trkpt lat="47.17679" lon="-1.70554">
        <ele>76</ele>
        <time>2021-06-05T13:34:15.000Z</time>
      </trkpt>
      <trkpt lat="47.17669" lon="-1.70545">
        <ele>77</ele>
        <time>2021-06-05T13:34:17.000Z</time>
      </trkpt>
      <trkpt lat="47.17657" lon="-1.70536">
        <ele>78</ele>
        <time>2021-06-05T13:34:19.000Z</time>
      </trkpt>
      <trkpt lat="47.17646" lon="-1.70527">
        <ele>78</ele>
        <time>2021-06-05T13:34:21.000Z</time>
      </trkpt>
      <trkpt lat="47.17636" lon="-1.70516">
        <ele>79</ele>
        <time>2021-06-05T13:34:23.000Z</time>
      </trkpt>
      <trkpt lat="47.17622" lon="-1.70498">
        <ele>79</ele>
        <time>2021-06-05T13:34:26.000Z</time>
      </trkpt>
      <trkpt lat="47.17615" lon="-1.70482">
        <ele>80</ele>
        <time>2021-06-05T13:34:28.000Z</time>
      </trkpt>
      <trkpt lat="47.17609" lon="-1.70466">
        <ele>80</ele>
        <time>2021-06-05T13:34:30.000Z</time>
      </trkpt>
      <trkpt lat="47.17603" lon="-1.70451">
        <ele>80</ele>
        <time>2021-06-05T13:34:32.000Z</time>
      </trkpt>
      <trkpt lat="47.17592" lon="-1.70445">
        <ele>80</ele>
        <time>2021-06-05T13:34:34.000Z</time>
      </trkpt>
      <trkpt lat="47.17582" lon="-1.70436">
        <ele>81</ele>
        <time>2021-06-05T13:34:36.000Z</time>
      </trkpt>
      <trkpt lat="47.17576" lon="-1.7042">
        <ele>81</ele>
        <time>2021-06-05T13:34:38.000Z</time>
      </trkpt>
      <trkpt lat="47.17576" lon="-1.70401">
        <ele>81</ele>
        <time>2021-06-05T13:34:40.000Z</time>
      </trkpt>
      <trkpt lat="47.17574" lon="-1.70383">
        <ele>80</ele>
        <time>2021-06-05T13:34:42.000Z</time>
      </trkpt>
      <trkpt lat="47.17567" lon="-1.70367">
        <ele>80</ele>
        <time>2021-06-05T13:34:44.000Z</time>
      </trkpt>
      <trkpt lat="47.17567" lon="-1.70348">
        <ele>79</ele>
        <time>2021-06-05T13:34:46.000Z</time>
      </trkpt>
      <trkpt lat="47.17573" lon="-1.70329">
        <ele>79</ele>
        <time>2021-06-05T13:34:48.000Z</time>
      </trkpt>
      <trkpt lat="47.1758" lon="-1.70311">
        <ele>79</ele>
        <time>2021-06-05T13:34:50.000Z</time>
      </trkpt>
      <trkpt lat="47.17586" lon="-1.70291">
        <ele>78</ele>
        <time>2021-06-05T13:34:52.000Z</time>
      </trkpt>
      <trkpt lat="47.1759" lon="-1.70271">
        <ele>78</ele>
        <time>2021-06-05T13:34:54.000Z</time>
      </trkpt>
      <trkpt lat="47.17592" lon="-1.7025">
        <ele>78</ele>
        <time>2021-06-05T13:34:56.000Z</time>
      </trkpt>
      <trkpt lat="47.17592" lon="-1.70228">
        <ele>78</ele>
        <time>2021-06-05T13:34:58.000Z</time>
      </trkpt>
      <trkpt lat="47.1759" lon="-1.70198">
        <ele>78</ele>
        <time>2021-06-05T13:35:01.000Z</time>
      </trkpt>
      <trkpt lat="47.17586" lon="-1.70178">
        <ele>78</ele>
        <time>2021-06-05T13:35:03.000Z</time>
      </trkpt>
      <trkpt lat="47.17582" lon="-1.70159">
        <ele>78</ele>
        <time>2021-06-05T13:35:05.000Z</time>
      </trkpt>
      <trkpt lat="47.17578" lon="-1.7014">
        <ele>78</ele>
        <time>2021-06-05T13:35:07.000Z</time>
      </trkpt>
      <trkpt lat="47.17575" lon="-1.7012">
        <ele>78</ele>
        <time>2021-06-05T13:35:09.000Z</time>
      </trkpt>
      <trkpt lat="47.17571" lon="-1.70101">
        <ele>77</ele>
        <time>2021-06-05T13:35:11.000Z</time>
      </trkpt>
      <trkpt lat="47.17567" lon="-1.70082">
        <ele>77</ele>
        <time>2021-06-05T13:35:13.000Z</time>
      </trkpt>
      <trkpt lat="47.17563" lon="-1.70063">
        <ele>77</ele>
        <time>2021-06-05T13:35:15.000Z</time>
      </trkpt>
      <trkpt lat="47.17559" lon="-1.70044">
        <ele>77</ele>
        <time>2021-06-05T13:35:17.000Z</time>
      </trkpt>
      <trkpt lat="47.17555" lon="-1.70026">
        <ele>77</ele>
        <time>2021-06-05T13:35:19.000Z</time>
      </trkpt>
      <trkpt lat="47.17551" lon="-1.70007">
        <ele>77</ele>
        <time>2021-06-05T13:35:21.000Z</time>
      </trkpt>
      <trkpt lat="47.17547" lon="-1.69988">
        <ele>77</ele>
        <time>2021-06-05T13:35:23.000Z</time>
      </trkpt>
      <trkpt lat="47.17543" lon="-1.69968">
        <ele>78</ele>
        <time>2021-06-05T13:35:25.000Z</time>
      </trkpt>
      <trkpt lat="47.17539" lon="-1.69949">
        <ele>77</ele>
        <time>2021-06-05T13:35:27.000Z</time>
      </trkpt>
      <trkpt lat="47.17536" lon="-1.6993">
        <ele>77</ele>
        <time>2021-06-05T13:35:29.000Z</time>
      </trkpt>
      <trkpt lat="47.17532" lon="-1.69911">
        <ele>77</ele>
        <time>2021-06-05T13:35:31.000Z</time>
      </trkpt>
      <trkpt lat="47.17529" lon="-1.69891">
        <ele>77</ele>
        <time>2021-06-05T13:35:33.000Z</time>
      </trkpt>
      <trkpt lat="47.17526" lon="-1.69872">
        <ele>77</ele>
        <time>2021-06-05T13:35:35.000Z</time>
      </trkpt>
      <trkpt lat="47.17524" lon="-1.69853">
        <ele>76</ele>
        <time>2021-06-05T13:35:37.000Z</time>
      </trkpt>
      <trkpt lat="47.17521" lon="-1.69832">
        <ele>76</ele>
        <time>2021-06-05T13:35:39.000Z</time>
      </trkpt>
      <trkpt lat="47.17519" lon="-1.69812">
        <ele>76</ele>
        <time>2021-06-05T13:35:41.000Z</time>
      </trkpt>
      <trkpt lat="47.17517" lon="-1.69791">
        <ele>76</ele>
        <time>2021-06-05T13:35:43.000Z</time>
      </trkpt>
      <trkpt lat="47.17515" lon="-1.69772">
        <ele>76</ele>
        <time>2021-06-05T13:35:45.000Z</time>
      </trkpt>
      <trkpt lat="47.17513" lon="-1.69752">
        <ele>76</ele>
        <time>2021-06-05T13:35:47.000Z</time>
      </trkpt>
      <trkpt lat="47.17512" lon="-1.69732">
        <ele>76</ele>
        <time>2021-06-05T13:35:49.000Z</time>
      </trkpt>
      <trkpt lat="47.1751" lon="-1.69712">
        <ele>76</ele>
        <time>2021-06-05T13:35:51.000Z</time>
      </trkpt>
      <trkpt lat="47.17508" lon="-1.69693">
        <ele>76</ele>
        <time>2021-06-05T13:35:53.000Z</time>
      </trkpt>
      <trkpt lat="47.17506" lon="-1.69673">
        <ele>77</ele>
        <time>2021-06-05T13:35:55.000Z</time>
      </trkpt>
      <trkpt lat="47.17504" lon="-1.69653">
        <ele>77</ele>
        <time>2021-06-05T13:35:57.000Z</time>
      </trkpt>
      <trkpt lat="47.17503" lon="-1.69634">
        <ele>77</ele>
        <time>2021-06-05T13:35:59.000Z</time>
      </trkpt>
      <trkpt lat="47.17502" lon="-1.69614">
        <ele>77</ele>
        <time>2021-06-05T13:36:01.000Z</time>
      </trkpt>
      <trkpt lat="47.175" lon="-1.69593">
        <ele>77</ele>
        <time>2021-06-05T13:36:03.000Z</time>
      </trkpt>
      <trkpt lat="47.17499" lon="-1.69573">
        <ele>77</ele>
        <time>2021-06-05T13:36:05.000Z</time>
      </trkpt>
      <trkpt lat="47.17498" lon="-1.69553">
        <ele>77</ele>
        <time>2021-06-05T13:36:07.000Z</time>
      </trkpt>
      <trkpt lat="47.17497" lon="-1.69533">
        <ele>77</ele>
        <time>2021-06-05T13:36:09.000Z</time>
      </trkpt>
      <trkpt lat="47.17495" lon="-1.69514">
        <ele>77</ele>
        <time>2021-06-05T13:36:11.000Z</time>
      </trkpt>
      <trkpt lat="47.17495" lon="-1.69494">
        <ele>77</ele>
        <time>2021-06-05T13:36:13.000Z</time>
      </trkpt>
      <trkpt lat="47.17494" lon="-1.69474">
        <ele>77</ele>
        <time>2021-06-05T13:36:15.000Z</time>
      </trkpt>
      <trkpt lat="47.17494" lon="-1.69454">
        <ele>77</ele>
        <time>2021-06-05T13:36:17.000Z</time>
      </trkpt>
      <trkpt lat="47.17494" lon="-1.69434">
        <ele>77</ele>
        <time>2021-06-05T13:36:19.000Z</time>
      </trkpt>
      <trkpt lat="47.17493" lon="-1.69413">
        <ele>77</ele>
        <time>2021-06-05T13:36:21.000Z</time>
      </trkpt>
      <trkpt lat="47.17493" lon="-1.69393">
        <ele>77</ele>
        <time>2021-06-05T13:36:23.000Z</time>
      </trkpt>
      <trkpt lat="47.17493" lon="-1.69373">
        <ele>77</ele>
        <time>2021-06-05T13:36:25.000Z</time>
      </trkpt>
      <trkpt lat="47.17494" lon="-1.69352">
        <ele>77</ele>
        <time>2021-06-05T13:36:27.000Z</time>
      </trkpt>
      <trkpt lat="47.17494" lon="-1.69332">
        <ele>77</ele>
        <time>2021-06-05T13:36:29.000Z</time>
      </trkpt>
      <trkpt lat="47.17494" lon="-1.69311">
        <ele>77</ele>
        <time>2021-06-05T13:36:31.000Z</time>
      </trkpt>
      <trkpt lat="47.17495" lon="-1.69292">
        <ele>77</ele>
        <time>2021-06-05T13:36:33.000Z</time>
      </trkpt>
      <trkpt lat="47.17496" lon="-1.69272">
        <ele>77</ele>
        <time>2021-06-05T13:36:35.000Z</time>
      </trkpt>
      <trkpt lat="47.17496" lon="-1.69252">
        <ele>77</ele>
        <time>2021-06-05T13:36:37.000Z</time>
      </trkpt>
      <trkpt lat="47.17498" lon="-1.69232">
        <ele>78</ele>
        <time>2021-06-05T13:36:39.000Z</time>
      </trkpt>
      <trkpt lat="47.17499" lon="-1.69212">
        <ele>78</ele>
        <time>2021-06-05T13:36:41.000Z</time>
      </trkpt>
      <trkpt lat="47.17499" lon="-1.69192">
        <ele>78</ele>
        <time>2021-06-05T13:36:43.000Z</time>
      </trkpt>
      <trkpt lat="47.175" lon="-1.69172">
        <ele>78</ele>
        <time>2021-06-05T13:36:45.000Z</time>
      </trkpt>
      <trkpt lat="47.17502" lon="-1.69152">
        <ele>78</ele>
        <time>2021-06-05T13:36:47.000Z</time>
      </trkpt>
      <trkpt lat="47.17502" lon="-1.69133">
        <ele>78</ele>
        <time>2021-06-05T13:36:49.000Z</time>
      </trkpt>
      <trkpt lat="47.17503" lon="-1.69113">
        <ele>78</ele>
        <time>2021-06-05T13:36:51.000Z</time>
      </trkpt>
      <trkpt lat="47.17503" lon="-1.69094">
        <ele>78</ele>
        <time>2021-06-05T13:36:53.000Z</time>
      </trkpt>
      <trkpt lat="47.17503" lon="-1.69074">
        <ele>79</ele>
        <time>2021-06-05T13:36:55.000Z</time>
      </trkpt>
      <trkpt lat="47.17503" lon="-1.69054">
        <ele>79</ele>
        <time>2021-06-05T13:36:57.000Z</time>
      </trkpt>
      <trkpt lat="47.17502" lon="-1.69033">
        <ele>79</ele>
        <time>2021-06-05T13:36:59.000Z</time>
      </trkpt>
      <trkpt lat="47.17502" lon="-1.69012">
        <ele>78</ele>
        <time>2021-06-05T13:37:01.000Z</time>
      </trkpt>
      <trkpt lat="47.17501" lon="-1.68992">
        <ele>78</ele>
        <time>2021-06-05T13:37:03.000Z</time>
      </trkpt>
      <trkpt lat="47.175" lon="-1.68971">
        <ele>78</ele>
        <time>2021-06-05T13:37:05.000Z</time>
      </trkpt>
      <trkpt lat="47.175" lon="-1.68952">
        <ele>78</ele>
        <time>2021-06-05T13:37:07.000Z</time>
      </trkpt>
      <trkpt lat="47.175" lon="-1.68932">
        <ele>78</ele>
        <time>2021-06-05T13:37:09.000Z</time>
      </trkpt>
      <trkpt lat="47.17502" lon="-1.68912">
        <ele>78</ele>
        <time>2021-06-05T13:37:11.000Z</time>
      </trkpt>
      <trkpt lat="47.17504" lon="-1.68892">
        <ele>78</ele>
        <time>2021-06-05T13:37:13.000Z</time>
      </trkpt>
      <trkpt lat="47.17506" lon="-1.68873">
        <ele>78</ele>
        <time>2021-06-05T13:37:15.000Z</time>
      </trkpt>
      <trkpt lat="47.17504" lon="-1.68853">
        <ele>79</ele>
        <time>2021-06-05T13:37:17.000Z</time>
      </trkpt>
      <trkpt lat="47.17501" lon="-1.68835">
        <ele>80</ele>
        <time>2021-06-05T13:37:19.000Z</time>
      </trkpt>
      <trkpt lat="47.17497" lon="-1.68817">
        <ele>81</ele>
        <time>2021-06-05T13:37:21.000Z</time>
      </trkpt>
      <trkpt lat="47.17493" lon="-1.68798">
        <ele>81</ele>
        <time>2021-06-05T13:37:23.000Z</time>
      </trkpt>
      <trkpt lat="47.17489" lon="-1.6878">
        <ele>82</ele>
        <time>2021-06-05T13:37:25.000Z</time>
      </trkpt>
      <trkpt lat="47.17485" lon="-1.68761">
        <ele>82</ele>
        <time>2021-06-05T13:37:27.000Z</time>
      </trkpt>
      <trkpt lat="47.17481" lon="-1.68742">
        <ele>83</ele>
        <time>2021-06-05T13:37:29.000Z</time>
      </trkpt>
      <trkpt lat="47.17476" lon="-1.68723">
        <ele>83</ele>
        <time>2021-06-05T13:37:31.000Z</time>
      </trkpt>
      <trkpt lat="47.17472" lon="-1.68705">
        <ele>83</ele>
        <time>2021-06-05T13:37:33.000Z</time>
      </trkpt>
      <trkpt lat="47.17467" lon="-1.68687">
        <ele>83</ele>
        <time>2021-06-05T13:37:35.000Z</time>
      </trkpt>
      <trkpt lat="47.17462" lon="-1.68669">
        <ele>83</ele>
        <time>2021-06-05T13:37:37.000Z</time>
      </trkpt>
      <trkpt lat="47.17457" lon="-1.68651">
        <ele>83</ele>
        <time>2021-06-05T13:37:39.000Z</time>
      </trkpt>
      <trkpt lat="47.17451" lon="-1.68634">
        <ele>83</ele>
        <time>2021-06-05T13:37:41.000Z</time>
      </trkpt>
      <trkpt lat="47.17445" lon="-1.68617">
        <ele>83</ele>
        <time>2021-06-05T13:37:43.000Z</time>
      </trkpt>
      <trkpt lat="47.17437" lon="-1.686">
        <ele>82</ele>
        <time>2021-06-05T13:37:45.000Z</time>
      </trkpt>
      <trkpt lat="47.1743" lon="-1.68584">
        <ele>82</ele>
        <time>2021-06-05T13:37:47.000Z</time>
      </trkpt>
      <trkpt lat="47.17422" lon="-1.68569">
        <ele>82</ele>
        <time>2021-06-05T13:37:49.000Z</time>
      </trkpt>
      <trkpt lat="47.17415" lon="-1.68555">
        <ele>82</ele>
        <time>2021-06-05T13:37:51.000Z</time>
      </trkpt>
      <trkpt lat="47.17407" lon="-1.68542">
        <ele>83</ele>
        <time>2021-06-05T13:37:53.000Z</time>
      </trkpt>
      <trkpt lat="47.17398" lon="-1.68527">
        <ele>84</ele>
        <time>2021-06-05T13:37:55.000Z</time>
      </trkpt>
      <trkpt lat="47.17389" lon="-1.68513">
        <ele>84</ele>
        <time>2021-06-05T13:37:57.000Z</time>
      </trkpt>
      <trkpt lat="47.1738" lon="-1.685">
        <ele>85</ele>
        <time>2021-06-05T13:37:59.000Z</time>
      </trkpt>
      <trkpt lat="47.1737" lon="-1.68486">
        <ele>85</ele>
        <time>2021-06-05T13:38:01.000Z</time>
      </trkpt>
      <trkpt lat="47.17361" lon="-1.68472">
        <ele>86</ele>
        <time>2021-06-05T13:38:03.000Z</time>
      </trkpt>
      <trkpt lat="47.17353" lon="-1.68456">
        <ele>86</ele>
        <time>2021-06-05T13:38:05.000Z</time>
      </trkpt>
      <trkpt lat="47.17351" lon="-1.68439">
        <ele>86</ele>
        <time>2021-06-05T13:38:07.000Z</time>
      </trkpt>
      <trkpt lat="47.17351" lon="-1.68423">
        <ele>86</ele>
        <time>2021-06-05T13:38:09.000Z</time>
      </trkpt>
      <trkpt lat="47.17344" lon="-1.6841">
        <ele>87</ele>
        <time>2021-06-05T13:38:11.000Z</time>
      </trkpt>
      <trkpt lat="47.17337" lon="-1.68395">
        <ele>86</ele>
        <time>2021-06-05T13:38:13.000Z</time>
      </trkpt>
      <trkpt lat="47.17329" lon="-1.68382">
        <ele>86</ele>
        <time>2021-06-05T13:38:15.000Z</time>
      </trkpt>
      <trkpt lat="47.17322" lon="-1.68365">
        <ele>86</ele>
        <time>2021-06-05T13:38:17.000Z</time>
      </trkpt>
      <trkpt lat="47.17321" lon="-1.68346">
        <ele>85</ele>
        <time>2021-06-05T13:38:19.000Z</time>
      </trkpt>
      <trkpt lat="47.17325" lon="-1.68326">
        <ele>85</ele>
        <time>2021-06-05T13:38:21.000Z</time>
      </trkpt>
      <trkpt lat="47.17329" lon="-1.68306">
        <ele>84</ele>
        <time>2021-06-05T13:38:23.000Z</time>
      </trkpt>
      <trkpt lat="47.17333" lon="-1.68285">
        <ele>83</ele>
        <time>2021-06-05T13:38:25.000Z</time>
      </trkpt>
      <trkpt lat="47.17337" lon="-1.68264">
        <ele>83</ele>
        <time>2021-06-05T13:38:27.000Z</time>
      </trkpt>
      <trkpt lat="47.17342" lon="-1.68242">
        <ele>82</ele>
        <time>2021-06-05T13:38:29.000Z</time>
      </trkpt>
      <trkpt lat="47.17347" lon="-1.68219">
        <ele>81</ele>
        <time>2021-06-05T13:38:31.000Z</time>
      </trkpt>
      <trkpt lat="47.1735" lon="-1.68196">
        <ele>81</ele>
        <time>2021-06-05T13:38:33.000Z</time>
      </trkpt>
      <trkpt lat="47.17352" lon="-1.68174">
        <ele>80</ele>
        <time>2021-06-05T13:38:35.000Z</time>
      </trkpt>
      <trkpt lat="47.17352" lon="-1.68152">
        <ele>80</ele>
        <time>2021-06-05T13:38:37.000Z</time>
      </trkpt>
      <trkpt lat="47.1735" lon="-1.68131">
        <ele>80</ele>
        <time>2021-06-05T13:38:39.000Z</time>
      </trkpt>
      <trkpt lat="47.17347" lon="-1.68111">
        <ele>81</ele>
        <time>2021-06-05T13:38:41.000Z</time>
      </trkpt>
      <trkpt lat="47.17343" lon="-1.68091">
        <ele>81</ele>
        <time>2021-06-05T13:38:43.000Z</time>
      </trkpt>
      <trkpt lat="47.17339" lon="-1.68072">
        <ele>81</ele>
        <time>2021-06-05T13:38:45.000Z</time>
      </trkpt>
      <trkpt lat="47.17335" lon="-1.68053">
        <ele>81</ele>
        <time>2021-06-05T13:38:47.000Z</time>
      </trkpt>
      <trkpt lat="47.1733" lon="-1.68034">
        <ele>81</ele>
        <time>2021-06-05T13:38:49.000Z</time>
      </trkpt>
      <trkpt lat="47.17324" lon="-1.68016">
        <ele>82</ele>
        <time>2021-06-05T13:38:51.000Z</time>
      </trkpt>
      <trkpt lat="47.17316" lon="-1.68">
        <ele>82</ele>
        <time>2021-06-05T13:38:53.000Z</time>
      </trkpt>
      <trkpt lat="47.17306" lon="-1.67986">
        <ele>82</ele>
        <time>2021-06-05T13:38:55.000Z</time>
      </trkpt>
      <trkpt lat="47.17297" lon="-1.67973">
        <ele>83</ele>
        <time>2021-06-05T13:38:57.000Z</time>
      </trkpt>
      <trkpt lat="47.17286" lon="-1.67962">
        <ele>83</ele>
        <time>2021-06-05T13:38:59.000Z</time>
      </trkpt>
      <trkpt lat="47.17276" lon="-1.67949">
        <ele>83</ele>
        <time>2021-06-05T13:39:01.000Z</time>
      </trkpt>
      <trkpt lat="47.17265" lon="-1.67937">
        <ele>83</ele>
        <time>2021-06-05T13:39:03.000Z</time>
      </trkpt>
      <trkpt lat="47.17255" lon="-1.67924">
        <ele>83</ele>
        <time>2021-06-05T13:39:05.000Z</time>
      </trkpt>
      <trkpt lat="47.17245" lon="-1.67912">
        <ele>83</ele>
        <time>2021-06-05T13:39:07.000Z</time>
      </trkpt>
      <trkpt lat="47.17235" lon="-1.67901">
        <ele>83</ele>
        <time>2021-06-05T13:39:09.000Z</time>
      </trkpt>
      <trkpt lat="47.17225" lon="-1.67888">
        <ele>83</ele>
        <time>2021-06-05T13:39:11.000Z</time>
      </trkpt>
      <trkpt lat="47.17214" lon="-1.67877">
        <ele>83</ele>
        <time>2021-06-05T13:39:13.000Z</time>
      </trkpt>
      <trkpt lat="47.17204" lon="-1.67866">
        <ele>83</ele>
        <time>2021-06-05T13:39:15.000Z</time>
      </trkpt>
      <trkpt lat="47.17194" lon="-1.67854">
        <ele>83</ele>
        <time>2021-06-05T13:39:17.000Z</time>
      </trkpt>
      <trkpt lat="47.17183" lon="-1.67841">
        <ele>83</ele>
        <time>2021-06-05T13:39:19.000Z</time>
      </trkpt>
      <trkpt lat="47.17173" lon="-1.67829">
        <ele>83</ele>
        <time>2021-06-05T13:39:21.000Z</time>
      </trkpt>
      <trkpt lat="47.17162" lon="-1.67817">
        <ele>83</ele>
        <time>2021-06-05T13:39:23.000Z</time>
      </trkpt>
      <trkpt lat="47.17151" lon="-1.67805">
        <ele>83</ele>
        <time>2021-06-05T13:39:25.000Z</time>
      </trkpt>
      <trkpt lat="47.17141" lon="-1.67792">
        <ele>83</ele>
        <time>2021-06-05T13:39:27.000Z</time>
      </trkpt>
      <trkpt lat="47.1713" lon="-1.6778">
        <ele>83</ele>
        <time>2021-06-05T13:39:29.000Z</time>
      </trkpt>
      <trkpt lat="47.17119" lon="-1.67768">
        <ele>83</ele>
        <time>2021-06-05T13:39:31.000Z</time>
      </trkpt>
      <trkpt lat="47.17108" lon="-1.67755">
        <ele>82</ele>
        <time>2021-06-05T13:39:33.000Z</time>
      </trkpt>
      <trkpt lat="47.17098" lon="-1.67742">
        <ele>82</ele>
        <time>2021-06-05T13:39:35.000Z</time>
      </trkpt>
      <trkpt lat="47.17088" lon="-1.6773">
        <ele>82</ele>
        <time>2021-06-05T13:39:37.000Z</time>
      </trkpt>
      <trkpt lat="47.17077" lon="-1.67717">
        <ele>81</ele>
        <time>2021-06-05T13:39:39.000Z</time>
      </trkpt>
      <trkpt lat="47.17067" lon="-1.67705">
        <ele>81</ele>
        <time>2021-06-05T13:39:41.000Z</time>
      </trkpt>
      <trkpt lat="47.17057" lon="-1.67693">
        <ele>81</ele>
        <time>2021-06-05T13:39:43.000Z</time>
      </trkpt>
      <trkpt lat="47.17046" lon="-1.67681">
        <ele>81</ele>
        <time>2021-06-05T13:39:45.000Z</time>
      </trkpt>
      <trkpt lat="47.17036" lon="-1.67668">
        <ele>81</ele>
        <time>2021-06-05T13:39:47.000Z</time>
      </trkpt>
      <trkpt lat="47.17026" lon="-1.67657">
        <ele>81</ele>
        <time>2021-06-05T13:39:49.000Z</time>
      </trkpt>
      <trkpt lat="47.17015" lon="-1.67645">
        <ele>81</ele>
        <time>2021-06-05T13:39:51.000Z</time>
      </trkpt>
      <trkpt lat="47.17001" lon="-1.67624">
        <ele>81</ele>
        <time>2021-06-05T13:39:54.000Z</time>
      </trkpt>
      <trkpt lat="47.16989" lon="-1.67612">
        <ele>82</ele>
        <time>2021-06-05T13:39:56.000Z</time>
      </trkpt>
      <trkpt lat="47.16976" lon="-1.67601">
        <ele>82</ele>
        <time>2021-06-05T13:39:58.000Z</time>
      </trkpt>
      <trkpt lat="47.16965" lon="-1.67589">
        <ele>82</ele>
        <time>2021-06-05T13:40:00.000Z</time>
      </trkpt>
      <trkpt lat="47.16954" lon="-1.67577">
        <ele>82</ele>
        <time>2021-06-05T13:40:02.000Z</time>
      </trkpt>
      <trkpt lat="47.16944" lon="-1.67564">
        <ele>82</ele>
        <time>2021-06-05T13:40:04.000Z</time>
      </trkpt>
      <trkpt lat="47.16934" lon="-1.67551">
        <ele>82</ele>
        <time>2021-06-05T13:40:06.000Z</time>
      </trkpt>
      <trkpt lat="47.16923" lon="-1.67538">
        <ele>81</ele>
        <time>2021-06-05T13:40:08.000Z</time>
      </trkpt>
      <trkpt lat="47.16913" lon="-1.67526">
        <ele>82</ele>
        <time>2021-06-05T13:40:10.000Z</time>
      </trkpt>
      <trkpt lat="47.16903" lon="-1.67515">
        <ele>82</ele>
        <time>2021-06-05T13:40:12.000Z</time>
      </trkpt>
      <trkpt lat="47.16892" lon="-1.67502">
        <ele>82</ele>
        <time>2021-06-05T13:40:14.000Z</time>
      </trkpt>
      <trkpt lat="47.16881" lon="-1.6749">
        <ele>82</ele>
        <time>2021-06-05T13:40:16.000Z</time>
      </trkpt>
      <trkpt lat="47.16871" lon="-1.67477">
        <ele>82</ele>
        <time>2021-06-05T13:40:18.000Z</time>
      </trkpt>
      <trkpt lat="47.1686" lon="-1.67465">
        <ele>82</ele>
        <time>2021-06-05T13:40:20.000Z</time>
      </trkpt>
      <trkpt lat="47.1685" lon="-1.67452">
        <ele>82</ele>
        <time>2021-06-05T13:40:22.000Z</time>
      </trkpt>
      <trkpt lat="47.16839" lon="-1.6744">
        <ele>82</ele>
        <time>2021-06-05T13:40:24.000Z</time>
      </trkpt>
      <trkpt lat="47.16829" lon="-1.67427">
        <ele>82</ele>
        <time>2021-06-05T13:40:26.000Z</time>
      </trkpt>
      <trkpt lat="47.16818" lon="-1.67415">
        <ele>82</ele>
        <time>2021-06-05T13:40:28.000Z</time>
      </trkpt>
      <trkpt lat="47.16808" lon="-1.67402">
        <ele>81</ele>
        <time>2021-06-05T13:40:30.000Z</time>
      </trkpt>
      <trkpt lat="47.16797" lon="-1.6739">
        <ele>81</ele>
        <time>2021-06-05T13:40:32.000Z</time>
      </trkpt>
      <trkpt lat="47.16787" lon="-1.67378">
        <ele>81</ele>
        <time>2021-06-05T13:40:34.000Z</time>
      </trkpt>
      <trkpt lat="47.16776" lon="-1.67366">
        <ele>81</ele>
        <time>2021-06-05T13:40:36.000Z</time>
      </trkpt>
      <trkpt lat="47.16765" lon="-1.67355">
        <ele>81</ele>
        <time>2021-06-05T13:40:38.000Z</time>
      </trkpt>
      <trkpt lat="47.16754" lon="-1.67344">
        <ele>81</ele>
        <time>2021-06-05T13:40:40.000Z</time>
      </trkpt>
      <trkpt lat="47.16742" lon="-1.67333">
        <ele>80</ele>
        <time>2021-06-05T13:40:42.000Z</time>
      </trkpt>
      <trkpt lat="47.1673" lon="-1.67325">
        <ele>80</ele>
        <time>2021-06-05T13:40:44.000Z</time>
      </trkpt>
      <trkpt lat="47.16718" lon="-1.67316">
        <ele>80</ele>
        <time>2021-06-05T13:40:46.000Z</time>
      </trkpt>
      <trkpt lat="47.16705" lon="-1.67309">
        <ele>80</ele>
        <time>2021-06-05T13:40:48.000Z</time>
      </trkpt>
      <trkpt lat="47.16693" lon="-1.67302">
        <ele>80</ele>
        <time>2021-06-05T13:40:50.000Z</time>
      </trkpt>
      <trkpt lat="47.1668" lon="-1.67295">
        <ele>79</ele>
        <time>2021-06-05T13:40:52.000Z</time>
      </trkpt>
      <trkpt lat="47.16667" lon="-1.6729">
        <ele>79</ele>
        <time>2021-06-05T13:40:54.000Z</time>
      </trkpt>
      <trkpt lat="47.16654" lon="-1.67285">
        <ele>79</ele>
        <time>2021-06-05T13:40:56.000Z</time>
      </trkpt>
      <trkpt lat="47.16643" lon="-1.67279">
        <ele>79</ele>
        <time>2021-06-05T13:40:58.000Z</time>
      </trkpt>
      <trkpt lat="47.16631" lon="-1.67275">
        <ele>79</ele>
        <time>2021-06-05T13:41:00.000Z</time>
      </trkpt>
      <trkpt lat="47.16619" lon="-1.67272">
        <ele>78</ele>
        <time>2021-06-05T13:41:02.000Z</time>
      </trkpt>
      <trkpt lat="47.1661" lon="-1.67264">
        <ele>79</ele>
        <time>2021-06-05T13:41:04.000Z</time>
      </trkpt>
      <trkpt lat="47.16609" lon="-1.67246">
        <ele>79</ele>
        <time>2021-06-05T13:41:06.000Z</time>
      </trkpt>
      <trkpt lat="47.16613" lon="-1.67227">
        <ele>78</ele>
        <time>2021-06-05T13:41:08.000Z</time>
      </trkpt>
      <trkpt lat="47.16616" lon="-1.67207">
        <ele>78</ele>
        <time>2021-06-05T13:41:10.000Z</time>
      </trkpt>
      <trkpt lat="47.1662" lon="-1.67188">
        <ele>79</ele>
        <time>2021-06-05T13:41:12.000Z</time>
      </trkpt>
      <trkpt lat="47.16623" lon="-1.67169">
        <ele>78</ele>
        <time>2021-06-05T13:41:14.000Z</time>
      </trkpt>
      <trkpt lat="47.16627" lon="-1.67149">
        <ele>79</ele>
        <time>2021-06-05T13:41:16.000Z</time>
      </trkpt>
      <trkpt lat="47.16631" lon="-1.67129">
        <ele>79</ele>
        <time>2021-06-05T13:41:18.000Z</time>
      </trkpt>
      <trkpt lat="47.16634" lon="-1.67111">
        <ele>79</ele>
        <time>2021-06-05T13:41:20.000Z</time>
      </trkpt>
      <trkpt lat="47.16638" lon="-1.67092">
        <ele>79</ele>
        <time>2021-06-05T13:41:22.000Z</time>
      </trkpt>
      <trkpt lat="47.16643" lon="-1.67073">
        <ele>79</ele>
        <time>2021-06-05T13:41:24.000Z</time>
      </trkpt>
      <trkpt lat="47.16646" lon="-1.67054">
        <ele>79</ele>
        <time>2021-06-05T13:41:26.000Z</time>
      </trkpt>
      <trkpt lat="47.1665" lon="-1.67035">
        <ele>79</ele>
        <time>2021-06-05T13:41:28.000Z</time>
      </trkpt>
      <trkpt lat="47.16654" lon="-1.67016">
        <ele>79</ele>
        <time>2021-06-05T13:41:30.000Z</time>
      </trkpt>
      <trkpt lat="47.16658" lon="-1.66997">
        <ele>79</ele>
        <time>2021-06-05T13:41:32.000Z</time>
      </trkpt>
      <trkpt lat="47.16663" lon="-1.66979">
        <ele>79</ele>
        <time>2021-06-05T13:41:34.000Z</time>
      </trkpt>
      <trkpt lat="47.16669" lon="-1.66962">
        <ele>79</ele>
        <time>2021-06-05T13:41:36.000Z</time>
      </trkpt>
      <trkpt lat="47.16677" lon="-1.66948">
        <ele>79</ele>
        <time>2021-06-05T13:41:38.000Z</time>
      </trkpt>
      <trkpt lat="47.16687" lon="-1.66937">
        <ele>78</ele>
        <time>2021-06-05T13:41:40.000Z</time>
      </trkpt>
      <trkpt lat="47.16699" lon="-1.66929">
        <ele>78</ele>
        <time>2021-06-05T13:41:42.000Z</time>
      </trkpt>
      <trkpt lat="47.1671" lon="-1.66923">
        <ele>79</ele>
        <time>2021-06-05T13:41:44.000Z</time>
      </trkpt>
      <trkpt lat="47.16722" lon="-1.66917">
        <ele>81</ele>
        <time>2021-06-05T13:41:46.000Z</time>
      </trkpt>
      <trkpt lat="47.16734" lon="-1.66913">
        <ele>82</ele>
        <time>2021-06-05T13:41:48.000Z</time>
      </trkpt>
      <trkpt lat="47.16746" lon="-1.6691">
        <ele>82</ele>
        <time>2021-06-05T13:41:50.000Z</time>
      </trkpt>
      <trkpt lat="47.16758" lon="-1.66904">
        <ele>83</ele>
        <time>2021-06-05T13:41:52.000Z</time>
      </trkpt>
      <trkpt lat="47.16771" lon="-1.669">
        <ele>84</ele>
        <time>2021-06-05T13:41:54.000Z</time>
      </trkpt>
      <trkpt lat="47.16782" lon="-1.66892">
        <ele>84</ele>
        <time>2021-06-05T13:41:56.000Z</time>
      </trkpt>
      <trkpt lat="47.16794" lon="-1.66879">
        <ele>83</ele>
        <time>2021-06-05T13:41:58.000Z</time>
      </trkpt>
      <trkpt lat="47.16805" lon="-1.66866">
        <ele>83</ele>
        <time>2021-06-05T13:42:00.000Z</time>
      </trkpt>
      <trkpt lat="47.16813" lon="-1.66851">
        <ele>83</ele>
        <time>2021-06-05T13:42:02.000Z</time>
      </trkpt>
      <trkpt lat="47.16821" lon="-1.66836">
        <ele>82</ele>
        <time>2021-06-05T13:42:04.000Z</time>
      </trkpt>
      <trkpt lat="47.1683" lon="-1.66821">
        <ele>82</ele>
        <time>2021-06-05T13:42:06.000Z</time>
      </trkpt>
      <trkpt lat="47.16838" lon="-1.66806">
        <ele>82</ele>
        <time>2021-06-05T13:42:08.000Z</time>
      </trkpt>
      <trkpt lat="47.16845" lon="-1.66791">
        <ele>82</ele>
        <time>2021-06-05T13:42:10.000Z</time>
      </trkpt>
      <trkpt lat="47.16853" lon="-1.66775">
        <ele>82</ele>
        <time>2021-06-05T13:42:12.000Z</time>
      </trkpt>
      <trkpt lat="47.16861" lon="-1.6676">
        <ele>83</ele>
        <time>2021-06-05T13:42:14.000Z</time>
      </trkpt>
      <trkpt lat="47.16868" lon="-1.66745">
        <ele>83</ele>
        <time>2021-06-05T13:42:16.000Z</time>
      </trkpt>
      <trkpt lat="47.16875" lon="-1.66728">
        <ele>82</ele>
        <time>2021-06-05T13:42:18.000Z</time>
      </trkpt>
      <trkpt lat="47.16881" lon="-1.66711">
        <ele>82</ele>
        <time>2021-06-05T13:42:20.000Z</time>
      </trkpt>
      <trkpt lat="47.16884" lon="-1.66693">
        <ele>81</ele>
        <time>2021-06-05T13:42:22.000Z</time>
      </trkpt>
      <trkpt lat="47.16886" lon="-1.66674">
        <ele>81</ele>
        <time>2021-06-05T13:42:24.000Z</time>
      </trkpt>
      <trkpt lat="47.16887" lon="-1.66655">
        <ele>80</ele>
        <time>2021-06-05T13:42:26.000Z</time>
      </trkpt>
      <trkpt lat="47.16886" lon="-1.66636">
        <ele>80</ele>
        <time>2021-06-05T13:42:28.000Z</time>
      </trkpt>
      <trkpt lat="47.16884" lon="-1.66617">
        <ele>80</ele>
        <time>2021-06-05T13:42:30.000Z</time>
      </trkpt>
      <trkpt lat="47.16882" lon="-1.66599">
        <ele>80</ele>
        <time>2021-06-05T13:42:32.000Z</time>
      </trkpt>
      <trkpt lat="47.1688" lon="-1.6658">
        <ele>80</ele>
        <time>2021-06-05T13:42:34.000Z</time>
      </trkpt>
      <trkpt lat="47.16879" lon="-1.66561">
        <ele>80</ele>
        <time>2021-06-05T13:42:36.000Z</time>
      </trkpt>
      <trkpt lat="47.16877" lon="-1.66542">
        <ele>80</ele>
        <time>2021-06-05T13:42:38.000Z</time>
      </trkpt>
      <trkpt lat="47.16874" lon="-1.66524">
        <ele>79</ele>
        <time>2021-06-05T13:42:40.000Z</time>
      </trkpt>
      <trkpt lat="47.16872" lon="-1.66505">
        <ele>79</ele>
        <time>2021-06-05T13:42:42.000Z</time>
      </trkpt>
      <trkpt lat="47.1687" lon="-1.66487">
        <ele>79</ele>
        <time>2021-06-05T13:42:44.000Z</time>
      </trkpt>
      <trkpt lat="47.16868" lon="-1.66469">
        <ele>79</ele>
        <time>2021-06-05T13:42:46.000Z</time>
      </trkpt>
      <trkpt lat="47.16866" lon="-1.6645">
        <ele>80</ele>
        <time>2021-06-05T13:42:48.000Z</time>
      </trkpt>
      <trkpt lat="47.16864" lon="-1.66431">
        <ele>80</ele>
        <time>2021-06-05T13:42:50.000Z</time>
      </trkpt>
      <trkpt lat="47.16862" lon="-1.66413">
        <ele>80</ele>
        <time>2021-06-05T13:42:52.000Z</time>
      </trkpt>
      <trkpt lat="47.1686" lon="-1.66393">
        <ele>81</ele>
        <time>2021-06-05T13:42:54.000Z</time>
      </trkpt>
      <trkpt lat="47.16858" lon="-1.66374">
        <ele>81</ele>
        <time>2021-06-05T13:42:56.000Z</time>
      </trkpt>
      <trkpt lat="47.16856" lon="-1.66354">
        <ele>81</ele>
        <time>2021-06-05T13:42:58.000Z</time>
      </trkpt>
      <trkpt lat="47.16854" lon="-1.66336">
        <ele>82</ele>
        <time>2021-06-05T13:43:00.000Z</time>
      </trkpt>
      <trkpt lat="47.16852" lon="-1.66317">
        <ele>81</ele>
        <time>2021-06-05T13:43:02.000Z</time>
      </trkpt>
      <trkpt lat="47.1685" lon="-1.66298">
        <ele>81</ele>
        <time>2021-06-05T13:43:04.000Z</time>
      </trkpt>
      <trkpt lat="47.16849" lon="-1.6628">
        <ele>81</ele>
        <time>2021-06-05T13:43:06.000Z</time>
      </trkpt>
      <trkpt lat="47.16847" lon="-1.66261">
        <ele>81</ele>
        <time>2021-06-05T13:43:08.000Z</time>
      </trkpt>
      <trkpt lat="47.16845" lon="-1.66242">
        <ele>82</ele>
        <time>2021-06-05T13:43:10.000Z</time>
      </trkpt>
      <trkpt lat="47.16844" lon="-1.66221">
        <ele>81</ele>
        <time>2021-06-05T13:43:12.000Z</time>
      </trkpt>
      <trkpt lat="47.16843" lon="-1.66202">
        <ele>81</ele>
        <time>2021-06-05T13:43:14.000Z</time>
      </trkpt>
      <trkpt lat="47.16841" lon="-1.66183">
        <ele>82</ele>
        <time>2021-06-05T13:43:16.000Z</time>
      </trkpt>
      <trkpt lat="47.1684" lon="-1.66163">
        <ele>82</ele>
        <time>2021-06-05T13:43:18.000Z</time>
      </trkpt>
      <trkpt lat="47.1684" lon="-1.66144">
        <ele>81</ele>
        <time>2021-06-05T13:43:20.000Z</time>
      </trkpt>
      <trkpt lat="47.16841" lon="-1.66124">
        <ele>81</ele>
        <time>2021-06-05T13:43:22.000Z</time>
      </trkpt>
      <trkpt lat="47.16841" lon="-1.66104">
        <ele>82</ele>
        <time>2021-06-05T13:43:24.000Z</time>
      </trkpt>
      <trkpt lat="47.16842" lon="-1.66084">
        <ele>82</ele>
        <time>2021-06-05T13:43:26.000Z</time>
      </trkpt>
      <trkpt lat="47.16845" lon="-1.66064">
        <ele>81</ele>
        <time>2021-06-05T13:43:28.000Z</time>
      </trkpt>
      <trkpt lat="47.16848" lon="-1.66045">
        <ele>81</ele>
        <time>2021-06-05T13:43:30.000Z</time>
      </trkpt>
      <trkpt lat="47.16852" lon="-1.66026">
        <ele>82</ele>
        <time>2021-06-05T13:43:32.000Z</time>
      </trkpt>
      <trkpt lat="47.16857" lon="-1.66007">
        <ele>81</ele>
        <time>2021-06-05T13:43:34.000Z</time>
      </trkpt>
      <trkpt lat="47.16862" lon="-1.65988">
        <ele>81</ele>
        <time>2021-06-05T13:43:36.000Z</time>
      </trkpt>
      <trkpt lat="47.16868" lon="-1.6597">
        <ele>80</ele>
        <time>2021-06-05T13:43:38.000Z</time>
      </trkpt>
      <trkpt lat="47.16875" lon="-1.65953">
        <ele>80</ele>
        <time>2021-06-05T13:43:40.000Z</time>
      </trkpt>
      <trkpt lat="47.16882" lon="-1.65938">
        <ele>80</ele>
        <time>2021-06-05T13:43:42.000Z</time>
      </trkpt>
      <trkpt lat="47.16889" lon="-1.65922">
        <ele>80</ele>
        <time>2021-06-05T13:43:44.000Z</time>
      </trkpt>
      <trkpt lat="47.16896" lon="-1.65907">
        <ele>80</ele>
        <time>2021-06-05T13:43:46.000Z</time>
      </trkpt>
      <trkpt lat="47.16904" lon="-1.65891">
        <ele>80</ele>
        <time>2021-06-05T13:43:48.000Z</time>
      </trkpt>
      <trkpt lat="47.16912" lon="-1.65875">
        <ele>80</ele>
        <time>2021-06-05T13:43:50.000Z</time>
      </trkpt>
      <trkpt lat="47.1692" lon="-1.65859">
        <ele>81</ele>
        <time>2021-06-05T13:43:52.000Z</time>
      </trkpt>
      <trkpt lat="47.16927" lon="-1.65843">
        <ele>81</ele>
        <time>2021-06-05T13:43:54.000Z</time>
      </trkpt>
      <trkpt lat="47.16935" lon="-1.65828">
        <ele>81</ele>
        <time>2021-06-05T13:43:56.000Z</time>
      </trkpt>
      <trkpt lat="47.16943" lon="-1.65813">
        <ele>81</ele>
        <time>2021-06-05T13:43:58.000Z</time>
      </trkpt>
      <trkpt lat="47.1695" lon="-1.65797">
        <ele>81</ele>
        <time>2021-06-05T13:44:00.000Z</time>
      </trkpt>
      <trkpt lat="47.16958" lon="-1.65783">
        <ele>81</ele>
        <time>2021-06-05T13:44:02.000Z</time>
      </trkpt>
      <trkpt lat="47.16964" lon="-1.65768">
        <ele>81</ele>
        <time>2021-06-05T13:44:04.000Z</time>
      </trkpt>
      <trkpt lat="47.16969" lon="-1.65752">
        <ele>82</ele>
        <time>2021-06-05T13:44:06.000Z</time>
      </trkpt>
      <trkpt lat="47.16972" lon="-1.65735">
        <ele>82</ele>
        <time>2021-06-05T13:44:08.000Z</time>
      </trkpt>
      <trkpt lat="47.1698" lon="-1.65722">
        <ele>82</ele>
        <time>2021-06-05T13:44:10.000Z</time>
      </trkpt>
      <trkpt lat="47.16991" lon="-1.65713">
        <ele>82</ele>
        <time>2021-06-05T13:44:12.000Z</time>
      </trkpt>
      <trkpt lat="47.17" lon="-1.65702">
        <ele>83</ele>
        <time>2021-06-05T13:44:14.000Z</time>
      </trkpt>
      <trkpt lat="47.17008" lon="-1.65688">
        <ele>83</ele>
        <time>2021-06-05T13:44:16.000Z</time>
      </trkpt>
      <trkpt lat="47.17016" lon="-1.65674">
        <ele>84</ele>
        <time>2021-06-05T13:44:18.000Z</time>
      </trkpt>
      <trkpt lat="47.17024" lon="-1.6566">
        <ele>84</ele>
        <time>2021-06-05T13:44:20.000Z</time>
      </trkpt>
      <trkpt lat="47.17031" lon="-1.65647">
        <ele>84</ele>
        <time>2021-06-05T13:44:22.000Z</time>
      </trkpt>
      <trkpt lat="47.17038" lon="-1.65634">
        <ele>85</ele>
        <time>2021-06-05T13:44:24.000Z</time>
      </trkpt>
      <trkpt lat="47.17046" lon="-1.65621">
        <ele>85</ele>
        <time>2021-06-05T13:44:26.000Z</time>
      </trkpt>
      <trkpt lat="47.17054" lon="-1.65607">
        <ele>85</ele>
        <time>2021-06-05T13:44:28.000Z</time>
      </trkpt>
      <trkpt lat="47.17062" lon="-1.65593">
        <ele>86</ele>
        <time>2021-06-05T13:44:30.000Z</time>
      </trkpt>
      <trkpt lat="47.17069" lon="-1.6558">
        <ele>86</ele>
        <time>2021-06-05T13:44:32.000Z</time>
      </trkpt>
      <trkpt lat="47.17077" lon="-1.65566">
        <ele>85</ele>
        <time>2021-06-05T13:44:34.000Z</time>
      </trkpt>
      <trkpt lat="47.17084" lon="-1.65553">
        <ele>85</ele>
        <time>2021-06-05T13:44:36.000Z</time>
      </trkpt>
      <trkpt lat="47.17091" lon="-1.6554">
        <ele>85</ele>
        <time>2021-06-05T13:44:38.000Z</time>
      </trkpt>
      <trkpt lat="47.17098" lon="-1.65525">
        <ele>85</ele>
        <time>2021-06-05T13:44:40.000Z</time>
      </trkpt>
      <trkpt lat="47.17103" lon="-1.65509">
        <ele>85</ele>
        <time>2021-06-05T13:44:42.000Z</time>
      </trkpt>
      <trkpt lat="47.17108" lon="-1.65491">
        <ele>84</ele>
        <time>2021-06-05T13:44:44.000Z</time>
      </trkpt>
      <trkpt lat="47.17112" lon="-1.65471">
        <ele>84</ele>
        <time>2021-06-05T13:44:46.000Z</time>
      </trkpt>
      <trkpt lat="47.17113" lon="-1.6545">
        <ele>83</ele>
        <time>2021-06-05T13:44:48.000Z</time>
      </trkpt>
      <trkpt lat="47.17114" lon="-1.65427">
        <ele>82</ele>
        <time>2021-06-05T13:44:50.000Z</time>
      </trkpt>
      <trkpt lat="47.17113" lon="-1.65404">
        <ele>81</ele>
        <time>2021-06-05T13:44:52.000Z</time>
      </trkpt>
      <trkpt lat="47.17113" lon="-1.6538">
        <ele>81</ele>
        <time>2021-06-05T13:44:54.000Z</time>
      </trkpt>
      <trkpt lat="47.17111" lon="-1.65357">
        <ele>80</ele>
        <time>2021-06-05T13:44:56.000Z</time>
      </trkpt>
      <trkpt lat="47.17107" lon="-1.65335">
        <ele>80</ele>
        <time>2021-06-05T13:44:58.000Z</time>
      </trkpt>
      <trkpt lat="47.17099" lon="-1.65316">
        <ele>80</ele>
        <time>2021-06-05T13:45:00.000Z</time>
      </trkpt>
      <trkpt lat="47.17099" lon="-1.65295">
        <ele>80</ele>
        <time>2021-06-05T13:45:02.000Z</time>
      </trkpt>
      <trkpt lat="47.17105" lon="-1.65276">
        <ele>80</ele>
        <time>2021-06-05T13:45:04.000Z</time>
      </trkpt>
      <trkpt lat="47.17111" lon="-1.65257">
        <ele>79</ele>
        <time>2021-06-05T13:45:06.000Z</time>
      </trkpt>
      <trkpt lat="47.17111" lon="-1.65236">
        <ele>78</ele>
        <time>2021-06-05T13:45:08.000Z</time>
      </trkpt>
      <trkpt lat="47.17111" lon="-1.65214">
        <ele>78</ele>
        <time>2021-06-05T13:45:10.000Z</time>
      </trkpt>
      <trkpt lat="47.1711" lon="-1.65191">
        <ele>78</ele>
        <time>2021-06-05T13:45:12.000Z</time>
      </trkpt>
      <trkpt lat="47.17109" lon="-1.65169">
        <ele>78</ele>
        <time>2021-06-05T13:45:14.000Z</time>
      </trkpt>
      <trkpt lat="47.17108" lon="-1.65148">
        <ele>78</ele>
        <time>2021-06-05T13:45:16.000Z</time>
      </trkpt>
      <trkpt lat="47.17106" lon="-1.65127">
        <ele>78</ele>
        <time>2021-06-05T13:45:18.000Z</time>
      </trkpt>
      <trkpt lat="47.17105" lon="-1.65106">
        <ele>78</ele>
        <time>2021-06-05T13:45:20.000Z</time>
      </trkpt>
      <trkpt lat="47.17103" lon="-1.65085">
        <ele>78</ele>
        <time>2021-06-05T13:45:22.000Z</time>
      </trkpt>
      <trkpt lat="47.17101" lon="-1.65064">
        <ele>78</ele>
        <time>2021-06-05T13:45:24.000Z</time>
      </trkpt>
      <trkpt lat="47.171" lon="-1.65044">
        <ele>78</ele>
        <time>2021-06-05T13:45:26.000Z</time>
      </trkpt>
      <trkpt lat="47.17098" lon="-1.65024">
        <ele>78</ele>
        <time>2021-06-05T13:45:28.000Z</time>
      </trkpt>
      <trkpt lat="47.17097" lon="-1.65001">
        <ele>78</ele>
        <time>2021-06-05T13:45:30.000Z</time>
      </trkpt>
      <trkpt lat="47.17095" lon="-1.6498">
        <ele>77</ele>
        <time>2021-06-05T13:45:32.000Z</time>
      </trkpt>
      <trkpt lat="47.17094" lon="-1.64959">
        <ele>76</ele>
        <time>2021-06-05T13:45:34.000Z</time>
      </trkpt>
      <trkpt lat="47.17092" lon="-1.64938">
        <ele>76</ele>
        <time>2021-06-05T13:45:36.000Z</time>
      </trkpt>
      <trkpt lat="47.17091" lon="-1.64918">
        <ele>76</ele>
        <time>2021-06-05T13:45:38.000Z</time>
      </trkpt>
      <trkpt lat="47.1709" lon="-1.64897">
        <ele>76</ele>
        <time>2021-06-05T13:45:40.000Z</time>
      </trkpt>
      <trkpt lat="47.17088" lon="-1.64877">
        <ele>76</ele>
        <time>2021-06-05T13:45:42.000Z</time>
      </trkpt>
      <trkpt lat="47.17087" lon="-1.64857">
        <ele>76</ele>
        <time>2021-06-05T13:45:44.000Z</time>
      </trkpt>
      <trkpt lat="47.17086" lon="-1.64837">
        <ele>76</ele>
        <time>2021-06-05T13:45:46.000Z</time>
      </trkpt>
      <trkpt lat="47.17084" lon="-1.64817">
        <ele>77</ele>
        <time>2021-06-05T13:45:48.000Z</time>
      </trkpt>
      <trkpt lat="47.17083" lon="-1.64797">
        <ele>77</ele>
        <time>2021-06-05T13:45:50.000Z</time>
      </trkpt>
      <trkpt lat="47.17082" lon="-1.64777">
        <ele>76</ele>
        <time>2021-06-05T13:45:52.000Z</time>
      </trkpt>
      <trkpt lat="47.17081" lon="-1.64757">
        <ele>76</ele>
        <time>2021-06-05T13:45:54.000Z</time>
      </trkpt>
      <trkpt lat="47.1708" lon="-1.64736">
        <ele>76</ele>
        <time>2021-06-05T13:45:56.000Z</time>
      </trkpt>
      <trkpt lat="47.17079" lon="-1.64716">
        <ele>77</ele>
        <time>2021-06-05T13:45:58.000Z</time>
      </trkpt>
      <trkpt lat="47.17078" lon="-1.64697">
        <ele>77</ele>
        <time>2021-06-05T13:46:00.000Z</time>
      </trkpt>
      <trkpt lat="47.17078" lon="-1.64677">
        <ele>78</ele>
        <time>2021-06-05T13:46:02.000Z</time>
      </trkpt>
      <trkpt lat="47.17078" lon="-1.64655">
        <ele>77</ele>
        <time>2021-06-05T13:46:04.000Z</time>
      </trkpt>
      <trkpt lat="47.17077" lon="-1.64635">
        <ele>78</ele>
        <time>2021-06-05T13:46:06.000Z</time>
      </trkpt>
      <trkpt lat="47.17077" lon="-1.64614">
        <ele>78</ele>
        <time>2021-06-05T13:46:08.000Z</time>
      </trkpt>
      <trkpt lat="47.17077" lon="-1.64594">
        <ele>78</ele>
        <time>2021-06-05T13:46:10.000Z</time>
      </trkpt>
      <trkpt lat="47.17078" lon="-1.64573">
        <ele>77</ele>
        <time>2021-06-05T13:46:12.000Z</time>
      </trkpt>
      <trkpt lat="47.17078" lon="-1.64553">
        <ele>77</ele>
        <time>2021-06-05T13:46:14.000Z</time>
      </trkpt>
      <trkpt lat="47.17078" lon="-1.64534">
        <ele>78</ele>
        <time>2021-06-05T13:46:16.000Z</time>
      </trkpt>
      <trkpt lat="47.17079" lon="-1.64515">
        <ele>78</ele>
        <time>2021-06-05T13:46:18.000Z</time>
      </trkpt>
      <trkpt lat="47.1708" lon="-1.64495">
        <ele>78</ele>
        <time>2021-06-05T13:46:20.000Z</time>
      </trkpt>
      <trkpt lat="47.17081" lon="-1.64476">
        <ele>79</ele>
        <time>2021-06-05T13:46:22.000Z</time>
      </trkpt>
      <trkpt lat="47.17082" lon="-1.64456">
        <ele>79</ele>
        <time>2021-06-05T13:46:24.000Z</time>
      </trkpt>
      <trkpt lat="47.17083" lon="-1.64436">
        <ele>79</ele>
        <time>2021-06-05T13:46:26.000Z</time>
      </trkpt>
      <trkpt lat="47.17084" lon="-1.64417">
        <ele>79</ele>
        <time>2021-06-05T13:46:28.000Z</time>
      </trkpt>
      <trkpt lat="47.17085" lon="-1.64398">
        <ele>80</ele>
        <time>2021-06-05T13:46:30.000Z</time>
      </trkpt>
      <trkpt lat="47.17087" lon="-1.64378">
        <ele>80</ele>
        <time>2021-06-05T13:46:32.000Z</time>
      </trkpt>
      <trkpt lat="47.17089" lon="-1.64358">
        <ele>81</ele>
        <time>2021-06-05T13:46:34.000Z</time>
      </trkpt>
      <trkpt lat="47.17091" lon="-1.64338">
        <ele>81</ele>
        <time>2021-06-05T13:46:36.000Z</time>
      </trkpt>
      <trkpt lat="47.17092" lon="-1.64318">
        <ele>80</ele>
        <time>2021-06-05T13:46:38.000Z</time>
      </trkpt>
      <trkpt lat="47.17094" lon="-1.64299">
        <ele>80</ele>
        <time>2021-06-05T13:46:40.000Z</time>
      </trkpt>
      <trkpt lat="47.17096" lon="-1.6428">
        <ele>80</ele>
        <time>2021-06-05T13:46:42.000Z</time>
      </trkpt>
      <trkpt lat="47.17098" lon="-1.64261">
        <ele>80</ele>
        <time>2021-06-05T13:46:44.000Z</time>
      </trkpt>
      <trkpt lat="47.17101" lon="-1.64241">
        <ele>80</ele>
        <time>2021-06-05T13:46:46.000Z</time>
      </trkpt>
      <trkpt lat="47.17103" lon="-1.64222">
        <ele>80</ele>
        <time>2021-06-05T13:46:48.000Z</time>
      </trkpt>
      <trkpt lat="47.17105" lon="-1.64203">
        <ele>80</ele>
        <time>2021-06-05T13:46:50.000Z</time>
      </trkpt>
      <trkpt lat="47.17107" lon="-1.64183">
        <ele>80</ele>
        <time>2021-06-05T13:46:52.000Z</time>
      </trkpt>
      <trkpt lat="47.17109" lon="-1.64164">
        <ele>80</ele>
        <time>2021-06-05T13:46:54.000Z</time>
      </trkpt>
      <trkpt lat="47.17111" lon="-1.64145">
        <ele>80</ele>
        <time>2021-06-05T13:46:56.000Z</time>
      </trkpt>
      <trkpt lat="47.17113" lon="-1.64125">
        <ele>79</ele>
        <time>2021-06-05T13:46:58.000Z</time>
      </trkpt>
      <trkpt lat="47.17115" lon="-1.64106">
        <ele>79</ele>
        <time>2021-06-05T13:47:00.000Z</time>
      </trkpt>
      <trkpt lat="47.17117" lon="-1.64087">
        <ele>79</ele>
        <time>2021-06-05T13:47:02.000Z</time>
      </trkpt>
      <trkpt lat="47.17119" lon="-1.64068">
        <ele>79</ele>
        <time>2021-06-05T13:47:04.000Z</time>
      </trkpt>
      <trkpt lat="47.17121" lon="-1.64049">
        <ele>79</ele>
        <time>2021-06-05T13:47:06.000Z</time>
      </trkpt>
      <trkpt lat="47.17123" lon="-1.6403">
        <ele>79</ele>
        <time>2021-06-05T13:47:08.000Z</time>
      </trkpt>
      <trkpt lat="47.17125" lon="-1.64012">
        <ele>79</ele>
        <time>2021-06-05T13:47:10.000Z</time>
      </trkpt>
      <trkpt lat="47.17127" lon="-1.63993">
        <ele>79</ele>
        <time>2021-06-05T13:47:12.000Z</time>
      </trkpt>
      <trkpt lat="47.17129" lon="-1.63975">
        <ele>78</ele>
        <time>2021-06-05T13:47:14.000Z</time>
      </trkpt>
      <trkpt lat="47.17125" lon="-1.63957">
        <ele>78</ele>
        <time>2021-06-05T13:47:16.000Z</time>
      </trkpt>
      <trkpt lat="47.17118" lon="-1.63941">
        <ele>78</ele>
        <time>2021-06-05T13:47:18.000Z</time>
      </trkpt>
      <trkpt lat="47.17111" lon="-1.63924">
        <ele>78</ele>
        <time>2021-06-05T13:47:20.000Z</time>
      </trkpt>
      <trkpt lat="47.17105" lon="-1.63908">
        <ele>78</ele>
        <time>2021-06-05T13:47:22.000Z</time>
      </trkpt>
      <trkpt lat="47.17099" lon="-1.63891">
        <ele>78</ele>
        <time>2021-06-05T13:47:24.000Z</time>
      </trkpt>
      <trkpt lat="47.17093" lon="-1.63874">
        <ele>78</ele>
        <time>2021-06-05T13:47:26.000Z</time>
      </trkpt>
      <trkpt lat="47.17087" lon="-1.63857">
        <ele>78</ele>
        <time>2021-06-05T13:47:28.000Z</time>
      </trkpt>
      <trkpt lat="47.17081" lon="-1.6384">
        <ele>78</ele>
        <time>2021-06-05T13:47:30.000Z</time>
      </trkpt>
      <trkpt lat="47.17076" lon="-1.63823">
        <ele>78</ele>
        <time>2021-06-05T13:47:32.000Z</time>
      </trkpt>
      <trkpt lat="47.1707" lon="-1.63807">
        <ele>78</ele>
        <time>2021-06-05T13:47:34.000Z</time>
      </trkpt>
      <trkpt lat="47.17065" lon="-1.63791">
        <ele>78</ele>
        <time>2021-06-05T13:47:36.000Z</time>
      </trkpt>
      <trkpt lat="47.17058" lon="-1.63775">
        <ele>78</ele>
        <time>2021-06-05T13:47:38.000Z</time>
      </trkpt>
      <trkpt lat="47.17049" lon="-1.63763">
        <ele>79</ele>
        <time>2021-06-05T13:47:40.000Z</time>
      </trkpt>
      <trkpt lat="47.17036" lon="-1.63756">
        <ele>79</ele>
        <time>2021-06-05T13:47:42.000Z</time>
      </trkpt>
      <trkpt lat="47.17023" lon="-1.63752">
        <ele>80</ele>
        <time>2021-06-05T13:47:44.000Z</time>
      </trkpt>
      <trkpt lat="47.1701" lon="-1.63747">
        <ele>79</ele>
        <time>2021-06-05T13:47:46.000Z</time>
      </trkpt>
      <trkpt lat="47.16997" lon="-1.63742">
        <ele>79</ele>
        <time>2021-06-05T13:47:48.000Z</time>
      </trkpt>
      <trkpt lat="47.16984" lon="-1.63737">
        <ele>79</ele>
        <time>2021-06-05T13:47:50.000Z</time>
      </trkpt>
      <trkpt lat="47.16971" lon="-1.63732">
        <ele>79</ele>
        <time>2021-06-05T13:47:52.000Z</time>
      </trkpt>
      <trkpt lat="47.16958" lon="-1.63727">
        <ele>79</ele>
        <time>2021-06-05T13:47:54.000Z</time>
      </trkpt>
      <trkpt lat="47.16944" lon="-1.63722">
        <ele>79</ele>
        <time>2021-06-05T13:47:56.000Z</time>
      </trkpt>
      <trkpt lat="47.16932" lon="-1.63717">
        <ele>78</ele>
        <time>2021-06-05T13:47:58.000Z</time>
      </trkpt>
      <trkpt lat="47.16919" lon="-1.63713">
        <ele>79</ele>
        <time>2021-06-05T13:48:00.000Z</time>
      </trkpt>
      <trkpt lat="47.16906" lon="-1.63708">
        <ele>78</ele>
        <time>2021-06-05T13:48:02.000Z</time>
      </trkpt>
      <trkpt lat="47.16894" lon="-1.63704">
        <ele>78</ele>
        <time>2021-06-05T13:48:04.000Z</time>
      </trkpt>
      <trkpt lat="47.16881" lon="-1.63699">
        <ele>78</ele>
        <time>2021-06-05T13:48:06.000Z</time>
      </trkpt>
      <trkpt lat="47.16868" lon="-1.63693">
        <ele>78</ele>
        <time>2021-06-05T13:48:08.000Z</time>
      </trkpt>
      <trkpt lat="47.16856" lon="-1.63688">
        <ele>78</ele>
        <time>2021-06-05T13:48:10.000Z</time>
      </trkpt>
      <trkpt lat="47.16843" lon="-1.63683">
        <ele>78</ele>
        <time>2021-06-05T13:48:12.000Z</time>
      </trkpt>
      <trkpt lat="47.16831" lon="-1.63678">
        <ele>78</ele>
        <time>2021-06-05T13:48:14.000Z</time>
      </trkpt>
      <trkpt lat="47.16819" lon="-1.63673">
        <ele>78</ele>
        <time>2021-06-05T13:48:16.000Z</time>
      </trkpt>
      <trkpt lat="47.16806" lon="-1.63669">
        <ele>78</ele>
        <time>2021-06-05T13:48:18.000Z</time>
      </trkpt>
      <trkpt lat="47.16793" lon="-1.63662">
        <ele>78</ele>
        <time>2021-06-05T13:48:20.000Z</time>
      </trkpt>
      <trkpt lat="47.16781" lon="-1.63658">
        <ele>78</ele>
        <time>2021-06-05T13:48:22.000Z</time>
      </trkpt>
      <trkpt lat="47.1677" lon="-1.63654">
        <ele>78</ele>
        <time>2021-06-05T13:48:24.000Z</time>
      </trkpt>
      <trkpt lat="47.16758" lon="-1.6365">
        <ele>78</ele>
        <time>2021-06-05T13:48:26.000Z</time>
      </trkpt>
      <trkpt lat="47.16746" lon="-1.63648">
        <ele>78</ele>
        <time>2021-06-05T13:48:28.000Z</time>
      </trkpt>
      <trkpt lat="47.16741" lon="-1.63634">
        <ele>78</ele>
        <time>2021-06-05T13:48:30.000Z</time>
      </trkpt>
      <trkpt lat="47.16745" lon="-1.63618">
        <ele>78</ele>
        <time>2021-06-05T13:48:32.000Z</time>
      </trkpt>
      <trkpt lat="47.16754" lon="-1.63604">
        <ele>78</ele>
        <time>2021-06-05T13:48:34.000Z</time>
      </trkpt>
      <trkpt lat="47.16762" lon="-1.63591">
        <ele>78</ele>
        <time>2021-06-05T13:48:36.000Z</time>
      </trkpt>
      <trkpt lat="47.1677" lon="-1.63576">
        <ele>77</ele>
        <time>2021-06-05T13:48:38.000Z</time>
      </trkpt>
      <trkpt lat="47.16778" lon="-1.63562">
        <ele>78</ele>
        <time>2021-06-05T13:48:40.000Z</time>
      </trkpt>
      <trkpt lat="47.16787" lon="-1.63547">
        <ele>78</ele>
        <time>2021-06-05T13:48:42.000Z</time>
      </trkpt>
      <trkpt lat="47.16796" lon="-1.63532">
        <ele>77</ele>
        <time>2021-06-05T13:48:44.000Z</time>
      </trkpt>
      <trkpt lat="47.16804" lon="-1.63518">
        <ele>77</ele>
        <time>2021-06-05T13:48:46.000Z</time>
      </trkpt>
      <trkpt lat="47.16813" lon="-1.63503">
        <ele>77</ele>
        <time>2021-06-05T13:48:48.000Z</time>
      </trkpt>
      <trkpt lat="47.16821" lon="-1.63489">
        <ele>77</ele>
        <time>2021-06-05T13:48:50.000Z</time>
      </trkpt>
      <trkpt lat="47.1683" lon="-1.63474">
        <ele>77</ele>
        <time>2021-06-05T13:48:52.000Z</time>
      </trkpt>
      <trkpt lat="47.16838" lon="-1.63459">
        <ele>78</ele>
        <time>2021-06-05T13:48:54.000Z</time>
      </trkpt>
      <trkpt lat="47.16846" lon="-1.63446">
        <ele>77</ele>
        <time>2021-06-05T13:48:56.000Z</time>
      </trkpt>
      <trkpt lat="47.16854" lon="-1.63432">
        <ele>77</ele>
        <time>2021-06-05T13:48:58.000Z</time>
      </trkpt>
      <trkpt lat="47.16862" lon="-1.63418">
        <ele>77</ele>
        <time>2021-06-05T13:49:00.000Z</time>
      </trkpt>
      <trkpt lat="47.1687" lon="-1.63404">
        <ele>78</ele>
        <time>2021-06-05T13:49:02.000Z</time>
      </trkpt>
      <trkpt lat="47.16879" lon="-1.63389">
        <ele>78</ele>
        <time>2021-06-05T13:49:04.000Z</time>
      </trkpt>
      <trkpt lat="47.16887" lon="-1.63375">
        <ele>78</ele>
        <time>2021-06-05T13:49:06.000Z</time>
      </trkpt>
      <trkpt lat="47.16896" lon="-1.6336">
        <ele>78</ele>
        <time>2021-06-05T13:49:08.000Z</time>
      </trkpt>
      <trkpt lat="47.16905" lon="-1.63347">
        <ele>77</ele>
        <time>2021-06-05T13:49:10.000Z</time>
      </trkpt>
      <trkpt lat="47.16914" lon="-1.63334">
        <ele>77</ele>
        <time>2021-06-05T13:49:12.000Z</time>
      </trkpt>
      <trkpt lat="47.16923" lon="-1.6332">
        <ele>78</ele>
        <time>2021-06-05T13:49:14.000Z</time>
      </trkpt>
      <trkpt lat="47.16932" lon="-1.63307">
        <ele>78</ele>
        <time>2021-06-05T13:49:16.000Z</time>
      </trkpt>
      <trkpt lat="47.16941" lon="-1.63294">
        <ele>78</ele>
        <time>2021-06-05T13:49:18.000Z</time>
      </trkpt>
      <trkpt lat="47.1695" lon="-1.63281">
        <ele>78</ele>
        <time>2021-06-05T13:49:20.000Z</time>
      </trkpt>
      <trkpt lat="47.16958" lon="-1.63269">
        <ele>77</ele>
        <time>2021-06-05T13:49:22.000Z</time>
      </trkpt>
      <trkpt lat="47.16964" lon="-1.63256">
        <ele>77</ele>
        <time>2021-06-05T13:49:24.000Z</time>
      </trkpt>
      <trkpt lat="47.16959" lon="-1.63244">
        <ele>78</ele>
        <time>2021-06-05T13:49:26.000Z</time>
      </trkpt>
      <trkpt lat="47.16948" lon="-1.63235">
        <ele>77</ele>
        <time>2021-06-05T13:49:28.000Z</time>
      </trkpt>
      <trkpt lat="47.16939" lon="-1.63224">
        <ele>77</ele>
        <time>2021-06-05T13:49:30.000Z</time>
      </trkpt>
      <trkpt lat="47.1693" lon="-1.63211">
        <ele>78</ele>
        <time>2021-06-05T13:49:32.000Z</time>
      </trkpt>
      <trkpt lat="47.16922" lon="-1.63199">
        <ele>78</ele>
        <time>2021-06-05T13:49:34.000Z</time>
      </trkpt>
      <trkpt lat="47.16914" lon="-1.63183">
        <ele>77</ele>
        <time>2021-06-05T13:49:36.000Z</time>
      </trkpt>
      <trkpt lat="47.16907" lon="-1.63167">
        <ele>78</ele>
        <time>2021-06-05T13:49:38.000Z</time>
      </trkpt>
      <trkpt lat="47.16901" lon="-1.63152">
        <ele>78</ele>
        <time>2021-06-05T13:49:40.000Z</time>
      </trkpt>
      <trkpt lat="47.16895" lon="-1.63135">
        <ele>78</ele>
        <time>2021-06-05T13:49:42.000Z</time>
      </trkpt>
      <trkpt lat="47.1689" lon="-1.63117">
        <ele>78</ele>
        <time>2021-06-05T13:49:44.000Z</time>
      </trkpt>
      <trkpt lat="47.16886" lon="-1.63099">
        <ele>77</ele>
        <time>2021-06-05T13:49:46.000Z</time>
      </trkpt>
      <trkpt lat="47.16883" lon="-1.63081">
        <ele>77</ele>
        <time>2021-06-05T13:49:48.000Z</time>
      </trkpt>
      <trkpt lat="47.16882" lon="-1.63061">
        <ele>76</ele>
        <time>2021-06-05T13:49:50.000Z</time>
      </trkpt>
      <trkpt lat="47.16881" lon="-1.63042">
        <ele>76</ele>
        <time>2021-06-05T13:49:52.000Z</time>
      </trkpt>
      <trkpt lat="47.16881" lon="-1.63022">
        <ele>76</ele>
        <time>2021-06-05T13:49:54.000Z</time>
      </trkpt>
      <trkpt lat="47.16883" lon="-1.63003">
        <ele>75</ele>
        <time>2021-06-05T13:49:56.000Z</time>
      </trkpt>
      <trkpt lat="47.16885" lon="-1.62985">
        <ele>75</ele>
        <time>2021-06-05T13:49:58.000Z</time>
      </trkpt>
      <trkpt lat="47.16885" lon="-1.62966">
        <ele>75</ele>
        <time>2021-06-05T13:50:00.000Z</time>
      </trkpt>
      <trkpt lat="47.16885" lon="-1.62947">
        <ele>75</ele>
        <time>2021-06-05T13:50:02.000Z</time>
      </trkpt>
      <trkpt lat="47.16883" lon="-1.62928">
        <ele>75</ele>
        <time>2021-06-05T13:50:04.000Z</time>
      </trkpt>
      <trkpt lat="47.16879" lon="-1.6291">
        <ele>75</ele>
        <time>2021-06-05T13:50:06.000Z</time>
      </trkpt>
      <trkpt lat="47.16872" lon="-1.62894">
        <ele>74</ele>
        <time>2021-06-05T13:50:08.000Z</time>
      </trkpt>
      <trkpt lat="47.16863" lon="-1.62879">
        <ele>74</ele>
        <time>2021-06-05T13:50:10.000Z</time>
      </trkpt>
      <trkpt lat="47.16851" lon="-1.62867">
        <ele>74</ele>
        <time>2021-06-05T13:50:12.000Z</time>
      </trkpt>
      <trkpt lat="47.1684" lon="-1.62856">
        <ele>74</ele>
        <time>2021-06-05T13:50:14.000Z</time>
      </trkpt>
      <trkpt lat="47.16827" lon="-1.62844">
        <ele>73</ele>
        <time>2021-06-05T13:50:16.000Z</time>
      </trkpt>
      <trkpt lat="47.16815" lon="-1.62833">
        <ele>73</ele>
        <time>2021-06-05T13:50:18.000Z</time>
      </trkpt>
      <trkpt lat="47.16803" lon="-1.62821">
        <ele>73</ele>
        <time>2021-06-05T13:50:20.000Z</time>
      </trkpt>
      <trkpt lat="47.16791" lon="-1.6281">
        <ele>72</ele>
        <time>2021-06-05T13:50:22.000Z</time>
      </trkpt>
      <trkpt lat="47.16779" lon="-1.62799">
        <ele>72</ele>
        <time>2021-06-05T13:50:24.000Z</time>
      </trkpt>
      <trkpt lat="47.16767" lon="-1.62788">
        <ele>72</ele>
        <time>2021-06-05T13:50:26.000Z</time>
      </trkpt>
      <trkpt lat="47.16755" lon="-1.62777">
        <ele>73</ele>
        <time>2021-06-05T13:50:28.000Z</time>
      </trkpt>
      <trkpt lat="47.16743" lon="-1.62764">
        <ele>73</ele>
        <time>2021-06-05T13:50:30.000Z</time>
      </trkpt>
      <trkpt lat="47.16733" lon="-1.62751">
        <ele>73</ele>
        <time>2021-06-05T13:50:32.000Z</time>
      </trkpt>
      <trkpt lat="47.16724" lon="-1.62736">
        <ele>73</ele>
        <time>2021-06-05T13:50:34.000Z</time>
      </trkpt>
      <trkpt lat="47.16716" lon="-1.6272">
        <ele>73</ele>
        <time>2021-06-05T13:50:36.000Z</time>
      </trkpt>
      <trkpt lat="47.16709" lon="-1.62703">
        <ele>73</ele>
        <time>2021-06-05T13:50:38.000Z</time>
      </trkpt>
      <trkpt lat="47.16703" lon="-1.62685">
        <ele>72</ele>
        <time>2021-06-05T13:50:40.000Z</time>
      </trkpt>
      <trkpt lat="47.16699" lon="-1.62666">
        <ele>72</ele>
        <time>2021-06-05T13:50:42.000Z</time>
      </trkpt>
      <trkpt lat="47.16696" lon="-1.62646">
        <ele>71</ele>
        <time>2021-06-05T13:50:44.000Z</time>
      </trkpt>
      <trkpt lat="47.16695" lon="-1.62626">
        <ele>71</ele>
        <time>2021-06-05T13:50:46.000Z</time>
      </trkpt>
      <trkpt lat="47.16695" lon="-1.62607">
        <ele>71</ele>
        <time>2021-06-05T13:50:48.000Z</time>
      </trkpt>
      <trkpt lat="47.16696" lon="-1.62587">
        <ele>70</ele>
        <time>2021-06-05T13:50:50.000Z</time>
      </trkpt>
      <trkpt lat="47.16697" lon="-1.62568">
        <ele>70</ele>
        <time>2021-06-05T13:50:52.000Z</time>
      </trkpt>
      <trkpt lat="47.167" lon="-1.62549">
        <ele>70</ele>
        <time>2021-06-05T13:50:54.000Z</time>
      </trkpt>
      <trkpt lat="47.16704" lon="-1.62532">
        <ele>69</ele>
        <time>2021-06-05T13:50:56.000Z</time>
      </trkpt>
      <trkpt lat="47.16707" lon="-1.62515">
        <ele>69</ele>
        <time>2021-06-05T13:50:58.000Z</time>
      </trkpt>
      <trkpt lat="47.16713" lon="-1.62499">
        <ele>68</ele>
        <time>2021-06-05T13:51:00.000Z</time>
      </trkpt>
      <trkpt lat="47.16725" lon="-1.62499">
        <ele>69</ele>
        <time>2021-06-05T13:51:02.000Z</time>
      </trkpt>
      <trkpt lat="47.16738" lon="-1.62504">
        <ele>68</ele>
        <time>2021-06-05T13:51:04.000Z</time>
      </trkpt>
      <trkpt lat="47.1675" lon="-1.6251">
        <ele>68</ele>
        <time>2021-06-05T13:51:06.000Z</time>
      </trkpt>
      <trkpt lat="47.16762" lon="-1.62517">
        <ele>68</ele>
        <time>2021-06-05T13:51:08.000Z</time>
      </trkpt>
      <trkpt lat="47.16774" lon="-1.62524">
        <ele>69</ele>
        <time>2021-06-05T13:51:10.000Z</time>
      </trkpt>
      <trkpt lat="47.16785" lon="-1.62532">
        <ele>69</ele>
        <time>2021-06-05T13:51:12.000Z</time>
      </trkpt>
      <trkpt lat="47.16796" lon="-1.62539">
        <ele>69</ele>
        <time>2021-06-05T13:51:14.000Z</time>
      </trkpt>
      <trkpt lat="47.16808" lon="-1.62547">
        <ele>69</ele>
        <time>2021-06-05T13:51:16.000Z</time>
      </trkpt>
      <trkpt lat="47.16819" lon="-1.62555">
        <ele>69</ele>
        <time>2021-06-05T13:51:18.000Z</time>
      </trkpt>
      <trkpt lat="47.16828" lon="-1.62568">
        <ele>69</ele>
        <time>2021-06-05T13:51:20.000Z</time>
      </trkpt>
      <trkpt lat="47.16832" lon="-1.62585">
        <ele>70</ele>
        <time>2021-06-05T13:51:22.000Z</time>
      </trkpt>
      <trkpt lat="47.16824" lon="-1.62601">
        <ele>70</ele>
        <time>2021-06-05T13:51:24.000Z</time>
      </trkpt>
      <trkpt lat="47.16815" lon="-1.62614">
        <ele>69</ele>
        <time>2021-06-05T13:51:26.000Z</time>
      </trkpt>
      <trkpt lat="47.16807" lon="-1.62627">
        <ele>69</ele>
        <time>2021-06-05T13:51:28.000Z</time>
      </trkpt>
      <trkpt lat="47.168" lon="-1.62639">
        <ele>70</ele>
        <time>2021-06-05T13:51:30.000Z</time>
      </trkpt>
      <trkpt lat="47.16794" lon="-1.6265">
        <ele>69</ele>
        <time>2021-06-05T13:51:32.000Z</time>
      </trkpt>
      <trkpt lat="47.16786" lon="-1.62662">
        <ele>69</ele>
        <time>2021-06-05T13:51:35.000Z</time>
      </trkpt>
      <trkpt lat="47.16778" lon="-1.62656">
        <ele>69</ele>
        <time>2021-06-05T13:51:39.000Z</time>
      </trkpt>
    </trkseg>
  </trk>
</gpx>